<?xml version="1.0" encoding="UTF-8" standalone="no" ?>
<gpx xmlns="http://www.topografix.com/GPX/1/1" xmlns:xsi="http://www.w3.org/2001/XMLSchema-instance" xsi:schemaLocation="http://www.topografix.com/GPX/1/1 http://www.topografix.com/GPX/1/1/gpx.xsd" version="1.1" creator="VisuGPX - https://www.visugpx.com">
  <metadata>
    <name>Croix Bozon et lac de l'étroit</name>
    <desc><![CDATA[Départ et Arrivée 
Les Bauches]]></desc>
  </metadata>
  <trk>
    <name><![CDATA[Croix Bozon et lac de l'étroit_1]]></name>
    <trkseg>
      <trkpt lat="45.52401" lon="6.73998">
        <ele>1780.4</ele>
        <time>2021-08-03T07:25:12Z</time>
      </trkpt>
      <trkpt lat="45.52402" lon="6.73999">
        <ele>1780.4</ele>
        <time>2021-08-03T07:25:13Z</time>
      </trkpt>
      <trkpt lat="45.52403" lon="6.73999">
        <ele>1780.4</ele>
        <time>2021-08-03T07:25:14Z</time>
      </trkpt>
      <trkpt lat="45.52403" lon="6.74">
        <ele>1780.3</ele>
        <time>2021-08-03T07:25:15Z</time>
      </trkpt>
      <trkpt lat="45.52404" lon="6.74">
        <ele>1780.3</ele>
        <time>2021-08-03T07:25:16Z</time>
      </trkpt>
      <trkpt lat="45.52405" lon="6.74001">
        <ele>1780.3</ele>
        <time>2021-08-03T07:25:17Z</time>
      </trkpt>
      <trkpt lat="45.52406" lon="6.74001">
        <ele>1780.3</ele>
        <time>2021-08-03T07:25:18Z</time>
      </trkpt>
      <trkpt lat="45.52407" lon="6.74001">
        <ele>1780.2</ele>
        <time>2021-08-03T07:25:19Z</time>
      </trkpt>
      <trkpt lat="45.52408" lon="6.74002">
        <ele>1780.2</ele>
        <time>2021-08-03T07:25:20Z</time>
      </trkpt>
      <trkpt lat="45.52409" lon="6.74002">
        <ele>1780.2</ele>
        <time>2021-08-03T07:25:21Z</time>
      </trkpt>
      <trkpt lat="45.5241" lon="6.74003">
        <ele>1780.1</ele>
        <time>2021-08-03T07:25:22Z</time>
      </trkpt>
      <trkpt lat="45.52411" lon="6.74003">
        <ele>1780.1</ele>
        <time>2021-08-03T07:25:23Z</time>
      </trkpt>
      <trkpt lat="45.52412" lon="6.74003">
        <ele>1780</ele>
        <time>2021-08-03T07:25:24Z</time>
      </trkpt>
      <trkpt lat="45.52413" lon="6.74004">
        <ele>1780</ele>
        <time>2021-08-03T07:25:25Z</time>
      </trkpt>
      <trkpt lat="45.52414" lon="6.74004">
        <ele>1780</ele>
        <time>2021-08-03T07:25:26Z</time>
      </trkpt>
      <trkpt lat="45.52415" lon="6.74005">
        <ele>1779.9</ele>
        <time>2021-08-03T07:25:27Z</time>
      </trkpt>
      <trkpt lat="45.52416" lon="6.74005">
        <ele>1779.9</ele>
        <time>2021-08-03T07:25:28Z</time>
      </trkpt>
      <trkpt lat="45.52418" lon="6.74006">
        <ele>1779.8</ele>
        <time>2021-08-03T07:25:29Z</time>
      </trkpt>
      <trkpt lat="45.52419" lon="6.74006">
        <ele>1779.8</ele>
        <time>2021-08-03T07:25:30Z</time>
      </trkpt>
      <trkpt lat="45.5242" lon="6.74007">
        <ele>1779.7</ele>
        <time>2021-08-03T07:25:31Z</time>
      </trkpt>
      <trkpt lat="45.52421" lon="6.74007">
        <ele>1779.7</ele>
        <time>2021-08-03T07:25:32Z</time>
      </trkpt>
      <trkpt lat="45.52422" lon="6.74008">
        <ele>1779.6</ele>
        <time>2021-08-03T07:25:33Z</time>
      </trkpt>
      <trkpt lat="45.52423" lon="6.74009">
        <ele>1779.5</ele>
        <time>2021-08-03T07:25:34Z</time>
      </trkpt>
      <trkpt lat="45.52424" lon="6.7401">
        <ele>1779.5</ele>
        <time>2021-08-03T07:25:35Z</time>
      </trkpt>
      <trkpt lat="45.52425" lon="6.7401">
        <ele>1779.4</ele>
        <time>2021-08-03T07:25:36Z</time>
      </trkpt>
      <trkpt lat="45.52427" lon="6.74011">
        <ele>1779.3</ele>
        <time>2021-08-03T07:25:37Z</time>
      </trkpt>
      <trkpt lat="45.52428" lon="6.74012">
        <ele>1779.2</ele>
        <time>2021-08-03T07:25:38Z</time>
      </trkpt>
      <trkpt lat="45.52429" lon="6.74013">
        <ele>1779.2</ele>
        <time>2021-08-03T07:25:39Z</time>
      </trkpt>
      <trkpt lat="45.5243" lon="6.74014">
        <ele>1779.1</ele>
        <time>2021-08-03T07:25:40Z</time>
      </trkpt>
      <trkpt lat="45.52431" lon="6.74015">
        <ele>1779</ele>
        <time>2021-08-03T07:25:41Z</time>
      </trkpt>
      <trkpt lat="45.52432" lon="6.74016">
        <ele>1778.9</ele>
        <time>2021-08-03T07:25:42Z</time>
      </trkpt>
      <trkpt lat="45.52433" lon="6.74017">
        <ele>1778.8</ele>
        <time>2021-08-03T07:25:43Z</time>
      </trkpt>
      <trkpt lat="45.52433" lon="6.74019">
        <ele>1778.7</ele>
        <time>2021-08-03T07:25:44Z</time>
      </trkpt>
      <trkpt lat="45.52434" lon="6.7402">
        <ele>1778.6</ele>
        <time>2021-08-03T07:25:45Z</time>
      </trkpt>
      <trkpt lat="45.52435" lon="6.74021">
        <ele>1778.5</ele>
        <time>2021-08-03T07:25:46Z</time>
      </trkpt>
      <trkpt lat="45.52436" lon="6.74023">
        <ele>1778.4</ele>
        <time>2021-08-03T07:25:47Z</time>
      </trkpt>
      <trkpt lat="45.52437" lon="6.74024">
        <ele>1778.3</ele>
        <time>2021-08-03T07:25:48Z</time>
      </trkpt>
      <trkpt lat="45.52437" lon="6.74026">
        <ele>1778.2</ele>
        <time>2021-08-03T07:25:49Z</time>
      </trkpt>
      <trkpt lat="45.52438" lon="6.74027">
        <ele>1778.1</ele>
        <time>2021-08-03T07:25:50Z</time>
      </trkpt>
      <trkpt lat="45.52439" lon="6.74028">
        <ele>1778</ele>
        <time>2021-08-03T07:25:51Z</time>
      </trkpt>
      <trkpt lat="45.5244" lon="6.7403">
        <ele>1777.9</ele>
        <time>2021-08-03T07:25:52Z</time>
      </trkpt>
      <trkpt lat="45.52441" lon="6.74031">
        <ele>1777.8</ele>
        <time>2021-08-03T07:25:53Z</time>
      </trkpt>
      <trkpt lat="45.52441" lon="6.74032">
        <ele>1777.7</ele>
        <time>2021-08-03T07:25:54Z</time>
      </trkpt>
      <trkpt lat="45.52442" lon="6.74033">
        <ele>1777.6</ele>
        <time>2021-08-03T07:25:55Z</time>
      </trkpt>
      <trkpt lat="45.52443" lon="6.74034">
        <ele>1777.5</ele>
        <time>2021-08-03T07:25:56Z</time>
      </trkpt>
      <trkpt lat="45.52444" lon="6.74034">
        <ele>1777.4</ele>
        <time>2021-08-03T07:25:57Z</time>
      </trkpt>
      <trkpt lat="45.52445" lon="6.74035">
        <ele>1777.3</ele>
        <time>2021-08-03T07:25:58Z</time>
      </trkpt>
      <trkpt lat="45.52447" lon="6.74036">
        <ele>1777.2</ele>
        <time>2021-08-03T07:25:59Z</time>
      </trkpt>
      <trkpt lat="45.52448" lon="6.74037">
        <ele>1777.1</ele>
        <time>2021-08-03T07:26:00Z</time>
      </trkpt>
      <trkpt lat="45.52449" lon="6.74037">
        <ele>1776.9</ele>
        <time>2021-08-03T07:26:01Z</time>
      </trkpt>
      <trkpt lat="45.5245" lon="6.74038">
        <ele>1776.8</ele>
        <time>2021-08-03T07:26:02Z</time>
      </trkpt>
      <trkpt lat="45.52451" lon="6.74038">
        <ele>1776.7</ele>
        <time>2021-08-03T07:26:03Z</time>
      </trkpt>
      <trkpt lat="45.52453" lon="6.74039">
        <ele>1776.6</ele>
        <time>2021-08-03T07:26:04Z</time>
      </trkpt>
      <trkpt lat="45.52454" lon="6.74039">
        <ele>1776.5</ele>
        <time>2021-08-03T07:26:05Z</time>
      </trkpt>
      <trkpt lat="45.52455" lon="6.7404">
        <ele>1776.3</ele>
        <time>2021-08-03T07:26:06Z</time>
      </trkpt>
      <trkpt lat="45.52456" lon="6.7404">
        <ele>1776.2</ele>
        <time>2021-08-03T07:26:07Z</time>
      </trkpt>
      <trkpt lat="45.52458" lon="6.7404">
        <ele>1776.1</ele>
        <time>2021-08-03T07:26:08Z</time>
      </trkpt>
      <trkpt lat="45.52459" lon="6.74041">
        <ele>1776</ele>
        <time>2021-08-03T07:26:09Z</time>
      </trkpt>
      <trkpt lat="45.5246" lon="6.74041">
        <ele>1775.9</ele>
        <time>2021-08-03T07:26:10Z</time>
      </trkpt>
      <trkpt lat="45.52462" lon="6.74042">
        <ele>1775.8</ele>
        <time>2021-08-03T07:26:11Z</time>
      </trkpt>
      <trkpt lat="45.52463" lon="6.74043">
        <ele>1775.7</ele>
        <time>2021-08-03T07:26:12Z</time>
      </trkpt>
      <trkpt lat="45.52464" lon="6.74043">
        <ele>1775.6</ele>
        <time>2021-08-03T07:26:13Z</time>
      </trkpt>
      <trkpt lat="45.52466" lon="6.74044">
        <ele>1775.5</ele>
        <time>2021-08-03T07:26:14Z</time>
      </trkpt>
      <trkpt lat="45.52467" lon="6.74045">
        <ele>1775.4</ele>
        <time>2021-08-03T07:26:15Z</time>
      </trkpt>
      <trkpt lat="45.52468" lon="6.74046">
        <ele>1775.3</ele>
        <time>2021-08-03T07:26:16Z</time>
      </trkpt>
      <trkpt lat="45.5247" lon="6.74047">
        <ele>1775.2</ele>
        <time>2021-08-03T07:26:17Z</time>
      </trkpt>
      <trkpt lat="45.52471" lon="6.74048">
        <ele>1775.1</ele>
        <time>2021-08-03T07:26:18Z</time>
      </trkpt>
      <trkpt lat="45.52472" lon="6.74049">
        <ele>1775</ele>
        <time>2021-08-03T07:26:19Z</time>
      </trkpt>
      <trkpt lat="45.52473" lon="6.7405">
        <ele>1775</ele>
        <time>2021-08-03T07:26:20Z</time>
      </trkpt>
      <trkpt lat="45.52474" lon="6.74052">
        <ele>1774.9</ele>
        <time>2021-08-03T07:26:21Z</time>
      </trkpt>
      <trkpt lat="45.52476" lon="6.74053">
        <ele>1774.8</ele>
        <time>2021-08-03T07:26:22Z</time>
      </trkpt>
      <trkpt lat="45.52477" lon="6.74054">
        <ele>1774.7</ele>
        <time>2021-08-03T07:26:23Z</time>
      </trkpt>
      <trkpt lat="45.52478" lon="6.74056">
        <ele>1774.6</ele>
        <time>2021-08-03T07:26:24Z</time>
      </trkpt>
      <trkpt lat="45.52479" lon="6.74057">
        <ele>1774.5</ele>
        <time>2021-08-03T07:26:25Z</time>
      </trkpt>
      <trkpt lat="45.52479" lon="6.74058">
        <ele>1774.5</ele>
        <time>2021-08-03T07:26:26Z</time>
      </trkpt>
      <trkpt lat="45.5248" lon="6.7406">
        <ele>1774.4</ele>
        <time>2021-08-03T07:26:27Z</time>
      </trkpt>
      <trkpt lat="45.52481" lon="6.74061">
        <ele>1774.3</ele>
        <time>2021-08-03T07:26:28Z</time>
      </trkpt>
      <trkpt lat="45.52482" lon="6.74063">
        <ele>1774.2</ele>
        <time>2021-08-03T07:26:29Z</time>
      </trkpt>
      <trkpt lat="45.52483" lon="6.74064">
        <ele>1774.2</ele>
        <time>2021-08-03T07:26:30Z</time>
      </trkpt>
      <trkpt lat="45.52483" lon="6.74066">
        <ele>1774.1</ele>
        <time>2021-08-03T07:26:31Z</time>
      </trkpt>
      <trkpt lat="45.52484" lon="6.74067">
        <ele>1774</ele>
        <time>2021-08-03T07:26:32Z</time>
      </trkpt>
      <trkpt lat="45.52485" lon="6.74069">
        <ele>1773.9</ele>
        <time>2021-08-03T07:26:33Z</time>
      </trkpt>
      <trkpt lat="45.52485" lon="6.7407">
        <ele>1773.9</ele>
        <time>2021-08-03T07:26:34Z</time>
      </trkpt>
      <trkpt lat="45.52485" lon="6.74071">
        <ele>1773.8</ele>
        <time>2021-08-03T07:26:35Z</time>
      </trkpt>
      <trkpt lat="45.52486" lon="6.74071">
        <ele>1773.8</ele>
        <time>2021-08-03T07:26:36Z</time>
      </trkpt>
      <trkpt lat="45.52486" lon="6.74072">
        <ele>1773.8</ele>
        <time>2021-08-03T07:26:37Z</time>
      </trkpt>
      <trkpt lat="45.52487" lon="6.74073">
        <ele>1773.7</ele>
        <time>2021-08-03T07:26:38Z</time>
      </trkpt>
      <trkpt lat="45.52488" lon="6.74074">
        <ele>1773.6</ele>
        <time>2021-08-03T07:26:39Z</time>
      </trkpt>
      <trkpt lat="45.52488" lon="6.74076">
        <ele>1773.5</ele>
        <time>2021-08-03T07:26:40Z</time>
      </trkpt>
      <trkpt lat="45.52489" lon="6.74077">
        <ele>1773.4</ele>
        <time>2021-08-03T07:26:41Z</time>
      </trkpt>
      <trkpt lat="45.5249" lon="6.74079">
        <ele>1773.3</ele>
        <time>2021-08-03T07:26:42Z</time>
      </trkpt>
      <trkpt lat="45.52491" lon="6.74081">
        <ele>1773.3</ele>
        <time>2021-08-03T07:26:43Z</time>
      </trkpt>
      <trkpt lat="45.52491" lon="6.74083">
        <ele>1773.2</ele>
        <time>2021-08-03T07:26:44Z</time>
      </trkpt>
      <trkpt lat="45.52492" lon="6.74085">
        <ele>1773.1</ele>
        <time>2021-08-03T07:26:45Z</time>
      </trkpt>
      <trkpt lat="45.52493" lon="6.74086">
        <ele>1773</ele>
        <time>2021-08-03T07:26:46Z</time>
      </trkpt>
      <trkpt lat="45.52493" lon="6.74088">
        <ele>1772.9</ele>
        <time>2021-08-03T07:26:47Z</time>
      </trkpt>
      <trkpt lat="45.52494" lon="6.7409">
        <ele>1772.8</ele>
        <time>2021-08-03T07:26:48Z</time>
      </trkpt>
      <trkpt lat="45.52494" lon="6.74092">
        <ele>1772.7</ele>
        <time>2021-08-03T07:26:49Z</time>
      </trkpt>
      <trkpt lat="45.52495" lon="6.74094">
        <ele>1772.6</ele>
        <time>2021-08-03T07:26:50Z</time>
      </trkpt>
      <trkpt lat="45.52496" lon="6.74096">
        <ele>1772.5</ele>
        <time>2021-08-03T07:26:51Z</time>
      </trkpt>
      <trkpt lat="45.52496" lon="6.74097">
        <ele>1772.4</ele>
        <time>2021-08-03T07:26:52Z</time>
      </trkpt>
      <trkpt lat="45.52497" lon="6.74099">
        <ele>1772.3</ele>
        <time>2021-08-03T07:26:53Z</time>
      </trkpt>
      <trkpt lat="45.52498" lon="6.74101">
        <ele>1772.2</ele>
        <time>2021-08-03T07:26:54Z</time>
      </trkpt>
      <trkpt lat="45.52499" lon="6.74103">
        <ele>1772.2</ele>
        <time>2021-08-03T07:26:55Z</time>
      </trkpt>
      <trkpt lat="45.52499" lon="6.74105">
        <ele>1772.1</ele>
        <time>2021-08-03T07:26:56Z</time>
      </trkpt>
      <trkpt lat="45.525" lon="6.74107">
        <ele>1772</ele>
        <time>2021-08-03T07:26:57Z</time>
      </trkpt>
      <trkpt lat="45.52501" lon="6.74108">
        <ele>1771.9</ele>
        <time>2021-08-03T07:26:58Z</time>
      </trkpt>
      <trkpt lat="45.52501" lon="6.7411">
        <ele>1771.8</ele>
        <time>2021-08-03T07:26:59Z</time>
      </trkpt>
      <trkpt lat="45.52502" lon="6.74112">
        <ele>1771.7</ele>
        <time>2021-08-03T07:27:00Z</time>
      </trkpt>
      <trkpt lat="45.52503" lon="6.74114">
        <ele>1771.6</ele>
        <time>2021-08-03T07:27:01Z</time>
      </trkpt>
      <trkpt lat="45.52504" lon="6.74116">
        <ele>1771.5</ele>
        <time>2021-08-03T07:27:02Z</time>
      </trkpt>
      <trkpt lat="45.52504" lon="6.74117">
        <ele>1771.4</ele>
        <time>2021-08-03T07:27:03Z</time>
      </trkpt>
      <trkpt lat="45.52505" lon="6.74119">
        <ele>1771.3</ele>
        <time>2021-08-03T07:27:04Z</time>
      </trkpt>
      <trkpt lat="45.52506" lon="6.74121">
        <ele>1771.2</ele>
        <time>2021-08-03T07:27:05Z</time>
      </trkpt>
      <trkpt lat="45.52507" lon="6.74123">
        <ele>1771.1</ele>
        <time>2021-08-03T07:27:06Z</time>
      </trkpt>
      <trkpt lat="45.52507" lon="6.74125">
        <ele>1771.1</ele>
        <time>2021-08-03T07:27:07Z</time>
      </trkpt>
      <trkpt lat="45.52508" lon="6.74127">
        <ele>1771</ele>
        <time>2021-08-03T07:27:08Z</time>
      </trkpt>
      <trkpt lat="45.52509" lon="6.74128">
        <ele>1770.9</ele>
        <time>2021-08-03T07:27:09Z</time>
      </trkpt>
      <trkpt lat="45.52509" lon="6.7413">
        <ele>1770.8</ele>
        <time>2021-08-03T07:27:10Z</time>
      </trkpt>
      <trkpt lat="45.5251" lon="6.74132">
        <ele>1770.7</ele>
        <time>2021-08-03T07:27:11Z</time>
      </trkpt>
      <trkpt lat="45.52511" lon="6.74134">
        <ele>1770.6</ele>
        <time>2021-08-03T07:27:12Z</time>
      </trkpt>
      <trkpt lat="45.52512" lon="6.74136">
        <ele>1770.4</ele>
        <time>2021-08-03T07:27:13Z</time>
      </trkpt>
      <trkpt lat="45.52512" lon="6.74137">
        <ele>1770.3</ele>
        <time>2021-08-03T07:27:14Z</time>
      </trkpt>
      <trkpt lat="45.52513" lon="6.74139">
        <ele>1770.2</ele>
        <time>2021-08-03T07:27:15Z</time>
      </trkpt>
      <trkpt lat="45.52514" lon="6.74141">
        <ele>1770.1</ele>
        <time>2021-08-03T07:27:16Z</time>
      </trkpt>
      <trkpt lat="45.52514" lon="6.74143">
        <ele>1770</ele>
        <time>2021-08-03T07:27:17Z</time>
      </trkpt>
      <trkpt lat="45.52515" lon="6.74145">
        <ele>1769.9</ele>
        <time>2021-08-03T07:27:18Z</time>
      </trkpt>
      <trkpt lat="45.52516" lon="6.74147">
        <ele>1769.8</ele>
        <time>2021-08-03T07:27:19Z</time>
      </trkpt>
      <trkpt lat="45.52516" lon="6.74148">
        <ele>1769.7</ele>
        <time>2021-08-03T07:27:20Z</time>
      </trkpt>
      <trkpt lat="45.52517" lon="6.7415">
        <ele>1769.6</ele>
        <time>2021-08-03T07:27:21Z</time>
      </trkpt>
      <trkpt lat="45.52518" lon="6.74152">
        <ele>1769.5</ele>
        <time>2021-08-03T07:27:22Z</time>
      </trkpt>
      <trkpt lat="45.52519" lon="6.74154">
        <ele>1769.4</ele>
        <time>2021-08-03T07:27:23Z</time>
      </trkpt>
      <trkpt lat="45.52519" lon="6.74156">
        <ele>1769.3</ele>
        <time>2021-08-03T07:27:24Z</time>
      </trkpt>
      <trkpt lat="45.5252" lon="6.74158">
        <ele>1769.2</ele>
        <time>2021-08-03T07:27:25Z</time>
      </trkpt>
      <trkpt lat="45.52521" lon="6.74159">
        <ele>1769.1</ele>
        <time>2021-08-03T07:27:26Z</time>
      </trkpt>
      <trkpt lat="45.52521" lon="6.74161">
        <ele>1769</ele>
        <time>2021-08-03T07:27:27Z</time>
      </trkpt>
      <trkpt lat="45.52522" lon="6.74163">
        <ele>1768.9</ele>
        <time>2021-08-03T07:27:28Z</time>
      </trkpt>
      <trkpt lat="45.52523" lon="6.74165">
        <ele>1768.8</ele>
        <time>2021-08-03T07:27:29Z</time>
      </trkpt>
      <trkpt lat="45.52523" lon="6.74167">
        <ele>1768.6</ele>
        <time>2021-08-03T07:27:30Z</time>
      </trkpt>
      <trkpt lat="45.52524" lon="6.74168">
        <ele>1768.5</ele>
        <time>2021-08-03T07:27:31Z</time>
      </trkpt>
      <trkpt lat="45.52525" lon="6.7417">
        <ele>1768.4</ele>
        <time>2021-08-03T07:27:32Z</time>
      </trkpt>
      <trkpt lat="45.52525" lon="6.74172">
        <ele>1768.3</ele>
        <time>2021-08-03T07:27:33Z</time>
      </trkpt>
      <trkpt lat="45.52526" lon="6.74174">
        <ele>1768.2</ele>
        <time>2021-08-03T07:27:34Z</time>
      </trkpt>
      <trkpt lat="45.52527" lon="6.74176">
        <ele>1768.1</ele>
        <time>2021-08-03T07:27:35Z</time>
      </trkpt>
      <trkpt lat="45.52527" lon="6.74177">
        <ele>1768</ele>
        <time>2021-08-03T07:27:36Z</time>
      </trkpt>
      <trkpt lat="45.52528" lon="6.74179">
        <ele>1767.9</ele>
        <time>2021-08-03T07:27:37Z</time>
      </trkpt>
      <trkpt lat="45.52528" lon="6.74181">
        <ele>1767.8</ele>
        <time>2021-08-03T07:27:38Z</time>
      </trkpt>
      <trkpt lat="45.52529" lon="6.74182">
        <ele>1767.7</ele>
        <time>2021-08-03T07:27:39Z</time>
      </trkpt>
      <trkpt lat="45.5253" lon="6.74184">
        <ele>1767.6</ele>
        <time>2021-08-03T07:27:40Z</time>
      </trkpt>
      <trkpt lat="45.5253" lon="6.74186">
        <ele>1767.5</ele>
        <time>2021-08-03T07:27:41Z</time>
      </trkpt>
      <trkpt lat="45.52531" lon="6.74188">
        <ele>1767.4</ele>
        <time>2021-08-03T07:27:42Z</time>
      </trkpt>
      <trkpt lat="45.52532" lon="6.74189">
        <ele>1767.3</ele>
        <time>2021-08-03T07:27:43Z</time>
      </trkpt>
      <trkpt lat="45.52533" lon="6.74191">
        <ele>1767.2</ele>
        <time>2021-08-03T07:27:44Z</time>
      </trkpt>
      <trkpt lat="45.52533" lon="6.74193">
        <ele>1767.1</ele>
        <time>2021-08-03T07:27:45Z</time>
      </trkpt>
      <trkpt lat="45.52534" lon="6.74194">
        <ele>1766.9</ele>
        <time>2021-08-03T07:27:46Z</time>
      </trkpt>
      <trkpt lat="45.52535" lon="6.74196">
        <ele>1766.8</ele>
        <time>2021-08-03T07:27:47Z</time>
      </trkpt>
      <trkpt lat="45.52535" lon="6.74198">
        <ele>1766.7</ele>
        <time>2021-08-03T07:27:48Z</time>
      </trkpt>
      <trkpt lat="45.52536" lon="6.74199">
        <ele>1766.6</ele>
        <time>2021-08-03T07:27:49Z</time>
      </trkpt>
      <trkpt lat="45.52537" lon="6.74201">
        <ele>1766.5</ele>
        <time>2021-08-03T07:27:50Z</time>
      </trkpt>
      <trkpt lat="45.52538" lon="6.74203">
        <ele>1766.4</ele>
        <time>2021-08-03T07:27:51Z</time>
      </trkpt>
      <trkpt lat="45.52538" lon="6.74204">
        <ele>1766.3</ele>
        <time>2021-08-03T07:27:52Z</time>
      </trkpt>
      <trkpt lat="45.52539" lon="6.74206">
        <ele>1766.1</ele>
        <time>2021-08-03T07:27:53Z</time>
      </trkpt>
      <trkpt lat="45.5254" lon="6.74208">
        <ele>1766</ele>
        <time>2021-08-03T07:27:54Z</time>
      </trkpt>
      <trkpt lat="45.52541" lon="6.74209">
        <ele>1765.9</ele>
        <time>2021-08-03T07:27:55Z</time>
      </trkpt>
      <trkpt lat="45.52542" lon="6.74211">
        <ele>1765.8</ele>
        <time>2021-08-03T07:27:56Z</time>
      </trkpt>
      <trkpt lat="45.52542" lon="6.74213">
        <ele>1765.6</ele>
        <time>2021-08-03T07:27:57Z</time>
      </trkpt>
      <trkpt lat="45.52543" lon="6.74214">
        <ele>1765.5</ele>
        <time>2021-08-03T07:27:58Z</time>
      </trkpt>
      <trkpt lat="45.52544" lon="6.74216">
        <ele>1765.4</ele>
        <time>2021-08-03T07:27:59Z</time>
      </trkpt>
      <trkpt lat="45.52545" lon="6.74218">
        <ele>1765.3</ele>
        <time>2021-08-03T07:28:00Z</time>
      </trkpt>
      <trkpt lat="45.52546" lon="6.74219">
        <ele>1765.1</ele>
        <time>2021-08-03T07:28:01Z</time>
      </trkpt>
      <trkpt lat="45.52547" lon="6.74221">
        <ele>1765</ele>
        <time>2021-08-03T07:28:02Z</time>
      </trkpt>
      <trkpt lat="45.52548" lon="6.74223">
        <ele>1764.9</ele>
        <time>2021-08-03T07:28:03Z</time>
      </trkpt>
      <trkpt lat="45.52548" lon="6.74224">
        <ele>1764.7</ele>
        <time>2021-08-03T07:28:04Z</time>
      </trkpt>
      <trkpt lat="45.52549" lon="6.74226">
        <ele>1764.6</ele>
        <time>2021-08-03T07:28:05Z</time>
      </trkpt>
      <trkpt lat="45.5255" lon="6.74228">
        <ele>1764.5</ele>
        <time>2021-08-03T07:28:06Z</time>
      </trkpt>
      <trkpt lat="45.52551" lon="6.7423">
        <ele>1764.3</ele>
        <time>2021-08-03T07:28:07Z</time>
      </trkpt>
      <trkpt lat="45.52552" lon="6.74231">
        <ele>1764.2</ele>
        <time>2021-08-03T07:28:08Z</time>
      </trkpt>
      <trkpt lat="45.52553" lon="6.74233">
        <ele>1764</ele>
        <time>2021-08-03T07:28:09Z</time>
      </trkpt>
      <trkpt lat="45.52554" lon="6.74235">
        <ele>1763.9</ele>
        <time>2021-08-03T07:28:10Z</time>
      </trkpt>
      <trkpt lat="45.52554" lon="6.74236">
        <ele>1763.7</ele>
        <time>2021-08-03T07:28:11Z</time>
      </trkpt>
      <trkpt lat="45.52555" lon="6.74238">
        <ele>1763.6</ele>
        <time>2021-08-03T07:28:12Z</time>
      </trkpt>
      <trkpt lat="45.52556" lon="6.7424">
        <ele>1763.4</ele>
        <time>2021-08-03T07:28:13Z</time>
      </trkpt>
      <trkpt lat="45.52557" lon="6.74242">
        <ele>1763.3</ele>
        <time>2021-08-03T07:28:14Z</time>
      </trkpt>
      <trkpt lat="45.52558" lon="6.74244">
        <ele>1763.1</ele>
        <time>2021-08-03T07:28:15Z</time>
      </trkpt>
      <trkpt lat="45.52558" lon="6.74245">
        <ele>1762.9</ele>
        <time>2021-08-03T07:28:16Z</time>
      </trkpt>
      <trkpt lat="45.52559" lon="6.74247">
        <ele>1762.8</ele>
        <time>2021-08-03T07:28:17Z</time>
      </trkpt>
      <trkpt lat="45.5256" lon="6.74249">
        <ele>1762.6</ele>
        <time>2021-08-03T07:28:18Z</time>
      </trkpt>
      <trkpt lat="45.52561" lon="6.74251">
        <ele>1762.5</ele>
        <time>2021-08-03T07:28:19Z</time>
      </trkpt>
      <trkpt lat="45.52561" lon="6.74253">
        <ele>1762.3</ele>
        <time>2021-08-03T07:28:20Z</time>
      </trkpt>
      <trkpt lat="45.52562" lon="6.74254">
        <ele>1762.1</ele>
        <time>2021-08-03T07:28:21Z</time>
      </trkpt>
      <trkpt lat="45.52562" lon="6.74256">
        <ele>1762</ele>
        <time>2021-08-03T07:28:22Z</time>
      </trkpt>
      <trkpt lat="45.52563" lon="6.74258">
        <ele>1761.8</ele>
        <time>2021-08-03T07:28:23Z</time>
      </trkpt>
      <trkpt lat="45.52564" lon="6.7426">
        <ele>1761.7</ele>
        <time>2021-08-03T07:28:24Z</time>
      </trkpt>
      <trkpt lat="45.52564" lon="6.74262">
        <ele>1761.5</ele>
        <time>2021-08-03T07:28:25Z</time>
      </trkpt>
      <trkpt lat="45.52565" lon="6.74263">
        <ele>1761.3</ele>
        <time>2021-08-03T07:28:26Z</time>
      </trkpt>
      <trkpt lat="45.52565" lon="6.74265">
        <ele>1761.2</ele>
        <time>2021-08-03T07:28:27Z</time>
      </trkpt>
      <trkpt lat="45.52566" lon="6.74267">
        <ele>1761</ele>
        <time>2021-08-03T07:28:28Z</time>
      </trkpt>
      <trkpt lat="45.52566" lon="6.74269">
        <ele>1760.9</ele>
        <time>2021-08-03T07:28:29Z</time>
      </trkpt>
      <trkpt lat="45.52567" lon="6.74271">
        <ele>1760.7</ele>
        <time>2021-08-03T07:28:30Z</time>
      </trkpt>
      <trkpt lat="45.52567" lon="6.74272">
        <ele>1760.6</ele>
        <time>2021-08-03T07:28:31Z</time>
      </trkpt>
      <trkpt lat="45.52568" lon="6.74274">
        <ele>1760.4</ele>
        <time>2021-08-03T07:28:32Z</time>
      </trkpt>
      <trkpt lat="45.52568" lon="6.74276">
        <ele>1760.3</ele>
        <time>2021-08-03T07:28:33Z</time>
      </trkpt>
      <trkpt lat="45.52569" lon="6.74278">
        <ele>1760.1</ele>
        <time>2021-08-03T07:28:34Z</time>
      </trkpt>
      <trkpt lat="45.5257" lon="6.74279">
        <ele>1760</ele>
        <time>2021-08-03T07:28:35Z</time>
      </trkpt>
      <trkpt lat="45.5257" lon="6.74281">
        <ele>1759.8</ele>
        <time>2021-08-03T07:28:36Z</time>
      </trkpt>
      <trkpt lat="45.52571" lon="6.74283">
        <ele>1759.7</ele>
        <time>2021-08-03T07:28:37Z</time>
      </trkpt>
      <trkpt lat="45.52571" lon="6.74284">
        <ele>1759.5</ele>
        <time>2021-08-03T07:28:38Z</time>
      </trkpt>
      <trkpt lat="45.52572" lon="6.74286">
        <ele>1759.3</ele>
        <time>2021-08-03T07:28:39Z</time>
      </trkpt>
      <trkpt lat="45.52573" lon="6.74288">
        <ele>1759.2</ele>
        <time>2021-08-03T07:28:40Z</time>
      </trkpt>
      <trkpt lat="45.52573" lon="6.74289">
        <ele>1759</ele>
        <time>2021-08-03T07:28:41Z</time>
      </trkpt>
      <trkpt lat="45.52574" lon="6.74291">
        <ele>1758.9</ele>
        <time>2021-08-03T07:28:42Z</time>
      </trkpt>
      <trkpt lat="45.52575" lon="6.74292">
        <ele>1758.7</ele>
        <time>2021-08-03T07:28:43Z</time>
      </trkpt>
      <trkpt lat="45.52576" lon="6.74294">
        <ele>1758.6</ele>
        <time>2021-08-03T07:28:44Z</time>
      </trkpt>
      <trkpt lat="45.52577" lon="6.74295">
        <ele>1758.4</ele>
        <time>2021-08-03T07:28:45Z</time>
      </trkpt>
      <trkpt lat="45.52577" lon="6.74297">
        <ele>1758.3</ele>
        <time>2021-08-03T07:28:46Z</time>
      </trkpt>
      <trkpt lat="45.52578" lon="6.74299">
        <ele>1758.1</ele>
        <time>2021-08-03T07:28:47Z</time>
      </trkpt>
      <trkpt lat="45.52579" lon="6.743">
        <ele>1758</ele>
        <time>2021-08-03T07:28:48Z</time>
      </trkpt>
      <trkpt lat="45.5258" lon="6.74302">
        <ele>1757.8</ele>
        <time>2021-08-03T07:28:49Z</time>
      </trkpt>
      <trkpt lat="45.52581" lon="6.74303">
        <ele>1757.7</ele>
        <time>2021-08-03T07:28:50Z</time>
      </trkpt>
      <trkpt lat="45.52582" lon="6.74305">
        <ele>1757.5</ele>
        <time>2021-08-03T07:28:51Z</time>
      </trkpt>
      <trkpt lat="45.52583" lon="6.74306">
        <ele>1757.4</ele>
        <time>2021-08-03T07:28:52Z</time>
      </trkpt>
      <trkpt lat="45.52583" lon="6.74308">
        <ele>1757.2</ele>
        <time>2021-08-03T07:28:53Z</time>
      </trkpt>
      <trkpt lat="45.52584" lon="6.74309">
        <ele>1757.1</ele>
        <time>2021-08-03T07:28:54Z</time>
      </trkpt>
      <trkpt lat="45.52585" lon="6.74311">
        <ele>1756.9</ele>
        <time>2021-08-03T07:28:55Z</time>
      </trkpt>
      <trkpt lat="45.52586" lon="6.74312">
        <ele>1756.8</ele>
        <time>2021-08-03T07:28:56Z</time>
      </trkpt>
      <trkpt lat="45.52586" lon="6.74313">
        <ele>1756.8</ele>
        <time>2021-08-03T07:28:57Z</time>
      </trkpt>
      <trkpt lat="45.52587" lon="6.74314">
        <ele>1756.9</ele>
        <time>2021-08-03T07:28:58Z</time>
      </trkpt>
      <trkpt lat="45.52587" lon="6.74314">
        <ele>1757</ele>
        <time>2021-08-03T07:28:59Z</time>
      </trkpt>
      <trkpt lat="45.52587" lon="6.74314">
        <ele>1757</ele>
        <time>2021-08-03T07:29:00Z</time>
      </trkpt>
      <trkpt lat="45.52587" lon="6.74314">
        <ele>1757</ele>
        <time>2021-08-03T07:29:01Z</time>
      </trkpt>
      <trkpt lat="45.52587" lon="6.74314">
        <ele>1757.1</ele>
        <time>2021-08-03T07:29:02Z</time>
      </trkpt>
      <trkpt lat="45.52587" lon="6.74316">
        <ele>1757.2</ele>
        <time>2021-08-03T07:29:03Z</time>
      </trkpt>
      <trkpt lat="45.52587" lon="6.74317">
        <ele>1757.4</ele>
        <time>2021-08-03T07:29:04Z</time>
      </trkpt>
      <trkpt lat="45.52587" lon="6.74319">
        <ele>1757.7</ele>
        <time>2021-08-03T07:29:05Z</time>
      </trkpt>
      <trkpt lat="45.52587" lon="6.74321">
        <ele>1758</ele>
        <time>2021-08-03T07:29:06Z</time>
      </trkpt>
      <trkpt lat="45.52586" lon="6.74322">
        <ele>1758.2</ele>
        <time>2021-08-03T07:29:07Z</time>
      </trkpt>
      <trkpt lat="45.52586" lon="6.74323">
        <ele>1758.4</ele>
        <time>2021-08-03T07:29:08Z</time>
      </trkpt>
      <trkpt lat="45.52585" lon="6.74325">
        <ele>1758.6</ele>
        <time>2021-08-03T07:29:09Z</time>
      </trkpt>
      <trkpt lat="45.52584" lon="6.74326">
        <ele>1758.8</ele>
        <time>2021-08-03T07:29:10Z</time>
      </trkpt>
      <trkpt lat="45.52584" lon="6.74327">
        <ele>1759</ele>
        <time>2021-08-03T07:29:11Z</time>
      </trkpt>
      <trkpt lat="45.52583" lon="6.74328">
        <ele>1759.2</ele>
        <time>2021-08-03T07:29:12Z</time>
      </trkpt>
      <trkpt lat="45.52583" lon="6.74329">
        <ele>1759.4</ele>
        <time>2021-08-03T07:29:13Z</time>
      </trkpt>
      <trkpt lat="45.52583" lon="6.74331">
        <ele>1759.6</ele>
        <time>2021-08-03T07:29:14Z</time>
      </trkpt>
      <trkpt lat="45.52582" lon="6.74332">
        <ele>1759.8</ele>
        <time>2021-08-03T07:29:15Z</time>
      </trkpt>
      <trkpt lat="45.52582" lon="6.74333">
        <ele>1760</ele>
        <time>2021-08-03T07:29:16Z</time>
      </trkpt>
      <trkpt lat="45.52582" lon="6.74335">
        <ele>1760.2</ele>
        <time>2021-08-03T07:29:17Z</time>
      </trkpt>
      <trkpt lat="45.52581" lon="6.74336">
        <ele>1760.4</ele>
        <time>2021-08-03T07:29:18Z</time>
      </trkpt>
      <trkpt lat="45.52581" lon="6.74337">
        <ele>1760.6</ele>
        <time>2021-08-03T07:29:19Z</time>
      </trkpt>
      <trkpt lat="45.52581" lon="6.74338">
        <ele>1760.7</ele>
        <time>2021-08-03T07:29:20Z</time>
      </trkpt>
      <trkpt lat="45.52581" lon="6.74339">
        <ele>1760.8</ele>
        <time>2021-08-03T07:29:21Z</time>
      </trkpt>
      <trkpt lat="45.5258" lon="6.74339">
        <ele>1761</ele>
        <time>2021-08-03T07:29:22Z</time>
      </trkpt>
      <trkpt lat="45.5258" lon="6.7434">
        <ele>1761.1</ele>
        <time>2021-08-03T07:29:23Z</time>
      </trkpt>
      <trkpt lat="45.5258" lon="6.7434">
        <ele>1761.2</ele>
        <time>2021-08-03T07:29:24Z</time>
      </trkpt>
      <trkpt lat="45.52579" lon="6.74341">
        <ele>1761.3</ele>
        <time>2021-08-03T07:29:25Z</time>
      </trkpt>
      <trkpt lat="45.52579" lon="6.74341">
        <ele>1761.3</ele>
        <time>2021-08-03T07:29:26Z</time>
      </trkpt>
      <trkpt lat="45.52578" lon="6.74341">
        <ele>1761.4</ele>
        <time>2021-08-03T07:29:27Z</time>
      </trkpt>
      <trkpt lat="45.52578" lon="6.74341">
        <ele>1761.5</ele>
        <time>2021-08-03T07:29:28Z</time>
      </trkpt>
      <trkpt lat="45.52578" lon="6.74341">
        <ele>1761.6</ele>
        <time>2021-08-03T07:29:29Z</time>
      </trkpt>
      <trkpt lat="45.52577" lon="6.7434">
        <ele>1761.7</ele>
        <time>2021-08-03T07:29:30Z</time>
      </trkpt>
      <trkpt lat="45.52577" lon="6.7434">
        <ele>1761.8</ele>
        <time>2021-08-03T07:29:31Z</time>
      </trkpt>
      <trkpt lat="45.52576" lon="6.7434">
        <ele>1762</ele>
        <time>2021-08-03T07:29:32Z</time>
      </trkpt>
      <trkpt lat="45.52575" lon="6.74339">
        <ele>1762.1</ele>
        <time>2021-08-03T07:29:33Z</time>
      </trkpt>
      <trkpt lat="45.52575" lon="6.74339">
        <ele>1762.2</ele>
        <time>2021-08-03T07:29:34Z</time>
      </trkpt>
      <trkpt lat="45.52574" lon="6.74338">
        <ele>1762.4</ele>
        <time>2021-08-03T07:29:35Z</time>
      </trkpt>
      <trkpt lat="45.52574" lon="6.74338">
        <ele>1762.5</ele>
        <time>2021-08-03T07:29:36Z</time>
      </trkpt>
      <trkpt lat="45.52573" lon="6.74337">
        <ele>1762.6</ele>
        <time>2021-08-03T07:29:37Z</time>
      </trkpt>
      <trkpt lat="45.52573" lon="6.74337">
        <ele>1762.8</ele>
        <time>2021-08-03T07:29:38Z</time>
      </trkpt>
      <trkpt lat="45.52572" lon="6.74336">
        <ele>1762.9</ele>
        <time>2021-08-03T07:29:39Z</time>
      </trkpt>
      <trkpt lat="45.52572" lon="6.74336">
        <ele>1763</ele>
        <time>2021-08-03T07:29:40Z</time>
      </trkpt>
      <trkpt lat="45.52571" lon="6.74336">
        <ele>1763.2</ele>
        <time>2021-08-03T07:29:41Z</time>
      </trkpt>
      <trkpt lat="45.5257" lon="6.74335">
        <ele>1763.3</ele>
        <time>2021-08-03T07:29:42Z</time>
      </trkpt>
      <trkpt lat="45.5257" lon="6.74335">
        <ele>1763.4</ele>
        <time>2021-08-03T07:29:43Z</time>
      </trkpt>
      <trkpt lat="45.52569" lon="6.74335">
        <ele>1763.5</ele>
        <time>2021-08-03T07:29:44Z</time>
      </trkpt>
      <trkpt lat="45.52569" lon="6.74335">
        <ele>1763.6</ele>
        <time>2021-08-03T07:29:45Z</time>
      </trkpt>
      <trkpt lat="45.52568" lon="6.74335">
        <ele>1763.7</ele>
        <time>2021-08-03T07:29:46Z</time>
      </trkpt>
      <trkpt lat="45.52568" lon="6.74335">
        <ele>1763.9</ele>
        <time>2021-08-03T07:29:47Z</time>
      </trkpt>
      <trkpt lat="45.52567" lon="6.74335">
        <ele>1764</ele>
        <time>2021-08-03T07:29:48Z</time>
      </trkpt>
      <trkpt lat="45.52566" lon="6.74334">
        <ele>1764.2</ele>
        <time>2021-08-03T07:29:49Z</time>
      </trkpt>
      <trkpt lat="45.52565" lon="6.74334">
        <ele>1764.3</ele>
        <time>2021-08-03T07:29:50Z</time>
      </trkpt>
      <trkpt lat="45.52565" lon="6.74334">
        <ele>1764.5</ele>
        <time>2021-08-03T07:29:51Z</time>
      </trkpt>
      <trkpt lat="45.52564" lon="6.74333">
        <ele>1764.7</ele>
        <time>2021-08-03T07:29:52Z</time>
      </trkpt>
      <trkpt lat="45.52563" lon="6.74333">
        <ele>1764.9</ele>
        <time>2021-08-03T07:29:53Z</time>
      </trkpt>
      <trkpt lat="45.52562" lon="6.74333">
        <ele>1765.1</ele>
        <time>2021-08-03T07:29:54Z</time>
      </trkpt>
      <trkpt lat="45.52561" lon="6.74332">
        <ele>1765.3</ele>
        <time>2021-08-03T07:29:55Z</time>
      </trkpt>
      <trkpt lat="45.5256" lon="6.74332">
        <ele>1765.5</ele>
        <time>2021-08-03T07:29:56Z</time>
      </trkpt>
      <trkpt lat="45.52559" lon="6.74331">
        <ele>1765.7</ele>
        <time>2021-08-03T07:29:57Z</time>
      </trkpt>
      <trkpt lat="45.52558" lon="6.7433">
        <ele>1765.9</ele>
        <time>2021-08-03T07:29:58Z</time>
      </trkpt>
      <trkpt lat="45.52557" lon="6.7433">
        <ele>1766.1</ele>
        <time>2021-08-03T07:29:59Z</time>
      </trkpt>
      <trkpt lat="45.52557" lon="6.74329">
        <ele>1766.3</ele>
        <time>2021-08-03T07:30:00Z</time>
      </trkpt>
      <trkpt lat="45.52556" lon="6.74328">
        <ele>1766.5</ele>
        <time>2021-08-03T07:30:01Z</time>
      </trkpt>
      <trkpt lat="45.52555" lon="6.74327">
        <ele>1766.7</ele>
        <time>2021-08-03T07:30:02Z</time>
      </trkpt>
      <trkpt lat="45.52554" lon="6.74327">
        <ele>1766.9</ele>
        <time>2021-08-03T07:30:03Z</time>
      </trkpt>
      <trkpt lat="45.52553" lon="6.74326">
        <ele>1767.1</ele>
        <time>2021-08-03T07:30:04Z</time>
      </trkpt>
      <trkpt lat="45.52553" lon="6.74325">
        <ele>1767.3</ele>
        <time>2021-08-03T07:30:05Z</time>
      </trkpt>
      <trkpt lat="45.52552" lon="6.74324">
        <ele>1767.5</ele>
        <time>2021-08-03T07:30:06Z</time>
      </trkpt>
      <trkpt lat="45.52551" lon="6.74323">
        <ele>1767.7</ele>
        <time>2021-08-03T07:30:07Z</time>
      </trkpt>
      <trkpt lat="45.5255" lon="6.74322">
        <ele>1767.9</ele>
        <time>2021-08-03T07:30:08Z</time>
      </trkpt>
      <trkpt lat="45.52549" lon="6.74321">
        <ele>1768.1</ele>
        <time>2021-08-03T07:30:09Z</time>
      </trkpt>
      <trkpt lat="45.52549" lon="6.7432">
        <ele>1768.3</ele>
        <time>2021-08-03T07:30:10Z</time>
      </trkpt>
      <trkpt lat="45.52548" lon="6.74319">
        <ele>1768.6</ele>
        <time>2021-08-03T07:30:11Z</time>
      </trkpt>
      <trkpt lat="45.52547" lon="6.74318">
        <ele>1768.8</ele>
        <time>2021-08-03T07:30:12Z</time>
      </trkpt>
      <trkpt lat="45.52546" lon="6.74317">
        <ele>1769</ele>
        <time>2021-08-03T07:30:13Z</time>
      </trkpt>
      <trkpt lat="45.52546" lon="6.74316">
        <ele>1769.2</ele>
        <time>2021-08-03T07:30:14Z</time>
      </trkpt>
      <trkpt lat="45.52545" lon="6.74315">
        <ele>1769.4</ele>
        <time>2021-08-03T07:30:15Z</time>
      </trkpt>
      <trkpt lat="45.52544" lon="6.74314">
        <ele>1769.7</ele>
        <time>2021-08-03T07:30:16Z</time>
      </trkpt>
      <trkpt lat="45.52543" lon="6.74313">
        <ele>1769.9</ele>
        <time>2021-08-03T07:30:17Z</time>
      </trkpt>
      <trkpt lat="45.52542" lon="6.74312">
        <ele>1770.1</ele>
        <time>2021-08-03T07:30:18Z</time>
      </trkpt>
      <trkpt lat="45.52542" lon="6.74311">
        <ele>1770.4</ele>
        <time>2021-08-03T07:30:19Z</time>
      </trkpt>
      <trkpt lat="45.52541" lon="6.74309">
        <ele>1770.6</ele>
        <time>2021-08-03T07:30:20Z</time>
      </trkpt>
      <trkpt lat="45.5254" lon="6.74308">
        <ele>1770.8</ele>
        <time>2021-08-03T07:30:21Z</time>
      </trkpt>
      <trkpt lat="45.52539" lon="6.74307">
        <ele>1771.1</ele>
        <time>2021-08-03T07:30:22Z</time>
      </trkpt>
      <trkpt lat="45.52538" lon="6.74306">
        <ele>1771.3</ele>
        <time>2021-08-03T07:30:23Z</time>
      </trkpt>
      <trkpt lat="45.52538" lon="6.74305">
        <ele>1771.5</ele>
        <time>2021-08-03T07:30:24Z</time>
      </trkpt>
      <trkpt lat="45.52537" lon="6.74304">
        <ele>1771.7</ele>
        <time>2021-08-03T07:30:25Z</time>
      </trkpt>
      <trkpt lat="45.52536" lon="6.74303">
        <ele>1771.9</ele>
        <time>2021-08-03T07:30:26Z</time>
      </trkpt>
      <trkpt lat="45.52535" lon="6.74302">
        <ele>1772.1</ele>
        <time>2021-08-03T07:30:27Z</time>
      </trkpt>
      <trkpt lat="45.52535" lon="6.74301">
        <ele>1772.3</ele>
        <time>2021-08-03T07:30:28Z</time>
      </trkpt>
      <trkpt lat="45.52534" lon="6.743">
        <ele>1772.5</ele>
        <time>2021-08-03T07:30:29Z</time>
      </trkpt>
      <trkpt lat="45.52533" lon="6.74299">
        <ele>1772.7</ele>
        <time>2021-08-03T07:30:30Z</time>
      </trkpt>
      <trkpt lat="45.52533" lon="6.74298">
        <ele>1772.9</ele>
        <time>2021-08-03T07:30:31Z</time>
      </trkpt>
      <trkpt lat="45.52532" lon="6.74298">
        <ele>1773</ele>
        <time>2021-08-03T07:30:32Z</time>
      </trkpt>
      <trkpt lat="45.52532" lon="6.74297">
        <ele>1773.1</ele>
        <time>2021-08-03T07:30:33Z</time>
      </trkpt>
      <trkpt lat="45.52531" lon="6.74297">
        <ele>1773.2</ele>
        <time>2021-08-03T07:30:34Z</time>
      </trkpt>
      <trkpt lat="45.52531" lon="6.74297">
        <ele>1773.3</ele>
        <time>2021-08-03T07:30:35Z</time>
      </trkpt>
      <trkpt lat="45.5253" lon="6.74298">
        <ele>1773.4</ele>
        <time>2021-08-03T07:30:36Z</time>
      </trkpt>
      <trkpt lat="45.5253" lon="6.74298">
        <ele>1773.6</ele>
        <time>2021-08-03T07:30:37Z</time>
      </trkpt>
      <trkpt lat="45.5253" lon="6.74299">
        <ele>1773.7</ele>
        <time>2021-08-03T07:30:38Z</time>
      </trkpt>
      <trkpt lat="45.5253" lon="6.743">
        <ele>1773.8</ele>
        <time>2021-08-03T07:30:39Z</time>
      </trkpt>
      <trkpt lat="45.52529" lon="6.74301">
        <ele>1774</ele>
        <time>2021-08-03T07:30:40Z</time>
      </trkpt>
      <trkpt lat="45.52529" lon="6.74303">
        <ele>1774.2</ele>
        <time>2021-08-03T07:30:41Z</time>
      </trkpt>
      <trkpt lat="45.52529" lon="6.74304">
        <ele>1774.3</ele>
        <time>2021-08-03T07:30:42Z</time>
      </trkpt>
      <trkpt lat="45.52529" lon="6.74305">
        <ele>1774.5</ele>
        <time>2021-08-03T07:30:43Z</time>
      </trkpt>
      <trkpt lat="45.52529" lon="6.74306">
        <ele>1774.6</ele>
        <time>2021-08-03T07:30:44Z</time>
      </trkpt>
      <trkpt lat="45.52529" lon="6.74306">
        <ele>1774.7</ele>
        <time>2021-08-03T07:30:45Z</time>
      </trkpt>
      <trkpt lat="45.52529" lon="6.74307">
        <ele>1774.8</ele>
        <time>2021-08-03T07:30:46Z</time>
      </trkpt>
      <trkpt lat="45.52529" lon="6.74307">
        <ele>1774.8</ele>
        <time>2021-08-03T07:30:47Z</time>
      </trkpt>
      <trkpt lat="45.52529" lon="6.74307">
        <ele>1774.8</ele>
        <time>2021-08-03T07:30:48Z</time>
      </trkpt>
      <trkpt lat="45.52529" lon="6.74307">
        <ele>1774.8</ele>
        <time>2021-08-03T07:30:49Z</time>
      </trkpt>
      <trkpt lat="45.52529" lon="6.74307">
        <ele>1774.8</ele>
        <time>2021-08-03T07:30:50Z</time>
      </trkpt>
      <trkpt lat="45.52529" lon="6.74307">
        <ele>1774.9</ele>
        <time>2021-08-03T07:30:51Z</time>
      </trkpt>
      <trkpt lat="45.52529" lon="6.74307">
        <ele>1774.9</ele>
        <time>2021-08-03T07:30:52Z</time>
      </trkpt>
      <trkpt lat="45.52529" lon="6.74307">
        <ele>1774.9</ele>
        <time>2021-08-03T07:30:53Z</time>
      </trkpt>
      <trkpt lat="45.52529" lon="6.74307">
        <ele>1774.9</ele>
        <time>2021-08-03T07:30:54Z</time>
      </trkpt>
      <trkpt lat="45.52529" lon="6.74307">
        <ele>1774.9</ele>
        <time>2021-08-03T07:30:55Z</time>
      </trkpt>
      <trkpt lat="45.52529" lon="6.74307">
        <ele>1774.9</ele>
        <time>2021-08-03T07:30:56Z</time>
      </trkpt>
      <trkpt lat="45.52529" lon="6.74307">
        <ele>1774.9</ele>
        <time>2021-08-03T07:30:57Z</time>
      </trkpt>
      <trkpt lat="45.52529" lon="6.74307">
        <ele>1774.9</ele>
        <time>2021-08-03T07:30:58Z</time>
      </trkpt>
      <trkpt lat="45.52529" lon="6.74307">
        <ele>1775</ele>
        <time>2021-08-03T07:30:59Z</time>
      </trkpt>
      <trkpt lat="45.52529" lon="6.74307">
        <ele>1775</ele>
        <time>2021-08-03T07:31:00Z</time>
      </trkpt>
      <trkpt lat="45.52529" lon="6.74307">
        <ele>1775</ele>
        <time>2021-08-03T07:31:01Z</time>
      </trkpt>
      <trkpt lat="45.52529" lon="6.74307">
        <ele>1775</ele>
        <time>2021-08-03T07:31:02Z</time>
      </trkpt>
      <trkpt lat="45.52529" lon="6.74307">
        <ele>1775</ele>
        <time>2021-08-03T07:31:03Z</time>
      </trkpt>
      <trkpt lat="45.52529" lon="6.74307">
        <ele>1775</ele>
        <time>2021-08-03T07:31:04Z</time>
      </trkpt>
      <trkpt lat="45.52529" lon="6.74307">
        <ele>1775</ele>
        <time>2021-08-03T07:31:05Z</time>
      </trkpt>
      <trkpt lat="45.52529" lon="6.74307">
        <ele>1775</ele>
        <time>2021-08-03T07:31:06Z</time>
      </trkpt>
      <trkpt lat="45.52529" lon="6.74307">
        <ele>1775</ele>
        <time>2021-08-03T07:31:07Z</time>
      </trkpt>
      <trkpt lat="45.52529" lon="6.74307">
        <ele>1775</ele>
        <time>2021-08-03T07:31:08Z</time>
      </trkpt>
      <trkpt lat="45.52529" lon="6.74307">
        <ele>1775</ele>
        <time>2021-08-03T07:31:09Z</time>
      </trkpt>
      <trkpt lat="45.52529" lon="6.74307">
        <ele>1775</ele>
        <time>2021-08-03T07:31:10Z</time>
      </trkpt>
      <trkpt lat="45.52529" lon="6.74307">
        <ele>1775.1</ele>
        <time>2021-08-03T07:31:11Z</time>
      </trkpt>
      <trkpt lat="45.52529" lon="6.74307">
        <ele>1775.1</ele>
        <time>2021-08-03T07:31:12Z</time>
      </trkpt>
      <trkpt lat="45.52529" lon="6.74306">
        <ele>1775.1</ele>
        <time>2021-08-03T07:31:13Z</time>
      </trkpt>
      <trkpt lat="45.52529" lon="6.74306">
        <ele>1775.1</ele>
        <time>2021-08-03T07:31:14Z</time>
      </trkpt>
      <trkpt lat="45.52529" lon="6.74306">
        <ele>1775.1</ele>
        <time>2021-08-03T07:31:15Z</time>
      </trkpt>
      <trkpt lat="45.52529" lon="6.74306">
        <ele>1775.1</ele>
        <time>2021-08-03T07:31:16Z</time>
      </trkpt>
      <trkpt lat="45.52529" lon="6.74306">
        <ele>1775.1</ele>
        <time>2021-08-03T07:31:17Z</time>
      </trkpt>
      <trkpt lat="45.52529" lon="6.74306">
        <ele>1775.1</ele>
        <time>2021-08-03T07:31:18Z</time>
      </trkpt>
      <trkpt lat="45.52529" lon="6.74306">
        <ele>1775.1</ele>
        <time>2021-08-03T07:31:19Z</time>
      </trkpt>
      <trkpt lat="45.52529" lon="6.74306">
        <ele>1775.1</ele>
        <time>2021-08-03T07:31:20Z</time>
      </trkpt>
      <trkpt lat="45.52529" lon="6.74306">
        <ele>1775.1</ele>
        <time>2021-08-03T07:31:21Z</time>
      </trkpt>
      <trkpt lat="45.52529" lon="6.74306">
        <ele>1775.2</ele>
        <time>2021-08-03T07:31:22Z</time>
      </trkpt>
      <trkpt lat="45.52529" lon="6.74307">
        <ele>1775.2</ele>
        <time>2021-08-03T07:31:23Z</time>
      </trkpt>
      <trkpt lat="45.52529" lon="6.74307">
        <ele>1775.2</ele>
        <time>2021-08-03T07:31:24Z</time>
      </trkpt>
      <trkpt lat="45.52529" lon="6.74307">
        <ele>1775.3</ele>
        <time>2021-08-03T07:31:25Z</time>
      </trkpt>
      <trkpt lat="45.52529" lon="6.74307">
        <ele>1775.3</ele>
        <time>2021-08-03T07:31:26Z</time>
      </trkpt>
      <trkpt lat="45.52529" lon="6.74307">
        <ele>1775.3</ele>
        <time>2021-08-03T07:31:27Z</time>
      </trkpt>
      <trkpt lat="45.5253" lon="6.74308">
        <ele>1775.4</ele>
        <time>2021-08-03T07:31:28Z</time>
      </trkpt>
      <trkpt lat="45.5253" lon="6.74308">
        <ele>1775.4</ele>
        <time>2021-08-03T07:31:29Z</time>
      </trkpt>
      <trkpt lat="45.5253" lon="6.74308">
        <ele>1775.5</ele>
        <time>2021-08-03T07:31:30Z</time>
      </trkpt>
      <trkpt lat="45.5253" lon="6.74309">
        <ele>1775.6</ele>
        <time>2021-08-03T07:31:31Z</time>
      </trkpt>
      <trkpt lat="45.5253" lon="6.74309">
        <ele>1775.6</ele>
        <time>2021-08-03T07:31:32Z</time>
      </trkpt>
      <trkpt lat="45.5253" lon="6.7431">
        <ele>1775.7</ele>
        <time>2021-08-03T07:31:33Z</time>
      </trkpt>
      <trkpt lat="45.5253" lon="6.74311">
        <ele>1775.8</ele>
        <time>2021-08-03T07:31:34Z</time>
      </trkpt>
      <trkpt lat="45.5253" lon="6.74311">
        <ele>1775.9</ele>
        <time>2021-08-03T07:31:35Z</time>
      </trkpt>
      <trkpt lat="45.52531" lon="6.74312">
        <ele>1776</ele>
        <time>2021-08-03T07:31:36Z</time>
      </trkpt>
      <trkpt lat="45.52531" lon="6.74313">
        <ele>1776.2</ele>
        <time>2021-08-03T07:31:37Z</time>
      </trkpt>
      <trkpt lat="45.52531" lon="6.74314">
        <ele>1776.3</ele>
        <time>2021-08-03T07:31:38Z</time>
      </trkpt>
      <trkpt lat="45.52531" lon="6.74315">
        <ele>1776.4</ele>
        <time>2021-08-03T07:31:39Z</time>
      </trkpt>
      <trkpt lat="45.52531" lon="6.74316">
        <ele>1776.6</ele>
        <time>2021-08-03T07:31:40Z</time>
      </trkpt>
      <trkpt lat="45.52531" lon="6.74317">
        <ele>1776.7</ele>
        <time>2021-08-03T07:31:41Z</time>
      </trkpt>
      <trkpt lat="45.52532" lon="6.74318">
        <ele>1776.9</ele>
        <time>2021-08-03T07:31:42Z</time>
      </trkpt>
      <trkpt lat="45.52532" lon="6.74319">
        <ele>1777.1</ele>
        <time>2021-08-03T07:31:43Z</time>
      </trkpt>
      <trkpt lat="45.52532" lon="6.74321">
        <ele>1777.3</ele>
        <time>2021-08-03T07:31:44Z</time>
      </trkpt>
      <trkpt lat="45.52532" lon="6.74322">
        <ele>1777.5</ele>
        <time>2021-08-03T07:31:45Z</time>
      </trkpt>
      <trkpt lat="45.52532" lon="6.74323">
        <ele>1777.7</ele>
        <time>2021-08-03T07:31:46Z</time>
      </trkpt>
      <trkpt lat="45.52532" lon="6.74325">
        <ele>1777.9</ele>
        <time>2021-08-03T07:31:47Z</time>
      </trkpt>
      <trkpt lat="45.52532" lon="6.74327">
        <ele>1778.2</ele>
        <time>2021-08-03T07:31:48Z</time>
      </trkpt>
      <trkpt lat="45.52532" lon="6.74329">
        <ele>1778.4</ele>
        <time>2021-08-03T07:31:49Z</time>
      </trkpt>
      <trkpt lat="45.52532" lon="6.7433">
        <ele>1778.7</ele>
        <time>2021-08-03T07:31:50Z</time>
      </trkpt>
      <trkpt lat="45.52532" lon="6.74332">
        <ele>1778.9</ele>
        <time>2021-08-03T07:31:51Z</time>
      </trkpt>
      <trkpt lat="45.52532" lon="6.74334">
        <ele>1779.2</ele>
        <time>2021-08-03T07:31:52Z</time>
      </trkpt>
      <trkpt lat="45.52532" lon="6.74335">
        <ele>1779.4</ele>
        <time>2021-08-03T07:31:53Z</time>
      </trkpt>
      <trkpt lat="45.52532" lon="6.74336">
        <ele>1779.6</ele>
        <time>2021-08-03T07:31:54Z</time>
      </trkpt>
      <trkpt lat="45.52532" lon="6.74338">
        <ele>1779.7</ele>
        <time>2021-08-03T07:31:55Z</time>
      </trkpt>
      <trkpt lat="45.52532" lon="6.74338">
        <ele>1779.9</ele>
        <time>2021-08-03T07:31:56Z</time>
      </trkpt>
      <trkpt lat="45.52533" lon="6.74339">
        <ele>1780</ele>
        <time>2021-08-03T07:31:57Z</time>
      </trkpt>
      <trkpt lat="45.52533" lon="6.7434">
        <ele>1780.1</ele>
        <time>2021-08-03T07:31:58Z</time>
      </trkpt>
      <trkpt lat="45.52534" lon="6.74341">
        <ele>1780.3</ele>
        <time>2021-08-03T07:31:59Z</time>
      </trkpt>
      <trkpt lat="45.52534" lon="6.74342">
        <ele>1780.5</ele>
        <time>2021-08-03T07:32:00Z</time>
      </trkpt>
      <trkpt lat="45.52534" lon="6.74344">
        <ele>1780.8</ele>
        <time>2021-08-03T07:32:01Z</time>
      </trkpt>
      <trkpt lat="45.52535" lon="6.74346">
        <ele>1781</ele>
        <time>2021-08-03T07:32:02Z</time>
      </trkpt>
      <trkpt lat="45.52535" lon="6.74347">
        <ele>1781.3</ele>
        <time>2021-08-03T07:32:03Z</time>
      </trkpt>
      <trkpt lat="45.52536" lon="6.74349">
        <ele>1781.5</ele>
        <time>2021-08-03T07:32:04Z</time>
      </trkpt>
      <trkpt lat="45.52536" lon="6.7435">
        <ele>1781.7</ele>
        <time>2021-08-03T07:32:05Z</time>
      </trkpt>
      <trkpt lat="45.52536" lon="6.74351">
        <ele>1781.9</ele>
        <time>2021-08-03T07:32:06Z</time>
      </trkpt>
      <trkpt lat="45.52537" lon="6.74352">
        <ele>1782.1</ele>
        <time>2021-08-03T07:32:07Z</time>
      </trkpt>
      <trkpt lat="45.52537" lon="6.74353">
        <ele>1782.2</ele>
        <time>2021-08-03T07:32:08Z</time>
      </trkpt>
      <trkpt lat="45.52537" lon="6.74354">
        <ele>1782.4</ele>
        <time>2021-08-03T07:32:09Z</time>
      </trkpt>
      <trkpt lat="45.52537" lon="6.74355">
        <ele>1782.5</ele>
        <time>2021-08-03T07:32:10Z</time>
      </trkpt>
      <trkpt lat="45.52537" lon="6.74357">
        <ele>1782.7</ele>
        <time>2021-08-03T07:32:11Z</time>
      </trkpt>
      <trkpt lat="45.52537" lon="6.74358">
        <ele>1782.9</ele>
        <time>2021-08-03T07:32:12Z</time>
      </trkpt>
      <trkpt lat="45.52537" lon="6.74359">
        <ele>1783</ele>
        <time>2021-08-03T07:32:13Z</time>
      </trkpt>
      <trkpt lat="45.52537" lon="6.7436">
        <ele>1783.2</ele>
        <time>2021-08-03T07:32:14Z</time>
      </trkpt>
      <trkpt lat="45.52537" lon="6.74361">
        <ele>1783.4</ele>
        <time>2021-08-03T07:32:15Z</time>
      </trkpt>
      <trkpt lat="45.52537" lon="6.74363">
        <ele>1783.6</ele>
        <time>2021-08-03T07:32:16Z</time>
      </trkpt>
      <trkpt lat="45.52537" lon="6.74364">
        <ele>1783.8</ele>
        <time>2021-08-03T07:32:17Z</time>
      </trkpt>
      <trkpt lat="45.52537" lon="6.74365">
        <ele>1784</ele>
        <time>2021-08-03T07:32:18Z</time>
      </trkpt>
      <trkpt lat="45.52537" lon="6.74367">
        <ele>1784.1</ele>
        <time>2021-08-03T07:32:19Z</time>
      </trkpt>
      <trkpt lat="45.52537" lon="6.74368">
        <ele>1784.3</ele>
        <time>2021-08-03T07:32:20Z</time>
      </trkpt>
      <trkpt lat="45.52537" lon="6.74369">
        <ele>1784.5</ele>
        <time>2021-08-03T07:32:21Z</time>
      </trkpt>
      <trkpt lat="45.52537" lon="6.7437">
        <ele>1784.7</ele>
        <time>2021-08-03T07:32:22Z</time>
      </trkpt>
      <trkpt lat="45.52537" lon="6.74372">
        <ele>1784.9</ele>
        <time>2021-08-03T07:32:23Z</time>
      </trkpt>
      <trkpt lat="45.52537" lon="6.74373">
        <ele>1785</ele>
        <time>2021-08-03T07:32:24Z</time>
      </trkpt>
      <trkpt lat="45.52537" lon="6.74374">
        <ele>1785.2</ele>
        <time>2021-08-03T07:32:25Z</time>
      </trkpt>
      <trkpt lat="45.52537" lon="6.74374">
        <ele>1785.3</ele>
        <time>2021-08-03T07:32:26Z</time>
      </trkpt>
      <trkpt lat="45.52538" lon="6.74375">
        <ele>1785.4</ele>
        <time>2021-08-03T07:32:27Z</time>
      </trkpt>
      <trkpt lat="45.52538" lon="6.74376">
        <ele>1785.5</ele>
        <time>2021-08-03T07:32:28Z</time>
      </trkpt>
      <trkpt lat="45.52538" lon="6.74376">
        <ele>1785.5</ele>
        <time>2021-08-03T07:32:29Z</time>
      </trkpt>
      <trkpt lat="45.52538" lon="6.74376">
        <ele>1785.6</ele>
        <time>2021-08-03T07:32:30Z</time>
      </trkpt>
      <trkpt lat="45.52538" lon="6.74376">
        <ele>1785.6</ele>
        <time>2021-08-03T07:32:31Z</time>
      </trkpt>
      <trkpt lat="45.52538" lon="6.74376">
        <ele>1785.6</ele>
        <time>2021-08-03T07:32:32Z</time>
      </trkpt>
      <trkpt lat="45.52538" lon="6.74376">
        <ele>1785.6</ele>
        <time>2021-08-03T07:32:33Z</time>
      </trkpt>
      <trkpt lat="45.52538" lon="6.74376">
        <ele>1785.6</ele>
        <time>2021-08-03T07:32:34Z</time>
      </trkpt>
      <trkpt lat="45.52538" lon="6.74376">
        <ele>1785.6</ele>
        <time>2021-08-03T07:32:35Z</time>
      </trkpt>
      <trkpt lat="45.52538" lon="6.74376">
        <ele>1785.6</ele>
        <time>2021-08-03T07:32:36Z</time>
      </trkpt>
      <trkpt lat="45.52538" lon="6.74376">
        <ele>1785.6</ele>
        <time>2021-08-03T07:32:37Z</time>
      </trkpt>
      <trkpt lat="45.52538" lon="6.74376">
        <ele>1785.6</ele>
        <time>2021-08-03T07:32:38Z</time>
      </trkpt>
      <trkpt lat="45.52538" lon="6.74376">
        <ele>1785.6</ele>
        <time>2021-08-03T07:32:39Z</time>
      </trkpt>
      <trkpt lat="45.52538" lon="6.74376">
        <ele>1785.6</ele>
        <time>2021-08-03T07:32:40Z</time>
      </trkpt>
      <trkpt lat="45.52538" lon="6.74376">
        <ele>1785.6</ele>
        <time>2021-08-03T07:32:41Z</time>
      </trkpt>
      <trkpt lat="45.52538" lon="6.74376">
        <ele>1785.6</ele>
        <time>2021-08-03T07:32:42Z</time>
      </trkpt>
      <trkpt lat="45.52538" lon="6.74376">
        <ele>1785.6</ele>
        <time>2021-08-03T07:32:43Z</time>
      </trkpt>
      <trkpt lat="45.52538" lon="6.74376">
        <ele>1785.6</ele>
        <time>2021-08-03T07:32:44Z</time>
      </trkpt>
      <trkpt lat="45.52538" lon="6.74376">
        <ele>1785.6</ele>
        <time>2021-08-03T07:32:45Z</time>
      </trkpt>
      <trkpt lat="45.52538" lon="6.74376">
        <ele>1785.6</ele>
        <time>2021-08-03T07:32:46Z</time>
      </trkpt>
      <trkpt lat="45.52538" lon="6.74376">
        <ele>1785.6</ele>
        <time>2021-08-03T07:32:47Z</time>
      </trkpt>
      <trkpt lat="45.52538" lon="6.74376">
        <ele>1785.6</ele>
        <time>2021-08-03T07:32:48Z</time>
      </trkpt>
      <trkpt lat="45.52538" lon="6.74376">
        <ele>1785.6</ele>
        <time>2021-08-03T07:32:49Z</time>
      </trkpt>
      <trkpt lat="45.52538" lon="6.74376">
        <ele>1785.6</ele>
        <time>2021-08-03T07:32:50Z</time>
      </trkpt>
      <trkpt lat="45.52538" lon="6.74376">
        <ele>1785.6</ele>
        <time>2021-08-03T07:32:51Z</time>
      </trkpt>
      <trkpt lat="45.52538" lon="6.74376">
        <ele>1785.6</ele>
        <time>2021-08-03T07:32:52Z</time>
      </trkpt>
      <trkpt lat="45.52538" lon="6.74376">
        <ele>1785.6</ele>
        <time>2021-08-03T07:32:53Z</time>
      </trkpt>
      <trkpt lat="45.52538" lon="6.74376">
        <ele>1785.6</ele>
        <time>2021-08-03T07:32:54Z</time>
      </trkpt>
      <trkpt lat="45.52538" lon="6.74376">
        <ele>1785.6</ele>
        <time>2021-08-03T07:32:55Z</time>
      </trkpt>
      <trkpt lat="45.52538" lon="6.74376">
        <ele>1785.6</ele>
        <time>2021-08-03T07:32:56Z</time>
      </trkpt>
      <trkpt lat="45.52538" lon="6.74376">
        <ele>1785.6</ele>
        <time>2021-08-03T07:32:57Z</time>
      </trkpt>
      <trkpt lat="45.52538" lon="6.74376">
        <ele>1785.6</ele>
        <time>2021-08-03T07:32:58Z</time>
      </trkpt>
      <trkpt lat="45.52538" lon="6.74376">
        <ele>1785.6</ele>
        <time>2021-08-03T07:32:59Z</time>
      </trkpt>
      <trkpt lat="45.52538" lon="6.74376">
        <ele>1785.6</ele>
        <time>2021-08-03T07:33:00Z</time>
      </trkpt>
      <trkpt lat="45.52538" lon="6.74376">
        <ele>1785.6</ele>
        <time>2021-08-03T07:33:01Z</time>
      </trkpt>
      <trkpt lat="45.52538" lon="6.74376">
        <ele>1785.6</ele>
        <time>2021-08-03T07:33:02Z</time>
      </trkpt>
      <trkpt lat="45.52538" lon="6.74376">
        <ele>1785.6</ele>
        <time>2021-08-03T07:33:03Z</time>
      </trkpt>
      <trkpt lat="45.52538" lon="6.74376">
        <ele>1785.6</ele>
        <time>2021-08-03T07:33:04Z</time>
      </trkpt>
      <trkpt lat="45.52538" lon="6.74376">
        <ele>1785.6</ele>
        <time>2021-08-03T07:33:05Z</time>
      </trkpt>
      <trkpt lat="45.52538" lon="6.74376">
        <ele>1785.6</ele>
        <time>2021-08-03T07:33:06Z</time>
      </trkpt>
      <trkpt lat="45.52538" lon="6.74376">
        <ele>1785.6</ele>
        <time>2021-08-03T07:33:07Z</time>
      </trkpt>
      <trkpt lat="45.52538" lon="6.74376">
        <ele>1785.6</ele>
        <time>2021-08-03T07:33:08Z</time>
      </trkpt>
      <trkpt lat="45.52538" lon="6.74376">
        <ele>1785.6</ele>
        <time>2021-08-03T07:33:09Z</time>
      </trkpt>
      <trkpt lat="45.52538" lon="6.74376">
        <ele>1785.6</ele>
        <time>2021-08-03T07:33:10Z</time>
      </trkpt>
      <trkpt lat="45.52538" lon="6.74377">
        <ele>1785.6</ele>
        <time>2021-08-03T07:33:11Z</time>
      </trkpt>
      <trkpt lat="45.52538" lon="6.74377">
        <ele>1785.7</ele>
        <time>2021-08-03T07:33:12Z</time>
      </trkpt>
      <trkpt lat="45.52538" lon="6.74377">
        <ele>1785.7</ele>
        <time>2021-08-03T07:33:13Z</time>
      </trkpt>
      <trkpt lat="45.52539" lon="6.74377">
        <ele>1785.8</ele>
        <time>2021-08-03T07:33:14Z</time>
      </trkpt>
      <trkpt lat="45.52539" lon="6.74377">
        <ele>1785.9</ele>
        <time>2021-08-03T07:33:15Z</time>
      </trkpt>
      <trkpt lat="45.5254" lon="6.74377">
        <ele>1786</ele>
        <time>2021-08-03T07:33:16Z</time>
      </trkpt>
      <trkpt lat="45.5254" lon="6.74377">
        <ele>1786.1</ele>
        <time>2021-08-03T07:33:17Z</time>
      </trkpt>
      <trkpt lat="45.5254" lon="6.74378">
        <ele>1786.2</ele>
        <time>2021-08-03T07:33:18Z</time>
      </trkpt>
      <trkpt lat="45.52541" lon="6.74379">
        <ele>1786.4</ele>
        <time>2021-08-03T07:33:19Z</time>
      </trkpt>
      <trkpt lat="45.52541" lon="6.74381">
        <ele>1786.6</ele>
        <time>2021-08-03T07:33:20Z</time>
      </trkpt>
      <trkpt lat="45.52541" lon="6.74382">
        <ele>1786.8</ele>
        <time>2021-08-03T07:33:21Z</time>
      </trkpt>
      <trkpt lat="45.52541" lon="6.74383">
        <ele>1786.9</ele>
        <time>2021-08-03T07:33:22Z</time>
      </trkpt>
      <trkpt lat="45.52542" lon="6.74383">
        <ele>1787</ele>
        <time>2021-08-03T07:33:23Z</time>
      </trkpt>
      <trkpt lat="45.52542" lon="6.74384">
        <ele>1787.1</ele>
        <time>2021-08-03T07:33:24Z</time>
      </trkpt>
      <trkpt lat="45.52542" lon="6.74384">
        <ele>1787.1</ele>
        <time>2021-08-03T07:33:25Z</time>
      </trkpt>
      <trkpt lat="45.52542" lon="6.74384">
        <ele>1787.1</ele>
        <time>2021-08-03T07:33:26Z</time>
      </trkpt>
      <trkpt lat="45.52542" lon="6.74384">
        <ele>1787.1</ele>
        <time>2021-08-03T07:33:27Z</time>
      </trkpt>
      <trkpt lat="45.52542" lon="6.74384">
        <ele>1787.1</ele>
        <time>2021-08-03T07:33:28Z</time>
      </trkpt>
      <trkpt lat="45.52542" lon="6.74384">
        <ele>1787.2</ele>
        <time>2021-08-03T07:33:29Z</time>
      </trkpt>
      <trkpt lat="45.52542" lon="6.74385">
        <ele>1787.3</ele>
        <time>2021-08-03T07:33:30Z</time>
      </trkpt>
      <trkpt lat="45.52543" lon="6.74386">
        <ele>1787.4</ele>
        <time>2021-08-03T07:33:31Z</time>
      </trkpt>
      <trkpt lat="45.52543" lon="6.74387">
        <ele>1787.6</ele>
        <time>2021-08-03T07:33:32Z</time>
      </trkpt>
      <trkpt lat="45.52543" lon="6.74389">
        <ele>1787.9</ele>
        <time>2021-08-03T07:33:33Z</time>
      </trkpt>
      <trkpt lat="45.52544" lon="6.7439">
        <ele>1788.1</ele>
        <time>2021-08-03T07:33:34Z</time>
      </trkpt>
      <trkpt lat="45.52544" lon="6.74392">
        <ele>1788.4</ele>
        <time>2021-08-03T07:33:35Z</time>
      </trkpt>
      <trkpt lat="45.52544" lon="6.74393">
        <ele>1788.6</ele>
        <time>2021-08-03T07:33:36Z</time>
      </trkpt>
      <trkpt lat="45.52545" lon="6.74394">
        <ele>1788.8</ele>
        <time>2021-08-03T07:33:37Z</time>
      </trkpt>
      <trkpt lat="45.52545" lon="6.74395">
        <ele>1788.9</ele>
        <time>2021-08-03T07:33:38Z</time>
      </trkpt>
      <trkpt lat="45.52545" lon="6.74396">
        <ele>1789</ele>
        <time>2021-08-03T07:33:39Z</time>
      </trkpt>
      <trkpt lat="45.52545" lon="6.74396">
        <ele>1789</ele>
        <time>2021-08-03T07:33:40Z</time>
      </trkpt>
      <trkpt lat="45.52545" lon="6.74397">
        <ele>1789.1</ele>
        <time>2021-08-03T07:33:41Z</time>
      </trkpt>
      <trkpt lat="45.52545" lon="6.74397">
        <ele>1789.1</ele>
        <time>2021-08-03T07:33:42Z</time>
      </trkpt>
      <trkpt lat="45.52545" lon="6.74397">
        <ele>1789.1</ele>
        <time>2021-08-03T07:33:43Z</time>
      </trkpt>
      <trkpt lat="45.52545" lon="6.74397">
        <ele>1789.2</ele>
        <time>2021-08-03T07:33:44Z</time>
      </trkpt>
      <trkpt lat="45.52546" lon="6.74397">
        <ele>1789.2</ele>
        <time>2021-08-03T07:33:45Z</time>
      </trkpt>
      <trkpt lat="45.52546" lon="6.74397">
        <ele>1789.2</ele>
        <time>2021-08-03T07:33:46Z</time>
      </trkpt>
      <trkpt lat="45.52546" lon="6.74397">
        <ele>1789.2</ele>
        <time>2021-08-03T07:33:47Z</time>
      </trkpt>
      <trkpt lat="45.52546" lon="6.74397">
        <ele>1789.2</ele>
        <time>2021-08-03T07:33:48Z</time>
      </trkpt>
      <trkpt lat="45.52546" lon="6.74397">
        <ele>1789.2</ele>
        <time>2021-08-03T07:33:49Z</time>
      </trkpt>
      <trkpt lat="45.52546" lon="6.74397">
        <ele>1789.2</ele>
        <time>2021-08-03T07:33:50Z</time>
      </trkpt>
      <trkpt lat="45.52546" lon="6.74397">
        <ele>1789.2</ele>
        <time>2021-08-03T07:33:51Z</time>
      </trkpt>
      <trkpt lat="45.52546" lon="6.74397">
        <ele>1789.3</ele>
        <time>2021-08-03T07:33:52Z</time>
      </trkpt>
      <trkpt lat="45.52546" lon="6.74397">
        <ele>1789.3</ele>
        <time>2021-08-03T07:33:53Z</time>
      </trkpt>
      <trkpt lat="45.52546" lon="6.74398">
        <ele>1789.4</ele>
        <time>2021-08-03T07:33:54Z</time>
      </trkpt>
      <trkpt lat="45.52547" lon="6.74398">
        <ele>1789.5</ele>
        <time>2021-08-03T07:33:55Z</time>
      </trkpt>
      <trkpt lat="45.52547" lon="6.74399">
        <ele>1789.6</ele>
        <time>2021-08-03T07:33:56Z</time>
      </trkpt>
      <trkpt lat="45.52547" lon="6.74399">
        <ele>1789.7</ele>
        <time>2021-08-03T07:33:57Z</time>
      </trkpt>
      <trkpt lat="45.52548" lon="6.744">
        <ele>1789.8</ele>
        <time>2021-08-03T07:33:58Z</time>
      </trkpt>
      <trkpt lat="45.52548" lon="6.74401">
        <ele>1790</ele>
        <time>2021-08-03T07:33:59Z</time>
      </trkpt>
      <trkpt lat="45.52549" lon="6.74402">
        <ele>1790.1</ele>
        <time>2021-08-03T07:34:00Z</time>
      </trkpt>
      <trkpt lat="45.52549" lon="6.74403">
        <ele>1790.3</ele>
        <time>2021-08-03T07:34:01Z</time>
      </trkpt>
      <trkpt lat="45.52549" lon="6.74404">
        <ele>1790.5</ele>
        <time>2021-08-03T07:34:02Z</time>
      </trkpt>
      <trkpt lat="45.5255" lon="6.74405">
        <ele>1790.6</ele>
        <time>2021-08-03T07:34:03Z</time>
      </trkpt>
      <trkpt lat="45.5255" lon="6.74406">
        <ele>1790.8</ele>
        <time>2021-08-03T07:34:04Z</time>
      </trkpt>
      <trkpt lat="45.5255" lon="6.74407">
        <ele>1791</ele>
        <time>2021-08-03T07:34:05Z</time>
      </trkpt>
      <trkpt lat="45.5255" lon="6.74408">
        <ele>1791.1</ele>
        <time>2021-08-03T07:34:06Z</time>
      </trkpt>
      <trkpt lat="45.52551" lon="6.74409">
        <ele>1791.3</ele>
        <time>2021-08-03T07:34:07Z</time>
      </trkpt>
      <trkpt lat="45.52551" lon="6.74411">
        <ele>1791.5</ele>
        <time>2021-08-03T07:34:08Z</time>
      </trkpt>
      <trkpt lat="45.52551" lon="6.74412">
        <ele>1791.7</ele>
        <time>2021-08-03T07:34:09Z</time>
      </trkpt>
      <trkpt lat="45.52551" lon="6.74413">
        <ele>1791.8</ele>
        <time>2021-08-03T07:34:10Z</time>
      </trkpt>
      <trkpt lat="45.52551" lon="6.74414">
        <ele>1792</ele>
        <time>2021-08-03T07:34:11Z</time>
      </trkpt>
      <trkpt lat="45.52551" lon="6.74416">
        <ele>1792.2</ele>
        <time>2021-08-03T07:34:12Z</time>
      </trkpt>
      <trkpt lat="45.52552" lon="6.74417">
        <ele>1792.4</ele>
        <time>2021-08-03T07:34:13Z</time>
      </trkpt>
      <trkpt lat="45.52552" lon="6.74418">
        <ele>1792.6</ele>
        <time>2021-08-03T07:34:14Z</time>
      </trkpt>
      <trkpt lat="45.52552" lon="6.74419">
        <ele>1792.7</ele>
        <time>2021-08-03T07:34:15Z</time>
      </trkpt>
      <trkpt lat="45.52553" lon="6.7442">
        <ele>1792.9</ele>
        <time>2021-08-03T07:34:16Z</time>
      </trkpt>
      <trkpt lat="45.52553" lon="6.74421">
        <ele>1793</ele>
        <time>2021-08-03T07:34:17Z</time>
      </trkpt>
      <trkpt lat="45.52554" lon="6.74421">
        <ele>1793.2</ele>
        <time>2021-08-03T07:34:18Z</time>
      </trkpt>
      <trkpt lat="45.52554" lon="6.74422">
        <ele>1793.4</ele>
        <time>2021-08-03T07:34:19Z</time>
      </trkpt>
      <trkpt lat="45.52555" lon="6.74423">
        <ele>1793.5</ele>
        <time>2021-08-03T07:34:20Z</time>
      </trkpt>
      <trkpt lat="45.52556" lon="6.74423">
        <ele>1793.7</ele>
        <time>2021-08-03T07:34:21Z</time>
      </trkpt>
      <trkpt lat="45.52556" lon="6.74424">
        <ele>1793.9</ele>
        <time>2021-08-03T07:34:22Z</time>
      </trkpt>
      <trkpt lat="45.52557" lon="6.74424">
        <ele>1794</ele>
        <time>2021-08-03T07:34:23Z</time>
      </trkpt>
      <trkpt lat="45.52558" lon="6.74425">
        <ele>1794.2</ele>
        <time>2021-08-03T07:34:24Z</time>
      </trkpt>
      <trkpt lat="45.52558" lon="6.74426">
        <ele>1794.3</ele>
        <time>2021-08-03T07:34:25Z</time>
      </trkpt>
      <trkpt lat="45.52558" lon="6.74427">
        <ele>1794.5</ele>
        <time>2021-08-03T07:34:26Z</time>
      </trkpt>
      <trkpt lat="45.52559" lon="6.74428">
        <ele>1794.7</ele>
        <time>2021-08-03T07:34:27Z</time>
      </trkpt>
      <trkpt lat="45.52559" lon="6.7443">
        <ele>1794.9</ele>
        <time>2021-08-03T07:34:28Z</time>
      </trkpt>
      <trkpt lat="45.52559" lon="6.74431">
        <ele>1795.1</ele>
        <time>2021-08-03T07:34:29Z</time>
      </trkpt>
      <trkpt lat="45.52559" lon="6.74433">
        <ele>1795.3</ele>
        <time>2021-08-03T07:34:30Z</time>
      </trkpt>
      <trkpt lat="45.52559" lon="6.74434">
        <ele>1795.6</ele>
        <time>2021-08-03T07:34:31Z</time>
      </trkpt>
      <trkpt lat="45.5256" lon="6.74436">
        <ele>1795.8</ele>
        <time>2021-08-03T07:34:32Z</time>
      </trkpt>
      <trkpt lat="45.5256" lon="6.74437">
        <ele>1796</ele>
        <time>2021-08-03T07:34:33Z</time>
      </trkpt>
      <trkpt lat="45.5256" lon="6.74439">
        <ele>1796.2</ele>
        <time>2021-08-03T07:34:34Z</time>
      </trkpt>
      <trkpt lat="45.52561" lon="6.7444">
        <ele>1796.4</ele>
        <time>2021-08-03T07:34:35Z</time>
      </trkpt>
      <trkpt lat="45.52561" lon="6.74441">
        <ele>1796.7</ele>
        <time>2021-08-03T07:34:36Z</time>
      </trkpt>
      <trkpt lat="45.52562" lon="6.74443">
        <ele>1796.9</ele>
        <time>2021-08-03T07:34:37Z</time>
      </trkpt>
      <trkpt lat="45.52563" lon="6.74444">
        <ele>1797.1</ele>
        <time>2021-08-03T07:34:38Z</time>
      </trkpt>
      <trkpt lat="45.52563" lon="6.74445">
        <ele>1797.3</ele>
        <time>2021-08-03T07:34:39Z</time>
      </trkpt>
      <trkpt lat="45.52564" lon="6.74446">
        <ele>1797.5</ele>
        <time>2021-08-03T07:34:40Z</time>
      </trkpt>
      <trkpt lat="45.52565" lon="6.74447">
        <ele>1797.7</ele>
        <time>2021-08-03T07:34:41Z</time>
      </trkpt>
      <trkpt lat="45.52565" lon="6.74448">
        <ele>1797.9</ele>
        <time>2021-08-03T07:34:42Z</time>
      </trkpt>
      <trkpt lat="45.52566" lon="6.74449">
        <ele>1798.1</ele>
        <time>2021-08-03T07:34:43Z</time>
      </trkpt>
      <trkpt lat="45.52566" lon="6.7445">
        <ele>1798.3</ele>
        <time>2021-08-03T07:34:44Z</time>
      </trkpt>
      <trkpt lat="45.52567" lon="6.74451">
        <ele>1798.5</ele>
        <time>2021-08-03T07:34:45Z</time>
      </trkpt>
      <trkpt lat="45.52567" lon="6.74452">
        <ele>1798.6</ele>
        <time>2021-08-03T07:34:46Z</time>
      </trkpt>
      <trkpt lat="45.52568" lon="6.74453">
        <ele>1798.8</ele>
        <time>2021-08-03T07:34:47Z</time>
      </trkpt>
      <trkpt lat="45.52568" lon="6.74454">
        <ele>1799</ele>
        <time>2021-08-03T07:34:48Z</time>
      </trkpt>
      <trkpt lat="45.52569" lon="6.74455">
        <ele>1799.2</ele>
        <time>2021-08-03T07:34:49Z</time>
      </trkpt>
      <trkpt lat="45.52569" lon="6.74456">
        <ele>1799.3</ele>
        <time>2021-08-03T07:34:50Z</time>
      </trkpt>
      <trkpt lat="45.5257" lon="6.74457">
        <ele>1799.5</ele>
        <time>2021-08-03T07:34:51Z</time>
      </trkpt>
      <trkpt lat="45.5257" lon="6.74458">
        <ele>1799.7</ele>
        <time>2021-08-03T07:34:52Z</time>
      </trkpt>
      <trkpt lat="45.52571" lon="6.74459">
        <ele>1799.9</ele>
        <time>2021-08-03T07:34:53Z</time>
      </trkpt>
      <trkpt lat="45.52571" lon="6.7446">
        <ele>1800</ele>
        <time>2021-08-03T07:34:54Z</time>
      </trkpt>
      <trkpt lat="45.52572" lon="6.74461">
        <ele>1800.2</ele>
        <time>2021-08-03T07:34:55Z</time>
      </trkpt>
      <trkpt lat="45.52573" lon="6.74462">
        <ele>1800.4</ele>
        <time>2021-08-03T07:34:56Z</time>
      </trkpt>
      <trkpt lat="45.52573" lon="6.74463">
        <ele>1800.6</ele>
        <time>2021-08-03T07:34:57Z</time>
      </trkpt>
      <trkpt lat="45.52574" lon="6.74464">
        <ele>1800.9</ele>
        <time>2021-08-03T07:34:58Z</time>
      </trkpt>
      <trkpt lat="45.52575" lon="6.74465">
        <ele>1801.1</ele>
        <time>2021-08-03T07:34:59Z</time>
      </trkpt>
      <trkpt lat="45.52576" lon="6.74466">
        <ele>1801.3</ele>
        <time>2021-08-03T07:35:00Z</time>
      </trkpt>
      <trkpt lat="45.52577" lon="6.74467">
        <ele>1801.6</ele>
        <time>2021-08-03T07:35:01Z</time>
      </trkpt>
      <trkpt lat="45.52578" lon="6.74468">
        <ele>1801.8</ele>
        <time>2021-08-03T07:35:02Z</time>
      </trkpt>
      <trkpt lat="45.52579" lon="6.74469">
        <ele>1802.1</ele>
        <time>2021-08-03T07:35:03Z</time>
      </trkpt>
      <trkpt lat="45.5258" lon="6.7447">
        <ele>1802.3</ele>
        <time>2021-08-03T07:35:04Z</time>
      </trkpt>
      <trkpt lat="45.52581" lon="6.74471">
        <ele>1802.6</ele>
        <time>2021-08-03T07:35:05Z</time>
      </trkpt>
      <trkpt lat="45.52582" lon="6.74472">
        <ele>1802.8</ele>
        <time>2021-08-03T07:35:06Z</time>
      </trkpt>
      <trkpt lat="45.52583" lon="6.74473">
        <ele>1803</ele>
        <time>2021-08-03T07:35:07Z</time>
      </trkpt>
      <trkpt lat="45.52584" lon="6.74474">
        <ele>1803.3</ele>
        <time>2021-08-03T07:35:08Z</time>
      </trkpt>
      <trkpt lat="45.52585" lon="6.74475">
        <ele>1803.5</ele>
        <time>2021-08-03T07:35:09Z</time>
      </trkpt>
      <trkpt lat="45.52586" lon="6.74476">
        <ele>1803.7</ele>
        <time>2021-08-03T07:35:10Z</time>
      </trkpt>
      <trkpt lat="45.52586" lon="6.74476">
        <ele>1803.9</ele>
        <time>2021-08-03T07:35:11Z</time>
      </trkpt>
      <trkpt lat="45.52587" lon="6.74477">
        <ele>1804.1</ele>
        <time>2021-08-03T07:35:12Z</time>
      </trkpt>
      <trkpt lat="45.52588" lon="6.74478">
        <ele>1804.3</ele>
        <time>2021-08-03T07:35:13Z</time>
      </trkpt>
      <trkpt lat="45.52589" lon="6.74478">
        <ele>1804.5</ele>
        <time>2021-08-03T07:35:14Z</time>
      </trkpt>
      <trkpt lat="45.52589" lon="6.74479">
        <ele>1804.6</ele>
        <time>2021-08-03T07:35:15Z</time>
      </trkpt>
      <trkpt lat="45.5259" lon="6.7448">
        <ele>1804.8</ele>
        <time>2021-08-03T07:35:16Z</time>
      </trkpt>
      <trkpt lat="45.5259" lon="6.7448">
        <ele>1804.9</ele>
        <time>2021-08-03T07:35:17Z</time>
      </trkpt>
      <trkpt lat="45.52591" lon="6.74481">
        <ele>1805</ele>
        <time>2021-08-03T07:35:18Z</time>
      </trkpt>
      <trkpt lat="45.52591" lon="6.74481">
        <ele>1805.2</ele>
        <time>2021-08-03T07:35:19Z</time>
      </trkpt>
      <trkpt lat="45.52592" lon="6.74482">
        <ele>1805.3</ele>
        <time>2021-08-03T07:35:20Z</time>
      </trkpt>
      <trkpt lat="45.52592" lon="6.74483">
        <ele>1805.5</ele>
        <time>2021-08-03T07:35:21Z</time>
      </trkpt>
      <trkpt lat="45.52593" lon="6.74483">
        <ele>1805.6</ele>
        <time>2021-08-03T07:35:22Z</time>
      </trkpt>
      <trkpt lat="45.52594" lon="6.74484">
        <ele>1805.8</ele>
        <time>2021-08-03T07:35:23Z</time>
      </trkpt>
      <trkpt lat="45.52594" lon="6.74485">
        <ele>1806</ele>
        <time>2021-08-03T07:35:24Z</time>
      </trkpt>
      <trkpt lat="45.52595" lon="6.74486">
        <ele>1806.2</ele>
        <time>2021-08-03T07:35:25Z</time>
      </trkpt>
      <trkpt lat="45.52596" lon="6.74487">
        <ele>1806.4</ele>
        <time>2021-08-03T07:35:26Z</time>
      </trkpt>
      <trkpt lat="45.52596" lon="6.74487">
        <ele>1806.6</ele>
        <time>2021-08-03T07:35:27Z</time>
      </trkpt>
      <trkpt lat="45.52597" lon="6.74488">
        <ele>1806.7</ele>
        <time>2021-08-03T07:35:28Z</time>
      </trkpt>
      <trkpt lat="45.52598" lon="6.74489">
        <ele>1806.9</ele>
        <time>2021-08-03T07:35:29Z</time>
      </trkpt>
      <trkpt lat="45.52599" lon="6.74489">
        <ele>1807.1</ele>
        <time>2021-08-03T07:35:30Z</time>
      </trkpt>
      <trkpt lat="45.526" lon="6.7449">
        <ele>1807.3</ele>
        <time>2021-08-03T07:35:31Z</time>
      </trkpt>
      <trkpt lat="45.526" lon="6.7449">
        <ele>1807.4</ele>
        <time>2021-08-03T07:35:32Z</time>
      </trkpt>
      <trkpt lat="45.52601" lon="6.7449">
        <ele>1807.6</ele>
        <time>2021-08-03T07:35:33Z</time>
      </trkpt>
      <trkpt lat="45.52602" lon="6.74491">
        <ele>1807.8</ele>
        <time>2021-08-03T07:35:34Z</time>
      </trkpt>
      <trkpt lat="45.52603" lon="6.74491">
        <ele>1807.9</ele>
        <time>2021-08-03T07:35:35Z</time>
      </trkpt>
      <trkpt lat="45.52603" lon="6.74491">
        <ele>1808.1</ele>
        <time>2021-08-03T07:35:36Z</time>
      </trkpt>
      <trkpt lat="45.52604" lon="6.74492">
        <ele>1808.3</ele>
        <time>2021-08-03T07:35:37Z</time>
      </trkpt>
      <trkpt lat="45.52605" lon="6.74493">
        <ele>1808.5</ele>
        <time>2021-08-03T07:35:38Z</time>
      </trkpt>
      <trkpt lat="45.52606" lon="6.74493">
        <ele>1808.6</ele>
        <time>2021-08-03T07:35:39Z</time>
      </trkpt>
      <trkpt lat="45.52606" lon="6.74494">
        <ele>1808.8</ele>
        <time>2021-08-03T07:35:40Z</time>
      </trkpt>
      <trkpt lat="45.52607" lon="6.74495">
        <ele>1809</ele>
        <time>2021-08-03T07:35:41Z</time>
      </trkpt>
      <trkpt lat="45.52608" lon="6.74496">
        <ele>1809.2</ele>
        <time>2021-08-03T07:35:42Z</time>
      </trkpt>
      <trkpt lat="45.52608" lon="6.74496">
        <ele>1809.3</ele>
        <time>2021-08-03T07:35:43Z</time>
      </trkpt>
      <trkpt lat="45.52609" lon="6.74497">
        <ele>1809.4</ele>
        <time>2021-08-03T07:35:44Z</time>
      </trkpt>
      <trkpt lat="45.52609" lon="6.74497">
        <ele>1809.6</ele>
        <time>2021-08-03T07:35:45Z</time>
      </trkpt>
      <trkpt lat="45.52609" lon="6.74498">
        <ele>1809.6</ele>
        <time>2021-08-03T07:35:46Z</time>
      </trkpt>
      <trkpt lat="45.5261" lon="6.74498">
        <ele>1809.7</ele>
        <time>2021-08-03T07:35:47Z</time>
      </trkpt>
      <trkpt lat="45.5261" lon="6.74498">
        <ele>1809.8</ele>
        <time>2021-08-03T07:35:48Z</time>
      </trkpt>
      <trkpt lat="45.5261" lon="6.74498">
        <ele>1809.8</ele>
        <time>2021-08-03T07:35:49Z</time>
      </trkpt>
      <trkpt lat="45.5261" lon="6.74498">
        <ele>1809.8</ele>
        <time>2021-08-03T07:35:50Z</time>
      </trkpt>
      <trkpt lat="45.5261" lon="6.74498">
        <ele>1809.8</ele>
        <time>2021-08-03T07:35:51Z</time>
      </trkpt>
      <trkpt lat="45.5261" lon="6.74498">
        <ele>1809.8</ele>
        <time>2021-08-03T07:35:52Z</time>
      </trkpt>
      <trkpt lat="45.5261" lon="6.74498">
        <ele>1809.8</ele>
        <time>2021-08-03T07:35:53Z</time>
      </trkpt>
      <trkpt lat="45.5261" lon="6.74498">
        <ele>1809.9</ele>
        <time>2021-08-03T07:35:54Z</time>
      </trkpt>
      <trkpt lat="45.5261" lon="6.74498">
        <ele>1809.9</ele>
        <time>2021-08-03T07:35:55Z</time>
      </trkpt>
      <trkpt lat="45.5261" lon="6.74498">
        <ele>1809.9</ele>
        <time>2021-08-03T07:35:56Z</time>
      </trkpt>
      <trkpt lat="45.5261" lon="6.74498">
        <ele>1809.9</ele>
        <time>2021-08-03T07:35:57Z</time>
      </trkpt>
      <trkpt lat="45.5261" lon="6.74498">
        <ele>1809.9</ele>
        <time>2021-08-03T07:35:58Z</time>
      </trkpt>
      <trkpt lat="45.5261" lon="6.74498">
        <ele>1809.9</ele>
        <time>2021-08-03T07:35:59Z</time>
      </trkpt>
      <trkpt lat="45.5261" lon="6.74498">
        <ele>1809.9</ele>
        <time>2021-08-03T07:36:00Z</time>
      </trkpt>
      <trkpt lat="45.5261" lon="6.74498">
        <ele>1810</ele>
        <time>2021-08-03T07:36:01Z</time>
      </trkpt>
      <trkpt lat="45.5261" lon="6.74498">
        <ele>1810</ele>
        <time>2021-08-03T07:36:02Z</time>
      </trkpt>
      <trkpt lat="45.5261" lon="6.74498">
        <ele>1810</ele>
        <time>2021-08-03T07:36:03Z</time>
      </trkpt>
      <trkpt lat="45.5261" lon="6.74498">
        <ele>1810.1</ele>
        <time>2021-08-03T07:36:04Z</time>
      </trkpt>
      <trkpt lat="45.5261" lon="6.74499">
        <ele>1810.1</ele>
        <time>2021-08-03T07:36:05Z</time>
      </trkpt>
      <trkpt lat="45.52611" lon="6.74499">
        <ele>1810.1</ele>
        <time>2021-08-03T07:36:06Z</time>
      </trkpt>
      <trkpt lat="45.52611" lon="6.74499">
        <ele>1810.2</ele>
        <time>2021-08-03T07:36:07Z</time>
      </trkpt>
      <trkpt lat="45.52611" lon="6.745">
        <ele>1810.3</ele>
        <time>2021-08-03T07:36:08Z</time>
      </trkpt>
      <trkpt lat="45.52611" lon="6.745">
        <ele>1810.4</ele>
        <time>2021-08-03T07:36:09Z</time>
      </trkpt>
      <trkpt lat="45.52612" lon="6.74501">
        <ele>1810.5</ele>
        <time>2021-08-03T07:36:10Z</time>
      </trkpt>
      <trkpt lat="45.52612" lon="6.74501">
        <ele>1810.6</ele>
        <time>2021-08-03T07:36:11Z</time>
      </trkpt>
      <trkpt lat="45.52613" lon="6.74502">
        <ele>1810.7</ele>
        <time>2021-08-03T07:36:12Z</time>
      </trkpt>
      <trkpt lat="45.52613" lon="6.74502">
        <ele>1810.9</ele>
        <time>2021-08-03T07:36:13Z</time>
      </trkpt>
      <trkpt lat="45.52614" lon="6.74503">
        <ele>1811</ele>
        <time>2021-08-03T07:36:14Z</time>
      </trkpt>
      <trkpt lat="45.52614" lon="6.74504">
        <ele>1811.2</ele>
        <time>2021-08-03T07:36:15Z</time>
      </trkpt>
      <trkpt lat="45.52615" lon="6.74504">
        <ele>1811.3</ele>
        <time>2021-08-03T07:36:16Z</time>
      </trkpt>
      <trkpt lat="45.52616" lon="6.74505">
        <ele>1811.5</ele>
        <time>2021-08-03T07:36:17Z</time>
      </trkpt>
      <trkpt lat="45.52616" lon="6.74506">
        <ele>1811.7</ele>
        <time>2021-08-03T07:36:18Z</time>
      </trkpt>
      <trkpt lat="45.52617" lon="6.74507">
        <ele>1811.9</ele>
        <time>2021-08-03T07:36:19Z</time>
      </trkpt>
      <trkpt lat="45.52618" lon="6.74507">
        <ele>1812.1</ele>
        <time>2021-08-03T07:36:20Z</time>
      </trkpt>
      <trkpt lat="45.52619" lon="6.74508">
        <ele>1812.3</ele>
        <time>2021-08-03T07:36:21Z</time>
      </trkpt>
      <trkpt lat="45.52619" lon="6.74509">
        <ele>1812.4</ele>
        <time>2021-08-03T07:36:22Z</time>
      </trkpt>
      <trkpt lat="45.5262" lon="6.7451">
        <ele>1812.6</ele>
        <time>2021-08-03T07:36:23Z</time>
      </trkpt>
      <trkpt lat="45.5262" lon="6.7451">
        <ele>1812.7</ele>
        <time>2021-08-03T07:36:24Z</time>
      </trkpt>
      <trkpt lat="45.52621" lon="6.74511">
        <ele>1812.9</ele>
        <time>2021-08-03T07:36:25Z</time>
      </trkpt>
      <trkpt lat="45.52621" lon="6.74512">
        <ele>1813</ele>
        <time>2021-08-03T07:36:26Z</time>
      </trkpt>
      <trkpt lat="45.52621" lon="6.74513">
        <ele>1813.1</ele>
        <time>2021-08-03T07:36:27Z</time>
      </trkpt>
      <trkpt lat="45.52621" lon="6.74513">
        <ele>1813.2</ele>
        <time>2021-08-03T07:36:28Z</time>
      </trkpt>
      <trkpt lat="45.52621" lon="6.74514">
        <ele>1813.3</ele>
        <time>2021-08-03T07:36:29Z</time>
      </trkpt>
      <trkpt lat="45.52621" lon="6.74514">
        <ele>1813.4</ele>
        <time>2021-08-03T07:36:30Z</time>
      </trkpt>
      <trkpt lat="45.52621" lon="6.74515">
        <ele>1813.5</ele>
        <time>2021-08-03T07:36:31Z</time>
      </trkpt>
      <trkpt lat="45.52622" lon="6.74516">
        <ele>1813.5</ele>
        <time>2021-08-03T07:36:32Z</time>
      </trkpt>
      <trkpt lat="45.52622" lon="6.74516">
        <ele>1813.6</ele>
        <time>2021-08-03T07:36:33Z</time>
      </trkpt>
      <trkpt lat="45.52622" lon="6.74516">
        <ele>1813.7</ele>
        <time>2021-08-03T07:36:34Z</time>
      </trkpt>
      <trkpt lat="45.52622" lon="6.74517">
        <ele>1813.8</ele>
        <time>2021-08-03T07:36:35Z</time>
      </trkpt>
      <trkpt lat="45.52623" lon="6.74517">
        <ele>1813.9</ele>
        <time>2021-08-03T07:36:36Z</time>
      </trkpt>
      <trkpt lat="45.52623" lon="6.74518">
        <ele>1814</ele>
        <time>2021-08-03T07:36:37Z</time>
      </trkpt>
      <trkpt lat="45.52623" lon="6.74518">
        <ele>1814.1</ele>
        <time>2021-08-03T07:36:38Z</time>
      </trkpt>
      <trkpt lat="45.52624" lon="6.74518">
        <ele>1814.2</ele>
        <time>2021-08-03T07:36:39Z</time>
      </trkpt>
      <trkpt lat="45.52624" lon="6.74518">
        <ele>1814.3</ele>
        <time>2021-08-03T07:36:40Z</time>
      </trkpt>
      <trkpt lat="45.52625" lon="6.74519">
        <ele>1814.4</ele>
        <time>2021-08-03T07:36:41Z</time>
      </trkpt>
      <trkpt lat="45.52625" lon="6.74519">
        <ele>1814.5</ele>
        <time>2021-08-03T07:36:42Z</time>
      </trkpt>
      <trkpt lat="45.52626" lon="6.74519">
        <ele>1814.6</ele>
        <time>2021-08-03T07:36:43Z</time>
      </trkpt>
      <trkpt lat="45.52627" lon="6.7452">
        <ele>1814.8</ele>
        <time>2021-08-03T07:36:44Z</time>
      </trkpt>
      <trkpt lat="45.52627" lon="6.7452">
        <ele>1814.9</ele>
        <time>2021-08-03T07:36:45Z</time>
      </trkpt>
      <trkpt lat="45.52628" lon="6.7452">
        <ele>1815</ele>
        <time>2021-08-03T07:36:46Z</time>
      </trkpt>
      <trkpt lat="45.52628" lon="6.74521">
        <ele>1815.2</ele>
        <time>2021-08-03T07:36:47Z</time>
      </trkpt>
      <trkpt lat="45.52629" lon="6.74521">
        <ele>1815.3</ele>
        <time>2021-08-03T07:36:48Z</time>
      </trkpt>
      <trkpt lat="45.5263" lon="6.74522">
        <ele>1815.5</ele>
        <time>2021-08-03T07:36:49Z</time>
      </trkpt>
      <trkpt lat="45.52631" lon="6.74522">
        <ele>1815.7</ele>
        <time>2021-08-03T07:36:50Z</time>
      </trkpt>
      <trkpt lat="45.52631" lon="6.74523">
        <ele>1815.8</ele>
        <time>2021-08-03T07:36:51Z</time>
      </trkpt>
      <trkpt lat="45.52632" lon="6.74523">
        <ele>1816</ele>
        <time>2021-08-03T07:36:52Z</time>
      </trkpt>
      <trkpt lat="45.52633" lon="6.74524">
        <ele>1816.1</ele>
        <time>2021-08-03T07:36:53Z</time>
      </trkpt>
      <trkpt lat="45.52633" lon="6.74524">
        <ele>1816.3</ele>
        <time>2021-08-03T07:36:54Z</time>
      </trkpt>
      <trkpt lat="45.52634" lon="6.74525">
        <ele>1816.5</ele>
        <time>2021-08-03T07:36:55Z</time>
      </trkpt>
      <trkpt lat="45.52635" lon="6.74525">
        <ele>1816.6</ele>
        <time>2021-08-03T07:36:56Z</time>
      </trkpt>
      <trkpt lat="45.52635" lon="6.74526">
        <ele>1816.8</ele>
        <time>2021-08-03T07:36:57Z</time>
      </trkpt>
      <trkpt lat="45.52636" lon="6.74527">
        <ele>1816.9</ele>
        <time>2021-08-03T07:36:58Z</time>
      </trkpt>
      <trkpt lat="45.52637" lon="6.74527">
        <ele>1817.1</ele>
        <time>2021-08-03T07:36:59Z</time>
      </trkpt>
      <trkpt lat="45.52637" lon="6.74528">
        <ele>1817.3</ele>
        <time>2021-08-03T07:37:00Z</time>
      </trkpt>
      <trkpt lat="45.52638" lon="6.74528">
        <ele>1817.4</ele>
        <time>2021-08-03T07:37:01Z</time>
      </trkpt>
      <trkpt lat="45.52638" lon="6.74529">
        <ele>1817.5</ele>
        <time>2021-08-03T07:37:02Z</time>
      </trkpt>
      <trkpt lat="45.52639" lon="6.7453">
        <ele>1817.7</ele>
        <time>2021-08-03T07:37:03Z</time>
      </trkpt>
      <trkpt lat="45.52639" lon="6.7453">
        <ele>1817.8</ele>
        <time>2021-08-03T07:37:04Z</time>
      </trkpt>
      <trkpt lat="45.5264" lon="6.74531">
        <ele>1818</ele>
        <time>2021-08-03T07:37:05Z</time>
      </trkpt>
      <trkpt lat="45.5264" lon="6.74531">
        <ele>1818.1</ele>
        <time>2021-08-03T07:37:06Z</time>
      </trkpt>
      <trkpt lat="45.52641" lon="6.74532">
        <ele>1818.2</ele>
        <time>2021-08-03T07:37:07Z</time>
      </trkpt>
      <trkpt lat="45.52641" lon="6.74533">
        <ele>1818.3</ele>
        <time>2021-08-03T07:37:08Z</time>
      </trkpt>
      <trkpt lat="45.52641" lon="6.74533">
        <ele>1818.4</ele>
        <time>2021-08-03T07:37:09Z</time>
      </trkpt>
      <trkpt lat="45.52642" lon="6.74534">
        <ele>1818.5</ele>
        <time>2021-08-03T07:37:10Z</time>
      </trkpt>
      <trkpt lat="45.52642" lon="6.74535">
        <ele>1818.6</ele>
        <time>2021-08-03T07:37:11Z</time>
      </trkpt>
      <trkpt lat="45.52642" lon="6.74535">
        <ele>1818.7</ele>
        <time>2021-08-03T07:37:12Z</time>
      </trkpt>
      <trkpt lat="45.52642" lon="6.74536">
        <ele>1818.8</ele>
        <time>2021-08-03T07:37:13Z</time>
      </trkpt>
      <trkpt lat="45.52643" lon="6.74536">
        <ele>1818.9</ele>
        <time>2021-08-03T07:37:14Z</time>
      </trkpt>
      <trkpt lat="45.52643" lon="6.74537">
        <ele>1819.1</ele>
        <time>2021-08-03T07:37:15Z</time>
      </trkpt>
      <trkpt lat="45.52643" lon="6.74538">
        <ele>1819.2</ele>
        <time>2021-08-03T07:37:16Z</time>
      </trkpt>
      <trkpt lat="45.52644" lon="6.74538">
        <ele>1819.3</ele>
        <time>2021-08-03T07:37:17Z</time>
      </trkpt>
      <trkpt lat="45.52645" lon="6.74539">
        <ele>1819.5</ele>
        <time>2021-08-03T07:37:18Z</time>
      </trkpt>
      <trkpt lat="45.52646" lon="6.7454">
        <ele>1819.7</ele>
        <time>2021-08-03T07:37:19Z</time>
      </trkpt>
      <trkpt lat="45.52647" lon="6.74541">
        <ele>1820</ele>
        <time>2021-08-03T07:37:20Z</time>
      </trkpt>
      <trkpt lat="45.52648" lon="6.74541">
        <ele>1820.3</ele>
        <time>2021-08-03T07:37:21Z</time>
      </trkpt>
      <trkpt lat="45.52649" lon="6.74542">
        <ele>1820.6</ele>
        <time>2021-08-03T07:37:22Z</time>
      </trkpt>
      <trkpt lat="45.52651" lon="6.74543">
        <ele>1820.9</ele>
        <time>2021-08-03T07:37:23Z</time>
      </trkpt>
      <trkpt lat="45.52652" lon="6.74544">
        <ele>1821.2</ele>
        <time>2021-08-03T07:37:24Z</time>
      </trkpt>
      <trkpt lat="45.52653" lon="6.74544">
        <ele>1821.5</ele>
        <time>2021-08-03T07:37:25Z</time>
      </trkpt>
      <trkpt lat="45.52655" lon="6.74545">
        <ele>1821.9</ele>
        <time>2021-08-03T07:37:26Z</time>
      </trkpt>
      <trkpt lat="45.52656" lon="6.74545">
        <ele>1822</ele>
        <time>2021-08-03T07:37:27Z</time>
      </trkpt>
      <trkpt lat="45.52657" lon="6.74546">
        <ele>1822.1</ele>
        <time>2021-08-03T07:37:28Z</time>
      </trkpt>
      <trkpt lat="45.52657" lon="6.74546">
        <ele>1822.3</ele>
        <time>2021-08-03T07:37:29Z</time>
      </trkpt>
      <trkpt lat="45.52658" lon="6.74546">
        <ele>1822.4</ele>
        <time>2021-08-03T07:37:30Z</time>
      </trkpt>
      <trkpt lat="45.52658" lon="6.74546">
        <ele>1822.4</ele>
        <time>2021-08-03T07:37:31Z</time>
      </trkpt>
      <trkpt lat="45.52658" lon="6.74546">
        <ele>1822.5</ele>
        <time>2021-08-03T07:37:32Z</time>
      </trkpt>
      <trkpt lat="45.52658" lon="6.74546">
        <ele>1822.5</ele>
        <time>2021-08-03T07:37:33Z</time>
      </trkpt>
      <trkpt lat="45.52658" lon="6.74546">
        <ele>1822.5</ele>
        <time>2021-08-03T07:37:34Z</time>
      </trkpt>
      <trkpt lat="45.52658" lon="6.74546">
        <ele>1822.5</ele>
        <time>2021-08-03T07:37:35Z</time>
      </trkpt>
      <trkpt lat="45.52658" lon="6.74546">
        <ele>1822.5</ele>
        <time>2021-08-03T07:37:36Z</time>
      </trkpt>
      <trkpt lat="45.52658" lon="6.74546">
        <ele>1822.5</ele>
        <time>2021-08-03T07:37:37Z</time>
      </trkpt>
      <trkpt lat="45.52658" lon="6.74546">
        <ele>1822.5</ele>
        <time>2021-08-03T07:37:38Z</time>
      </trkpt>
      <trkpt lat="45.52658" lon="6.74546">
        <ele>1822.5</ele>
        <time>2021-08-03T07:37:39Z</time>
      </trkpt>
      <trkpt lat="45.52658" lon="6.74546">
        <ele>1822.5</ele>
        <time>2021-08-03T07:37:40Z</time>
      </trkpt>
      <trkpt lat="45.52658" lon="6.74546">
        <ele>1822.5</ele>
        <time>2021-08-03T07:37:41Z</time>
      </trkpt>
      <trkpt lat="45.52658" lon="6.74546">
        <ele>1822.5</ele>
        <time>2021-08-03T07:37:42Z</time>
      </trkpt>
      <trkpt lat="45.52658" lon="6.74546">
        <ele>1822.5</ele>
        <time>2021-08-03T07:37:43Z</time>
      </trkpt>
      <trkpt lat="45.52658" lon="6.74546">
        <ele>1822.5</ele>
        <time>2021-08-03T07:37:44Z</time>
      </trkpt>
      <trkpt lat="45.52658" lon="6.74546">
        <ele>1822.5</ele>
        <time>2021-08-03T07:37:45Z</time>
      </trkpt>
      <trkpt lat="45.52658" lon="6.74546">
        <ele>1822.5</ele>
        <time>2021-08-03T07:37:46Z</time>
      </trkpt>
      <trkpt lat="45.52658" lon="6.74546">
        <ele>1822.5</ele>
        <time>2021-08-03T07:37:47Z</time>
      </trkpt>
      <trkpt lat="45.52658" lon="6.74546">
        <ele>1822.5</ele>
        <time>2021-08-03T07:37:48Z</time>
      </trkpt>
      <trkpt lat="45.52658" lon="6.74546">
        <ele>1822.5</ele>
        <time>2021-08-03T07:37:49Z</time>
      </trkpt>
      <trkpt lat="45.52658" lon="6.74546">
        <ele>1822.5</ele>
        <time>2021-08-03T07:37:50Z</time>
      </trkpt>
      <trkpt lat="45.52658" lon="6.74546">
        <ele>1822.5</ele>
        <time>2021-08-03T07:37:51Z</time>
      </trkpt>
      <trkpt lat="45.52658" lon="6.74546">
        <ele>1822.5</ele>
        <time>2021-08-03T07:37:52Z</time>
      </trkpt>
      <trkpt lat="45.52658" lon="6.74546">
        <ele>1822.5</ele>
        <time>2021-08-03T07:37:53Z</time>
      </trkpt>
      <trkpt lat="45.52658" lon="6.74546">
        <ele>1822.5</ele>
        <time>2021-08-03T07:37:54Z</time>
      </trkpt>
      <trkpt lat="45.52658" lon="6.74546">
        <ele>1822.5</ele>
        <time>2021-08-03T07:37:55Z</time>
      </trkpt>
      <trkpt lat="45.52658" lon="6.74546">
        <ele>1822.5</ele>
        <time>2021-08-03T07:37:56Z</time>
      </trkpt>
      <trkpt lat="45.52658" lon="6.74546">
        <ele>1822.5</ele>
        <time>2021-08-03T07:37:57Z</time>
      </trkpt>
      <trkpt lat="45.52658" lon="6.74546">
        <ele>1822.5</ele>
        <time>2021-08-03T07:37:58Z</time>
      </trkpt>
      <trkpt lat="45.52658" lon="6.74546">
        <ele>1822.5</ele>
        <time>2021-08-03T07:37:59Z</time>
      </trkpt>
      <trkpt lat="45.52658" lon="6.74546">
        <ele>1822.5</ele>
        <time>2021-08-03T07:38:00Z</time>
      </trkpt>
      <trkpt lat="45.52658" lon="6.74546">
        <ele>1822.5</ele>
        <time>2021-08-03T07:38:01Z</time>
      </trkpt>
      <trkpt lat="45.52658" lon="6.74546">
        <ele>1822.5</ele>
        <time>2021-08-03T07:38:02Z</time>
      </trkpt>
      <trkpt lat="45.52658" lon="6.74546">
        <ele>1822.5</ele>
        <time>2021-08-03T07:38:03Z</time>
      </trkpt>
      <trkpt lat="45.52658" lon="6.74546">
        <ele>1822.5</ele>
        <time>2021-08-03T07:38:04Z</time>
      </trkpt>
      <trkpt lat="45.52658" lon="6.74546">
        <ele>1822.5</ele>
        <time>2021-08-03T07:38:05Z</time>
      </trkpt>
      <trkpt lat="45.52658" lon="6.74546">
        <ele>1822.5</ele>
        <time>2021-08-03T07:38:06Z</time>
      </trkpt>
      <trkpt lat="45.52658" lon="6.74546">
        <ele>1822.5</ele>
        <time>2021-08-03T07:38:07Z</time>
      </trkpt>
      <trkpt lat="45.52658" lon="6.74546">
        <ele>1822.5</ele>
        <time>2021-08-03T07:38:08Z</time>
      </trkpt>
      <trkpt lat="45.52658" lon="6.74546">
        <ele>1822.5</ele>
        <time>2021-08-03T07:38:09Z</time>
      </trkpt>
      <trkpt lat="45.52658" lon="6.74546">
        <ele>1822.5</ele>
        <time>2021-08-03T07:38:10Z</time>
      </trkpt>
      <trkpt lat="45.52658" lon="6.74546">
        <ele>1822.5</ele>
        <time>2021-08-03T07:38:11Z</time>
      </trkpt>
      <trkpt lat="45.52658" lon="6.74546">
        <ele>1822.5</ele>
        <time>2021-08-03T07:38:12Z</time>
      </trkpt>
      <trkpt lat="45.52658" lon="6.74546">
        <ele>1822.5</ele>
        <time>2021-08-03T07:38:13Z</time>
      </trkpt>
      <trkpt lat="45.52658" lon="6.74546">
        <ele>1822.5</ele>
        <time>2021-08-03T07:38:14Z</time>
      </trkpt>
      <trkpt lat="45.52658" lon="6.74546">
        <ele>1822.6</ele>
        <time>2021-08-03T07:38:15Z</time>
      </trkpt>
      <trkpt lat="45.52659" lon="6.74546">
        <ele>1822.6</ele>
        <time>2021-08-03T07:38:16Z</time>
      </trkpt>
      <trkpt lat="45.5266" lon="6.74546">
        <ele>1822.8</ele>
        <time>2021-08-03T07:38:17Z</time>
      </trkpt>
      <trkpt lat="45.52661" lon="6.74546">
        <ele>1823</ele>
        <time>2021-08-03T07:38:18Z</time>
      </trkpt>
      <trkpt lat="45.52661" lon="6.74547">
        <ele>1823.2</ele>
        <time>2021-08-03T07:38:19Z</time>
      </trkpt>
      <trkpt lat="45.52662" lon="6.74548">
        <ele>1823.4</ele>
        <time>2021-08-03T07:38:20Z</time>
      </trkpt>
      <trkpt lat="45.52662" lon="6.74549">
        <ele>1823.5</ele>
        <time>2021-08-03T07:38:21Z</time>
      </trkpt>
      <trkpt lat="45.52663" lon="6.7455">
        <ele>1823.7</ele>
        <time>2021-08-03T07:38:22Z</time>
      </trkpt>
      <trkpt lat="45.52663" lon="6.74551">
        <ele>1823.8</ele>
        <time>2021-08-03T07:38:23Z</time>
      </trkpt>
      <trkpt lat="45.52663" lon="6.74551">
        <ele>1823.9</ele>
        <time>2021-08-03T07:38:24Z</time>
      </trkpt>
      <trkpt lat="45.52664" lon="6.74552">
        <ele>1824.1</ele>
        <time>2021-08-03T07:38:25Z</time>
      </trkpt>
      <trkpt lat="45.52664" lon="6.74552">
        <ele>1824.2</ele>
        <time>2021-08-03T07:38:26Z</time>
      </trkpt>
      <trkpt lat="45.52665" lon="6.74552">
        <ele>1824.3</ele>
        <time>2021-08-03T07:38:27Z</time>
      </trkpt>
      <trkpt lat="45.52666" lon="6.74552">
        <ele>1824.4</ele>
        <time>2021-08-03T07:38:28Z</time>
      </trkpt>
      <trkpt lat="45.52666" lon="6.74553">
        <ele>1824.6</ele>
        <time>2021-08-03T07:38:29Z</time>
      </trkpt>
      <trkpt lat="45.52667" lon="6.74553">
        <ele>1824.7</ele>
        <time>2021-08-03T07:38:30Z</time>
      </trkpt>
      <trkpt lat="45.52668" lon="6.74553">
        <ele>1824.9</ele>
        <time>2021-08-03T07:38:31Z</time>
      </trkpt>
      <trkpt lat="45.52668" lon="6.74553">
        <ele>1825</ele>
        <time>2021-08-03T07:38:32Z</time>
      </trkpt>
      <trkpt lat="45.52669" lon="6.74554">
        <ele>1825.2</ele>
        <time>2021-08-03T07:38:33Z</time>
      </trkpt>
      <trkpt lat="45.5267" lon="6.74554">
        <ele>1825.3</ele>
        <time>2021-08-03T07:38:34Z</time>
      </trkpt>
      <trkpt lat="45.5267" lon="6.74555">
        <ele>1825.5</ele>
        <time>2021-08-03T07:38:35Z</time>
      </trkpt>
      <trkpt lat="45.52671" lon="6.74556">
        <ele>1825.6</ele>
        <time>2021-08-03T07:38:36Z</time>
      </trkpt>
      <trkpt lat="45.52672" lon="6.74556">
        <ele>1825.8</ele>
        <time>2021-08-03T07:38:37Z</time>
      </trkpt>
      <trkpt lat="45.52672" lon="6.74557">
        <ele>1826</ele>
        <time>2021-08-03T07:38:38Z</time>
      </trkpt>
      <trkpt lat="45.52673" lon="6.74558">
        <ele>1826.1</ele>
        <time>2021-08-03T07:38:39Z</time>
      </trkpt>
      <trkpt lat="45.52673" lon="6.74559">
        <ele>1826.3</ele>
        <time>2021-08-03T07:38:40Z</time>
      </trkpt>
      <trkpt lat="45.52673" lon="6.7456">
        <ele>1826.5</ele>
        <time>2021-08-03T07:38:41Z</time>
      </trkpt>
      <trkpt lat="45.52674" lon="6.74561">
        <ele>1826.6</ele>
        <time>2021-08-03T07:38:42Z</time>
      </trkpt>
      <trkpt lat="45.52674" lon="6.74562">
        <ele>1826.8</ele>
        <time>2021-08-03T07:38:43Z</time>
      </trkpt>
      <trkpt lat="45.52674" lon="6.74563">
        <ele>1827</ele>
        <time>2021-08-03T07:38:44Z</time>
      </trkpt>
      <trkpt lat="45.52675" lon="6.74564">
        <ele>1827.1</ele>
        <time>2021-08-03T07:38:45Z</time>
      </trkpt>
      <trkpt lat="45.52675" lon="6.74565">
        <ele>1827.3</ele>
        <time>2021-08-03T07:38:46Z</time>
      </trkpt>
      <trkpt lat="45.52675" lon="6.74567">
        <ele>1827.5</ele>
        <time>2021-08-03T07:38:47Z</time>
      </trkpt>
      <trkpt lat="45.52676" lon="6.74568">
        <ele>1827.7</ele>
        <time>2021-08-03T07:38:48Z</time>
      </trkpt>
      <trkpt lat="45.52676" lon="6.74569">
        <ele>1827.8</ele>
        <time>2021-08-03T07:38:49Z</time>
      </trkpt>
      <trkpt lat="45.52676" lon="6.7457">
        <ele>1828</ele>
        <time>2021-08-03T07:38:50Z</time>
      </trkpt>
      <trkpt lat="45.52677" lon="6.74571">
        <ele>1828.2</ele>
        <time>2021-08-03T07:38:51Z</time>
      </trkpt>
      <trkpt lat="45.52677" lon="6.74572">
        <ele>1828.3</ele>
        <time>2021-08-03T07:38:52Z</time>
      </trkpt>
      <trkpt lat="45.52677" lon="6.74573">
        <ele>1828.5</ele>
        <time>2021-08-03T07:38:53Z</time>
      </trkpt>
      <trkpt lat="45.52678" lon="6.74574">
        <ele>1828.7</ele>
        <time>2021-08-03T07:38:54Z</time>
      </trkpt>
      <trkpt lat="45.52678" lon="6.74575">
        <ele>1828.9</ele>
        <time>2021-08-03T07:38:55Z</time>
      </trkpt>
      <trkpt lat="45.52678" lon="6.74577">
        <ele>1829.1</ele>
        <time>2021-08-03T07:38:56Z</time>
      </trkpt>
      <trkpt lat="45.52679" lon="6.74578">
        <ele>1829.2</ele>
        <time>2021-08-03T07:38:57Z</time>
      </trkpt>
      <trkpt lat="45.52679" lon="6.74579">
        <ele>1829.4</ele>
        <time>2021-08-03T07:38:58Z</time>
      </trkpt>
      <trkpt lat="45.52679" lon="6.7458">
        <ele>1829.6</ele>
        <time>2021-08-03T07:38:59Z</time>
      </trkpt>
      <trkpt lat="45.52679" lon="6.74581">
        <ele>1829.8</ele>
        <time>2021-08-03T07:39:00Z</time>
      </trkpt>
      <trkpt lat="45.5268" lon="6.74582">
        <ele>1829.9</ele>
        <time>2021-08-03T07:39:01Z</time>
      </trkpt>
      <trkpt lat="45.5268" lon="6.74583">
        <ele>1830.1</ele>
        <time>2021-08-03T07:39:02Z</time>
      </trkpt>
      <trkpt lat="45.5268" lon="6.74584">
        <ele>1830.3</ele>
        <time>2021-08-03T07:39:03Z</time>
      </trkpt>
      <trkpt lat="45.52681" lon="6.74585">
        <ele>1830.4</ele>
        <time>2021-08-03T07:39:04Z</time>
      </trkpt>
      <trkpt lat="45.52681" lon="6.74586">
        <ele>1830.6</ele>
        <time>2021-08-03T07:39:05Z</time>
      </trkpt>
      <trkpt lat="45.52681" lon="6.74587">
        <ele>1830.7</ele>
        <time>2021-08-03T07:39:06Z</time>
      </trkpt>
      <trkpt lat="45.52682" lon="6.74588">
        <ele>1830.8</ele>
        <time>2021-08-03T07:39:07Z</time>
      </trkpt>
      <trkpt lat="45.52682" lon="6.74589">
        <ele>1831</ele>
        <time>2021-08-03T07:39:08Z</time>
      </trkpt>
      <trkpt lat="45.52683" lon="6.7459">
        <ele>1831.2</ele>
        <time>2021-08-03T07:39:09Z</time>
      </trkpt>
      <trkpt lat="45.52683" lon="6.74591">
        <ele>1831.4</ele>
        <time>2021-08-03T07:39:10Z</time>
      </trkpt>
      <trkpt lat="45.52683" lon="6.74592">
        <ele>1831.5</ele>
        <time>2021-08-03T07:39:11Z</time>
      </trkpt>
      <trkpt lat="45.52684" lon="6.74593">
        <ele>1831.7</ele>
        <time>2021-08-03T07:39:12Z</time>
      </trkpt>
      <trkpt lat="45.52684" lon="6.74594">
        <ele>1831.9</ele>
        <time>2021-08-03T07:39:13Z</time>
      </trkpt>
      <trkpt lat="45.52684" lon="6.74596">
        <ele>1832.1</ele>
        <time>2021-08-03T07:39:14Z</time>
      </trkpt>
      <trkpt lat="45.52685" lon="6.74597">
        <ele>1832.3</ele>
        <time>2021-08-03T07:39:15Z</time>
      </trkpt>
      <trkpt lat="45.52685" lon="6.74598">
        <ele>1832.5</ele>
        <time>2021-08-03T07:39:16Z</time>
      </trkpt>
      <trkpt lat="45.52686" lon="6.74599">
        <ele>1832.6</ele>
        <time>2021-08-03T07:39:17Z</time>
      </trkpt>
      <trkpt lat="45.52686" lon="6.746">
        <ele>1832.8</ele>
        <time>2021-08-03T07:39:18Z</time>
      </trkpt>
      <trkpt lat="45.52686" lon="6.74601">
        <ele>1833</ele>
        <time>2021-08-03T07:39:19Z</time>
      </trkpt>
      <trkpt lat="45.52687" lon="6.74602">
        <ele>1833.1</ele>
        <time>2021-08-03T07:39:20Z</time>
      </trkpt>
      <trkpt lat="45.52687" lon="6.74603">
        <ele>1833.3</ele>
        <time>2021-08-03T07:39:21Z</time>
      </trkpt>
      <trkpt lat="45.52687" lon="6.74604">
        <ele>1833.4</ele>
        <time>2021-08-03T07:39:22Z</time>
      </trkpt>
      <trkpt lat="45.52688" lon="6.74605">
        <ele>1833.6</ele>
        <time>2021-08-03T07:39:23Z</time>
      </trkpt>
      <trkpt lat="45.52688" lon="6.74606">
        <ele>1833.7</ele>
        <time>2021-08-03T07:39:24Z</time>
      </trkpt>
      <trkpt lat="45.52689" lon="6.74607">
        <ele>1833.9</ele>
        <time>2021-08-03T07:39:25Z</time>
      </trkpt>
      <trkpt lat="45.52689" lon="6.74608">
        <ele>1834</ele>
        <time>2021-08-03T07:39:26Z</time>
      </trkpt>
      <trkpt lat="45.52689" lon="6.74609">
        <ele>1834.2</ele>
        <time>2021-08-03T07:39:27Z</time>
      </trkpt>
      <trkpt lat="45.5269" lon="6.7461">
        <ele>1834.4</ele>
        <time>2021-08-03T07:39:28Z</time>
      </trkpt>
      <trkpt lat="45.5269" lon="6.74611">
        <ele>1834.5</ele>
        <time>2021-08-03T07:39:29Z</time>
      </trkpt>
      <trkpt lat="45.52691" lon="6.74612">
        <ele>1834.7</ele>
        <time>2021-08-03T07:39:30Z</time>
      </trkpt>
      <trkpt lat="45.52691" lon="6.74613">
        <ele>1834.9</ele>
        <time>2021-08-03T07:39:31Z</time>
      </trkpt>
      <trkpt lat="45.52692" lon="6.74614">
        <ele>1835.1</ele>
        <time>2021-08-03T07:39:32Z</time>
      </trkpt>
      <trkpt lat="45.52693" lon="6.74615">
        <ele>1835.3</ele>
        <time>2021-08-03T07:39:33Z</time>
      </trkpt>
      <trkpt lat="45.52694" lon="6.74616">
        <ele>1835.5</ele>
        <time>2021-08-03T07:39:34Z</time>
      </trkpt>
      <trkpt lat="45.52694" lon="6.74617">
        <ele>1835.8</ele>
        <time>2021-08-03T07:39:35Z</time>
      </trkpt>
      <trkpt lat="45.52695" lon="6.74618">
        <ele>1836</ele>
        <time>2021-08-03T07:39:36Z</time>
      </trkpt>
      <trkpt lat="45.52696" lon="6.74618">
        <ele>1836.2</ele>
        <time>2021-08-03T07:39:37Z</time>
      </trkpt>
      <trkpt lat="45.52697" lon="6.74619">
        <ele>1836.5</ele>
        <time>2021-08-03T07:39:38Z</time>
      </trkpt>
      <trkpt lat="45.52698" lon="6.7462">
        <ele>1836.6</ele>
        <time>2021-08-03T07:39:39Z</time>
      </trkpt>
      <trkpt lat="45.52698" lon="6.74621">
        <ele>1836.8</ele>
        <time>2021-08-03T07:39:40Z</time>
      </trkpt>
      <trkpt lat="45.52699" lon="6.74622">
        <ele>1837</ele>
        <time>2021-08-03T07:39:41Z</time>
      </trkpt>
      <trkpt lat="45.52699" lon="6.74622">
        <ele>1837.1</ele>
        <time>2021-08-03T07:39:42Z</time>
      </trkpt>
      <trkpt lat="45.52699" lon="6.74623">
        <ele>1837.2</ele>
        <time>2021-08-03T07:39:43Z</time>
      </trkpt>
      <trkpt lat="45.52699" lon="6.74624">
        <ele>1837.3</ele>
        <time>2021-08-03T07:39:44Z</time>
      </trkpt>
      <trkpt lat="45.52699" lon="6.74625">
        <ele>1837.4</ele>
        <time>2021-08-03T07:39:45Z</time>
      </trkpt>
      <trkpt lat="45.52699" lon="6.74625">
        <ele>1837.5</ele>
        <time>2021-08-03T07:39:46Z</time>
      </trkpt>
      <trkpt lat="45.52699" lon="6.74626">
        <ele>1837.7</ele>
        <time>2021-08-03T07:39:47Z</time>
      </trkpt>
      <trkpt lat="45.52698" lon="6.74627">
        <ele>1837.8</ele>
        <time>2021-08-03T07:39:48Z</time>
      </trkpt>
      <trkpt lat="45.52698" lon="6.74627">
        <ele>1837.9</ele>
        <time>2021-08-03T07:39:49Z</time>
      </trkpt>
      <trkpt lat="45.52697" lon="6.74628">
        <ele>1838</ele>
        <time>2021-08-03T07:39:50Z</time>
      </trkpt>
      <trkpt lat="45.52697" lon="6.74629">
        <ele>1838.2</ele>
        <time>2021-08-03T07:39:51Z</time>
      </trkpt>
      <trkpt lat="45.52696" lon="6.74629">
        <ele>1838.3</ele>
        <time>2021-08-03T07:39:52Z</time>
      </trkpt>
      <trkpt lat="45.52696" lon="6.7463">
        <ele>1838.4</ele>
        <time>2021-08-03T07:39:53Z</time>
      </trkpt>
      <trkpt lat="45.52696" lon="6.74631">
        <ele>1838.5</ele>
        <time>2021-08-03T07:39:54Z</time>
      </trkpt>
      <trkpt lat="45.52696" lon="6.74631">
        <ele>1838.6</ele>
        <time>2021-08-03T07:39:55Z</time>
      </trkpt>
      <trkpt lat="45.52696" lon="6.74632">
        <ele>1838.7</ele>
        <time>2021-08-03T07:39:56Z</time>
      </trkpt>
      <trkpt lat="45.52696" lon="6.74633">
        <ele>1838.9</ele>
        <time>2021-08-03T07:39:57Z</time>
      </trkpt>
      <trkpt lat="45.52696" lon="6.74634">
        <ele>1839</ele>
        <time>2021-08-03T07:39:58Z</time>
      </trkpt>
      <trkpt lat="45.52697" lon="6.74635">
        <ele>1839.2</ele>
        <time>2021-08-03T07:39:59Z</time>
      </trkpt>
      <trkpt lat="45.52697" lon="6.74636">
        <ele>1839.3</ele>
        <time>2021-08-03T07:40:00Z</time>
      </trkpt>
      <trkpt lat="45.52698" lon="6.74637">
        <ele>1839.5</ele>
        <time>2021-08-03T07:40:01Z</time>
      </trkpt>
      <trkpt lat="45.52698" lon="6.74638">
        <ele>1839.7</ele>
        <time>2021-08-03T07:40:02Z</time>
      </trkpt>
      <trkpt lat="45.52699" lon="6.74639">
        <ele>1839.9</ele>
        <time>2021-08-03T07:40:03Z</time>
      </trkpt>
      <trkpt lat="45.52699" lon="6.7464">
        <ele>1840.1</ele>
        <time>2021-08-03T07:40:04Z</time>
      </trkpt>
      <trkpt lat="45.527" lon="6.74641">
        <ele>1840.2</ele>
        <time>2021-08-03T07:40:05Z</time>
      </trkpt>
      <trkpt lat="45.527" lon="6.74642">
        <ele>1840.4</ele>
        <time>2021-08-03T07:40:06Z</time>
      </trkpt>
      <trkpt lat="45.52701" lon="6.74642">
        <ele>1840.6</ele>
        <time>2021-08-03T07:40:07Z</time>
      </trkpt>
      <trkpt lat="45.52701" lon="6.74643">
        <ele>1840.7</ele>
        <time>2021-08-03T07:40:08Z</time>
      </trkpt>
      <trkpt lat="45.52702" lon="6.74644">
        <ele>1840.9</ele>
        <time>2021-08-03T07:40:09Z</time>
      </trkpt>
      <trkpt lat="45.52702" lon="6.74645">
        <ele>1841</ele>
        <time>2021-08-03T07:40:10Z</time>
      </trkpt>
      <trkpt lat="45.52703" lon="6.74646">
        <ele>1841.2</ele>
        <time>2021-08-03T07:40:11Z</time>
      </trkpt>
      <trkpt lat="45.52704" lon="6.74646">
        <ele>1841.4</ele>
        <time>2021-08-03T07:40:12Z</time>
      </trkpt>
      <trkpt lat="45.52704" lon="6.74647">
        <ele>1841.6</ele>
        <time>2021-08-03T07:40:13Z</time>
      </trkpt>
      <trkpt lat="45.52705" lon="6.74648">
        <ele>1841.7</ele>
        <time>2021-08-03T07:40:14Z</time>
      </trkpt>
      <trkpt lat="45.52706" lon="6.74649">
        <ele>1842</ele>
        <time>2021-08-03T07:40:15Z</time>
      </trkpt>
      <trkpt lat="45.52707" lon="6.7465">
        <ele>1842.2</ele>
        <time>2021-08-03T07:40:16Z</time>
      </trkpt>
      <trkpt lat="45.52708" lon="6.74651">
        <ele>1842.4</ele>
        <time>2021-08-03T07:40:17Z</time>
      </trkpt>
      <trkpt lat="45.52708" lon="6.74651">
        <ele>1842.6</ele>
        <time>2021-08-03T07:40:18Z</time>
      </trkpt>
      <trkpt lat="45.52709" lon="6.74652">
        <ele>1842.8</ele>
        <time>2021-08-03T07:40:19Z</time>
      </trkpt>
      <trkpt lat="45.5271" lon="6.74653">
        <ele>1843</ele>
        <time>2021-08-03T07:40:20Z</time>
      </trkpt>
      <trkpt lat="45.52711" lon="6.74654">
        <ele>1843.2</ele>
        <time>2021-08-03T07:40:21Z</time>
      </trkpt>
      <trkpt lat="45.52711" lon="6.74656">
        <ele>1843.4</ele>
        <time>2021-08-03T07:40:22Z</time>
      </trkpt>
      <trkpt lat="45.52712" lon="6.74657">
        <ele>1843.6</ele>
        <time>2021-08-03T07:40:23Z</time>
      </trkpt>
      <trkpt lat="45.52712" lon="6.74658">
        <ele>1843.8</ele>
        <time>2021-08-03T07:40:24Z</time>
      </trkpt>
      <trkpt lat="45.52713" lon="6.74659">
        <ele>1844</ele>
        <time>2021-08-03T07:40:25Z</time>
      </trkpt>
      <trkpt lat="45.52713" lon="6.7466">
        <ele>1844.1</ele>
        <time>2021-08-03T07:40:26Z</time>
      </trkpt>
      <trkpt lat="45.52714" lon="6.74661">
        <ele>1844.3</ele>
        <time>2021-08-03T07:40:27Z</time>
      </trkpt>
      <trkpt lat="45.52714" lon="6.74662">
        <ele>1844.4</ele>
        <time>2021-08-03T07:40:28Z</time>
      </trkpt>
      <trkpt lat="45.52714" lon="6.74662">
        <ele>1844.6</ele>
        <time>2021-08-03T07:40:29Z</time>
      </trkpt>
      <trkpt lat="45.52714" lon="6.74663">
        <ele>1844.7</ele>
        <time>2021-08-03T07:40:30Z</time>
      </trkpt>
      <trkpt lat="45.52714" lon="6.74664">
        <ele>1844.8</ele>
        <time>2021-08-03T07:40:31Z</time>
      </trkpt>
      <trkpt lat="45.52715" lon="6.74665">
        <ele>1844.9</ele>
        <time>2021-08-03T07:40:32Z</time>
      </trkpt>
      <trkpt lat="45.52715" lon="6.74665">
        <ele>1845</ele>
        <time>2021-08-03T07:40:33Z</time>
      </trkpt>
      <trkpt lat="45.52715" lon="6.74666">
        <ele>1845.1</ele>
        <time>2021-08-03T07:40:34Z</time>
      </trkpt>
      <trkpt lat="45.52715" lon="6.74666">
        <ele>1845.1</ele>
        <time>2021-08-03T07:40:35Z</time>
      </trkpt>
      <trkpt lat="45.52715" lon="6.74667">
        <ele>1845.2</ele>
        <time>2021-08-03T07:40:36Z</time>
      </trkpt>
      <trkpt lat="45.52715" lon="6.74667">
        <ele>1845.3</ele>
        <time>2021-08-03T07:40:37Z</time>
      </trkpt>
      <trkpt lat="45.52715" lon="6.74668">
        <ele>1845.4</ele>
        <time>2021-08-03T07:40:38Z</time>
      </trkpt>
      <trkpt lat="45.52715" lon="6.74668">
        <ele>1845.4</ele>
        <time>2021-08-03T07:40:39Z</time>
      </trkpt>
      <trkpt lat="45.52715" lon="6.74669">
        <ele>1845.5</ele>
        <time>2021-08-03T07:40:40Z</time>
      </trkpt>
      <trkpt lat="45.52715" lon="6.74669">
        <ele>1845.6</ele>
        <time>2021-08-03T07:40:41Z</time>
      </trkpt>
      <trkpt lat="45.52715" lon="6.7467">
        <ele>1845.7</ele>
        <time>2021-08-03T07:40:42Z</time>
      </trkpt>
      <trkpt lat="45.52715" lon="6.74671">
        <ele>1845.8</ele>
        <time>2021-08-03T07:40:43Z</time>
      </trkpt>
      <trkpt lat="45.52716" lon="6.74671">
        <ele>1845.9</ele>
        <time>2021-08-03T07:40:44Z</time>
      </trkpt>
      <trkpt lat="45.52716" lon="6.74672">
        <ele>1846</ele>
        <time>2021-08-03T07:40:45Z</time>
      </trkpt>
      <trkpt lat="45.52716" lon="6.74672">
        <ele>1846.1</ele>
        <time>2021-08-03T07:40:46Z</time>
      </trkpt>
      <trkpt lat="45.52717" lon="6.74673">
        <ele>1846.2</ele>
        <time>2021-08-03T07:40:47Z</time>
      </trkpt>
      <trkpt lat="45.52717" lon="6.74674">
        <ele>1846.4</ele>
        <time>2021-08-03T07:40:48Z</time>
      </trkpt>
      <trkpt lat="45.52717" lon="6.74675">
        <ele>1846.5</ele>
        <time>2021-08-03T07:40:49Z</time>
      </trkpt>
      <trkpt lat="45.52718" lon="6.74675">
        <ele>1846.7</ele>
        <time>2021-08-03T07:40:50Z</time>
      </trkpt>
      <trkpt lat="45.52718" lon="6.74676">
        <ele>1846.8</ele>
        <time>2021-08-03T07:40:51Z</time>
      </trkpt>
      <trkpt lat="45.52719" lon="6.74677">
        <ele>1847</ele>
        <time>2021-08-03T07:40:52Z</time>
      </trkpt>
      <trkpt lat="45.5272" lon="6.74678">
        <ele>1847.1</ele>
        <time>2021-08-03T07:40:53Z</time>
      </trkpt>
      <trkpt lat="45.5272" lon="6.74678">
        <ele>1847.3</ele>
        <time>2021-08-03T07:40:54Z</time>
      </trkpt>
      <trkpt lat="45.52721" lon="6.74679">
        <ele>1847.4</ele>
        <time>2021-08-03T07:40:55Z</time>
      </trkpt>
      <trkpt lat="45.52721" lon="6.7468">
        <ele>1847.6</ele>
        <time>2021-08-03T07:40:56Z</time>
      </trkpt>
      <trkpt lat="45.52722" lon="6.7468">
        <ele>1847.7</ele>
        <time>2021-08-03T07:40:57Z</time>
      </trkpt>
      <trkpt lat="45.52723" lon="6.74681">
        <ele>1847.9</ele>
        <time>2021-08-03T07:40:58Z</time>
      </trkpt>
      <trkpt lat="45.52723" lon="6.74681">
        <ele>1848</ele>
        <time>2021-08-03T07:40:59Z</time>
      </trkpt>
      <trkpt lat="45.52724" lon="6.74682">
        <ele>1848.2</ele>
        <time>2021-08-03T07:41:00Z</time>
      </trkpt>
      <trkpt lat="45.52724" lon="6.74682">
        <ele>1848.3</ele>
        <time>2021-08-03T07:41:01Z</time>
      </trkpt>
      <trkpt lat="45.52725" lon="6.74682">
        <ele>1848.4</ele>
        <time>2021-08-03T07:41:02Z</time>
      </trkpt>
      <trkpt lat="45.52726" lon="6.74683">
        <ele>1848.6</ele>
        <time>2021-08-03T07:41:03Z</time>
      </trkpt>
      <trkpt lat="45.52726" lon="6.74683">
        <ele>1848.7</ele>
        <time>2021-08-03T07:41:04Z</time>
      </trkpt>
      <trkpt lat="45.52727" lon="6.74683">
        <ele>1848.8</ele>
        <time>2021-08-03T07:41:05Z</time>
      </trkpt>
      <trkpt lat="45.52727" lon="6.74683">
        <ele>1848.9</ele>
        <time>2021-08-03T07:41:06Z</time>
      </trkpt>
      <trkpt lat="45.52728" lon="6.74683">
        <ele>1849</ele>
        <time>2021-08-03T07:41:07Z</time>
      </trkpt>
      <trkpt lat="45.52728" lon="6.74684">
        <ele>1849.1</ele>
        <time>2021-08-03T07:41:08Z</time>
      </trkpt>
      <trkpt lat="45.52729" lon="6.74684">
        <ele>1849.2</ele>
        <time>2021-08-03T07:41:09Z</time>
      </trkpt>
      <trkpt lat="45.52729" lon="6.74684">
        <ele>1849.3</ele>
        <time>2021-08-03T07:41:10Z</time>
      </trkpt>
      <trkpt lat="45.52729" lon="6.74685">
        <ele>1849.4</ele>
        <time>2021-08-03T07:41:11Z</time>
      </trkpt>
      <trkpt lat="45.5273" lon="6.74685">
        <ele>1849.5</ele>
        <time>2021-08-03T07:41:12Z</time>
      </trkpt>
      <trkpt lat="45.5273" lon="6.74685">
        <ele>1849.6</ele>
        <time>2021-08-03T07:41:13Z</time>
      </trkpt>
      <trkpt lat="45.52731" lon="6.74685">
        <ele>1849.7</ele>
        <time>2021-08-03T07:41:14Z</time>
      </trkpt>
      <trkpt lat="45.52731" lon="6.74686">
        <ele>1849.8</ele>
        <time>2021-08-03T07:41:15Z</time>
      </trkpt>
      <trkpt lat="45.52731" lon="6.74686">
        <ele>1849.9</ele>
        <time>2021-08-03T07:41:16Z</time>
      </trkpt>
      <trkpt lat="45.52732" lon="6.74687">
        <ele>1849.9</ele>
        <time>2021-08-03T07:41:17Z</time>
      </trkpt>
      <trkpt lat="45.52732" lon="6.74687">
        <ele>1850</ele>
        <time>2021-08-03T07:41:18Z</time>
      </trkpt>
      <trkpt lat="45.52732" lon="6.74687">
        <ele>1850.1</ele>
        <time>2021-08-03T07:41:19Z</time>
      </trkpt>
      <trkpt lat="45.52732" lon="6.74688">
        <ele>1850.2</ele>
        <time>2021-08-03T07:41:20Z</time>
      </trkpt>
      <trkpt lat="45.52733" lon="6.74688">
        <ele>1850.2</ele>
        <time>2021-08-03T07:41:21Z</time>
      </trkpt>
      <trkpt lat="45.52733" lon="6.74689">
        <ele>1850.3</ele>
        <time>2021-08-03T07:41:22Z</time>
      </trkpt>
      <trkpt lat="45.52733" lon="6.74689">
        <ele>1850.4</ele>
        <time>2021-08-03T07:41:23Z</time>
      </trkpt>
      <trkpt lat="45.52733" lon="6.74689">
        <ele>1850.4</ele>
        <time>2021-08-03T07:41:24Z</time>
      </trkpt>
      <trkpt lat="45.52733" lon="6.74689">
        <ele>1850.5</ele>
        <time>2021-08-03T07:41:25Z</time>
      </trkpt>
      <trkpt lat="45.52733" lon="6.7469">
        <ele>1850.5</ele>
        <time>2021-08-03T07:41:26Z</time>
      </trkpt>
      <trkpt lat="45.52734" lon="6.7469">
        <ele>1850.6</ele>
        <time>2021-08-03T07:41:27Z</time>
      </trkpt>
      <trkpt lat="45.52734" lon="6.7469">
        <ele>1850.6</ele>
        <time>2021-08-03T07:41:28Z</time>
      </trkpt>
      <trkpt lat="45.52734" lon="6.7469">
        <ele>1850.6</ele>
        <time>2021-08-03T07:41:29Z</time>
      </trkpt>
      <trkpt lat="45.52734" lon="6.7469">
        <ele>1850.6</ele>
        <time>2021-08-03T07:41:30Z</time>
      </trkpt>
      <trkpt lat="45.52734" lon="6.7469">
        <ele>1850.7</ele>
        <time>2021-08-03T07:41:31Z</time>
      </trkpt>
      <trkpt lat="45.52734" lon="6.7469">
        <ele>1850.7</ele>
        <time>2021-08-03T07:41:32Z</time>
      </trkpt>
      <trkpt lat="45.52734" lon="6.74689">
        <ele>1850.7</ele>
        <time>2021-08-03T07:41:33Z</time>
      </trkpt>
      <trkpt lat="45.52734" lon="6.74689">
        <ele>1850.8</ele>
        <time>2021-08-03T07:41:34Z</time>
      </trkpt>
      <trkpt lat="45.52735" lon="6.7469">
        <ele>1850.9</ele>
        <time>2021-08-03T07:41:35Z</time>
      </trkpt>
      <trkpt lat="45.52735" lon="6.74691">
        <ele>1851</ele>
        <time>2021-08-03T07:41:36Z</time>
      </trkpt>
      <trkpt lat="45.52736" lon="6.74692">
        <ele>1851.2</ele>
        <time>2021-08-03T07:41:37Z</time>
      </trkpt>
      <trkpt lat="45.52736" lon="6.74693">
        <ele>1851.4</ele>
        <time>2021-08-03T07:41:38Z</time>
      </trkpt>
      <trkpt lat="45.52736" lon="6.74694">
        <ele>1851.6</ele>
        <time>2021-08-03T07:41:39Z</time>
      </trkpt>
      <trkpt lat="45.52737" lon="6.74695">
        <ele>1851.7</ele>
        <time>2021-08-03T07:41:40Z</time>
      </trkpt>
      <trkpt lat="45.52737" lon="6.74696">
        <ele>1851.9</ele>
        <time>2021-08-03T07:41:41Z</time>
      </trkpt>
      <trkpt lat="45.52737" lon="6.74696">
        <ele>1851.9</ele>
        <time>2021-08-03T07:41:42Z</time>
      </trkpt>
      <trkpt lat="45.52737" lon="6.74697">
        <ele>1852</ele>
        <time>2021-08-03T07:41:43Z</time>
      </trkpt>
      <trkpt lat="45.52737" lon="6.74697">
        <ele>1852</ele>
        <time>2021-08-03T07:41:44Z</time>
      </trkpt>
      <trkpt lat="45.52737" lon="6.74697">
        <ele>1852</ele>
        <time>2021-08-03T07:41:45Z</time>
      </trkpt>
      <trkpt lat="45.52737" lon="6.74697">
        <ele>1852</ele>
        <time>2021-08-03T07:41:46Z</time>
      </trkpt>
      <trkpt lat="45.52737" lon="6.74697">
        <ele>1852.1</ele>
        <time>2021-08-03T07:41:47Z</time>
      </trkpt>
      <trkpt lat="45.52737" lon="6.74697">
        <ele>1852.1</ele>
        <time>2021-08-03T07:41:48Z</time>
      </trkpt>
      <trkpt lat="45.52738" lon="6.74697">
        <ele>1852.1</ele>
        <time>2021-08-03T07:41:49Z</time>
      </trkpt>
      <trkpt lat="45.52738" lon="6.74697">
        <ele>1852.2</ele>
        <time>2021-08-03T07:41:50Z</time>
      </trkpt>
      <trkpt lat="45.52738" lon="6.74697">
        <ele>1852.3</ele>
        <time>2021-08-03T07:41:51Z</time>
      </trkpt>
      <trkpt lat="45.52739" lon="6.74697">
        <ele>1852.3</ele>
        <time>2021-08-03T07:41:52Z</time>
      </trkpt>
      <trkpt lat="45.52739" lon="6.74697">
        <ele>1852.4</ele>
        <time>2021-08-03T07:41:53Z</time>
      </trkpt>
      <trkpt lat="45.5274" lon="6.74698">
        <ele>1852.6</ele>
        <time>2021-08-03T07:41:54Z</time>
      </trkpt>
      <trkpt lat="45.5274" lon="6.74698">
        <ele>1852.7</ele>
        <time>2021-08-03T07:41:55Z</time>
      </trkpt>
      <trkpt lat="45.52741" lon="6.74698">
        <ele>1852.8</ele>
        <time>2021-08-03T07:41:56Z</time>
      </trkpt>
      <trkpt lat="45.52741" lon="6.74698">
        <ele>1852.9</ele>
        <time>2021-08-03T07:41:57Z</time>
      </trkpt>
      <trkpt lat="45.52742" lon="6.74698">
        <ele>1853.1</ele>
        <time>2021-08-03T07:41:58Z</time>
      </trkpt>
      <trkpt lat="45.52743" lon="6.74699">
        <ele>1853.2</ele>
        <time>2021-08-03T07:41:59Z</time>
      </trkpt>
      <trkpt lat="45.52743" lon="6.74699">
        <ele>1853.3</ele>
        <time>2021-08-03T07:42:00Z</time>
      </trkpt>
      <trkpt lat="45.52744" lon="6.74699">
        <ele>1853.5</ele>
        <time>2021-08-03T07:42:01Z</time>
      </trkpt>
      <trkpt lat="45.52745" lon="6.747">
        <ele>1853.7</ele>
        <time>2021-08-03T07:42:02Z</time>
      </trkpt>
      <trkpt lat="45.52746" lon="6.747">
        <ele>1853.8</ele>
        <time>2021-08-03T07:42:03Z</time>
      </trkpt>
      <trkpt lat="45.52746" lon="6.747">
        <ele>1854</ele>
        <time>2021-08-03T07:42:04Z</time>
      </trkpt>
      <trkpt lat="45.52747" lon="6.74701">
        <ele>1854.2</ele>
        <time>2021-08-03T07:42:05Z</time>
      </trkpt>
      <trkpt lat="45.52748" lon="6.74701">
        <ele>1854.3</ele>
        <time>2021-08-03T07:42:06Z</time>
      </trkpt>
      <trkpt lat="45.52749" lon="6.74702">
        <ele>1854.5</ele>
        <time>2021-08-03T07:42:07Z</time>
      </trkpt>
      <trkpt lat="45.52749" lon="6.74702">
        <ele>1854.7</ele>
        <time>2021-08-03T07:42:08Z</time>
      </trkpt>
      <trkpt lat="45.5275" lon="6.74703">
        <ele>1854.8</ele>
        <time>2021-08-03T07:42:09Z</time>
      </trkpt>
      <trkpt lat="45.52751" lon="6.74703">
        <ele>1855</ele>
        <time>2021-08-03T07:42:10Z</time>
      </trkpt>
      <trkpt lat="45.52751" lon="6.74703">
        <ele>1855.1</ele>
        <time>2021-08-03T07:42:11Z</time>
      </trkpt>
      <trkpt lat="45.52752" lon="6.74704">
        <ele>1855.3</ele>
        <time>2021-08-03T07:42:12Z</time>
      </trkpt>
      <trkpt lat="45.52753" lon="6.74704">
        <ele>1855.4</ele>
        <time>2021-08-03T07:42:13Z</time>
      </trkpt>
      <trkpt lat="45.52753" lon="6.74705">
        <ele>1855.5</ele>
        <time>2021-08-03T07:42:14Z</time>
      </trkpt>
      <trkpt lat="45.52754" lon="6.74705">
        <ele>1855.7</ele>
        <time>2021-08-03T07:42:15Z</time>
      </trkpt>
      <trkpt lat="45.52755" lon="6.74706">
        <ele>1855.9</ele>
        <time>2021-08-03T07:42:16Z</time>
      </trkpt>
      <trkpt lat="45.52755" lon="6.74706">
        <ele>1856</ele>
        <time>2021-08-03T07:42:17Z</time>
      </trkpt>
      <trkpt lat="45.52755" lon="6.74706">
        <ele>1856.1</ele>
        <time>2021-08-03T07:42:18Z</time>
      </trkpt>
      <trkpt lat="45.52756" lon="6.74707">
        <ele>1856.2</ele>
        <time>2021-08-03T07:42:19Z</time>
      </trkpt>
      <trkpt lat="45.52756" lon="6.74707">
        <ele>1856.3</ele>
        <time>2021-08-03T07:42:20Z</time>
      </trkpt>
      <trkpt lat="45.52757" lon="6.74707">
        <ele>1856.4</ele>
        <time>2021-08-03T07:42:21Z</time>
      </trkpt>
      <trkpt lat="45.52757" lon="6.74708">
        <ele>1856.5</ele>
        <time>2021-08-03T07:42:22Z</time>
      </trkpt>
      <trkpt lat="45.52758" lon="6.74708">
        <ele>1856.6</ele>
        <time>2021-08-03T07:42:23Z</time>
      </trkpt>
      <trkpt lat="45.52758" lon="6.74709">
        <ele>1856.7</ele>
        <time>2021-08-03T07:42:24Z</time>
      </trkpt>
      <trkpt lat="45.52759" lon="6.74709">
        <ele>1856.8</ele>
        <time>2021-08-03T07:42:25Z</time>
      </trkpt>
      <trkpt lat="45.52759" lon="6.74709">
        <ele>1856.9</ele>
        <time>2021-08-03T07:42:26Z</time>
      </trkpt>
      <trkpt lat="45.52759" lon="6.7471">
        <ele>1857</ele>
        <time>2021-08-03T07:42:27Z</time>
      </trkpt>
      <trkpt lat="45.5276" lon="6.7471">
        <ele>1857.1</ele>
        <time>2021-08-03T07:42:28Z</time>
      </trkpt>
      <trkpt lat="45.5276" lon="6.74711">
        <ele>1857.2</ele>
        <time>2021-08-03T07:42:29Z</time>
      </trkpt>
      <trkpt lat="45.52761" lon="6.74711">
        <ele>1857.3</ele>
        <time>2021-08-03T07:42:30Z</time>
      </trkpt>
      <trkpt lat="45.52761" lon="6.74711">
        <ele>1857.4</ele>
        <time>2021-08-03T07:42:31Z</time>
      </trkpt>
      <trkpt lat="45.52762" lon="6.74712">
        <ele>1857.5</ele>
        <time>2021-08-03T07:42:32Z</time>
      </trkpt>
      <trkpt lat="45.52762" lon="6.74712">
        <ele>1857.6</ele>
        <time>2021-08-03T07:42:33Z</time>
      </trkpt>
      <trkpt lat="45.52762" lon="6.74712">
        <ele>1857.7</ele>
        <time>2021-08-03T07:42:34Z</time>
      </trkpt>
      <trkpt lat="45.52763" lon="6.74713">
        <ele>1857.9</ele>
        <time>2021-08-03T07:42:35Z</time>
      </trkpt>
      <trkpt lat="45.52763" lon="6.74713">
        <ele>1858</ele>
        <time>2021-08-03T07:42:36Z</time>
      </trkpt>
      <trkpt lat="45.52764" lon="6.74714">
        <ele>1858.1</ele>
        <time>2021-08-03T07:42:37Z</time>
      </trkpt>
      <trkpt lat="45.52764" lon="6.74714">
        <ele>1858.2</ele>
        <time>2021-08-03T07:42:38Z</time>
      </trkpt>
      <trkpt lat="45.52765" lon="6.74714">
        <ele>1858.3</ele>
        <time>2021-08-03T07:42:39Z</time>
      </trkpt>
      <trkpt lat="45.52765" lon="6.74715">
        <ele>1858.4</ele>
        <time>2021-08-03T07:42:40Z</time>
      </trkpt>
      <trkpt lat="45.52766" lon="6.74715">
        <ele>1858.5</ele>
        <time>2021-08-03T07:42:41Z</time>
      </trkpt>
      <trkpt lat="45.52766" lon="6.74716">
        <ele>1858.6</ele>
        <time>2021-08-03T07:42:42Z</time>
      </trkpt>
      <trkpt lat="45.52766" lon="6.74716">
        <ele>1858.7</ele>
        <time>2021-08-03T07:42:43Z</time>
      </trkpt>
      <trkpt lat="45.52766" lon="6.74717">
        <ele>1858.7</ele>
        <time>2021-08-03T07:42:44Z</time>
      </trkpt>
      <trkpt lat="45.52766" lon="6.74717">
        <ele>1858.8</ele>
        <time>2021-08-03T07:42:45Z</time>
      </trkpt>
      <trkpt lat="45.52766" lon="6.74717">
        <ele>1858.9</ele>
        <time>2021-08-03T07:42:46Z</time>
      </trkpt>
      <trkpt lat="45.52767" lon="6.74718">
        <ele>1858.9</ele>
        <time>2021-08-03T07:42:47Z</time>
      </trkpt>
      <trkpt lat="45.52767" lon="6.74718">
        <ele>1859</ele>
        <time>2021-08-03T07:42:48Z</time>
      </trkpt>
      <trkpt lat="45.52767" lon="6.74718">
        <ele>1859</ele>
        <time>2021-08-03T07:42:49Z</time>
      </trkpt>
      <trkpt lat="45.52767" lon="6.74718">
        <ele>1859</ele>
        <time>2021-08-03T07:42:50Z</time>
      </trkpt>
      <trkpt lat="45.52767" lon="6.74718">
        <ele>1859</ele>
        <time>2021-08-03T07:42:51Z</time>
      </trkpt>
      <trkpt lat="45.52767" lon="6.74718">
        <ele>1859.1</ele>
        <time>2021-08-03T07:42:52Z</time>
      </trkpt>
      <trkpt lat="45.52767" lon="6.74718">
        <ele>1859.1</ele>
        <time>2021-08-03T07:42:53Z</time>
      </trkpt>
      <trkpt lat="45.52767" lon="6.74717">
        <ele>1859.1</ele>
        <time>2021-08-03T07:42:54Z</time>
      </trkpt>
      <trkpt lat="45.52767" lon="6.74717">
        <ele>1859.2</ele>
        <time>2021-08-03T07:42:55Z</time>
      </trkpt>
      <trkpt lat="45.52767" lon="6.74717">
        <ele>1859.2</ele>
        <time>2021-08-03T07:42:56Z</time>
      </trkpt>
      <trkpt lat="45.52767" lon="6.74717">
        <ele>1859.2</ele>
        <time>2021-08-03T07:42:57Z</time>
      </trkpt>
      <trkpt lat="45.52768" lon="6.74717">
        <ele>1859.2</ele>
        <time>2021-08-03T07:42:58Z</time>
      </trkpt>
      <trkpt lat="45.52768" lon="6.74718">
        <ele>1859.3</ele>
        <time>2021-08-03T07:42:59Z</time>
      </trkpt>
      <trkpt lat="45.52768" lon="6.74718">
        <ele>1859.3</ele>
        <time>2021-08-03T07:43:00Z</time>
      </trkpt>
      <trkpt lat="45.52768" lon="6.74719">
        <ele>1859.4</ele>
        <time>2021-08-03T07:43:01Z</time>
      </trkpt>
      <trkpt lat="45.52768" lon="6.74719">
        <ele>1859.5</ele>
        <time>2021-08-03T07:43:02Z</time>
      </trkpt>
      <trkpt lat="45.52768" lon="6.7472">
        <ele>1859.6</ele>
        <time>2021-08-03T07:43:03Z</time>
      </trkpt>
      <trkpt lat="45.52768" lon="6.74721">
        <ele>1859.7</ele>
        <time>2021-08-03T07:43:04Z</time>
      </trkpt>
      <trkpt lat="45.52768" lon="6.74721">
        <ele>1859.8</ele>
        <time>2021-08-03T07:43:05Z</time>
      </trkpt>
      <trkpt lat="45.52769" lon="6.74722">
        <ele>1859.9</ele>
        <time>2021-08-03T07:43:06Z</time>
      </trkpt>
      <trkpt lat="45.52769" lon="6.74723">
        <ele>1860</ele>
        <time>2021-08-03T07:43:07Z</time>
      </trkpt>
      <trkpt lat="45.52769" lon="6.74723">
        <ele>1860.1</ele>
        <time>2021-08-03T07:43:08Z</time>
      </trkpt>
      <trkpt lat="45.5277" lon="6.74724">
        <ele>1860.3</ele>
        <time>2021-08-03T07:43:09Z</time>
      </trkpt>
      <trkpt lat="45.5277" lon="6.74725">
        <ele>1860.4</ele>
        <time>2021-08-03T07:43:10Z</time>
      </trkpt>
      <trkpt lat="45.5277" lon="6.74725">
        <ele>1860.5</ele>
        <time>2021-08-03T07:43:11Z</time>
      </trkpt>
      <trkpt lat="45.52771" lon="6.74726">
        <ele>1860.6</ele>
        <time>2021-08-03T07:43:12Z</time>
      </trkpt>
      <trkpt lat="45.52771" lon="6.74726">
        <ele>1860.7</ele>
        <time>2021-08-03T07:43:13Z</time>
      </trkpt>
      <trkpt lat="45.52771" lon="6.74727">
        <ele>1860.8</ele>
        <time>2021-08-03T07:43:14Z</time>
      </trkpt>
      <trkpt lat="45.52772" lon="6.74727">
        <ele>1860.9</ele>
        <time>2021-08-03T07:43:15Z</time>
      </trkpt>
      <trkpt lat="45.52772" lon="6.74727">
        <ele>1861</ele>
        <time>2021-08-03T07:43:16Z</time>
      </trkpt>
      <trkpt lat="45.52773" lon="6.74728">
        <ele>1861.1</ele>
        <time>2021-08-03T07:43:17Z</time>
      </trkpt>
      <trkpt lat="45.52773" lon="6.74728">
        <ele>1861.2</ele>
        <time>2021-08-03T07:43:18Z</time>
      </trkpt>
      <trkpt lat="45.52773" lon="6.74728">
        <ele>1861.3</ele>
        <time>2021-08-03T07:43:19Z</time>
      </trkpt>
      <trkpt lat="45.52774" lon="6.74729">
        <ele>1861.4</ele>
        <time>2021-08-03T07:43:20Z</time>
      </trkpt>
      <trkpt lat="45.52774" lon="6.74729">
        <ele>1861.5</ele>
        <time>2021-08-03T07:43:21Z</time>
      </trkpt>
      <trkpt lat="45.52774" lon="6.74729">
        <ele>1861.5</ele>
        <time>2021-08-03T07:43:22Z</time>
      </trkpt>
      <trkpt lat="45.52775" lon="6.74729">
        <ele>1861.6</ele>
        <time>2021-08-03T07:43:23Z</time>
      </trkpt>
      <trkpt lat="45.52775" lon="6.7473">
        <ele>1861.6</ele>
        <time>2021-08-03T07:43:24Z</time>
      </trkpt>
      <trkpt lat="45.52775" lon="6.7473">
        <ele>1861.7</ele>
        <time>2021-08-03T07:43:25Z</time>
      </trkpt>
      <trkpt lat="45.52775" lon="6.7473">
        <ele>1861.7</ele>
        <time>2021-08-03T07:43:26Z</time>
      </trkpt>
      <trkpt lat="45.52775" lon="6.7473">
        <ele>1861.7</ele>
        <time>2021-08-03T07:43:27Z</time>
      </trkpt>
      <trkpt lat="45.52775" lon="6.7473">
        <ele>1861.8</ele>
        <time>2021-08-03T07:43:28Z</time>
      </trkpt>
      <trkpt lat="45.52776" lon="6.7473">
        <ele>1861.8</ele>
        <time>2021-08-03T07:43:29Z</time>
      </trkpt>
      <trkpt lat="45.52776" lon="6.7473">
        <ele>1861.8</ele>
        <time>2021-08-03T07:43:30Z</time>
      </trkpt>
      <trkpt lat="45.52776" lon="6.7473">
        <ele>1861.8</ele>
        <time>2021-08-03T07:43:31Z</time>
      </trkpt>
      <trkpt lat="45.52776" lon="6.7473">
        <ele>1861.8</ele>
        <time>2021-08-03T07:43:32Z</time>
      </trkpt>
      <trkpt lat="45.52776" lon="6.7473">
        <ele>1861.8</ele>
        <time>2021-08-03T07:43:33Z</time>
      </trkpt>
      <trkpt lat="45.52776" lon="6.7473">
        <ele>1861.8</ele>
        <time>2021-08-03T07:43:34Z</time>
      </trkpt>
      <trkpt lat="45.52776" lon="6.7473">
        <ele>1861.8</ele>
        <time>2021-08-03T07:43:35Z</time>
      </trkpt>
      <trkpt lat="45.52776" lon="6.7473">
        <ele>1861.8</ele>
        <time>2021-08-03T07:43:36Z</time>
      </trkpt>
      <trkpt lat="45.52776" lon="6.7473">
        <ele>1861.8</ele>
        <time>2021-08-03T07:43:37Z</time>
      </trkpt>
      <trkpt lat="45.52776" lon="6.7473">
        <ele>1861.8</ele>
        <time>2021-08-03T07:43:38Z</time>
      </trkpt>
      <trkpt lat="45.52776" lon="6.7473">
        <ele>1861.8</ele>
        <time>2021-08-03T07:43:39Z</time>
      </trkpt>
      <trkpt lat="45.52776" lon="6.7473">
        <ele>1861.8</ele>
        <time>2021-08-03T07:43:40Z</time>
      </trkpt>
      <trkpt lat="45.52776" lon="6.7473">
        <ele>1861.8</ele>
        <time>2021-08-03T07:43:41Z</time>
      </trkpt>
      <trkpt lat="45.52776" lon="6.7473">
        <ele>1861.8</ele>
        <time>2021-08-03T07:43:42Z</time>
      </trkpt>
      <trkpt lat="45.52776" lon="6.7473">
        <ele>1861.8</ele>
        <time>2021-08-03T07:43:43Z</time>
      </trkpt>
      <trkpt lat="45.52776" lon="6.7473">
        <ele>1861.8</ele>
        <time>2021-08-03T07:43:44Z</time>
      </trkpt>
      <trkpt lat="45.52776" lon="6.7473">
        <ele>1861.8</ele>
        <time>2021-08-03T07:43:45Z</time>
      </trkpt>
      <trkpt lat="45.52776" lon="6.7473">
        <ele>1861.9</ele>
        <time>2021-08-03T07:43:46Z</time>
      </trkpt>
      <trkpt lat="45.52776" lon="6.7473">
        <ele>1861.9</ele>
        <time>2021-08-03T07:43:47Z</time>
      </trkpt>
      <trkpt lat="45.52776" lon="6.7473">
        <ele>1861.9</ele>
        <time>2021-08-03T07:43:48Z</time>
      </trkpt>
      <trkpt lat="45.52776" lon="6.7473">
        <ele>1861.9</ele>
        <time>2021-08-03T07:43:49Z</time>
      </trkpt>
      <trkpt lat="45.52776" lon="6.7473">
        <ele>1861.9</ele>
        <time>2021-08-03T07:43:50Z</time>
      </trkpt>
      <trkpt lat="45.52776" lon="6.7473">
        <ele>1861.9</ele>
        <time>2021-08-03T07:43:51Z</time>
      </trkpt>
      <trkpt lat="45.52776" lon="6.7473">
        <ele>1861.9</ele>
        <time>2021-08-03T07:43:52Z</time>
      </trkpt>
      <trkpt lat="45.52776" lon="6.7473">
        <ele>1861.9</ele>
        <time>2021-08-03T07:43:53Z</time>
      </trkpt>
      <trkpt lat="45.52776" lon="6.7473">
        <ele>1861.9</ele>
        <time>2021-08-03T07:43:54Z</time>
      </trkpt>
      <trkpt lat="45.52776" lon="6.7473">
        <ele>1861.9</ele>
        <time>2021-08-03T07:43:55Z</time>
      </trkpt>
      <trkpt lat="45.52776" lon="6.7473">
        <ele>1861.9</ele>
        <time>2021-08-03T07:43:56Z</time>
      </trkpt>
      <trkpt lat="45.52776" lon="6.7473">
        <ele>1861.9</ele>
        <time>2021-08-03T07:43:57Z</time>
      </trkpt>
      <trkpt lat="45.52776" lon="6.7473">
        <ele>1861.9</ele>
        <time>2021-08-03T07:43:58Z</time>
      </trkpt>
      <trkpt lat="45.52776" lon="6.7473">
        <ele>1861.9</ele>
        <time>2021-08-03T07:43:59Z</time>
      </trkpt>
      <trkpt lat="45.52776" lon="6.7473">
        <ele>1861.9</ele>
        <time>2021-08-03T07:44:00Z</time>
      </trkpt>
      <trkpt lat="45.52776" lon="6.7473">
        <ele>1861.9</ele>
        <time>2021-08-03T07:44:01Z</time>
      </trkpt>
      <trkpt lat="45.52776" lon="6.7473">
        <ele>1861.9</ele>
        <time>2021-08-03T07:44:02Z</time>
      </trkpt>
      <trkpt lat="45.52776" lon="6.7473">
        <ele>1861.9</ele>
        <time>2021-08-03T07:44:03Z</time>
      </trkpt>
      <trkpt lat="45.52776" lon="6.7473">
        <ele>1861.9</ele>
        <time>2021-08-03T07:44:04Z</time>
      </trkpt>
      <trkpt lat="45.52776" lon="6.7473">
        <ele>1861.9</ele>
        <time>2021-08-03T07:44:05Z</time>
      </trkpt>
      <trkpt lat="45.52776" lon="6.7473">
        <ele>1861.9</ele>
        <time>2021-08-03T07:44:06Z</time>
      </trkpt>
      <trkpt lat="45.52776" lon="6.7473">
        <ele>1861.9</ele>
        <time>2021-08-03T07:44:07Z</time>
      </trkpt>
      <trkpt lat="45.52776" lon="6.7473">
        <ele>1861.9</ele>
        <time>2021-08-03T07:44:08Z</time>
      </trkpt>
      <trkpt lat="45.52776" lon="6.7473">
        <ele>1861.9</ele>
        <time>2021-08-03T07:44:09Z</time>
      </trkpt>
      <trkpt lat="45.52776" lon="6.7473">
        <ele>1861.9</ele>
        <time>2021-08-03T07:44:10Z</time>
      </trkpt>
      <trkpt lat="45.52776" lon="6.7473">
        <ele>1861.9</ele>
        <time>2021-08-03T07:44:11Z</time>
      </trkpt>
      <trkpt lat="45.52776" lon="6.7473">
        <ele>1861.9</ele>
        <time>2021-08-03T07:44:12Z</time>
      </trkpt>
      <trkpt lat="45.52776" lon="6.7473">
        <ele>1861.9</ele>
        <time>2021-08-03T07:44:13Z</time>
      </trkpt>
      <trkpt lat="45.52776" lon="6.7473">
        <ele>1861.9</ele>
        <time>2021-08-03T07:44:14Z</time>
      </trkpt>
      <trkpt lat="45.52776" lon="6.7473">
        <ele>1861.9</ele>
        <time>2021-08-03T07:44:15Z</time>
      </trkpt>
      <trkpt lat="45.52776" lon="6.7473">
        <ele>1861.9</ele>
        <time>2021-08-03T07:44:16Z</time>
      </trkpt>
      <trkpt lat="45.52776" lon="6.7473">
        <ele>1861.9</ele>
        <time>2021-08-03T07:44:17Z</time>
      </trkpt>
      <trkpt lat="45.52776" lon="6.7473">
        <ele>1861.9</ele>
        <time>2021-08-03T07:44:18Z</time>
      </trkpt>
      <trkpt lat="45.52776" lon="6.7473">
        <ele>1861.9</ele>
        <time>2021-08-03T07:44:19Z</time>
      </trkpt>
      <trkpt lat="45.52776" lon="6.7473">
        <ele>1861.9</ele>
        <time>2021-08-03T07:44:20Z</time>
      </trkpt>
      <trkpt lat="45.52776" lon="6.7473">
        <ele>1862</ele>
        <time>2021-08-03T07:44:21Z</time>
      </trkpt>
      <trkpt lat="45.52776" lon="6.7473">
        <ele>1862</ele>
        <time>2021-08-03T07:44:22Z</time>
      </trkpt>
      <trkpt lat="45.52776" lon="6.7473">
        <ele>1862</ele>
        <time>2021-08-03T07:44:23Z</time>
      </trkpt>
      <trkpt lat="45.52776" lon="6.7473">
        <ele>1862.1</ele>
        <time>2021-08-03T07:44:24Z</time>
      </trkpt>
      <trkpt lat="45.52777" lon="6.74731">
        <ele>1862.1</ele>
        <time>2021-08-03T07:44:25Z</time>
      </trkpt>
      <trkpt lat="45.52777" lon="6.74731">
        <ele>1862.2</ele>
        <time>2021-08-03T07:44:26Z</time>
      </trkpt>
      <trkpt lat="45.52778" lon="6.74731">
        <ele>1862.3</ele>
        <time>2021-08-03T07:44:27Z</time>
      </trkpt>
      <trkpt lat="45.52778" lon="6.74731">
        <ele>1862.4</ele>
        <time>2021-08-03T07:44:28Z</time>
      </trkpt>
      <trkpt lat="45.52779" lon="6.74731">
        <ele>1862.6</ele>
        <time>2021-08-03T07:44:29Z</time>
      </trkpt>
      <trkpt lat="45.52779" lon="6.74732">
        <ele>1862.7</ele>
        <time>2021-08-03T07:44:30Z</time>
      </trkpt>
      <trkpt lat="45.52779" lon="6.74732">
        <ele>1862.8</ele>
        <time>2021-08-03T07:44:31Z</time>
      </trkpt>
      <trkpt lat="45.5278" lon="6.74733">
        <ele>1862.9</ele>
        <time>2021-08-03T07:44:32Z</time>
      </trkpt>
      <trkpt lat="45.5278" lon="6.74733">
        <ele>1863</ele>
        <time>2021-08-03T07:44:33Z</time>
      </trkpt>
      <trkpt lat="45.52781" lon="6.74734">
        <ele>1863.1</ele>
        <time>2021-08-03T07:44:34Z</time>
      </trkpt>
      <trkpt lat="45.52781" lon="6.74735">
        <ele>1863.2</ele>
        <time>2021-08-03T07:44:35Z</time>
      </trkpt>
      <trkpt lat="45.52781" lon="6.74735">
        <ele>1863.3</ele>
        <time>2021-08-03T07:44:36Z</time>
      </trkpt>
      <trkpt lat="45.52781" lon="6.74736">
        <ele>1863.5</ele>
        <time>2021-08-03T07:44:37Z</time>
      </trkpt>
      <trkpt lat="45.52782" lon="6.74737">
        <ele>1863.6</ele>
        <time>2021-08-03T07:44:38Z</time>
      </trkpt>
      <trkpt lat="45.52782" lon="6.74737">
        <ele>1863.7</ele>
        <time>2021-08-03T07:44:39Z</time>
      </trkpt>
      <trkpt lat="45.52782" lon="6.74738">
        <ele>1863.8</ele>
        <time>2021-08-03T07:44:40Z</time>
      </trkpt>
      <trkpt lat="45.52783" lon="6.74739">
        <ele>1863.9</ele>
        <time>2021-08-03T07:44:41Z</time>
      </trkpt>
      <trkpt lat="45.52783" lon="6.74739">
        <ele>1864</ele>
        <time>2021-08-03T07:44:42Z</time>
      </trkpt>
      <trkpt lat="45.52783" lon="6.74739">
        <ele>1864.1</ele>
        <time>2021-08-03T07:44:43Z</time>
      </trkpt>
      <trkpt lat="45.52783" lon="6.7474">
        <ele>1864.1</ele>
        <time>2021-08-03T07:44:44Z</time>
      </trkpt>
      <trkpt lat="45.52783" lon="6.7474">
        <ele>1864.1</ele>
        <time>2021-08-03T07:44:45Z</time>
      </trkpt>
      <trkpt lat="45.52783" lon="6.7474">
        <ele>1864.1</ele>
        <time>2021-08-03T07:44:46Z</time>
      </trkpt>
      <trkpt lat="45.52783" lon="6.7474">
        <ele>1864.1</ele>
        <time>2021-08-03T07:44:47Z</time>
      </trkpt>
      <trkpt lat="45.52783" lon="6.7474">
        <ele>1864.1</ele>
        <time>2021-08-03T07:44:48Z</time>
      </trkpt>
      <trkpt lat="45.52783" lon="6.7474">
        <ele>1864.1</ele>
        <time>2021-08-03T07:44:49Z</time>
      </trkpt>
      <trkpt lat="45.52783" lon="6.7474">
        <ele>1864.1</ele>
        <time>2021-08-03T07:44:50Z</time>
      </trkpt>
      <trkpt lat="45.52783" lon="6.7474">
        <ele>1864.1</ele>
        <time>2021-08-03T07:44:51Z</time>
      </trkpt>
      <trkpt lat="45.52783" lon="6.7474">
        <ele>1864.2</ele>
        <time>2021-08-03T07:44:52Z</time>
      </trkpt>
      <trkpt lat="45.52783" lon="6.7474">
        <ele>1864.2</ele>
        <time>2021-08-03T07:44:53Z</time>
      </trkpt>
      <trkpt lat="45.52783" lon="6.7474">
        <ele>1864.2</ele>
        <time>2021-08-03T07:44:54Z</time>
      </trkpt>
      <trkpt lat="45.52783" lon="6.7474">
        <ele>1864.2</ele>
        <time>2021-08-03T07:44:55Z</time>
      </trkpt>
      <trkpt lat="45.52783" lon="6.7474">
        <ele>1864.2</ele>
        <time>2021-08-03T07:44:56Z</time>
      </trkpt>
      <trkpt lat="45.52783" lon="6.7474">
        <ele>1864.2</ele>
        <time>2021-08-03T07:44:57Z</time>
      </trkpt>
      <trkpt lat="45.52783" lon="6.7474">
        <ele>1864.2</ele>
        <time>2021-08-03T07:44:58Z</time>
      </trkpt>
      <trkpt lat="45.52783" lon="6.7474">
        <ele>1864.2</ele>
        <time>2021-08-03T07:44:59Z</time>
      </trkpt>
      <trkpt lat="45.52784" lon="6.7474">
        <ele>1864.2</ele>
        <time>2021-08-03T07:45:00Z</time>
      </trkpt>
      <trkpt lat="45.52784" lon="6.7474">
        <ele>1864.3</ele>
        <time>2021-08-03T07:45:01Z</time>
      </trkpt>
      <trkpt lat="45.52784" lon="6.7474">
        <ele>1864.3</ele>
        <time>2021-08-03T07:45:02Z</time>
      </trkpt>
      <trkpt lat="45.52784" lon="6.7474">
        <ele>1864.3</ele>
        <time>2021-08-03T07:45:03Z</time>
      </trkpt>
      <trkpt lat="45.52784" lon="6.7474">
        <ele>1864.3</ele>
        <time>2021-08-03T07:45:04Z</time>
      </trkpt>
      <trkpt lat="45.52784" lon="6.7474">
        <ele>1864.4</ele>
        <time>2021-08-03T07:45:05Z</time>
      </trkpt>
      <trkpt lat="45.52784" lon="6.7474">
        <ele>1864.4</ele>
        <time>2021-08-03T07:45:06Z</time>
      </trkpt>
      <trkpt lat="45.52784" lon="6.7474">
        <ele>1864.4</ele>
        <time>2021-08-03T07:45:07Z</time>
      </trkpt>
      <trkpt lat="45.52784" lon="6.7474">
        <ele>1864.5</ele>
        <time>2021-08-03T07:45:08Z</time>
      </trkpt>
      <trkpt lat="45.52785" lon="6.74741">
        <ele>1864.5</ele>
        <time>2021-08-03T07:45:09Z</time>
      </trkpt>
      <trkpt lat="45.52785" lon="6.74741">
        <ele>1864.6</ele>
        <time>2021-08-03T07:45:10Z</time>
      </trkpt>
      <trkpt lat="45.52785" lon="6.74741">
        <ele>1864.6</ele>
        <time>2021-08-03T07:45:11Z</time>
      </trkpt>
      <trkpt lat="45.52785" lon="6.74742">
        <ele>1864.7</ele>
        <time>2021-08-03T07:45:12Z</time>
      </trkpt>
      <trkpt lat="45.52785" lon="6.74743">
        <ele>1864.8</ele>
        <time>2021-08-03T07:45:13Z</time>
      </trkpt>
      <trkpt lat="45.52785" lon="6.74743">
        <ele>1864.9</ele>
        <time>2021-08-03T07:45:14Z</time>
      </trkpt>
      <trkpt lat="45.52785" lon="6.74744">
        <ele>1865</ele>
        <time>2021-08-03T07:45:15Z</time>
      </trkpt>
      <trkpt lat="45.52785" lon="6.74745">
        <ele>1865.1</ele>
        <time>2021-08-03T07:45:16Z</time>
      </trkpt>
      <trkpt lat="45.52785" lon="6.74745">
        <ele>1865.2</ele>
        <time>2021-08-03T07:45:17Z</time>
      </trkpt>
      <trkpt lat="45.52784" lon="6.74746">
        <ele>1865.3</ele>
        <time>2021-08-03T07:45:18Z</time>
      </trkpt>
      <trkpt lat="45.52784" lon="6.74747">
        <ele>1865.4</ele>
        <time>2021-08-03T07:45:19Z</time>
      </trkpt>
      <trkpt lat="45.52784" lon="6.74748">
        <ele>1865.6</ele>
        <time>2021-08-03T07:45:20Z</time>
      </trkpt>
      <trkpt lat="45.52784" lon="6.74748">
        <ele>1865.6</ele>
        <time>2021-08-03T07:45:21Z</time>
      </trkpt>
      <trkpt lat="45.52783" lon="6.74748">
        <ele>1865.7</ele>
        <time>2021-08-03T07:45:22Z</time>
      </trkpt>
      <trkpt lat="45.52783" lon="6.74748">
        <ele>1865.7</ele>
        <time>2021-08-03T07:45:23Z</time>
      </trkpt>
      <trkpt lat="45.52783" lon="6.74749">
        <ele>1865.8</ele>
        <time>2021-08-03T07:45:24Z</time>
      </trkpt>
      <trkpt lat="45.52783" lon="6.74749">
        <ele>1865.8</ele>
        <time>2021-08-03T07:45:25Z</time>
      </trkpt>
      <trkpt lat="45.52783" lon="6.74749">
        <ele>1865.9</ele>
        <time>2021-08-03T07:45:26Z</time>
      </trkpt>
      <trkpt lat="45.52782" lon="6.74749">
        <ele>1866</ele>
        <time>2021-08-03T07:45:27Z</time>
      </trkpt>
      <trkpt lat="45.52782" lon="6.7475">
        <ele>1866</ele>
        <time>2021-08-03T07:45:28Z</time>
      </trkpt>
      <trkpt lat="45.52782" lon="6.7475">
        <ele>1866.1</ele>
        <time>2021-08-03T07:45:29Z</time>
      </trkpt>
      <trkpt lat="45.52782" lon="6.7475">
        <ele>1866.1</ele>
        <time>2021-08-03T07:45:30Z</time>
      </trkpt>
      <trkpt lat="45.52782" lon="6.7475">
        <ele>1866.2</ele>
        <time>2021-08-03T07:45:31Z</time>
      </trkpt>
      <trkpt lat="45.52781" lon="6.74751">
        <ele>1866.2</ele>
        <time>2021-08-03T07:45:32Z</time>
      </trkpt>
      <trkpt lat="45.52781" lon="6.74751">
        <ele>1866.3</ele>
        <time>2021-08-03T07:45:33Z</time>
      </trkpt>
      <trkpt lat="45.52781" lon="6.74751">
        <ele>1866.3</ele>
        <time>2021-08-03T07:45:34Z</time>
      </trkpt>
      <trkpt lat="45.52781" lon="6.74751">
        <ele>1866.4</ele>
        <time>2021-08-03T07:45:35Z</time>
      </trkpt>
      <trkpt lat="45.52781" lon="6.74752">
        <ele>1866.5</ele>
        <time>2021-08-03T07:45:36Z</time>
      </trkpt>
      <trkpt lat="45.5278" lon="6.74752">
        <ele>1866.5</ele>
        <time>2021-08-03T07:45:37Z</time>
      </trkpt>
      <trkpt lat="45.5278" lon="6.74752">
        <ele>1866.6</ele>
        <time>2021-08-03T07:45:38Z</time>
      </trkpt>
      <trkpt lat="45.5278" lon="6.74752">
        <ele>1866.6</ele>
        <time>2021-08-03T07:45:39Z</time>
      </trkpt>
      <trkpt lat="45.5278" lon="6.74753">
        <ele>1866.7</ele>
        <time>2021-08-03T07:45:40Z</time>
      </trkpt>
      <trkpt lat="45.5278" lon="6.74753">
        <ele>1866.8</ele>
        <time>2021-08-03T07:45:41Z</time>
      </trkpt>
      <trkpt lat="45.52779" lon="6.74753">
        <ele>1866.8</ele>
        <time>2021-08-03T07:45:42Z</time>
      </trkpt>
      <trkpt lat="45.52779" lon="6.74754">
        <ele>1866.9</ele>
        <time>2021-08-03T07:45:43Z</time>
      </trkpt>
      <trkpt lat="45.52779" lon="6.74754">
        <ele>1866.9</ele>
        <time>2021-08-03T07:45:44Z</time>
      </trkpt>
      <trkpt lat="45.52779" lon="6.74754">
        <ele>1867</ele>
        <time>2021-08-03T07:45:45Z</time>
      </trkpt>
      <trkpt lat="45.52779" lon="6.74754">
        <ele>1867</ele>
        <time>2021-08-03T07:45:46Z</time>
      </trkpt>
      <trkpt lat="45.52778" lon="6.74755">
        <ele>1867.1</ele>
        <time>2021-08-03T07:45:47Z</time>
      </trkpt>
      <trkpt lat="45.52778" lon="6.74755">
        <ele>1867.1</ele>
        <time>2021-08-03T07:45:48Z</time>
      </trkpt>
      <trkpt lat="45.52778" lon="6.74755">
        <ele>1867.2</ele>
        <time>2021-08-03T07:45:49Z</time>
      </trkpt>
      <trkpt lat="45.52778" lon="6.74755">
        <ele>1867.3</ele>
        <time>2021-08-03T07:45:50Z</time>
      </trkpt>
      <trkpt lat="45.52778" lon="6.74756">
        <ele>1867.3</ele>
        <time>2021-08-03T07:45:51Z</time>
      </trkpt>
      <trkpt lat="45.52777" lon="6.74756">
        <ele>1867.4</ele>
        <time>2021-08-03T07:45:52Z</time>
      </trkpt>
      <trkpt lat="45.52777" lon="6.74756">
        <ele>1867.4</ele>
        <time>2021-08-03T07:45:53Z</time>
      </trkpt>
      <trkpt lat="45.52777" lon="6.74756">
        <ele>1867.5</ele>
        <time>2021-08-03T07:45:54Z</time>
      </trkpt>
      <trkpt lat="45.52777" lon="6.74757">
        <ele>1867.5</ele>
        <time>2021-08-03T07:45:55Z</time>
      </trkpt>
      <trkpt lat="45.52777" lon="6.74757">
        <ele>1867.6</ele>
        <time>2021-08-03T07:45:56Z</time>
      </trkpt>
      <trkpt lat="45.52776" lon="6.74757">
        <ele>1867.6</ele>
        <time>2021-08-03T07:45:57Z</time>
      </trkpt>
      <trkpt lat="45.52776" lon="6.74757">
        <ele>1867.7</ele>
        <time>2021-08-03T07:45:58Z</time>
      </trkpt>
      <trkpt lat="45.52776" lon="6.74758">
        <ele>1867.8</ele>
        <time>2021-08-03T07:45:59Z</time>
      </trkpt>
      <trkpt lat="45.52776" lon="6.74758">
        <ele>1867.8</ele>
        <time>2021-08-03T07:46:00Z</time>
      </trkpt>
      <trkpt lat="45.52776" lon="6.74758">
        <ele>1867.9</ele>
        <time>2021-08-03T07:46:01Z</time>
      </trkpt>
      <trkpt lat="45.52775" lon="6.74758">
        <ele>1867.9</ele>
        <time>2021-08-03T07:46:02Z</time>
      </trkpt>
      <trkpt lat="45.52775" lon="6.74759">
        <ele>1868</ele>
        <time>2021-08-03T07:46:03Z</time>
      </trkpt>
      <trkpt lat="45.52775" lon="6.74759">
        <ele>1868</ele>
        <time>2021-08-03T07:46:04Z</time>
      </trkpt>
      <trkpt lat="45.52775" lon="6.74759">
        <ele>1868.1</ele>
        <time>2021-08-03T07:46:05Z</time>
      </trkpt>
      <trkpt lat="45.52775" lon="6.74759">
        <ele>1868.1</ele>
        <time>2021-08-03T07:46:06Z</time>
      </trkpt>
      <trkpt lat="45.52774" lon="6.7476">
        <ele>1868.1</ele>
        <time>2021-08-03T07:46:07Z</time>
      </trkpt>
      <trkpt lat="45.52774" lon="6.7476">
        <ele>1868.2</ele>
        <time>2021-08-03T07:46:08Z</time>
      </trkpt>
      <trkpt lat="45.52774" lon="6.7476">
        <ele>1868.2</ele>
        <time>2021-08-03T07:46:09Z</time>
      </trkpt>
      <trkpt lat="45.52774" lon="6.7476">
        <ele>1868.3</ele>
        <time>2021-08-03T07:46:10Z</time>
      </trkpt>
      <trkpt lat="45.52774" lon="6.74761">
        <ele>1868.3</ele>
        <time>2021-08-03T07:46:11Z</time>
      </trkpt>
      <trkpt lat="45.52773" lon="6.74761">
        <ele>1868.4</ele>
        <time>2021-08-03T07:46:12Z</time>
      </trkpt>
      <trkpt lat="45.52773" lon="6.74761">
        <ele>1868.4</ele>
        <time>2021-08-03T07:46:13Z</time>
      </trkpt>
      <trkpt lat="45.52773" lon="6.74761">
        <ele>1868.5</ele>
        <time>2021-08-03T07:46:14Z</time>
      </trkpt>
      <trkpt lat="45.52773" lon="6.74762">
        <ele>1868.5</ele>
        <time>2021-08-03T07:46:15Z</time>
      </trkpt>
      <trkpt lat="45.52773" lon="6.74762">
        <ele>1868.6</ele>
        <time>2021-08-03T07:46:16Z</time>
      </trkpt>
      <trkpt lat="45.52772" lon="6.74762">
        <ele>1868.7</ele>
        <time>2021-08-03T07:46:17Z</time>
      </trkpt>
      <trkpt lat="45.52772" lon="6.74763">
        <ele>1868.7</ele>
        <time>2021-08-03T07:46:18Z</time>
      </trkpt>
      <trkpt lat="45.52772" lon="6.74763">
        <ele>1868.8</ele>
        <time>2021-08-03T07:46:19Z</time>
      </trkpt>
      <trkpt lat="45.52772" lon="6.74763">
        <ele>1868.8</ele>
        <time>2021-08-03T07:46:20Z</time>
      </trkpt>
      <trkpt lat="45.52771" lon="6.74763">
        <ele>1868.9</ele>
        <time>2021-08-03T07:46:21Z</time>
      </trkpt>
      <trkpt lat="45.52771" lon="6.74764">
        <ele>1868.9</ele>
        <time>2021-08-03T07:46:22Z</time>
      </trkpt>
      <trkpt lat="45.52771" lon="6.74764">
        <ele>1869</ele>
        <time>2021-08-03T07:46:23Z</time>
      </trkpt>
      <trkpt lat="45.52771" lon="6.74764">
        <ele>1869.1</ele>
        <time>2021-08-03T07:46:24Z</time>
      </trkpt>
      <trkpt lat="45.52771" lon="6.74764">
        <ele>1869.1</ele>
        <time>2021-08-03T07:46:25Z</time>
      </trkpt>
      <trkpt lat="45.5277" lon="6.74765">
        <ele>1869.2</ele>
        <time>2021-08-03T07:46:26Z</time>
      </trkpt>
      <trkpt lat="45.5277" lon="6.74765">
        <ele>1869.2</ele>
        <time>2021-08-03T07:46:27Z</time>
      </trkpt>
      <trkpt lat="45.5277" lon="6.74765">
        <ele>1869.3</ele>
        <time>2021-08-03T07:46:28Z</time>
      </trkpt>
      <trkpt lat="45.5277" lon="6.74765">
        <ele>1869.3</ele>
        <time>2021-08-03T07:46:29Z</time>
      </trkpt>
      <trkpt lat="45.5277" lon="6.74766">
        <ele>1869.4</ele>
        <time>2021-08-03T07:46:30Z</time>
      </trkpt>
      <trkpt lat="45.52769" lon="6.74766">
        <ele>1869.4</ele>
        <time>2021-08-03T07:46:31Z</time>
      </trkpt>
      <trkpt lat="45.52769" lon="6.74766">
        <ele>1869.5</ele>
        <time>2021-08-03T07:46:32Z</time>
      </trkpt>
      <trkpt lat="45.52769" lon="6.74766">
        <ele>1869.6</ele>
        <time>2021-08-03T07:46:33Z</time>
      </trkpt>
      <trkpt lat="45.52769" lon="6.74767">
        <ele>1869.6</ele>
        <time>2021-08-03T07:46:34Z</time>
      </trkpt>
      <trkpt lat="45.52769" lon="6.74767">
        <ele>1869.7</ele>
        <time>2021-08-03T07:46:35Z</time>
      </trkpt>
      <trkpt lat="45.52768" lon="6.74767">
        <ele>1869.7</ele>
        <time>2021-08-03T07:46:36Z</time>
      </trkpt>
      <trkpt lat="45.52769" lon="6.74768">
        <ele>1869.9</ele>
        <time>2021-08-03T07:46:37Z</time>
      </trkpt>
      <trkpt lat="45.52769" lon="6.7477">
        <ele>1870.1</ele>
        <time>2021-08-03T07:46:38Z</time>
      </trkpt>
      <trkpt lat="45.52769" lon="6.74771">
        <ele>1870.3</ele>
        <time>2021-08-03T07:46:39Z</time>
      </trkpt>
      <trkpt lat="45.52769" lon="6.74772">
        <ele>1870.4</ele>
        <time>2021-08-03T07:46:40Z</time>
      </trkpt>
      <trkpt lat="45.52769" lon="6.74773">
        <ele>1870.6</ele>
        <time>2021-08-03T07:46:41Z</time>
      </trkpt>
      <trkpt lat="45.52769" lon="6.74774">
        <ele>1870.7</ele>
        <time>2021-08-03T07:46:42Z</time>
      </trkpt>
      <trkpt lat="45.52769" lon="6.74775">
        <ele>1870.8</ele>
        <time>2021-08-03T07:46:43Z</time>
      </trkpt>
      <trkpt lat="45.52769" lon="6.74776">
        <ele>1871</ele>
        <time>2021-08-03T07:46:44Z</time>
      </trkpt>
      <trkpt lat="45.52769" lon="6.74777">
        <ele>1871.1</ele>
        <time>2021-08-03T07:46:45Z</time>
      </trkpt>
      <trkpt lat="45.52769" lon="6.74778">
        <ele>1871.3</ele>
        <time>2021-08-03T07:46:46Z</time>
      </trkpt>
      <trkpt lat="45.52769" lon="6.74779">
        <ele>1871.4</ele>
        <time>2021-08-03T07:46:47Z</time>
      </trkpt>
      <trkpt lat="45.52769" lon="6.7478">
        <ele>1871.6</ele>
        <time>2021-08-03T07:46:48Z</time>
      </trkpt>
      <trkpt lat="45.52769" lon="6.74781">
        <ele>1871.7</ele>
        <time>2021-08-03T07:46:49Z</time>
      </trkpt>
      <trkpt lat="45.5277" lon="6.74782">
        <ele>1871.8</ele>
        <time>2021-08-03T07:46:50Z</time>
      </trkpt>
      <trkpt lat="45.5277" lon="6.74783">
        <ele>1872</ele>
        <time>2021-08-03T07:46:51Z</time>
      </trkpt>
      <trkpt lat="45.5277" lon="6.74784">
        <ele>1872.1</ele>
        <time>2021-08-03T07:46:52Z</time>
      </trkpt>
      <trkpt lat="45.5277" lon="6.74785">
        <ele>1872.3</ele>
        <time>2021-08-03T07:46:53Z</time>
      </trkpt>
      <trkpt lat="45.5277" lon="6.74786">
        <ele>1872.4</ele>
        <time>2021-08-03T07:46:54Z</time>
      </trkpt>
      <trkpt lat="45.5277" lon="6.74787">
        <ele>1872.6</ele>
        <time>2021-08-03T07:46:55Z</time>
      </trkpt>
      <trkpt lat="45.5277" lon="6.74788">
        <ele>1872.7</ele>
        <time>2021-08-03T07:46:56Z</time>
      </trkpt>
      <trkpt lat="45.5277" lon="6.74789">
        <ele>1872.9</ele>
        <time>2021-08-03T07:46:57Z</time>
      </trkpt>
      <trkpt lat="45.5277" lon="6.7479">
        <ele>1873</ele>
        <time>2021-08-03T07:46:58Z</time>
      </trkpt>
      <trkpt lat="45.5277" lon="6.74791">
        <ele>1873.2</ele>
        <time>2021-08-03T07:46:59Z</time>
      </trkpt>
      <trkpt lat="45.5277" lon="6.74792">
        <ele>1873.3</ele>
        <time>2021-08-03T07:47:00Z</time>
      </trkpt>
      <trkpt lat="45.5277" lon="6.74793">
        <ele>1873.5</ele>
        <time>2021-08-03T07:47:01Z</time>
      </trkpt>
      <trkpt lat="45.5277" lon="6.74794">
        <ele>1873.6</ele>
        <time>2021-08-03T07:47:02Z</time>
      </trkpt>
      <trkpt lat="45.5277" lon="6.74795">
        <ele>1873.8</ele>
        <time>2021-08-03T07:47:03Z</time>
      </trkpt>
      <trkpt lat="45.5277" lon="6.74796">
        <ele>1873.9</ele>
        <time>2021-08-03T07:47:04Z</time>
      </trkpt>
      <trkpt lat="45.5277" lon="6.74797">
        <ele>1874.1</ele>
        <time>2021-08-03T07:47:05Z</time>
      </trkpt>
      <trkpt lat="45.52771" lon="6.74798">
        <ele>1874.2</ele>
        <time>2021-08-03T07:47:06Z</time>
      </trkpt>
      <trkpt lat="45.52771" lon="6.74799">
        <ele>1874.4</ele>
        <time>2021-08-03T07:47:07Z</time>
      </trkpt>
      <trkpt lat="45.52771" lon="6.748">
        <ele>1874.5</ele>
        <time>2021-08-03T07:47:08Z</time>
      </trkpt>
      <trkpt lat="45.52771" lon="6.74801">
        <ele>1874.7</ele>
        <time>2021-08-03T07:47:09Z</time>
      </trkpt>
      <trkpt lat="45.52771" lon="6.74802">
        <ele>1874.9</ele>
        <time>2021-08-03T07:47:10Z</time>
      </trkpt>
      <trkpt lat="45.52771" lon="6.74803">
        <ele>1875</ele>
        <time>2021-08-03T07:47:11Z</time>
      </trkpt>
      <trkpt lat="45.52771" lon="6.74803">
        <ele>1875.2</ele>
        <time>2021-08-03T07:47:12Z</time>
      </trkpt>
      <trkpt lat="45.52771" lon="6.74804">
        <ele>1875.3</ele>
        <time>2021-08-03T07:47:13Z</time>
      </trkpt>
      <trkpt lat="45.52771" lon="6.74805">
        <ele>1875.5</ele>
        <time>2021-08-03T07:47:14Z</time>
      </trkpt>
      <trkpt lat="45.52771" lon="6.74806">
        <ele>1875.6</ele>
        <time>2021-08-03T07:47:15Z</time>
      </trkpt>
      <trkpt lat="45.52771" lon="6.74807">
        <ele>1875.7</ele>
        <time>2021-08-03T07:47:16Z</time>
      </trkpt>
      <trkpt lat="45.52771" lon="6.74807">
        <ele>1875.7</ele>
        <time>2021-08-03T07:47:17Z</time>
      </trkpt>
      <trkpt lat="45.52771" lon="6.74807">
        <ele>1875.7</ele>
        <time>2021-08-03T07:47:18Z</time>
      </trkpt>
      <trkpt lat="45.52771" lon="6.74807">
        <ele>1875.7</ele>
        <time>2021-08-03T07:47:19Z</time>
      </trkpt>
      <trkpt lat="45.52771" lon="6.74807">
        <ele>1875.7</ele>
        <time>2021-08-03T07:47:20Z</time>
      </trkpt>
      <trkpt lat="45.52771" lon="6.74807">
        <ele>1875.7</ele>
        <time>2021-08-03T07:47:21Z</time>
      </trkpt>
      <trkpt lat="45.52771" lon="6.74807">
        <ele>1875.7</ele>
        <time>2021-08-03T07:47:22Z</time>
      </trkpt>
      <trkpt lat="45.52771" lon="6.74807">
        <ele>1875.8</ele>
        <time>2021-08-03T07:47:23Z</time>
      </trkpt>
      <trkpt lat="45.52771" lon="6.74807">
        <ele>1875.8</ele>
        <time>2021-08-03T07:47:24Z</time>
      </trkpt>
      <trkpt lat="45.52771" lon="6.74806">
        <ele>1875.8</ele>
        <time>2021-08-03T07:47:25Z</time>
      </trkpt>
      <trkpt lat="45.52771" lon="6.74806">
        <ele>1875.8</ele>
        <time>2021-08-03T07:47:26Z</time>
      </trkpt>
      <trkpt lat="45.52771" lon="6.74806">
        <ele>1875.8</ele>
        <time>2021-08-03T07:47:27Z</time>
      </trkpt>
      <trkpt lat="45.52771" lon="6.74806">
        <ele>1875.8</ele>
        <time>2021-08-03T07:47:28Z</time>
      </trkpt>
      <trkpt lat="45.52771" lon="6.74806">
        <ele>1875.8</ele>
        <time>2021-08-03T07:47:29Z</time>
      </trkpt>
      <trkpt lat="45.52771" lon="6.74806">
        <ele>1875.8</ele>
        <time>2021-08-03T07:47:30Z</time>
      </trkpt>
      <trkpt lat="45.52771" lon="6.74807">
        <ele>1875.9</ele>
        <time>2021-08-03T07:47:31Z</time>
      </trkpt>
      <trkpt lat="45.52771" lon="6.74807">
        <ele>1875.9</ele>
        <time>2021-08-03T07:47:32Z</time>
      </trkpt>
      <trkpt lat="45.52771" lon="6.74807">
        <ele>1876</ele>
        <time>2021-08-03T07:47:33Z</time>
      </trkpt>
      <trkpt lat="45.52771" lon="6.74808">
        <ele>1876.1</ele>
        <time>2021-08-03T07:47:34Z</time>
      </trkpt>
      <trkpt lat="45.52771" lon="6.74808">
        <ele>1876.2</ele>
        <time>2021-08-03T07:47:35Z</time>
      </trkpt>
      <trkpt lat="45.52771" lon="6.74809">
        <ele>1876.3</ele>
        <time>2021-08-03T07:47:36Z</time>
      </trkpt>
      <trkpt lat="45.5277" lon="6.7481">
        <ele>1876.4</ele>
        <time>2021-08-03T07:47:37Z</time>
      </trkpt>
      <trkpt lat="45.5277" lon="6.74811">
        <ele>1876.5</ele>
        <time>2021-08-03T07:47:38Z</time>
      </trkpt>
      <trkpt lat="45.5277" lon="6.74812">
        <ele>1876.7</ele>
        <time>2021-08-03T07:47:39Z</time>
      </trkpt>
      <trkpt lat="45.5277" lon="6.74813">
        <ele>1876.9</ele>
        <time>2021-08-03T07:47:40Z</time>
      </trkpt>
      <trkpt lat="45.5277" lon="6.74814">
        <ele>1877</ele>
        <time>2021-08-03T07:47:41Z</time>
      </trkpt>
      <trkpt lat="45.5277" lon="6.74815">
        <ele>1877.2</ele>
        <time>2021-08-03T07:47:42Z</time>
      </trkpt>
      <trkpt lat="45.52769" lon="6.74816">
        <ele>1877.4</ele>
        <time>2021-08-03T07:47:43Z</time>
      </trkpt>
      <trkpt lat="45.52769" lon="6.74818">
        <ele>1877.6</ele>
        <time>2021-08-03T07:47:44Z</time>
      </trkpt>
      <trkpt lat="45.52769" lon="6.74819">
        <ele>1877.8</ele>
        <time>2021-08-03T07:47:45Z</time>
      </trkpt>
      <trkpt lat="45.52769" lon="6.7482">
        <ele>1878.1</ele>
        <time>2021-08-03T07:47:46Z</time>
      </trkpt>
      <trkpt lat="45.52769" lon="6.74822">
        <ele>1878.3</ele>
        <time>2021-08-03T07:47:47Z</time>
      </trkpt>
      <trkpt lat="45.52769" lon="6.74823">
        <ele>1878.5</ele>
        <time>2021-08-03T07:47:48Z</time>
      </trkpt>
      <trkpt lat="45.52769" lon="6.74825">
        <ele>1878.7</ele>
        <time>2021-08-03T07:47:49Z</time>
      </trkpt>
      <trkpt lat="45.52769" lon="6.74826">
        <ele>1878.9</ele>
        <time>2021-08-03T07:47:50Z</time>
      </trkpt>
      <trkpt lat="45.52769" lon="6.74827">
        <ele>1879.1</ele>
        <time>2021-08-03T07:47:51Z</time>
      </trkpt>
      <trkpt lat="45.52769" lon="6.74829">
        <ele>1879.3</ele>
        <time>2021-08-03T07:47:52Z</time>
      </trkpt>
      <trkpt lat="45.52769" lon="6.7483">
        <ele>1879.5</ele>
        <time>2021-08-03T07:47:53Z</time>
      </trkpt>
      <trkpt lat="45.52769" lon="6.74831">
        <ele>1879.7</ele>
        <time>2021-08-03T07:47:54Z</time>
      </trkpt>
      <trkpt lat="45.52769" lon="6.74832">
        <ele>1879.9</ele>
        <time>2021-08-03T07:47:55Z</time>
      </trkpt>
      <trkpt lat="45.52769" lon="6.74834">
        <ele>1880.1</ele>
        <time>2021-08-03T07:47:56Z</time>
      </trkpt>
      <trkpt lat="45.52769" lon="6.74835">
        <ele>1880.3</ele>
        <time>2021-08-03T07:47:57Z</time>
      </trkpt>
      <trkpt lat="45.52769" lon="6.74836">
        <ele>1880.5</ele>
        <time>2021-08-03T07:47:58Z</time>
      </trkpt>
      <trkpt lat="45.52769" lon="6.74837">
        <ele>1880.7</ele>
        <time>2021-08-03T07:47:59Z</time>
      </trkpt>
      <trkpt lat="45.5277" lon="6.74838">
        <ele>1880.9</ele>
        <time>2021-08-03T07:48:00Z</time>
      </trkpt>
      <trkpt lat="45.5277" lon="6.7484">
        <ele>1881</ele>
        <time>2021-08-03T07:48:01Z</time>
      </trkpt>
      <trkpt lat="45.5277" lon="6.74841">
        <ele>1881.2</ele>
        <time>2021-08-03T07:48:02Z</time>
      </trkpt>
      <trkpt lat="45.5277" lon="6.74842">
        <ele>1881.4</ele>
        <time>2021-08-03T07:48:03Z</time>
      </trkpt>
      <trkpt lat="45.5277" lon="6.74843">
        <ele>1881.5</ele>
        <time>2021-08-03T07:48:04Z</time>
      </trkpt>
      <trkpt lat="45.52771" lon="6.74844">
        <ele>1881.7</ele>
        <time>2021-08-03T07:48:05Z</time>
      </trkpt>
      <trkpt lat="45.52771" lon="6.74845">
        <ele>1881.9</ele>
        <time>2021-08-03T07:48:06Z</time>
      </trkpt>
      <trkpt lat="45.52771" lon="6.74845">
        <ele>1882</ele>
        <time>2021-08-03T07:48:07Z</time>
      </trkpt>
      <trkpt lat="45.52771" lon="6.74846">
        <ele>1882.1</ele>
        <time>2021-08-03T07:48:08Z</time>
      </trkpt>
      <trkpt lat="45.52772" lon="6.74847">
        <ele>1882.3</ele>
        <time>2021-08-03T07:48:09Z</time>
      </trkpt>
      <trkpt lat="45.52772" lon="6.74848">
        <ele>1882.4</ele>
        <time>2021-08-03T07:48:10Z</time>
      </trkpt>
      <trkpt lat="45.52772" lon="6.74849">
        <ele>1882.5</ele>
        <time>2021-08-03T07:48:11Z</time>
      </trkpt>
      <trkpt lat="45.52772" lon="6.7485">
        <ele>1882.7</ele>
        <time>2021-08-03T07:48:12Z</time>
      </trkpt>
      <trkpt lat="45.52773" lon="6.7485">
        <ele>1882.8</ele>
        <time>2021-08-03T07:48:13Z</time>
      </trkpt>
      <trkpt lat="45.52773" lon="6.74851">
        <ele>1883</ele>
        <time>2021-08-03T07:48:14Z</time>
      </trkpt>
      <trkpt lat="45.52773" lon="6.74852">
        <ele>1883.1</ele>
        <time>2021-08-03T07:48:15Z</time>
      </trkpt>
      <trkpt lat="45.52773" lon="6.74853">
        <ele>1883.2</ele>
        <time>2021-08-03T07:48:16Z</time>
      </trkpt>
      <trkpt lat="45.52774" lon="6.74854">
        <ele>1883.4</ele>
        <time>2021-08-03T07:48:17Z</time>
      </trkpt>
      <trkpt lat="45.52774" lon="6.74855">
        <ele>1883.5</ele>
        <time>2021-08-03T07:48:18Z</time>
      </trkpt>
      <trkpt lat="45.52774" lon="6.74856">
        <ele>1883.7</ele>
        <time>2021-08-03T07:48:19Z</time>
      </trkpt>
      <trkpt lat="45.52774" lon="6.74856">
        <ele>1883.8</ele>
        <time>2021-08-03T07:48:20Z</time>
      </trkpt>
      <trkpt lat="45.52775" lon="6.74857">
        <ele>1884</ele>
        <time>2021-08-03T07:48:21Z</time>
      </trkpt>
      <trkpt lat="45.52775" lon="6.74858">
        <ele>1884.1</ele>
        <time>2021-08-03T07:48:22Z</time>
      </trkpt>
      <trkpt lat="45.52775" lon="6.74859">
        <ele>1884.2</ele>
        <time>2021-08-03T07:48:23Z</time>
      </trkpt>
      <trkpt lat="45.52776" lon="6.74859">
        <ele>1884.3</ele>
        <time>2021-08-03T07:48:24Z</time>
      </trkpt>
      <trkpt lat="45.52776" lon="6.7486">
        <ele>1884.5</ele>
        <time>2021-08-03T07:48:25Z</time>
      </trkpt>
      <trkpt lat="45.52776" lon="6.74861">
        <ele>1884.6</ele>
        <time>2021-08-03T07:48:26Z</time>
      </trkpt>
      <trkpt lat="45.52776" lon="6.74862">
        <ele>1884.8</ele>
        <time>2021-08-03T07:48:27Z</time>
      </trkpt>
      <trkpt lat="45.52776" lon="6.74863">
        <ele>1884.9</ele>
        <time>2021-08-03T07:48:28Z</time>
      </trkpt>
      <trkpt lat="45.52776" lon="6.74864">
        <ele>1885.1</ele>
        <time>2021-08-03T07:48:29Z</time>
      </trkpt>
      <trkpt lat="45.52776" lon="6.74865">
        <ele>1885.2</ele>
        <time>2021-08-03T07:48:30Z</time>
      </trkpt>
      <trkpt lat="45.52776" lon="6.74866">
        <ele>1885.4</ele>
        <time>2021-08-03T07:48:31Z</time>
      </trkpt>
      <trkpt lat="45.52776" lon="6.74867">
        <ele>1885.5</ele>
        <time>2021-08-03T07:48:32Z</time>
      </trkpt>
      <trkpt lat="45.52776" lon="6.74868">
        <ele>1885.7</ele>
        <time>2021-08-03T07:48:33Z</time>
      </trkpt>
      <trkpt lat="45.52776" lon="6.74869">
        <ele>1885.8</ele>
        <time>2021-08-03T07:48:34Z</time>
      </trkpt>
      <trkpt lat="45.52776" lon="6.7487">
        <ele>1886</ele>
        <time>2021-08-03T07:48:35Z</time>
      </trkpt>
      <trkpt lat="45.52776" lon="6.74871">
        <ele>1886.2</ele>
        <time>2021-08-03T07:48:36Z</time>
      </trkpt>
      <trkpt lat="45.52776" lon="6.74872">
        <ele>1886.3</ele>
        <time>2021-08-03T07:48:37Z</time>
      </trkpt>
      <trkpt lat="45.52776" lon="6.74874">
        <ele>1886.6</ele>
        <time>2021-08-03T07:48:38Z</time>
      </trkpt>
      <trkpt lat="45.52776" lon="6.74874">
        <ele>1886.7</ele>
        <time>2021-08-03T07:48:39Z</time>
      </trkpt>
      <trkpt lat="45.52776" lon="6.74874">
        <ele>1886.7</ele>
        <time>2021-08-03T07:48:40Z</time>
      </trkpt>
      <trkpt lat="45.52776" lon="6.74875">
        <ele>1886.8</ele>
        <time>2021-08-03T07:48:41Z</time>
      </trkpt>
      <trkpt lat="45.52776" lon="6.74875">
        <ele>1886.9</ele>
        <time>2021-08-03T07:48:42Z</time>
      </trkpt>
      <trkpt lat="45.52776" lon="6.74876">
        <ele>1886.9</ele>
        <time>2021-08-03T07:48:43Z</time>
      </trkpt>
      <trkpt lat="45.52776" lon="6.74876">
        <ele>1887</ele>
        <time>2021-08-03T07:48:44Z</time>
      </trkpt>
      <trkpt lat="45.52776" lon="6.74877">
        <ele>1887.1</ele>
        <time>2021-08-03T07:48:45Z</time>
      </trkpt>
      <trkpt lat="45.52775" lon="6.74877">
        <ele>1887.1</ele>
        <time>2021-08-03T07:48:46Z</time>
      </trkpt>
      <trkpt lat="45.52775" lon="6.74877">
        <ele>1887.2</ele>
        <time>2021-08-03T07:48:47Z</time>
      </trkpt>
      <trkpt lat="45.52775" lon="6.74878">
        <ele>1887.3</ele>
        <time>2021-08-03T07:48:48Z</time>
      </trkpt>
      <trkpt lat="45.52775" lon="6.74878">
        <ele>1887.4</ele>
        <time>2021-08-03T07:48:49Z</time>
      </trkpt>
      <trkpt lat="45.52775" lon="6.74879">
        <ele>1887.4</ele>
        <time>2021-08-03T07:48:50Z</time>
      </trkpt>
      <trkpt lat="45.52774" lon="6.74879">
        <ele>1887.6</ele>
        <time>2021-08-03T07:48:51Z</time>
      </trkpt>
      <trkpt lat="45.52774" lon="6.74878">
        <ele>1887.7</ele>
        <time>2021-08-03T07:48:52Z</time>
      </trkpt>
      <trkpt lat="45.52773" lon="6.74878">
        <ele>1887.8</ele>
        <time>2021-08-03T07:48:53Z</time>
      </trkpt>
      <trkpt lat="45.52773" lon="6.74879">
        <ele>1887.8</ele>
        <time>2021-08-03T07:48:54Z</time>
      </trkpt>
      <trkpt lat="45.52773" lon="6.74879">
        <ele>1887.9</ele>
        <time>2021-08-03T07:48:55Z</time>
      </trkpt>
      <trkpt lat="45.52773" lon="6.74879">
        <ele>1888</ele>
        <time>2021-08-03T07:48:56Z</time>
      </trkpt>
      <trkpt lat="45.52773" lon="6.7488">
        <ele>1888</ele>
        <time>2021-08-03T07:48:57Z</time>
      </trkpt>
      <trkpt lat="45.52773" lon="6.7488">
        <ele>1888.1</ele>
        <time>2021-08-03T07:48:58Z</time>
      </trkpt>
      <trkpt lat="45.52773" lon="6.74881">
        <ele>1888.2</ele>
        <time>2021-08-03T07:48:59Z</time>
      </trkpt>
      <trkpt lat="45.52773" lon="6.74881">
        <ele>1888.3</ele>
        <time>2021-08-03T07:49:00Z</time>
      </trkpt>
      <trkpt lat="45.52773" lon="6.74881">
        <ele>1888.3</ele>
        <time>2021-08-03T07:49:01Z</time>
      </trkpt>
      <trkpt lat="45.52773" lon="6.74882">
        <ele>1888.4</ele>
        <time>2021-08-03T07:49:02Z</time>
      </trkpt>
      <trkpt lat="45.52773" lon="6.74882">
        <ele>1888.4</ele>
        <time>2021-08-03T07:49:03Z</time>
      </trkpt>
      <trkpt lat="45.52773" lon="6.74882">
        <ele>1888.4</ele>
        <time>2021-08-03T07:49:04Z</time>
      </trkpt>
      <trkpt lat="45.52774" lon="6.74883">
        <ele>1888.5</ele>
        <time>2021-08-03T07:49:05Z</time>
      </trkpt>
      <trkpt lat="45.52774" lon="6.74883">
        <ele>1888.6</ele>
        <time>2021-08-03T07:49:06Z</time>
      </trkpt>
      <trkpt lat="45.52774" lon="6.74884">
        <ele>1888.7</ele>
        <time>2021-08-03T07:49:07Z</time>
      </trkpt>
      <trkpt lat="45.52774" lon="6.74885">
        <ele>1888.9</ele>
        <time>2021-08-03T07:49:08Z</time>
      </trkpt>
      <trkpt lat="45.52775" lon="6.74885">
        <ele>1889</ele>
        <time>2021-08-03T07:49:09Z</time>
      </trkpt>
      <trkpt lat="45.52775" lon="6.74886">
        <ele>1889.2</ele>
        <time>2021-08-03T07:49:10Z</time>
      </trkpt>
      <trkpt lat="45.52776" lon="6.74887">
        <ele>1889.3</ele>
        <time>2021-08-03T07:49:11Z</time>
      </trkpt>
      <trkpt lat="45.52776" lon="6.74888">
        <ele>1889.5</ele>
        <time>2021-08-03T07:49:12Z</time>
      </trkpt>
      <trkpt lat="45.52776" lon="6.74889">
        <ele>1889.6</ele>
        <time>2021-08-03T07:49:13Z</time>
      </trkpt>
      <trkpt lat="45.52776" lon="6.74889">
        <ele>1889.7</ele>
        <time>2021-08-03T07:49:14Z</time>
      </trkpt>
      <trkpt lat="45.52777" lon="6.7489">
        <ele>1889.8</ele>
        <time>2021-08-03T07:49:15Z</time>
      </trkpt>
      <trkpt lat="45.52777" lon="6.74891">
        <ele>1890</ele>
        <time>2021-08-03T07:49:16Z</time>
      </trkpt>
      <trkpt lat="45.52777" lon="6.74891">
        <ele>1890</ele>
        <time>2021-08-03T07:49:17Z</time>
      </trkpt>
      <trkpt lat="45.52777" lon="6.74892">
        <ele>1890.1</ele>
        <time>2021-08-03T07:49:18Z</time>
      </trkpt>
      <trkpt lat="45.52777" lon="6.74892">
        <ele>1890.2</ele>
        <time>2021-08-03T07:49:19Z</time>
      </trkpt>
      <trkpt lat="45.52777" lon="6.74893">
        <ele>1890.3</ele>
        <time>2021-08-03T07:49:20Z</time>
      </trkpt>
      <trkpt lat="45.52778" lon="6.74893">
        <ele>1890.3</ele>
        <time>2021-08-03T07:49:21Z</time>
      </trkpt>
      <trkpt lat="45.52778" lon="6.74893">
        <ele>1890.4</ele>
        <time>2021-08-03T07:49:22Z</time>
      </trkpt>
      <trkpt lat="45.52778" lon="6.74893">
        <ele>1890.4</ele>
        <time>2021-08-03T07:49:23Z</time>
      </trkpt>
      <trkpt lat="45.52778" lon="6.74894">
        <ele>1890.4</ele>
        <time>2021-08-03T07:49:24Z</time>
      </trkpt>
      <trkpt lat="45.52778" lon="6.74894">
        <ele>1890.4</ele>
        <time>2021-08-03T07:49:25Z</time>
      </trkpt>
      <trkpt lat="45.52778" lon="6.74894">
        <ele>1890.5</ele>
        <time>2021-08-03T07:49:26Z</time>
      </trkpt>
      <trkpt lat="45.52778" lon="6.74894">
        <ele>1890.5</ele>
        <time>2021-08-03T07:49:27Z</time>
      </trkpt>
      <trkpt lat="45.52778" lon="6.74894">
        <ele>1890.5</ele>
        <time>2021-08-03T07:49:28Z</time>
      </trkpt>
      <trkpt lat="45.52778" lon="6.74894">
        <ele>1890.5</ele>
        <time>2021-08-03T07:49:29Z</time>
      </trkpt>
      <trkpt lat="45.52778" lon="6.74894">
        <ele>1890.5</ele>
        <time>2021-08-03T07:49:30Z</time>
      </trkpt>
      <trkpt lat="45.52778" lon="6.74894">
        <ele>1890.5</ele>
        <time>2021-08-03T07:49:31Z</time>
      </trkpt>
      <trkpt lat="45.52778" lon="6.74894">
        <ele>1890.5</ele>
        <time>2021-08-03T07:49:32Z</time>
      </trkpt>
      <trkpt lat="45.52778" lon="6.74894">
        <ele>1890.6</ele>
        <time>2021-08-03T07:49:33Z</time>
      </trkpt>
      <trkpt lat="45.52778" lon="6.74894">
        <ele>1890.6</ele>
        <time>2021-08-03T07:49:34Z</time>
      </trkpt>
      <trkpt lat="45.52778" lon="6.74894">
        <ele>1890.6</ele>
        <time>2021-08-03T07:49:35Z</time>
      </trkpt>
      <trkpt lat="45.52778" lon="6.74894">
        <ele>1890.6</ele>
        <time>2021-08-03T07:49:36Z</time>
      </trkpt>
      <trkpt lat="45.52778" lon="6.74894">
        <ele>1890.6</ele>
        <time>2021-08-03T07:49:37Z</time>
      </trkpt>
      <trkpt lat="45.52778" lon="6.74894">
        <ele>1890.6</ele>
        <time>2021-08-03T07:49:38Z</time>
      </trkpt>
      <trkpt lat="45.52778" lon="6.74894">
        <ele>1890.6</ele>
        <time>2021-08-03T07:49:39Z</time>
      </trkpt>
      <trkpt lat="45.52778" lon="6.74894">
        <ele>1890.6</ele>
        <time>2021-08-03T07:49:40Z</time>
      </trkpt>
      <trkpt lat="45.52778" lon="6.74894">
        <ele>1890.6</ele>
        <time>2021-08-03T07:49:41Z</time>
      </trkpt>
      <trkpt lat="45.52778" lon="6.74894">
        <ele>1890.6</ele>
        <time>2021-08-03T07:49:42Z</time>
      </trkpt>
      <trkpt lat="45.52778" lon="6.74894">
        <ele>1890.6</ele>
        <time>2021-08-03T07:49:43Z</time>
      </trkpt>
      <trkpt lat="45.52778" lon="6.74894">
        <ele>1890.6</ele>
        <time>2021-08-03T07:49:44Z</time>
      </trkpt>
      <trkpt lat="45.52778" lon="6.74894">
        <ele>1890.7</ele>
        <time>2021-08-03T07:49:45Z</time>
      </trkpt>
      <trkpt lat="45.52778" lon="6.74895">
        <ele>1890.7</ele>
        <time>2021-08-03T07:49:46Z</time>
      </trkpt>
      <trkpt lat="45.52778" lon="6.74895">
        <ele>1890.8</ele>
        <time>2021-08-03T07:49:47Z</time>
      </trkpt>
      <trkpt lat="45.52778" lon="6.74896">
        <ele>1890.9</ele>
        <time>2021-08-03T07:49:48Z</time>
      </trkpt>
      <trkpt lat="45.52778" lon="6.74896">
        <ele>1891</ele>
        <time>2021-08-03T07:49:49Z</time>
      </trkpt>
      <trkpt lat="45.52779" lon="6.74897">
        <ele>1891.1</ele>
        <time>2021-08-03T07:49:50Z</time>
      </trkpt>
      <trkpt lat="45.52779" lon="6.74898">
        <ele>1891.2</ele>
        <time>2021-08-03T07:49:51Z</time>
      </trkpt>
      <trkpt lat="45.52779" lon="6.74899">
        <ele>1891.4</ele>
        <time>2021-08-03T07:49:52Z</time>
      </trkpt>
      <trkpt lat="45.52779" lon="6.749">
        <ele>1891.6</ele>
        <time>2021-08-03T07:49:53Z</time>
      </trkpt>
      <trkpt lat="45.5278" lon="6.74901">
        <ele>1891.7</ele>
        <time>2021-08-03T07:49:54Z</time>
      </trkpt>
      <trkpt lat="45.5278" lon="6.74902">
        <ele>1891.9</ele>
        <time>2021-08-03T07:49:55Z</time>
      </trkpt>
      <trkpt lat="45.5278" lon="6.74902">
        <ele>1892</ele>
        <time>2021-08-03T07:49:56Z</time>
      </trkpt>
      <trkpt lat="45.5278" lon="6.74903">
        <ele>1892.1</ele>
        <time>2021-08-03T07:49:57Z</time>
      </trkpt>
      <trkpt lat="45.52781" lon="6.74904">
        <ele>1892.2</ele>
        <time>2021-08-03T07:49:58Z</time>
      </trkpt>
      <trkpt lat="45.52781" lon="6.74904">
        <ele>1892.3</ele>
        <time>2021-08-03T07:49:59Z</time>
      </trkpt>
      <trkpt lat="45.52781" lon="6.74905">
        <ele>1892.4</ele>
        <time>2021-08-03T07:50:00Z</time>
      </trkpt>
      <trkpt lat="45.52781" lon="6.74905">
        <ele>1892.4</ele>
        <time>2021-08-03T07:50:01Z</time>
      </trkpt>
      <trkpt lat="45.52781" lon="6.74905">
        <ele>1892.5</ele>
        <time>2021-08-03T07:50:02Z</time>
      </trkpt>
      <trkpt lat="45.52781" lon="6.74906">
        <ele>1892.5</ele>
        <time>2021-08-03T07:50:03Z</time>
      </trkpt>
      <trkpt lat="45.52781" lon="6.74906">
        <ele>1892.5</ele>
        <time>2021-08-03T07:50:04Z</time>
      </trkpt>
      <trkpt lat="45.52781" lon="6.74906">
        <ele>1892.5</ele>
        <time>2021-08-03T07:50:05Z</time>
      </trkpt>
      <trkpt lat="45.52781" lon="6.74906">
        <ele>1892.6</ele>
        <time>2021-08-03T07:50:06Z</time>
      </trkpt>
      <trkpt lat="45.52781" lon="6.74906">
        <ele>1892.6</ele>
        <time>2021-08-03T07:50:07Z</time>
      </trkpt>
      <trkpt lat="45.52781" lon="6.74906">
        <ele>1892.6</ele>
        <time>2021-08-03T07:50:08Z</time>
      </trkpt>
      <trkpt lat="45.52781" lon="6.74906">
        <ele>1892.6</ele>
        <time>2021-08-03T07:50:09Z</time>
      </trkpt>
      <trkpt lat="45.52781" lon="6.74906">
        <ele>1892.6</ele>
        <time>2021-08-03T07:50:10Z</time>
      </trkpt>
      <trkpt lat="45.52781" lon="6.74906">
        <ele>1892.6</ele>
        <time>2021-08-03T07:50:11Z</time>
      </trkpt>
      <trkpt lat="45.52781" lon="6.74906">
        <ele>1892.6</ele>
        <time>2021-08-03T07:50:12Z</time>
      </trkpt>
      <trkpt lat="45.52781" lon="6.74906">
        <ele>1892.6</ele>
        <time>2021-08-03T07:50:13Z</time>
      </trkpt>
      <trkpt lat="45.52781" lon="6.74906">
        <ele>1892.6</ele>
        <time>2021-08-03T07:50:14Z</time>
      </trkpt>
      <trkpt lat="45.52781" lon="6.74906">
        <ele>1892.6</ele>
        <time>2021-08-03T07:50:15Z</time>
      </trkpt>
      <trkpt lat="45.52781" lon="6.74906">
        <ele>1892.6</ele>
        <time>2021-08-03T07:50:16Z</time>
      </trkpt>
      <trkpt lat="45.52781" lon="6.74906">
        <ele>1892.6</ele>
        <time>2021-08-03T07:50:17Z</time>
      </trkpt>
      <trkpt lat="45.52781" lon="6.74906">
        <ele>1892.6</ele>
        <time>2021-08-03T07:50:18Z</time>
      </trkpt>
      <trkpt lat="45.52781" lon="6.74906">
        <ele>1892.6</ele>
        <time>2021-08-03T07:50:19Z</time>
      </trkpt>
      <trkpt lat="45.52781" lon="6.74906">
        <ele>1892.6</ele>
        <time>2021-08-03T07:50:20Z</time>
      </trkpt>
      <trkpt lat="45.52781" lon="6.74906">
        <ele>1892.6</ele>
        <time>2021-08-03T07:50:21Z</time>
      </trkpt>
      <trkpt lat="45.52781" lon="6.74906">
        <ele>1892.6</ele>
        <time>2021-08-03T07:50:22Z</time>
      </trkpt>
      <trkpt lat="45.52781" lon="6.74906">
        <ele>1892.6</ele>
        <time>2021-08-03T07:50:23Z</time>
      </trkpt>
      <trkpt lat="45.52781" lon="6.74906">
        <ele>1892.6</ele>
        <time>2021-08-03T07:50:24Z</time>
      </trkpt>
      <trkpt lat="45.52781" lon="6.74906">
        <ele>1892.6</ele>
        <time>2021-08-03T07:50:25Z</time>
      </trkpt>
      <trkpt lat="45.52781" lon="6.74906">
        <ele>1892.6</ele>
        <time>2021-08-03T07:50:26Z</time>
      </trkpt>
      <trkpt lat="45.52781" lon="6.74906">
        <ele>1892.6</ele>
        <time>2021-08-03T07:50:27Z</time>
      </trkpt>
      <trkpt lat="45.52781" lon="6.74906">
        <ele>1892.6</ele>
        <time>2021-08-03T07:50:28Z</time>
      </trkpt>
      <trkpt lat="45.52781" lon="6.74906">
        <ele>1892.6</ele>
        <time>2021-08-03T07:50:29Z</time>
      </trkpt>
      <trkpt lat="45.52781" lon="6.74906">
        <ele>1892.6</ele>
        <time>2021-08-03T07:50:30Z</time>
      </trkpt>
      <trkpt lat="45.52781" lon="6.74906">
        <ele>1892.6</ele>
        <time>2021-08-03T07:50:31Z</time>
      </trkpt>
      <trkpt lat="45.52781" lon="6.74906">
        <ele>1892.6</ele>
        <time>2021-08-03T07:50:32Z</time>
      </trkpt>
      <trkpt lat="45.52781" lon="6.74906">
        <ele>1892.7</ele>
        <time>2021-08-03T07:50:33Z</time>
      </trkpt>
      <trkpt lat="45.52781" lon="6.74906">
        <ele>1892.7</ele>
        <time>2021-08-03T07:50:34Z</time>
      </trkpt>
      <trkpt lat="45.52781" lon="6.74906">
        <ele>1892.7</ele>
        <time>2021-08-03T07:50:35Z</time>
      </trkpt>
      <trkpt lat="45.52782" lon="6.74906">
        <ele>1892.8</ele>
        <time>2021-08-03T07:50:36Z</time>
      </trkpt>
      <trkpt lat="45.52782" lon="6.74906">
        <ele>1892.8</ele>
        <time>2021-08-03T07:50:37Z</time>
      </trkpt>
      <trkpt lat="45.52782" lon="6.74906">
        <ele>1892.9</ele>
        <time>2021-08-03T07:50:38Z</time>
      </trkpt>
      <trkpt lat="45.52783" lon="6.74907">
        <ele>1893</ele>
        <time>2021-08-03T07:50:39Z</time>
      </trkpt>
      <trkpt lat="45.52783" lon="6.74907">
        <ele>1893.1</ele>
        <time>2021-08-03T07:50:40Z</time>
      </trkpt>
      <trkpt lat="45.52783" lon="6.74908">
        <ele>1893.3</ele>
        <time>2021-08-03T07:50:41Z</time>
      </trkpt>
      <trkpt lat="45.52784" lon="6.74909">
        <ele>1893.4</ele>
        <time>2021-08-03T07:50:42Z</time>
      </trkpt>
      <trkpt lat="45.52785" lon="6.7491">
        <ele>1893.6</ele>
        <time>2021-08-03T07:50:43Z</time>
      </trkpt>
      <trkpt lat="45.52785" lon="6.74911">
        <ele>1893.8</ele>
        <time>2021-08-03T07:50:44Z</time>
      </trkpt>
      <trkpt lat="45.52786" lon="6.74912">
        <ele>1894.1</ele>
        <time>2021-08-03T07:50:45Z</time>
      </trkpt>
      <trkpt lat="45.52787" lon="6.74913">
        <ele>1894.4</ele>
        <time>2021-08-03T07:50:46Z</time>
      </trkpt>
      <trkpt lat="45.52788" lon="6.74915">
        <ele>1894.6</ele>
        <time>2021-08-03T07:50:47Z</time>
      </trkpt>
      <trkpt lat="45.52788" lon="6.74916">
        <ele>1894.9</ele>
        <time>2021-08-03T07:50:48Z</time>
      </trkpt>
      <trkpt lat="45.52789" lon="6.74917">
        <ele>1895.2</ele>
        <time>2021-08-03T07:50:49Z</time>
      </trkpt>
      <trkpt lat="45.5279" lon="6.74919">
        <ele>1895.5</ele>
        <time>2021-08-03T07:50:50Z</time>
      </trkpt>
      <trkpt lat="45.52791" lon="6.74921">
        <ele>1895.8</ele>
        <time>2021-08-03T07:50:51Z</time>
      </trkpt>
      <trkpt lat="45.52791" lon="6.74922">
        <ele>1896</ele>
        <time>2021-08-03T07:50:52Z</time>
      </trkpt>
      <trkpt lat="45.52792" lon="6.74923">
        <ele>1896.2</ele>
        <time>2021-08-03T07:50:53Z</time>
      </trkpt>
      <trkpt lat="45.52792" lon="6.74926">
        <ele>1896.6</ele>
        <time>2021-08-03T07:50:54Z</time>
      </trkpt>
      <trkpt lat="45.52792" lon="6.74927">
        <ele>1896.8</ele>
        <time>2021-08-03T07:50:55Z</time>
      </trkpt>
      <trkpt lat="45.52793" lon="6.74928">
        <ele>1897</ele>
        <time>2021-08-03T07:50:56Z</time>
      </trkpt>
      <trkpt lat="45.52793" lon="6.74929">
        <ele>1897.2</ele>
        <time>2021-08-03T07:50:57Z</time>
      </trkpt>
      <trkpt lat="45.52793" lon="6.7493">
        <ele>1897.4</ele>
        <time>2021-08-03T07:50:58Z</time>
      </trkpt>
      <trkpt lat="45.52794" lon="6.74933">
        <ele>1897.8</ele>
        <time>2021-08-03T07:50:59Z</time>
      </trkpt>
      <trkpt lat="45.52794" lon="6.74934">
        <ele>1898</ele>
        <time>2021-08-03T07:51:00Z</time>
      </trkpt>
      <trkpt lat="45.52794" lon="6.74935">
        <ele>1898.1</ele>
        <time>2021-08-03T07:51:01Z</time>
      </trkpt>
      <trkpt lat="45.52794" lon="6.74936">
        <ele>1898.3</ele>
        <time>2021-08-03T07:51:02Z</time>
      </trkpt>
      <trkpt lat="45.52794" lon="6.74937">
        <ele>1898.5</ele>
        <time>2021-08-03T07:51:03Z</time>
      </trkpt>
      <trkpt lat="45.52795" lon="6.74939">
        <ele>1898.7</ele>
        <time>2021-08-03T07:51:04Z</time>
      </trkpt>
      <trkpt lat="45.52795" lon="6.7494">
        <ele>1898.9</ele>
        <time>2021-08-03T07:51:05Z</time>
      </trkpt>
      <trkpt lat="45.52795" lon="6.74941">
        <ele>1899</ele>
        <time>2021-08-03T07:51:06Z</time>
      </trkpt>
      <trkpt lat="45.52795" lon="6.74941">
        <ele>1899.1</ele>
        <time>2021-08-03T07:51:07Z</time>
      </trkpt>
      <trkpt lat="45.52795" lon="6.74942">
        <ele>1899.2</ele>
        <time>2021-08-03T07:51:08Z</time>
      </trkpt>
      <trkpt lat="45.52795" lon="6.74942">
        <ele>1899.2</ele>
        <time>2021-08-03T07:51:09Z</time>
      </trkpt>
      <trkpt lat="45.52796" lon="6.74943">
        <ele>1899.4</ele>
        <time>2021-08-03T07:51:10Z</time>
      </trkpt>
      <trkpt lat="45.52796" lon="6.74944">
        <ele>1899.6</ele>
        <time>2021-08-03T07:51:11Z</time>
      </trkpt>
      <trkpt lat="45.52796" lon="6.74945">
        <ele>1899.7</ele>
        <time>2021-08-03T07:51:12Z</time>
      </trkpt>
      <trkpt lat="45.52797" lon="6.74946">
        <ele>1899.9</ele>
        <time>2021-08-03T07:51:13Z</time>
      </trkpt>
      <trkpt lat="45.52797" lon="6.74946">
        <ele>1900</ele>
        <time>2021-08-03T07:51:14Z</time>
      </trkpt>
      <trkpt lat="45.52797" lon="6.74947">
        <ele>1900.2</ele>
        <time>2021-08-03T07:51:15Z</time>
      </trkpt>
      <trkpt lat="45.52798" lon="6.74948">
        <ele>1900.3</ele>
        <time>2021-08-03T07:51:16Z</time>
      </trkpt>
      <trkpt lat="45.52798" lon="6.74949">
        <ele>1900.5</ele>
        <time>2021-08-03T07:51:17Z</time>
      </trkpt>
      <trkpt lat="45.52798" lon="6.7495">
        <ele>1900.6</ele>
        <time>2021-08-03T07:51:18Z</time>
      </trkpt>
      <trkpt lat="45.52799" lon="6.74951">
        <ele>1900.8</ele>
        <time>2021-08-03T07:51:19Z</time>
      </trkpt>
      <trkpt lat="45.52799" lon="6.74951">
        <ele>1900.9</ele>
        <time>2021-08-03T07:51:20Z</time>
      </trkpt>
      <trkpt lat="45.52799" lon="6.74952">
        <ele>1901.1</ele>
        <time>2021-08-03T07:51:21Z</time>
      </trkpt>
      <trkpt lat="45.528" lon="6.74953">
        <ele>1901.2</ele>
        <time>2021-08-03T07:51:22Z</time>
      </trkpt>
      <trkpt lat="45.528" lon="6.74954">
        <ele>1901.4</ele>
        <time>2021-08-03T07:51:23Z</time>
      </trkpt>
      <trkpt lat="45.528" lon="6.74955">
        <ele>1901.5</ele>
        <time>2021-08-03T07:51:24Z</time>
      </trkpt>
      <trkpt lat="45.52801" lon="6.74956">
        <ele>1901.7</ele>
        <time>2021-08-03T07:51:25Z</time>
      </trkpt>
      <trkpt lat="45.52801" lon="6.74957">
        <ele>1901.8</ele>
        <time>2021-08-03T07:51:26Z</time>
      </trkpt>
      <trkpt lat="45.52802" lon="6.74957">
        <ele>1902</ele>
        <time>2021-08-03T07:51:27Z</time>
      </trkpt>
      <trkpt lat="45.52802" lon="6.74958">
        <ele>1902.1</ele>
        <time>2021-08-03T07:51:28Z</time>
      </trkpt>
      <trkpt lat="45.52802" lon="6.74959">
        <ele>1902.3</ele>
        <time>2021-08-03T07:51:29Z</time>
      </trkpt>
      <trkpt lat="45.52803" lon="6.7496">
        <ele>1902.4</ele>
        <time>2021-08-03T07:51:30Z</time>
      </trkpt>
      <trkpt lat="45.52803" lon="6.74961">
        <ele>1902.6</ele>
        <time>2021-08-03T07:51:31Z</time>
      </trkpt>
      <trkpt lat="45.52803" lon="6.74962">
        <ele>1902.7</ele>
        <time>2021-08-03T07:51:32Z</time>
      </trkpt>
      <trkpt lat="45.52803" lon="6.74962">
        <ele>1902.8</ele>
        <time>2021-08-03T07:51:33Z</time>
      </trkpt>
      <trkpt lat="45.52803" lon="6.74963">
        <ele>1902.9</ele>
        <time>2021-08-03T07:51:34Z</time>
      </trkpt>
      <trkpt lat="45.52803" lon="6.74963">
        <ele>1903</ele>
        <time>2021-08-03T07:51:35Z</time>
      </trkpt>
      <trkpt lat="45.52803" lon="6.74964">
        <ele>1903.1</ele>
        <time>2021-08-03T07:51:36Z</time>
      </trkpt>
      <trkpt lat="45.52803" lon="6.74965">
        <ele>1903.2</ele>
        <time>2021-08-03T07:51:37Z</time>
      </trkpt>
      <trkpt lat="45.52803" lon="6.74966">
        <ele>1903.4</ele>
        <time>2021-08-03T07:51:38Z</time>
      </trkpt>
      <trkpt lat="45.52803" lon="6.74966">
        <ele>1903.4</ele>
        <time>2021-08-03T07:51:39Z</time>
      </trkpt>
      <trkpt lat="45.52803" lon="6.74967">
        <ele>1903.5</ele>
        <time>2021-08-03T07:51:40Z</time>
      </trkpt>
      <trkpt lat="45.52803" lon="6.74967">
        <ele>1903.6</ele>
        <time>2021-08-03T07:51:41Z</time>
      </trkpt>
      <trkpt lat="45.52803" lon="6.74968">
        <ele>1903.7</ele>
        <time>2021-08-03T07:51:42Z</time>
      </trkpt>
      <trkpt lat="45.52803" lon="6.74968">
        <ele>1903.7</ele>
        <time>2021-08-03T07:51:43Z</time>
      </trkpt>
      <trkpt lat="45.52803" lon="6.74968">
        <ele>1903.8</ele>
        <time>2021-08-03T07:51:44Z</time>
      </trkpt>
      <trkpt lat="45.52803" lon="6.74969">
        <ele>1903.9</ele>
        <time>2021-08-03T07:51:45Z</time>
      </trkpt>
      <trkpt lat="45.52803" lon="6.74969">
        <ele>1903.9</ele>
        <time>2021-08-03T07:51:46Z</time>
      </trkpt>
      <trkpt lat="45.52803" lon="6.7497">
        <ele>1904</ele>
        <time>2021-08-03T07:51:47Z</time>
      </trkpt>
      <trkpt lat="45.52803" lon="6.7497">
        <ele>1904.1</ele>
        <time>2021-08-03T07:51:48Z</time>
      </trkpt>
      <trkpt lat="45.52803" lon="6.74971">
        <ele>1904.2</ele>
        <time>2021-08-03T07:51:49Z</time>
      </trkpt>
      <trkpt lat="45.52803" lon="6.74971">
        <ele>1904.2</ele>
        <time>2021-08-03T07:51:50Z</time>
      </trkpt>
      <trkpt lat="45.52803" lon="6.74972">
        <ele>1904.3</ele>
        <time>2021-08-03T07:51:51Z</time>
      </trkpt>
      <trkpt lat="45.52803" lon="6.74972">
        <ele>1904.4</ele>
        <time>2021-08-03T07:51:52Z</time>
      </trkpt>
      <trkpt lat="45.52803" lon="6.74973">
        <ele>1904.5</ele>
        <time>2021-08-03T07:51:53Z</time>
      </trkpt>
      <trkpt lat="45.52803" lon="6.74973">
        <ele>1904.5</ele>
        <time>2021-08-03T07:51:54Z</time>
      </trkpt>
      <trkpt lat="45.52803" lon="6.74974">
        <ele>1904.6</ele>
        <time>2021-08-03T07:51:55Z</time>
      </trkpt>
      <trkpt lat="45.52803" lon="6.74974">
        <ele>1904.7</ele>
        <time>2021-08-03T07:51:56Z</time>
      </trkpt>
      <trkpt lat="45.52803" lon="6.74975">
        <ele>1904.7</ele>
        <time>2021-08-03T07:51:57Z</time>
      </trkpt>
      <trkpt lat="45.52803" lon="6.74975">
        <ele>1904.8</ele>
        <time>2021-08-03T07:51:58Z</time>
      </trkpt>
      <trkpt lat="45.52803" lon="6.74976">
        <ele>1904.9</ele>
        <time>2021-08-03T07:51:59Z</time>
      </trkpt>
      <trkpt lat="45.52803" lon="6.74976">
        <ele>1905</ele>
        <time>2021-08-03T07:52:00Z</time>
      </trkpt>
      <trkpt lat="45.52803" lon="6.74977">
        <ele>1905</ele>
        <time>2021-08-03T07:52:01Z</time>
      </trkpt>
      <trkpt lat="45.52803" lon="6.74977">
        <ele>1905.1</ele>
        <time>2021-08-03T07:52:02Z</time>
      </trkpt>
      <trkpt lat="45.52803" lon="6.74978">
        <ele>1905.2</ele>
        <time>2021-08-03T07:52:03Z</time>
      </trkpt>
      <trkpt lat="45.52803" lon="6.74978">
        <ele>1905.3</ele>
        <time>2021-08-03T07:52:04Z</time>
      </trkpt>
      <trkpt lat="45.52803" lon="6.74978">
        <ele>1905.3</ele>
        <time>2021-08-03T07:52:05Z</time>
      </trkpt>
      <trkpt lat="45.52803" lon="6.74979">
        <ele>1905.4</ele>
        <time>2021-08-03T07:52:06Z</time>
      </trkpt>
      <trkpt lat="45.52803" lon="6.74979">
        <ele>1905.5</ele>
        <time>2021-08-03T07:52:07Z</time>
      </trkpt>
      <trkpt lat="45.52803" lon="6.7498">
        <ele>1905.6</ele>
        <time>2021-08-03T07:52:08Z</time>
      </trkpt>
      <trkpt lat="45.52803" lon="6.7498">
        <ele>1905.6</ele>
        <time>2021-08-03T07:52:09Z</time>
      </trkpt>
      <trkpt lat="45.52803" lon="6.74981">
        <ele>1905.7</ele>
        <time>2021-08-03T07:52:10Z</time>
      </trkpt>
      <trkpt lat="45.52803" lon="6.74981">
        <ele>1905.8</ele>
        <time>2021-08-03T07:52:11Z</time>
      </trkpt>
      <trkpt lat="45.52803" lon="6.74982">
        <ele>1905.8</ele>
        <time>2021-08-03T07:52:12Z</time>
      </trkpt>
      <trkpt lat="45.52803" lon="6.74982">
        <ele>1905.9</ele>
        <time>2021-08-03T07:52:13Z</time>
      </trkpt>
      <trkpt lat="45.52803" lon="6.74983">
        <ele>1906</ele>
        <time>2021-08-03T07:52:14Z</time>
      </trkpt>
      <trkpt lat="45.52804" lon="6.74984">
        <ele>1906.2</ele>
        <time>2021-08-03T07:52:15Z</time>
      </trkpt>
      <trkpt lat="45.52804" lon="6.74984">
        <ele>1906.4</ele>
        <time>2021-08-03T07:52:16Z</time>
      </trkpt>
      <trkpt lat="45.52805" lon="6.74985">
        <ele>1906.6</ele>
        <time>2021-08-03T07:52:17Z</time>
      </trkpt>
      <trkpt lat="45.52806" lon="6.74986">
        <ele>1906.8</ele>
        <time>2021-08-03T07:52:18Z</time>
      </trkpt>
      <trkpt lat="45.52807" lon="6.74987">
        <ele>1907</ele>
        <time>2021-08-03T07:52:19Z</time>
      </trkpt>
      <trkpt lat="45.52807" lon="6.74988">
        <ele>1907.2</ele>
        <time>2021-08-03T07:52:20Z</time>
      </trkpt>
      <trkpt lat="45.52808" lon="6.74988">
        <ele>1907.3</ele>
        <time>2021-08-03T07:52:21Z</time>
      </trkpt>
      <trkpt lat="45.52808" lon="6.74988">
        <ele>1907.5</ele>
        <time>2021-08-03T07:52:22Z</time>
      </trkpt>
      <trkpt lat="45.52809" lon="6.74989">
        <ele>1907.6</ele>
        <time>2021-08-03T07:52:23Z</time>
      </trkpt>
      <trkpt lat="45.52809" lon="6.74989">
        <ele>1907.7</ele>
        <time>2021-08-03T07:52:24Z</time>
      </trkpt>
      <trkpt lat="45.52809" lon="6.74989">
        <ele>1907.7</ele>
        <time>2021-08-03T07:52:25Z</time>
      </trkpt>
      <trkpt lat="45.5281" lon="6.74989">
        <ele>1907.8</ele>
        <time>2021-08-03T07:52:26Z</time>
      </trkpt>
      <trkpt lat="45.5281" lon="6.7499">
        <ele>1907.9</ele>
        <time>2021-08-03T07:52:27Z</time>
      </trkpt>
      <trkpt lat="45.5281" lon="6.7499">
        <ele>1907.9</ele>
        <time>2021-08-03T07:52:28Z</time>
      </trkpt>
      <trkpt lat="45.5281" lon="6.7499">
        <ele>1907.9</ele>
        <time>2021-08-03T07:52:29Z</time>
      </trkpt>
      <trkpt lat="45.5281" lon="6.7499">
        <ele>1907.9</ele>
        <time>2021-08-03T07:52:30Z</time>
      </trkpt>
      <trkpt lat="45.5281" lon="6.7499">
        <ele>1908</ele>
        <time>2021-08-03T07:52:31Z</time>
      </trkpt>
      <trkpt lat="45.5281" lon="6.7499">
        <ele>1908</ele>
        <time>2021-08-03T07:52:32Z</time>
      </trkpt>
      <trkpt lat="45.5281" lon="6.7499">
        <ele>1908</ele>
        <time>2021-08-03T07:52:33Z</time>
      </trkpt>
      <trkpt lat="45.5281" lon="6.7499">
        <ele>1908</ele>
        <time>2021-08-03T07:52:34Z</time>
      </trkpt>
      <trkpt lat="45.5281" lon="6.7499">
        <ele>1908</ele>
        <time>2021-08-03T07:52:35Z</time>
      </trkpt>
      <trkpt lat="45.5281" lon="6.7499">
        <ele>1908</ele>
        <time>2021-08-03T07:52:36Z</time>
      </trkpt>
      <trkpt lat="45.5281" lon="6.7499">
        <ele>1908</ele>
        <time>2021-08-03T07:52:37Z</time>
      </trkpt>
      <trkpt lat="45.5281" lon="6.7499">
        <ele>1908.1</ele>
        <time>2021-08-03T07:52:38Z</time>
      </trkpt>
      <trkpt lat="45.5281" lon="6.7499">
        <ele>1908.1</ele>
        <time>2021-08-03T07:52:39Z</time>
      </trkpt>
      <trkpt lat="45.5281" lon="6.7499">
        <ele>1908.1</ele>
        <time>2021-08-03T07:52:40Z</time>
      </trkpt>
      <trkpt lat="45.5281" lon="6.7499">
        <ele>1908.1</ele>
        <time>2021-08-03T07:52:41Z</time>
      </trkpt>
      <trkpt lat="45.5281" lon="6.7499">
        <ele>1908.1</ele>
        <time>2021-08-03T07:52:42Z</time>
      </trkpt>
      <trkpt lat="45.5281" lon="6.7499">
        <ele>1908.1</ele>
        <time>2021-08-03T07:52:43Z</time>
      </trkpt>
      <trkpt lat="45.5281" lon="6.7499">
        <ele>1908.1</ele>
        <time>2021-08-03T07:52:44Z</time>
      </trkpt>
      <trkpt lat="45.5281" lon="6.7499">
        <ele>1908.1</ele>
        <time>2021-08-03T07:52:45Z</time>
      </trkpt>
      <trkpt lat="45.5281" lon="6.7499">
        <ele>1908.1</ele>
        <time>2021-08-03T07:52:46Z</time>
      </trkpt>
      <trkpt lat="45.5281" lon="6.7499">
        <ele>1908.2</ele>
        <time>2021-08-03T07:52:47Z</time>
      </trkpt>
      <trkpt lat="45.52811" lon="6.7499">
        <ele>1908.2</ele>
        <time>2021-08-03T07:52:48Z</time>
      </trkpt>
      <trkpt lat="45.52811" lon="6.74991">
        <ele>1908.3</ele>
        <time>2021-08-03T07:52:49Z</time>
      </trkpt>
      <trkpt lat="45.52811" lon="6.74991">
        <ele>1908.4</ele>
        <time>2021-08-03T07:52:50Z</time>
      </trkpt>
      <trkpt lat="45.52811" lon="6.74991">
        <ele>1908.5</ele>
        <time>2021-08-03T07:52:51Z</time>
      </trkpt>
      <trkpt lat="45.52812" lon="6.74992">
        <ele>1908.6</ele>
        <time>2021-08-03T07:52:52Z</time>
      </trkpt>
      <trkpt lat="45.52812" lon="6.74992">
        <ele>1908.7</ele>
        <time>2021-08-03T07:52:53Z</time>
      </trkpt>
      <trkpt lat="45.52813" lon="6.74993">
        <ele>1908.8</ele>
        <time>2021-08-03T07:52:54Z</time>
      </trkpt>
      <trkpt lat="45.52813" lon="6.74994">
        <ele>1909</ele>
        <time>2021-08-03T07:52:55Z</time>
      </trkpt>
      <trkpt lat="45.52813" lon="6.74994">
        <ele>1909.1</ele>
        <time>2021-08-03T07:52:56Z</time>
      </trkpt>
      <trkpt lat="45.52814" lon="6.74995">
        <ele>1909.3</ele>
        <time>2021-08-03T07:52:57Z</time>
      </trkpt>
      <trkpt lat="45.52814" lon="6.74996">
        <ele>1909.4</ele>
        <time>2021-08-03T07:52:58Z</time>
      </trkpt>
      <trkpt lat="45.52815" lon="6.74996">
        <ele>1909.6</ele>
        <time>2021-08-03T07:52:59Z</time>
      </trkpt>
      <trkpt lat="45.52815" lon="6.74997">
        <ele>1909.7</ele>
        <time>2021-08-03T07:53:00Z</time>
      </trkpt>
      <trkpt lat="45.52816" lon="6.74998">
        <ele>1909.9</ele>
        <time>2021-08-03T07:53:01Z</time>
      </trkpt>
      <trkpt lat="45.52816" lon="6.74999">
        <ele>1910.1</ele>
        <time>2021-08-03T07:53:02Z</time>
      </trkpt>
      <trkpt lat="45.52817" lon="6.75">
        <ele>1910.2</ele>
        <time>2021-08-03T07:53:03Z</time>
      </trkpt>
      <trkpt lat="45.52817" lon="6.75001">
        <ele>1910.4</ele>
        <time>2021-08-03T07:53:04Z</time>
      </trkpt>
      <trkpt lat="45.52818" lon="6.75002">
        <ele>1910.6</ele>
        <time>2021-08-03T07:53:05Z</time>
      </trkpt>
      <trkpt lat="45.52818" lon="6.75002">
        <ele>1910.7</ele>
        <time>2021-08-03T07:53:06Z</time>
      </trkpt>
      <trkpt lat="45.52818" lon="6.75003">
        <ele>1910.9</ele>
        <time>2021-08-03T07:53:07Z</time>
      </trkpt>
      <trkpt lat="45.52819" lon="6.75004">
        <ele>1911.1</ele>
        <time>2021-08-03T07:53:08Z</time>
      </trkpt>
      <trkpt lat="45.52819" lon="6.75005">
        <ele>1911.2</ele>
        <time>2021-08-03T07:53:09Z</time>
      </trkpt>
      <trkpt lat="45.52819" lon="6.75006">
        <ele>1911.4</ele>
        <time>2021-08-03T07:53:10Z</time>
      </trkpt>
      <trkpt lat="45.5282" lon="6.75007">
        <ele>1911.5</ele>
        <time>2021-08-03T07:53:11Z</time>
      </trkpt>
      <trkpt lat="45.5282" lon="6.75008">
        <ele>1911.7</ele>
        <time>2021-08-03T07:53:12Z</time>
      </trkpt>
      <trkpt lat="45.52821" lon="6.75009">
        <ele>1911.9</ele>
        <time>2021-08-03T07:53:13Z</time>
      </trkpt>
      <trkpt lat="45.52821" lon="6.7501">
        <ele>1912</ele>
        <time>2021-08-03T07:53:14Z</time>
      </trkpt>
      <trkpt lat="45.52822" lon="6.75011">
        <ele>1912.2</ele>
        <time>2021-08-03T07:53:15Z</time>
      </trkpt>
      <trkpt lat="45.52822" lon="6.75012">
        <ele>1912.5</ele>
        <time>2021-08-03T07:53:16Z</time>
      </trkpt>
      <trkpt lat="45.52823" lon="6.75013">
        <ele>1912.7</ele>
        <time>2021-08-03T07:53:17Z</time>
      </trkpt>
      <trkpt lat="45.52823" lon="6.75014">
        <ele>1912.9</ele>
        <time>2021-08-03T07:53:18Z</time>
      </trkpt>
      <trkpt lat="45.52824" lon="6.75015">
        <ele>1913.1</ele>
        <time>2021-08-03T07:53:19Z</time>
      </trkpt>
      <trkpt lat="45.52825" lon="6.75016">
        <ele>1913.3</ele>
        <time>2021-08-03T07:53:20Z</time>
      </trkpt>
      <trkpt lat="45.52825" lon="6.75017">
        <ele>1913.6</ele>
        <time>2021-08-03T07:53:21Z</time>
      </trkpt>
      <trkpt lat="45.52826" lon="6.75018">
        <ele>1913.7</ele>
        <time>2021-08-03T07:53:22Z</time>
      </trkpt>
      <trkpt lat="45.52827" lon="6.75019">
        <ele>1913.9</ele>
        <time>2021-08-03T07:53:23Z</time>
      </trkpt>
      <trkpt lat="45.52827" lon="6.7502">
        <ele>1914.1</ele>
        <time>2021-08-03T07:53:24Z</time>
      </trkpt>
      <trkpt lat="45.52827" lon="6.75021">
        <ele>1914.3</ele>
        <time>2021-08-03T07:53:25Z</time>
      </trkpt>
      <trkpt lat="45.52828" lon="6.75022">
        <ele>1914.4</ele>
        <time>2021-08-03T07:53:26Z</time>
      </trkpt>
      <trkpt lat="45.52828" lon="6.75023">
        <ele>1914.6</ele>
        <time>2021-08-03T07:53:27Z</time>
      </trkpt>
      <trkpt lat="45.52829" lon="6.75024">
        <ele>1914.8</ele>
        <time>2021-08-03T07:53:28Z</time>
      </trkpt>
      <trkpt lat="45.52829" lon="6.75025">
        <ele>1915</ele>
        <time>2021-08-03T07:53:29Z</time>
      </trkpt>
      <trkpt lat="45.5283" lon="6.75026">
        <ele>1915.2</ele>
        <time>2021-08-03T07:53:30Z</time>
      </trkpt>
      <trkpt lat="45.52831" lon="6.75027">
        <ele>1915.4</ele>
        <time>2021-08-03T07:53:31Z</time>
      </trkpt>
      <trkpt lat="45.52831" lon="6.75028">
        <ele>1915.7</ele>
        <time>2021-08-03T07:53:32Z</time>
      </trkpt>
      <trkpt lat="45.52832" lon="6.7503">
        <ele>1915.9</ele>
        <time>2021-08-03T07:53:33Z</time>
      </trkpt>
      <trkpt lat="45.52833" lon="6.75031">
        <ele>1916.2</ele>
        <time>2021-08-03T07:53:34Z</time>
      </trkpt>
      <trkpt lat="45.52833" lon="6.75032">
        <ele>1916.4</ele>
        <time>2021-08-03T07:53:35Z</time>
      </trkpt>
      <trkpt lat="45.52834" lon="6.75033">
        <ele>1916.6</ele>
        <time>2021-08-03T07:53:36Z</time>
      </trkpt>
      <trkpt lat="45.52834" lon="6.75034">
        <ele>1916.7</ele>
        <time>2021-08-03T07:53:37Z</time>
      </trkpt>
      <trkpt lat="45.52834" lon="6.75035">
        <ele>1916.8</ele>
        <time>2021-08-03T07:53:38Z</time>
      </trkpt>
      <trkpt lat="45.52834" lon="6.75035">
        <ele>1917</ele>
        <time>2021-08-03T07:53:39Z</time>
      </trkpt>
      <trkpt lat="45.52834" lon="6.75036">
        <ele>1917.1</ele>
        <time>2021-08-03T07:53:40Z</time>
      </trkpt>
      <trkpt lat="45.52835" lon="6.75037">
        <ele>1917.2</ele>
        <time>2021-08-03T07:53:41Z</time>
      </trkpt>
      <trkpt lat="45.52835" lon="6.75038">
        <ele>1917.5</ele>
        <time>2021-08-03T07:53:42Z</time>
      </trkpt>
      <trkpt lat="45.52835" lon="6.7504">
        <ele>1917.7</ele>
        <time>2021-08-03T07:53:43Z</time>
      </trkpt>
      <trkpt lat="45.52836" lon="6.75041">
        <ele>1918</ele>
        <time>2021-08-03T07:53:44Z</time>
      </trkpt>
      <trkpt lat="45.52837" lon="6.75043">
        <ele>1918.2</ele>
        <time>2021-08-03T07:53:45Z</time>
      </trkpt>
      <trkpt lat="45.52837" lon="6.75044">
        <ele>1918.4</ele>
        <time>2021-08-03T07:53:46Z</time>
      </trkpt>
      <trkpt lat="45.52837" lon="6.75045">
        <ele>1918.5</ele>
        <time>2021-08-03T07:53:47Z</time>
      </trkpt>
      <trkpt lat="45.52838" lon="6.75045">
        <ele>1918.7</ele>
        <time>2021-08-03T07:53:48Z</time>
      </trkpt>
      <trkpt lat="45.52838" lon="6.75046">
        <ele>1918.8</ele>
        <time>2021-08-03T07:53:49Z</time>
      </trkpt>
      <trkpt lat="45.52838" lon="6.75047">
        <ele>1918.9</ele>
        <time>2021-08-03T07:53:50Z</time>
      </trkpt>
      <trkpt lat="45.52839" lon="6.75047">
        <ele>1919</ele>
        <time>2021-08-03T07:53:51Z</time>
      </trkpt>
      <trkpt lat="45.52839" lon="6.75048">
        <ele>1919.2</ele>
        <time>2021-08-03T07:53:52Z</time>
      </trkpt>
      <trkpt lat="45.52839" lon="6.75048">
        <ele>1919.3</ele>
        <time>2021-08-03T07:53:53Z</time>
      </trkpt>
      <trkpt lat="45.5284" lon="6.75049">
        <ele>1919.4</ele>
        <time>2021-08-03T07:53:54Z</time>
      </trkpt>
      <trkpt lat="45.5284" lon="6.7505">
        <ele>1919.6</ele>
        <time>2021-08-03T07:53:55Z</time>
      </trkpt>
      <trkpt lat="45.52841" lon="6.75051">
        <ele>1919.8</ele>
        <time>2021-08-03T07:53:56Z</time>
      </trkpt>
      <trkpt lat="45.52842" lon="6.75052">
        <ele>1920</ele>
        <time>2021-08-03T07:53:57Z</time>
      </trkpt>
      <trkpt lat="45.52843" lon="6.75053">
        <ele>1920.2</ele>
        <time>2021-08-03T07:53:58Z</time>
      </trkpt>
      <trkpt lat="45.52843" lon="6.75053">
        <ele>1920.4</ele>
        <time>2021-08-03T07:53:59Z</time>
      </trkpt>
      <trkpt lat="45.52844" lon="6.75054">
        <ele>1920.7</ele>
        <time>2021-08-03T07:54:00Z</time>
      </trkpt>
      <trkpt lat="45.52845" lon="6.75055">
        <ele>1920.9</ele>
        <time>2021-08-03T07:54:01Z</time>
      </trkpt>
      <trkpt lat="45.52846" lon="6.75056">
        <ele>1921.1</ele>
        <time>2021-08-03T07:54:02Z</time>
      </trkpt>
      <trkpt lat="45.52847" lon="6.75057">
        <ele>1921.4</ele>
        <time>2021-08-03T07:54:03Z</time>
      </trkpt>
      <trkpt lat="45.52848" lon="6.75058">
        <ele>1921.6</ele>
        <time>2021-08-03T07:54:04Z</time>
      </trkpt>
      <trkpt lat="45.52848" lon="6.75058">
        <ele>1921.8</ele>
        <time>2021-08-03T07:54:05Z</time>
      </trkpt>
      <trkpt lat="45.52849" lon="6.75059">
        <ele>1922</ele>
        <time>2021-08-03T07:54:06Z</time>
      </trkpt>
      <trkpt lat="45.5285" lon="6.7506">
        <ele>1922.2</ele>
        <time>2021-08-03T07:54:07Z</time>
      </trkpt>
      <trkpt lat="45.52851" lon="6.75061">
        <ele>1922.4</ele>
        <time>2021-08-03T07:54:08Z</time>
      </trkpt>
      <trkpt lat="45.52851" lon="6.75062">
        <ele>1922.6</ele>
        <time>2021-08-03T07:54:09Z</time>
      </trkpt>
      <trkpt lat="45.52852" lon="6.75062">
        <ele>1922.8</ele>
        <time>2021-08-03T07:54:10Z</time>
      </trkpt>
      <trkpt lat="45.52852" lon="6.75063">
        <ele>1923</ele>
        <time>2021-08-03T07:54:11Z</time>
      </trkpt>
      <trkpt lat="45.52853" lon="6.75065">
        <ele>1923.2</ele>
        <time>2021-08-03T07:54:12Z</time>
      </trkpt>
      <trkpt lat="45.52853" lon="6.75066">
        <ele>1923.4</ele>
        <time>2021-08-03T07:54:13Z</time>
      </trkpt>
      <trkpt lat="45.52854" lon="6.75067">
        <ele>1923.5</ele>
        <time>2021-08-03T07:54:14Z</time>
      </trkpt>
      <trkpt lat="45.52854" lon="6.75068">
        <ele>1923.7</ele>
        <time>2021-08-03T07:54:15Z</time>
      </trkpt>
      <trkpt lat="45.52854" lon="6.75069">
        <ele>1923.9</ele>
        <time>2021-08-03T07:54:16Z</time>
      </trkpt>
      <trkpt lat="45.52854" lon="6.75071">
        <ele>1924.2</ele>
        <time>2021-08-03T07:54:17Z</time>
      </trkpt>
      <trkpt lat="45.52855" lon="6.75072">
        <ele>1924.4</ele>
        <time>2021-08-03T07:54:18Z</time>
      </trkpt>
      <trkpt lat="45.52855" lon="6.75073">
        <ele>1924.6</ele>
        <time>2021-08-03T07:54:19Z</time>
      </trkpt>
      <trkpt lat="45.52855" lon="6.75074">
        <ele>1924.8</ele>
        <time>2021-08-03T07:54:20Z</time>
      </trkpt>
      <trkpt lat="45.52855" lon="6.75076">
        <ele>1925</ele>
        <time>2021-08-03T07:54:21Z</time>
      </trkpt>
      <trkpt lat="45.52855" lon="6.75077">
        <ele>1925.2</ele>
        <time>2021-08-03T07:54:22Z</time>
      </trkpt>
      <trkpt lat="45.52856" lon="6.75079">
        <ele>1925.4</ele>
        <time>2021-08-03T07:54:23Z</time>
      </trkpt>
      <trkpt lat="45.52856" lon="6.7508">
        <ele>1925.7</ele>
        <time>2021-08-03T07:54:24Z</time>
      </trkpt>
      <trkpt lat="45.52856" lon="6.75081">
        <ele>1925.9</ele>
        <time>2021-08-03T07:54:25Z</time>
      </trkpt>
      <trkpt lat="45.52857" lon="6.75083">
        <ele>1926.1</ele>
        <time>2021-08-03T07:54:26Z</time>
      </trkpt>
      <trkpt lat="45.52857" lon="6.75084">
        <ele>1926.3</ele>
        <time>2021-08-03T07:54:27Z</time>
      </trkpt>
      <trkpt lat="45.52857" lon="6.75086">
        <ele>1926.6</ele>
        <time>2021-08-03T07:54:28Z</time>
      </trkpt>
      <trkpt lat="45.52858" lon="6.75087">
        <ele>1926.8</ele>
        <time>2021-08-03T07:54:29Z</time>
      </trkpt>
      <trkpt lat="45.52858" lon="6.75088">
        <ele>1927</ele>
        <time>2021-08-03T07:54:30Z</time>
      </trkpt>
      <trkpt lat="45.52859" lon="6.7509">
        <ele>1927.3</ele>
        <time>2021-08-03T07:54:31Z</time>
      </trkpt>
      <trkpt lat="45.5286" lon="6.75092">
        <ele>1927.6</ele>
        <time>2021-08-03T07:54:32Z</time>
      </trkpt>
      <trkpt lat="45.5286" lon="6.75092">
        <ele>1927.8</ele>
        <time>2021-08-03T07:54:33Z</time>
      </trkpt>
      <trkpt lat="45.52861" lon="6.75093">
        <ele>1928</ele>
        <time>2021-08-03T07:54:34Z</time>
      </trkpt>
      <trkpt lat="45.52861" lon="6.75094">
        <ele>1928.1</ele>
        <time>2021-08-03T07:54:35Z</time>
      </trkpt>
      <trkpt lat="45.52862" lon="6.75094">
        <ele>1928.3</ele>
        <time>2021-08-03T07:54:36Z</time>
      </trkpt>
      <trkpt lat="45.52862" lon="6.75095">
        <ele>1928.4</ele>
        <time>2021-08-03T07:54:37Z</time>
      </trkpt>
      <trkpt lat="45.52863" lon="6.75096">
        <ele>1928.6</ele>
        <time>2021-08-03T07:54:38Z</time>
      </trkpt>
      <trkpt lat="45.52864" lon="6.75097">
        <ele>1928.8</ele>
        <time>2021-08-03T07:54:39Z</time>
      </trkpt>
      <trkpt lat="45.52864" lon="6.75097">
        <ele>1928.9</ele>
        <time>2021-08-03T07:54:40Z</time>
      </trkpt>
      <trkpt lat="45.52865" lon="6.75098">
        <ele>1929.1</ele>
        <time>2021-08-03T07:54:41Z</time>
      </trkpt>
      <trkpt lat="45.52865" lon="6.75099">
        <ele>1929.2</ele>
        <time>2021-08-03T07:54:42Z</time>
      </trkpt>
      <trkpt lat="45.52866" lon="6.751">
        <ele>1929.4</ele>
        <time>2021-08-03T07:54:43Z</time>
      </trkpt>
      <trkpt lat="45.52866" lon="6.751">
        <ele>1929.5</ele>
        <time>2021-08-03T07:54:44Z</time>
      </trkpt>
      <trkpt lat="45.52867" lon="6.75101">
        <ele>1929.7</ele>
        <time>2021-08-03T07:54:45Z</time>
      </trkpt>
      <trkpt lat="45.52867" lon="6.75102">
        <ele>1929.9</ele>
        <time>2021-08-03T07:54:46Z</time>
      </trkpt>
      <trkpt lat="45.52868" lon="6.75102">
        <ele>1930</ele>
        <time>2021-08-03T07:54:47Z</time>
      </trkpt>
      <trkpt lat="45.52868" lon="6.75103">
        <ele>1930.2</ele>
        <time>2021-08-03T07:54:48Z</time>
      </trkpt>
      <trkpt lat="45.52869" lon="6.75104">
        <ele>1930.3</ele>
        <time>2021-08-03T07:54:49Z</time>
      </trkpt>
      <trkpt lat="45.52869" lon="6.75105">
        <ele>1930.5</ele>
        <time>2021-08-03T07:54:50Z</time>
      </trkpt>
      <trkpt lat="45.5287" lon="6.75105">
        <ele>1930.7</ele>
        <time>2021-08-03T07:54:51Z</time>
      </trkpt>
      <trkpt lat="45.5287" lon="6.75106">
        <ele>1930.8</ele>
        <time>2021-08-03T07:54:52Z</time>
      </trkpt>
      <trkpt lat="45.52871" lon="6.75106">
        <ele>1931</ele>
        <time>2021-08-03T07:54:53Z</time>
      </trkpt>
      <trkpt lat="45.52871" lon="6.75106">
        <ele>1931.1</ele>
        <time>2021-08-03T07:54:54Z</time>
      </trkpt>
      <trkpt lat="45.52872" lon="6.75106">
        <ele>1931.2</ele>
        <time>2021-08-03T07:54:55Z</time>
      </trkpt>
      <trkpt lat="45.52872" lon="6.75106">
        <ele>1931.3</ele>
        <time>2021-08-03T07:54:56Z</time>
      </trkpt>
      <trkpt lat="45.52873" lon="6.75106">
        <ele>1931.4</ele>
        <time>2021-08-03T07:54:57Z</time>
      </trkpt>
      <trkpt lat="45.52874" lon="6.75106">
        <ele>1931.6</ele>
        <time>2021-08-03T07:54:58Z</time>
      </trkpt>
      <trkpt lat="45.52874" lon="6.75106">
        <ele>1931.7</ele>
        <time>2021-08-03T07:54:59Z</time>
      </trkpt>
      <trkpt lat="45.52875" lon="6.75107">
        <ele>1931.9</ele>
        <time>2021-08-03T07:55:00Z</time>
      </trkpt>
      <trkpt lat="45.52876" lon="6.75107">
        <ele>1932</ele>
        <time>2021-08-03T07:55:01Z</time>
      </trkpt>
      <trkpt lat="45.52876" lon="6.75107">
        <ele>1932.2</ele>
        <time>2021-08-03T07:55:02Z</time>
      </trkpt>
      <trkpt lat="45.52877" lon="6.75108">
        <ele>1932.4</ele>
        <time>2021-08-03T07:55:03Z</time>
      </trkpt>
      <trkpt lat="45.52878" lon="6.75108">
        <ele>1932.6</ele>
        <time>2021-08-03T07:55:04Z</time>
      </trkpt>
      <trkpt lat="45.52879" lon="6.75109">
        <ele>1932.8</ele>
        <time>2021-08-03T07:55:05Z</time>
      </trkpt>
      <trkpt lat="45.5288" lon="6.7511">
        <ele>1933.1</ele>
        <time>2021-08-03T07:55:06Z</time>
      </trkpt>
      <trkpt lat="45.52881" lon="6.7511">
        <ele>1933.3</ele>
        <time>2021-08-03T07:55:07Z</time>
      </trkpt>
      <trkpt lat="45.52882" lon="6.75111">
        <ele>1933.5</ele>
        <time>2021-08-03T07:55:08Z</time>
      </trkpt>
      <trkpt lat="45.52883" lon="6.75111">
        <ele>1933.8</ele>
        <time>2021-08-03T07:55:09Z</time>
      </trkpt>
      <trkpt lat="45.52884" lon="6.75112">
        <ele>1934</ele>
        <time>2021-08-03T07:55:10Z</time>
      </trkpt>
      <trkpt lat="45.52885" lon="6.75113">
        <ele>1934.3</ele>
        <time>2021-08-03T07:55:11Z</time>
      </trkpt>
      <trkpt lat="45.52886" lon="6.75113">
        <ele>1934.5</ele>
        <time>2021-08-03T07:55:12Z</time>
      </trkpt>
      <trkpt lat="45.52887" lon="6.75114">
        <ele>1934.7</ele>
        <time>2021-08-03T07:55:13Z</time>
      </trkpt>
      <trkpt lat="45.52888" lon="6.75115">
        <ele>1935</ele>
        <time>2021-08-03T07:55:14Z</time>
      </trkpt>
      <trkpt lat="45.52889" lon="6.75115">
        <ele>1935.2</ele>
        <time>2021-08-03T07:55:15Z</time>
      </trkpt>
      <trkpt lat="45.5289" lon="6.75116">
        <ele>1935.5</ele>
        <time>2021-08-03T07:55:16Z</time>
      </trkpt>
      <trkpt lat="45.52891" lon="6.75116">
        <ele>1935.7</ele>
        <time>2021-08-03T07:55:17Z</time>
      </trkpt>
      <trkpt lat="45.52892" lon="6.75117">
        <ele>1935.9</ele>
        <time>2021-08-03T07:55:18Z</time>
      </trkpt>
      <trkpt lat="45.52893" lon="6.75117">
        <ele>1936.1</ele>
        <time>2021-08-03T07:55:19Z</time>
      </trkpt>
      <trkpt lat="45.52894" lon="6.75118">
        <ele>1936.3</ele>
        <time>2021-08-03T07:55:20Z</time>
      </trkpt>
      <trkpt lat="45.52895" lon="6.75118">
        <ele>1936.5</ele>
        <time>2021-08-03T07:55:21Z</time>
      </trkpt>
      <trkpt lat="45.52896" lon="6.75118">
        <ele>1936.8</ele>
        <time>2021-08-03T07:55:22Z</time>
      </trkpt>
      <trkpt lat="45.52896" lon="6.75119">
        <ele>1936.9</ele>
        <time>2021-08-03T07:55:23Z</time>
      </trkpt>
      <trkpt lat="45.52897" lon="6.75119">
        <ele>1937.1</ele>
        <time>2021-08-03T07:55:24Z</time>
      </trkpt>
      <trkpt lat="45.52898" lon="6.7512">
        <ele>1937.3</ele>
        <time>2021-08-03T07:55:25Z</time>
      </trkpt>
      <trkpt lat="45.52899" lon="6.7512">
        <ele>1937.5</ele>
        <time>2021-08-03T07:55:26Z</time>
      </trkpt>
      <trkpt lat="45.529" lon="6.7512">
        <ele>1937.7</ele>
        <time>2021-08-03T07:55:27Z</time>
      </trkpt>
      <trkpt lat="45.529" lon="6.75121">
        <ele>1937.8</ele>
        <time>2021-08-03T07:55:28Z</time>
      </trkpt>
      <trkpt lat="45.52901" lon="6.75121">
        <ele>1938</ele>
        <time>2021-08-03T07:55:29Z</time>
      </trkpt>
      <trkpt lat="45.52901" lon="6.75121">
        <ele>1938.1</ele>
        <time>2021-08-03T07:55:30Z</time>
      </trkpt>
      <trkpt lat="45.52902" lon="6.75122">
        <ele>1938.3</ele>
        <time>2021-08-03T07:55:31Z</time>
      </trkpt>
      <trkpt lat="45.52902" lon="6.75122">
        <ele>1938.4</ele>
        <time>2021-08-03T07:55:32Z</time>
      </trkpt>
      <trkpt lat="45.52903" lon="6.75123">
        <ele>1938.5</ele>
        <time>2021-08-03T07:55:33Z</time>
      </trkpt>
      <trkpt lat="45.52903" lon="6.75123">
        <ele>1938.6</ele>
        <time>2021-08-03T07:55:34Z</time>
      </trkpt>
      <trkpt lat="45.52904" lon="6.75123">
        <ele>1938.7</ele>
        <time>2021-08-03T07:55:35Z</time>
      </trkpt>
      <trkpt lat="45.52904" lon="6.75124">
        <ele>1938.8</ele>
        <time>2021-08-03T07:55:36Z</time>
      </trkpt>
      <trkpt lat="45.52904" lon="6.75124">
        <ele>1938.9</ele>
        <time>2021-08-03T07:55:37Z</time>
      </trkpt>
      <trkpt lat="45.52905" lon="6.75124">
        <ele>1938.9</ele>
        <time>2021-08-03T07:55:38Z</time>
      </trkpt>
      <trkpt lat="45.52905" lon="6.75124">
        <ele>1939</ele>
        <time>2021-08-03T07:55:39Z</time>
      </trkpt>
      <trkpt lat="45.52905" lon="6.75125">
        <ele>1939.1</ele>
        <time>2021-08-03T07:55:40Z</time>
      </trkpt>
      <trkpt lat="45.52905" lon="6.75125">
        <ele>1939.1</ele>
        <time>2021-08-03T07:55:41Z</time>
      </trkpt>
      <trkpt lat="45.52905" lon="6.75125">
        <ele>1939.1</ele>
        <time>2021-08-03T07:55:42Z</time>
      </trkpt>
      <trkpt lat="45.52905" lon="6.75125">
        <ele>1939.1</ele>
        <time>2021-08-03T07:55:43Z</time>
      </trkpt>
      <trkpt lat="45.52905" lon="6.75125">
        <ele>1939.2</ele>
        <time>2021-08-03T07:55:44Z</time>
      </trkpt>
      <trkpt lat="45.52905" lon="6.75125">
        <ele>1939.2</ele>
        <time>2021-08-03T07:55:45Z</time>
      </trkpt>
      <trkpt lat="45.52905" lon="6.75125">
        <ele>1939.2</ele>
        <time>2021-08-03T07:55:46Z</time>
      </trkpt>
      <trkpt lat="45.52905" lon="6.75125">
        <ele>1939.2</ele>
        <time>2021-08-03T07:55:47Z</time>
      </trkpt>
      <trkpt lat="45.52905" lon="6.75125">
        <ele>1939.2</ele>
        <time>2021-08-03T07:55:48Z</time>
      </trkpt>
      <trkpt lat="45.52905" lon="6.75125">
        <ele>1939.2</ele>
        <time>2021-08-03T07:55:49Z</time>
      </trkpt>
      <trkpt lat="45.52905" lon="6.75125">
        <ele>1939.2</ele>
        <time>2021-08-03T07:55:50Z</time>
      </trkpt>
      <trkpt lat="45.52906" lon="6.75125">
        <ele>1939.2</ele>
        <time>2021-08-03T07:55:51Z</time>
      </trkpt>
      <trkpt lat="45.52906" lon="6.75125">
        <ele>1939.2</ele>
        <time>2021-08-03T07:55:52Z</time>
      </trkpt>
      <trkpt lat="45.52906" lon="6.75125">
        <ele>1939.3</ele>
        <time>2021-08-03T07:55:53Z</time>
      </trkpt>
      <trkpt lat="45.52906" lon="6.75125">
        <ele>1939.3</ele>
        <time>2021-08-03T07:55:54Z</time>
      </trkpt>
      <trkpt lat="45.52906" lon="6.75125">
        <ele>1939.4</ele>
        <time>2021-08-03T07:55:55Z</time>
      </trkpt>
      <trkpt lat="45.52906" lon="6.75126">
        <ele>1939.4</ele>
        <time>2021-08-03T07:55:56Z</time>
      </trkpt>
      <trkpt lat="45.52906" lon="6.75126">
        <ele>1939.5</ele>
        <time>2021-08-03T07:55:57Z</time>
      </trkpt>
      <trkpt lat="45.52907" lon="6.75127">
        <ele>1939.6</ele>
        <time>2021-08-03T07:55:58Z</time>
      </trkpt>
      <trkpt lat="45.52907" lon="6.75128">
        <ele>1939.8</ele>
        <time>2021-08-03T07:55:59Z</time>
      </trkpt>
      <trkpt lat="45.52907" lon="6.75129">
        <ele>1939.9</ele>
        <time>2021-08-03T07:56:00Z</time>
      </trkpt>
      <trkpt lat="45.52908" lon="6.7513">
        <ele>1940.1</ele>
        <time>2021-08-03T07:56:01Z</time>
      </trkpt>
      <trkpt lat="45.52908" lon="6.75131">
        <ele>1940.3</ele>
        <time>2021-08-03T07:56:02Z</time>
      </trkpt>
      <trkpt lat="45.52909" lon="6.75132">
        <ele>1940.6</ele>
        <time>2021-08-03T07:56:03Z</time>
      </trkpt>
      <trkpt lat="45.5291" lon="6.75133">
        <ele>1940.8</ele>
        <time>2021-08-03T07:56:04Z</time>
      </trkpt>
      <trkpt lat="45.52911" lon="6.75135">
        <ele>1941.1</ele>
        <time>2021-08-03T07:56:05Z</time>
      </trkpt>
      <trkpt lat="45.52912" lon="6.75136">
        <ele>1941.4</ele>
        <time>2021-08-03T07:56:06Z</time>
      </trkpt>
      <trkpt lat="45.52913" lon="6.75137">
        <ele>1941.7</ele>
        <time>2021-08-03T07:56:07Z</time>
      </trkpt>
      <trkpt lat="45.52914" lon="6.75139">
        <ele>1942</ele>
        <time>2021-08-03T07:56:08Z</time>
      </trkpt>
      <trkpt lat="45.52915" lon="6.7514">
        <ele>1942.4</ele>
        <time>2021-08-03T07:56:09Z</time>
      </trkpt>
      <trkpt lat="45.52916" lon="6.75142">
        <ele>1942.7</ele>
        <time>2021-08-03T07:56:10Z</time>
      </trkpt>
      <trkpt lat="45.52917" lon="6.75143">
        <ele>1942.9</ele>
        <time>2021-08-03T07:56:11Z</time>
      </trkpt>
      <trkpt lat="45.52917" lon="6.75144">
        <ele>1943.1</ele>
        <time>2021-08-03T07:56:12Z</time>
      </trkpt>
      <trkpt lat="45.52918" lon="6.75144">
        <ele>1943.3</ele>
        <time>2021-08-03T07:56:13Z</time>
      </trkpt>
      <trkpt lat="45.52918" lon="6.75145">
        <ele>1943.4</ele>
        <time>2021-08-03T07:56:14Z</time>
      </trkpt>
      <trkpt lat="45.52919" lon="6.75145">
        <ele>1943.6</ele>
        <time>2021-08-03T07:56:15Z</time>
      </trkpt>
      <trkpt lat="45.52919" lon="6.75146">
        <ele>1943.7</ele>
        <time>2021-08-03T07:56:16Z</time>
      </trkpt>
      <trkpt lat="45.5292" lon="6.75147">
        <ele>1943.9</ele>
        <time>2021-08-03T07:56:17Z</time>
      </trkpt>
      <trkpt lat="45.5292" lon="6.75148">
        <ele>1944.1</ele>
        <time>2021-08-03T07:56:18Z</time>
      </trkpt>
      <trkpt lat="45.52921" lon="6.75149">
        <ele>1944.3</ele>
        <time>2021-08-03T07:56:19Z</time>
      </trkpt>
      <trkpt lat="45.52922" lon="6.7515">
        <ele>1944.5</ele>
        <time>2021-08-03T07:56:20Z</time>
      </trkpt>
      <trkpt lat="45.52922" lon="6.75151">
        <ele>1944.7</ele>
        <time>2021-08-03T07:56:21Z</time>
      </trkpt>
      <trkpt lat="45.52923" lon="6.75153">
        <ele>1945</ele>
        <time>2021-08-03T07:56:22Z</time>
      </trkpt>
      <trkpt lat="45.52923" lon="6.75154">
        <ele>1945.2</ele>
        <time>2021-08-03T07:56:23Z</time>
      </trkpt>
      <trkpt lat="45.52924" lon="6.75155">
        <ele>1946.3</ele>
        <time>2021-08-03T07:56:24Z</time>
      </trkpt>
      <trkpt lat="45.52925" lon="6.75157">
        <ele>1946.8</ele>
        <time>2021-08-03T07:56:25Z</time>
      </trkpt>
      <trkpt lat="45.52925" lon="6.75158">
        <ele>1947.3</ele>
        <time>2021-08-03T07:56:26Z</time>
      </trkpt>
      <trkpt lat="45.52926" lon="6.7516">
        <ele>1947.8</ele>
        <time>2021-08-03T07:56:27Z</time>
      </trkpt>
      <trkpt lat="45.52927" lon="6.75161">
        <ele>1948.3</ele>
        <time>2021-08-03T07:56:28Z</time>
      </trkpt>
      <trkpt lat="45.52928" lon="6.75163">
        <ele>1948.8</ele>
        <time>2021-08-03T07:56:29Z</time>
      </trkpt>
      <trkpt lat="45.5293" lon="6.75166">
        <ele>1949.8</ele>
        <time>2021-08-03T07:56:30Z</time>
      </trkpt>
      <trkpt lat="45.52931" lon="6.75167">
        <ele>1950.3</ele>
        <time>2021-08-03T07:56:31Z</time>
      </trkpt>
      <trkpt lat="45.52931" lon="6.75168">
        <ele>1950.8</ele>
        <time>2021-08-03T07:56:32Z</time>
      </trkpt>
      <trkpt lat="45.52932" lon="6.7517">
        <ele>1951.3</ele>
        <time>2021-08-03T07:56:33Z</time>
      </trkpt>
      <trkpt lat="45.52933" lon="6.75171">
        <ele>1951.8</ele>
        <time>2021-08-03T07:56:34Z</time>
      </trkpt>
      <trkpt lat="45.52934" lon="6.75172">
        <ele>1952.3</ele>
        <time>2021-08-03T07:56:35Z</time>
      </trkpt>
      <trkpt lat="45.52935" lon="6.75173">
        <ele>1952.8</ele>
        <time>2021-08-03T07:56:36Z</time>
      </trkpt>
      <trkpt lat="45.52936" lon="6.75175">
        <ele>1953.3</ele>
        <time>2021-08-03T07:56:37Z</time>
      </trkpt>
      <trkpt lat="45.52937" lon="6.75176">
        <ele>1953.8</ele>
        <time>2021-08-03T07:56:38Z</time>
      </trkpt>
      <trkpt lat="45.52938" lon="6.75177">
        <ele>1954.3</ele>
        <time>2021-08-03T07:56:39Z</time>
      </trkpt>
      <trkpt lat="45.52939" lon="6.75179">
        <ele>1954.8</ele>
        <time>2021-08-03T07:56:40Z</time>
      </trkpt>
      <trkpt lat="45.5294" lon="6.7518">
        <ele>1955.3</ele>
        <time>2021-08-03T07:56:41Z</time>
      </trkpt>
      <trkpt lat="45.52941" lon="6.75181">
        <ele>1955.8</ele>
        <time>2021-08-03T07:56:42Z</time>
      </trkpt>
      <trkpt lat="45.52942" lon="6.75183">
        <ele>1956.3</ele>
        <time>2021-08-03T07:56:43Z</time>
      </trkpt>
      <trkpt lat="45.52943" lon="6.75184">
        <ele>1956.8</ele>
        <time>2021-08-03T07:56:44Z</time>
      </trkpt>
      <trkpt lat="45.52944" lon="6.75185">
        <ele>1957.4</ele>
        <time>2021-08-03T07:56:45Z</time>
      </trkpt>
      <trkpt lat="45.52944" lon="6.75187">
        <ele>1957.9</ele>
        <time>2021-08-03T07:56:46Z</time>
      </trkpt>
      <trkpt lat="45.52945" lon="6.75188">
        <ele>1958.4</ele>
        <time>2021-08-03T07:56:47Z</time>
      </trkpt>
      <trkpt lat="45.52946" lon="6.75189">
        <ele>1958.9</ele>
        <time>2021-08-03T07:56:48Z</time>
      </trkpt>
      <trkpt lat="45.52947" lon="6.75191">
        <ele>1959.4</ele>
        <time>2021-08-03T07:56:49Z</time>
      </trkpt>
      <trkpt lat="45.52948" lon="6.75192">
        <ele>1959.8</ele>
        <time>2021-08-03T07:56:50Z</time>
      </trkpt>
      <trkpt lat="45.52948" lon="6.75193">
        <ele>1960.2</ele>
        <time>2021-08-03T07:56:51Z</time>
      </trkpt>
      <trkpt lat="45.52949" lon="6.75194">
        <ele>1960.5</ele>
        <time>2021-08-03T07:56:52Z</time>
      </trkpt>
      <trkpt lat="45.52949" lon="6.75195">
        <ele>1960.8</ele>
        <time>2021-08-03T07:56:53Z</time>
      </trkpt>
      <trkpt lat="45.52949" lon="6.75196">
        <ele>1961.1</ele>
        <time>2021-08-03T07:56:54Z</time>
      </trkpt>
      <trkpt lat="45.52949" lon="6.75197">
        <ele>1961.4</ele>
        <time>2021-08-03T07:56:55Z</time>
      </trkpt>
      <trkpt lat="45.52949" lon="6.75198">
        <ele>1961.6</ele>
        <time>2021-08-03T07:56:56Z</time>
      </trkpt>
      <trkpt lat="45.52948" lon="6.75199">
        <ele>1961.9</ele>
        <time>2021-08-03T07:56:57Z</time>
      </trkpt>
      <trkpt lat="45.52948" lon="6.752">
        <ele>1962.1</ele>
        <time>2021-08-03T07:56:58Z</time>
      </trkpt>
      <trkpt lat="45.52947" lon="6.752">
        <ele>1962.4</ele>
        <time>2021-08-03T07:56:59Z</time>
      </trkpt>
      <trkpt lat="45.52947" lon="6.75201">
        <ele>1962.7</ele>
        <time>2021-08-03T07:57:00Z</time>
      </trkpt>
      <trkpt lat="45.52946" lon="6.75201">
        <ele>1962.9</ele>
        <time>2021-08-03T07:57:01Z</time>
      </trkpt>
      <trkpt lat="45.52946" lon="6.75201">
        <ele>1963.1</ele>
        <time>2021-08-03T07:57:02Z</time>
      </trkpt>
      <trkpt lat="45.52945" lon="6.75202">
        <ele>1963.3</ele>
        <time>2021-08-03T07:57:03Z</time>
      </trkpt>
      <trkpt lat="45.52945" lon="6.75202">
        <ele>1963.4</ele>
        <time>2021-08-03T07:57:04Z</time>
      </trkpt>
      <trkpt lat="45.52945" lon="6.75202">
        <ele>1963.6</ele>
        <time>2021-08-03T07:57:05Z</time>
      </trkpt>
      <trkpt lat="45.52945" lon="6.75202">
        <ele>1963.6</ele>
        <time>2021-08-03T07:57:06Z</time>
      </trkpt>
      <trkpt lat="45.52944" lon="6.75202">
        <ele>1963.7</ele>
        <time>2021-08-03T07:57:07Z</time>
      </trkpt>
      <trkpt lat="45.52944" lon="6.75202">
        <ele>1963.7</ele>
        <time>2021-08-03T07:57:08Z</time>
      </trkpt>
      <trkpt lat="45.52944" lon="6.75202">
        <ele>1963.7</ele>
        <time>2021-08-03T07:57:09Z</time>
      </trkpt>
      <trkpt lat="45.52944" lon="6.75202">
        <ele>1963.7</ele>
        <time>2021-08-03T07:57:10Z</time>
      </trkpt>
      <trkpt lat="45.52944" lon="6.75202">
        <ele>1963.8</ele>
        <time>2021-08-03T07:57:11Z</time>
      </trkpt>
      <trkpt lat="45.52944" lon="6.75202">
        <ele>1963.8</ele>
        <time>2021-08-03T07:57:12Z</time>
      </trkpt>
      <trkpt lat="45.52944" lon="6.75202">
        <ele>1963.8</ele>
        <time>2021-08-03T07:57:13Z</time>
      </trkpt>
      <trkpt lat="45.52944" lon="6.75202">
        <ele>1963.8</ele>
        <time>2021-08-03T07:57:14Z</time>
      </trkpt>
      <trkpt lat="45.52944" lon="6.75202">
        <ele>1963.8</ele>
        <time>2021-08-03T07:57:15Z</time>
      </trkpt>
      <trkpt lat="45.52944" lon="6.75202">
        <ele>1963.8</ele>
        <time>2021-08-03T07:57:16Z</time>
      </trkpt>
      <trkpt lat="45.52944" lon="6.75203">
        <ele>1963.9</ele>
        <time>2021-08-03T07:57:17Z</time>
      </trkpt>
      <trkpt lat="45.52944" lon="6.75203">
        <ele>1963.9</ele>
        <time>2021-08-03T07:57:18Z</time>
      </trkpt>
      <trkpt lat="45.52944" lon="6.75203">
        <ele>1964</ele>
        <time>2021-08-03T07:57:19Z</time>
      </trkpt>
      <trkpt lat="45.52944" lon="6.75203">
        <ele>1964.1</ele>
        <time>2021-08-03T07:57:20Z</time>
      </trkpt>
      <trkpt lat="45.52943" lon="6.75203">
        <ele>1964.2</ele>
        <time>2021-08-03T07:57:21Z</time>
      </trkpt>
      <trkpt lat="45.52943" lon="6.75203">
        <ele>1964.3</ele>
        <time>2021-08-03T07:57:22Z</time>
      </trkpt>
      <trkpt lat="45.52943" lon="6.75204">
        <ele>1964.5</ele>
        <time>2021-08-03T07:57:23Z</time>
      </trkpt>
      <trkpt lat="45.52942" lon="6.75204">
        <ele>1964.7</ele>
        <time>2021-08-03T07:57:24Z</time>
      </trkpt>
      <trkpt lat="45.52942" lon="6.75204">
        <ele>1964.9</ele>
        <time>2021-08-03T07:57:25Z</time>
      </trkpt>
      <trkpt lat="45.52941" lon="6.75205">
        <ele>1965.1</ele>
        <time>2021-08-03T07:57:26Z</time>
      </trkpt>
      <trkpt lat="45.52941" lon="6.75205">
        <ele>1965.3</ele>
        <time>2021-08-03T07:57:27Z</time>
      </trkpt>
      <trkpt lat="45.5294" lon="6.75205">
        <ele>1965.5</ele>
        <time>2021-08-03T07:57:28Z</time>
      </trkpt>
      <trkpt lat="45.5294" lon="6.75206">
        <ele>1965.7</ele>
        <time>2021-08-03T07:57:29Z</time>
      </trkpt>
      <trkpt lat="45.52939" lon="6.75206">
        <ele>1966</ele>
        <time>2021-08-03T07:57:30Z</time>
      </trkpt>
      <trkpt lat="45.52939" lon="6.75206">
        <ele>1966.2</ele>
        <time>2021-08-03T07:57:31Z</time>
      </trkpt>
      <trkpt lat="45.52938" lon="6.75207">
        <ele>1966.5</ele>
        <time>2021-08-03T07:57:32Z</time>
      </trkpt>
      <trkpt lat="45.52937" lon="6.75207">
        <ele>1966.7</ele>
        <time>2021-08-03T07:57:33Z</time>
      </trkpt>
      <trkpt lat="45.52937" lon="6.75207">
        <ele>1967</ele>
        <time>2021-08-03T07:57:34Z</time>
      </trkpt>
      <trkpt lat="45.52936" lon="6.75207">
        <ele>1967.2</ele>
        <time>2021-08-03T07:57:35Z</time>
      </trkpt>
      <trkpt lat="45.52936" lon="6.75208">
        <ele>1967.4</ele>
        <time>2021-08-03T07:57:36Z</time>
      </trkpt>
      <trkpt lat="45.52935" lon="6.75208">
        <ele>1967.7</ele>
        <time>2021-08-03T07:57:37Z</time>
      </trkpt>
      <trkpt lat="45.52934" lon="6.75208">
        <ele>1968</ele>
        <time>2021-08-03T07:57:38Z</time>
      </trkpt>
      <trkpt lat="45.52934" lon="6.75208">
        <ele>1968.2</ele>
        <time>2021-08-03T07:57:39Z</time>
      </trkpt>
      <trkpt lat="45.52933" lon="6.75208">
        <ele>1968.4</ele>
        <time>2021-08-03T07:57:40Z</time>
      </trkpt>
      <trkpt lat="45.52933" lon="6.75208">
        <ele>1968.6</ele>
        <time>2021-08-03T07:57:41Z</time>
      </trkpt>
      <trkpt lat="45.52932" lon="6.75208">
        <ele>1968.9</ele>
        <time>2021-08-03T07:57:42Z</time>
      </trkpt>
      <trkpt lat="45.52931" lon="6.75208">
        <ele>1969.1</ele>
        <time>2021-08-03T07:57:43Z</time>
      </trkpt>
      <trkpt lat="45.52931" lon="6.75207">
        <ele>1969.4</ele>
        <time>2021-08-03T07:57:44Z</time>
      </trkpt>
      <trkpt lat="45.5293" lon="6.75207">
        <ele>1969.6</ele>
        <time>2021-08-03T07:57:45Z</time>
      </trkpt>
      <trkpt lat="45.5293" lon="6.75208">
        <ele>1969.8</ele>
        <time>2021-08-03T07:57:46Z</time>
      </trkpt>
      <trkpt lat="45.52929" lon="6.75208">
        <ele>1970.1</ele>
        <time>2021-08-03T07:57:47Z</time>
      </trkpt>
      <trkpt lat="45.52929" lon="6.75209">
        <ele>1970.4</ele>
        <time>2021-08-03T07:57:48Z</time>
      </trkpt>
      <trkpt lat="45.52928" lon="6.7521">
        <ele>1970.7</ele>
        <time>2021-08-03T07:57:49Z</time>
      </trkpt>
      <trkpt lat="45.52927" lon="6.75211">
        <ele>1971</ele>
        <time>2021-08-03T07:57:50Z</time>
      </trkpt>
      <trkpt lat="45.52927" lon="6.75211">
        <ele>1971.2</ele>
        <time>2021-08-03T07:57:51Z</time>
      </trkpt>
      <trkpt lat="45.52926" lon="6.75212">
        <ele>1971.5</ele>
        <time>2021-08-03T07:57:52Z</time>
      </trkpt>
      <trkpt lat="45.52926" lon="6.75212">
        <ele>1971.7</ele>
        <time>2021-08-03T07:57:53Z</time>
      </trkpt>
      <trkpt lat="45.52925" lon="6.75212">
        <ele>1972</ele>
        <time>2021-08-03T07:57:54Z</time>
      </trkpt>
      <trkpt lat="45.52924" lon="6.75212">
        <ele>1972.2</ele>
        <time>2021-08-03T07:57:55Z</time>
      </trkpt>
      <trkpt lat="45.52924" lon="6.75213">
        <ele>1972.5</ele>
        <time>2021-08-03T07:57:56Z</time>
      </trkpt>
      <trkpt lat="45.52923" lon="6.75213">
        <ele>1972.7</ele>
        <time>2021-08-03T07:57:57Z</time>
      </trkpt>
      <trkpt lat="45.52923" lon="6.75213">
        <ele>1973</ele>
        <time>2021-08-03T07:57:58Z</time>
      </trkpt>
      <trkpt lat="45.52922" lon="6.75214">
        <ele>1973.2</ele>
        <time>2021-08-03T07:57:59Z</time>
      </trkpt>
      <trkpt lat="45.52921" lon="6.75214">
        <ele>1973.5</ele>
        <time>2021-08-03T07:58:00Z</time>
      </trkpt>
      <trkpt lat="45.52921" lon="6.75215">
        <ele>1973.7</ele>
        <time>2021-08-03T07:58:01Z</time>
      </trkpt>
      <trkpt lat="45.5292" lon="6.75215">
        <ele>1974</ele>
        <time>2021-08-03T07:58:02Z</time>
      </trkpt>
      <trkpt lat="45.5292" lon="6.75216">
        <ele>1974.2</ele>
        <time>2021-08-03T07:58:03Z</time>
      </trkpt>
      <trkpt lat="45.52919" lon="6.75216">
        <ele>1974.5</ele>
        <time>2021-08-03T07:58:04Z</time>
      </trkpt>
      <trkpt lat="45.52919" lon="6.75217">
        <ele>1974.7</ele>
        <time>2021-08-03T07:58:05Z</time>
      </trkpt>
      <trkpt lat="45.52918" lon="6.75217">
        <ele>1974.9</ele>
        <time>2021-08-03T07:58:06Z</time>
      </trkpt>
      <trkpt lat="45.52918" lon="6.75217">
        <ele>1975.1</ele>
        <time>2021-08-03T07:58:07Z</time>
      </trkpt>
      <trkpt lat="45.52917" lon="6.75217">
        <ele>1975.3</ele>
        <time>2021-08-03T07:58:08Z</time>
      </trkpt>
      <trkpt lat="45.52917" lon="6.75217">
        <ele>1975.5</ele>
        <time>2021-08-03T07:58:09Z</time>
      </trkpt>
      <trkpt lat="45.52916" lon="6.75217">
        <ele>1975.6</ele>
        <time>2021-08-03T07:58:10Z</time>
      </trkpt>
      <trkpt lat="45.52916" lon="6.75217">
        <ele>1975.7</ele>
        <time>2021-08-03T07:58:11Z</time>
      </trkpt>
      <trkpt lat="45.52916" lon="6.75217">
        <ele>1975.8</ele>
        <time>2021-08-03T07:58:12Z</time>
      </trkpt>
      <trkpt lat="45.52916" lon="6.75217">
        <ele>1975.9</ele>
        <time>2021-08-03T07:58:13Z</time>
      </trkpt>
      <trkpt lat="45.52915" lon="6.75218">
        <ele>1976</ele>
        <time>2021-08-03T07:58:14Z</time>
      </trkpt>
      <trkpt lat="45.52915" lon="6.75218">
        <ele>1976.1</ele>
        <time>2021-08-03T07:58:15Z</time>
      </trkpt>
      <trkpt lat="45.52915" lon="6.75218">
        <ele>1976.1</ele>
        <time>2021-08-03T07:58:16Z</time>
      </trkpt>
      <trkpt lat="45.52915" lon="6.75218">
        <ele>1976.2</ele>
        <time>2021-08-03T07:58:17Z</time>
      </trkpt>
      <trkpt lat="45.52915" lon="6.75218">
        <ele>1976.2</ele>
        <time>2021-08-03T07:58:18Z</time>
      </trkpt>
      <trkpt lat="45.52915" lon="6.75218">
        <ele>1976.2</ele>
        <time>2021-08-03T07:58:19Z</time>
      </trkpt>
      <trkpt lat="45.52915" lon="6.75218">
        <ele>1976.3</ele>
        <time>2021-08-03T07:58:20Z</time>
      </trkpt>
      <trkpt lat="45.52915" lon="6.75218">
        <ele>1976.4</ele>
        <time>2021-08-03T07:58:21Z</time>
      </trkpt>
      <trkpt lat="45.52914" lon="6.75218">
        <ele>1976.4</ele>
        <time>2021-08-03T07:58:22Z</time>
      </trkpt>
      <trkpt lat="45.52914" lon="6.75218">
        <ele>1976.5</ele>
        <time>2021-08-03T07:58:23Z</time>
      </trkpt>
      <trkpt lat="45.52914" lon="6.75218">
        <ele>1976.6</ele>
        <time>2021-08-03T07:58:24Z</time>
      </trkpt>
      <trkpt lat="45.52914" lon="6.75218">
        <ele>1976.7</ele>
        <time>2021-08-03T07:58:25Z</time>
      </trkpt>
      <trkpt lat="45.52913" lon="6.75218">
        <ele>1976.9</ele>
        <time>2021-08-03T07:58:26Z</time>
      </trkpt>
      <trkpt lat="45.52913" lon="6.75218">
        <ele>1977</ele>
        <time>2021-08-03T07:58:27Z</time>
      </trkpt>
      <trkpt lat="45.52912" lon="6.75218">
        <ele>1977.2</ele>
        <time>2021-08-03T07:58:28Z</time>
      </trkpt>
      <trkpt lat="45.52912" lon="6.75218">
        <ele>1977.4</ele>
        <time>2021-08-03T07:58:29Z</time>
      </trkpt>
      <trkpt lat="45.52912" lon="6.75218">
        <ele>1977.5</ele>
        <time>2021-08-03T07:58:30Z</time>
      </trkpt>
      <trkpt lat="45.52911" lon="6.75218">
        <ele>1977.7</ele>
        <time>2021-08-03T07:58:31Z</time>
      </trkpt>
      <trkpt lat="45.52911" lon="6.75218">
        <ele>1977.9</ele>
        <time>2021-08-03T07:58:32Z</time>
      </trkpt>
      <trkpt lat="45.5291" lon="6.75218">
        <ele>1978.1</ele>
        <time>2021-08-03T07:58:33Z</time>
      </trkpt>
      <trkpt lat="45.5291" lon="6.75218">
        <ele>1978.3</ele>
        <time>2021-08-03T07:58:34Z</time>
      </trkpt>
      <trkpt lat="45.52909" lon="6.75218">
        <ele>1978.4</ele>
        <time>2021-08-03T07:58:35Z</time>
      </trkpt>
      <trkpt lat="45.52909" lon="6.75218">
        <ele>1978.6</ele>
        <time>2021-08-03T07:58:36Z</time>
      </trkpt>
      <trkpt lat="45.52908" lon="6.75218">
        <ele>1978.8</ele>
        <time>2021-08-03T07:58:37Z</time>
      </trkpt>
      <trkpt lat="45.52908" lon="6.75218">
        <ele>1979</ele>
        <time>2021-08-03T07:58:38Z</time>
      </trkpt>
      <trkpt lat="45.52907" lon="6.75218">
        <ele>1979.1</ele>
        <time>2021-08-03T07:58:39Z</time>
      </trkpt>
      <trkpt lat="45.52907" lon="6.75218">
        <ele>1979.3</ele>
        <time>2021-08-03T07:58:40Z</time>
      </trkpt>
      <trkpt lat="45.52907" lon="6.75218">
        <ele>1979.4</ele>
        <time>2021-08-03T07:58:41Z</time>
      </trkpt>
      <trkpt lat="45.52906" lon="6.75218">
        <ele>1979.6</ele>
        <time>2021-08-03T07:58:42Z</time>
      </trkpt>
      <trkpt lat="45.52906" lon="6.75218">
        <ele>1979.7</ele>
        <time>2021-08-03T07:58:43Z</time>
      </trkpt>
      <trkpt lat="45.52906" lon="6.75219">
        <ele>1979.9</ele>
        <time>2021-08-03T07:58:44Z</time>
      </trkpt>
      <trkpt lat="45.52905" lon="6.75219">
        <ele>1980</ele>
        <time>2021-08-03T07:58:45Z</time>
      </trkpt>
      <trkpt lat="45.52905" lon="6.75219">
        <ele>1980.1</ele>
        <time>2021-08-03T07:58:46Z</time>
      </trkpt>
      <trkpt lat="45.52905" lon="6.75219">
        <ele>1980.2</ele>
        <time>2021-08-03T07:58:47Z</time>
      </trkpt>
      <trkpt lat="45.52904" lon="6.75219">
        <ele>1980.4</ele>
        <time>2021-08-03T07:58:48Z</time>
      </trkpt>
      <trkpt lat="45.52904" lon="6.75219">
        <ele>1980.5</ele>
        <time>2021-08-03T07:58:49Z</time>
      </trkpt>
      <trkpt lat="45.52904" lon="6.7522">
        <ele>1980.5</ele>
        <time>2021-08-03T07:58:50Z</time>
      </trkpt>
      <trkpt lat="45.52904" lon="6.7522">
        <ele>1980.7</ele>
        <time>2021-08-03T07:58:51Z</time>
      </trkpt>
      <trkpt lat="45.52903" lon="6.7522">
        <ele>1980.8</ele>
        <time>2021-08-03T07:58:52Z</time>
      </trkpt>
      <trkpt lat="45.52903" lon="6.7522">
        <ele>1980.8</ele>
        <time>2021-08-03T07:58:53Z</time>
      </trkpt>
      <trkpt lat="45.52903" lon="6.7522">
        <ele>1980.9</ele>
        <time>2021-08-03T07:58:54Z</time>
      </trkpt>
      <trkpt lat="45.52903" lon="6.7522">
        <ele>1981</ele>
        <time>2021-08-03T07:58:55Z</time>
      </trkpt>
      <trkpt lat="45.52903" lon="6.7522">
        <ele>1981</ele>
        <time>2021-08-03T07:58:56Z</time>
      </trkpt>
      <trkpt lat="45.52903" lon="6.7522">
        <ele>1981.1</ele>
        <time>2021-08-03T07:58:57Z</time>
      </trkpt>
      <trkpt lat="45.52903" lon="6.7522">
        <ele>1981.1</ele>
        <time>2021-08-03T07:58:58Z</time>
      </trkpt>
      <trkpt lat="45.52903" lon="6.75221">
        <ele>1981.2</ele>
        <time>2021-08-03T07:58:59Z</time>
      </trkpt>
      <trkpt lat="45.52902" lon="6.75221">
        <ele>1981.2</ele>
        <time>2021-08-03T07:59:00Z</time>
      </trkpt>
      <trkpt lat="45.52902" lon="6.75221">
        <ele>1981.2</ele>
        <time>2021-08-03T07:59:01Z</time>
      </trkpt>
      <trkpt lat="45.52902" lon="6.75221">
        <ele>1981.3</ele>
        <time>2021-08-03T07:59:02Z</time>
      </trkpt>
      <trkpt lat="45.52902" lon="6.75221">
        <ele>1981.3</ele>
        <time>2021-08-03T07:59:03Z</time>
      </trkpt>
      <trkpt lat="45.52902" lon="6.75221">
        <ele>1981.3</ele>
        <time>2021-08-03T07:59:04Z</time>
      </trkpt>
      <trkpt lat="45.52902" lon="6.75221">
        <ele>1981.3</ele>
        <time>2021-08-03T07:59:05Z</time>
      </trkpt>
      <trkpt lat="45.52902" lon="6.75221">
        <ele>1981.3</ele>
        <time>2021-08-03T07:59:06Z</time>
      </trkpt>
      <trkpt lat="45.52902" lon="6.75221">
        <ele>1981.3</ele>
        <time>2021-08-03T07:59:07Z</time>
      </trkpt>
      <trkpt lat="45.52902" lon="6.75221">
        <ele>1981.3</ele>
        <time>2021-08-03T07:59:08Z</time>
      </trkpt>
      <trkpt lat="45.52902" lon="6.75221">
        <ele>1981.3</ele>
        <time>2021-08-03T07:59:09Z</time>
      </trkpt>
      <trkpt lat="45.52902" lon="6.75221">
        <ele>1981.3</ele>
        <time>2021-08-03T07:59:10Z</time>
      </trkpt>
      <trkpt lat="45.52902" lon="6.75221">
        <ele>1981.3</ele>
        <time>2021-08-03T07:59:11Z</time>
      </trkpt>
      <trkpt lat="45.52902" lon="6.75221">
        <ele>1981.3</ele>
        <time>2021-08-03T07:59:12Z</time>
      </trkpt>
      <trkpt lat="45.52902" lon="6.75221">
        <ele>1981.3</ele>
        <time>2021-08-03T07:59:13Z</time>
      </trkpt>
      <trkpt lat="45.52902" lon="6.75221">
        <ele>1981.3</ele>
        <time>2021-08-03T07:59:14Z</time>
      </trkpt>
      <trkpt lat="45.52902" lon="6.75221">
        <ele>1981.4</ele>
        <time>2021-08-03T07:59:15Z</time>
      </trkpt>
      <trkpt lat="45.52902" lon="6.75221">
        <ele>1981.4</ele>
        <time>2021-08-03T07:59:16Z</time>
      </trkpt>
      <trkpt lat="45.52902" lon="6.75221">
        <ele>1981.4</ele>
        <time>2021-08-03T07:59:17Z</time>
      </trkpt>
      <trkpt lat="45.52902" lon="6.75221">
        <ele>1981.4</ele>
        <time>2021-08-03T07:59:18Z</time>
      </trkpt>
      <trkpt lat="45.52902" lon="6.75221">
        <ele>1981.4</ele>
        <time>2021-08-03T07:59:19Z</time>
      </trkpt>
      <trkpt lat="45.52902" lon="6.75221">
        <ele>1981.4</ele>
        <time>2021-08-03T07:59:20Z</time>
      </trkpt>
      <trkpt lat="45.52902" lon="6.75221">
        <ele>1981.4</ele>
        <time>2021-08-03T07:59:21Z</time>
      </trkpt>
      <trkpt lat="45.52902" lon="6.75221">
        <ele>1981.5</ele>
        <time>2021-08-03T07:59:22Z</time>
      </trkpt>
      <trkpt lat="45.52902" lon="6.75221">
        <ele>1981.5</ele>
        <time>2021-08-03T07:59:23Z</time>
      </trkpt>
      <trkpt lat="45.52902" lon="6.75221">
        <ele>1981.5</ele>
        <time>2021-08-03T07:59:24Z</time>
      </trkpt>
      <trkpt lat="45.52902" lon="6.75221">
        <ele>1981.5</ele>
        <time>2021-08-03T07:59:25Z</time>
      </trkpt>
      <trkpt lat="45.52902" lon="6.75221">
        <ele>1981.5</ele>
        <time>2021-08-03T07:59:26Z</time>
      </trkpt>
      <trkpt lat="45.52902" lon="6.75221">
        <ele>1981.5</ele>
        <time>2021-08-03T07:59:27Z</time>
      </trkpt>
      <trkpt lat="45.52902" lon="6.75221">
        <ele>1981.5</ele>
        <time>2021-08-03T07:59:28Z</time>
      </trkpt>
      <trkpt lat="45.52902" lon="6.75221">
        <ele>1981.5</ele>
        <time>2021-08-03T07:59:29Z</time>
      </trkpt>
      <trkpt lat="45.52902" lon="6.75221">
        <ele>1981.5</ele>
        <time>2021-08-03T07:59:30Z</time>
      </trkpt>
      <trkpt lat="45.52902" lon="6.75221">
        <ele>1981.5</ele>
        <time>2021-08-03T07:59:31Z</time>
      </trkpt>
      <trkpt lat="45.52902" lon="6.75221">
        <ele>1981.5</ele>
        <time>2021-08-03T07:59:32Z</time>
      </trkpt>
      <trkpt lat="45.52902" lon="6.75221">
        <ele>1981.5</ele>
        <time>2021-08-03T07:59:33Z</time>
      </trkpt>
      <trkpt lat="45.52902" lon="6.75221">
        <ele>1981.5</ele>
        <time>2021-08-03T07:59:34Z</time>
      </trkpt>
      <trkpt lat="45.52902" lon="6.75221">
        <ele>1981.5</ele>
        <time>2021-08-03T07:59:35Z</time>
      </trkpt>
      <trkpt lat="45.52902" lon="6.75221">
        <ele>1981.5</ele>
        <time>2021-08-03T07:59:36Z</time>
      </trkpt>
      <trkpt lat="45.52902" lon="6.75221">
        <ele>1981.5</ele>
        <time>2021-08-03T07:59:37Z</time>
      </trkpt>
      <trkpt lat="45.52902" lon="6.75221">
        <ele>1981.5</ele>
        <time>2021-08-03T07:59:38Z</time>
      </trkpt>
      <trkpt lat="45.52902" lon="6.75221">
        <ele>1981.5</ele>
        <time>2021-08-03T07:59:39Z</time>
      </trkpt>
      <trkpt lat="45.52902" lon="6.75221">
        <ele>1981.5</ele>
        <time>2021-08-03T07:59:40Z</time>
      </trkpt>
      <trkpt lat="45.52902" lon="6.75221">
        <ele>1981.5</ele>
        <time>2021-08-03T07:59:41Z</time>
      </trkpt>
      <trkpt lat="45.52902" lon="6.75221">
        <ele>1981.5</ele>
        <time>2021-08-03T07:59:42Z</time>
      </trkpt>
      <trkpt lat="45.52902" lon="6.75221">
        <ele>1981.5</ele>
        <time>2021-08-03T07:59:43Z</time>
      </trkpt>
      <trkpt lat="45.52902" lon="6.75221">
        <ele>1981.5</ele>
        <time>2021-08-03T07:59:44Z</time>
      </trkpt>
      <trkpt lat="45.52902" lon="6.75221">
        <ele>1981.5</ele>
        <time>2021-08-03T07:59:45Z</time>
      </trkpt>
      <trkpt lat="45.52902" lon="6.75221">
        <ele>1981.5</ele>
        <time>2021-08-03T07:59:46Z</time>
      </trkpt>
      <trkpt lat="45.52902" lon="6.75221">
        <ele>1981.5</ele>
        <time>2021-08-03T07:59:47Z</time>
      </trkpt>
      <trkpt lat="45.52902" lon="6.75221">
        <ele>1981.5</ele>
        <time>2021-08-03T07:59:48Z</time>
      </trkpt>
      <trkpt lat="45.52902" lon="6.75221">
        <ele>1981.6</ele>
        <time>2021-08-03T07:59:49Z</time>
      </trkpt>
      <trkpt lat="45.52902" lon="6.75221">
        <ele>1981.6</ele>
        <time>2021-08-03T07:59:50Z</time>
      </trkpt>
      <trkpt lat="45.52902" lon="6.75221">
        <ele>1981.7</ele>
        <time>2021-08-03T07:59:51Z</time>
      </trkpt>
      <trkpt lat="45.52902" lon="6.75221">
        <ele>1981.8</ele>
        <time>2021-08-03T07:59:52Z</time>
      </trkpt>
      <trkpt lat="45.52902" lon="6.75222">
        <ele>1981.9</ele>
        <time>2021-08-03T07:59:53Z</time>
      </trkpt>
      <trkpt lat="45.52901" lon="6.75222">
        <ele>1982</ele>
        <time>2021-08-03T07:59:54Z</time>
      </trkpt>
      <trkpt lat="45.52901" lon="6.75222">
        <ele>1982.1</ele>
        <time>2021-08-03T07:59:55Z</time>
      </trkpt>
      <trkpt lat="45.52901" lon="6.75223">
        <ele>1982.3</ele>
        <time>2021-08-03T07:59:56Z</time>
      </trkpt>
      <trkpt lat="45.529" lon="6.75223">
        <ele>1982.5</ele>
        <time>2021-08-03T07:59:57Z</time>
      </trkpt>
      <trkpt lat="45.529" lon="6.75223">
        <ele>1982.7</ele>
        <time>2021-08-03T07:59:58Z</time>
      </trkpt>
      <trkpt lat="45.529" lon="6.75224">
        <ele>1982.8</ele>
        <time>2021-08-03T07:59:59Z</time>
      </trkpt>
      <trkpt lat="45.52899" lon="6.75224">
        <ele>1983</ele>
        <time>2021-08-03T08:00:00Z</time>
      </trkpt>
      <trkpt lat="45.52899" lon="6.75225">
        <ele>1983.1</ele>
        <time>2021-08-03T08:00:01Z</time>
      </trkpt>
      <trkpt lat="45.52899" lon="6.75225">
        <ele>1983.2</ele>
        <time>2021-08-03T08:00:02Z</time>
      </trkpt>
      <trkpt lat="45.52899" lon="6.75225">
        <ele>1983.2</ele>
        <time>2021-08-03T08:00:03Z</time>
      </trkpt>
      <trkpt lat="45.52899" lon="6.75225">
        <ele>1983.2</ele>
        <time>2021-08-03T08:00:04Z</time>
      </trkpt>
      <trkpt lat="45.52899" lon="6.75225">
        <ele>1983.2</ele>
        <time>2021-08-03T08:00:05Z</time>
      </trkpt>
      <trkpt lat="45.52899" lon="6.75225">
        <ele>1983.2</ele>
        <time>2021-08-03T08:00:06Z</time>
      </trkpt>
      <trkpt lat="45.52899" lon="6.75225">
        <ele>1983.2</ele>
        <time>2021-08-03T08:00:07Z</time>
      </trkpt>
      <trkpt lat="45.52899" lon="6.75225">
        <ele>1983.3</ele>
        <time>2021-08-03T08:00:08Z</time>
      </trkpt>
      <trkpt lat="45.52899" lon="6.75225">
        <ele>1983.3</ele>
        <time>2021-08-03T08:00:09Z</time>
      </trkpt>
      <trkpt lat="45.52899" lon="6.75225">
        <ele>1983.4</ele>
        <time>2021-08-03T08:00:10Z</time>
      </trkpt>
      <trkpt lat="45.52898" lon="6.75225">
        <ele>1983.5</ele>
        <time>2021-08-03T08:00:11Z</time>
      </trkpt>
      <trkpt lat="45.52898" lon="6.75226">
        <ele>1983.7</ele>
        <time>2021-08-03T08:00:12Z</time>
      </trkpt>
      <trkpt lat="45.52898" lon="6.75226">
        <ele>1983.9</ele>
        <time>2021-08-03T08:00:13Z</time>
      </trkpt>
      <trkpt lat="45.52897" lon="6.75227">
        <ele>1984.2</ele>
        <time>2021-08-03T08:00:14Z</time>
      </trkpt>
      <trkpt lat="45.52897" lon="6.75228">
        <ele>1984.4</ele>
        <time>2021-08-03T08:00:15Z</time>
      </trkpt>
      <trkpt lat="45.52896" lon="6.75228">
        <ele>1984.7</ele>
        <time>2021-08-03T08:00:16Z</time>
      </trkpt>
      <trkpt lat="45.52895" lon="6.75228">
        <ele>1984.9</ele>
        <time>2021-08-03T08:00:17Z</time>
      </trkpt>
      <trkpt lat="45.52895" lon="6.75229">
        <ele>1985.1</ele>
        <time>2021-08-03T08:00:18Z</time>
      </trkpt>
      <trkpt lat="45.52894" lon="6.75229">
        <ele>1985.3</ele>
        <time>2021-08-03T08:00:19Z</time>
      </trkpt>
      <trkpt lat="45.52894" lon="6.75229">
        <ele>1985.6</ele>
        <time>2021-08-03T08:00:20Z</time>
      </trkpt>
      <trkpt lat="45.52893" lon="6.75229">
        <ele>1985.7</ele>
        <time>2021-08-03T08:00:21Z</time>
      </trkpt>
      <trkpt lat="45.52893" lon="6.75229">
        <ele>1986</ele>
        <time>2021-08-03T08:00:22Z</time>
      </trkpt>
      <trkpt lat="45.52892" lon="6.75229">
        <ele>1986.2</ele>
        <time>2021-08-03T08:00:23Z</time>
      </trkpt>
      <trkpt lat="45.52892" lon="6.75228">
        <ele>1986.4</ele>
        <time>2021-08-03T08:00:24Z</time>
      </trkpt>
      <trkpt lat="45.52891" lon="6.75228">
        <ele>1986.6</ele>
        <time>2021-08-03T08:00:25Z</time>
      </trkpt>
      <trkpt lat="45.5289" lon="6.75228">
        <ele>1986.8</ele>
        <time>2021-08-03T08:00:26Z</time>
      </trkpt>
      <trkpt lat="45.5289" lon="6.75228">
        <ele>1987</ele>
        <time>2021-08-03T08:00:27Z</time>
      </trkpt>
      <trkpt lat="45.52889" lon="6.75228">
        <ele>1987.3</ele>
        <time>2021-08-03T08:00:28Z</time>
      </trkpt>
      <trkpt lat="45.52889" lon="6.75227">
        <ele>1987.5</ele>
        <time>2021-08-03T08:00:29Z</time>
      </trkpt>
      <trkpt lat="45.52888" lon="6.75227">
        <ele>1987.7</ele>
        <time>2021-08-03T08:00:30Z</time>
      </trkpt>
      <trkpt lat="45.52888" lon="6.75227">
        <ele>1988</ele>
        <time>2021-08-03T08:00:31Z</time>
      </trkpt>
      <trkpt lat="45.52887" lon="6.75227">
        <ele>1988.1</ele>
        <time>2021-08-03T08:00:32Z</time>
      </trkpt>
      <trkpt lat="45.52887" lon="6.75227">
        <ele>1988.2</ele>
        <time>2021-08-03T08:00:33Z</time>
      </trkpt>
      <trkpt lat="45.52887" lon="6.75227">
        <ele>1988.3</ele>
        <time>2021-08-03T08:00:34Z</time>
      </trkpt>
      <trkpt lat="45.52886" lon="6.75227">
        <ele>1988.4</ele>
        <time>2021-08-03T08:00:35Z</time>
      </trkpt>
      <trkpt lat="45.52886" lon="6.75227">
        <ele>1988.5</ele>
        <time>2021-08-03T08:00:36Z</time>
      </trkpt>
      <trkpt lat="45.52886" lon="6.75227">
        <ele>1988.7</ele>
        <time>2021-08-03T08:00:37Z</time>
      </trkpt>
      <trkpt lat="45.52886" lon="6.75227">
        <ele>1988.8</ele>
        <time>2021-08-03T08:00:38Z</time>
      </trkpt>
      <trkpt lat="45.52885" lon="6.75227">
        <ele>1988.9</ele>
        <time>2021-08-03T08:00:39Z</time>
      </trkpt>
      <trkpt lat="45.52885" lon="6.75227">
        <ele>1989</ele>
        <time>2021-08-03T08:00:40Z</time>
      </trkpt>
      <trkpt lat="45.52885" lon="6.75227">
        <ele>1989.1</ele>
        <time>2021-08-03T08:00:41Z</time>
      </trkpt>
      <trkpt lat="45.52884" lon="6.75227">
        <ele>1989.2</ele>
        <time>2021-08-03T08:00:42Z</time>
      </trkpt>
      <trkpt lat="45.52884" lon="6.75227">
        <ele>1989.3</ele>
        <time>2021-08-03T08:00:43Z</time>
      </trkpt>
      <trkpt lat="45.52884" lon="6.75227">
        <ele>1989.4</ele>
        <time>2021-08-03T08:00:44Z</time>
      </trkpt>
      <trkpt lat="45.52884" lon="6.75227">
        <ele>1989.5</ele>
        <time>2021-08-03T08:00:45Z</time>
      </trkpt>
      <trkpt lat="45.52883" lon="6.75227">
        <ele>1989.6</ele>
        <time>2021-08-03T08:00:46Z</time>
      </trkpt>
      <trkpt lat="45.52883" lon="6.75227">
        <ele>1989.7</ele>
        <time>2021-08-03T08:00:47Z</time>
      </trkpt>
      <trkpt lat="45.52883" lon="6.75227">
        <ele>1989.9</ele>
        <time>2021-08-03T08:00:48Z</time>
      </trkpt>
      <trkpt lat="45.52883" lon="6.75227">
        <ele>1989.9</ele>
        <time>2021-08-03T08:00:49Z</time>
      </trkpt>
      <trkpt lat="45.52882" lon="6.75227">
        <ele>1990</ele>
        <time>2021-08-03T08:00:50Z</time>
      </trkpt>
      <trkpt lat="45.52882" lon="6.75227">
        <ele>1990.2</ele>
        <time>2021-08-03T08:00:51Z</time>
      </trkpt>
      <trkpt lat="45.52882" lon="6.75227">
        <ele>1990.3</ele>
        <time>2021-08-03T08:00:52Z</time>
      </trkpt>
      <trkpt lat="45.52881" lon="6.75227">
        <ele>1990.4</ele>
        <time>2021-08-03T08:00:53Z</time>
      </trkpt>
      <trkpt lat="45.52881" lon="6.75227">
        <ele>1990.5</ele>
        <time>2021-08-03T08:00:54Z</time>
      </trkpt>
      <trkpt lat="45.52881" lon="6.75227">
        <ele>1990.6</ele>
        <time>2021-08-03T08:00:55Z</time>
      </trkpt>
      <trkpt lat="45.52881" lon="6.75227">
        <ele>1990.7</ele>
        <time>2021-08-03T08:00:56Z</time>
      </trkpt>
      <trkpt lat="45.5288" lon="6.75226">
        <ele>1990.8</ele>
        <time>2021-08-03T08:00:57Z</time>
      </trkpt>
      <trkpt lat="45.5288" lon="6.75226">
        <ele>1990.9</ele>
        <time>2021-08-03T08:00:58Z</time>
      </trkpt>
      <trkpt lat="45.5288" lon="6.75226">
        <ele>1991</ele>
        <time>2021-08-03T08:00:59Z</time>
      </trkpt>
      <trkpt lat="45.52879" lon="6.75226">
        <ele>1991.1</ele>
        <time>2021-08-03T08:01:00Z</time>
      </trkpt>
      <trkpt lat="45.52879" lon="6.75226">
        <ele>1991.2</ele>
        <time>2021-08-03T08:01:01Z</time>
      </trkpt>
      <trkpt lat="45.52879" lon="6.75226">
        <ele>1991.4</ele>
        <time>2021-08-03T08:01:02Z</time>
      </trkpt>
      <trkpt lat="45.52879" lon="6.75226">
        <ele>1991.5</ele>
        <time>2021-08-03T08:01:03Z</time>
      </trkpt>
      <trkpt lat="45.52878" lon="6.75226">
        <ele>1991.6</ele>
        <time>2021-08-03T08:01:04Z</time>
      </trkpt>
      <trkpt lat="45.52878" lon="6.75226">
        <ele>1991.7</ele>
        <time>2021-08-03T08:01:05Z</time>
      </trkpt>
      <trkpt lat="45.52878" lon="6.75226">
        <ele>1991.8</ele>
        <time>2021-08-03T08:01:06Z</time>
      </trkpt>
      <trkpt lat="45.52877" lon="6.75226">
        <ele>1991.9</ele>
        <time>2021-08-03T08:01:07Z</time>
      </trkpt>
      <trkpt lat="45.52877" lon="6.75226">
        <ele>1992</ele>
        <time>2021-08-03T08:01:08Z</time>
      </trkpt>
      <trkpt lat="45.52877" lon="6.75226">
        <ele>1992.1</ele>
        <time>2021-08-03T08:01:09Z</time>
      </trkpt>
      <trkpt lat="45.52877" lon="6.75226">
        <ele>1992.2</ele>
        <time>2021-08-03T08:01:10Z</time>
      </trkpt>
      <trkpt lat="45.52876" lon="6.75226">
        <ele>1992.3</ele>
        <time>2021-08-03T08:01:11Z</time>
      </trkpt>
      <trkpt lat="45.52876" lon="6.75226">
        <ele>1992.4</ele>
        <time>2021-08-03T08:01:12Z</time>
      </trkpt>
      <trkpt lat="45.52876" lon="6.75226">
        <ele>1992.5</ele>
        <time>2021-08-03T08:01:13Z</time>
      </trkpt>
      <trkpt lat="45.52875" lon="6.75226">
        <ele>1992.7</ele>
        <time>2021-08-03T08:01:14Z</time>
      </trkpt>
      <trkpt lat="45.52875" lon="6.75226">
        <ele>1992.8</ele>
        <time>2021-08-03T08:01:15Z</time>
      </trkpt>
      <trkpt lat="45.52875" lon="6.75226">
        <ele>1992.8</ele>
        <time>2021-08-03T08:01:16Z</time>
      </trkpt>
      <trkpt lat="45.52875" lon="6.75226">
        <ele>1993</ele>
        <time>2021-08-03T08:01:17Z</time>
      </trkpt>
      <trkpt lat="45.52874" lon="6.75226">
        <ele>1993.1</ele>
        <time>2021-08-03T08:01:18Z</time>
      </trkpt>
      <trkpt lat="45.52874" lon="6.75226">
        <ele>1993.2</ele>
        <time>2021-08-03T08:01:19Z</time>
      </trkpt>
      <trkpt lat="45.52874" lon="6.75226">
        <ele>1993.3</ele>
        <time>2021-08-03T08:01:20Z</time>
      </trkpt>
      <trkpt lat="45.52873" lon="6.75226">
        <ele>1993.4</ele>
        <time>2021-08-03T08:01:21Z</time>
      </trkpt>
      <trkpt lat="45.52873" lon="6.75226">
        <ele>1993.5</ele>
        <time>2021-08-03T08:01:22Z</time>
      </trkpt>
      <trkpt lat="45.52873" lon="6.75226">
        <ele>1993.6</ele>
        <time>2021-08-03T08:01:23Z</time>
      </trkpt>
      <trkpt lat="45.52873" lon="6.75226">
        <ele>1993.7</ele>
        <time>2021-08-03T08:01:24Z</time>
      </trkpt>
      <trkpt lat="45.52872" lon="6.75226">
        <ele>1993.8</ele>
        <time>2021-08-03T08:01:25Z</time>
      </trkpt>
      <trkpt lat="45.52872" lon="6.75226">
        <ele>1994</ele>
        <time>2021-08-03T08:01:26Z</time>
      </trkpt>
      <trkpt lat="45.52872" lon="6.75226">
        <ele>1994</ele>
        <time>2021-08-03T08:01:27Z</time>
      </trkpt>
      <trkpt lat="45.52872" lon="6.75226">
        <ele>1994.2</ele>
        <time>2021-08-03T08:01:28Z</time>
      </trkpt>
      <trkpt lat="45.52871" lon="6.75226">
        <ele>1994.3</ele>
        <time>2021-08-03T08:01:29Z</time>
      </trkpt>
      <trkpt lat="45.52871" lon="6.75226">
        <ele>1994.4</ele>
        <time>2021-08-03T08:01:30Z</time>
      </trkpt>
      <trkpt lat="45.52871" lon="6.75226">
        <ele>1994.5</ele>
        <time>2021-08-03T08:01:31Z</time>
      </trkpt>
      <trkpt lat="45.5287" lon="6.75226">
        <ele>1994.6</ele>
        <time>2021-08-03T08:01:32Z</time>
      </trkpt>
      <trkpt lat="45.5287" lon="6.75226">
        <ele>1994.7</ele>
        <time>2021-08-03T08:01:33Z</time>
      </trkpt>
      <trkpt lat="45.5287" lon="6.75226">
        <ele>1994.8</ele>
        <time>2021-08-03T08:01:34Z</time>
      </trkpt>
      <trkpt lat="45.5287" lon="6.75226">
        <ele>1994.9</ele>
        <time>2021-08-03T08:01:35Z</time>
      </trkpt>
      <trkpt lat="45.52869" lon="6.75226">
        <ele>1995</ele>
        <time>2021-08-03T08:01:36Z</time>
      </trkpt>
      <trkpt lat="45.52869" lon="6.75226">
        <ele>1995.2</ele>
        <time>2021-08-03T08:01:37Z</time>
      </trkpt>
      <trkpt lat="45.52869" lon="6.75226">
        <ele>1995.2</ele>
        <time>2021-08-03T08:01:38Z</time>
      </trkpt>
      <trkpt lat="45.52868" lon="6.75226">
        <ele>1995.3</ele>
        <time>2021-08-03T08:01:39Z</time>
      </trkpt>
      <trkpt lat="45.52868" lon="6.75226">
        <ele>1995.5</ele>
        <time>2021-08-03T08:01:40Z</time>
      </trkpt>
      <trkpt lat="45.52868" lon="6.75226">
        <ele>1995.6</ele>
        <time>2021-08-03T08:01:41Z</time>
      </trkpt>
      <trkpt lat="45.52868" lon="6.75226">
        <ele>1995.7</ele>
        <time>2021-08-03T08:01:42Z</time>
      </trkpt>
      <trkpt lat="45.52867" lon="6.75226">
        <ele>1995.8</ele>
        <time>2021-08-03T08:01:43Z</time>
      </trkpt>
      <trkpt lat="45.52867" lon="6.75226">
        <ele>1995.9</ele>
        <time>2021-08-03T08:01:44Z</time>
      </trkpt>
      <trkpt lat="45.52867" lon="6.75226">
        <ele>1996</ele>
        <time>2021-08-03T08:01:45Z</time>
      </trkpt>
      <trkpt lat="45.52866" lon="6.75226">
        <ele>1996.1</ele>
        <time>2021-08-03T08:01:46Z</time>
      </trkpt>
      <trkpt lat="45.52866" lon="6.75226">
        <ele>1996.2</ele>
        <time>2021-08-03T08:01:47Z</time>
      </trkpt>
      <trkpt lat="45.52866" lon="6.75226">
        <ele>1996.3</ele>
        <time>2021-08-03T08:01:48Z</time>
      </trkpt>
      <trkpt lat="45.52866" lon="6.75226">
        <ele>1996.4</ele>
        <time>2021-08-03T08:01:49Z</time>
      </trkpt>
      <trkpt lat="45.52865" lon="6.75226">
        <ele>1996.5</ele>
        <time>2021-08-03T08:01:50Z</time>
      </trkpt>
      <trkpt lat="45.52865" lon="6.75226">
        <ele>1996.7</ele>
        <time>2021-08-03T08:01:51Z</time>
      </trkpt>
      <trkpt lat="45.52865" lon="6.75226">
        <ele>1996.8</ele>
        <time>2021-08-03T08:01:52Z</time>
      </trkpt>
      <trkpt lat="45.52864" lon="6.75226">
        <ele>1996.9</ele>
        <time>2021-08-03T08:01:53Z</time>
      </trkpt>
      <trkpt lat="45.52864" lon="6.75226">
        <ele>1997</ele>
        <time>2021-08-03T08:01:54Z</time>
      </trkpt>
      <trkpt lat="45.52864" lon="6.75226">
        <ele>1997.1</ele>
        <time>2021-08-03T08:01:55Z</time>
      </trkpt>
      <trkpt lat="45.52864" lon="6.75226">
        <ele>1997.2</ele>
        <time>2021-08-03T08:01:56Z</time>
      </trkpt>
      <trkpt lat="45.52863" lon="6.75226">
        <ele>1997.3</ele>
        <time>2021-08-03T08:01:57Z</time>
      </trkpt>
      <trkpt lat="45.52863" lon="6.75227">
        <ele>1997.4</ele>
        <time>2021-08-03T08:01:58Z</time>
      </trkpt>
      <trkpt lat="45.52863" lon="6.75227">
        <ele>1997.5</ele>
        <time>2021-08-03T08:01:59Z</time>
      </trkpt>
      <trkpt lat="45.52863" lon="6.75227">
        <ele>1997.6</ele>
        <time>2021-08-03T08:02:00Z</time>
      </trkpt>
      <trkpt lat="45.52863" lon="6.75227">
        <ele>1997.7</ele>
        <time>2021-08-03T08:02:01Z</time>
      </trkpt>
      <trkpt lat="45.52863" lon="6.75227">
        <ele>1997.7</ele>
        <time>2021-08-03T08:02:02Z</time>
      </trkpt>
      <trkpt lat="45.52863" lon="6.75227">
        <ele>1997.8</ele>
        <time>2021-08-03T08:02:03Z</time>
      </trkpt>
      <trkpt lat="45.52863" lon="6.75228">
        <ele>1997.8</ele>
        <time>2021-08-03T08:02:04Z</time>
      </trkpt>
      <trkpt lat="45.52862" lon="6.75228">
        <ele>1997.8</ele>
        <time>2021-08-03T08:02:05Z</time>
      </trkpt>
      <trkpt lat="45.52862" lon="6.75228">
        <ele>1997.8</ele>
        <time>2021-08-03T08:02:06Z</time>
      </trkpt>
      <trkpt lat="45.52862" lon="6.75228">
        <ele>1997.8</ele>
        <time>2021-08-03T08:02:07Z</time>
      </trkpt>
      <trkpt lat="45.52862" lon="6.75228">
        <ele>1997.8</ele>
        <time>2021-08-03T08:02:08Z</time>
      </trkpt>
      <trkpt lat="45.52863" lon="6.75228">
        <ele>1997.9</ele>
        <time>2021-08-03T08:02:09Z</time>
      </trkpt>
      <trkpt lat="45.52863" lon="6.75228">
        <ele>1997.9</ele>
        <time>2021-08-03T08:02:10Z</time>
      </trkpt>
      <trkpt lat="45.52863" lon="6.75228">
        <ele>1997.9</ele>
        <time>2021-08-03T08:02:11Z</time>
      </trkpt>
      <trkpt lat="45.52863" lon="6.75228">
        <ele>1997.9</ele>
        <time>2021-08-03T08:02:12Z</time>
      </trkpt>
      <trkpt lat="45.52862" lon="6.75227">
        <ele>1997.9</ele>
        <time>2021-08-03T08:02:13Z</time>
      </trkpt>
      <trkpt lat="45.52862" lon="6.75227">
        <ele>1997.9</ele>
        <time>2021-08-03T08:02:14Z</time>
      </trkpt>
      <trkpt lat="45.52862" lon="6.75227">
        <ele>1998</ele>
        <time>2021-08-03T08:02:15Z</time>
      </trkpt>
      <trkpt lat="45.52862" lon="6.75227">
        <ele>1998</ele>
        <time>2021-08-03T08:02:16Z</time>
      </trkpt>
      <trkpt lat="45.52862" lon="6.75227">
        <ele>1998</ele>
        <time>2021-08-03T08:02:17Z</time>
      </trkpt>
      <trkpt lat="45.52862" lon="6.75227">
        <ele>1998.1</ele>
        <time>2021-08-03T08:02:18Z</time>
      </trkpt>
      <trkpt lat="45.52862" lon="6.75227">
        <ele>1998.2</ele>
        <time>2021-08-03T08:02:19Z</time>
      </trkpt>
      <trkpt lat="45.52862" lon="6.75227">
        <ele>1998.3</ele>
        <time>2021-08-03T08:02:20Z</time>
      </trkpt>
      <trkpt lat="45.52861" lon="6.75227">
        <ele>1998.4</ele>
        <time>2021-08-03T08:02:21Z</time>
      </trkpt>
      <trkpt lat="45.52861" lon="6.75227">
        <ele>1998.5</ele>
        <time>2021-08-03T08:02:22Z</time>
      </trkpt>
      <trkpt lat="45.52861" lon="6.75228">
        <ele>1998.6</ele>
        <time>2021-08-03T08:02:23Z</time>
      </trkpt>
      <trkpt lat="45.5286" lon="6.75228">
        <ele>1998.8</ele>
        <time>2021-08-03T08:02:24Z</time>
      </trkpt>
      <trkpt lat="45.5286" lon="6.75228">
        <ele>1998.9</ele>
        <time>2021-08-03T08:02:25Z</time>
      </trkpt>
      <trkpt lat="45.5286" lon="6.75228">
        <ele>1999</ele>
        <time>2021-08-03T08:02:26Z</time>
      </trkpt>
      <trkpt lat="45.52859" lon="6.75228">
        <ele>1999.2</ele>
        <time>2021-08-03T08:02:27Z</time>
      </trkpt>
      <trkpt lat="45.52859" lon="6.75228">
        <ele>1999.3</ele>
        <time>2021-08-03T08:02:28Z</time>
      </trkpt>
      <trkpt lat="45.52858" lon="6.75228">
        <ele>1999.5</ele>
        <time>2021-08-03T08:02:29Z</time>
      </trkpt>
      <trkpt lat="45.52858" lon="6.75228">
        <ele>1999.6</ele>
        <time>2021-08-03T08:02:30Z</time>
      </trkpt>
      <trkpt lat="45.52858" lon="6.75228">
        <ele>1999.7</ele>
        <time>2021-08-03T08:02:31Z</time>
      </trkpt>
      <trkpt lat="45.52857" lon="6.75228">
        <ele>1999.9</ele>
        <time>2021-08-03T08:02:32Z</time>
      </trkpt>
      <trkpt lat="45.52857" lon="6.75228">
        <ele>2000</ele>
        <time>2021-08-03T08:02:33Z</time>
      </trkpt>
      <trkpt lat="45.52857" lon="6.75228">
        <ele>2000.1</ele>
        <time>2021-08-03T08:02:34Z</time>
      </trkpt>
      <trkpt lat="45.52857" lon="6.75228">
        <ele>2000.2</ele>
        <time>2021-08-03T08:02:35Z</time>
      </trkpt>
      <trkpt lat="45.52856" lon="6.75228">
        <ele>2000.2</ele>
        <time>2021-08-03T08:02:36Z</time>
      </trkpt>
      <trkpt lat="45.52856" lon="6.75228">
        <ele>2000.3</ele>
        <time>2021-08-03T08:02:37Z</time>
      </trkpt>
      <trkpt lat="45.52856" lon="6.75228">
        <ele>2000.5</ele>
        <time>2021-08-03T08:02:38Z</time>
      </trkpt>
      <trkpt lat="45.52855" lon="6.75228">
        <ele>2000.6</ele>
        <time>2021-08-03T08:02:39Z</time>
      </trkpt>
      <trkpt lat="45.52855" lon="6.75228">
        <ele>2000.8</ele>
        <time>2021-08-03T08:02:40Z</time>
      </trkpt>
      <trkpt lat="45.52855" lon="6.75228">
        <ele>2000.9</ele>
        <time>2021-08-03T08:02:41Z</time>
      </trkpt>
      <trkpt lat="45.52854" lon="6.75228">
        <ele>2001</ele>
        <time>2021-08-03T08:02:42Z</time>
      </trkpt>
      <trkpt lat="45.52854" lon="6.75228">
        <ele>2001.1</ele>
        <time>2021-08-03T08:02:43Z</time>
      </trkpt>
      <trkpt lat="45.52854" lon="6.75229">
        <ele>2001.3</ele>
        <time>2021-08-03T08:02:44Z</time>
      </trkpt>
      <trkpt lat="45.52854" lon="6.75229">
        <ele>2001.4</ele>
        <time>2021-08-03T08:02:45Z</time>
      </trkpt>
      <trkpt lat="45.52853" lon="6.75229">
        <ele>2001.5</ele>
        <time>2021-08-03T08:02:46Z</time>
      </trkpt>
      <trkpt lat="45.52853" lon="6.75229">
        <ele>2001.6</ele>
        <time>2021-08-03T08:02:47Z</time>
      </trkpt>
      <trkpt lat="45.52853" lon="6.75229">
        <ele>2001.8</ele>
        <time>2021-08-03T08:02:48Z</time>
      </trkpt>
      <trkpt lat="45.52852" lon="6.75229">
        <ele>2001.9</ele>
        <time>2021-08-03T08:02:49Z</time>
      </trkpt>
      <trkpt lat="45.52852" lon="6.75229">
        <ele>2002</ele>
        <time>2021-08-03T08:02:50Z</time>
      </trkpt>
      <trkpt lat="45.52852" lon="6.75229">
        <ele>2002.1</ele>
        <time>2021-08-03T08:02:51Z</time>
      </trkpt>
      <trkpt lat="45.52851" lon="6.75229">
        <ele>2002.3</ele>
        <time>2021-08-03T08:02:52Z</time>
      </trkpt>
      <trkpt lat="45.52851" lon="6.75229">
        <ele>2002.4</ele>
        <time>2021-08-03T08:02:53Z</time>
      </trkpt>
      <trkpt lat="45.52851" lon="6.75229">
        <ele>2002.5</ele>
        <time>2021-08-03T08:02:54Z</time>
      </trkpt>
      <trkpt lat="45.5285" lon="6.75229">
        <ele>2002.6</ele>
        <time>2021-08-03T08:02:55Z</time>
      </trkpt>
      <trkpt lat="45.5285" lon="6.75229">
        <ele>2002.7</ele>
        <time>2021-08-03T08:02:56Z</time>
      </trkpt>
      <trkpt lat="45.5285" lon="6.75229">
        <ele>2002.9</ele>
        <time>2021-08-03T08:02:57Z</time>
      </trkpt>
      <trkpt lat="45.52849" lon="6.75229">
        <ele>2003</ele>
        <time>2021-08-03T08:02:58Z</time>
      </trkpt>
      <trkpt lat="45.52849" lon="6.75229">
        <ele>2003.1</ele>
        <time>2021-08-03T08:02:59Z</time>
      </trkpt>
      <trkpt lat="45.52849" lon="6.75229">
        <ele>2003.2</ele>
        <time>2021-08-03T08:03:00Z</time>
      </trkpt>
      <trkpt lat="45.52848" lon="6.7523">
        <ele>2003.4</ele>
        <time>2021-08-03T08:03:01Z</time>
      </trkpt>
      <trkpt lat="45.52848" lon="6.7523">
        <ele>2003.5</ele>
        <time>2021-08-03T08:03:02Z</time>
      </trkpt>
      <trkpt lat="45.52848" lon="6.7523">
        <ele>2003.6</ele>
        <time>2021-08-03T08:03:03Z</time>
      </trkpt>
      <trkpt lat="45.52847" lon="6.7523">
        <ele>2003.7</ele>
        <time>2021-08-03T08:03:04Z</time>
      </trkpt>
      <trkpt lat="45.52847" lon="6.7523">
        <ele>2003.9</ele>
        <time>2021-08-03T08:03:05Z</time>
      </trkpt>
      <trkpt lat="45.52847" lon="6.7523">
        <ele>2004</ele>
        <time>2021-08-03T08:03:06Z</time>
      </trkpt>
      <trkpt lat="45.52847" lon="6.7523">
        <ele>2004.1</ele>
        <time>2021-08-03T08:03:07Z</time>
      </trkpt>
      <trkpt lat="45.52846" lon="6.7523">
        <ele>2004.2</ele>
        <time>2021-08-03T08:03:08Z</time>
      </trkpt>
      <trkpt lat="45.52846" lon="6.7523">
        <ele>2004.4</ele>
        <time>2021-08-03T08:03:09Z</time>
      </trkpt>
      <trkpt lat="45.52846" lon="6.7523">
        <ele>2004.5</ele>
        <time>2021-08-03T08:03:10Z</time>
      </trkpt>
      <trkpt lat="45.52845" lon="6.7523">
        <ele>2004.6</ele>
        <time>2021-08-03T08:03:11Z</time>
      </trkpt>
      <trkpt lat="45.52845" lon="6.7523">
        <ele>2004.7</ele>
        <time>2021-08-03T08:03:12Z</time>
      </trkpt>
      <trkpt lat="45.52845" lon="6.7523">
        <ele>2004.9</ele>
        <time>2021-08-03T08:03:13Z</time>
      </trkpt>
      <trkpt lat="45.52844" lon="6.7523">
        <ele>2005</ele>
        <time>2021-08-03T08:03:14Z</time>
      </trkpt>
      <trkpt lat="45.52844" lon="6.7523">
        <ele>2005.1</ele>
        <time>2021-08-03T08:03:15Z</time>
      </trkpt>
      <trkpt lat="45.52844" lon="6.7523">
        <ele>2005.2</ele>
        <time>2021-08-03T08:03:16Z</time>
      </trkpt>
      <trkpt lat="45.52843" lon="6.7523">
        <ele>2005.3</ele>
        <time>2021-08-03T08:03:17Z</time>
      </trkpt>
      <trkpt lat="45.52843" lon="6.7523">
        <ele>2005.4</ele>
        <time>2021-08-03T08:03:18Z</time>
      </trkpt>
      <trkpt lat="45.52843" lon="6.75231">
        <ele>2005.6</ele>
        <time>2021-08-03T08:03:19Z</time>
      </trkpt>
      <trkpt lat="45.52842" lon="6.75231">
        <ele>2005.7</ele>
        <time>2021-08-03T08:03:20Z</time>
      </trkpt>
      <trkpt lat="45.52842" lon="6.75231">
        <ele>2005.8</ele>
        <time>2021-08-03T08:03:21Z</time>
      </trkpt>
      <trkpt lat="45.52842" lon="6.75231">
        <ele>2006.1</ele>
        <time>2021-08-03T08:03:22Z</time>
      </trkpt>
      <trkpt lat="45.52841" lon="6.75232">
        <ele>2006.3</ele>
        <time>2021-08-03T08:03:23Z</time>
      </trkpt>
      <trkpt lat="45.52841" lon="6.75232">
        <ele>2006.6</ele>
        <time>2021-08-03T08:03:24Z</time>
      </trkpt>
      <trkpt lat="45.5284" lon="6.75233">
        <ele>2006.8</ele>
        <time>2021-08-03T08:03:25Z</time>
      </trkpt>
      <trkpt lat="45.5284" lon="6.75234">
        <ele>2007.1</ele>
        <time>2021-08-03T08:03:26Z</time>
      </trkpt>
      <trkpt lat="45.52839" lon="6.75234">
        <ele>2007.4</ele>
        <time>2021-08-03T08:03:27Z</time>
      </trkpt>
      <trkpt lat="45.52839" lon="6.75234">
        <ele>2007.5</ele>
        <time>2021-08-03T08:03:28Z</time>
      </trkpt>
      <trkpt lat="45.52839" lon="6.75234">
        <ele>2007.6</ele>
        <time>2021-08-03T08:03:29Z</time>
      </trkpt>
      <trkpt lat="45.52838" lon="6.75235">
        <ele>2007.7</ele>
        <time>2021-08-03T08:03:30Z</time>
      </trkpt>
      <trkpt lat="45.52838" lon="6.75235">
        <ele>2007.8</ele>
        <time>2021-08-03T08:03:31Z</time>
      </trkpt>
      <trkpt lat="45.52838" lon="6.75235">
        <ele>2007.9</ele>
        <time>2021-08-03T08:03:32Z</time>
      </trkpt>
      <trkpt lat="45.52838" lon="6.75235">
        <ele>2007.9</ele>
        <time>2021-08-03T08:03:33Z</time>
      </trkpt>
      <trkpt lat="45.52837" lon="6.75235">
        <ele>2008.1</ele>
        <time>2021-08-03T08:03:34Z</time>
      </trkpt>
      <trkpt lat="45.52837" lon="6.75235">
        <ele>2008.1</ele>
        <time>2021-08-03T08:03:35Z</time>
      </trkpt>
      <trkpt lat="45.52837" lon="6.75235">
        <ele>2008.2</ele>
        <time>2021-08-03T08:03:36Z</time>
      </trkpt>
      <trkpt lat="45.52837" lon="6.75235">
        <ele>2008.3</ele>
        <time>2021-08-03T08:03:37Z</time>
      </trkpt>
      <trkpt lat="45.52836" lon="6.75235">
        <ele>2008.4</ele>
        <time>2021-08-03T08:03:38Z</time>
      </trkpt>
      <trkpt lat="45.52836" lon="6.75235">
        <ele>2008.5</ele>
        <time>2021-08-03T08:03:39Z</time>
      </trkpt>
      <trkpt lat="45.52836" lon="6.75235">
        <ele>2008.6</ele>
        <time>2021-08-03T08:03:40Z</time>
      </trkpt>
      <trkpt lat="45.52836" lon="6.75235">
        <ele>2008.7</ele>
        <time>2021-08-03T08:03:41Z</time>
      </trkpt>
      <trkpt lat="45.52835" lon="6.75235">
        <ele>2008.8</ele>
        <time>2021-08-03T08:03:42Z</time>
      </trkpt>
      <trkpt lat="45.52835" lon="6.75235">
        <ele>2008.9</ele>
        <time>2021-08-03T08:03:43Z</time>
      </trkpt>
      <trkpt lat="45.52835" lon="6.75235">
        <ele>2009</ele>
        <time>2021-08-03T08:03:44Z</time>
      </trkpt>
      <trkpt lat="45.52835" lon="6.75235">
        <ele>2009.1</ele>
        <time>2021-08-03T08:03:45Z</time>
      </trkpt>
      <trkpt lat="45.52834" lon="6.75235">
        <ele>2009.2</ele>
        <time>2021-08-03T08:03:46Z</time>
      </trkpt>
      <trkpt lat="45.52834" lon="6.75235">
        <ele>2009.3</ele>
        <time>2021-08-03T08:03:47Z</time>
      </trkpt>
      <trkpt lat="45.52834" lon="6.75235">
        <ele>2009.4</ele>
        <time>2021-08-03T08:03:48Z</time>
      </trkpt>
      <trkpt lat="45.52834" lon="6.75235">
        <ele>2009.5</ele>
        <time>2021-08-03T08:03:49Z</time>
      </trkpt>
      <trkpt lat="45.52833" lon="6.75235">
        <ele>2009.6</ele>
        <time>2021-08-03T08:03:50Z</time>
      </trkpt>
      <trkpt lat="45.52833" lon="6.75235">
        <ele>2009.7</ele>
        <time>2021-08-03T08:03:51Z</time>
      </trkpt>
      <trkpt lat="45.52833" lon="6.75235">
        <ele>2009.7</ele>
        <time>2021-08-03T08:03:52Z</time>
      </trkpt>
      <trkpt lat="45.52833" lon="6.75235">
        <ele>2009.9</ele>
        <time>2021-08-03T08:03:53Z</time>
      </trkpt>
      <trkpt lat="45.52832" lon="6.75236">
        <ele>2009.9</ele>
        <time>2021-08-03T08:03:54Z</time>
      </trkpt>
      <trkpt lat="45.52832" lon="6.75236">
        <ele>2010.1</ele>
        <time>2021-08-03T08:03:55Z</time>
      </trkpt>
      <trkpt lat="45.52832" lon="6.75236">
        <ele>2010.1</ele>
        <time>2021-08-03T08:03:56Z</time>
      </trkpt>
      <trkpt lat="45.52832" lon="6.75236">
        <ele>2010.3</ele>
        <time>2021-08-03T08:03:57Z</time>
      </trkpt>
      <trkpt lat="45.52831" lon="6.75236">
        <ele>2010.3</ele>
        <time>2021-08-03T08:03:58Z</time>
      </trkpt>
      <trkpt lat="45.52831" lon="6.75236">
        <ele>2010.4</ele>
        <time>2021-08-03T08:03:59Z</time>
      </trkpt>
      <trkpt lat="45.52831" lon="6.75236">
        <ele>2010.5</ele>
        <time>2021-08-03T08:04:00Z</time>
      </trkpt>
      <trkpt lat="45.52831" lon="6.75236">
        <ele>2010.6</ele>
        <time>2021-08-03T08:04:01Z</time>
      </trkpt>
      <trkpt lat="45.5283" lon="6.75236">
        <ele>2010.7</ele>
        <time>2021-08-03T08:04:02Z</time>
      </trkpt>
      <trkpt lat="45.5283" lon="6.75236">
        <ele>2010.8</ele>
        <time>2021-08-03T08:04:03Z</time>
      </trkpt>
      <trkpt lat="45.5283" lon="6.75236">
        <ele>2010.9</ele>
        <time>2021-08-03T08:04:04Z</time>
      </trkpt>
      <trkpt lat="45.5283" lon="6.75236">
        <ele>2011</ele>
        <time>2021-08-03T08:04:05Z</time>
      </trkpt>
      <trkpt lat="45.52829" lon="6.75236">
        <ele>2011.1</ele>
        <time>2021-08-03T08:04:06Z</time>
      </trkpt>
      <trkpt lat="45.52829" lon="6.75236">
        <ele>2011.2</ele>
        <time>2021-08-03T08:04:07Z</time>
      </trkpt>
      <trkpt lat="45.52829" lon="6.75236">
        <ele>2011.3</ele>
        <time>2021-08-03T08:04:08Z</time>
      </trkpt>
      <trkpt lat="45.52829" lon="6.75236">
        <ele>2011.4</ele>
        <time>2021-08-03T08:04:09Z</time>
      </trkpt>
      <trkpt lat="45.52829" lon="6.75236">
        <ele>2011.5</ele>
        <time>2021-08-03T08:04:10Z</time>
      </trkpt>
      <trkpt lat="45.52828" lon="6.75236">
        <ele>2011.6</ele>
        <time>2021-08-03T08:04:11Z</time>
      </trkpt>
      <trkpt lat="45.52828" lon="6.75236">
        <ele>2011.7</ele>
        <time>2021-08-03T08:04:12Z</time>
      </trkpt>
      <trkpt lat="45.52828" lon="6.75236">
        <ele>2011.8</ele>
        <time>2021-08-03T08:04:13Z</time>
      </trkpt>
      <trkpt lat="45.52828" lon="6.75236">
        <ele>2011.9</ele>
        <time>2021-08-03T08:04:14Z</time>
      </trkpt>
      <trkpt lat="45.52827" lon="6.75236">
        <ele>2012</ele>
        <time>2021-08-03T08:04:15Z</time>
      </trkpt>
      <trkpt lat="45.52827" lon="6.75236">
        <ele>2012</ele>
        <time>2021-08-03T08:04:16Z</time>
      </trkpt>
      <trkpt lat="45.52827" lon="6.75236">
        <ele>2012.1</ele>
        <time>2021-08-03T08:04:17Z</time>
      </trkpt>
      <trkpt lat="45.52827" lon="6.75237">
        <ele>2012.2</ele>
        <time>2021-08-03T08:04:18Z</time>
      </trkpt>
      <trkpt lat="45.52826" lon="6.75237">
        <ele>2012.3</ele>
        <time>2021-08-03T08:04:19Z</time>
      </trkpt>
      <trkpt lat="45.52826" lon="6.75237">
        <ele>2012.4</ele>
        <time>2021-08-03T08:04:20Z</time>
      </trkpt>
      <trkpt lat="45.52826" lon="6.75237">
        <ele>2012.5</ele>
        <time>2021-08-03T08:04:21Z</time>
      </trkpt>
      <trkpt lat="45.52826" lon="6.75237">
        <ele>2012.6</ele>
        <time>2021-08-03T08:04:22Z</time>
      </trkpt>
      <trkpt lat="45.52825" lon="6.75237">
        <ele>2012.7</ele>
        <time>2021-08-03T08:04:23Z</time>
      </trkpt>
      <trkpt lat="45.52825" lon="6.75237">
        <ele>2012.8</ele>
        <time>2021-08-03T08:04:24Z</time>
      </trkpt>
      <trkpt lat="45.52825" lon="6.75237">
        <ele>2012.9</ele>
        <time>2021-08-03T08:04:25Z</time>
      </trkpt>
      <trkpt lat="45.52825" lon="6.75237">
        <ele>2013</ele>
        <time>2021-08-03T08:04:26Z</time>
      </trkpt>
      <trkpt lat="45.52824" lon="6.75237">
        <ele>2013.1</ele>
        <time>2021-08-03T08:04:27Z</time>
      </trkpt>
      <trkpt lat="45.52824" lon="6.75237">
        <ele>2013.2</ele>
        <time>2021-08-03T08:04:28Z</time>
      </trkpt>
      <trkpt lat="45.52824" lon="6.75237">
        <ele>2013.3</ele>
        <time>2021-08-03T08:04:29Z</time>
      </trkpt>
      <trkpt lat="45.52824" lon="6.75237">
        <ele>2013.4</ele>
        <time>2021-08-03T08:04:30Z</time>
      </trkpt>
      <trkpt lat="45.52823" lon="6.75237">
        <ele>2013.5</ele>
        <time>2021-08-03T08:04:31Z</time>
      </trkpt>
      <trkpt lat="45.52823" lon="6.75237">
        <ele>2013.6</ele>
        <time>2021-08-03T08:04:32Z</time>
      </trkpt>
      <trkpt lat="45.52823" lon="6.75237">
        <ele>2013.6</ele>
        <time>2021-08-03T08:04:33Z</time>
      </trkpt>
      <trkpt lat="45.52823" lon="6.75237">
        <ele>2013.8</ele>
        <time>2021-08-03T08:04:34Z</time>
      </trkpt>
      <trkpt lat="45.52822" lon="6.75237">
        <ele>2013.8</ele>
        <time>2021-08-03T08:04:35Z</time>
      </trkpt>
      <trkpt lat="45.52822" lon="6.75237">
        <ele>2013.9</ele>
        <time>2021-08-03T08:04:36Z</time>
      </trkpt>
      <trkpt lat="45.52822" lon="6.75237">
        <ele>2014</ele>
        <time>2021-08-03T08:04:37Z</time>
      </trkpt>
      <trkpt lat="45.52822" lon="6.75237">
        <ele>2014.1</ele>
        <time>2021-08-03T08:04:38Z</time>
      </trkpt>
      <trkpt lat="45.52821" lon="6.75237">
        <ele>2014.2</ele>
        <time>2021-08-03T08:04:39Z</time>
      </trkpt>
      <trkpt lat="45.52821" lon="6.75237">
        <ele>2014.3</ele>
        <time>2021-08-03T08:04:40Z</time>
      </trkpt>
      <trkpt lat="45.52821" lon="6.75238">
        <ele>2014.4</ele>
        <time>2021-08-03T08:04:41Z</time>
      </trkpt>
      <trkpt lat="45.52821" lon="6.75238">
        <ele>2014.5</ele>
        <time>2021-08-03T08:04:42Z</time>
      </trkpt>
      <trkpt lat="45.5282" lon="6.75238">
        <ele>2014.6</ele>
        <time>2021-08-03T08:04:43Z</time>
      </trkpt>
      <trkpt lat="45.5282" lon="6.75238">
        <ele>2014.7</ele>
        <time>2021-08-03T08:04:44Z</time>
      </trkpt>
      <trkpt lat="45.5282" lon="6.75238">
        <ele>2014.8</ele>
        <time>2021-08-03T08:04:45Z</time>
      </trkpt>
      <trkpt lat="45.5282" lon="6.75238">
        <ele>2014.9</ele>
        <time>2021-08-03T08:04:46Z</time>
      </trkpt>
      <trkpt lat="45.52819" lon="6.75238">
        <ele>2015</ele>
        <time>2021-08-03T08:04:47Z</time>
      </trkpt>
      <trkpt lat="45.52819" lon="6.75238">
        <ele>2015.1</ele>
        <time>2021-08-03T08:04:48Z</time>
      </trkpt>
      <trkpt lat="45.52819" lon="6.75238">
        <ele>2015.2</ele>
        <time>2021-08-03T08:04:49Z</time>
      </trkpt>
      <trkpt lat="45.52819" lon="6.75238">
        <ele>2015.3</ele>
        <time>2021-08-03T08:04:50Z</time>
      </trkpt>
      <trkpt lat="45.52819" lon="6.75238">
        <ele>2015.4</ele>
        <time>2021-08-03T08:04:51Z</time>
      </trkpt>
      <trkpt lat="45.52818" lon="6.75238">
        <ele>2015.5</ele>
        <time>2021-08-03T08:04:52Z</time>
      </trkpt>
      <trkpt lat="45.52818" lon="6.75238">
        <ele>2015.6</ele>
        <time>2021-08-03T08:04:53Z</time>
      </trkpt>
      <trkpt lat="45.52818" lon="6.75238">
        <ele>2015.7</ele>
        <time>2021-08-03T08:04:54Z</time>
      </trkpt>
      <trkpt lat="45.52818" lon="6.75238">
        <ele>2015.7</ele>
        <time>2021-08-03T08:04:55Z</time>
      </trkpt>
      <trkpt lat="45.52817" lon="6.75238">
        <ele>2015.9</ele>
        <time>2021-08-03T08:04:56Z</time>
      </trkpt>
      <trkpt lat="45.52817" lon="6.75238">
        <ele>2015.9</ele>
        <time>2021-08-03T08:04:57Z</time>
      </trkpt>
      <trkpt lat="45.52817" lon="6.75238">
        <ele>2016</ele>
        <time>2021-08-03T08:04:58Z</time>
      </trkpt>
      <trkpt lat="45.52817" lon="6.75238">
        <ele>2016.1</ele>
        <time>2021-08-03T08:04:59Z</time>
      </trkpt>
      <trkpt lat="45.52816" lon="6.75238">
        <ele>2016.2</ele>
        <time>2021-08-03T08:05:00Z</time>
      </trkpt>
      <trkpt lat="45.52816" lon="6.75238">
        <ele>2016.3</ele>
        <time>2021-08-03T08:05:01Z</time>
      </trkpt>
      <trkpt lat="45.52816" lon="6.75238">
        <ele>2016.4</ele>
        <time>2021-08-03T08:05:02Z</time>
      </trkpt>
      <trkpt lat="45.52816" lon="6.75238">
        <ele>2016.5</ele>
        <time>2021-08-03T08:05:03Z</time>
      </trkpt>
      <trkpt lat="45.52815" lon="6.75238">
        <ele>2016.6</ele>
        <time>2021-08-03T08:05:04Z</time>
      </trkpt>
      <trkpt lat="45.52815" lon="6.75239">
        <ele>2016.7</ele>
        <time>2021-08-03T08:05:05Z</time>
      </trkpt>
      <trkpt lat="45.52815" lon="6.75239">
        <ele>2016.8</ele>
        <time>2021-08-03T08:05:06Z</time>
      </trkpt>
      <trkpt lat="45.52815" lon="6.75239">
        <ele>2016.9</ele>
        <time>2021-08-03T08:05:07Z</time>
      </trkpt>
      <trkpt lat="45.52814" lon="6.75239">
        <ele>2017</ele>
        <time>2021-08-03T08:05:08Z</time>
      </trkpt>
      <trkpt lat="45.52814" lon="6.75239">
        <ele>2017.1</ele>
        <time>2021-08-03T08:05:09Z</time>
      </trkpt>
      <trkpt lat="45.52814" lon="6.75239">
        <ele>2017.2</ele>
        <time>2021-08-03T08:05:10Z</time>
      </trkpt>
      <trkpt lat="45.52814" lon="6.75239">
        <ele>2017.3</ele>
        <time>2021-08-03T08:05:11Z</time>
      </trkpt>
      <trkpt lat="45.52813" lon="6.75239">
        <ele>2017.4</ele>
        <time>2021-08-03T08:05:12Z</time>
      </trkpt>
      <trkpt lat="45.52813" lon="6.75239">
        <ele>2017.5</ele>
        <time>2021-08-03T08:05:13Z</time>
      </trkpt>
      <trkpt lat="45.52813" lon="6.75239">
        <ele>2017.6</ele>
        <time>2021-08-03T08:05:14Z</time>
      </trkpt>
      <trkpt lat="45.52812" lon="6.75239">
        <ele>2017.8</ele>
        <time>2021-08-03T08:05:15Z</time>
      </trkpt>
      <trkpt lat="45.52812" lon="6.7524">
        <ele>2018</ele>
        <time>2021-08-03T08:05:16Z</time>
      </trkpt>
      <trkpt lat="45.52811" lon="6.7524">
        <ele>2018.2</ele>
        <time>2021-08-03T08:05:17Z</time>
      </trkpt>
      <trkpt lat="45.52811" lon="6.7524">
        <ele>2018.5</ele>
        <time>2021-08-03T08:05:18Z</time>
      </trkpt>
      <trkpt lat="45.5281" lon="6.7524">
        <ele>2018.7</ele>
        <time>2021-08-03T08:05:19Z</time>
      </trkpt>
      <trkpt lat="45.5281" lon="6.75241">
        <ele>2018.9</ele>
        <time>2021-08-03T08:05:20Z</time>
      </trkpt>
      <trkpt lat="45.52809" lon="6.75241">
        <ele>2019.2</ele>
        <time>2021-08-03T08:05:21Z</time>
      </trkpt>
      <trkpt lat="45.52808" lon="6.75241">
        <ele>2019.4</ele>
        <time>2021-08-03T08:05:22Z</time>
      </trkpt>
      <trkpt lat="45.52808" lon="6.75242">
        <ele>2019.6</ele>
        <time>2021-08-03T08:05:23Z</time>
      </trkpt>
      <trkpt lat="45.52807" lon="6.75242">
        <ele>2019.8</ele>
        <time>2021-08-03T08:05:24Z</time>
      </trkpt>
      <trkpt lat="45.52807" lon="6.75242">
        <ele>2020</ele>
        <time>2021-08-03T08:05:25Z</time>
      </trkpt>
      <trkpt lat="45.52806" lon="6.75243">
        <ele>2020.2</ele>
        <time>2021-08-03T08:05:26Z</time>
      </trkpt>
      <trkpt lat="45.52806" lon="6.75243">
        <ele>2020.4</ele>
        <time>2021-08-03T08:05:27Z</time>
      </trkpt>
      <trkpt lat="45.52806" lon="6.75243">
        <ele>2020.6</ele>
        <time>2021-08-03T08:05:28Z</time>
      </trkpt>
      <trkpt lat="45.52805" lon="6.75244">
        <ele>2020.7</ele>
        <time>2021-08-03T08:05:29Z</time>
      </trkpt>
      <trkpt lat="45.52805" lon="6.75244">
        <ele>2020.9</ele>
        <time>2021-08-03T08:05:30Z</time>
      </trkpt>
      <trkpt lat="45.52805" lon="6.75244">
        <ele>2021</ele>
        <time>2021-08-03T08:05:31Z</time>
      </trkpt>
      <trkpt lat="45.52805" lon="6.75245">
        <ele>2021.1</ele>
        <time>2021-08-03T08:05:32Z</time>
      </trkpt>
      <trkpt lat="45.52804" lon="6.75245">
        <ele>2021.3</ele>
        <time>2021-08-03T08:05:33Z</time>
      </trkpt>
      <trkpt lat="45.52804" lon="6.75245">
        <ele>2021.3</ele>
        <time>2021-08-03T08:05:34Z</time>
      </trkpt>
      <trkpt lat="45.52804" lon="6.75246">
        <ele>2021.5</ele>
        <time>2021-08-03T08:05:35Z</time>
      </trkpt>
      <trkpt lat="45.52804" lon="6.75246">
        <ele>2021.6</ele>
        <time>2021-08-03T08:05:36Z</time>
      </trkpt>
      <trkpt lat="45.52804" lon="6.75247">
        <ele>2021.7</ele>
        <time>2021-08-03T08:05:37Z</time>
      </trkpt>
      <trkpt lat="45.52804" lon="6.75247">
        <ele>2021.8</ele>
        <time>2021-08-03T08:05:38Z</time>
      </trkpt>
      <trkpt lat="45.52804" lon="6.75247">
        <ele>2021.9</ele>
        <time>2021-08-03T08:05:39Z</time>
      </trkpt>
      <trkpt lat="45.52804" lon="6.75248">
        <ele>2022</ele>
        <time>2021-08-03T08:05:40Z</time>
      </trkpt>
      <trkpt lat="45.52804" lon="6.75248">
        <ele>2022.1</ele>
        <time>2021-08-03T08:05:41Z</time>
      </trkpt>
      <trkpt lat="45.52803" lon="6.75248">
        <ele>2022.2</ele>
        <time>2021-08-03T08:05:42Z</time>
      </trkpt>
      <trkpt lat="45.52803" lon="6.75249">
        <ele>2022.3</ele>
        <time>2021-08-03T08:05:43Z</time>
      </trkpt>
      <trkpt lat="45.52803" lon="6.75249">
        <ele>2022.4</ele>
        <time>2021-08-03T08:05:44Z</time>
      </trkpt>
      <trkpt lat="45.52803" lon="6.75249">
        <ele>2022.5</ele>
        <time>2021-08-03T08:05:45Z</time>
      </trkpt>
      <trkpt lat="45.52803" lon="6.7525">
        <ele>2022.6</ele>
        <time>2021-08-03T08:05:46Z</time>
      </trkpt>
      <trkpt lat="45.52803" lon="6.7525">
        <ele>2022.7</ele>
        <time>2021-08-03T08:05:47Z</time>
      </trkpt>
      <trkpt lat="45.52802" lon="6.7525">
        <ele>2022.8</ele>
        <time>2021-08-03T08:05:48Z</time>
      </trkpt>
      <trkpt lat="45.52802" lon="6.75251">
        <ele>2022.9</ele>
        <time>2021-08-03T08:05:49Z</time>
      </trkpt>
      <trkpt lat="45.52802" lon="6.75251">
        <ele>2023.1</ele>
        <time>2021-08-03T08:05:50Z</time>
      </trkpt>
      <trkpt lat="45.52802" lon="6.75251">
        <ele>2023.2</ele>
        <time>2021-08-03T08:05:51Z</time>
      </trkpt>
      <trkpt lat="45.52801" lon="6.75251">
        <ele>2023.3</ele>
        <time>2021-08-03T08:05:52Z</time>
      </trkpt>
      <trkpt lat="45.52801" lon="6.75252">
        <ele>2023.5</ele>
        <time>2021-08-03T08:05:53Z</time>
      </trkpt>
      <trkpt lat="45.52801" lon="6.75252">
        <ele>2023.7</ele>
        <time>2021-08-03T08:05:54Z</time>
      </trkpt>
      <trkpt lat="45.528" lon="6.75252">
        <ele>2023.8</ele>
        <time>2021-08-03T08:05:55Z</time>
      </trkpt>
      <trkpt lat="45.528" lon="6.75253">
        <ele>2024</ele>
        <time>2021-08-03T08:05:56Z</time>
      </trkpt>
      <trkpt lat="45.52799" lon="6.75253">
        <ele>2024.2</ele>
        <time>2021-08-03T08:05:57Z</time>
      </trkpt>
      <trkpt lat="45.52799" lon="6.75253">
        <ele>2024.4</ele>
        <time>2021-08-03T08:05:58Z</time>
      </trkpt>
      <trkpt lat="45.52798" lon="6.75253">
        <ele>2024.6</ele>
        <time>2021-08-03T08:05:59Z</time>
      </trkpt>
      <trkpt lat="45.52798" lon="6.75254">
        <ele>2024.8</ele>
        <time>2021-08-03T08:06:00Z</time>
      </trkpt>
      <trkpt lat="45.52797" lon="6.75254">
        <ele>2025.1</ele>
        <time>2021-08-03T08:06:01Z</time>
      </trkpt>
      <trkpt lat="45.52797" lon="6.75254">
        <ele>2025.3</ele>
        <time>2021-08-03T08:06:02Z</time>
      </trkpt>
      <trkpt lat="45.52796" lon="6.75254">
        <ele>2025.5</ele>
        <time>2021-08-03T08:06:03Z</time>
      </trkpt>
      <trkpt lat="45.52796" lon="6.75255">
        <ele>2025.7</ele>
        <time>2021-08-03T08:06:04Z</time>
      </trkpt>
      <trkpt lat="45.52795" lon="6.75255">
        <ele>2026</ele>
        <time>2021-08-03T08:06:05Z</time>
      </trkpt>
      <trkpt lat="45.52794" lon="6.75255">
        <ele>2026.2</ele>
        <time>2021-08-03T08:06:06Z</time>
      </trkpt>
      <trkpt lat="45.52794" lon="6.75255">
        <ele>2026.4</ele>
        <time>2021-08-03T08:06:07Z</time>
      </trkpt>
      <trkpt lat="45.52793" lon="6.75255">
        <ele>2026.6</ele>
        <time>2021-08-03T08:06:08Z</time>
      </trkpt>
      <trkpt lat="45.52793" lon="6.75255">
        <ele>2026.8</ele>
        <time>2021-08-03T08:06:09Z</time>
      </trkpt>
      <trkpt lat="45.52793" lon="6.75256">
        <ele>2026.9</ele>
        <time>2021-08-03T08:06:10Z</time>
      </trkpt>
      <trkpt lat="45.52792" lon="6.75256">
        <ele>2027.1</ele>
        <time>2021-08-03T08:06:11Z</time>
      </trkpt>
      <trkpt lat="45.52792" lon="6.75256">
        <ele>2027.2</ele>
        <time>2021-08-03T08:06:12Z</time>
      </trkpt>
      <trkpt lat="45.52792" lon="6.75256">
        <ele>2027.2</ele>
        <time>2021-08-03T08:06:13Z</time>
      </trkpt>
      <trkpt lat="45.52792" lon="6.75256">
        <ele>2027.3</ele>
        <time>2021-08-03T08:06:14Z</time>
      </trkpt>
      <trkpt lat="45.52792" lon="6.75256">
        <ele>2027.3</ele>
        <time>2021-08-03T08:06:15Z</time>
      </trkpt>
      <trkpt lat="45.52792" lon="6.75256">
        <ele>2027.3</ele>
        <time>2021-08-03T08:06:16Z</time>
      </trkpt>
      <trkpt lat="45.52792" lon="6.75256">
        <ele>2027.3</ele>
        <time>2021-08-03T08:06:17Z</time>
      </trkpt>
      <trkpt lat="45.52791" lon="6.75256">
        <ele>2027.4</ele>
        <time>2021-08-03T08:06:18Z</time>
      </trkpt>
      <trkpt lat="45.52791" lon="6.75255">
        <ele>2027.6</ele>
        <time>2021-08-03T08:06:19Z</time>
      </trkpt>
      <trkpt lat="45.5279" lon="6.75255">
        <ele>2027.9</ele>
        <time>2021-08-03T08:06:20Z</time>
      </trkpt>
      <trkpt lat="45.52789" lon="6.75255">
        <ele>2028.2</ele>
        <time>2021-08-03T08:06:21Z</time>
      </trkpt>
      <trkpt lat="45.52789" lon="6.75255">
        <ele>2028.5</ele>
        <time>2021-08-03T08:06:22Z</time>
      </trkpt>
      <trkpt lat="45.52788" lon="6.75255">
        <ele>2028.7</ele>
        <time>2021-08-03T08:06:23Z</time>
      </trkpt>
      <trkpt lat="45.52788" lon="6.75255">
        <ele>2028.9</ele>
        <time>2021-08-03T08:06:24Z</time>
      </trkpt>
      <trkpt lat="45.52787" lon="6.75255">
        <ele>2029.1</ele>
        <time>2021-08-03T08:06:25Z</time>
      </trkpt>
      <trkpt lat="45.52787" lon="6.75255">
        <ele>2029.3</ele>
        <time>2021-08-03T08:06:26Z</time>
      </trkpt>
      <trkpt lat="45.52786" lon="6.75256">
        <ele>2029.5</ele>
        <time>2021-08-03T08:06:27Z</time>
      </trkpt>
      <trkpt lat="45.52786" lon="6.75256">
        <ele>2029.6</ele>
        <time>2021-08-03T08:06:28Z</time>
      </trkpt>
      <trkpt lat="45.52785" lon="6.75256">
        <ele>2029.8</ele>
        <time>2021-08-03T08:06:29Z</time>
      </trkpt>
      <trkpt lat="45.52785" lon="6.75256">
        <ele>2030</ele>
        <time>2021-08-03T08:06:30Z</time>
      </trkpt>
      <trkpt lat="45.52784" lon="6.75256">
        <ele>2030.2</ele>
        <time>2021-08-03T08:06:31Z</time>
      </trkpt>
      <trkpt lat="45.52784" lon="6.75256">
        <ele>2030.4</ele>
        <time>2021-08-03T08:06:32Z</time>
      </trkpt>
      <trkpt lat="45.52783" lon="6.75256">
        <ele>2030.7</ele>
        <time>2021-08-03T08:06:33Z</time>
      </trkpt>
      <trkpt lat="45.52783" lon="6.75256">
        <ele>2030.9</ele>
        <time>2021-08-03T08:06:34Z</time>
      </trkpt>
      <trkpt lat="45.52782" lon="6.75256">
        <ele>2031.1</ele>
        <time>2021-08-03T08:06:35Z</time>
      </trkpt>
      <trkpt lat="45.52781" lon="6.75256">
        <ele>2031.4</ele>
        <time>2021-08-03T08:06:36Z</time>
      </trkpt>
      <trkpt lat="45.52781" lon="6.75255">
        <ele>2031.5</ele>
        <time>2021-08-03T08:06:37Z</time>
      </trkpt>
      <trkpt lat="45.52781" lon="6.75256">
        <ele>2031.5</ele>
        <time>2021-08-03T08:06:38Z</time>
      </trkpt>
      <trkpt lat="45.5278" lon="6.75256">
        <ele>2031.4</ele>
        <time>2021-08-03T08:06:39Z</time>
      </trkpt>
      <trkpt lat="45.5278" lon="6.75256">
        <ele>2031.4</ele>
        <time>2021-08-03T08:06:40Z</time>
      </trkpt>
      <trkpt lat="45.5278" lon="6.75256">
        <ele>2031.4</ele>
        <time>2021-08-03T08:06:41Z</time>
      </trkpt>
      <trkpt lat="45.5278" lon="6.75256">
        <ele>2031.3</ele>
        <time>2021-08-03T08:06:42Z</time>
      </trkpt>
      <trkpt lat="45.5278" lon="6.75256">
        <ele>2031.3</ele>
        <time>2021-08-03T08:06:43Z</time>
      </trkpt>
      <trkpt lat="45.5278" lon="6.75256">
        <ele>2031.3</ele>
        <time>2021-08-03T08:06:44Z</time>
      </trkpt>
      <trkpt lat="45.52779" lon="6.75256">
        <ele>2031.2</ele>
        <time>2021-08-03T08:06:45Z</time>
      </trkpt>
      <trkpt lat="45.52779" lon="6.75256">
        <ele>2031.2</ele>
        <time>2021-08-03T08:06:46Z</time>
      </trkpt>
      <trkpt lat="45.52779" lon="6.75256">
        <ele>2031.2</ele>
        <time>2021-08-03T08:06:47Z</time>
      </trkpt>
      <trkpt lat="45.52779" lon="6.75256">
        <ele>2031.1</ele>
        <time>2021-08-03T08:06:48Z</time>
      </trkpt>
      <trkpt lat="45.52779" lon="6.75256">
        <ele>2031.1</ele>
        <time>2021-08-03T08:06:49Z</time>
      </trkpt>
      <trkpt lat="45.52779" lon="6.75256">
        <ele>2031.1</ele>
        <time>2021-08-03T08:06:50Z</time>
      </trkpt>
      <trkpt lat="45.52778" lon="6.75256">
        <ele>2031</ele>
        <time>2021-08-03T08:06:51Z</time>
      </trkpt>
      <trkpt lat="45.52778" lon="6.75256">
        <ele>2031</ele>
        <time>2021-08-03T08:06:52Z</time>
      </trkpt>
      <trkpt lat="45.52778" lon="6.75256">
        <ele>2031</ele>
        <time>2021-08-03T08:06:53Z</time>
      </trkpt>
      <trkpt lat="45.52778" lon="6.75256">
        <ele>2030.9</ele>
        <time>2021-08-03T08:06:54Z</time>
      </trkpt>
      <trkpt lat="45.52778" lon="6.75256">
        <ele>2030.9</ele>
        <time>2021-08-03T08:06:55Z</time>
      </trkpt>
      <trkpt lat="45.52778" lon="6.75256">
        <ele>2030.9</ele>
        <time>2021-08-03T08:06:56Z</time>
      </trkpt>
      <trkpt lat="45.52777" lon="6.75256">
        <ele>2030.8</ele>
        <time>2021-08-03T08:06:57Z</time>
      </trkpt>
      <trkpt lat="45.52777" lon="6.75256">
        <ele>2030.8</ele>
        <time>2021-08-03T08:06:58Z</time>
      </trkpt>
      <trkpt lat="45.52777" lon="6.75256">
        <ele>2030.8</ele>
        <time>2021-08-03T08:06:59Z</time>
      </trkpt>
      <trkpt lat="45.52777" lon="6.75256">
        <ele>2030.7</ele>
        <time>2021-08-03T08:07:00Z</time>
      </trkpt>
      <trkpt lat="45.52777" lon="6.75256">
        <ele>2030.7</ele>
        <time>2021-08-03T08:07:01Z</time>
      </trkpt>
      <trkpt lat="45.52777" lon="6.75256">
        <ele>2030.7</ele>
        <time>2021-08-03T08:07:02Z</time>
      </trkpt>
      <trkpt lat="45.52776" lon="6.75256">
        <ele>2030.6</ele>
        <time>2021-08-03T08:07:03Z</time>
      </trkpt>
      <trkpt lat="45.52776" lon="6.75256">
        <ele>2030.6</ele>
        <time>2021-08-03T08:07:04Z</time>
      </trkpt>
      <trkpt lat="45.52776" lon="6.75256">
        <ele>2030.6</ele>
        <time>2021-08-03T08:07:05Z</time>
      </trkpt>
      <trkpt lat="45.52776" lon="6.75256">
        <ele>2030.5</ele>
        <time>2021-08-03T08:07:06Z</time>
      </trkpt>
      <trkpt lat="45.52776" lon="6.75257">
        <ele>2030.5</ele>
        <time>2021-08-03T08:07:07Z</time>
      </trkpt>
      <trkpt lat="45.52776" lon="6.75257">
        <ele>2030.5</ele>
        <time>2021-08-03T08:07:08Z</time>
      </trkpt>
      <trkpt lat="45.52775" lon="6.75257">
        <ele>2030.4</ele>
        <time>2021-08-03T08:07:09Z</time>
      </trkpt>
      <trkpt lat="45.52775" lon="6.75257">
        <ele>2030.4</ele>
        <time>2021-08-03T08:07:10Z</time>
      </trkpt>
      <trkpt lat="45.52775" lon="6.75257">
        <ele>2030.4</ele>
        <time>2021-08-03T08:07:11Z</time>
      </trkpt>
      <trkpt lat="45.52775" lon="6.75257">
        <ele>2030.3</ele>
        <time>2021-08-03T08:07:12Z</time>
      </trkpt>
      <trkpt lat="45.52775" lon="6.75257">
        <ele>2030.2</ele>
        <time>2021-08-03T08:07:13Z</time>
      </trkpt>
      <trkpt lat="45.52775" lon="6.75257">
        <ele>2030.2</ele>
        <time>2021-08-03T08:07:14Z</time>
      </trkpt>
      <trkpt lat="45.52774" lon="6.75257">
        <ele>2030.1</ele>
        <time>2021-08-03T08:07:15Z</time>
      </trkpt>
      <trkpt lat="45.52774" lon="6.75257">
        <ele>2030.1</ele>
        <time>2021-08-03T08:07:16Z</time>
      </trkpt>
      <trkpt lat="45.52774" lon="6.75257">
        <ele>2030.1</ele>
        <time>2021-08-03T08:07:17Z</time>
      </trkpt>
      <trkpt lat="45.52774" lon="6.75257">
        <ele>2030</ele>
        <time>2021-08-03T08:07:18Z</time>
      </trkpt>
      <trkpt lat="45.52774" lon="6.75257">
        <ele>2030</ele>
        <time>2021-08-03T08:07:19Z</time>
      </trkpt>
      <trkpt lat="45.52774" lon="6.75257">
        <ele>2030</ele>
        <time>2021-08-03T08:07:20Z</time>
      </trkpt>
      <trkpt lat="45.52773" lon="6.75257">
        <ele>2029.9</ele>
        <time>2021-08-03T08:07:21Z</time>
      </trkpt>
      <trkpt lat="45.52773" lon="6.75257">
        <ele>2029.9</ele>
        <time>2021-08-03T08:07:22Z</time>
      </trkpt>
      <trkpt lat="45.52773" lon="6.75257">
        <ele>2029.8</ele>
        <time>2021-08-03T08:07:23Z</time>
      </trkpt>
      <trkpt lat="45.52773" lon="6.75257">
        <ele>2029.8</ele>
        <time>2021-08-03T08:07:24Z</time>
      </trkpt>
      <trkpt lat="45.52773" lon="6.75257">
        <ele>2029.7</ele>
        <time>2021-08-03T08:07:25Z</time>
      </trkpt>
      <trkpt lat="45.52773" lon="6.75257">
        <ele>2029.7</ele>
        <time>2021-08-03T08:07:26Z</time>
      </trkpt>
      <trkpt lat="45.52772" lon="6.75257">
        <ele>2029.6</ele>
        <time>2021-08-03T08:07:27Z</time>
      </trkpt>
      <trkpt lat="45.52772" lon="6.75257">
        <ele>2029.6</ele>
        <time>2021-08-03T08:07:28Z</time>
      </trkpt>
      <trkpt lat="45.52772" lon="6.75257">
        <ele>2029.5</ele>
        <time>2021-08-03T08:07:29Z</time>
      </trkpt>
      <trkpt lat="45.52772" lon="6.75257">
        <ele>2029.4</ele>
        <time>2021-08-03T08:07:30Z</time>
      </trkpt>
      <trkpt lat="45.52772" lon="6.75257">
        <ele>2029.4</ele>
        <time>2021-08-03T08:07:31Z</time>
      </trkpt>
      <trkpt lat="45.52772" lon="6.75257">
        <ele>2029.4</ele>
        <time>2021-08-03T08:07:32Z</time>
      </trkpt>
      <trkpt lat="45.52771" lon="6.75257">
        <ele>2029.3</ele>
        <time>2021-08-03T08:07:33Z</time>
      </trkpt>
      <trkpt lat="45.52771" lon="6.75257">
        <ele>2029.3</ele>
        <time>2021-08-03T08:07:34Z</time>
      </trkpt>
      <trkpt lat="45.52771" lon="6.75257">
        <ele>2029.2</ele>
        <time>2021-08-03T08:07:35Z</time>
      </trkpt>
      <trkpt lat="45.52771" lon="6.75258">
        <ele>2029.1</ele>
        <time>2021-08-03T08:07:36Z</time>
      </trkpt>
      <trkpt lat="45.52771" lon="6.75258">
        <ele>2029.1</ele>
        <time>2021-08-03T08:07:37Z</time>
      </trkpt>
      <trkpt lat="45.52771" lon="6.75258">
        <ele>2029.1</ele>
        <time>2021-08-03T08:07:38Z</time>
      </trkpt>
      <trkpt lat="45.5277" lon="6.75258">
        <ele>2029</ele>
        <time>2021-08-03T08:07:39Z</time>
      </trkpt>
      <trkpt lat="45.5277" lon="6.75258">
        <ele>2029</ele>
        <time>2021-08-03T08:07:40Z</time>
      </trkpt>
      <trkpt lat="45.5277" lon="6.75257">
        <ele>2029</ele>
        <time>2021-08-03T08:07:41Z</time>
      </trkpt>
      <trkpt lat="45.52769" lon="6.75257">
        <ele>2029.1</ele>
        <time>2021-08-03T08:07:42Z</time>
      </trkpt>
      <trkpt lat="45.52769" lon="6.75257">
        <ele>2029.1</ele>
        <time>2021-08-03T08:07:43Z</time>
      </trkpt>
      <trkpt lat="45.52768" lon="6.75257">
        <ele>2029.2</ele>
        <time>2021-08-03T08:07:44Z</time>
      </trkpt>
      <trkpt lat="45.52768" lon="6.75256">
        <ele>2029.2</ele>
        <time>2021-08-03T08:07:45Z</time>
      </trkpt>
      <trkpt lat="45.52768" lon="6.75256">
        <ele>2029.2</ele>
        <time>2021-08-03T08:07:46Z</time>
      </trkpt>
      <trkpt lat="45.52768" lon="6.75256">
        <ele>2029.2</ele>
        <time>2021-08-03T08:07:47Z</time>
      </trkpt>
      <trkpt lat="45.52767" lon="6.75255">
        <ele>2029.1</ele>
        <time>2021-08-03T08:07:48Z</time>
      </trkpt>
      <trkpt lat="45.52767" lon="6.75255">
        <ele>2029.1</ele>
        <time>2021-08-03T08:07:49Z</time>
      </trkpt>
      <trkpt lat="45.52767" lon="6.75255">
        <ele>2029</ele>
        <time>2021-08-03T08:07:50Z</time>
      </trkpt>
      <trkpt lat="45.52767" lon="6.75255">
        <ele>2028.9</ele>
        <time>2021-08-03T08:07:51Z</time>
      </trkpt>
      <trkpt lat="45.52767" lon="6.75255">
        <ele>2028.8</ele>
        <time>2021-08-03T08:07:52Z</time>
      </trkpt>
      <trkpt lat="45.52767" lon="6.75255">
        <ele>2028.7</ele>
        <time>2021-08-03T08:07:53Z</time>
      </trkpt>
      <trkpt lat="45.52767" lon="6.75255">
        <ele>2028.7</ele>
        <time>2021-08-03T08:07:54Z</time>
      </trkpt>
      <trkpt lat="45.52766" lon="6.75255">
        <ele>2028.8</ele>
        <time>2021-08-03T08:07:55Z</time>
      </trkpt>
      <trkpt lat="45.52766" lon="6.75254">
        <ele>2028.8</ele>
        <time>2021-08-03T08:07:56Z</time>
      </trkpt>
      <trkpt lat="45.52765" lon="6.75254">
        <ele>2028.9</ele>
        <time>2021-08-03T08:07:57Z</time>
      </trkpt>
      <trkpt lat="45.52765" lon="6.75253">
        <ele>2029</ele>
        <time>2021-08-03T08:07:58Z</time>
      </trkpt>
      <trkpt lat="45.52764" lon="6.75253">
        <ele>2029.1</ele>
        <time>2021-08-03T08:07:59Z</time>
      </trkpt>
      <trkpt lat="45.52763" lon="6.75253">
        <ele>2029.1</ele>
        <time>2021-08-03T08:08:00Z</time>
      </trkpt>
      <trkpt lat="45.52763" lon="6.75252">
        <ele>2029.2</ele>
        <time>2021-08-03T08:08:01Z</time>
      </trkpt>
      <trkpt lat="45.52762" lon="6.75252">
        <ele>2029.2</ele>
        <time>2021-08-03T08:08:02Z</time>
      </trkpt>
      <trkpt lat="45.52762" lon="6.75252">
        <ele>2029.3</ele>
        <time>2021-08-03T08:08:03Z</time>
      </trkpt>
      <trkpt lat="45.52761" lon="6.75251">
        <ele>2029.3</ele>
        <time>2021-08-03T08:08:04Z</time>
      </trkpt>
      <trkpt lat="45.52761" lon="6.75251">
        <ele>2029.3</ele>
        <time>2021-08-03T08:08:05Z</time>
      </trkpt>
      <trkpt lat="45.5276" lon="6.75251">
        <ele>2029.4</ele>
        <time>2021-08-03T08:08:06Z</time>
      </trkpt>
      <trkpt lat="45.5276" lon="6.75251">
        <ele>2029.4</ele>
        <time>2021-08-03T08:08:07Z</time>
      </trkpt>
      <trkpt lat="45.5276" lon="6.75251">
        <ele>2029.4</ele>
        <time>2021-08-03T08:08:08Z</time>
      </trkpt>
      <trkpt lat="45.52759" lon="6.75251">
        <ele>2029.3</ele>
        <time>2021-08-03T08:08:09Z</time>
      </trkpt>
      <trkpt lat="45.52759" lon="6.75252">
        <ele>2029.3</ele>
        <time>2021-08-03T08:08:10Z</time>
      </trkpt>
      <trkpt lat="45.52758" lon="6.75252">
        <ele>2029.3</ele>
        <time>2021-08-03T08:08:11Z</time>
      </trkpt>
      <trkpt lat="45.52758" lon="6.75252">
        <ele>2029.3</ele>
        <time>2021-08-03T08:08:12Z</time>
      </trkpt>
      <trkpt lat="45.52758" lon="6.75252">
        <ele>2029.3</ele>
        <time>2021-08-03T08:08:13Z</time>
      </trkpt>
      <trkpt lat="45.52758" lon="6.75252">
        <ele>2029.1</ele>
        <time>2021-08-03T08:08:14Z</time>
      </trkpt>
      <trkpt lat="45.52758" lon="6.75252">
        <ele>2029.1</ele>
        <time>2021-08-03T08:08:15Z</time>
      </trkpt>
      <trkpt lat="45.52758" lon="6.75252">
        <ele>2029</ele>
        <time>2021-08-03T08:08:16Z</time>
      </trkpt>
      <trkpt lat="45.52758" lon="6.75252">
        <ele>2029</ele>
        <time>2021-08-03T08:08:17Z</time>
      </trkpt>
      <trkpt lat="45.52757" lon="6.75252">
        <ele>2029</ele>
        <time>2021-08-03T08:08:18Z</time>
      </trkpt>
      <trkpt lat="45.52757" lon="6.75252">
        <ele>2029</ele>
        <time>2021-08-03T08:08:19Z</time>
      </trkpt>
      <trkpt lat="45.52757" lon="6.75252">
        <ele>2029</ele>
        <time>2021-08-03T08:08:20Z</time>
      </trkpt>
      <trkpt lat="45.52757" lon="6.75252">
        <ele>2029</ele>
        <time>2021-08-03T08:08:21Z</time>
      </trkpt>
      <trkpt lat="45.52757" lon="6.75252">
        <ele>2029</ele>
        <time>2021-08-03T08:08:22Z</time>
      </trkpt>
      <trkpt lat="45.52757" lon="6.75252">
        <ele>2029</ele>
        <time>2021-08-03T08:08:23Z</time>
      </trkpt>
      <trkpt lat="45.52757" lon="6.75252">
        <ele>2029</ele>
        <time>2021-08-03T08:08:24Z</time>
      </trkpt>
      <trkpt lat="45.52757" lon="6.75252">
        <ele>2029</ele>
        <time>2021-08-03T08:08:25Z</time>
      </trkpt>
      <trkpt lat="45.52757" lon="6.75252">
        <ele>2029</ele>
        <time>2021-08-03T08:08:26Z</time>
      </trkpt>
      <trkpt lat="45.52757" lon="6.75252">
        <ele>2029</ele>
        <time>2021-08-03T08:08:27Z</time>
      </trkpt>
      <trkpt lat="45.52757" lon="6.75252">
        <ele>2029</ele>
        <time>2021-08-03T08:08:28Z</time>
      </trkpt>
      <trkpt lat="45.52757" lon="6.75252">
        <ele>2029</ele>
        <time>2021-08-03T08:08:29Z</time>
      </trkpt>
      <trkpt lat="45.52757" lon="6.75252">
        <ele>2029</ele>
        <time>2021-08-03T08:08:30Z</time>
      </trkpt>
      <trkpt lat="45.52757" lon="6.75252">
        <ele>2029</ele>
        <time>2021-08-03T08:08:31Z</time>
      </trkpt>
      <trkpt lat="45.52757" lon="6.75252">
        <ele>2029</ele>
        <time>2021-08-03T08:08:32Z</time>
      </trkpt>
      <trkpt lat="45.52757" lon="6.75252">
        <ele>2029</ele>
        <time>2021-08-03T08:08:33Z</time>
      </trkpt>
      <trkpt lat="45.52757" lon="6.75252">
        <ele>2029</ele>
        <time>2021-08-03T08:08:34Z</time>
      </trkpt>
      <trkpt lat="45.52757" lon="6.75252">
        <ele>2029</ele>
        <time>2021-08-03T08:08:35Z</time>
      </trkpt>
      <trkpt lat="45.52757" lon="6.75252">
        <ele>2029</ele>
        <time>2021-08-03T08:08:36Z</time>
      </trkpt>
      <trkpt lat="45.52757" lon="6.75252">
        <ele>2029</ele>
        <time>2021-08-03T08:08:37Z</time>
      </trkpt>
      <trkpt lat="45.52757" lon="6.75252">
        <ele>2029</ele>
        <time>2021-08-03T08:08:38Z</time>
      </trkpt>
      <trkpt lat="45.52757" lon="6.75252">
        <ele>2029</ele>
        <time>2021-08-03T08:08:39Z</time>
      </trkpt>
      <trkpt lat="45.52757" lon="6.75252">
        <ele>2029</ele>
        <time>2021-08-03T08:08:40Z</time>
      </trkpt>
      <trkpt lat="45.52757" lon="6.75252">
        <ele>2029</ele>
        <time>2021-08-03T08:08:41Z</time>
      </trkpt>
      <trkpt lat="45.52757" lon="6.75252">
        <ele>2029</ele>
        <time>2021-08-03T08:08:42Z</time>
      </trkpt>
      <trkpt lat="45.52757" lon="6.75252">
        <ele>2029</ele>
        <time>2021-08-03T08:08:43Z</time>
      </trkpt>
      <trkpt lat="45.52757" lon="6.75252">
        <ele>2029</ele>
        <time>2021-08-03T08:08:44Z</time>
      </trkpt>
      <trkpt lat="45.52757" lon="6.75252">
        <ele>2029</ele>
        <time>2021-08-03T08:08:45Z</time>
      </trkpt>
      <trkpt lat="45.52757" lon="6.75252">
        <ele>2029</ele>
        <time>2021-08-03T08:08:46Z</time>
      </trkpt>
      <trkpt lat="45.52757" lon="6.75252">
        <ele>2029</ele>
        <time>2021-08-03T08:08:47Z</time>
      </trkpt>
      <trkpt lat="45.52757" lon="6.75252">
        <ele>2029</ele>
        <time>2021-08-03T08:08:48Z</time>
      </trkpt>
      <trkpt lat="45.52757" lon="6.75252">
        <ele>2029</ele>
        <time>2021-08-03T08:08:49Z</time>
      </trkpt>
      <trkpt lat="45.52757" lon="6.75252">
        <ele>2029</ele>
        <time>2021-08-03T08:08:50Z</time>
      </trkpt>
      <trkpt lat="45.52757" lon="6.75252">
        <ele>2029</ele>
        <time>2021-08-03T08:08:51Z</time>
      </trkpt>
      <trkpt lat="45.52757" lon="6.75252">
        <ele>2029</ele>
        <time>2021-08-03T08:08:52Z</time>
      </trkpt>
      <trkpt lat="45.52757" lon="6.75252">
        <ele>2029</ele>
        <time>2021-08-03T08:08:53Z</time>
      </trkpt>
      <trkpt lat="45.52757" lon="6.75252">
        <ele>2029</ele>
        <time>2021-08-03T08:08:54Z</time>
      </trkpt>
      <trkpt lat="45.52757" lon="6.75252">
        <ele>2029</ele>
        <time>2021-08-03T08:08:55Z</time>
      </trkpt>
      <trkpt lat="45.52757" lon="6.75252">
        <ele>2029</ele>
        <time>2021-08-03T08:08:56Z</time>
      </trkpt>
      <trkpt lat="45.52757" lon="6.75252">
        <ele>2029.1</ele>
        <time>2021-08-03T08:08:57Z</time>
      </trkpt>
      <trkpt lat="45.52757" lon="6.75253">
        <ele>2029.1</ele>
        <time>2021-08-03T08:08:58Z</time>
      </trkpt>
      <trkpt lat="45.52757" lon="6.75253">
        <ele>2029.1</ele>
        <time>2021-08-03T08:08:59Z</time>
      </trkpt>
      <trkpt lat="45.52757" lon="6.75253">
        <ele>2029.2</ele>
        <time>2021-08-03T08:09:00Z</time>
      </trkpt>
      <trkpt lat="45.52757" lon="6.75253">
        <ele>2029.2</ele>
        <time>2021-08-03T08:09:01Z</time>
      </trkpt>
      <trkpt lat="45.52757" lon="6.75253">
        <ele>2029.3</ele>
        <time>2021-08-03T08:09:02Z</time>
      </trkpt>
      <trkpt lat="45.52756" lon="6.75253">
        <ele>2029.4</ele>
        <time>2021-08-03T08:09:03Z</time>
      </trkpt>
      <trkpt lat="45.52756" lon="6.75253">
        <ele>2029.4</ele>
        <time>2021-08-03T08:09:04Z</time>
      </trkpt>
      <trkpt lat="45.52756" lon="6.75253">
        <ele>2029.5</ele>
        <time>2021-08-03T08:09:05Z</time>
      </trkpt>
      <trkpt lat="45.52755" lon="6.75253">
        <ele>2029.6</ele>
        <time>2021-08-03T08:09:06Z</time>
      </trkpt>
      <trkpt lat="45.52755" lon="6.75253">
        <ele>2029.7</ele>
        <time>2021-08-03T08:09:07Z</time>
      </trkpt>
      <trkpt lat="45.52755" lon="6.75253">
        <ele>2029.8</ele>
        <time>2021-08-03T08:09:08Z</time>
      </trkpt>
      <trkpt lat="45.52754" lon="6.75253">
        <ele>2030</ele>
        <time>2021-08-03T08:09:09Z</time>
      </trkpt>
      <trkpt lat="45.52754" lon="6.75253">
        <ele>2030.1</ele>
        <time>2021-08-03T08:09:10Z</time>
      </trkpt>
      <trkpt lat="45.52753" lon="6.75252">
        <ele>2030.2</ele>
        <time>2021-08-03T08:09:11Z</time>
      </trkpt>
      <trkpt lat="45.52753" lon="6.75252">
        <ele>2030.3</ele>
        <time>2021-08-03T08:09:12Z</time>
      </trkpt>
      <trkpt lat="45.52753" lon="6.75252">
        <ele>2030.4</ele>
        <time>2021-08-03T08:09:13Z</time>
      </trkpt>
      <trkpt lat="45.52752" lon="6.75252">
        <ele>2030.5</ele>
        <time>2021-08-03T08:09:14Z</time>
      </trkpt>
      <trkpt lat="45.52752" lon="6.75251">
        <ele>2030.6</ele>
        <time>2021-08-03T08:09:15Z</time>
      </trkpt>
      <trkpt lat="45.52752" lon="6.75251">
        <ele>2030.7</ele>
        <time>2021-08-03T08:09:16Z</time>
      </trkpt>
      <trkpt lat="45.52752" lon="6.75251">
        <ele>2030.8</ele>
        <time>2021-08-03T08:09:17Z</time>
      </trkpt>
      <trkpt lat="45.52751" lon="6.75251">
        <ele>2030.8</ele>
        <time>2021-08-03T08:09:18Z</time>
      </trkpt>
      <trkpt lat="45.52751" lon="6.75252">
        <ele>2030.9</ele>
        <time>2021-08-03T08:09:19Z</time>
      </trkpt>
      <trkpt lat="45.52751" lon="6.75252">
        <ele>2031</ele>
        <time>2021-08-03T08:09:20Z</time>
      </trkpt>
      <trkpt lat="45.52751" lon="6.75252">
        <ele>2031</ele>
        <time>2021-08-03T08:09:21Z</time>
      </trkpt>
      <trkpt lat="45.52751" lon="6.75253">
        <ele>2031.1</ele>
        <time>2021-08-03T08:09:22Z</time>
      </trkpt>
      <trkpt lat="45.52751" lon="6.75253">
        <ele>2031.3</ele>
        <time>2021-08-03T08:09:23Z</time>
      </trkpt>
      <trkpt lat="45.52751" lon="6.75254">
        <ele>2031.4</ele>
        <time>2021-08-03T08:09:24Z</time>
      </trkpt>
      <trkpt lat="45.52751" lon="6.75255">
        <ele>2031.5</ele>
        <time>2021-08-03T08:09:25Z</time>
      </trkpt>
      <trkpt lat="45.52752" lon="6.75255">
        <ele>2031.7</ele>
        <time>2021-08-03T08:09:26Z</time>
      </trkpt>
      <trkpt lat="45.52752" lon="6.75256">
        <ele>2031.8</ele>
        <time>2021-08-03T08:09:27Z</time>
      </trkpt>
      <trkpt lat="45.52752" lon="6.75256">
        <ele>2031.9</ele>
        <time>2021-08-03T08:09:28Z</time>
      </trkpt>
      <trkpt lat="45.52752" lon="6.75257">
        <ele>2032.1</ele>
        <time>2021-08-03T08:09:29Z</time>
      </trkpt>
      <trkpt lat="45.52752" lon="6.75258">
        <ele>2032.2</ele>
        <time>2021-08-03T08:09:30Z</time>
      </trkpt>
      <trkpt lat="45.52752" lon="6.75258">
        <ele>2032.2</ele>
        <time>2021-08-03T08:09:31Z</time>
      </trkpt>
      <trkpt lat="45.52752" lon="6.75258">
        <ele>2032.3</ele>
        <time>2021-08-03T08:09:32Z</time>
      </trkpt>
      <trkpt lat="45.52752" lon="6.75258">
        <ele>2032.4</ele>
        <time>2021-08-03T08:09:33Z</time>
      </trkpt>
      <trkpt lat="45.52752" lon="6.75258">
        <ele>2032.5</ele>
        <time>2021-08-03T08:09:34Z</time>
      </trkpt>
      <trkpt lat="45.52751" lon="6.75258">
        <ele>2032.6</ele>
        <time>2021-08-03T08:09:35Z</time>
      </trkpt>
      <trkpt lat="45.52751" lon="6.75258">
        <ele>2032.7</ele>
        <time>2021-08-03T08:09:36Z</time>
      </trkpt>
      <trkpt lat="45.5275" lon="6.75258">
        <ele>2032.9</ele>
        <time>2021-08-03T08:09:37Z</time>
      </trkpt>
      <trkpt lat="45.5275" lon="6.75257">
        <ele>2033.1</ele>
        <time>2021-08-03T08:09:38Z</time>
      </trkpt>
      <trkpt lat="45.52749" lon="6.75257">
        <ele>2033.3</ele>
        <time>2021-08-03T08:09:39Z</time>
      </trkpt>
      <trkpt lat="45.52749" lon="6.75256">
        <ele>2033.5</ele>
        <time>2021-08-03T08:09:40Z</time>
      </trkpt>
      <trkpt lat="45.52748" lon="6.75256">
        <ele>2033.7</ele>
        <time>2021-08-03T08:09:41Z</time>
      </trkpt>
      <trkpt lat="45.52747" lon="6.75255">
        <ele>2033.9</ele>
        <time>2021-08-03T08:09:42Z</time>
      </trkpt>
      <trkpt lat="45.52747" lon="6.75254">
        <ele>2034.1</ele>
        <time>2021-08-03T08:09:43Z</time>
      </trkpt>
      <trkpt lat="45.52747" lon="6.75253">
        <ele>2034.2</ele>
        <time>2021-08-03T08:09:44Z</time>
      </trkpt>
      <trkpt lat="45.52746" lon="6.75253">
        <ele>2034.3</ele>
        <time>2021-08-03T08:09:45Z</time>
      </trkpt>
      <trkpt lat="45.52746" lon="6.75253">
        <ele>2034.4</ele>
        <time>2021-08-03T08:09:46Z</time>
      </trkpt>
      <trkpt lat="45.52746" lon="6.75252">
        <ele>2034.5</ele>
        <time>2021-08-03T08:09:47Z</time>
      </trkpt>
      <trkpt lat="45.52746" lon="6.75252">
        <ele>2034.5</ele>
        <time>2021-08-03T08:09:48Z</time>
      </trkpt>
      <trkpt lat="45.52746" lon="6.75252">
        <ele>2034.5</ele>
        <time>2021-08-03T08:09:49Z</time>
      </trkpt>
      <trkpt lat="45.52746" lon="6.75252">
        <ele>2034.5</ele>
        <time>2021-08-03T08:09:50Z</time>
      </trkpt>
      <trkpt lat="45.52746" lon="6.75252">
        <ele>2034.5</ele>
        <time>2021-08-03T08:09:51Z</time>
      </trkpt>
      <trkpt lat="45.52746" lon="6.75252">
        <ele>2034.6</ele>
        <time>2021-08-03T08:09:52Z</time>
      </trkpt>
      <trkpt lat="45.52745" lon="6.75252">
        <ele>2034.7</ele>
        <time>2021-08-03T08:09:53Z</time>
      </trkpt>
      <trkpt lat="45.52745" lon="6.75252">
        <ele>2034.8</ele>
        <time>2021-08-03T08:09:54Z</time>
      </trkpt>
      <trkpt lat="45.52744" lon="6.75251">
        <ele>2035</ele>
        <time>2021-08-03T08:09:55Z</time>
      </trkpt>
      <trkpt lat="45.52744" lon="6.75251">
        <ele>2035.2</ele>
        <time>2021-08-03T08:09:56Z</time>
      </trkpt>
      <trkpt lat="45.52743" lon="6.75251">
        <ele>2035.3</ele>
        <time>2021-08-03T08:09:57Z</time>
      </trkpt>
      <trkpt lat="45.52743" lon="6.7525">
        <ele>2035.5</ele>
        <time>2021-08-03T08:09:58Z</time>
      </trkpt>
      <trkpt lat="45.52742" lon="6.7525">
        <ele>2035.6</ele>
        <time>2021-08-03T08:09:59Z</time>
      </trkpt>
      <trkpt lat="45.52742" lon="6.7525">
        <ele>2035.7</ele>
        <time>2021-08-03T08:10:00Z</time>
      </trkpt>
      <trkpt lat="45.52742" lon="6.75249">
        <ele>2035.9</ele>
        <time>2021-08-03T08:10:01Z</time>
      </trkpt>
      <trkpt lat="45.52741" lon="6.75249">
        <ele>2036</ele>
        <time>2021-08-03T08:10:02Z</time>
      </trkpt>
      <trkpt lat="45.52741" lon="6.75249">
        <ele>2036.1</ele>
        <time>2021-08-03T08:10:03Z</time>
      </trkpt>
      <trkpt lat="45.52741" lon="6.75248">
        <ele>2036.2</ele>
        <time>2021-08-03T08:10:04Z</time>
      </trkpt>
      <trkpt lat="45.5274" lon="6.75248">
        <ele>2036.3</ele>
        <time>2021-08-03T08:10:05Z</time>
      </trkpt>
      <trkpt lat="45.5274" lon="6.75249">
        <ele>2036.4</ele>
        <time>2021-08-03T08:10:06Z</time>
      </trkpt>
      <trkpt lat="45.5274" lon="6.75249">
        <ele>2036.5</ele>
        <time>2021-08-03T08:10:07Z</time>
      </trkpt>
      <trkpt lat="45.52739" lon="6.75249">
        <ele>2036.6</ele>
        <time>2021-08-03T08:10:08Z</time>
      </trkpt>
      <trkpt lat="45.52739" lon="6.75249">
        <ele>2036.7</ele>
        <time>2021-08-03T08:10:09Z</time>
      </trkpt>
      <trkpt lat="45.52738" lon="6.75249">
        <ele>2036.8</ele>
        <time>2021-08-03T08:10:10Z</time>
      </trkpt>
      <trkpt lat="45.52738" lon="6.75249">
        <ele>2036.9</ele>
        <time>2021-08-03T08:10:11Z</time>
      </trkpt>
      <trkpt lat="45.52738" lon="6.75248">
        <ele>2037</ele>
        <time>2021-08-03T08:10:12Z</time>
      </trkpt>
      <trkpt lat="45.52737" lon="6.75248">
        <ele>2037.1</ele>
        <time>2021-08-03T08:10:13Z</time>
      </trkpt>
      <trkpt lat="45.52737" lon="6.75248">
        <ele>2037.3</ele>
        <time>2021-08-03T08:10:14Z</time>
      </trkpt>
      <trkpt lat="45.52736" lon="6.75248">
        <ele>2037.4</ele>
        <time>2021-08-03T08:10:15Z</time>
      </trkpt>
      <trkpt lat="45.52736" lon="6.75248">
        <ele>2037.5</ele>
        <time>2021-08-03T08:10:16Z</time>
      </trkpt>
      <trkpt lat="45.52736" lon="6.75248">
        <ele>2037.6</ele>
        <time>2021-08-03T08:10:17Z</time>
      </trkpt>
      <trkpt lat="45.52735" lon="6.75248">
        <ele>2037.7</ele>
        <time>2021-08-03T08:10:18Z</time>
      </trkpt>
      <trkpt lat="45.52735" lon="6.75248">
        <ele>2037.8</ele>
        <time>2021-08-03T08:10:19Z</time>
      </trkpt>
      <trkpt lat="45.52735" lon="6.75249">
        <ele>2037.9</ele>
        <time>2021-08-03T08:10:20Z</time>
      </trkpt>
      <trkpt lat="45.52735" lon="6.75249">
        <ele>2038</ele>
        <time>2021-08-03T08:10:21Z</time>
      </trkpt>
      <trkpt lat="45.52735" lon="6.7525">
        <ele>2038.1</ele>
        <time>2021-08-03T08:10:22Z</time>
      </trkpt>
      <trkpt lat="45.52735" lon="6.75251">
        <ele>2038.3</ele>
        <time>2021-08-03T08:10:23Z</time>
      </trkpt>
      <trkpt lat="45.52735" lon="6.75252">
        <ele>2038.5</ele>
        <time>2021-08-03T08:10:24Z</time>
      </trkpt>
      <trkpt lat="45.52735" lon="6.75253">
        <ele>2038.7</ele>
        <time>2021-08-03T08:10:25Z</time>
      </trkpt>
      <trkpt lat="45.52735" lon="6.75254">
        <ele>2038.9</ele>
        <time>2021-08-03T08:10:26Z</time>
      </trkpt>
      <trkpt lat="45.52735" lon="6.75255">
        <ele>2039</ele>
        <time>2021-08-03T08:10:27Z</time>
      </trkpt>
      <trkpt lat="45.52736" lon="6.75255">
        <ele>2039.2</ele>
        <time>2021-08-03T08:10:28Z</time>
      </trkpt>
      <trkpt lat="45.52736" lon="6.75256">
        <ele>2039.3</ele>
        <time>2021-08-03T08:10:29Z</time>
      </trkpt>
      <trkpt lat="45.52736" lon="6.75257">
        <ele>2039.4</ele>
        <time>2021-08-03T08:10:30Z</time>
      </trkpt>
      <trkpt lat="45.52736" lon="6.75257">
        <ele>2039.5</ele>
        <time>2021-08-03T08:10:31Z</time>
      </trkpt>
      <trkpt lat="45.52736" lon="6.75257">
        <ele>2039.6</ele>
        <time>2021-08-03T08:10:32Z</time>
      </trkpt>
      <trkpt lat="45.52736" lon="6.75258">
        <ele>2039.6</ele>
        <time>2021-08-03T08:10:33Z</time>
      </trkpt>
      <trkpt lat="45.52736" lon="6.75258">
        <ele>2039.7</ele>
        <time>2021-08-03T08:10:34Z</time>
      </trkpt>
      <trkpt lat="45.52736" lon="6.75258">
        <ele>2039.7</ele>
        <time>2021-08-03T08:10:35Z</time>
      </trkpt>
      <trkpt lat="45.52736" lon="6.75258">
        <ele>2039.7</ele>
        <time>2021-08-03T08:10:36Z</time>
      </trkpt>
      <trkpt lat="45.52736" lon="6.75258">
        <ele>2039.7</ele>
        <time>2021-08-03T08:10:37Z</time>
      </trkpt>
      <trkpt lat="45.52736" lon="6.75258">
        <ele>2039.7</ele>
        <time>2021-08-03T08:10:38Z</time>
      </trkpt>
      <trkpt lat="45.52736" lon="6.75258">
        <ele>2039.8</ele>
        <time>2021-08-03T08:10:39Z</time>
      </trkpt>
      <trkpt lat="45.52736" lon="6.75258">
        <ele>2039.8</ele>
        <time>2021-08-03T08:10:40Z</time>
      </trkpt>
      <trkpt lat="45.52736" lon="6.75258">
        <ele>2039.8</ele>
        <time>2021-08-03T08:10:41Z</time>
      </trkpt>
      <trkpt lat="45.52736" lon="6.75258">
        <ele>2039.8</ele>
        <time>2021-08-03T08:10:42Z</time>
      </trkpt>
      <trkpt lat="45.52736" lon="6.75258">
        <ele>2039.8</ele>
        <time>2021-08-03T08:10:43Z</time>
      </trkpt>
      <trkpt lat="45.52736" lon="6.75258">
        <ele>2039.8</ele>
        <time>2021-08-03T08:10:44Z</time>
      </trkpt>
      <trkpt lat="45.52736" lon="6.75258">
        <ele>2039.8</ele>
        <time>2021-08-03T08:10:45Z</time>
      </trkpt>
      <trkpt lat="45.52736" lon="6.75258">
        <ele>2039.8</ele>
        <time>2021-08-03T08:10:46Z</time>
      </trkpt>
      <trkpt lat="45.52736" lon="6.75258">
        <ele>2039.8</ele>
        <time>2021-08-03T08:10:47Z</time>
      </trkpt>
      <trkpt lat="45.52736" lon="6.75258">
        <ele>2039.8</ele>
        <time>2021-08-03T08:10:48Z</time>
      </trkpt>
      <trkpt lat="45.52736" lon="6.75258">
        <ele>2039.8</ele>
        <time>2021-08-03T08:10:49Z</time>
      </trkpt>
      <trkpt lat="45.52736" lon="6.75258">
        <ele>2039.8</ele>
        <time>2021-08-03T08:10:50Z</time>
      </trkpt>
      <trkpt lat="45.52736" lon="6.75258">
        <ele>2039.8</ele>
        <time>2021-08-03T08:10:51Z</time>
      </trkpt>
      <trkpt lat="45.52736" lon="6.75258">
        <ele>2039.8</ele>
        <time>2021-08-03T08:10:52Z</time>
      </trkpt>
      <trkpt lat="45.52736" lon="6.75258">
        <ele>2039.8</ele>
        <time>2021-08-03T08:10:53Z</time>
      </trkpt>
      <trkpt lat="45.52736" lon="6.75258">
        <ele>2039.8</ele>
        <time>2021-08-03T08:10:54Z</time>
      </trkpt>
      <trkpt lat="45.52736" lon="6.75258">
        <ele>2039.9</ele>
        <time>2021-08-03T08:10:55Z</time>
      </trkpt>
      <trkpt lat="45.52736" lon="6.75258">
        <ele>2039.9</ele>
        <time>2021-08-03T08:10:56Z</time>
      </trkpt>
      <trkpt lat="45.52735" lon="6.75258">
        <ele>2040</ele>
        <time>2021-08-03T08:10:57Z</time>
      </trkpt>
      <trkpt lat="45.52735" lon="6.75257">
        <ele>2040.1</ele>
        <time>2021-08-03T08:10:58Z</time>
      </trkpt>
      <trkpt lat="45.52735" lon="6.75257">
        <ele>2040.2</ele>
        <time>2021-08-03T08:10:59Z</time>
      </trkpt>
      <trkpt lat="45.52734" lon="6.75257">
        <ele>2040.4</ele>
        <time>2021-08-03T08:11:00Z</time>
      </trkpt>
      <trkpt lat="45.52733" lon="6.75256">
        <ele>2040.7</ele>
        <time>2021-08-03T08:11:01Z</time>
      </trkpt>
      <trkpt lat="45.52732" lon="6.75256">
        <ele>2040.9</ele>
        <time>2021-08-03T08:11:02Z</time>
      </trkpt>
      <trkpt lat="45.52731" lon="6.75256">
        <ele>2041.1</ele>
        <time>2021-08-03T08:11:03Z</time>
      </trkpt>
      <trkpt lat="45.52731" lon="6.75255">
        <ele>2041.3</ele>
        <time>2021-08-03T08:11:04Z</time>
      </trkpt>
      <trkpt lat="45.52731" lon="6.75255">
        <ele>2041.4</ele>
        <time>2021-08-03T08:11:05Z</time>
      </trkpt>
      <trkpt lat="45.5273" lon="6.75254">
        <ele>2041.5</ele>
        <time>2021-08-03T08:11:06Z</time>
      </trkpt>
      <trkpt lat="45.5273" lon="6.75254">
        <ele>2041.6</ele>
        <time>2021-08-03T08:11:07Z</time>
      </trkpt>
      <trkpt lat="45.5273" lon="6.75253">
        <ele>2041.7</ele>
        <time>2021-08-03T08:11:08Z</time>
      </trkpt>
      <trkpt lat="45.5273" lon="6.75253">
        <ele>2041.9</ele>
        <time>2021-08-03T08:11:09Z</time>
      </trkpt>
      <trkpt lat="45.52729" lon="6.75252">
        <ele>2042</ele>
        <time>2021-08-03T08:11:10Z</time>
      </trkpt>
      <trkpt lat="45.52729" lon="6.75252">
        <ele>2042.1</ele>
        <time>2021-08-03T08:11:11Z</time>
      </trkpt>
      <trkpt lat="45.52728" lon="6.75251">
        <ele>2042.3</ele>
        <time>2021-08-03T08:11:12Z</time>
      </trkpt>
      <trkpt lat="45.52728" lon="6.75251">
        <ele>2042.5</ele>
        <time>2021-08-03T08:11:13Z</time>
      </trkpt>
      <trkpt lat="45.52727" lon="6.7525">
        <ele>2042.6</ele>
        <time>2021-08-03T08:11:14Z</time>
      </trkpt>
      <trkpt lat="45.52727" lon="6.7525">
        <ele>2042.8</ele>
        <time>2021-08-03T08:11:15Z</time>
      </trkpt>
      <trkpt lat="45.52726" lon="6.75249">
        <ele>2043</ele>
        <time>2021-08-03T08:11:16Z</time>
      </trkpt>
      <trkpt lat="45.52726" lon="6.75248">
        <ele>2043.3</ele>
        <time>2021-08-03T08:11:17Z</time>
      </trkpt>
      <trkpt lat="45.52725" lon="6.75248">
        <ele>2043.5</ele>
        <time>2021-08-03T08:11:18Z</time>
      </trkpt>
      <trkpt lat="45.52724" lon="6.75247">
        <ele>2043.8</ele>
        <time>2021-08-03T08:11:19Z</time>
      </trkpt>
      <trkpt lat="45.52723" lon="6.75246">
        <ele>2044</ele>
        <time>2021-08-03T08:11:20Z</time>
      </trkpt>
      <trkpt lat="45.52722" lon="6.75246">
        <ele>2044.3</ele>
        <time>2021-08-03T08:11:21Z</time>
      </trkpt>
      <trkpt lat="45.52722" lon="6.75245">
        <ele>2044.6</ele>
        <time>2021-08-03T08:11:22Z</time>
      </trkpt>
      <trkpt lat="45.52721" lon="6.75244">
        <ele>2044.8</ele>
        <time>2021-08-03T08:11:23Z</time>
      </trkpt>
      <trkpt lat="45.5272" lon="6.75243">
        <ele>2045.1</ele>
        <time>2021-08-03T08:11:24Z</time>
      </trkpt>
      <trkpt lat="45.52719" lon="6.75242">
        <ele>2045.4</ele>
        <time>2021-08-03T08:11:25Z</time>
      </trkpt>
      <trkpt lat="45.52718" lon="6.75241">
        <ele>2045.8</ele>
        <time>2021-08-03T08:11:26Z</time>
      </trkpt>
      <trkpt lat="45.52717" lon="6.7524">
        <ele>2046</ele>
        <time>2021-08-03T08:11:27Z</time>
      </trkpt>
      <trkpt lat="45.52716" lon="6.7524">
        <ele>2046.3</ele>
        <time>2021-08-03T08:11:28Z</time>
      </trkpt>
      <trkpt lat="45.52715" lon="6.75239">
        <ele>2046.6</ele>
        <time>2021-08-03T08:11:29Z</time>
      </trkpt>
      <trkpt lat="45.52715" lon="6.75238">
        <ele>2046.9</ele>
        <time>2021-08-03T08:11:30Z</time>
      </trkpt>
      <trkpt lat="45.52714" lon="6.75237">
        <ele>2047.1</ele>
        <time>2021-08-03T08:11:31Z</time>
      </trkpt>
      <trkpt lat="45.52713" lon="6.75237">
        <ele>2047.3</ele>
        <time>2021-08-03T08:11:32Z</time>
      </trkpt>
      <trkpt lat="45.52713" lon="6.75237">
        <ele>2047.5</ele>
        <time>2021-08-03T08:11:33Z</time>
      </trkpt>
      <trkpt lat="45.52712" lon="6.75236">
        <ele>2047.6</ele>
        <time>2021-08-03T08:11:34Z</time>
      </trkpt>
      <trkpt lat="45.52712" lon="6.75236">
        <ele>2047.8</ele>
        <time>2021-08-03T08:11:35Z</time>
      </trkpt>
      <trkpt lat="45.52711" lon="6.75236">
        <ele>2047.9</ele>
        <time>2021-08-03T08:11:36Z</time>
      </trkpt>
      <trkpt lat="45.52711" lon="6.75235">
        <ele>2048</ele>
        <time>2021-08-03T08:11:37Z</time>
      </trkpt>
      <trkpt lat="45.5271" lon="6.75235">
        <ele>2048.1</ele>
        <time>2021-08-03T08:11:38Z</time>
      </trkpt>
      <trkpt lat="45.5271" lon="6.75235">
        <ele>2048.3</ele>
        <time>2021-08-03T08:11:39Z</time>
      </trkpt>
      <trkpt lat="45.5271" lon="6.75235">
        <ele>2048.4</ele>
        <time>2021-08-03T08:11:40Z</time>
      </trkpt>
      <trkpt lat="45.52709" lon="6.75235">
        <ele>2048.5</ele>
        <time>2021-08-03T08:11:41Z</time>
      </trkpt>
      <trkpt lat="45.52709" lon="6.75235">
        <ele>2048.6</ele>
        <time>2021-08-03T08:11:42Z</time>
      </trkpt>
      <trkpt lat="45.52709" lon="6.75235">
        <ele>2048.6</ele>
        <time>2021-08-03T08:11:43Z</time>
      </trkpt>
      <trkpt lat="45.52708" lon="6.75235">
        <ele>2048.7</ele>
        <time>2021-08-03T08:11:44Z</time>
      </trkpt>
      <trkpt lat="45.52708" lon="6.75235">
        <ele>2048.8</ele>
        <time>2021-08-03T08:11:45Z</time>
      </trkpt>
      <trkpt lat="45.52708" lon="6.75235">
        <ele>2048.8</ele>
        <time>2021-08-03T08:11:46Z</time>
      </trkpt>
      <trkpt lat="45.52708" lon="6.75236">
        <ele>2048.9</ele>
        <time>2021-08-03T08:11:47Z</time>
      </trkpt>
      <trkpt lat="45.52708" lon="6.75236">
        <ele>2049</ele>
        <time>2021-08-03T08:11:48Z</time>
      </trkpt>
      <trkpt lat="45.52708" lon="6.75237">
        <ele>2049.2</ele>
        <time>2021-08-03T08:11:49Z</time>
      </trkpt>
      <trkpt lat="45.52708" lon="6.75238">
        <ele>2049.3</ele>
        <time>2021-08-03T08:11:50Z</time>
      </trkpt>
      <trkpt lat="45.52708" lon="6.75238">
        <ele>2049.4</ele>
        <time>2021-08-03T08:11:51Z</time>
      </trkpt>
      <trkpt lat="45.52708" lon="6.75239">
        <ele>2049.6</ele>
        <time>2021-08-03T08:11:52Z</time>
      </trkpt>
      <trkpt lat="45.52708" lon="6.7524">
        <ele>2049.8</ele>
        <time>2021-08-03T08:11:53Z</time>
      </trkpt>
      <trkpt lat="45.52708" lon="6.75241">
        <ele>2049.9</ele>
        <time>2021-08-03T08:11:54Z</time>
      </trkpt>
      <trkpt lat="45.52708" lon="6.75242">
        <ele>2050.1</ele>
        <time>2021-08-03T08:11:55Z</time>
      </trkpt>
      <trkpt lat="45.52709" lon="6.75243">
        <ele>2050.3</ele>
        <time>2021-08-03T08:11:56Z</time>
      </trkpt>
      <trkpt lat="45.52709" lon="6.75244">
        <ele>2050.5</ele>
        <time>2021-08-03T08:11:57Z</time>
      </trkpt>
      <trkpt lat="45.52709" lon="6.75245">
        <ele>2050.7</ele>
        <time>2021-08-03T08:11:58Z</time>
      </trkpt>
      <trkpt lat="45.52709" lon="6.75246">
        <ele>2050.8</ele>
        <time>2021-08-03T08:11:59Z</time>
      </trkpt>
      <trkpt lat="45.52709" lon="6.75246">
        <ele>2051</ele>
        <time>2021-08-03T08:12:00Z</time>
      </trkpt>
      <trkpt lat="45.5271" lon="6.75247">
        <ele>2051.2</ele>
        <time>2021-08-03T08:12:01Z</time>
      </trkpt>
      <trkpt lat="45.5271" lon="6.75248">
        <ele>2051.3</ele>
        <time>2021-08-03T08:12:02Z</time>
      </trkpt>
      <trkpt lat="45.5271" lon="6.75249">
        <ele>2051.5</ele>
        <time>2021-08-03T08:12:03Z</time>
      </trkpt>
      <trkpt lat="45.5271" lon="6.75249">
        <ele>2051.6</ele>
        <time>2021-08-03T08:12:04Z</time>
      </trkpt>
      <trkpt lat="45.5271" lon="6.7525">
        <ele>2051.7</ele>
        <time>2021-08-03T08:12:05Z</time>
      </trkpt>
      <trkpt lat="45.5271" lon="6.7525">
        <ele>2051.8</ele>
        <time>2021-08-03T08:12:06Z</time>
      </trkpt>
      <trkpt lat="45.52711" lon="6.75251">
        <ele>2051.9</ele>
        <time>2021-08-03T08:12:07Z</time>
      </trkpt>
      <trkpt lat="45.52711" lon="6.75251">
        <ele>2052</ele>
        <time>2021-08-03T08:12:08Z</time>
      </trkpt>
      <trkpt lat="45.52711" lon="6.75252">
        <ele>2052.1</ele>
        <time>2021-08-03T08:12:09Z</time>
      </trkpt>
      <trkpt lat="45.52711" lon="6.75252">
        <ele>2052.2</ele>
        <time>2021-08-03T08:12:10Z</time>
      </trkpt>
      <trkpt lat="45.52711" lon="6.75253">
        <ele>2052.3</ele>
        <time>2021-08-03T08:12:11Z</time>
      </trkpt>
      <trkpt lat="45.52711" lon="6.75254">
        <ele>2052.5</ele>
        <time>2021-08-03T08:12:12Z</time>
      </trkpt>
      <trkpt lat="45.52711" lon="6.75254">
        <ele>2052.6</ele>
        <time>2021-08-03T08:12:13Z</time>
      </trkpt>
      <trkpt lat="45.52711" lon="6.75255">
        <ele>2052.8</ele>
        <time>2021-08-03T08:12:14Z</time>
      </trkpt>
      <trkpt lat="45.5271" lon="6.75256">
        <ele>2052.9</ele>
        <time>2021-08-03T08:12:15Z</time>
      </trkpt>
      <trkpt lat="45.5271" lon="6.75256">
        <ele>2053</ele>
        <time>2021-08-03T08:12:16Z</time>
      </trkpt>
      <trkpt lat="45.5271" lon="6.75257">
        <ele>2053.1</ele>
        <time>2021-08-03T08:12:17Z</time>
      </trkpt>
      <trkpt lat="45.5271" lon="6.75257">
        <ele>2053.2</ele>
        <time>2021-08-03T08:12:18Z</time>
      </trkpt>
      <trkpt lat="45.5271" lon="6.75257">
        <ele>2053.3</ele>
        <time>2021-08-03T08:12:19Z</time>
      </trkpt>
      <trkpt lat="45.52709" lon="6.75257">
        <ele>2053.3</ele>
        <time>2021-08-03T08:12:20Z</time>
      </trkpt>
      <trkpt lat="45.52709" lon="6.75257">
        <ele>2053.4</ele>
        <time>2021-08-03T08:12:21Z</time>
      </trkpt>
      <trkpt lat="45.52709" lon="6.75257">
        <ele>2053.5</ele>
        <time>2021-08-03T08:12:22Z</time>
      </trkpt>
      <trkpt lat="45.52709" lon="6.75256">
        <ele>2053.6</ele>
        <time>2021-08-03T08:12:23Z</time>
      </trkpt>
      <trkpt lat="45.52708" lon="6.75256">
        <ele>2053.7</ele>
        <time>2021-08-03T08:12:24Z</time>
      </trkpt>
      <trkpt lat="45.52708" lon="6.75255">
        <ele>2053.8</ele>
        <time>2021-08-03T08:12:25Z</time>
      </trkpt>
      <trkpt lat="45.52708" lon="6.75255">
        <ele>2053.9</ele>
        <time>2021-08-03T08:12:26Z</time>
      </trkpt>
      <trkpt lat="45.52708" lon="6.75255">
        <ele>2054</ele>
        <time>2021-08-03T08:12:27Z</time>
      </trkpt>
      <trkpt lat="45.52708" lon="6.75254">
        <ele>2054.1</ele>
        <time>2021-08-03T08:12:28Z</time>
      </trkpt>
      <trkpt lat="45.52708" lon="6.75254">
        <ele>2054.2</ele>
        <time>2021-08-03T08:12:29Z</time>
      </trkpt>
      <trkpt lat="45.52707" lon="6.75254">
        <ele>2054.2</ele>
        <time>2021-08-03T08:12:30Z</time>
      </trkpt>
      <trkpt lat="45.52707" lon="6.75254">
        <ele>2054.2</ele>
        <time>2021-08-03T08:12:31Z</time>
      </trkpt>
      <trkpt lat="45.52707" lon="6.75254">
        <ele>2054.3</ele>
        <time>2021-08-03T08:12:32Z</time>
      </trkpt>
      <trkpt lat="45.52708" lon="6.75254">
        <ele>2054.3</ele>
        <time>2021-08-03T08:12:33Z</time>
      </trkpt>
      <trkpt lat="45.52708" lon="6.75255">
        <ele>2054.4</ele>
        <time>2021-08-03T08:12:34Z</time>
      </trkpt>
      <trkpt lat="45.52708" lon="6.75255">
        <ele>2054.6</ele>
        <time>2021-08-03T08:12:35Z</time>
      </trkpt>
      <trkpt lat="45.52708" lon="6.75256">
        <ele>2054.7</ele>
        <time>2021-08-03T08:12:36Z</time>
      </trkpt>
      <trkpt lat="45.52709" lon="6.75257">
        <ele>2054.9</ele>
        <time>2021-08-03T08:12:37Z</time>
      </trkpt>
      <trkpt lat="45.52709" lon="6.75258">
        <ele>2055.1</ele>
        <time>2021-08-03T08:12:38Z</time>
      </trkpt>
      <trkpt lat="45.52709" lon="6.75258">
        <ele>2055.3</ele>
        <time>2021-08-03T08:12:39Z</time>
      </trkpt>
      <trkpt lat="45.52709" lon="6.75259">
        <ele>2055.4</ele>
        <time>2021-08-03T08:12:40Z</time>
      </trkpt>
      <trkpt lat="45.5271" lon="6.7526">
        <ele>2055.6</ele>
        <time>2021-08-03T08:12:41Z</time>
      </trkpt>
      <trkpt lat="45.5271" lon="6.7526">
        <ele>2055.7</ele>
        <time>2021-08-03T08:12:42Z</time>
      </trkpt>
      <trkpt lat="45.5271" lon="6.75261">
        <ele>2055.7</ele>
        <time>2021-08-03T08:12:43Z</time>
      </trkpt>
      <trkpt lat="45.5271" lon="6.75261">
        <ele>2055.8</ele>
        <time>2021-08-03T08:12:44Z</time>
      </trkpt>
      <trkpt lat="45.5271" lon="6.75261">
        <ele>2055.8</ele>
        <time>2021-08-03T08:12:45Z</time>
      </trkpt>
      <trkpt lat="45.5271" lon="6.75261">
        <ele>2055.8</ele>
        <time>2021-08-03T08:12:46Z</time>
      </trkpt>
      <trkpt lat="45.5271" lon="6.75261">
        <ele>2055.8</ele>
        <time>2021-08-03T08:12:47Z</time>
      </trkpt>
      <trkpt lat="45.5271" lon="6.75261">
        <ele>2055.9</ele>
        <time>2021-08-03T08:12:48Z</time>
      </trkpt>
      <trkpt lat="45.5271" lon="6.75261">
        <ele>2055.9</ele>
        <time>2021-08-03T08:12:49Z</time>
      </trkpt>
      <trkpt lat="45.5271" lon="6.75261">
        <ele>2055.9</ele>
        <time>2021-08-03T08:12:50Z</time>
      </trkpt>
      <trkpt lat="45.5271" lon="6.75261">
        <ele>2055.9</ele>
        <time>2021-08-03T08:12:51Z</time>
      </trkpt>
      <trkpt lat="45.5271" lon="6.75261">
        <ele>2055.9</ele>
        <time>2021-08-03T08:12:52Z</time>
      </trkpt>
      <trkpt lat="45.5271" lon="6.75261">
        <ele>2055.9</ele>
        <time>2021-08-03T08:12:53Z</time>
      </trkpt>
      <trkpt lat="45.5271" lon="6.75261">
        <ele>2055.9</ele>
        <time>2021-08-03T08:12:54Z</time>
      </trkpt>
      <trkpt lat="45.5271" lon="6.75261">
        <ele>2055.9</ele>
        <time>2021-08-03T08:12:55Z</time>
      </trkpt>
      <trkpt lat="45.5271" lon="6.75261">
        <ele>2055.9</ele>
        <time>2021-08-03T08:12:56Z</time>
      </trkpt>
      <trkpt lat="45.5271" lon="6.75261">
        <ele>2055.9</ele>
        <time>2021-08-03T08:12:57Z</time>
      </trkpt>
      <trkpt lat="45.5271" lon="6.75261">
        <ele>2055.9</ele>
        <time>2021-08-03T08:12:58Z</time>
      </trkpt>
      <trkpt lat="45.5271" lon="6.75261">
        <ele>2055.9</ele>
        <time>2021-08-03T08:12:59Z</time>
      </trkpt>
      <trkpt lat="45.5271" lon="6.75261">
        <ele>2055.9</ele>
        <time>2021-08-03T08:13:00Z</time>
      </trkpt>
      <trkpt lat="45.5271" lon="6.75261">
        <ele>2055.9</ele>
        <time>2021-08-03T08:13:01Z</time>
      </trkpt>
      <trkpt lat="45.5271" lon="6.75261">
        <ele>2055.9</ele>
        <time>2021-08-03T08:13:02Z</time>
      </trkpt>
      <trkpt lat="45.5271" lon="6.75261">
        <ele>2055.9</ele>
        <time>2021-08-03T08:13:03Z</time>
      </trkpt>
      <trkpt lat="45.5271" lon="6.75261">
        <ele>2055.9</ele>
        <time>2021-08-03T08:13:04Z</time>
      </trkpt>
      <trkpt lat="45.5271" lon="6.75261">
        <ele>2055.9</ele>
        <time>2021-08-03T08:13:05Z</time>
      </trkpt>
      <trkpt lat="45.5271" lon="6.75261">
        <ele>2055.9</ele>
        <time>2021-08-03T08:13:06Z</time>
      </trkpt>
      <trkpt lat="45.5271" lon="6.75261">
        <ele>2055.9</ele>
        <time>2021-08-03T08:13:07Z</time>
      </trkpt>
      <trkpt lat="45.5271" lon="6.75261">
        <ele>2055.9</ele>
        <time>2021-08-03T08:13:08Z</time>
      </trkpt>
      <trkpt lat="45.5271" lon="6.75261">
        <ele>2055.9</ele>
        <time>2021-08-03T08:13:09Z</time>
      </trkpt>
      <trkpt lat="45.5271" lon="6.75261">
        <ele>2056</ele>
        <time>2021-08-03T08:13:10Z</time>
      </trkpt>
      <trkpt lat="45.5271" lon="6.75261">
        <ele>2056</ele>
        <time>2021-08-03T08:13:11Z</time>
      </trkpt>
      <trkpt lat="45.5271" lon="6.75261">
        <ele>2056</ele>
        <time>2021-08-03T08:13:12Z</time>
      </trkpt>
      <trkpt lat="45.5271" lon="6.75261">
        <ele>2056</ele>
        <time>2021-08-03T08:13:13Z</time>
      </trkpt>
      <trkpt lat="45.5271" lon="6.75261">
        <ele>2056</ele>
        <time>2021-08-03T08:13:14Z</time>
      </trkpt>
      <trkpt lat="45.5271" lon="6.75261">
        <ele>2056</ele>
        <time>2021-08-03T08:13:15Z</time>
      </trkpt>
      <trkpt lat="45.5271" lon="6.75261">
        <ele>2056.1</ele>
        <time>2021-08-03T08:13:16Z</time>
      </trkpt>
      <trkpt lat="45.5271" lon="6.75261">
        <ele>2056.1</ele>
        <time>2021-08-03T08:13:17Z</time>
      </trkpt>
      <trkpt lat="45.52709" lon="6.75261">
        <ele>2056.2</ele>
        <time>2021-08-03T08:13:18Z</time>
      </trkpt>
      <trkpt lat="45.52709" lon="6.75261">
        <ele>2056.4</ele>
        <time>2021-08-03T08:13:19Z</time>
      </trkpt>
      <trkpt lat="45.52709" lon="6.7526">
        <ele>2056.5</ele>
        <time>2021-08-03T08:13:20Z</time>
      </trkpt>
      <trkpt lat="45.52708" lon="6.7526">
        <ele>2056.7</ele>
        <time>2021-08-03T08:13:21Z</time>
      </trkpt>
      <trkpt lat="45.52708" lon="6.75259">
        <ele>2056.9</ele>
        <time>2021-08-03T08:13:22Z</time>
      </trkpt>
      <trkpt lat="45.52707" lon="6.75258">
        <ele>2057</ele>
        <time>2021-08-03T08:13:23Z</time>
      </trkpt>
      <trkpt lat="45.52707" lon="6.75258">
        <ele>2057.2</ele>
        <time>2021-08-03T08:13:24Z</time>
      </trkpt>
      <trkpt lat="45.52706" lon="6.75257">
        <ele>2057.4</ele>
        <time>2021-08-03T08:13:25Z</time>
      </trkpt>
      <trkpt lat="45.52706" lon="6.75257">
        <ele>2057.5</ele>
        <time>2021-08-03T08:13:26Z</time>
      </trkpt>
      <trkpt lat="45.52706" lon="6.75256">
        <ele>2057.7</ele>
        <time>2021-08-03T08:13:27Z</time>
      </trkpt>
      <trkpt lat="45.52705" lon="6.75255">
        <ele>2057.9</ele>
        <time>2021-08-03T08:13:28Z</time>
      </trkpt>
      <trkpt lat="45.52705" lon="6.75255">
        <ele>2058</ele>
        <time>2021-08-03T08:13:29Z</time>
      </trkpt>
      <trkpt lat="45.52704" lon="6.75254">
        <ele>2058.2</ele>
        <time>2021-08-03T08:13:30Z</time>
      </trkpt>
      <trkpt lat="45.52704" lon="6.75254">
        <ele>2058.4</ele>
        <time>2021-08-03T08:13:31Z</time>
      </trkpt>
      <trkpt lat="45.52703" lon="6.75253">
        <ele>2058.5</ele>
        <time>2021-08-03T08:13:32Z</time>
      </trkpt>
      <trkpt lat="45.52703" lon="6.75252">
        <ele>2058.7</ele>
        <time>2021-08-03T08:13:33Z</time>
      </trkpt>
      <trkpt lat="45.52703" lon="6.75252">
        <ele>2058.8</ele>
        <time>2021-08-03T08:13:34Z</time>
      </trkpt>
      <trkpt lat="45.52702" lon="6.75251">
        <ele>2059</ele>
        <time>2021-08-03T08:13:35Z</time>
      </trkpt>
      <trkpt lat="45.52702" lon="6.75251">
        <ele>2059.2</ele>
        <time>2021-08-03T08:13:36Z</time>
      </trkpt>
      <trkpt lat="45.52701" lon="6.75251">
        <ele>2059.3</ele>
        <time>2021-08-03T08:13:37Z</time>
      </trkpt>
      <trkpt lat="45.52701" lon="6.7525">
        <ele>2059.5</ele>
        <time>2021-08-03T08:13:38Z</time>
      </trkpt>
      <trkpt lat="45.527" lon="6.7525">
        <ele>2059.6</ele>
        <time>2021-08-03T08:13:39Z</time>
      </trkpt>
      <trkpt lat="45.52699" lon="6.7525">
        <ele>2059.8</ele>
        <time>2021-08-03T08:13:40Z</time>
      </trkpt>
      <trkpt lat="45.52699" lon="6.75249">
        <ele>2060</ele>
        <time>2021-08-03T08:13:41Z</time>
      </trkpt>
      <trkpt lat="45.52698" lon="6.75249">
        <ele>2060.2</ele>
        <time>2021-08-03T08:13:42Z</time>
      </trkpt>
      <trkpt lat="45.52698" lon="6.75249">
        <ele>2060.4</ele>
        <time>2021-08-03T08:13:43Z</time>
      </trkpt>
      <trkpt lat="45.52697" lon="6.75248">
        <ele>2060.6</ele>
        <time>2021-08-03T08:13:44Z</time>
      </trkpt>
      <trkpt lat="45.52696" lon="6.75248">
        <ele>2060.7</ele>
        <time>2021-08-03T08:13:45Z</time>
      </trkpt>
      <trkpt lat="45.52696" lon="6.75248">
        <ele>2060.9</ele>
        <time>2021-08-03T08:13:46Z</time>
      </trkpt>
      <trkpt lat="45.52695" lon="6.75248">
        <ele>2061.1</ele>
        <time>2021-08-03T08:13:47Z</time>
      </trkpt>
      <trkpt lat="45.52694" lon="6.75247">
        <ele>2061.3</ele>
        <time>2021-08-03T08:13:48Z</time>
      </trkpt>
      <trkpt lat="45.52694" lon="6.75247">
        <ele>2061.5</ele>
        <time>2021-08-03T08:13:49Z</time>
      </trkpt>
      <trkpt lat="45.52693" lon="6.75247">
        <ele>2061.7</ele>
        <time>2021-08-03T08:13:50Z</time>
      </trkpt>
      <trkpt lat="45.52692" lon="6.75247">
        <ele>2061.9</ele>
        <time>2021-08-03T08:13:51Z</time>
      </trkpt>
      <trkpt lat="45.52691" lon="6.75246">
        <ele>2062.1</ele>
        <time>2021-08-03T08:13:52Z</time>
      </trkpt>
      <trkpt lat="45.52691" lon="6.75246">
        <ele>2062.3</ele>
        <time>2021-08-03T08:13:53Z</time>
      </trkpt>
      <trkpt lat="45.5269" lon="6.75246">
        <ele>2062.5</ele>
        <time>2021-08-03T08:13:54Z</time>
      </trkpt>
      <trkpt lat="45.52689" lon="6.75245">
        <ele>2062.7</ele>
        <time>2021-08-03T08:13:55Z</time>
      </trkpt>
      <trkpt lat="45.52689" lon="6.75245">
        <ele>2062.9</ele>
        <time>2021-08-03T08:13:56Z</time>
      </trkpt>
      <trkpt lat="45.52688" lon="6.75245">
        <ele>2063</ele>
        <time>2021-08-03T08:13:57Z</time>
      </trkpt>
      <trkpt lat="45.52687" lon="6.75244">
        <ele>2063.2</ele>
        <time>2021-08-03T08:13:58Z</time>
      </trkpt>
      <trkpt lat="45.52687" lon="6.75244">
        <ele>2063.4</ele>
        <time>2021-08-03T08:13:59Z</time>
      </trkpt>
      <trkpt lat="45.52686" lon="6.75244">
        <ele>2063.6</ele>
        <time>2021-08-03T08:14:00Z</time>
      </trkpt>
      <trkpt lat="45.52686" lon="6.75244">
        <ele>2063.7</ele>
        <time>2021-08-03T08:14:01Z</time>
      </trkpt>
      <trkpt lat="45.52685" lon="6.75244">
        <ele>2063.9</ele>
        <time>2021-08-03T08:14:02Z</time>
      </trkpt>
      <trkpt lat="45.52685" lon="6.75243">
        <ele>2064</ele>
        <time>2021-08-03T08:14:03Z</time>
      </trkpt>
      <trkpt lat="45.52684" lon="6.75243">
        <ele>2064.1</ele>
        <time>2021-08-03T08:14:04Z</time>
      </trkpt>
      <trkpt lat="45.52684" lon="6.75243">
        <ele>2064.3</ele>
        <time>2021-08-03T08:14:05Z</time>
      </trkpt>
      <trkpt lat="45.52684" lon="6.75243">
        <ele>2064.4</ele>
        <time>2021-08-03T08:14:06Z</time>
      </trkpt>
      <trkpt lat="45.52683" lon="6.75243">
        <ele>2064.5</ele>
        <time>2021-08-03T08:14:07Z</time>
      </trkpt>
      <trkpt lat="45.52683" lon="6.75242">
        <ele>2064.6</ele>
        <time>2021-08-03T08:14:08Z</time>
      </trkpt>
      <trkpt lat="45.52683" lon="6.75242">
        <ele>2064.7</ele>
        <time>2021-08-03T08:14:09Z</time>
      </trkpt>
      <trkpt lat="45.52682" lon="6.75242">
        <ele>2064.8</ele>
        <time>2021-08-03T08:14:10Z</time>
      </trkpt>
      <trkpt lat="45.52682" lon="6.75242">
        <ele>2064.8</ele>
        <time>2021-08-03T08:14:11Z</time>
      </trkpt>
      <trkpt lat="45.52682" lon="6.75242">
        <ele>2064.9</ele>
        <time>2021-08-03T08:14:12Z</time>
      </trkpt>
      <trkpt lat="45.52682" lon="6.75242">
        <ele>2065</ele>
        <time>2021-08-03T08:14:13Z</time>
      </trkpt>
      <trkpt lat="45.52682" lon="6.75242">
        <ele>2065</ele>
        <time>2021-08-03T08:14:14Z</time>
      </trkpt>
      <trkpt lat="45.52681" lon="6.75242">
        <ele>2065</ele>
        <time>2021-08-03T08:14:15Z</time>
      </trkpt>
      <trkpt lat="45.52681" lon="6.75242">
        <ele>2065.1</ele>
        <time>2021-08-03T08:14:16Z</time>
      </trkpt>
      <trkpt lat="45.52681" lon="6.75243">
        <ele>2065.2</ele>
        <time>2021-08-03T08:14:17Z</time>
      </trkpt>
      <trkpt lat="45.52682" lon="6.75244">
        <ele>2065.4</ele>
        <time>2021-08-03T08:14:18Z</time>
      </trkpt>
      <trkpt lat="45.52682" lon="6.75244">
        <ele>2065.5</ele>
        <time>2021-08-03T08:14:19Z</time>
      </trkpt>
      <trkpt lat="45.52682" lon="6.75245">
        <ele>2065.7</ele>
        <time>2021-08-03T08:14:20Z</time>
      </trkpt>
      <trkpt lat="45.52682" lon="6.75246">
        <ele>2065.9</ele>
        <time>2021-08-03T08:14:21Z</time>
      </trkpt>
      <trkpt lat="45.52682" lon="6.75247">
        <ele>2066.1</ele>
        <time>2021-08-03T08:14:22Z</time>
      </trkpt>
      <trkpt lat="45.52682" lon="6.75248">
        <ele>2066.2</ele>
        <time>2021-08-03T08:14:23Z</time>
      </trkpt>
      <trkpt lat="45.52682" lon="6.75248">
        <ele>2066.3</ele>
        <time>2021-08-03T08:14:24Z</time>
      </trkpt>
      <trkpt lat="45.52682" lon="6.75249">
        <ele>2066.4</ele>
        <time>2021-08-03T08:14:25Z</time>
      </trkpt>
      <trkpt lat="45.52681" lon="6.75249">
        <ele>2066.5</ele>
        <time>2021-08-03T08:14:26Z</time>
      </trkpt>
      <trkpt lat="45.52681" lon="6.75249">
        <ele>2066.5</ele>
        <time>2021-08-03T08:14:27Z</time>
      </trkpt>
      <trkpt lat="45.52681" lon="6.75249">
        <ele>2066.6</ele>
        <time>2021-08-03T08:14:28Z</time>
      </trkpt>
      <trkpt lat="45.5268" lon="6.75249">
        <ele>2066.7</ele>
        <time>2021-08-03T08:14:29Z</time>
      </trkpt>
      <trkpt lat="45.5268" lon="6.75249">
        <ele>2066.9</ele>
        <time>2021-08-03T08:14:30Z</time>
      </trkpt>
      <trkpt lat="45.5268" lon="6.75248">
        <ele>2067</ele>
        <time>2021-08-03T08:14:31Z</time>
      </trkpt>
      <trkpt lat="45.52679" lon="6.75248">
        <ele>2067.1</ele>
        <time>2021-08-03T08:14:32Z</time>
      </trkpt>
      <trkpt lat="45.52679" lon="6.75248">
        <ele>2067.2</ele>
        <time>2021-08-03T08:14:33Z</time>
      </trkpt>
      <trkpt lat="45.52678" lon="6.75248">
        <ele>2067.3</ele>
        <time>2021-08-03T08:14:34Z</time>
      </trkpt>
      <trkpt lat="45.52678" lon="6.75248">
        <ele>2067.4</ele>
        <time>2021-08-03T08:14:35Z</time>
      </trkpt>
      <trkpt lat="45.52678" lon="6.75248">
        <ele>2067.5</ele>
        <time>2021-08-03T08:14:36Z</time>
      </trkpt>
      <trkpt lat="45.52678" lon="6.75248">
        <ele>2067.6</ele>
        <time>2021-08-03T08:14:37Z</time>
      </trkpt>
      <trkpt lat="45.52677" lon="6.75248">
        <ele>2067.6</ele>
        <time>2021-08-03T08:14:38Z</time>
      </trkpt>
      <trkpt lat="45.52677" lon="6.75248">
        <ele>2067.7</ele>
        <time>2021-08-03T08:14:39Z</time>
      </trkpt>
      <trkpt lat="45.52677" lon="6.75249">
        <ele>2067.8</ele>
        <time>2021-08-03T08:14:40Z</time>
      </trkpt>
      <trkpt lat="45.52677" lon="6.75249">
        <ele>2067.9</ele>
        <time>2021-08-03T08:14:41Z</time>
      </trkpt>
      <trkpt lat="45.52677" lon="6.7525">
        <ele>2068</ele>
        <time>2021-08-03T08:14:42Z</time>
      </trkpt>
      <trkpt lat="45.52677" lon="6.75251">
        <ele>2068.2</ele>
        <time>2021-08-03T08:14:43Z</time>
      </trkpt>
      <trkpt lat="45.52677" lon="6.75251">
        <ele>2068.3</ele>
        <time>2021-08-03T08:14:44Z</time>
      </trkpt>
      <trkpt lat="45.52677" lon="6.75252">
        <ele>2068.5</ele>
        <time>2021-08-03T08:14:45Z</time>
      </trkpt>
      <trkpt lat="45.52677" lon="6.75253">
        <ele>2068.6</ele>
        <time>2021-08-03T08:14:46Z</time>
      </trkpt>
      <trkpt lat="45.52678" lon="6.75254">
        <ele>2068.8</ele>
        <time>2021-08-03T08:14:47Z</time>
      </trkpt>
      <trkpt lat="45.52678" lon="6.75254">
        <ele>2069</ele>
        <time>2021-08-03T08:14:48Z</time>
      </trkpt>
      <trkpt lat="45.52678" lon="6.75255">
        <ele>2069.1</ele>
        <time>2021-08-03T08:14:49Z</time>
      </trkpt>
      <trkpt lat="45.52679" lon="6.75256">
        <ele>2069.3</ele>
        <time>2021-08-03T08:14:50Z</time>
      </trkpt>
      <trkpt lat="45.52679" lon="6.75256">
        <ele>2069.5</ele>
        <time>2021-08-03T08:14:51Z</time>
      </trkpt>
      <trkpt lat="45.5268" lon="6.75257">
        <ele>2069.6</ele>
        <time>2021-08-03T08:14:52Z</time>
      </trkpt>
      <trkpt lat="45.5268" lon="6.75257">
        <ele>2069.7</ele>
        <time>2021-08-03T08:14:53Z</time>
      </trkpt>
      <trkpt lat="45.5268" lon="6.75258">
        <ele>2069.9</ele>
        <time>2021-08-03T08:14:54Z</time>
      </trkpt>
      <trkpt lat="45.52681" lon="6.75258">
        <ele>2070</ele>
        <time>2021-08-03T08:14:55Z</time>
      </trkpt>
      <trkpt lat="45.52681" lon="6.75258">
        <ele>2070.1</ele>
        <time>2021-08-03T08:14:56Z</time>
      </trkpt>
      <trkpt lat="45.52681" lon="6.75258">
        <ele>2070.1</ele>
        <time>2021-08-03T08:14:57Z</time>
      </trkpt>
      <trkpt lat="45.52681" lon="6.75258">
        <ele>2070.1</ele>
        <time>2021-08-03T08:14:58Z</time>
      </trkpt>
      <trkpt lat="45.52681" lon="6.75258">
        <ele>2070.2</ele>
        <time>2021-08-03T08:14:59Z</time>
      </trkpt>
      <trkpt lat="45.52681" lon="6.75258">
        <ele>2070.2</ele>
        <time>2021-08-03T08:15:00Z</time>
      </trkpt>
      <trkpt lat="45.52681" lon="6.75258">
        <ele>2070.2</ele>
        <time>2021-08-03T08:15:01Z</time>
      </trkpt>
      <trkpt lat="45.52681" lon="6.75258">
        <ele>2070.2</ele>
        <time>2021-08-03T08:15:02Z</time>
      </trkpt>
      <trkpt lat="45.52681" lon="6.75258">
        <ele>2070.2</ele>
        <time>2021-08-03T08:15:03Z</time>
      </trkpt>
      <trkpt lat="45.52681" lon="6.75258">
        <ele>2070.3</ele>
        <time>2021-08-03T08:15:04Z</time>
      </trkpt>
      <trkpt lat="45.52681" lon="6.75258">
        <ele>2070.3</ele>
        <time>2021-08-03T08:15:05Z</time>
      </trkpt>
      <trkpt lat="45.52681" lon="6.75258">
        <ele>2070.3</ele>
        <time>2021-08-03T08:15:06Z</time>
      </trkpt>
      <trkpt lat="45.52681" lon="6.75258">
        <ele>2070.3</ele>
        <time>2021-08-03T08:15:07Z</time>
      </trkpt>
      <trkpt lat="45.52681" lon="6.75258">
        <ele>2070.3</ele>
        <time>2021-08-03T08:15:08Z</time>
      </trkpt>
      <trkpt lat="45.52681" lon="6.75258">
        <ele>2070.4</ele>
        <time>2021-08-03T08:15:09Z</time>
      </trkpt>
      <trkpt lat="45.52681" lon="6.75259">
        <ele>2070.4</ele>
        <time>2021-08-03T08:15:10Z</time>
      </trkpt>
      <trkpt lat="45.52681" lon="6.75259">
        <ele>2070.5</ele>
        <time>2021-08-03T08:15:11Z</time>
      </trkpt>
      <trkpt lat="45.52681" lon="6.75259">
        <ele>2070.5</ele>
        <time>2021-08-03T08:15:12Z</time>
      </trkpt>
      <trkpt lat="45.52681" lon="6.7526">
        <ele>2070.6</ele>
        <time>2021-08-03T08:15:13Z</time>
      </trkpt>
      <trkpt lat="45.52681" lon="6.7526">
        <ele>2070.7</ele>
        <time>2021-08-03T08:15:14Z</time>
      </trkpt>
      <trkpt lat="45.52682" lon="6.75261">
        <ele>2070.8</ele>
        <time>2021-08-03T08:15:15Z</time>
      </trkpt>
      <trkpt lat="45.52682" lon="6.75261">
        <ele>2071</ele>
        <time>2021-08-03T08:15:16Z</time>
      </trkpt>
      <trkpt lat="45.52682" lon="6.75262">
        <ele>2071.1</ele>
        <time>2021-08-03T08:15:17Z</time>
      </trkpt>
      <trkpt lat="45.52682" lon="6.75263">
        <ele>2071.2</ele>
        <time>2021-08-03T08:15:18Z</time>
      </trkpt>
      <trkpt lat="45.52682" lon="6.75263">
        <ele>2071.4</ele>
        <time>2021-08-03T08:15:19Z</time>
      </trkpt>
      <trkpt lat="45.52683" lon="6.75264">
        <ele>2071.6</ele>
        <time>2021-08-03T08:15:20Z</time>
      </trkpt>
      <trkpt lat="45.52683" lon="6.75265">
        <ele>2071.7</ele>
        <time>2021-08-03T08:15:21Z</time>
      </trkpt>
      <trkpt lat="45.52683" lon="6.75266">
        <ele>2071.9</ele>
        <time>2021-08-03T08:15:22Z</time>
      </trkpt>
      <trkpt lat="45.52683" lon="6.75267">
        <ele>2072.1</ele>
        <time>2021-08-03T08:15:23Z</time>
      </trkpt>
      <trkpt lat="45.52683" lon="6.75267">
        <ele>2072.2</ele>
        <time>2021-08-03T08:15:24Z</time>
      </trkpt>
      <trkpt lat="45.52683" lon="6.75268">
        <ele>2072.3</ele>
        <time>2021-08-03T08:15:25Z</time>
      </trkpt>
      <trkpt lat="45.52684" lon="6.75269">
        <ele>2072.5</ele>
        <time>2021-08-03T08:15:26Z</time>
      </trkpt>
      <trkpt lat="45.52684" lon="6.75269">
        <ele>2072.6</ele>
        <time>2021-08-03T08:15:27Z</time>
      </trkpt>
      <trkpt lat="45.52684" lon="6.75269">
        <ele>2072.6</ele>
        <time>2021-08-03T08:15:28Z</time>
      </trkpt>
      <trkpt lat="45.52684" lon="6.7527">
        <ele>2072.7</ele>
        <time>2021-08-03T08:15:29Z</time>
      </trkpt>
      <trkpt lat="45.52684" lon="6.7527">
        <ele>2072.7</ele>
        <time>2021-08-03T08:15:30Z</time>
      </trkpt>
      <trkpt lat="45.52684" lon="6.7527">
        <ele>2072.7</ele>
        <time>2021-08-03T08:15:31Z</time>
      </trkpt>
      <trkpt lat="45.52683" lon="6.7527">
        <ele>2072.8</ele>
        <time>2021-08-03T08:15:32Z</time>
      </trkpt>
      <trkpt lat="45.52683" lon="6.7527">
        <ele>2072.8</ele>
        <time>2021-08-03T08:15:33Z</time>
      </trkpt>
      <trkpt lat="45.52683" lon="6.7527">
        <ele>2072.9</ele>
        <time>2021-08-03T08:15:34Z</time>
      </trkpt>
      <trkpt lat="45.52683" lon="6.7527">
        <ele>2073</ele>
        <time>2021-08-03T08:15:35Z</time>
      </trkpt>
      <trkpt lat="45.52682" lon="6.7527">
        <ele>2073.1</ele>
        <time>2021-08-03T08:15:36Z</time>
      </trkpt>
      <trkpt lat="45.52682" lon="6.7527">
        <ele>2073.3</ele>
        <time>2021-08-03T08:15:37Z</time>
      </trkpt>
      <trkpt lat="45.52681" lon="6.7527">
        <ele>2073.4</ele>
        <time>2021-08-03T08:15:38Z</time>
      </trkpt>
      <trkpt lat="45.5268" lon="6.75271">
        <ele>2073.6</ele>
        <time>2021-08-03T08:15:39Z</time>
      </trkpt>
      <trkpt lat="45.5268" lon="6.75271">
        <ele>2073.8</ele>
        <time>2021-08-03T08:15:40Z</time>
      </trkpt>
      <trkpt lat="45.52679" lon="6.75271">
        <ele>2074</ele>
        <time>2021-08-03T08:15:41Z</time>
      </trkpt>
      <trkpt lat="45.52678" lon="6.75271">
        <ele>2074.2</ele>
        <time>2021-08-03T08:15:42Z</time>
      </trkpt>
      <trkpt lat="45.52678" lon="6.7527">
        <ele>2074.3</ele>
        <time>2021-08-03T08:15:43Z</time>
      </trkpt>
      <trkpt lat="45.52677" lon="6.7527">
        <ele>2074.5</ele>
        <time>2021-08-03T08:15:44Z</time>
      </trkpt>
      <trkpt lat="45.52677" lon="6.7527">
        <ele>2074.7</ele>
        <time>2021-08-03T08:15:45Z</time>
      </trkpt>
      <trkpt lat="45.52676" lon="6.75269">
        <ele>2074.9</ele>
        <time>2021-08-03T08:15:46Z</time>
      </trkpt>
      <trkpt lat="45.52676" lon="6.75269">
        <ele>2075</ele>
        <time>2021-08-03T08:15:47Z</time>
      </trkpt>
      <trkpt lat="45.52675" lon="6.75268">
        <ele>2075.2</ele>
        <time>2021-08-03T08:15:48Z</time>
      </trkpt>
      <trkpt lat="45.52674" lon="6.75268">
        <ele>2075.4</ele>
        <time>2021-08-03T08:15:49Z</time>
      </trkpt>
      <trkpt lat="45.52674" lon="6.75267">
        <ele>2075.6</ele>
        <time>2021-08-03T08:15:50Z</time>
      </trkpt>
      <trkpt lat="45.52673" lon="6.75267">
        <ele>2075.8</ele>
        <time>2021-08-03T08:15:51Z</time>
      </trkpt>
      <trkpt lat="45.52673" lon="6.75266">
        <ele>2075.9</ele>
        <time>2021-08-03T08:15:52Z</time>
      </trkpt>
      <trkpt lat="45.52672" lon="6.75265">
        <ele>2076.1</ele>
        <time>2021-08-03T08:15:53Z</time>
      </trkpt>
      <trkpt lat="45.52672" lon="6.75265">
        <ele>2076.3</ele>
        <time>2021-08-03T08:15:54Z</time>
      </trkpt>
      <trkpt lat="45.52671" lon="6.75264">
        <ele>2076.5</ele>
        <time>2021-08-03T08:15:55Z</time>
      </trkpt>
      <trkpt lat="45.52671" lon="6.75264">
        <ele>2076.6</ele>
        <time>2021-08-03T08:15:56Z</time>
      </trkpt>
      <trkpt lat="45.52671" lon="6.75263">
        <ele>2076.8</ele>
        <time>2021-08-03T08:15:57Z</time>
      </trkpt>
      <trkpt lat="45.5267" lon="6.75263">
        <ele>2076.9</ele>
        <time>2021-08-03T08:15:58Z</time>
      </trkpt>
      <trkpt lat="45.5267" lon="6.75263">
        <ele>2077.1</ele>
        <time>2021-08-03T08:15:59Z</time>
      </trkpt>
      <trkpt lat="45.52669" lon="6.75263">
        <ele>2077.2</ele>
        <time>2021-08-03T08:16:00Z</time>
      </trkpt>
      <trkpt lat="45.52669" lon="6.75263">
        <ele>2077.3</ele>
        <time>2021-08-03T08:16:01Z</time>
      </trkpt>
      <trkpt lat="45.52668" lon="6.75262">
        <ele>2077.5</ele>
        <time>2021-08-03T08:16:02Z</time>
      </trkpt>
      <trkpt lat="45.52668" lon="6.75262">
        <ele>2077.6</ele>
        <time>2021-08-03T08:16:03Z</time>
      </trkpt>
      <trkpt lat="45.52667" lon="6.75262">
        <ele>2077.7</ele>
        <time>2021-08-03T08:16:04Z</time>
      </trkpt>
      <trkpt lat="45.52667" lon="6.75262">
        <ele>2077.8</ele>
        <time>2021-08-03T08:16:05Z</time>
      </trkpt>
      <trkpt lat="45.52666" lon="6.75262">
        <ele>2078</ele>
        <time>2021-08-03T08:16:06Z</time>
      </trkpt>
      <trkpt lat="45.52666" lon="6.75261">
        <ele>2078.1</ele>
        <time>2021-08-03T08:16:07Z</time>
      </trkpt>
      <trkpt lat="45.52666" lon="6.75261">
        <ele>2078.2</ele>
        <time>2021-08-03T08:16:08Z</time>
      </trkpt>
      <trkpt lat="45.52665" lon="6.7526">
        <ele>2078.4</ele>
        <time>2021-08-03T08:16:09Z</time>
      </trkpt>
      <trkpt lat="45.52665" lon="6.7526">
        <ele>2078.5</ele>
        <time>2021-08-03T08:16:10Z</time>
      </trkpt>
      <trkpt lat="45.52665" lon="6.75259">
        <ele>2078.7</ele>
        <time>2021-08-03T08:16:11Z</time>
      </trkpt>
      <trkpt lat="45.52664" lon="6.75258">
        <ele>2078.9</ele>
        <time>2021-08-03T08:16:12Z</time>
      </trkpt>
      <trkpt lat="45.52664" lon="6.75258">
        <ele>2079</ele>
        <time>2021-08-03T08:16:13Z</time>
      </trkpt>
      <trkpt lat="45.52663" lon="6.75257">
        <ele>2079.2</ele>
        <time>2021-08-03T08:16:14Z</time>
      </trkpt>
      <trkpt lat="45.52663" lon="6.75256">
        <ele>2079.4</ele>
        <time>2021-08-03T08:16:15Z</time>
      </trkpt>
      <trkpt lat="45.52662" lon="6.75256">
        <ele>2079.6</ele>
        <time>2021-08-03T08:16:16Z</time>
      </trkpt>
      <trkpt lat="45.52662" lon="6.75255">
        <ele>2079.8</ele>
        <time>2021-08-03T08:16:17Z</time>
      </trkpt>
      <trkpt lat="45.52661" lon="6.75255">
        <ele>2079.9</ele>
        <time>2021-08-03T08:16:18Z</time>
      </trkpt>
      <trkpt lat="45.52661" lon="6.75254">
        <ele>2080.1</ele>
        <time>2021-08-03T08:16:19Z</time>
      </trkpt>
      <trkpt lat="45.5266" lon="6.75254">
        <ele>2080.3</ele>
        <time>2021-08-03T08:16:20Z</time>
      </trkpt>
      <trkpt lat="45.5266" lon="6.75253">
        <ele>2080.5</ele>
        <time>2021-08-03T08:16:21Z</time>
      </trkpt>
      <trkpt lat="45.52659" lon="6.75253">
        <ele>2080.7</ele>
        <time>2021-08-03T08:16:22Z</time>
      </trkpt>
      <trkpt lat="45.52658" lon="6.75253">
        <ele>2080.8</ele>
        <time>2021-08-03T08:16:23Z</time>
      </trkpt>
      <trkpt lat="45.52658" lon="6.75252">
        <ele>2081</ele>
        <time>2021-08-03T08:16:24Z</time>
      </trkpt>
      <trkpt lat="45.52657" lon="6.75252">
        <ele>2081.1</ele>
        <time>2021-08-03T08:16:25Z</time>
      </trkpt>
      <trkpt lat="45.52657" lon="6.75252">
        <ele>2081.2</ele>
        <time>2021-08-03T08:16:26Z</time>
      </trkpt>
      <trkpt lat="45.52657" lon="6.75252">
        <ele>2081.4</ele>
        <time>2021-08-03T08:16:27Z</time>
      </trkpt>
      <trkpt lat="45.52656" lon="6.75251">
        <ele>2081.4</ele>
        <time>2021-08-03T08:16:28Z</time>
      </trkpt>
      <trkpt lat="45.52656" lon="6.75251">
        <ele>2081.5</ele>
        <time>2021-08-03T08:16:29Z</time>
      </trkpt>
      <trkpt lat="45.52656" lon="6.75251">
        <ele>2081.6</ele>
        <time>2021-08-03T08:16:30Z</time>
      </trkpt>
      <trkpt lat="45.52656" lon="6.75251">
        <ele>2081.6</ele>
        <time>2021-08-03T08:16:31Z</time>
      </trkpt>
      <trkpt lat="45.52656" lon="6.75251">
        <ele>2081.6</ele>
        <time>2021-08-03T08:16:32Z</time>
      </trkpt>
      <trkpt lat="45.52656" lon="6.75251">
        <ele>2081.7</ele>
        <time>2021-08-03T08:16:33Z</time>
      </trkpt>
      <trkpt lat="45.52655" lon="6.7525">
        <ele>2081.8</ele>
        <time>2021-08-03T08:16:34Z</time>
      </trkpt>
      <trkpt lat="45.52655" lon="6.7525">
        <ele>2081.9</ele>
        <time>2021-08-03T08:16:35Z</time>
      </trkpt>
      <trkpt lat="45.52655" lon="6.75249">
        <ele>2082.1</ele>
        <time>2021-08-03T08:16:36Z</time>
      </trkpt>
      <trkpt lat="45.52654" lon="6.75248">
        <ele>2082.3</ele>
        <time>2021-08-03T08:16:37Z</time>
      </trkpt>
      <trkpt lat="45.52654" lon="6.75248">
        <ele>2082.4</ele>
        <time>2021-08-03T08:16:38Z</time>
      </trkpt>
      <trkpt lat="45.52653" lon="6.75248">
        <ele>2082.6</ele>
        <time>2021-08-03T08:16:39Z</time>
      </trkpt>
      <trkpt lat="45.52653" lon="6.75248">
        <ele>2082.7</ele>
        <time>2021-08-03T08:16:40Z</time>
      </trkpt>
      <trkpt lat="45.52653" lon="6.75248">
        <ele>2082.7</ele>
        <time>2021-08-03T08:16:41Z</time>
      </trkpt>
      <trkpt lat="45.52653" lon="6.75248">
        <ele>2082.8</ele>
        <time>2021-08-03T08:16:42Z</time>
      </trkpt>
      <trkpt lat="45.52652" lon="6.75248">
        <ele>2082.9</ele>
        <time>2021-08-03T08:16:43Z</time>
      </trkpt>
      <trkpt lat="45.52652" lon="6.75249">
        <ele>2083</ele>
        <time>2021-08-03T08:16:44Z</time>
      </trkpt>
      <trkpt lat="45.52652" lon="6.75249">
        <ele>2083.1</ele>
        <time>2021-08-03T08:16:45Z</time>
      </trkpt>
      <trkpt lat="45.52652" lon="6.7525">
        <ele>2083.2</ele>
        <time>2021-08-03T08:16:46Z</time>
      </trkpt>
      <trkpt lat="45.52652" lon="6.7525">
        <ele>2083.3</ele>
        <time>2021-08-03T08:16:47Z</time>
      </trkpt>
      <trkpt lat="45.52652" lon="6.75251">
        <ele>2083.4</ele>
        <time>2021-08-03T08:16:48Z</time>
      </trkpt>
      <trkpt lat="45.52652" lon="6.75251">
        <ele>2083.5</ele>
        <time>2021-08-03T08:16:49Z</time>
      </trkpt>
      <trkpt lat="45.52652" lon="6.75252">
        <ele>2083.6</ele>
        <time>2021-08-03T08:16:50Z</time>
      </trkpt>
      <trkpt lat="45.52652" lon="6.75252">
        <ele>2083.7</ele>
        <time>2021-08-03T08:16:51Z</time>
      </trkpt>
      <trkpt lat="45.52652" lon="6.75253">
        <ele>2083.8</ele>
        <time>2021-08-03T08:16:52Z</time>
      </trkpt>
      <trkpt lat="45.52652" lon="6.75254">
        <ele>2083.9</ele>
        <time>2021-08-03T08:16:53Z</time>
      </trkpt>
      <trkpt lat="45.52652" lon="6.75255">
        <ele>2084.1</ele>
        <time>2021-08-03T08:16:54Z</time>
      </trkpt>
      <trkpt lat="45.52652" lon="6.75256">
        <ele>2084.3</ele>
        <time>2021-08-03T08:16:55Z</time>
      </trkpt>
      <trkpt lat="45.52652" lon="6.75257">
        <ele>2084.5</ele>
        <time>2021-08-03T08:16:56Z</time>
      </trkpt>
      <trkpt lat="45.52652" lon="6.75258">
        <ele>2084.7</ele>
        <time>2021-08-03T08:16:57Z</time>
      </trkpt>
      <trkpt lat="45.52652" lon="6.75259">
        <ele>2084.9</ele>
        <time>2021-08-03T08:16:58Z</time>
      </trkpt>
      <trkpt lat="45.52653" lon="6.7526">
        <ele>2085.1</ele>
        <time>2021-08-03T08:16:59Z</time>
      </trkpt>
      <trkpt lat="45.52652" lon="6.75261">
        <ele>2085.3</ele>
        <time>2021-08-03T08:17:00Z</time>
      </trkpt>
      <trkpt lat="45.52652" lon="6.75261">
        <ele>2085.4</ele>
        <time>2021-08-03T08:17:01Z</time>
      </trkpt>
      <trkpt lat="45.52652" lon="6.75262">
        <ele>2085.5</ele>
        <time>2021-08-03T08:17:02Z</time>
      </trkpt>
      <trkpt lat="45.52652" lon="6.75262">
        <ele>2085.6</ele>
        <time>2021-08-03T08:17:03Z</time>
      </trkpt>
      <trkpt lat="45.52651" lon="6.75261">
        <ele>2085.8</ele>
        <time>2021-08-03T08:17:04Z</time>
      </trkpt>
      <trkpt lat="45.52651" lon="6.75261">
        <ele>2085.9</ele>
        <time>2021-08-03T08:17:05Z</time>
      </trkpt>
      <trkpt lat="45.5265" lon="6.7526">
        <ele>2086.1</ele>
        <time>2021-08-03T08:17:06Z</time>
      </trkpt>
      <trkpt lat="45.5265" lon="6.7526">
        <ele>2086.2</ele>
        <time>2021-08-03T08:17:07Z</time>
      </trkpt>
      <trkpt lat="45.5265" lon="6.75259">
        <ele>2086.4</ele>
        <time>2021-08-03T08:17:08Z</time>
      </trkpt>
      <trkpt lat="45.5265" lon="6.75258">
        <ele>2086.5</ele>
        <time>2021-08-03T08:17:09Z</time>
      </trkpt>
      <trkpt lat="45.5265" lon="6.75258">
        <ele>2086.5</ele>
        <time>2021-08-03T08:17:10Z</time>
      </trkpt>
      <trkpt lat="45.5265" lon="6.75259">
        <ele>2086.5</ele>
        <time>2021-08-03T08:17:11Z</time>
      </trkpt>
      <trkpt lat="45.5265" lon="6.75259">
        <ele>2086.6</ele>
        <time>2021-08-03T08:17:12Z</time>
      </trkpt>
      <trkpt lat="45.5265" lon="6.7526">
        <ele>2086.7</ele>
        <time>2021-08-03T08:17:13Z</time>
      </trkpt>
      <trkpt lat="45.5265" lon="6.7526">
        <ele>2086.9</ele>
        <time>2021-08-03T08:17:14Z</time>
      </trkpt>
      <trkpt lat="45.5265" lon="6.75261">
        <ele>2087.1</ele>
        <time>2021-08-03T08:17:15Z</time>
      </trkpt>
      <trkpt lat="45.52649" lon="6.75262">
        <ele>2087.2</ele>
        <time>2021-08-03T08:17:16Z</time>
      </trkpt>
      <trkpt lat="45.52649" lon="6.75262">
        <ele>2087.4</ele>
        <time>2021-08-03T08:17:17Z</time>
      </trkpt>
      <trkpt lat="45.52649" lon="6.75263">
        <ele>2087.5</ele>
        <time>2021-08-03T08:17:18Z</time>
      </trkpt>
      <trkpt lat="45.52648" lon="6.75263">
        <ele>2087.6</ele>
        <time>2021-08-03T08:17:19Z</time>
      </trkpt>
      <trkpt lat="45.52648" lon="6.75263">
        <ele>2087.6</ele>
        <time>2021-08-03T08:17:20Z</time>
      </trkpt>
      <trkpt lat="45.52648" lon="6.75263">
        <ele>2087.6</ele>
        <time>2021-08-03T08:17:21Z</time>
      </trkpt>
      <trkpt lat="45.52648" lon="6.75263">
        <ele>2087.6</ele>
        <time>2021-08-03T08:17:22Z</time>
      </trkpt>
      <trkpt lat="45.52648" lon="6.75263">
        <ele>2087.7</ele>
        <time>2021-08-03T08:17:23Z</time>
      </trkpt>
      <trkpt lat="45.52648" lon="6.75263">
        <ele>2087.7</ele>
        <time>2021-08-03T08:17:24Z</time>
      </trkpt>
      <trkpt lat="45.52648" lon="6.75263">
        <ele>2087.7</ele>
        <time>2021-08-03T08:17:25Z</time>
      </trkpt>
      <trkpt lat="45.52648" lon="6.75263">
        <ele>2087.7</ele>
        <time>2021-08-03T08:17:26Z</time>
      </trkpt>
      <trkpt lat="45.52648" lon="6.75263">
        <ele>2087.7</ele>
        <time>2021-08-03T08:17:27Z</time>
      </trkpt>
      <trkpt lat="45.52648" lon="6.75263">
        <ele>2087.8</ele>
        <time>2021-08-03T08:17:28Z</time>
      </trkpt>
      <trkpt lat="45.52648" lon="6.75263">
        <ele>2087.8</ele>
        <time>2021-08-03T08:17:29Z</time>
      </trkpt>
      <trkpt lat="45.52648" lon="6.75263">
        <ele>2087.8</ele>
        <time>2021-08-03T08:17:30Z</time>
      </trkpt>
      <trkpt lat="45.52648" lon="6.75263">
        <ele>2087.9</ele>
        <time>2021-08-03T08:17:31Z</time>
      </trkpt>
      <trkpt lat="45.52648" lon="6.75262">
        <ele>2087.9</ele>
        <time>2021-08-03T08:17:32Z</time>
      </trkpt>
      <trkpt lat="45.52648" lon="6.75262">
        <ele>2088</ele>
        <time>2021-08-03T08:17:33Z</time>
      </trkpt>
      <trkpt lat="45.52647" lon="6.75262">
        <ele>2088</ele>
        <time>2021-08-03T08:17:34Z</time>
      </trkpt>
      <trkpt lat="45.52647" lon="6.75262">
        <ele>2088.1</ele>
        <time>2021-08-03T08:17:35Z</time>
      </trkpt>
      <trkpt lat="45.52647" lon="6.75262">
        <ele>2088.1</ele>
        <time>2021-08-03T08:17:36Z</time>
      </trkpt>
      <trkpt lat="45.52647" lon="6.75262">
        <ele>2088.1</ele>
        <time>2021-08-03T08:17:37Z</time>
      </trkpt>
      <trkpt lat="45.52647" lon="6.75262">
        <ele>2088.1</ele>
        <time>2021-08-03T08:17:38Z</time>
      </trkpt>
      <trkpt lat="45.52647" lon="6.75262">
        <ele>2088.1</ele>
        <time>2021-08-03T08:17:39Z</time>
      </trkpt>
      <trkpt lat="45.52647" lon="6.75262">
        <ele>2088.2</ele>
        <time>2021-08-03T08:17:40Z</time>
      </trkpt>
      <trkpt lat="45.52647" lon="6.75262">
        <ele>2088.2</ele>
        <time>2021-08-03T08:17:41Z</time>
      </trkpt>
      <trkpt lat="45.52647" lon="6.75262">
        <ele>2088.2</ele>
        <time>2021-08-03T08:17:42Z</time>
      </trkpt>
      <trkpt lat="45.52647" lon="6.75262">
        <ele>2088.2</ele>
        <time>2021-08-03T08:17:43Z</time>
      </trkpt>
      <trkpt lat="45.52647" lon="6.75262">
        <ele>2088.2</ele>
        <time>2021-08-03T08:17:44Z</time>
      </trkpt>
      <trkpt lat="45.52647" lon="6.75261">
        <ele>2088.2</ele>
        <time>2021-08-03T08:17:45Z</time>
      </trkpt>
      <trkpt lat="45.52647" lon="6.75261">
        <ele>2088.3</ele>
        <time>2021-08-03T08:17:46Z</time>
      </trkpt>
      <trkpt lat="45.52647" lon="6.75261">
        <ele>2088.4</ele>
        <time>2021-08-03T08:17:47Z</time>
      </trkpt>
      <trkpt lat="45.52646" lon="6.75261">
        <ele>2088.5</ele>
        <time>2021-08-03T08:17:48Z</time>
      </trkpt>
      <trkpt lat="45.52646" lon="6.7526">
        <ele>2088.6</ele>
        <time>2021-08-03T08:17:49Z</time>
      </trkpt>
      <trkpt lat="45.52646" lon="6.7526">
        <ele>2088.8</ele>
        <time>2021-08-03T08:17:50Z</time>
      </trkpt>
      <trkpt lat="45.52645" lon="6.75259">
        <ele>2089</ele>
        <time>2021-08-03T08:17:51Z</time>
      </trkpt>
      <trkpt lat="45.52644" lon="6.75258">
        <ele>2089.2</ele>
        <time>2021-08-03T08:17:52Z</time>
      </trkpt>
      <trkpt lat="45.52644" lon="6.75258">
        <ele>2089.4</ele>
        <time>2021-08-03T08:17:53Z</time>
      </trkpt>
      <trkpt lat="45.52643" lon="6.75257">
        <ele>2089.7</ele>
        <time>2021-08-03T08:17:54Z</time>
      </trkpt>
      <trkpt lat="45.52642" lon="6.75256">
        <ele>2089.9</ele>
        <time>2021-08-03T08:17:55Z</time>
      </trkpt>
      <trkpt lat="45.52642" lon="6.75255">
        <ele>2090.2</ele>
        <time>2021-08-03T08:17:56Z</time>
      </trkpt>
      <trkpt lat="45.52641" lon="6.75254">
        <ele>2090.4</ele>
        <time>2021-08-03T08:17:57Z</time>
      </trkpt>
      <trkpt lat="45.52641" lon="6.75253">
        <ele>2090.6</ele>
        <time>2021-08-03T08:17:58Z</time>
      </trkpt>
      <trkpt lat="45.52641" lon="6.75252">
        <ele>2090.8</ele>
        <time>2021-08-03T08:17:59Z</time>
      </trkpt>
      <trkpt lat="45.5264" lon="6.75252">
        <ele>2091</ele>
        <time>2021-08-03T08:18:00Z</time>
      </trkpt>
      <trkpt lat="45.5264" lon="6.75251">
        <ele>2091.1</ele>
        <time>2021-08-03T08:18:01Z</time>
      </trkpt>
      <trkpt lat="45.5264" lon="6.7525">
        <ele>2091.3</ele>
        <time>2021-08-03T08:18:02Z</time>
      </trkpt>
      <trkpt lat="45.5264" lon="6.75249">
        <ele>2091.4</ele>
        <time>2021-08-03T08:18:03Z</time>
      </trkpt>
      <trkpt lat="45.5264" lon="6.75249">
        <ele>2091.5</ele>
        <time>2021-08-03T08:18:04Z</time>
      </trkpt>
      <trkpt lat="45.5264" lon="6.75248">
        <ele>2091.6</ele>
        <time>2021-08-03T08:18:05Z</time>
      </trkpt>
      <trkpt lat="45.52639" lon="6.75248">
        <ele>2091.7</ele>
        <time>2021-08-03T08:18:06Z</time>
      </trkpt>
      <trkpt lat="45.52639" lon="6.75248">
        <ele>2091.8</ele>
        <time>2021-08-03T08:18:07Z</time>
      </trkpt>
      <trkpt lat="45.52639" lon="6.75247">
        <ele>2091.8</ele>
        <time>2021-08-03T08:18:08Z</time>
      </trkpt>
      <trkpt lat="45.52639" lon="6.75247">
        <ele>2091.9</ele>
        <time>2021-08-03T08:18:09Z</time>
      </trkpt>
      <trkpt lat="45.52639" lon="6.75247">
        <ele>2092</ele>
        <time>2021-08-03T08:18:10Z</time>
      </trkpt>
      <trkpt lat="45.52638" lon="6.75247">
        <ele>2092</ele>
        <time>2021-08-03T08:18:11Z</time>
      </trkpt>
      <trkpt lat="45.52638" lon="6.75247">
        <ele>2092.1</ele>
        <time>2021-08-03T08:18:12Z</time>
      </trkpt>
      <trkpt lat="45.52638" lon="6.75247">
        <ele>2092.2</ele>
        <time>2021-08-03T08:18:13Z</time>
      </trkpt>
      <trkpt lat="45.52638" lon="6.75247">
        <ele>2092.3</ele>
        <time>2021-08-03T08:18:14Z</time>
      </trkpt>
      <trkpt lat="45.52637" lon="6.75247">
        <ele>2092.4</ele>
        <time>2021-08-03T08:18:15Z</time>
      </trkpt>
      <trkpt lat="45.52637" lon="6.75246">
        <ele>2092.5</ele>
        <time>2021-08-03T08:18:16Z</time>
      </trkpt>
      <trkpt lat="45.52636" lon="6.75246">
        <ele>2092.6</ele>
        <time>2021-08-03T08:18:17Z</time>
      </trkpt>
      <trkpt lat="45.52636" lon="6.75246">
        <ele>2092.7</ele>
        <time>2021-08-03T08:18:18Z</time>
      </trkpt>
      <trkpt lat="45.52636" lon="6.75246">
        <ele>2092.9</ele>
        <time>2021-08-03T08:18:19Z</time>
      </trkpt>
      <trkpt lat="45.52635" lon="6.75245">
        <ele>2093</ele>
        <time>2021-08-03T08:18:20Z</time>
      </trkpt>
      <trkpt lat="45.52635" lon="6.75245">
        <ele>2093.1</ele>
        <time>2021-08-03T08:18:21Z</time>
      </trkpt>
      <trkpt lat="45.52634" lon="6.75245">
        <ele>2093.3</ele>
        <time>2021-08-03T08:18:22Z</time>
      </trkpt>
      <trkpt lat="45.52634" lon="6.75244">
        <ele>2093.4</ele>
        <time>2021-08-03T08:18:23Z</time>
      </trkpt>
      <trkpt lat="45.52633" lon="6.75244">
        <ele>2093.6</ele>
        <time>2021-08-03T08:18:24Z</time>
      </trkpt>
      <trkpt lat="45.52633" lon="6.75243">
        <ele>2093.8</ele>
        <time>2021-08-03T08:18:25Z</time>
      </trkpt>
      <trkpt lat="45.52632" lon="6.75242">
        <ele>2094</ele>
        <time>2021-08-03T08:18:26Z</time>
      </trkpt>
      <trkpt lat="45.52632" lon="6.75242">
        <ele>2094.1</ele>
        <time>2021-08-03T08:18:27Z</time>
      </trkpt>
      <trkpt lat="45.52631" lon="6.75241">
        <ele>2094.3</ele>
        <time>2021-08-03T08:18:28Z</time>
      </trkpt>
      <trkpt lat="45.52631" lon="6.75241">
        <ele>2094.5</ele>
        <time>2021-08-03T08:18:29Z</time>
      </trkpt>
      <trkpt lat="45.52631" lon="6.7524">
        <ele>2094.6</ele>
        <time>2021-08-03T08:18:30Z</time>
      </trkpt>
      <trkpt lat="45.5263" lon="6.75239">
        <ele>2094.8</ele>
        <time>2021-08-03T08:18:31Z</time>
      </trkpt>
      <trkpt lat="45.5263" lon="6.75239">
        <ele>2095</ele>
        <time>2021-08-03T08:18:32Z</time>
      </trkpt>
      <trkpt lat="45.52629" lon="6.75238">
        <ele>2095.1</ele>
        <time>2021-08-03T08:18:33Z</time>
      </trkpt>
      <trkpt lat="45.52629" lon="6.75238">
        <ele>2095.2</ele>
        <time>2021-08-03T08:18:34Z</time>
      </trkpt>
      <trkpt lat="45.52629" lon="6.75237">
        <ele>2095.3</ele>
        <time>2021-08-03T08:18:35Z</time>
      </trkpt>
      <trkpt lat="45.52629" lon="6.75237">
        <ele>2095.4</ele>
        <time>2021-08-03T08:18:36Z</time>
      </trkpt>
      <trkpt lat="45.52628" lon="6.75237">
        <ele>2095.5</ele>
        <time>2021-08-03T08:18:37Z</time>
      </trkpt>
      <trkpt lat="45.52628" lon="6.75237">
        <ele>2095.5</ele>
        <time>2021-08-03T08:18:38Z</time>
      </trkpt>
      <trkpt lat="45.52628" lon="6.75236">
        <ele>2095.6</ele>
        <time>2021-08-03T08:18:39Z</time>
      </trkpt>
      <trkpt lat="45.52628" lon="6.75236">
        <ele>2095.6</ele>
        <time>2021-08-03T08:18:40Z</time>
      </trkpt>
      <trkpt lat="45.52628" lon="6.75236">
        <ele>2095.6</ele>
        <time>2021-08-03T08:18:41Z</time>
      </trkpt>
      <trkpt lat="45.52628" lon="6.75236">
        <ele>2095.6</ele>
        <time>2021-08-03T08:18:42Z</time>
      </trkpt>
      <trkpt lat="45.52628" lon="6.75236">
        <ele>2095.6</ele>
        <time>2021-08-03T08:18:43Z</time>
      </trkpt>
      <trkpt lat="45.52628" lon="6.75236">
        <ele>2095.6</ele>
        <time>2021-08-03T08:18:44Z</time>
      </trkpt>
      <trkpt lat="45.52628" lon="6.75236">
        <ele>2095.6</ele>
        <time>2021-08-03T08:18:45Z</time>
      </trkpt>
      <trkpt lat="45.52628" lon="6.75237">
        <ele>2095.6</ele>
        <time>2021-08-03T08:18:46Z</time>
      </trkpt>
      <trkpt lat="45.52628" lon="6.75237">
        <ele>2095.7</ele>
        <time>2021-08-03T08:18:47Z</time>
      </trkpt>
      <trkpt lat="45.52628" lon="6.75237">
        <ele>2095.7</ele>
        <time>2021-08-03T08:18:48Z</time>
      </trkpt>
      <trkpt lat="45.52628" lon="6.75237">
        <ele>2095.7</ele>
        <time>2021-08-03T08:18:49Z</time>
      </trkpt>
      <trkpt lat="45.52628" lon="6.75237">
        <ele>2095.7</ele>
        <time>2021-08-03T08:18:50Z</time>
      </trkpt>
      <trkpt lat="45.52628" lon="6.75236">
        <ele>2095.8</ele>
        <time>2021-08-03T08:18:51Z</time>
      </trkpt>
      <trkpt lat="45.52628" lon="6.75236">
        <ele>2095.9</ele>
        <time>2021-08-03T08:18:52Z</time>
      </trkpt>
      <trkpt lat="45.52627" lon="6.75236">
        <ele>2096</ele>
        <time>2021-08-03T08:18:53Z</time>
      </trkpt>
      <trkpt lat="45.52627" lon="6.75236">
        <ele>2096.1</ele>
        <time>2021-08-03T08:18:54Z</time>
      </trkpt>
      <trkpt lat="45.52626" lon="6.75235">
        <ele>2096.2</ele>
        <time>2021-08-03T08:18:55Z</time>
      </trkpt>
      <trkpt lat="45.52626" lon="6.75235">
        <ele>2096.4</ele>
        <time>2021-08-03T08:18:56Z</time>
      </trkpt>
      <trkpt lat="45.52626" lon="6.75235">
        <ele>2096.5</ele>
        <time>2021-08-03T08:18:57Z</time>
      </trkpt>
      <trkpt lat="45.52625" lon="6.75235">
        <ele>2096.7</ele>
        <time>2021-08-03T08:18:58Z</time>
      </trkpt>
      <trkpt lat="45.52625" lon="6.75234">
        <ele>2096.8</ele>
        <time>2021-08-03T08:18:59Z</time>
      </trkpt>
      <trkpt lat="45.52624" lon="6.75234">
        <ele>2096.8</ele>
        <time>2021-08-03T08:19:00Z</time>
      </trkpt>
      <trkpt lat="45.52624" lon="6.75235">
        <ele>2096.9</ele>
        <time>2021-08-03T08:19:01Z</time>
      </trkpt>
      <trkpt lat="45.52624" lon="6.75235">
        <ele>2097</ele>
        <time>2021-08-03T08:19:02Z</time>
      </trkpt>
      <trkpt lat="45.52624" lon="6.75235">
        <ele>2097</ele>
        <time>2021-08-03T08:19:03Z</time>
      </trkpt>
      <trkpt lat="45.52624" lon="6.75236">
        <ele>2097.1</ele>
        <time>2021-08-03T08:19:04Z</time>
      </trkpt>
      <trkpt lat="45.52624" lon="6.75236">
        <ele>2097.3</ele>
        <time>2021-08-03T08:19:05Z</time>
      </trkpt>
      <trkpt lat="45.52624" lon="6.75237">
        <ele>2097.4</ele>
        <time>2021-08-03T08:19:06Z</time>
      </trkpt>
      <trkpt lat="45.52625" lon="6.75238">
        <ele>2097.6</ele>
        <time>2021-08-03T08:19:07Z</time>
      </trkpt>
      <trkpt lat="45.52625" lon="6.75239">
        <ele>2097.8</ele>
        <time>2021-08-03T08:19:08Z</time>
      </trkpt>
      <trkpt lat="45.52625" lon="6.7524">
        <ele>2098</ele>
        <time>2021-08-03T08:19:09Z</time>
      </trkpt>
      <trkpt lat="45.52625" lon="6.75241">
        <ele>2098.3</ele>
        <time>2021-08-03T08:19:10Z</time>
      </trkpt>
      <trkpt lat="45.52626" lon="6.75242">
        <ele>2098.5</ele>
        <time>2021-08-03T08:19:11Z</time>
      </trkpt>
      <trkpt lat="45.52626" lon="6.75243">
        <ele>2098.7</ele>
        <time>2021-08-03T08:19:12Z</time>
      </trkpt>
      <trkpt lat="45.52626" lon="6.75244">
        <ele>2098.9</ele>
        <time>2021-08-03T08:19:13Z</time>
      </trkpt>
      <trkpt lat="45.52626" lon="6.75245">
        <ele>2099.1</ele>
        <time>2021-08-03T08:19:14Z</time>
      </trkpt>
      <trkpt lat="45.52627" lon="6.75246">
        <ele>2099.2</ele>
        <time>2021-08-03T08:19:15Z</time>
      </trkpt>
      <trkpt lat="45.52627" lon="6.75246">
        <ele>2099.3</ele>
        <time>2021-08-03T08:19:16Z</time>
      </trkpt>
      <trkpt lat="45.52626" lon="6.75246">
        <ele>2099.3</ele>
        <time>2021-08-03T08:19:17Z</time>
      </trkpt>
      <trkpt lat="45.52626" lon="6.75246">
        <ele>2099.4</ele>
        <time>2021-08-03T08:19:18Z</time>
      </trkpt>
      <trkpt lat="45.52626" lon="6.75246">
        <ele>2099.5</ele>
        <time>2021-08-03T08:19:19Z</time>
      </trkpt>
      <trkpt lat="45.52626" lon="6.75246">
        <ele>2099.6</ele>
        <time>2021-08-03T08:19:20Z</time>
      </trkpt>
      <trkpt lat="45.52625" lon="6.75246">
        <ele>2099.8</ele>
        <time>2021-08-03T08:19:21Z</time>
      </trkpt>
      <trkpt lat="45.52625" lon="6.75245">
        <ele>2099.9</ele>
        <time>2021-08-03T08:19:22Z</time>
      </trkpt>
      <trkpt lat="45.52624" lon="6.75245">
        <ele>2100.1</ele>
        <time>2021-08-03T08:19:23Z</time>
      </trkpt>
      <trkpt lat="45.52624" lon="6.75244">
        <ele>2100.3</ele>
        <time>2021-08-03T08:19:24Z</time>
      </trkpt>
      <trkpt lat="45.52623" lon="6.75244">
        <ele>2100.4</ele>
        <time>2021-08-03T08:19:25Z</time>
      </trkpt>
      <trkpt lat="45.52622" lon="6.75243">
        <ele>2100.6</ele>
        <time>2021-08-03T08:19:26Z</time>
      </trkpt>
      <trkpt lat="45.52622" lon="6.75243">
        <ele>2100.7</ele>
        <time>2021-08-03T08:19:27Z</time>
      </trkpt>
      <trkpt lat="45.52621" lon="6.75243">
        <ele>2100.9</ele>
        <time>2021-08-03T08:19:28Z</time>
      </trkpt>
      <trkpt lat="45.52621" lon="6.75243">
        <ele>2101.1</ele>
        <time>2021-08-03T08:19:29Z</time>
      </trkpt>
      <trkpt lat="45.5262" lon="6.75242">
        <ele>2101.2</ele>
        <time>2021-08-03T08:19:30Z</time>
      </trkpt>
      <trkpt lat="45.5262" lon="6.75242">
        <ele>2101.4</ele>
        <time>2021-08-03T08:19:31Z</time>
      </trkpt>
      <trkpt lat="45.52619" lon="6.75242">
        <ele>2101.6</ele>
        <time>2021-08-03T08:19:32Z</time>
      </trkpt>
      <trkpt lat="45.52618" lon="6.75242">
        <ele>2101.8</ele>
        <time>2021-08-03T08:19:33Z</time>
      </trkpt>
      <trkpt lat="45.52618" lon="6.75242">
        <ele>2102</ele>
        <time>2021-08-03T08:19:34Z</time>
      </trkpt>
      <trkpt lat="45.52617" lon="6.75242">
        <ele>2102.1</ele>
        <time>2021-08-03T08:19:35Z</time>
      </trkpt>
      <trkpt lat="45.52616" lon="6.75242">
        <ele>2102.3</ele>
        <time>2021-08-03T08:19:36Z</time>
      </trkpt>
      <trkpt lat="45.52616" lon="6.75242">
        <ele>2102.4</ele>
        <time>2021-08-03T08:19:37Z</time>
      </trkpt>
      <trkpt lat="45.52615" lon="6.75242">
        <ele>2102.6</ele>
        <time>2021-08-03T08:19:38Z</time>
      </trkpt>
      <trkpt lat="45.52615" lon="6.75242">
        <ele>2102.7</ele>
        <time>2021-08-03T08:19:39Z</time>
      </trkpt>
      <trkpt lat="45.52615" lon="6.75243">
        <ele>2102.8</ele>
        <time>2021-08-03T08:19:40Z</time>
      </trkpt>
      <trkpt lat="45.52615" lon="6.75243">
        <ele>2102.9</ele>
        <time>2021-08-03T08:19:41Z</time>
      </trkpt>
      <trkpt lat="45.52615" lon="6.75244">
        <ele>2103</ele>
        <time>2021-08-03T08:19:42Z</time>
      </trkpt>
      <trkpt lat="45.52615" lon="6.75245">
        <ele>2103.2</ele>
        <time>2021-08-03T08:19:43Z</time>
      </trkpt>
      <trkpt lat="45.52616" lon="6.75246">
        <ele>2103.3</ele>
        <time>2021-08-03T08:19:44Z</time>
      </trkpt>
      <trkpt lat="45.52616" lon="6.75246">
        <ele>2103.5</ele>
        <time>2021-08-03T08:19:45Z</time>
      </trkpt>
      <trkpt lat="45.52616" lon="6.75247">
        <ele>2103.7</ele>
        <time>2021-08-03T08:19:46Z</time>
      </trkpt>
      <trkpt lat="45.52617" lon="6.75248">
        <ele>2103.8</ele>
        <time>2021-08-03T08:19:47Z</time>
      </trkpt>
      <trkpt lat="45.52617" lon="6.75248">
        <ele>2103.9</ele>
        <time>2021-08-03T08:19:48Z</time>
      </trkpt>
      <trkpt lat="45.52617" lon="6.75248">
        <ele>2104</ele>
        <time>2021-08-03T08:19:49Z</time>
      </trkpt>
      <trkpt lat="45.52617" lon="6.75248">
        <ele>2104</ele>
        <time>2021-08-03T08:19:50Z</time>
      </trkpt>
      <trkpt lat="45.52617" lon="6.75248">
        <ele>2104</ele>
        <time>2021-08-03T08:19:51Z</time>
      </trkpt>
      <trkpt lat="45.52617" lon="6.75248">
        <ele>2104</ele>
        <time>2021-08-03T08:19:52Z</time>
      </trkpt>
      <trkpt lat="45.52617" lon="6.75248">
        <ele>2104</ele>
        <time>2021-08-03T08:19:53Z</time>
      </trkpt>
      <trkpt lat="45.52617" lon="6.75248">
        <ele>2104</ele>
        <time>2021-08-03T08:19:54Z</time>
      </trkpt>
      <trkpt lat="45.52617" lon="6.75248">
        <ele>2104</ele>
        <time>2021-08-03T08:19:55Z</time>
      </trkpt>
      <trkpt lat="45.52617" lon="6.75248">
        <ele>2104.1</ele>
        <time>2021-08-03T08:19:56Z</time>
      </trkpt>
      <trkpt lat="45.52617" lon="6.75249">
        <ele>2104.2</ele>
        <time>2021-08-03T08:19:57Z</time>
      </trkpt>
      <trkpt lat="45.52618" lon="6.75249">
        <ele>2104.2</ele>
        <time>2021-08-03T08:19:58Z</time>
      </trkpt>
      <trkpt lat="45.52618" lon="6.7525">
        <ele>2104.3</ele>
        <time>2021-08-03T08:19:59Z</time>
      </trkpt>
      <trkpt lat="45.52618" lon="6.7525">
        <ele>2104.5</ele>
        <time>2021-08-03T08:20:00Z</time>
      </trkpt>
      <trkpt lat="45.52618" lon="6.75251">
        <ele>2104.6</ele>
        <time>2021-08-03T08:20:01Z</time>
      </trkpt>
      <trkpt lat="45.52619" lon="6.75252">
        <ele>2104.8</ele>
        <time>2021-08-03T08:20:02Z</time>
      </trkpt>
      <trkpt lat="45.52619" lon="6.75252">
        <ele>2104.9</ele>
        <time>2021-08-03T08:20:03Z</time>
      </trkpt>
      <trkpt lat="45.52619" lon="6.75253">
        <ele>2105.1</ele>
        <time>2021-08-03T08:20:04Z</time>
      </trkpt>
      <trkpt lat="45.52619" lon="6.75254">
        <ele>2105.3</ele>
        <time>2021-08-03T08:20:05Z</time>
      </trkpt>
      <trkpt lat="45.52619" lon="6.75255">
        <ele>2105.4</ele>
        <time>2021-08-03T08:20:06Z</time>
      </trkpt>
      <trkpt lat="45.52619" lon="6.75256">
        <ele>2105.6</ele>
        <time>2021-08-03T08:20:07Z</time>
      </trkpt>
      <trkpt lat="45.52619" lon="6.75257">
        <ele>2105.8</ele>
        <time>2021-08-03T08:20:08Z</time>
      </trkpt>
      <trkpt lat="45.52619" lon="6.75257">
        <ele>2105.9</ele>
        <time>2021-08-03T08:20:09Z</time>
      </trkpt>
      <trkpt lat="45.52619" lon="6.75258">
        <ele>2106.1</ele>
        <time>2021-08-03T08:20:10Z</time>
      </trkpt>
      <trkpt lat="45.52619" lon="6.75259">
        <ele>2106.2</ele>
        <time>2021-08-03T08:20:11Z</time>
      </trkpt>
      <trkpt lat="45.52619" lon="6.75259">
        <ele>2106.3</ele>
        <time>2021-08-03T08:20:12Z</time>
      </trkpt>
      <trkpt lat="45.52619" lon="6.7526">
        <ele>2106.4</ele>
        <time>2021-08-03T08:20:13Z</time>
      </trkpt>
      <trkpt lat="45.52619" lon="6.7526">
        <ele>2106.5</ele>
        <time>2021-08-03T08:20:14Z</time>
      </trkpt>
      <trkpt lat="45.52619" lon="6.75261">
        <ele>2106.6</ele>
        <time>2021-08-03T08:20:15Z</time>
      </trkpt>
      <trkpt lat="45.52619" lon="6.75261">
        <ele>2106.6</ele>
        <time>2021-08-03T08:20:16Z</time>
      </trkpt>
      <trkpt lat="45.52619" lon="6.75261">
        <ele>2106.6</ele>
        <time>2021-08-03T08:20:17Z</time>
      </trkpt>
      <trkpt lat="45.52619" lon="6.75261">
        <ele>2106.7</ele>
        <time>2021-08-03T08:20:18Z</time>
      </trkpt>
      <trkpt lat="45.52619" lon="6.75261">
        <ele>2106.7</ele>
        <time>2021-08-03T08:20:19Z</time>
      </trkpt>
      <trkpt lat="45.52619" lon="6.75261">
        <ele>2106.7</ele>
        <time>2021-08-03T08:20:20Z</time>
      </trkpt>
      <trkpt lat="45.52619" lon="6.75261">
        <ele>2106.7</ele>
        <time>2021-08-03T08:20:21Z</time>
      </trkpt>
      <trkpt lat="45.52619" lon="6.75261">
        <ele>2106.7</ele>
        <time>2021-08-03T08:20:22Z</time>
      </trkpt>
      <trkpt lat="45.52619" lon="6.75261">
        <ele>2106.7</ele>
        <time>2021-08-03T08:20:23Z</time>
      </trkpt>
      <trkpt lat="45.52619" lon="6.75261">
        <ele>2106.7</ele>
        <time>2021-08-03T08:20:24Z</time>
      </trkpt>
      <trkpt lat="45.52619" lon="6.75261">
        <ele>2106.7</ele>
        <time>2021-08-03T08:20:25Z</time>
      </trkpt>
      <trkpt lat="45.52619" lon="6.75261">
        <ele>2106.7</ele>
        <time>2021-08-03T08:20:26Z</time>
      </trkpt>
      <trkpt lat="45.52619" lon="6.75261">
        <ele>2106.8</ele>
        <time>2021-08-03T08:20:27Z</time>
      </trkpt>
      <trkpt lat="45.52619" lon="6.75261">
        <ele>2106.8</ele>
        <time>2021-08-03T08:20:28Z</time>
      </trkpt>
      <trkpt lat="45.52619" lon="6.75261">
        <ele>2106.8</ele>
        <time>2021-08-03T08:20:29Z</time>
      </trkpt>
      <trkpt lat="45.52619" lon="6.75261">
        <ele>2106.8</ele>
        <time>2021-08-03T08:20:30Z</time>
      </trkpt>
      <trkpt lat="45.52619" lon="6.75261">
        <ele>2106.8</ele>
        <time>2021-08-03T08:20:31Z</time>
      </trkpt>
      <trkpt lat="45.52619" lon="6.75261">
        <ele>2106.8</ele>
        <time>2021-08-03T08:20:32Z</time>
      </trkpt>
      <trkpt lat="45.52619" lon="6.75261">
        <ele>2106.8</ele>
        <time>2021-08-03T08:20:33Z</time>
      </trkpt>
      <trkpt lat="45.52619" lon="6.75261">
        <ele>2106.8</ele>
        <time>2021-08-03T08:20:34Z</time>
      </trkpt>
      <trkpt lat="45.52619" lon="6.75261">
        <ele>2106.9</ele>
        <time>2021-08-03T08:20:35Z</time>
      </trkpt>
      <trkpt lat="45.52619" lon="6.75261">
        <ele>2106.9</ele>
        <time>2021-08-03T08:20:36Z</time>
      </trkpt>
      <trkpt lat="45.52619" lon="6.75261">
        <ele>2107</ele>
        <time>2021-08-03T08:20:37Z</time>
      </trkpt>
      <trkpt lat="45.52619" lon="6.75262">
        <ele>2107</ele>
        <time>2021-08-03T08:20:38Z</time>
      </trkpt>
      <trkpt lat="45.52619" lon="6.75262">
        <ele>2107.1</ele>
        <time>2021-08-03T08:20:39Z</time>
      </trkpt>
      <trkpt lat="45.52618" lon="6.75262">
        <ele>2107.2</ele>
        <time>2021-08-03T08:20:40Z</time>
      </trkpt>
      <trkpt lat="45.52618" lon="6.75263">
        <ele>2107.3</ele>
        <time>2021-08-03T08:20:41Z</time>
      </trkpt>
      <trkpt lat="45.52618" lon="6.75264">
        <ele>2107.4</ele>
        <time>2021-08-03T08:20:42Z</time>
      </trkpt>
      <trkpt lat="45.52618" lon="6.75264">
        <ele>2107.5</ele>
        <time>2021-08-03T08:20:43Z</time>
      </trkpt>
      <trkpt lat="45.52617" lon="6.75265">
        <ele>2107.8</ele>
        <time>2021-08-03T08:20:44Z</time>
      </trkpt>
      <trkpt lat="45.52617" lon="6.75266">
        <ele>2108</ele>
        <time>2021-08-03T08:20:45Z</time>
      </trkpt>
      <trkpt lat="45.52617" lon="6.75267">
        <ele>2108.3</ele>
        <time>2021-08-03T08:20:46Z</time>
      </trkpt>
      <trkpt lat="45.52616" lon="6.75268">
        <ele>2108.7</ele>
        <time>2021-08-03T08:20:47Z</time>
      </trkpt>
      <trkpt lat="45.52616" lon="6.75269">
        <ele>2109</ele>
        <time>2021-08-03T08:20:48Z</time>
      </trkpt>
      <trkpt lat="45.52615" lon="6.7527">
        <ele>2109.3</ele>
        <time>2021-08-03T08:20:49Z</time>
      </trkpt>
      <trkpt lat="45.52615" lon="6.75271">
        <ele>2109.7</ele>
        <time>2021-08-03T08:20:50Z</time>
      </trkpt>
      <trkpt lat="45.52614" lon="6.75272">
        <ele>2110</ele>
        <time>2021-08-03T08:20:51Z</time>
      </trkpt>
      <trkpt lat="45.52613" lon="6.75273">
        <ele>2110.3</ele>
        <time>2021-08-03T08:20:52Z</time>
      </trkpt>
      <trkpt lat="45.52612" lon="6.75273">
        <ele>2110.6</ele>
        <time>2021-08-03T08:20:53Z</time>
      </trkpt>
      <trkpt lat="45.52612" lon="6.75274">
        <ele>2110.9</ele>
        <time>2021-08-03T08:20:54Z</time>
      </trkpt>
      <trkpt lat="45.52611" lon="6.75274">
        <ele>2111.2</ele>
        <time>2021-08-03T08:20:55Z</time>
      </trkpt>
      <trkpt lat="45.5261" lon="6.75274">
        <ele>2111.4</ele>
        <time>2021-08-03T08:20:56Z</time>
      </trkpt>
      <trkpt lat="45.5261" lon="6.75274">
        <ele>2111.6</ele>
        <time>2021-08-03T08:20:57Z</time>
      </trkpt>
      <trkpt lat="45.5261" lon="6.75274">
        <ele>2111.8</ele>
        <time>2021-08-03T08:20:58Z</time>
      </trkpt>
      <trkpt lat="45.52609" lon="6.75273">
        <ele>2111.9</ele>
        <time>2021-08-03T08:20:59Z</time>
      </trkpt>
      <trkpt lat="45.52609" lon="6.75273">
        <ele>2112.1</ele>
        <time>2021-08-03T08:21:00Z</time>
      </trkpt>
      <trkpt lat="45.52609" lon="6.75272">
        <ele>2112.3</ele>
        <time>2021-08-03T08:21:01Z</time>
      </trkpt>
      <trkpt lat="45.52609" lon="6.75271">
        <ele>2112.6</ele>
        <time>2021-08-03T08:21:02Z</time>
      </trkpt>
      <trkpt lat="45.52609" lon="6.7527">
        <ele>2112.9</ele>
        <time>2021-08-03T08:21:03Z</time>
      </trkpt>
      <trkpt lat="45.52609" lon="6.75269">
        <ele>2113.1</ele>
        <time>2021-08-03T08:21:04Z</time>
      </trkpt>
      <trkpt lat="45.52609" lon="6.75268">
        <ele>2113.4</ele>
        <time>2021-08-03T08:21:05Z</time>
      </trkpt>
      <trkpt lat="45.52609" lon="6.75267">
        <ele>2113.7</ele>
        <time>2021-08-03T08:21:06Z</time>
      </trkpt>
      <trkpt lat="45.52609" lon="6.75266">
        <ele>2114</ele>
        <time>2021-08-03T08:21:07Z</time>
      </trkpt>
      <trkpt lat="45.52608" lon="6.75265">
        <ele>2114.2</ele>
        <time>2021-08-03T08:21:08Z</time>
      </trkpt>
      <trkpt lat="45.52608" lon="6.75264">
        <ele>2114.4</ele>
        <time>2021-08-03T08:21:09Z</time>
      </trkpt>
      <trkpt lat="45.52608" lon="6.75263">
        <ele>2114.7</ele>
        <time>2021-08-03T08:21:10Z</time>
      </trkpt>
      <trkpt lat="45.52607" lon="6.75263">
        <ele>2114.9</ele>
        <time>2021-08-03T08:21:11Z</time>
      </trkpt>
      <trkpt lat="45.52607" lon="6.75262">
        <ele>2115.1</ele>
        <time>2021-08-03T08:21:12Z</time>
      </trkpt>
      <trkpt lat="45.52607" lon="6.75262">
        <ele>2115.2</ele>
        <time>2021-08-03T08:21:13Z</time>
      </trkpt>
      <trkpt lat="45.52606" lon="6.75262">
        <ele>2115.3</ele>
        <time>2021-08-03T08:21:14Z</time>
      </trkpt>
      <trkpt lat="45.52606" lon="6.75262">
        <ele>2115.4</ele>
        <time>2021-08-03T08:21:15Z</time>
      </trkpt>
      <trkpt lat="45.52606" lon="6.75262">
        <ele>2115.5</ele>
        <time>2021-08-03T08:21:16Z</time>
      </trkpt>
      <trkpt lat="45.52606" lon="6.75262">
        <ele>2115.6</ele>
        <time>2021-08-03T08:21:17Z</time>
      </trkpt>
      <trkpt lat="45.52606" lon="6.75263">
        <ele>2115.7</ele>
        <time>2021-08-03T08:21:18Z</time>
      </trkpt>
      <trkpt lat="45.52606" lon="6.75263">
        <ele>2115.8</ele>
        <time>2021-08-03T08:21:19Z</time>
      </trkpt>
      <trkpt lat="45.52605" lon="6.75264">
        <ele>2115.9</ele>
        <time>2021-08-03T08:21:20Z</time>
      </trkpt>
      <trkpt lat="45.52605" lon="6.75264">
        <ele>2116</ele>
        <time>2021-08-03T08:21:21Z</time>
      </trkpt>
      <trkpt lat="45.52605" lon="6.75265">
        <ele>2116.2</ele>
        <time>2021-08-03T08:21:22Z</time>
      </trkpt>
      <trkpt lat="45.52605" lon="6.75265">
        <ele>2116.2</ele>
        <time>2021-08-03T08:21:23Z</time>
      </trkpt>
      <trkpt lat="45.52605" lon="6.75265">
        <ele>2116.3</ele>
        <time>2021-08-03T08:21:24Z</time>
      </trkpt>
      <trkpt lat="45.52605" lon="6.75265">
        <ele>2116.3</ele>
        <time>2021-08-03T08:21:25Z</time>
      </trkpt>
      <trkpt lat="45.52605" lon="6.75265">
        <ele>2116.3</ele>
        <time>2021-08-03T08:21:26Z</time>
      </trkpt>
      <trkpt lat="45.52605" lon="6.75265">
        <ele>2116.3</ele>
        <time>2021-08-03T08:21:27Z</time>
      </trkpt>
      <trkpt lat="45.52605" lon="6.75265">
        <ele>2116.4</ele>
        <time>2021-08-03T08:21:28Z</time>
      </trkpt>
      <trkpt lat="45.52605" lon="6.75265">
        <ele>2116.4</ele>
        <time>2021-08-03T08:21:29Z</time>
      </trkpt>
      <trkpt lat="45.52605" lon="6.75265">
        <ele>2116.4</ele>
        <time>2021-08-03T08:21:30Z</time>
      </trkpt>
      <trkpt lat="45.52605" lon="6.75265">
        <ele>2116.4</ele>
        <time>2021-08-03T08:21:31Z</time>
      </trkpt>
      <trkpt lat="45.52605" lon="6.75265">
        <ele>2116.4</ele>
        <time>2021-08-03T08:21:32Z</time>
      </trkpt>
      <trkpt lat="45.52605" lon="6.75265">
        <ele>2116.4</ele>
        <time>2021-08-03T08:21:33Z</time>
      </trkpt>
      <trkpt lat="45.52605" lon="6.75265">
        <ele>2116.4</ele>
        <time>2021-08-03T08:21:34Z</time>
      </trkpt>
      <trkpt lat="45.52605" lon="6.75265">
        <ele>2116.4</ele>
        <time>2021-08-03T08:21:35Z</time>
      </trkpt>
      <trkpt lat="45.52605" lon="6.75265">
        <ele>2116.4</ele>
        <time>2021-08-03T08:21:36Z</time>
      </trkpt>
      <trkpt lat="45.52605" lon="6.75265">
        <ele>2116.4</ele>
        <time>2021-08-03T08:21:37Z</time>
      </trkpt>
      <trkpt lat="45.52605" lon="6.75265">
        <ele>2116.4</ele>
        <time>2021-08-03T08:21:38Z</time>
      </trkpt>
      <trkpt lat="45.52605" lon="6.75265">
        <ele>2116.4</ele>
        <time>2021-08-03T08:21:39Z</time>
      </trkpt>
      <trkpt lat="45.52605" lon="6.75265">
        <ele>2116.4</ele>
        <time>2021-08-03T08:21:40Z</time>
      </trkpt>
      <trkpt lat="45.52605" lon="6.75265">
        <ele>2116.4</ele>
        <time>2021-08-03T08:21:41Z</time>
      </trkpt>
      <trkpt lat="45.52605" lon="6.75265">
        <ele>2116.4</ele>
        <time>2021-08-03T08:21:42Z</time>
      </trkpt>
      <trkpt lat="45.52605" lon="6.75265">
        <ele>2116.4</ele>
        <time>2021-08-03T08:21:43Z</time>
      </trkpt>
      <trkpt lat="45.52605" lon="6.75265">
        <ele>2116.4</ele>
        <time>2021-08-03T08:21:44Z</time>
      </trkpt>
      <trkpt lat="45.52605" lon="6.75265">
        <ele>2116.4</ele>
        <time>2021-08-03T08:21:45Z</time>
      </trkpt>
      <trkpt lat="45.52605" lon="6.75265">
        <ele>2116.4</ele>
        <time>2021-08-03T08:21:46Z</time>
      </trkpt>
      <trkpt lat="45.52605" lon="6.75265">
        <ele>2116.4</ele>
        <time>2021-08-03T08:21:47Z</time>
      </trkpt>
      <trkpt lat="45.52605" lon="6.75265">
        <ele>2116.5</ele>
        <time>2021-08-03T08:21:48Z</time>
      </trkpt>
      <trkpt lat="45.52605" lon="6.75265">
        <ele>2116.5</ele>
        <time>2021-08-03T08:21:49Z</time>
      </trkpt>
      <trkpt lat="45.52605" lon="6.75266">
        <ele>2116.7</ele>
        <time>2021-08-03T08:21:50Z</time>
      </trkpt>
      <trkpt lat="45.52604" lon="6.75266">
        <ele>2117</ele>
        <time>2021-08-03T08:21:51Z</time>
      </trkpt>
      <trkpt lat="45.52603" lon="6.75267">
        <ele>2117.3</ele>
        <time>2021-08-03T08:21:52Z</time>
      </trkpt>
      <trkpt lat="45.52603" lon="6.75268">
        <ele>2117.7</ele>
        <time>2021-08-03T08:21:53Z</time>
      </trkpt>
      <trkpt lat="45.52602" lon="6.75268">
        <ele>2118</ele>
        <time>2021-08-03T08:21:54Z</time>
      </trkpt>
      <trkpt lat="45.52601" lon="6.75268">
        <ele>2118.3</ele>
        <time>2021-08-03T08:21:55Z</time>
      </trkpt>
      <trkpt lat="45.526" lon="6.75268">
        <ele>2118.6</ele>
        <time>2021-08-03T08:21:56Z</time>
      </trkpt>
      <trkpt lat="45.52599" lon="6.75268">
        <ele>2118.9</ele>
        <time>2021-08-03T08:21:57Z</time>
      </trkpt>
      <trkpt lat="45.52599" lon="6.75268">
        <ele>2119.1</ele>
        <time>2021-08-03T08:21:58Z</time>
      </trkpt>
      <trkpt lat="45.52598" lon="6.75268">
        <ele>2119.3</ele>
        <time>2021-08-03T08:21:59Z</time>
      </trkpt>
      <trkpt lat="45.52598" lon="6.75268">
        <ele>2119.5</ele>
        <time>2021-08-03T08:22:00Z</time>
      </trkpt>
      <trkpt lat="45.52597" lon="6.75268">
        <ele>2119.7</ele>
        <time>2021-08-03T08:22:01Z</time>
      </trkpt>
      <trkpt lat="45.52597" lon="6.75268">
        <ele>2119.9</ele>
        <time>2021-08-03T08:22:02Z</time>
      </trkpt>
      <trkpt lat="45.52596" lon="6.75268">
        <ele>2120.1</ele>
        <time>2021-08-03T08:22:03Z</time>
      </trkpt>
      <trkpt lat="45.52596" lon="6.75268">
        <ele>2120.2</ele>
        <time>2021-08-03T08:22:04Z</time>
      </trkpt>
      <trkpt lat="45.52595" lon="6.75269">
        <ele>2120.4</ele>
        <time>2021-08-03T08:22:05Z</time>
      </trkpt>
      <trkpt lat="45.52595" lon="6.75269">
        <ele>2120.5</ele>
        <time>2021-08-03T08:22:06Z</time>
      </trkpt>
      <trkpt lat="45.52595" lon="6.7527">
        <ele>2120.7</ele>
        <time>2021-08-03T08:22:07Z</time>
      </trkpt>
      <trkpt lat="45.52595" lon="6.7527">
        <ele>2120.8</ele>
        <time>2021-08-03T08:22:08Z</time>
      </trkpt>
      <trkpt lat="45.52594" lon="6.75271">
        <ele>2121</ele>
        <time>2021-08-03T08:22:09Z</time>
      </trkpt>
      <trkpt lat="45.52594" lon="6.75271">
        <ele>2121.2</ele>
        <time>2021-08-03T08:22:10Z</time>
      </trkpt>
      <trkpt lat="45.52594" lon="6.75272">
        <ele>2121.3</ele>
        <time>2021-08-03T08:22:11Z</time>
      </trkpt>
      <trkpt lat="45.52594" lon="6.75272">
        <ele>2121.4</ele>
        <time>2021-08-03T08:22:12Z</time>
      </trkpt>
      <trkpt lat="45.52594" lon="6.75273">
        <ele>2121.6</ele>
        <time>2021-08-03T08:22:13Z</time>
      </trkpt>
      <trkpt lat="45.52594" lon="6.75273">
        <ele>2121.7</ele>
        <time>2021-08-03T08:22:14Z</time>
      </trkpt>
      <trkpt lat="45.52594" lon="6.75274">
        <ele>2121.8</ele>
        <time>2021-08-03T08:22:15Z</time>
      </trkpt>
      <trkpt lat="45.52594" lon="6.75274">
        <ele>2121.9</ele>
        <time>2021-08-03T08:22:16Z</time>
      </trkpt>
      <trkpt lat="45.52594" lon="6.75275">
        <ele>2122.1</ele>
        <time>2021-08-03T08:22:17Z</time>
      </trkpt>
      <trkpt lat="45.52594" lon="6.75275">
        <ele>2122.2</ele>
        <time>2021-08-03T08:22:18Z</time>
      </trkpt>
      <trkpt lat="45.52593" lon="6.75276">
        <ele>2122.4</ele>
        <time>2021-08-03T08:22:19Z</time>
      </trkpt>
      <trkpt lat="45.52593" lon="6.75276">
        <ele>2122.5</ele>
        <time>2021-08-03T08:22:20Z</time>
      </trkpt>
      <trkpt lat="45.52593" lon="6.75277">
        <ele>2122.7</ele>
        <time>2021-08-03T08:22:21Z</time>
      </trkpt>
      <trkpt lat="45.52593" lon="6.75277">
        <ele>2122.8</ele>
        <time>2021-08-03T08:22:22Z</time>
      </trkpt>
      <trkpt lat="45.52592" lon="6.75278">
        <ele>2123</ele>
        <time>2021-08-03T08:22:23Z</time>
      </trkpt>
      <trkpt lat="45.52592" lon="6.75278">
        <ele>2123.2</ele>
        <time>2021-08-03T08:22:24Z</time>
      </trkpt>
      <trkpt lat="45.52591" lon="6.75279">
        <ele>2123.4</ele>
        <time>2021-08-03T08:22:25Z</time>
      </trkpt>
      <trkpt lat="45.52591" lon="6.75279">
        <ele>2123.6</ele>
        <time>2021-08-03T08:22:26Z</time>
      </trkpt>
      <trkpt lat="45.52591" lon="6.75279">
        <ele>2123.8</ele>
        <time>2021-08-03T08:22:27Z</time>
      </trkpt>
      <trkpt lat="45.5259" lon="6.7528">
        <ele>2124.1</ele>
        <time>2021-08-03T08:22:28Z</time>
      </trkpt>
      <trkpt lat="45.52589" lon="6.7528">
        <ele>2124.3</ele>
        <time>2021-08-03T08:22:29Z</time>
      </trkpt>
      <trkpt lat="45.52589" lon="6.75281">
        <ele>2124.6</ele>
        <time>2021-08-03T08:22:30Z</time>
      </trkpt>
      <trkpt lat="45.52588" lon="6.75281">
        <ele>2124.8</ele>
        <time>2021-08-03T08:22:31Z</time>
      </trkpt>
      <trkpt lat="45.52587" lon="6.75282">
        <ele>2125.1</ele>
        <time>2021-08-03T08:22:32Z</time>
      </trkpt>
      <trkpt lat="45.52587" lon="6.75282">
        <ele>2125.4</ele>
        <time>2021-08-03T08:22:33Z</time>
      </trkpt>
      <trkpt lat="45.52586" lon="6.75282">
        <ele>2125.7</ele>
        <time>2021-08-03T08:22:34Z</time>
      </trkpt>
      <trkpt lat="45.52585" lon="6.75283">
        <ele>2126.1</ele>
        <time>2021-08-03T08:22:35Z</time>
      </trkpt>
      <trkpt lat="45.52584" lon="6.75283">
        <ele>2126.4</ele>
        <time>2021-08-03T08:22:36Z</time>
      </trkpt>
      <trkpt lat="45.52583" lon="6.75283">
        <ele>2126.7</ele>
        <time>2021-08-03T08:22:37Z</time>
      </trkpt>
      <trkpt lat="45.52583" lon="6.75283">
        <ele>2127</ele>
        <time>2021-08-03T08:22:38Z</time>
      </trkpt>
      <trkpt lat="45.52582" lon="6.75284">
        <ele>2127.2</ele>
        <time>2021-08-03T08:22:39Z</time>
      </trkpt>
      <trkpt lat="45.52581" lon="6.75284">
        <ele>2127.5</ele>
        <time>2021-08-03T08:22:40Z</time>
      </trkpt>
      <trkpt lat="45.52581" lon="6.75284">
        <ele>2127.7</ele>
        <time>2021-08-03T08:22:41Z</time>
      </trkpt>
      <trkpt lat="45.5258" lon="6.75284">
        <ele>2127.9</ele>
        <time>2021-08-03T08:22:42Z</time>
      </trkpt>
      <trkpt lat="45.5258" lon="6.75284">
        <ele>2128</ele>
        <time>2021-08-03T08:22:43Z</time>
      </trkpt>
      <trkpt lat="45.5258" lon="6.75284">
        <ele>2128.1</ele>
        <time>2021-08-03T08:22:44Z</time>
      </trkpt>
      <trkpt lat="45.52579" lon="6.75285">
        <ele>2128.2</ele>
        <time>2021-08-03T08:22:45Z</time>
      </trkpt>
      <trkpt lat="45.52579" lon="6.75285">
        <ele>2128.3</ele>
        <time>2021-08-03T08:22:46Z</time>
      </trkpt>
      <trkpt lat="45.52579" lon="6.75285">
        <ele>2128.3</ele>
        <time>2021-08-03T08:22:47Z</time>
      </trkpt>
      <trkpt lat="45.52579" lon="6.75285">
        <ele>2128.3</ele>
        <time>2021-08-03T08:22:48Z</time>
      </trkpt>
      <trkpt lat="45.52579" lon="6.75285">
        <ele>2128.3</ele>
        <time>2021-08-03T08:22:49Z</time>
      </trkpt>
      <trkpt lat="45.52579" lon="6.75285">
        <ele>2128.4</ele>
        <time>2021-08-03T08:22:50Z</time>
      </trkpt>
      <trkpt lat="45.52579" lon="6.75285">
        <ele>2128.4</ele>
        <time>2021-08-03T08:22:51Z</time>
      </trkpt>
      <trkpt lat="45.52579" lon="6.75285">
        <ele>2128.4</ele>
        <time>2021-08-03T08:22:52Z</time>
      </trkpt>
      <trkpt lat="45.52579" lon="6.75285">
        <ele>2128.4</ele>
        <time>2021-08-03T08:22:53Z</time>
      </trkpt>
      <trkpt lat="45.52579" lon="6.75285">
        <ele>2128.4</ele>
        <time>2021-08-03T08:22:54Z</time>
      </trkpt>
      <trkpt lat="45.52579" lon="6.75285">
        <ele>2128.4</ele>
        <time>2021-08-03T08:22:55Z</time>
      </trkpt>
      <trkpt lat="45.52579" lon="6.75285">
        <ele>2128.4</ele>
        <time>2021-08-03T08:22:56Z</time>
      </trkpt>
      <trkpt lat="45.52579" lon="6.75285">
        <ele>2128.4</ele>
        <time>2021-08-03T08:22:57Z</time>
      </trkpt>
      <trkpt lat="45.52579" lon="6.75285">
        <ele>2128.4</ele>
        <time>2021-08-03T08:22:58Z</time>
      </trkpt>
      <trkpt lat="45.52579" lon="6.75285">
        <ele>2128.4</ele>
        <time>2021-08-03T08:22:59Z</time>
      </trkpt>
      <trkpt lat="45.52579" lon="6.75285">
        <ele>2128.4</ele>
        <time>2021-08-03T08:23:00Z</time>
      </trkpt>
      <trkpt lat="45.52579" lon="6.75285">
        <ele>2128.4</ele>
        <time>2021-08-03T08:23:01Z</time>
      </trkpt>
      <trkpt lat="45.52579" lon="6.75285">
        <ele>2128.4</ele>
        <time>2021-08-03T08:23:02Z</time>
      </trkpt>
      <trkpt lat="45.52579" lon="6.75285">
        <ele>2128.4</ele>
        <time>2021-08-03T08:23:03Z</time>
      </trkpt>
      <trkpt lat="45.52579" lon="6.75285">
        <ele>2128.4</ele>
        <time>2021-08-03T08:23:04Z</time>
      </trkpt>
      <trkpt lat="45.52579" lon="6.75285">
        <ele>2128.4</ele>
        <time>2021-08-03T08:23:05Z</time>
      </trkpt>
      <trkpt lat="45.52579" lon="6.75285">
        <ele>2128.4</ele>
        <time>2021-08-03T08:23:06Z</time>
      </trkpt>
      <trkpt lat="45.52579" lon="6.75285">
        <ele>2128.4</ele>
        <time>2021-08-03T08:23:07Z</time>
      </trkpt>
      <trkpt lat="45.52579" lon="6.75285">
        <ele>2128.4</ele>
        <time>2021-08-03T08:23:08Z</time>
      </trkpt>
      <trkpt lat="45.52579" lon="6.75285">
        <ele>2128.4</ele>
        <time>2021-08-03T08:23:09Z</time>
      </trkpt>
      <trkpt lat="45.52579" lon="6.75285">
        <ele>2128.4</ele>
        <time>2021-08-03T08:23:10Z</time>
      </trkpt>
      <trkpt lat="45.52579" lon="6.75285">
        <ele>2128.4</ele>
        <time>2021-08-03T08:23:11Z</time>
      </trkpt>
      <trkpt lat="45.52579" lon="6.75285">
        <ele>2128.4</ele>
        <time>2021-08-03T08:23:12Z</time>
      </trkpt>
      <trkpt lat="45.52579" lon="6.75285">
        <ele>2128.4</ele>
        <time>2021-08-03T08:23:13Z</time>
      </trkpt>
      <trkpt lat="45.52579" lon="6.75285">
        <ele>2128.4</ele>
        <time>2021-08-03T08:23:14Z</time>
      </trkpt>
      <trkpt lat="45.52579" lon="6.75285">
        <ele>2128.5</ele>
        <time>2021-08-03T08:23:15Z</time>
      </trkpt>
      <trkpt lat="45.52578" lon="6.75285">
        <ele>2128.6</ele>
        <time>2021-08-03T08:23:16Z</time>
      </trkpt>
      <trkpt lat="45.52578" lon="6.75285">
        <ele>2128.8</ele>
        <time>2021-08-03T08:23:17Z</time>
      </trkpt>
      <trkpt lat="45.52577" lon="6.75285">
        <ele>2129.1</ele>
        <time>2021-08-03T08:23:18Z</time>
      </trkpt>
      <trkpt lat="45.52576" lon="6.75285">
        <ele>2129.3</ele>
        <time>2021-08-03T08:23:19Z</time>
      </trkpt>
      <trkpt lat="45.52576" lon="6.75285">
        <ele>2129.6</ele>
        <time>2021-08-03T08:23:20Z</time>
      </trkpt>
      <trkpt lat="45.52575" lon="6.75285">
        <ele>2129.9</ele>
        <time>2021-08-03T08:23:21Z</time>
      </trkpt>
      <trkpt lat="45.52574" lon="6.75285">
        <ele>2130.2</ele>
        <time>2021-08-03T08:23:22Z</time>
      </trkpt>
      <trkpt lat="45.52573" lon="6.75285">
        <ele>2130.5</ele>
        <time>2021-08-03T08:23:23Z</time>
      </trkpt>
      <trkpt lat="45.52573" lon="6.75285">
        <ele>2130.7</ele>
        <time>2021-08-03T08:23:24Z</time>
      </trkpt>
      <trkpt lat="45.52572" lon="6.75285">
        <ele>2130.9</ele>
        <time>2021-08-03T08:23:25Z</time>
      </trkpt>
      <trkpt lat="45.52572" lon="6.75286">
        <ele>2131</ele>
        <time>2021-08-03T08:23:26Z</time>
      </trkpt>
      <trkpt lat="45.52571" lon="6.75286">
        <ele>2131.2</ele>
        <time>2021-08-03T08:23:27Z</time>
      </trkpt>
      <trkpt lat="45.52571" lon="6.75286">
        <ele>2131.4</ele>
        <time>2021-08-03T08:23:28Z</time>
      </trkpt>
      <trkpt lat="45.52571" lon="6.75287">
        <ele>2131.6</ele>
        <time>2021-08-03T08:23:29Z</time>
      </trkpt>
      <trkpt lat="45.52571" lon="6.75288">
        <ele>2131.8</ele>
        <time>2021-08-03T08:23:30Z</time>
      </trkpt>
      <trkpt lat="45.52571" lon="6.75289">
        <ele>2132</ele>
        <time>2021-08-03T08:23:31Z</time>
      </trkpt>
      <trkpt lat="45.5257" lon="6.7529">
        <ele>2132.2</ele>
        <time>2021-08-03T08:23:32Z</time>
      </trkpt>
      <trkpt lat="45.5257" lon="6.7529">
        <ele>2132.4</ele>
        <time>2021-08-03T08:23:33Z</time>
      </trkpt>
      <trkpt lat="45.5257" lon="6.75291">
        <ele>2132.6</ele>
        <time>2021-08-03T08:23:34Z</time>
      </trkpt>
      <trkpt lat="45.5257" lon="6.75291">
        <ele>2132.7</ele>
        <time>2021-08-03T08:23:35Z</time>
      </trkpt>
      <trkpt lat="45.52569" lon="6.75291">
        <ele>2132.8</ele>
        <time>2021-08-03T08:23:36Z</time>
      </trkpt>
      <trkpt lat="45.52569" lon="6.75291">
        <ele>2133</ele>
        <time>2021-08-03T08:23:37Z</time>
      </trkpt>
      <trkpt lat="45.52569" lon="6.75292">
        <ele>2133</ele>
        <time>2021-08-03T08:23:38Z</time>
      </trkpt>
      <trkpt lat="45.52569" lon="6.75292">
        <ele>2133.2</ele>
        <time>2021-08-03T08:23:39Z</time>
      </trkpt>
      <trkpt lat="45.52568" lon="6.75292">
        <ele>2133.2</ele>
        <time>2021-08-03T08:23:40Z</time>
      </trkpt>
      <trkpt lat="45.52568" lon="6.75292">
        <ele>2133.3</ele>
        <time>2021-08-03T08:23:41Z</time>
      </trkpt>
      <trkpt lat="45.52568" lon="6.75292">
        <ele>2133.4</ele>
        <time>2021-08-03T08:23:42Z</time>
      </trkpt>
      <trkpt lat="45.52568" lon="6.75293">
        <ele>2133.4</ele>
        <time>2021-08-03T08:23:43Z</time>
      </trkpt>
      <trkpt lat="45.52568" lon="6.75293">
        <ele>2133.4</ele>
        <time>2021-08-03T08:23:44Z</time>
      </trkpt>
      <trkpt lat="45.52568" lon="6.75292">
        <ele>2133.4</ele>
        <time>2021-08-03T08:23:45Z</time>
      </trkpt>
      <trkpt lat="45.52568" lon="6.75292">
        <ele>2133.4</ele>
        <time>2021-08-03T08:23:46Z</time>
      </trkpt>
      <trkpt lat="45.52568" lon="6.75292">
        <ele>2133.5</ele>
        <time>2021-08-03T08:23:47Z</time>
      </trkpt>
      <trkpt lat="45.52568" lon="6.75293">
        <ele>2133.6</ele>
        <time>2021-08-03T08:23:48Z</time>
      </trkpt>
      <trkpt lat="45.52567" lon="6.75293">
        <ele>2133.8</ele>
        <time>2021-08-03T08:23:49Z</time>
      </trkpt>
      <trkpt lat="45.52567" lon="6.75294">
        <ele>2134.1</ele>
        <time>2021-08-03T08:23:50Z</time>
      </trkpt>
      <trkpt lat="45.52566" lon="6.75295">
        <ele>2134.4</ele>
        <time>2021-08-03T08:23:51Z</time>
      </trkpt>
      <trkpt lat="45.52565" lon="6.75295">
        <ele>2134.7</ele>
        <time>2021-08-03T08:23:52Z</time>
      </trkpt>
      <trkpt lat="45.52565" lon="6.75296">
        <ele>2135</ele>
        <time>2021-08-03T08:23:53Z</time>
      </trkpt>
      <trkpt lat="45.52564" lon="6.75296">
        <ele>2135.2</ele>
        <time>2021-08-03T08:23:54Z</time>
      </trkpt>
      <trkpt lat="45.52564" lon="6.75297">
        <ele>2135.5</ele>
        <time>2021-08-03T08:23:55Z</time>
      </trkpt>
      <trkpt lat="45.52563" lon="6.75297">
        <ele>2135.7</ele>
        <time>2021-08-03T08:23:56Z</time>
      </trkpt>
      <trkpt lat="45.52563" lon="6.75297">
        <ele>2135.9</ele>
        <time>2021-08-03T08:23:57Z</time>
      </trkpt>
      <trkpt lat="45.52562" lon="6.75298">
        <ele>2136</ele>
        <time>2021-08-03T08:23:58Z</time>
      </trkpt>
      <trkpt lat="45.52562" lon="6.75298">
        <ele>2136.2</ele>
        <time>2021-08-03T08:23:59Z</time>
      </trkpt>
      <trkpt lat="45.52562" lon="6.75298">
        <ele>2136.4</ele>
        <time>2021-08-03T08:24:00Z</time>
      </trkpt>
      <trkpt lat="45.52561" lon="6.75299">
        <ele>2136.6</ele>
        <time>2021-08-03T08:24:01Z</time>
      </trkpt>
      <trkpt lat="45.52561" lon="6.753">
        <ele>2136.8</ele>
        <time>2021-08-03T08:24:02Z</time>
      </trkpt>
      <trkpt lat="45.52561" lon="6.75301">
        <ele>2137</ele>
        <time>2021-08-03T08:24:03Z</time>
      </trkpt>
      <trkpt lat="45.52561" lon="6.75302">
        <ele>2137.3</ele>
        <time>2021-08-03T08:24:04Z</time>
      </trkpt>
      <trkpt lat="45.52561" lon="6.75303">
        <ele>2137.5</ele>
        <time>2021-08-03T08:24:05Z</time>
      </trkpt>
      <trkpt lat="45.52561" lon="6.75304">
        <ele>2137.8</ele>
        <time>2021-08-03T08:24:06Z</time>
      </trkpt>
      <trkpt lat="45.52561" lon="6.75305">
        <ele>2138.1</ele>
        <time>2021-08-03T08:24:07Z</time>
      </trkpt>
      <trkpt lat="45.52561" lon="6.75306">
        <ele>2138.4</ele>
        <time>2021-08-03T08:24:08Z</time>
      </trkpt>
      <trkpt lat="45.5256" lon="6.75307">
        <ele>2138.6</ele>
        <time>2021-08-03T08:24:09Z</time>
      </trkpt>
      <trkpt lat="45.5256" lon="6.75308">
        <ele>2138.9</ele>
        <time>2021-08-03T08:24:10Z</time>
      </trkpt>
      <trkpt lat="45.5256" lon="6.75309">
        <ele>2139.1</ele>
        <time>2021-08-03T08:24:11Z</time>
      </trkpt>
      <trkpt lat="45.5256" lon="6.7531">
        <ele>2139.4</ele>
        <time>2021-08-03T08:24:12Z</time>
      </trkpt>
      <trkpt lat="45.52559" lon="6.7531">
        <ele>2139.5</ele>
        <time>2021-08-03T08:24:13Z</time>
      </trkpt>
      <trkpt lat="45.52559" lon="6.75311">
        <ele>2139.7</ele>
        <time>2021-08-03T08:24:14Z</time>
      </trkpt>
      <trkpt lat="45.52559" lon="6.75311">
        <ele>2139.9</ele>
        <time>2021-08-03T08:24:15Z</time>
      </trkpt>
      <trkpt lat="45.52559" lon="6.75312">
        <ele>2140</ele>
        <time>2021-08-03T08:24:16Z</time>
      </trkpt>
      <trkpt lat="45.52559" lon="6.75312">
        <ele>2140.1</ele>
        <time>2021-08-03T08:24:17Z</time>
      </trkpt>
      <trkpt lat="45.52559" lon="6.75312">
        <ele>2140.1</ele>
        <time>2021-08-03T08:24:18Z</time>
      </trkpt>
      <trkpt lat="45.52559" lon="6.75312">
        <ele>2140.2</ele>
        <time>2021-08-03T08:24:19Z</time>
      </trkpt>
      <trkpt lat="45.52558" lon="6.75312">
        <ele>2140.2</ele>
        <time>2021-08-03T08:24:20Z</time>
      </trkpt>
      <trkpt lat="45.52558" lon="6.75312">
        <ele>2140.2</ele>
        <time>2021-08-03T08:24:21Z</time>
      </trkpt>
      <trkpt lat="45.52559" lon="6.75312">
        <ele>2140.2</ele>
        <time>2021-08-03T08:24:22Z</time>
      </trkpt>
      <trkpt lat="45.52559" lon="6.75312">
        <ele>2140.3</ele>
        <time>2021-08-03T08:24:23Z</time>
      </trkpt>
      <trkpt lat="45.52559" lon="6.75312">
        <ele>2140.3</ele>
        <time>2021-08-03T08:24:24Z</time>
      </trkpt>
      <trkpt lat="45.52559" lon="6.75312">
        <ele>2140.3</ele>
        <time>2021-08-03T08:24:25Z</time>
      </trkpt>
      <trkpt lat="45.52559" lon="6.75312">
        <ele>2140.4</ele>
        <time>2021-08-03T08:24:26Z</time>
      </trkpt>
      <trkpt lat="45.52559" lon="6.75312">
        <ele>2140.4</ele>
        <time>2021-08-03T08:24:27Z</time>
      </trkpt>
      <trkpt lat="45.52559" lon="6.75312">
        <ele>2140.4</ele>
        <time>2021-08-03T08:24:28Z</time>
      </trkpt>
      <trkpt lat="45.52559" lon="6.75312">
        <ele>2140.4</ele>
        <time>2021-08-03T08:24:29Z</time>
      </trkpt>
      <trkpt lat="45.52559" lon="6.75312">
        <ele>2140.5</ele>
        <time>2021-08-03T08:24:30Z</time>
      </trkpt>
      <trkpt lat="45.52558" lon="6.75312">
        <ele>2140.5</ele>
        <time>2021-08-03T08:24:31Z</time>
      </trkpt>
      <trkpt lat="45.52558" lon="6.75312">
        <ele>2140.7</ele>
        <time>2021-08-03T08:24:32Z</time>
      </trkpt>
      <trkpt lat="45.52558" lon="6.75313">
        <ele>2140.8</ele>
        <time>2021-08-03T08:24:33Z</time>
      </trkpt>
      <trkpt lat="45.52558" lon="6.75313">
        <ele>2140.9</ele>
        <time>2021-08-03T08:24:34Z</time>
      </trkpt>
      <trkpt lat="45.52557" lon="6.75313">
        <ele>2141.1</ele>
        <time>2021-08-03T08:24:35Z</time>
      </trkpt>
      <trkpt lat="45.52557" lon="6.75313">
        <ele>2141.2</ele>
        <time>2021-08-03T08:24:36Z</time>
      </trkpt>
      <trkpt lat="45.52556" lon="6.75314">
        <ele>2141.4</ele>
        <time>2021-08-03T08:24:37Z</time>
      </trkpt>
      <trkpt lat="45.52556" lon="6.75314">
        <ele>2141.5</ele>
        <time>2021-08-03T08:24:38Z</time>
      </trkpt>
      <trkpt lat="45.52556" lon="6.75314">
        <ele>2141.7</ele>
        <time>2021-08-03T08:24:39Z</time>
      </trkpt>
      <trkpt lat="45.52555" lon="6.75314">
        <ele>2141.9</ele>
        <time>2021-08-03T08:24:40Z</time>
      </trkpt>
      <trkpt lat="45.52555" lon="6.75315">
        <ele>2142.1</ele>
        <time>2021-08-03T08:24:41Z</time>
      </trkpt>
      <trkpt lat="45.52554" lon="6.75315">
        <ele>2142.3</ele>
        <time>2021-08-03T08:24:42Z</time>
      </trkpt>
      <trkpt lat="45.52553" lon="6.75315">
        <ele>2142.6</ele>
        <time>2021-08-03T08:24:43Z</time>
      </trkpt>
      <trkpt lat="45.52553" lon="6.75315">
        <ele>2142.8</ele>
        <time>2021-08-03T08:24:44Z</time>
      </trkpt>
      <trkpt lat="45.52552" lon="6.75315">
        <ele>2143</ele>
        <time>2021-08-03T08:24:45Z</time>
      </trkpt>
      <trkpt lat="45.52552" lon="6.75315">
        <ele>2143.2</ele>
        <time>2021-08-03T08:24:46Z</time>
      </trkpt>
      <trkpt lat="45.52551" lon="6.75316">
        <ele>2143.3</ele>
        <time>2021-08-03T08:24:47Z</time>
      </trkpt>
      <trkpt lat="45.52551" lon="6.75316">
        <ele>2143.5</ele>
        <time>2021-08-03T08:24:48Z</time>
      </trkpt>
      <trkpt lat="45.52551" lon="6.75316">
        <ele>2143.6</ele>
        <time>2021-08-03T08:24:49Z</time>
      </trkpt>
      <trkpt lat="45.5255" lon="6.75316">
        <ele>2143.7</ele>
        <time>2021-08-03T08:24:50Z</time>
      </trkpt>
      <trkpt lat="45.5255" lon="6.75316">
        <ele>2143.7</ele>
        <time>2021-08-03T08:24:51Z</time>
      </trkpt>
      <trkpt lat="45.5255" lon="6.75316">
        <ele>2143.8</ele>
        <time>2021-08-03T08:24:52Z</time>
      </trkpt>
      <trkpt lat="45.5255" lon="6.75316">
        <ele>2143.8</ele>
        <time>2021-08-03T08:24:53Z</time>
      </trkpt>
      <trkpt lat="45.5255" lon="6.75316">
        <ele>2143.8</ele>
        <time>2021-08-03T08:24:54Z</time>
      </trkpt>
      <trkpt lat="45.5255" lon="6.75315">
        <ele>2143.9</ele>
        <time>2021-08-03T08:24:55Z</time>
      </trkpt>
      <trkpt lat="45.5255" lon="6.75315">
        <ele>2143.9</ele>
        <time>2021-08-03T08:24:56Z</time>
      </trkpt>
      <trkpt lat="45.5255" lon="6.75315">
        <ele>2143.9</ele>
        <time>2021-08-03T08:24:57Z</time>
      </trkpt>
      <trkpt lat="45.5255" lon="6.75315">
        <ele>2144</ele>
        <time>2021-08-03T08:24:58Z</time>
      </trkpt>
      <trkpt lat="45.5255" lon="6.75315">
        <ele>2144</ele>
        <time>2021-08-03T08:24:59Z</time>
      </trkpt>
      <trkpt lat="45.5255" lon="6.75315">
        <ele>2144</ele>
        <time>2021-08-03T08:25:00Z</time>
      </trkpt>
      <trkpt lat="45.5255" lon="6.75315">
        <ele>2144</ele>
        <time>2021-08-03T08:25:01Z</time>
      </trkpt>
      <trkpt lat="45.5255" lon="6.75315">
        <ele>2144</ele>
        <time>2021-08-03T08:25:02Z</time>
      </trkpt>
      <trkpt lat="45.5255" lon="6.75315">
        <ele>2144</ele>
        <time>2021-08-03T08:25:03Z</time>
      </trkpt>
      <trkpt lat="45.5255" lon="6.75315">
        <ele>2144</ele>
        <time>2021-08-03T08:25:04Z</time>
      </trkpt>
      <trkpt lat="45.5255" lon="6.75315">
        <ele>2144</ele>
        <time>2021-08-03T08:25:05Z</time>
      </trkpt>
      <trkpt lat="45.5255" lon="6.75315">
        <ele>2144</ele>
        <time>2021-08-03T08:25:06Z</time>
      </trkpt>
      <trkpt lat="45.5255" lon="6.75315">
        <ele>2144.1</ele>
        <time>2021-08-03T08:25:07Z</time>
      </trkpt>
      <trkpt lat="45.5255" lon="6.75315">
        <ele>2144.1</ele>
        <time>2021-08-03T08:25:08Z</time>
      </trkpt>
      <trkpt lat="45.5255" lon="6.75315">
        <ele>2144.1</ele>
        <time>2021-08-03T08:25:09Z</time>
      </trkpt>
      <trkpt lat="45.5255" lon="6.75315">
        <ele>2144.1</ele>
        <time>2021-08-03T08:25:10Z</time>
      </trkpt>
      <trkpt lat="45.5255" lon="6.75315">
        <ele>2144.1</ele>
        <time>2021-08-03T08:25:11Z</time>
      </trkpt>
      <trkpt lat="45.5255" lon="6.75315">
        <ele>2144.1</ele>
        <time>2021-08-03T08:25:12Z</time>
      </trkpt>
      <trkpt lat="45.5255" lon="6.75315">
        <ele>2144.1</ele>
        <time>2021-08-03T08:25:13Z</time>
      </trkpt>
      <trkpt lat="45.5255" lon="6.75315">
        <ele>2144.2</ele>
        <time>2021-08-03T08:25:14Z</time>
      </trkpt>
      <trkpt lat="45.5255" lon="6.75315">
        <ele>2144.2</ele>
        <time>2021-08-03T08:25:15Z</time>
      </trkpt>
      <trkpt lat="45.5255" lon="6.75316">
        <ele>2144.2</ele>
        <time>2021-08-03T08:25:16Z</time>
      </trkpt>
      <trkpt lat="45.5255" lon="6.75316">
        <ele>2144.3</ele>
        <time>2021-08-03T08:25:17Z</time>
      </trkpt>
      <trkpt lat="45.52549" lon="6.75315">
        <ele>2144.4</ele>
        <time>2021-08-03T08:25:18Z</time>
      </trkpt>
      <trkpt lat="45.52549" lon="6.75315">
        <ele>2144.5</ele>
        <time>2021-08-03T08:25:19Z</time>
      </trkpt>
      <trkpt lat="45.52549" lon="6.75316">
        <ele>2144.7</ele>
        <time>2021-08-03T08:25:20Z</time>
      </trkpt>
      <trkpt lat="45.52548" lon="6.75316">
        <ele>2144.8</ele>
        <time>2021-08-03T08:25:21Z</time>
      </trkpt>
      <trkpt lat="45.52548" lon="6.75316">
        <ele>2145</ele>
        <time>2021-08-03T08:25:22Z</time>
      </trkpt>
      <trkpt lat="45.52547" lon="6.75316">
        <ele>2145.1</ele>
        <time>2021-08-03T08:25:23Z</time>
      </trkpt>
      <trkpt lat="45.52547" lon="6.75316">
        <ele>2145.3</ele>
        <time>2021-08-03T08:25:24Z</time>
      </trkpt>
      <trkpt lat="45.52546" lon="6.75316">
        <ele>2145.5</ele>
        <time>2021-08-03T08:25:25Z</time>
      </trkpt>
      <trkpt lat="45.52546" lon="6.75317">
        <ele>2145.7</ele>
        <time>2021-08-03T08:25:26Z</time>
      </trkpt>
      <trkpt lat="45.52546" lon="6.75317">
        <ele>2145.8</ele>
        <time>2021-08-03T08:25:27Z</time>
      </trkpt>
      <trkpt lat="45.52546" lon="6.75318">
        <ele>2146</ele>
        <time>2021-08-03T08:25:28Z</time>
      </trkpt>
      <trkpt lat="45.52546" lon="6.75319">
        <ele>2146.3</ele>
        <time>2021-08-03T08:25:29Z</time>
      </trkpt>
      <trkpt lat="45.52545" lon="6.7532">
        <ele>2146.5</ele>
        <time>2021-08-03T08:25:30Z</time>
      </trkpt>
      <trkpt lat="45.52545" lon="6.7532">
        <ele>2146.6</ele>
        <time>2021-08-03T08:25:31Z</time>
      </trkpt>
      <trkpt lat="45.52545" lon="6.75321">
        <ele>2146.8</ele>
        <time>2021-08-03T08:25:32Z</time>
      </trkpt>
      <trkpt lat="45.52545" lon="6.75322">
        <ele>2147</ele>
        <time>2021-08-03T08:25:33Z</time>
      </trkpt>
      <trkpt lat="45.52546" lon="6.75322">
        <ele>2147.1</ele>
        <time>2021-08-03T08:25:34Z</time>
      </trkpt>
      <trkpt lat="45.52546" lon="6.75323">
        <ele>2147.2</ele>
        <time>2021-08-03T08:25:35Z</time>
      </trkpt>
      <trkpt lat="45.52546" lon="6.75323">
        <ele>2147.3</ele>
        <time>2021-08-03T08:25:36Z</time>
      </trkpt>
      <trkpt lat="45.52546" lon="6.75323">
        <ele>2147.3</ele>
        <time>2021-08-03T08:25:37Z</time>
      </trkpt>
      <trkpt lat="45.52546" lon="6.75323">
        <ele>2147.3</ele>
        <time>2021-08-03T08:25:38Z</time>
      </trkpt>
      <trkpt lat="45.52546" lon="6.75323">
        <ele>2147.3</ele>
        <time>2021-08-03T08:25:39Z</time>
      </trkpt>
      <trkpt lat="45.52546" lon="6.75323">
        <ele>2147.3</ele>
        <time>2021-08-03T08:25:40Z</time>
      </trkpt>
      <trkpt lat="45.52545" lon="6.75323">
        <ele>2147.4</ele>
        <time>2021-08-03T08:25:41Z</time>
      </trkpt>
      <trkpt lat="45.52545" lon="6.75323">
        <ele>2147.4</ele>
        <time>2021-08-03T08:25:42Z</time>
      </trkpt>
      <trkpt lat="45.52545" lon="6.75323">
        <ele>2147.5</ele>
        <time>2021-08-03T08:25:43Z</time>
      </trkpt>
      <trkpt lat="45.52545" lon="6.75324">
        <ele>2147.7</ele>
        <time>2021-08-03T08:25:44Z</time>
      </trkpt>
      <trkpt lat="45.52544" lon="6.75324">
        <ele>2147.9</ele>
        <time>2021-08-03T08:25:45Z</time>
      </trkpt>
      <trkpt lat="45.52544" lon="6.75324">
        <ele>2148.1</ele>
        <time>2021-08-03T08:25:46Z</time>
      </trkpt>
      <trkpt lat="45.52544" lon="6.75325">
        <ele>2148.3</ele>
        <time>2021-08-03T08:25:47Z</time>
      </trkpt>
      <trkpt lat="45.52543" lon="6.75326">
        <ele>2148.5</ele>
        <time>2021-08-03T08:25:48Z</time>
      </trkpt>
      <trkpt lat="45.52543" lon="6.75326">
        <ele>2148.8</ele>
        <time>2021-08-03T08:25:49Z</time>
      </trkpt>
      <trkpt lat="45.52542" lon="6.75327">
        <ele>2149</ele>
        <time>2021-08-03T08:25:50Z</time>
      </trkpt>
      <trkpt lat="45.52542" lon="6.75328">
        <ele>2149.3</ele>
        <time>2021-08-03T08:25:51Z</time>
      </trkpt>
      <trkpt lat="45.52541" lon="6.75329">
        <ele>2149.5</ele>
        <time>2021-08-03T08:25:52Z</time>
      </trkpt>
      <trkpt lat="45.52541" lon="6.7533">
        <ele>2149.8</ele>
        <time>2021-08-03T08:25:53Z</time>
      </trkpt>
      <trkpt lat="45.52541" lon="6.75331">
        <ele>2150.1</ele>
        <time>2021-08-03T08:25:54Z</time>
      </trkpt>
      <trkpt lat="45.5254" lon="6.75332">
        <ele>2150.4</ele>
        <time>2021-08-03T08:25:55Z</time>
      </trkpt>
      <trkpt lat="45.5254" lon="6.75333">
        <ele>2150.8</ele>
        <time>2021-08-03T08:25:56Z</time>
      </trkpt>
      <trkpt lat="45.5254" lon="6.75334">
        <ele>2151.1</ele>
        <time>2021-08-03T08:25:57Z</time>
      </trkpt>
      <trkpt lat="45.52539" lon="6.75336">
        <ele>2151.5</ele>
        <time>2021-08-03T08:25:58Z</time>
      </trkpt>
      <trkpt lat="45.52539" lon="6.75337">
        <ele>2151.9</ele>
        <time>2021-08-03T08:25:59Z</time>
      </trkpt>
      <trkpt lat="45.52539" lon="6.75339">
        <ele>2152.3</ele>
        <time>2021-08-03T08:26:00Z</time>
      </trkpt>
      <trkpt lat="45.52538" lon="6.7534">
        <ele>2152.7</ele>
        <time>2021-08-03T08:26:01Z</time>
      </trkpt>
      <trkpt lat="45.52538" lon="6.75341">
        <ele>2153</ele>
        <time>2021-08-03T08:26:02Z</time>
      </trkpt>
      <trkpt lat="45.52537" lon="6.75342">
        <ele>2153.3</ele>
        <time>2021-08-03T08:26:03Z</time>
      </trkpt>
      <trkpt lat="45.52537" lon="6.75343">
        <ele>2153.5</ele>
        <time>2021-08-03T08:26:04Z</time>
      </trkpt>
      <trkpt lat="45.52536" lon="6.75343">
        <ele>2153.7</ele>
        <time>2021-08-03T08:26:05Z</time>
      </trkpt>
      <trkpt lat="45.52536" lon="6.75343">
        <ele>2153.9</ele>
        <time>2021-08-03T08:26:06Z</time>
      </trkpt>
      <trkpt lat="45.52535" lon="6.75343">
        <ele>2154.1</ele>
        <time>2021-08-03T08:26:07Z</time>
      </trkpt>
      <trkpt lat="45.52535" lon="6.75342">
        <ele>2154.3</ele>
        <time>2021-08-03T08:26:08Z</time>
      </trkpt>
      <trkpt lat="45.52534" lon="6.75342">
        <ele>2154.5</ele>
        <time>2021-08-03T08:26:09Z</time>
      </trkpt>
      <trkpt lat="45.52534" lon="6.75341">
        <ele>2154.8</ele>
        <time>2021-08-03T08:26:10Z</time>
      </trkpt>
      <trkpt lat="45.52533" lon="6.75341">
        <ele>2155</ele>
        <time>2021-08-03T08:26:11Z</time>
      </trkpt>
      <trkpt lat="45.52533" lon="6.7534">
        <ele>2155.1</ele>
        <time>2021-08-03T08:26:12Z</time>
      </trkpt>
      <trkpt lat="45.52533" lon="6.7534">
        <ele>2155.3</ele>
        <time>2021-08-03T08:26:13Z</time>
      </trkpt>
      <trkpt lat="45.52533" lon="6.7534">
        <ele>2155.4</ele>
        <time>2021-08-03T08:26:14Z</time>
      </trkpt>
      <trkpt lat="45.52532" lon="6.75339">
        <ele>2155.5</ele>
        <time>2021-08-03T08:26:15Z</time>
      </trkpt>
      <trkpt lat="45.52532" lon="6.75339">
        <ele>2155.6</ele>
        <time>2021-08-03T08:26:16Z</time>
      </trkpt>
      <trkpt lat="45.52532" lon="6.75339">
        <ele>2155.7</ele>
        <time>2021-08-03T08:26:17Z</time>
      </trkpt>
      <trkpt lat="45.52531" lon="6.75339">
        <ele>2155.9</ele>
        <time>2021-08-03T08:26:18Z</time>
      </trkpt>
      <trkpt lat="45.52531" lon="6.75339">
        <ele>2156.1</ele>
        <time>2021-08-03T08:26:19Z</time>
      </trkpt>
      <trkpt lat="45.5253" lon="6.75338">
        <ele>2156.4</ele>
        <time>2021-08-03T08:26:20Z</time>
      </trkpt>
      <trkpt lat="45.52529" lon="6.75338">
        <ele>2156.7</ele>
        <time>2021-08-03T08:26:21Z</time>
      </trkpt>
      <trkpt lat="45.52528" lon="6.75338">
        <ele>2157</ele>
        <time>2021-08-03T08:26:22Z</time>
      </trkpt>
      <trkpt lat="45.52528" lon="6.75338">
        <ele>2157.2</ele>
        <time>2021-08-03T08:26:23Z</time>
      </trkpt>
      <trkpt lat="45.52527" lon="6.75338">
        <ele>2157.4</ele>
        <time>2021-08-03T08:26:24Z</time>
      </trkpt>
      <trkpt lat="45.52527" lon="6.75338">
        <ele>2157.7</ele>
        <time>2021-08-03T08:26:25Z</time>
      </trkpt>
      <trkpt lat="45.52526" lon="6.75338">
        <ele>2157.9</ele>
        <time>2021-08-03T08:26:26Z</time>
      </trkpt>
      <trkpt lat="45.52525" lon="6.75338">
        <ele>2158.1</ele>
        <time>2021-08-03T08:26:27Z</time>
      </trkpt>
      <trkpt lat="45.52525" lon="6.75338">
        <ele>2158.3</ele>
        <time>2021-08-03T08:26:28Z</time>
      </trkpt>
      <trkpt lat="45.52524" lon="6.75338">
        <ele>2158.5</ele>
        <time>2021-08-03T08:26:29Z</time>
      </trkpt>
      <trkpt lat="45.52524" lon="6.75338">
        <ele>2158.7</ele>
        <time>2021-08-03T08:26:30Z</time>
      </trkpt>
      <trkpt lat="45.52523" lon="6.75338">
        <ele>2159</ele>
        <time>2021-08-03T08:26:31Z</time>
      </trkpt>
      <trkpt lat="45.52523" lon="6.75338">
        <ele>2159.2</ele>
        <time>2021-08-03T08:26:32Z</time>
      </trkpt>
      <trkpt lat="45.52522" lon="6.75338">
        <ele>2159.4</ele>
        <time>2021-08-03T08:26:33Z</time>
      </trkpt>
      <trkpt lat="45.52521" lon="6.75338">
        <ele>2159.6</ele>
        <time>2021-08-03T08:26:34Z</time>
      </trkpt>
      <trkpt lat="45.52521" lon="6.75339">
        <ele>2159.8</ele>
        <time>2021-08-03T08:26:35Z</time>
      </trkpt>
      <trkpt lat="45.5252" lon="6.75339">
        <ele>2160</ele>
        <time>2021-08-03T08:26:36Z</time>
      </trkpt>
      <trkpt lat="45.5252" lon="6.75339">
        <ele>2160.2</ele>
        <time>2021-08-03T08:26:37Z</time>
      </trkpt>
      <trkpt lat="45.52519" lon="6.75339">
        <ele>2160.3</ele>
        <time>2021-08-03T08:26:38Z</time>
      </trkpt>
      <trkpt lat="45.52519" lon="6.75339">
        <ele>2160.5</ele>
        <time>2021-08-03T08:26:39Z</time>
      </trkpt>
      <trkpt lat="45.52519" lon="6.7534">
        <ele>2160.7</ele>
        <time>2021-08-03T08:26:40Z</time>
      </trkpt>
      <trkpt lat="45.52518" lon="6.7534">
        <ele>2160.8</ele>
        <time>2021-08-03T08:26:41Z</time>
      </trkpt>
      <trkpt lat="45.52518" lon="6.7534">
        <ele>2161</ele>
        <time>2021-08-03T08:26:42Z</time>
      </trkpt>
      <trkpt lat="45.52517" lon="6.7534">
        <ele>2161.1</ele>
        <time>2021-08-03T08:26:43Z</time>
      </trkpt>
      <trkpt lat="45.52517" lon="6.7534">
        <ele>2161.2</ele>
        <time>2021-08-03T08:26:44Z</time>
      </trkpt>
      <trkpt lat="45.52517" lon="6.7534">
        <ele>2161.3</ele>
        <time>2021-08-03T08:26:45Z</time>
      </trkpt>
      <trkpt lat="45.52517" lon="6.7534">
        <ele>2161.4</ele>
        <time>2021-08-03T08:26:46Z</time>
      </trkpt>
      <trkpt lat="45.52517" lon="6.7534">
        <ele>2161.5</ele>
        <time>2021-08-03T08:26:47Z</time>
      </trkpt>
      <trkpt lat="45.52516" lon="6.7534">
        <ele>2161.5</ele>
        <time>2021-08-03T08:26:48Z</time>
      </trkpt>
      <trkpt lat="45.52516" lon="6.75341">
        <ele>2161.5</ele>
        <time>2021-08-03T08:26:49Z</time>
      </trkpt>
      <trkpt lat="45.52516" lon="6.75341">
        <ele>2161.6</ele>
        <time>2021-08-03T08:26:50Z</time>
      </trkpt>
      <trkpt lat="45.52516" lon="6.75341">
        <ele>2161.7</ele>
        <time>2021-08-03T08:26:51Z</time>
      </trkpt>
      <trkpt lat="45.52516" lon="6.75341">
        <ele>2161.7</ele>
        <time>2021-08-03T08:26:52Z</time>
      </trkpt>
      <trkpt lat="45.52516" lon="6.75342">
        <ele>2161.9</ele>
        <time>2021-08-03T08:26:53Z</time>
      </trkpt>
      <trkpt lat="45.52516" lon="6.75342">
        <ele>2162</ele>
        <time>2021-08-03T08:26:54Z</time>
      </trkpt>
      <trkpt lat="45.52516" lon="6.75343">
        <ele>2162.2</ele>
        <time>2021-08-03T08:26:55Z</time>
      </trkpt>
      <trkpt lat="45.52515" lon="6.75343">
        <ele>2162.3</ele>
        <time>2021-08-03T08:26:56Z</time>
      </trkpt>
      <trkpt lat="45.52515" lon="6.75344">
        <ele>2162.5</ele>
        <time>2021-08-03T08:26:57Z</time>
      </trkpt>
      <trkpt lat="45.52515" lon="6.75345">
        <ele>2162.7</ele>
        <time>2021-08-03T08:26:58Z</time>
      </trkpt>
      <trkpt lat="45.52514" lon="6.75345">
        <ele>2162.9</ele>
        <time>2021-08-03T08:26:59Z</time>
      </trkpt>
      <trkpt lat="45.52514" lon="6.75346">
        <ele>2163.2</ele>
        <time>2021-08-03T08:27:00Z</time>
      </trkpt>
      <trkpt lat="45.52514" lon="6.75346">
        <ele>2163.4</ele>
        <time>2021-08-03T08:27:01Z</time>
      </trkpt>
      <trkpt lat="45.52513" lon="6.75347">
        <ele>2163.6</ele>
        <time>2021-08-03T08:27:02Z</time>
      </trkpt>
      <trkpt lat="45.52513" lon="6.75347">
        <ele>2163.8</ele>
        <time>2021-08-03T08:27:03Z</time>
      </trkpt>
      <trkpt lat="45.52512" lon="6.75348">
        <ele>2164</ele>
        <time>2021-08-03T08:27:04Z</time>
      </trkpt>
      <trkpt lat="45.52512" lon="6.75348">
        <ele>2164.2</ele>
        <time>2021-08-03T08:27:05Z</time>
      </trkpt>
      <trkpt lat="45.52511" lon="6.75349">
        <ele>2164.4</ele>
        <time>2021-08-03T08:27:06Z</time>
      </trkpt>
      <trkpt lat="45.52511" lon="6.75349">
        <ele>2164.6</ele>
        <time>2021-08-03T08:27:07Z</time>
      </trkpt>
      <trkpt lat="45.52511" lon="6.7535">
        <ele>2164.8</ele>
        <time>2021-08-03T08:27:08Z</time>
      </trkpt>
      <trkpt lat="45.5251" lon="6.75351">
        <ele>2165.1</ele>
        <time>2021-08-03T08:27:09Z</time>
      </trkpt>
      <trkpt lat="45.5251" lon="6.75352">
        <ele>2165.3</ele>
        <time>2021-08-03T08:27:10Z</time>
      </trkpt>
      <trkpt lat="45.5251" lon="6.75353">
        <ele>2165.6</ele>
        <time>2021-08-03T08:27:11Z</time>
      </trkpt>
      <trkpt lat="45.52509" lon="6.75354">
        <ele>2165.9</ele>
        <time>2021-08-03T08:27:12Z</time>
      </trkpt>
      <trkpt lat="45.52509" lon="6.75355">
        <ele>2166.2</ele>
        <time>2021-08-03T08:27:13Z</time>
      </trkpt>
      <trkpt lat="45.52509" lon="6.75356">
        <ele>2166.5</ele>
        <time>2021-08-03T08:27:14Z</time>
      </trkpt>
      <trkpt lat="45.52508" lon="6.75357">
        <ele>2166.8</ele>
        <time>2021-08-03T08:27:15Z</time>
      </trkpt>
      <trkpt lat="45.52508" lon="6.75358">
        <ele>2167.1</ele>
        <time>2021-08-03T08:27:16Z</time>
      </trkpt>
      <trkpt lat="45.52507" lon="6.75358">
        <ele>2167.4</ele>
        <time>2021-08-03T08:27:17Z</time>
      </trkpt>
      <trkpt lat="45.52506" lon="6.75359">
        <ele>2167.7</ele>
        <time>2021-08-03T08:27:18Z</time>
      </trkpt>
      <trkpt lat="45.52505" lon="6.7536">
        <ele>2168.1</ele>
        <time>2021-08-03T08:27:19Z</time>
      </trkpt>
      <trkpt lat="45.52504" lon="6.7536">
        <ele>2168.4</ele>
        <time>2021-08-03T08:27:20Z</time>
      </trkpt>
      <trkpt lat="45.52504" lon="6.75361">
        <ele>2168.8</ele>
        <time>2021-08-03T08:27:21Z</time>
      </trkpt>
      <trkpt lat="45.52503" lon="6.75361">
        <ele>2169.1</ele>
        <time>2021-08-03T08:27:22Z</time>
      </trkpt>
      <trkpt lat="45.52502" lon="6.75362">
        <ele>2169.4</ele>
        <time>2021-08-03T08:27:23Z</time>
      </trkpt>
      <trkpt lat="45.52501" lon="6.75362">
        <ele>2169.7</ele>
        <time>2021-08-03T08:27:24Z</time>
      </trkpt>
      <trkpt lat="45.52501" lon="6.75363">
        <ele>2169.9</ele>
        <time>2021-08-03T08:27:25Z</time>
      </trkpt>
      <trkpt lat="45.52501" lon="6.75363">
        <ele>2170.2</ele>
        <time>2021-08-03T08:27:26Z</time>
      </trkpt>
      <trkpt lat="45.525" lon="6.75364">
        <ele>2170.4</ele>
        <time>2021-08-03T08:27:27Z</time>
      </trkpt>
      <trkpt lat="45.525" lon="6.75364">
        <ele>2170.6</ele>
        <time>2021-08-03T08:27:28Z</time>
      </trkpt>
      <trkpt lat="45.525" lon="6.75365">
        <ele>2170.7</ele>
        <time>2021-08-03T08:27:29Z</time>
      </trkpt>
      <trkpt lat="45.525" lon="6.75365">
        <ele>2170.9</ele>
        <time>2021-08-03T08:27:30Z</time>
      </trkpt>
      <trkpt lat="45.52499" lon="6.75366">
        <ele>2171</ele>
        <time>2021-08-03T08:27:31Z</time>
      </trkpt>
      <trkpt lat="45.52499" lon="6.75366">
        <ele>2171.2</ele>
        <time>2021-08-03T08:27:32Z</time>
      </trkpt>
      <trkpt lat="45.52499" lon="6.75367">
        <ele>2171.3</ele>
        <time>2021-08-03T08:27:33Z</time>
      </trkpt>
      <trkpt lat="45.52498" lon="6.75367">
        <ele>2171.5</ele>
        <time>2021-08-03T08:27:34Z</time>
      </trkpt>
      <trkpt lat="45.52498" lon="6.75367">
        <ele>2171.6</ele>
        <time>2021-08-03T08:27:35Z</time>
      </trkpt>
      <trkpt lat="45.52498" lon="6.75367">
        <ele>2171.7</ele>
        <time>2021-08-03T08:27:36Z</time>
      </trkpt>
      <trkpt lat="45.52497" lon="6.75368">
        <ele>2172</ele>
        <time>2021-08-03T08:27:37Z</time>
      </trkpt>
      <trkpt lat="45.52497" lon="6.75368">
        <ele>2172</ele>
        <time>2021-08-03T08:27:38Z</time>
      </trkpt>
      <trkpt lat="45.52497" lon="6.75368">
        <ele>2172.1</ele>
        <time>2021-08-03T08:27:39Z</time>
      </trkpt>
      <trkpt lat="45.52497" lon="6.75368">
        <ele>2172.2</ele>
        <time>2021-08-03T08:27:40Z</time>
      </trkpt>
      <trkpt lat="45.52497" lon="6.75368">
        <ele>2172.2</ele>
        <time>2021-08-03T08:27:41Z</time>
      </trkpt>
      <trkpt lat="45.52497" lon="6.75367">
        <ele>2172.3</ele>
        <time>2021-08-03T08:27:42Z</time>
      </trkpt>
      <trkpt lat="45.52497" lon="6.75367">
        <ele>2172.3</ele>
        <time>2021-08-03T08:27:43Z</time>
      </trkpt>
      <trkpt lat="45.52497" lon="6.75367">
        <ele>2172.4</ele>
        <time>2021-08-03T08:27:44Z</time>
      </trkpt>
      <trkpt lat="45.52497" lon="6.75367">
        <ele>2172.4</ele>
        <time>2021-08-03T08:27:45Z</time>
      </trkpt>
      <trkpt lat="45.52497" lon="6.75367">
        <ele>2172.5</ele>
        <time>2021-08-03T08:27:46Z</time>
      </trkpt>
      <trkpt lat="45.52497" lon="6.75367">
        <ele>2172.5</ele>
        <time>2021-08-03T08:27:47Z</time>
      </trkpt>
      <trkpt lat="45.52497" lon="6.75367">
        <ele>2172.5</ele>
        <time>2021-08-03T08:27:48Z</time>
      </trkpt>
      <trkpt lat="45.52497" lon="6.75367">
        <ele>2172.6</ele>
        <time>2021-08-03T08:27:49Z</time>
      </trkpt>
      <trkpt lat="45.52497" lon="6.75368">
        <ele>2172.8</ele>
        <time>2021-08-03T08:27:50Z</time>
      </trkpt>
      <trkpt lat="45.52496" lon="6.75368">
        <ele>2172.9</ele>
        <time>2021-08-03T08:27:51Z</time>
      </trkpt>
      <trkpt lat="45.52496" lon="6.75368">
        <ele>2173.1</ele>
        <time>2021-08-03T08:27:52Z</time>
      </trkpt>
      <trkpt lat="45.52495" lon="6.75369">
        <ele>2173.4</ele>
        <time>2021-08-03T08:27:53Z</time>
      </trkpt>
      <trkpt lat="45.52495" lon="6.75369">
        <ele>2173.6</ele>
        <time>2021-08-03T08:27:54Z</time>
      </trkpt>
      <trkpt lat="45.52494" lon="6.75369">
        <ele>2173.9</ele>
        <time>2021-08-03T08:27:55Z</time>
      </trkpt>
      <trkpt lat="45.52494" lon="6.7537">
        <ele>2174.2</ele>
        <time>2021-08-03T08:27:56Z</time>
      </trkpt>
      <trkpt lat="45.52493" lon="6.7537">
        <ele>2174.4</ele>
        <time>2021-08-03T08:27:57Z</time>
      </trkpt>
      <trkpt lat="45.52492" lon="6.75371">
        <ele>2174.7</ele>
        <time>2021-08-03T08:27:58Z</time>
      </trkpt>
      <trkpt lat="45.52492" lon="6.75371">
        <ele>2175</ele>
        <time>2021-08-03T08:27:59Z</time>
      </trkpt>
      <trkpt lat="45.52491" lon="6.75371">
        <ele>2175.2</ele>
        <time>2021-08-03T08:28:00Z</time>
      </trkpt>
      <trkpt lat="45.52491" lon="6.75372">
        <ele>2175.5</ele>
        <time>2021-08-03T08:28:01Z</time>
      </trkpt>
      <trkpt lat="45.5249" lon="6.75372">
        <ele>2175.7</ele>
        <time>2021-08-03T08:28:02Z</time>
      </trkpt>
      <trkpt lat="45.5249" lon="6.75373">
        <ele>2175.9</ele>
        <time>2021-08-03T08:28:03Z</time>
      </trkpt>
      <trkpt lat="45.52489" lon="6.75373">
        <ele>2176.2</ele>
        <time>2021-08-03T08:28:04Z</time>
      </trkpt>
      <trkpt lat="45.52489" lon="6.75374">
        <ele>2176.4</ele>
        <time>2021-08-03T08:28:05Z</time>
      </trkpt>
      <trkpt lat="45.52488" lon="6.75374">
        <ele>2176.6</ele>
        <time>2021-08-03T08:28:06Z</time>
      </trkpt>
      <trkpt lat="45.52488" lon="6.75375">
        <ele>2176.8</ele>
        <time>2021-08-03T08:28:07Z</time>
      </trkpt>
      <trkpt lat="45.52488" lon="6.75376">
        <ele>2177</ele>
        <time>2021-08-03T08:28:08Z</time>
      </trkpt>
      <trkpt lat="45.52488" lon="6.75376">
        <ele>2177.2</ele>
        <time>2021-08-03T08:28:09Z</time>
      </trkpt>
      <trkpt lat="45.52487" lon="6.75377">
        <ele>2177.5</ele>
        <time>2021-08-03T08:28:10Z</time>
      </trkpt>
      <trkpt lat="45.52487" lon="6.75378">
        <ele>2177.7</ele>
        <time>2021-08-03T08:28:11Z</time>
      </trkpt>
      <trkpt lat="45.52487" lon="6.75378">
        <ele>2177.9</ele>
        <time>2021-08-03T08:28:12Z</time>
      </trkpt>
      <trkpt lat="45.52487" lon="6.75379">
        <ele>2178.1</ele>
        <time>2021-08-03T08:28:13Z</time>
      </trkpt>
      <trkpt lat="45.52487" lon="6.7538">
        <ele>2178.3</ele>
        <time>2021-08-03T08:28:14Z</time>
      </trkpt>
      <trkpt lat="45.52487" lon="6.7538">
        <ele>2178.5</ele>
        <time>2021-08-03T08:28:15Z</time>
      </trkpt>
      <trkpt lat="45.52487" lon="6.75381">
        <ele>2178.8</ele>
        <time>2021-08-03T08:28:16Z</time>
      </trkpt>
      <trkpt lat="45.52487" lon="6.75382">
        <ele>2178.9</ele>
        <time>2021-08-03T08:28:17Z</time>
      </trkpt>
      <trkpt lat="45.52486" lon="6.75382">
        <ele>2179.1</ele>
        <time>2021-08-03T08:28:18Z</time>
      </trkpt>
      <trkpt lat="45.52486" lon="6.75383">
        <ele>2179.3</ele>
        <time>2021-08-03T08:28:19Z</time>
      </trkpt>
      <trkpt lat="45.52486" lon="6.75383">
        <ele>2179.5</ele>
        <time>2021-08-03T08:28:20Z</time>
      </trkpt>
      <trkpt lat="45.52486" lon="6.75384">
        <ele>2179.6</ele>
        <time>2021-08-03T08:28:21Z</time>
      </trkpt>
      <trkpt lat="45.52486" lon="6.75384">
        <ele>2179.7</ele>
        <time>2021-08-03T08:28:22Z</time>
      </trkpt>
      <trkpt lat="45.52485" lon="6.75385">
        <ele>2179.9</ele>
        <time>2021-08-03T08:28:23Z</time>
      </trkpt>
      <trkpt lat="45.52485" lon="6.75385">
        <ele>2180</ele>
        <time>2021-08-03T08:28:24Z</time>
      </trkpt>
      <trkpt lat="45.52485" lon="6.75385">
        <ele>2180.2</ele>
        <time>2021-08-03T08:28:25Z</time>
      </trkpt>
      <trkpt lat="45.52485" lon="6.75386">
        <ele>2180.3</ele>
        <time>2021-08-03T08:28:26Z</time>
      </trkpt>
      <trkpt lat="45.52485" lon="6.75386">
        <ele>2180.5</ele>
        <time>2021-08-03T08:28:27Z</time>
      </trkpt>
      <trkpt lat="45.52484" lon="6.75387">
        <ele>2180.7</ele>
        <time>2021-08-03T08:28:28Z</time>
      </trkpt>
      <trkpt lat="45.52484" lon="6.75387">
        <ele>2180.9</ele>
        <time>2021-08-03T08:28:29Z</time>
      </trkpt>
      <trkpt lat="45.52484" lon="6.75388">
        <ele>2181.1</ele>
        <time>2021-08-03T08:28:30Z</time>
      </trkpt>
      <trkpt lat="45.52484" lon="6.75389">
        <ele>2181.3</ele>
        <time>2021-08-03T08:28:31Z</time>
      </trkpt>
      <trkpt lat="45.52484" lon="6.75389">
        <ele>2181.5</ele>
        <time>2021-08-03T08:28:32Z</time>
      </trkpt>
      <trkpt lat="45.52484" lon="6.7539">
        <ele>2181.7</ele>
        <time>2021-08-03T08:28:33Z</time>
      </trkpt>
      <trkpt lat="45.52484" lon="6.75391">
        <ele>2181.9</ele>
        <time>2021-08-03T08:28:34Z</time>
      </trkpt>
      <trkpt lat="45.52484" lon="6.75391">
        <ele>2182.1</ele>
        <time>2021-08-03T08:28:35Z</time>
      </trkpt>
      <trkpt lat="45.52484" lon="6.75392">
        <ele>2182.2</ele>
        <time>2021-08-03T08:28:36Z</time>
      </trkpt>
      <trkpt lat="45.52484" lon="6.75392">
        <ele>2182.4</ele>
        <time>2021-08-03T08:28:37Z</time>
      </trkpt>
      <trkpt lat="45.52484" lon="6.75393">
        <ele>2182.5</ele>
        <time>2021-08-03T08:28:38Z</time>
      </trkpt>
      <trkpt lat="45.52483" lon="6.75393">
        <ele>2182.6</ele>
        <time>2021-08-03T08:28:39Z</time>
      </trkpt>
      <trkpt lat="45.52483" lon="6.75393">
        <ele>2182.7</ele>
        <time>2021-08-03T08:28:40Z</time>
      </trkpt>
      <trkpt lat="45.52483" lon="6.75394">
        <ele>2182.8</ele>
        <time>2021-08-03T08:28:41Z</time>
      </trkpt>
      <trkpt lat="45.52483" lon="6.75394">
        <ele>2182.8</ele>
        <time>2021-08-03T08:28:42Z</time>
      </trkpt>
      <trkpt lat="45.52483" lon="6.75394">
        <ele>2183</ele>
        <time>2021-08-03T08:28:43Z</time>
      </trkpt>
      <trkpt lat="45.52483" lon="6.75394">
        <ele>2183</ele>
        <time>2021-08-03T08:28:44Z</time>
      </trkpt>
      <trkpt lat="45.52483" lon="6.75394">
        <ele>2183.1</ele>
        <time>2021-08-03T08:28:45Z</time>
      </trkpt>
      <trkpt lat="45.52483" lon="6.75394">
        <ele>2183.1</ele>
        <time>2021-08-03T08:28:46Z</time>
      </trkpt>
      <trkpt lat="45.52483" lon="6.75394">
        <ele>2183.1</ele>
        <time>2021-08-03T08:28:47Z</time>
      </trkpt>
      <trkpt lat="45.52483" lon="6.75394">
        <ele>2183.1</ele>
        <time>2021-08-03T08:28:48Z</time>
      </trkpt>
      <trkpt lat="45.52483" lon="6.75394">
        <ele>2183.2</ele>
        <time>2021-08-03T08:28:49Z</time>
      </trkpt>
      <trkpt lat="45.52483" lon="6.75394">
        <ele>2183.2</ele>
        <time>2021-08-03T08:28:50Z</time>
      </trkpt>
      <trkpt lat="45.52483" lon="6.75394">
        <ele>2183.3</ele>
        <time>2021-08-03T08:28:51Z</time>
      </trkpt>
      <trkpt lat="45.52483" lon="6.75394">
        <ele>2183.3</ele>
        <time>2021-08-03T08:28:52Z</time>
      </trkpt>
      <trkpt lat="45.52483" lon="6.75394">
        <ele>2183.3</ele>
        <time>2021-08-03T08:28:53Z</time>
      </trkpt>
      <trkpt lat="45.52483" lon="6.75394">
        <ele>2183.3</ele>
        <time>2021-08-03T08:28:54Z</time>
      </trkpt>
      <trkpt lat="45.52483" lon="6.75394">
        <ele>2183.4</ele>
        <time>2021-08-03T08:28:55Z</time>
      </trkpt>
      <trkpt lat="45.52483" lon="6.75394">
        <ele>2183.4</ele>
        <time>2021-08-03T08:28:56Z</time>
      </trkpt>
      <trkpt lat="45.52483" lon="6.75394">
        <ele>2183.4</ele>
        <time>2021-08-03T08:28:57Z</time>
      </trkpt>
      <trkpt lat="45.52483" lon="6.75394">
        <ele>2183.4</ele>
        <time>2021-08-03T08:28:58Z</time>
      </trkpt>
      <trkpt lat="45.52483" lon="6.75394">
        <ele>2183.4</ele>
        <time>2021-08-03T08:28:59Z</time>
      </trkpt>
      <trkpt lat="45.52483" lon="6.75394">
        <ele>2183.4</ele>
        <time>2021-08-03T08:29:00Z</time>
      </trkpt>
      <trkpt lat="45.52483" lon="6.75394">
        <ele>2183.4</ele>
        <time>2021-08-03T08:29:01Z</time>
      </trkpt>
      <trkpt lat="45.52483" lon="6.75394">
        <ele>2183.4</ele>
        <time>2021-08-03T08:29:02Z</time>
      </trkpt>
      <trkpt lat="45.52483" lon="6.75394">
        <ele>2183.4</ele>
        <time>2021-08-03T08:29:03Z</time>
      </trkpt>
      <trkpt lat="45.52483" lon="6.75394">
        <ele>2183.4</ele>
        <time>2021-08-03T08:29:04Z</time>
      </trkpt>
      <trkpt lat="45.52483" lon="6.75394">
        <ele>2183.4</ele>
        <time>2021-08-03T08:29:05Z</time>
      </trkpt>
      <trkpt lat="45.52483" lon="6.75394">
        <ele>2183.4</ele>
        <time>2021-08-03T08:29:06Z</time>
      </trkpt>
      <trkpt lat="45.52483" lon="6.75394">
        <ele>2183.4</ele>
        <time>2021-08-03T08:29:07Z</time>
      </trkpt>
      <trkpt lat="45.52483" lon="6.75394">
        <ele>2183.4</ele>
        <time>2021-08-03T08:29:08Z</time>
      </trkpt>
      <trkpt lat="45.52483" lon="6.75394">
        <ele>2183.4</ele>
        <time>2021-08-03T08:29:09Z</time>
      </trkpt>
      <trkpt lat="45.52483" lon="6.75394">
        <ele>2183.4</ele>
        <time>2021-08-03T08:29:10Z</time>
      </trkpt>
      <trkpt lat="45.52483" lon="6.75394">
        <ele>2183.4</ele>
        <time>2021-08-03T08:29:11Z</time>
      </trkpt>
      <trkpt lat="45.52483" lon="6.75394">
        <ele>2183.4</ele>
        <time>2021-08-03T08:29:12Z</time>
      </trkpt>
      <trkpt lat="45.52483" lon="6.75394">
        <ele>2183.4</ele>
        <time>2021-08-03T08:29:13Z</time>
      </trkpt>
      <trkpt lat="45.52483" lon="6.75394">
        <ele>2183.4</ele>
        <time>2021-08-03T08:29:14Z</time>
      </trkpt>
      <trkpt lat="45.52483" lon="6.75394">
        <ele>2183.4</ele>
        <time>2021-08-03T08:29:15Z</time>
      </trkpt>
      <trkpt lat="45.52483" lon="6.75394">
        <ele>2183.4</ele>
        <time>2021-08-03T08:29:16Z</time>
      </trkpt>
      <trkpt lat="45.52483" lon="6.75394">
        <ele>2183.4</ele>
        <time>2021-08-03T08:29:17Z</time>
      </trkpt>
      <trkpt lat="45.52483" lon="6.75394">
        <ele>2183.4</ele>
        <time>2021-08-03T08:29:18Z</time>
      </trkpt>
      <trkpt lat="45.52483" lon="6.75394">
        <ele>2183.4</ele>
        <time>2021-08-03T08:29:19Z</time>
      </trkpt>
      <trkpt lat="45.52483" lon="6.75394">
        <ele>2183.4</ele>
        <time>2021-08-03T08:29:20Z</time>
      </trkpt>
      <trkpt lat="45.52483" lon="6.75394">
        <ele>2183.4</ele>
        <time>2021-08-03T08:29:21Z</time>
      </trkpt>
      <trkpt lat="45.52483" lon="6.75394">
        <ele>2183.4</ele>
        <time>2021-08-03T08:29:22Z</time>
      </trkpt>
      <trkpt lat="45.52483" lon="6.75394">
        <ele>2183.4</ele>
        <time>2021-08-03T08:29:23Z</time>
      </trkpt>
      <trkpt lat="45.52483" lon="6.75394">
        <ele>2183.4</ele>
        <time>2021-08-03T08:29:24Z</time>
      </trkpt>
      <trkpt lat="45.52483" lon="6.75394">
        <ele>2183.5</ele>
        <time>2021-08-03T08:29:25Z</time>
      </trkpt>
      <trkpt lat="45.52482" lon="6.75394">
        <ele>2183.6</ele>
        <time>2021-08-03T08:29:26Z</time>
      </trkpt>
      <trkpt lat="45.52482" lon="6.75394">
        <ele>2183.7</ele>
        <time>2021-08-03T08:29:27Z</time>
      </trkpt>
      <trkpt lat="45.52482" lon="6.75394">
        <ele>2183.9</ele>
        <time>2021-08-03T08:29:28Z</time>
      </trkpt>
      <trkpt lat="45.52481" lon="6.75394">
        <ele>2184</ele>
        <time>2021-08-03T08:29:29Z</time>
      </trkpt>
      <trkpt lat="45.52481" lon="6.75394">
        <ele>2184.2</ele>
        <time>2021-08-03T08:29:30Z</time>
      </trkpt>
      <trkpt lat="45.52481" lon="6.75394">
        <ele>2184.3</ele>
        <time>2021-08-03T08:29:31Z</time>
      </trkpt>
      <trkpt lat="45.52481" lon="6.75394">
        <ele>2184.3</ele>
        <time>2021-08-03T08:29:32Z</time>
      </trkpt>
      <trkpt lat="45.52481" lon="6.75394">
        <ele>2184.3</ele>
        <time>2021-08-03T08:29:33Z</time>
      </trkpt>
      <trkpt lat="45.52481" lon="6.75394">
        <ele>2184.3</ele>
        <time>2021-08-03T08:29:34Z</time>
      </trkpt>
      <trkpt lat="45.52481" lon="6.75394">
        <ele>2184.3</ele>
        <time>2021-08-03T08:29:35Z</time>
      </trkpt>
      <trkpt lat="45.52481" lon="6.75394">
        <ele>2184.4</ele>
        <time>2021-08-03T08:29:36Z</time>
      </trkpt>
      <trkpt lat="45.52481" lon="6.75394">
        <ele>2184.4</ele>
        <time>2021-08-03T08:29:37Z</time>
      </trkpt>
      <trkpt lat="45.52481" lon="6.75394">
        <ele>2184.4</ele>
        <time>2021-08-03T08:29:38Z</time>
      </trkpt>
      <trkpt lat="45.5248" lon="6.75394">
        <ele>2184.5</ele>
        <time>2021-08-03T08:29:39Z</time>
      </trkpt>
      <trkpt lat="45.5248" lon="6.75394">
        <ele>2184.6</ele>
        <time>2021-08-03T08:29:40Z</time>
      </trkpt>
      <trkpt lat="45.5248" lon="6.75394">
        <ele>2184.7</ele>
        <time>2021-08-03T08:29:41Z</time>
      </trkpt>
      <trkpt lat="45.52479" lon="6.75394">
        <ele>2184.9</ele>
        <time>2021-08-03T08:29:42Z</time>
      </trkpt>
      <trkpt lat="45.52479" lon="6.75394">
        <ele>2185.1</ele>
        <time>2021-08-03T08:29:43Z</time>
      </trkpt>
      <trkpt lat="45.52478" lon="6.75394">
        <ele>2185.3</ele>
        <time>2021-08-03T08:29:44Z</time>
      </trkpt>
      <trkpt lat="45.52478" lon="6.75394">
        <ele>2185.5</ele>
        <time>2021-08-03T08:29:45Z</time>
      </trkpt>
      <trkpt lat="45.52477" lon="6.75394">
        <ele>2185.7</ele>
        <time>2021-08-03T08:29:46Z</time>
      </trkpt>
      <trkpt lat="45.52477" lon="6.75394">
        <ele>2185.9</ele>
        <time>2021-08-03T08:29:47Z</time>
      </trkpt>
      <trkpt lat="45.52476" lon="6.75393">
        <ele>2186.1</ele>
        <time>2021-08-03T08:29:48Z</time>
      </trkpt>
      <trkpt lat="45.52476" lon="6.75393">
        <ele>2186.3</ele>
        <time>2021-08-03T08:29:49Z</time>
      </trkpt>
      <trkpt lat="45.52475" lon="6.75393">
        <ele>2186.5</ele>
        <time>2021-08-03T08:29:50Z</time>
      </trkpt>
      <trkpt lat="45.52475" lon="6.75393">
        <ele>2186.7</ele>
        <time>2021-08-03T08:29:51Z</time>
      </trkpt>
      <trkpt lat="45.52475" lon="6.75393">
        <ele>2186.8</ele>
        <time>2021-08-03T08:29:52Z</time>
      </trkpt>
      <trkpt lat="45.52474" lon="6.75392">
        <ele>2187</ele>
        <time>2021-08-03T08:29:53Z</time>
      </trkpt>
      <trkpt lat="45.52474" lon="6.75392">
        <ele>2187.1</ele>
        <time>2021-08-03T08:29:54Z</time>
      </trkpt>
      <trkpt lat="45.52474" lon="6.75392">
        <ele>2187.3</ele>
        <time>2021-08-03T08:29:55Z</time>
      </trkpt>
      <trkpt lat="45.52473" lon="6.75392">
        <ele>2187.4</ele>
        <time>2021-08-03T08:29:56Z</time>
      </trkpt>
      <trkpt lat="45.52473" lon="6.75392">
        <ele>2187.5</ele>
        <time>2021-08-03T08:29:57Z</time>
      </trkpt>
      <trkpt lat="45.52473" lon="6.75392">
        <ele>2187.6</ele>
        <time>2021-08-03T08:29:58Z</time>
      </trkpt>
      <trkpt lat="45.52473" lon="6.75392">
        <ele>2187.6</ele>
        <time>2021-08-03T08:29:59Z</time>
      </trkpt>
      <trkpt lat="45.52473" lon="6.75392">
        <ele>2187.7</ele>
        <time>2021-08-03T08:30:00Z</time>
      </trkpt>
      <trkpt lat="45.52473" lon="6.75392">
        <ele>2187.7</ele>
        <time>2021-08-03T08:30:01Z</time>
      </trkpt>
      <trkpt lat="45.52472" lon="6.75392">
        <ele>2187.8</ele>
        <time>2021-08-03T08:30:02Z</time>
      </trkpt>
      <trkpt lat="45.52472" lon="6.75392">
        <ele>2187.8</ele>
        <time>2021-08-03T08:30:03Z</time>
      </trkpt>
      <trkpt lat="45.52472" lon="6.75392">
        <ele>2187.8</ele>
        <time>2021-08-03T08:30:04Z</time>
      </trkpt>
      <trkpt lat="45.52472" lon="6.75392">
        <ele>2187.8</ele>
        <time>2021-08-03T08:30:05Z</time>
      </trkpt>
      <trkpt lat="45.52472" lon="6.75392">
        <ele>2187.8</ele>
        <time>2021-08-03T08:30:06Z</time>
      </trkpt>
      <trkpt lat="45.52472" lon="6.75392">
        <ele>2187.8</ele>
        <time>2021-08-03T08:30:07Z</time>
      </trkpt>
      <trkpt lat="45.52472" lon="6.75392">
        <ele>2187.9</ele>
        <time>2021-08-03T08:30:08Z</time>
      </trkpt>
      <trkpt lat="45.52472" lon="6.75392">
        <ele>2187.9</ele>
        <time>2021-08-03T08:30:09Z</time>
      </trkpt>
      <trkpt lat="45.52472" lon="6.75392">
        <ele>2187.9</ele>
        <time>2021-08-03T08:30:10Z</time>
      </trkpt>
      <trkpt lat="45.52472" lon="6.75392">
        <ele>2188</ele>
        <time>2021-08-03T08:30:11Z</time>
      </trkpt>
      <trkpt lat="45.52472" lon="6.75392">
        <ele>2188.1</ele>
        <time>2021-08-03T08:30:12Z</time>
      </trkpt>
      <trkpt lat="45.52472" lon="6.75392">
        <ele>2188.2</ele>
        <time>2021-08-03T08:30:13Z</time>
      </trkpt>
      <trkpt lat="45.52471" lon="6.75392">
        <ele>2188.3</ele>
        <time>2021-08-03T08:30:14Z</time>
      </trkpt>
      <trkpt lat="45.52471" lon="6.75392">
        <ele>2188.4</ele>
        <time>2021-08-03T08:30:15Z</time>
      </trkpt>
      <trkpt lat="45.52471" lon="6.75392">
        <ele>2188.5</ele>
        <time>2021-08-03T08:30:16Z</time>
      </trkpt>
      <trkpt lat="45.52471" lon="6.75393">
        <ele>2188.6</ele>
        <time>2021-08-03T08:30:17Z</time>
      </trkpt>
      <trkpt lat="45.52471" lon="6.75393">
        <ele>2188.7</ele>
        <time>2021-08-03T08:30:18Z</time>
      </trkpt>
      <trkpt lat="45.5247" lon="6.75393">
        <ele>2188.8</ele>
        <time>2021-08-03T08:30:19Z</time>
      </trkpt>
      <trkpt lat="45.5247" lon="6.75394">
        <ele>2188.9</ele>
        <time>2021-08-03T08:30:20Z</time>
      </trkpt>
      <trkpt lat="45.5247" lon="6.75394">
        <ele>2189</ele>
        <time>2021-08-03T08:30:21Z</time>
      </trkpt>
      <trkpt lat="45.5247" lon="6.75394">
        <ele>2189.1</ele>
        <time>2021-08-03T08:30:22Z</time>
      </trkpt>
      <trkpt lat="45.5247" lon="6.75394">
        <ele>2189.1</ele>
        <time>2021-08-03T08:30:23Z</time>
      </trkpt>
      <trkpt lat="45.5247" lon="6.75394">
        <ele>2189.3</ele>
        <time>2021-08-03T08:30:24Z</time>
      </trkpt>
      <trkpt lat="45.52469" lon="6.75394">
        <ele>2189.4</ele>
        <time>2021-08-03T08:30:25Z</time>
      </trkpt>
      <trkpt lat="45.52469" lon="6.75394">
        <ele>2189.6</ele>
        <time>2021-08-03T08:30:26Z</time>
      </trkpt>
      <trkpt lat="45.52468" lon="6.75393">
        <ele>2189.9</ele>
        <time>2021-08-03T08:30:27Z</time>
      </trkpt>
      <trkpt lat="45.52468" lon="6.75393">
        <ele>2190.1</ele>
        <time>2021-08-03T08:30:28Z</time>
      </trkpt>
      <trkpt lat="45.52468" lon="6.75392">
        <ele>2190.3</ele>
        <time>2021-08-03T08:30:29Z</time>
      </trkpt>
      <trkpt lat="45.52467" lon="6.75392">
        <ele>2190.4</ele>
        <time>2021-08-03T08:30:30Z</time>
      </trkpt>
      <trkpt lat="45.52467" lon="6.75392">
        <ele>2190.4</ele>
        <time>2021-08-03T08:30:31Z</time>
      </trkpt>
      <trkpt lat="45.52467" lon="6.75392">
        <ele>2190.4</ele>
        <time>2021-08-03T08:30:32Z</time>
      </trkpt>
      <trkpt lat="45.52467" lon="6.75392">
        <ele>2190.4</ele>
        <time>2021-08-03T08:30:33Z</time>
      </trkpt>
      <trkpt lat="45.52467" lon="6.75392">
        <ele>2190.5</ele>
        <time>2021-08-03T08:30:34Z</time>
      </trkpt>
      <trkpt lat="45.52467" lon="6.75392">
        <ele>2190.5</ele>
        <time>2021-08-03T08:30:35Z</time>
      </trkpt>
      <trkpt lat="45.52467" lon="6.75392">
        <ele>2190.6</ele>
        <time>2021-08-03T08:30:36Z</time>
      </trkpt>
      <trkpt lat="45.52467" lon="6.75392">
        <ele>2190.7</ele>
        <time>2021-08-03T08:30:37Z</time>
      </trkpt>
      <trkpt lat="45.52466" lon="6.75392">
        <ele>2190.8</ele>
        <time>2021-08-03T08:30:38Z</time>
      </trkpt>
      <trkpt lat="45.52466" lon="6.75392">
        <ele>2190.9</ele>
        <time>2021-08-03T08:30:39Z</time>
      </trkpt>
      <trkpt lat="45.52466" lon="6.75392">
        <ele>2191.1</ele>
        <time>2021-08-03T08:30:40Z</time>
      </trkpt>
      <trkpt lat="45.52466" lon="6.75393">
        <ele>2191.2</ele>
        <time>2021-08-03T08:30:41Z</time>
      </trkpt>
      <trkpt lat="45.52465" lon="6.75393">
        <ele>2191.3</ele>
        <time>2021-08-03T08:30:42Z</time>
      </trkpt>
      <trkpt lat="45.52465" lon="6.75393">
        <ele>2191.5</ele>
        <time>2021-08-03T08:30:43Z</time>
      </trkpt>
      <trkpt lat="45.52465" lon="6.75393">
        <ele>2191.6</ele>
        <time>2021-08-03T08:30:44Z</time>
      </trkpt>
      <trkpt lat="45.52464" lon="6.75393">
        <ele>2191.7</ele>
        <time>2021-08-03T08:30:45Z</time>
      </trkpt>
      <trkpt lat="45.52464" lon="6.75393">
        <ele>2191.8</ele>
        <time>2021-08-03T08:30:46Z</time>
      </trkpt>
      <trkpt lat="45.52464" lon="6.75394">
        <ele>2191.9</ele>
        <time>2021-08-03T08:30:47Z</time>
      </trkpt>
      <trkpt lat="45.52464" lon="6.75394">
        <ele>2192.1</ele>
        <time>2021-08-03T08:30:48Z</time>
      </trkpt>
      <trkpt lat="45.52463" lon="6.75394">
        <ele>2192.2</ele>
        <time>2021-08-03T08:30:49Z</time>
      </trkpt>
      <trkpt lat="45.52463" lon="6.75394">
        <ele>2192.3</ele>
        <time>2021-08-03T08:30:50Z</time>
      </trkpt>
      <trkpt lat="45.52463" lon="6.75394">
        <ele>2192.4</ele>
        <time>2021-08-03T08:30:51Z</time>
      </trkpt>
      <trkpt lat="45.52463" lon="6.75394">
        <ele>2192.5</ele>
        <time>2021-08-03T08:30:52Z</time>
      </trkpt>
      <trkpt lat="45.52462" lon="6.75395">
        <ele>2192.6</ele>
        <time>2021-08-03T08:30:53Z</time>
      </trkpt>
      <trkpt lat="45.52462" lon="6.75395">
        <ele>2192.7</ele>
        <time>2021-08-03T08:30:54Z</time>
      </trkpt>
      <trkpt lat="45.52462" lon="6.75395">
        <ele>2192.8</ele>
        <time>2021-08-03T08:30:55Z</time>
      </trkpt>
      <trkpt lat="45.52462" lon="6.75395">
        <ele>2192.9</ele>
        <time>2021-08-03T08:30:56Z</time>
      </trkpt>
      <trkpt lat="45.52461" lon="6.75395">
        <ele>2193.1</ele>
        <time>2021-08-03T08:30:57Z</time>
      </trkpt>
      <trkpt lat="45.52461" lon="6.75395">
        <ele>2193.1</ele>
        <time>2021-08-03T08:30:58Z</time>
      </trkpt>
      <trkpt lat="45.52461" lon="6.75395">
        <ele>2193.3</ele>
        <time>2021-08-03T08:30:59Z</time>
      </trkpt>
      <trkpt lat="45.5246" lon="6.75395">
        <ele>2193.4</ele>
        <time>2021-08-03T08:31:00Z</time>
      </trkpt>
      <trkpt lat="45.5246" lon="6.75394">
        <ele>2193.5</ele>
        <time>2021-08-03T08:31:01Z</time>
      </trkpt>
      <trkpt lat="45.5246" lon="6.75394">
        <ele>2193.7</ele>
        <time>2021-08-03T08:31:02Z</time>
      </trkpt>
      <trkpt lat="45.52459" lon="6.75394">
        <ele>2193.9</ele>
        <time>2021-08-03T08:31:03Z</time>
      </trkpt>
      <trkpt lat="45.52459" lon="6.75394">
        <ele>2194.1</ele>
        <time>2021-08-03T08:31:04Z</time>
      </trkpt>
      <trkpt lat="45.52458" lon="6.75394">
        <ele>2194.3</ele>
        <time>2021-08-03T08:31:05Z</time>
      </trkpt>
      <trkpt lat="45.52457" lon="6.75395">
        <ele>2194.7</ele>
        <time>2021-08-03T08:31:06Z</time>
      </trkpt>
      <trkpt lat="45.52456" lon="6.75395">
        <ele>2195</ele>
        <time>2021-08-03T08:31:07Z</time>
      </trkpt>
      <trkpt lat="45.52456" lon="6.75395">
        <ele>2195.3</ele>
        <time>2021-08-03T08:31:08Z</time>
      </trkpt>
      <trkpt lat="45.52455" lon="6.75395">
        <ele>2195.6</ele>
        <time>2021-08-03T08:31:09Z</time>
      </trkpt>
      <trkpt lat="45.52454" lon="6.75395">
        <ele>2196</ele>
        <time>2021-08-03T08:31:10Z</time>
      </trkpt>
      <trkpt lat="45.52453" lon="6.75395">
        <ele>2196.2</ele>
        <time>2021-08-03T08:31:11Z</time>
      </trkpt>
      <trkpt lat="45.52453" lon="6.75396">
        <ele>2196.5</ele>
        <time>2021-08-03T08:31:12Z</time>
      </trkpt>
      <trkpt lat="45.52452" lon="6.75396">
        <ele>2196.6</ele>
        <time>2021-08-03T08:31:13Z</time>
      </trkpt>
      <trkpt lat="45.52452" lon="6.75396">
        <ele>2196.7</ele>
        <time>2021-08-03T08:31:14Z</time>
      </trkpt>
      <trkpt lat="45.52452" lon="6.75396">
        <ele>2196.7</ele>
        <time>2021-08-03T08:31:15Z</time>
      </trkpt>
      <trkpt lat="45.52452" lon="6.75396">
        <ele>2196.7</ele>
        <time>2021-08-03T08:31:16Z</time>
      </trkpt>
      <trkpt lat="45.52452" lon="6.75396">
        <ele>2196.8</ele>
        <time>2021-08-03T08:31:17Z</time>
      </trkpt>
      <trkpt lat="45.52452" lon="6.75395">
        <ele>2196.9</ele>
        <time>2021-08-03T08:31:18Z</time>
      </trkpt>
      <trkpt lat="45.52452" lon="6.75395">
        <ele>2197</ele>
        <time>2021-08-03T08:31:19Z</time>
      </trkpt>
      <trkpt lat="45.52451" lon="6.75395">
        <ele>2197.2</ele>
        <time>2021-08-03T08:31:20Z</time>
      </trkpt>
      <trkpt lat="45.52451" lon="6.75395">
        <ele>2197.5</ele>
        <time>2021-08-03T08:31:21Z</time>
      </trkpt>
      <trkpt lat="45.5245" lon="6.75395">
        <ele>2197.7</ele>
        <time>2021-08-03T08:31:22Z</time>
      </trkpt>
      <trkpt lat="45.52449" lon="6.75394">
        <ele>2198</ele>
        <time>2021-08-03T08:31:23Z</time>
      </trkpt>
      <trkpt lat="45.52449" lon="6.75394">
        <ele>2198.2</ele>
        <time>2021-08-03T08:31:24Z</time>
      </trkpt>
      <trkpt lat="45.52448" lon="6.75394">
        <ele>2198.5</ele>
        <time>2021-08-03T08:31:25Z</time>
      </trkpt>
      <trkpt lat="45.52448" lon="6.75394">
        <ele>2198.7</ele>
        <time>2021-08-03T08:31:26Z</time>
      </trkpt>
      <trkpt lat="45.52447" lon="6.75393">
        <ele>2198.9</ele>
        <time>2021-08-03T08:31:27Z</time>
      </trkpt>
      <trkpt lat="45.52447" lon="6.75393">
        <ele>2199</ele>
        <time>2021-08-03T08:31:28Z</time>
      </trkpt>
      <trkpt lat="45.52447" lon="6.75393">
        <ele>2199.1</ele>
        <time>2021-08-03T08:31:29Z</time>
      </trkpt>
      <trkpt lat="45.52446" lon="6.75393">
        <ele>2199.2</ele>
        <time>2021-08-03T08:31:30Z</time>
      </trkpt>
      <trkpt lat="45.52446" lon="6.75393">
        <ele>2199.3</ele>
        <time>2021-08-03T08:31:31Z</time>
      </trkpt>
      <trkpt lat="45.52446" lon="6.75393">
        <ele>2199.4</ele>
        <time>2021-08-03T08:31:32Z</time>
      </trkpt>
      <trkpt lat="45.52446" lon="6.75393">
        <ele>2199.4</ele>
        <time>2021-08-03T08:31:33Z</time>
      </trkpt>
      <trkpt lat="45.52446" lon="6.75393">
        <ele>2199.5</ele>
        <time>2021-08-03T08:31:34Z</time>
      </trkpt>
      <trkpt lat="45.52446" lon="6.75393">
        <ele>2199.6</ele>
        <time>2021-08-03T08:31:35Z</time>
      </trkpt>
      <trkpt lat="45.52445" lon="6.75394">
        <ele>2199.7</ele>
        <time>2021-08-03T08:31:36Z</time>
      </trkpt>
      <trkpt lat="45.52445" lon="6.75394">
        <ele>2199.8</ele>
        <time>2021-08-03T08:31:37Z</time>
      </trkpt>
      <trkpt lat="45.52445" lon="6.75394">
        <ele>2199.9</ele>
        <time>2021-08-03T08:31:38Z</time>
      </trkpt>
      <trkpt lat="45.52444" lon="6.75394">
        <ele>2200.1</ele>
        <time>2021-08-03T08:31:39Z</time>
      </trkpt>
      <trkpt lat="45.52444" lon="6.75395">
        <ele>2200.3</ele>
        <time>2021-08-03T08:31:40Z</time>
      </trkpt>
      <trkpt lat="45.52444" lon="6.75395">
        <ele>2200.5</ele>
        <time>2021-08-03T08:31:41Z</time>
      </trkpt>
      <trkpt lat="45.52443" lon="6.75395">
        <ele>2200.7</ele>
        <time>2021-08-03T08:31:42Z</time>
      </trkpt>
      <trkpt lat="45.52442" lon="6.75395">
        <ele>2201</ele>
        <time>2021-08-03T08:31:43Z</time>
      </trkpt>
      <trkpt lat="45.52442" lon="6.75395">
        <ele>2201.2</ele>
        <time>2021-08-03T08:31:44Z</time>
      </trkpt>
      <trkpt lat="45.52441" lon="6.75395">
        <ele>2201.6</ele>
        <time>2021-08-03T08:31:45Z</time>
      </trkpt>
      <trkpt lat="45.5244" lon="6.75395">
        <ele>2201.9</ele>
        <time>2021-08-03T08:31:46Z</time>
      </trkpt>
      <trkpt lat="45.52439" lon="6.75395">
        <ele>2202.3</ele>
        <time>2021-08-03T08:31:47Z</time>
      </trkpt>
      <trkpt lat="45.52438" lon="6.75395">
        <ele>2202.7</ele>
        <time>2021-08-03T08:31:48Z</time>
      </trkpt>
      <trkpt lat="45.52437" lon="6.75395">
        <ele>2203</ele>
        <time>2021-08-03T08:31:49Z</time>
      </trkpt>
      <trkpt lat="45.52436" lon="6.75395">
        <ele>2203.4</ele>
        <time>2021-08-03T08:31:50Z</time>
      </trkpt>
      <trkpt lat="45.52436" lon="6.75394">
        <ele>2203.7</ele>
        <time>2021-08-03T08:31:51Z</time>
      </trkpt>
      <trkpt lat="45.52435" lon="6.75394">
        <ele>2204</ele>
        <time>2021-08-03T08:31:52Z</time>
      </trkpt>
      <trkpt lat="45.52434" lon="6.75394">
        <ele>2204.2</ele>
        <time>2021-08-03T08:31:53Z</time>
      </trkpt>
      <trkpt lat="45.52434" lon="6.75394">
        <ele>2204.3</ele>
        <time>2021-08-03T08:31:54Z</time>
      </trkpt>
      <trkpt lat="45.52434" lon="6.75394">
        <ele>2204.4</ele>
        <time>2021-08-03T08:31:55Z</time>
      </trkpt>
      <trkpt lat="45.52434" lon="6.75394">
        <ele>2204.5</ele>
        <time>2021-08-03T08:31:56Z</time>
      </trkpt>
      <trkpt lat="45.52433" lon="6.75394">
        <ele>2204.5</ele>
        <time>2021-08-03T08:31:57Z</time>
      </trkpt>
      <trkpt lat="45.52433" lon="6.75394">
        <ele>2204.6</ele>
        <time>2021-08-03T08:31:58Z</time>
      </trkpt>
      <trkpt lat="45.52433" lon="6.75394">
        <ele>2204.6</ele>
        <time>2021-08-03T08:31:59Z</time>
      </trkpt>
      <trkpt lat="45.52433" lon="6.75394">
        <ele>2204.6</ele>
        <time>2021-08-03T08:32:00Z</time>
      </trkpt>
      <trkpt lat="45.52433" lon="6.75394">
        <ele>2204.6</ele>
        <time>2021-08-03T08:32:01Z</time>
      </trkpt>
      <trkpt lat="45.52433" lon="6.75394">
        <ele>2204.6</ele>
        <time>2021-08-03T08:32:02Z</time>
      </trkpt>
      <trkpt lat="45.52433" lon="6.75394">
        <ele>2204.6</ele>
        <time>2021-08-03T08:32:03Z</time>
      </trkpt>
      <trkpt lat="45.52433" lon="6.75394">
        <ele>2204.6</ele>
        <time>2021-08-03T08:32:04Z</time>
      </trkpt>
      <trkpt lat="45.52433" lon="6.75394">
        <ele>2204.6</ele>
        <time>2021-08-03T08:32:05Z</time>
      </trkpt>
      <trkpt lat="45.52433" lon="6.75394">
        <ele>2204.6</ele>
        <time>2021-08-03T08:32:06Z</time>
      </trkpt>
      <trkpt lat="45.52433" lon="6.75394">
        <ele>2204.6</ele>
        <time>2021-08-03T08:32:07Z</time>
      </trkpt>
      <trkpt lat="45.52433" lon="6.75394">
        <ele>2204.6</ele>
        <time>2021-08-03T08:32:08Z</time>
      </trkpt>
      <trkpt lat="45.52433" lon="6.75394">
        <ele>2204.6</ele>
        <time>2021-08-03T08:32:09Z</time>
      </trkpt>
      <trkpt lat="45.52433" lon="6.75394">
        <ele>2204.6</ele>
        <time>2021-08-03T08:32:10Z</time>
      </trkpt>
      <trkpt lat="45.52433" lon="6.75394">
        <ele>2204.6</ele>
        <time>2021-08-03T08:32:11Z</time>
      </trkpt>
      <trkpt lat="45.52433" lon="6.75394">
        <ele>2204.6</ele>
        <time>2021-08-03T08:32:12Z</time>
      </trkpt>
      <trkpt lat="45.52433" lon="6.75394">
        <ele>2204.6</ele>
        <time>2021-08-03T08:32:13Z</time>
      </trkpt>
      <trkpt lat="45.52433" lon="6.75394">
        <ele>2204.6</ele>
        <time>2021-08-03T08:32:14Z</time>
      </trkpt>
      <trkpt lat="45.52433" lon="6.75394">
        <ele>2204.6</ele>
        <time>2021-08-03T08:32:15Z</time>
      </trkpt>
      <trkpt lat="45.52433" lon="6.75394">
        <ele>2204.6</ele>
        <time>2021-08-03T08:32:16Z</time>
      </trkpt>
      <trkpt lat="45.52433" lon="6.75394">
        <ele>2204.6</ele>
        <time>2021-08-03T08:32:17Z</time>
      </trkpt>
      <trkpt lat="45.52433" lon="6.75394">
        <ele>2204.6</ele>
        <time>2021-08-03T08:32:18Z</time>
      </trkpt>
      <trkpt lat="45.52433" lon="6.75394">
        <ele>2204.6</ele>
        <time>2021-08-03T08:32:19Z</time>
      </trkpt>
      <trkpt lat="45.52433" lon="6.75394">
        <ele>2204.6</ele>
        <time>2021-08-03T08:32:20Z</time>
      </trkpt>
      <trkpt lat="45.52433" lon="6.75394">
        <ele>2204.6</ele>
        <time>2021-08-03T08:32:21Z</time>
      </trkpt>
      <trkpt lat="45.52433" lon="6.75394">
        <ele>2204.6</ele>
        <time>2021-08-03T08:32:22Z</time>
      </trkpt>
      <trkpt lat="45.52433" lon="6.75394">
        <ele>2204.6</ele>
        <time>2021-08-03T08:32:23Z</time>
      </trkpt>
      <trkpt lat="45.52433" lon="6.75394">
        <ele>2204.6</ele>
        <time>2021-08-03T08:32:24Z</time>
      </trkpt>
      <trkpt lat="45.52433" lon="6.75394">
        <ele>2204.6</ele>
        <time>2021-08-03T08:32:25Z</time>
      </trkpt>
      <trkpt lat="45.52433" lon="6.75394">
        <ele>2204.6</ele>
        <time>2021-08-03T08:32:26Z</time>
      </trkpt>
      <trkpt lat="45.52433" lon="6.75394">
        <ele>2204.6</ele>
        <time>2021-08-03T08:32:27Z</time>
      </trkpt>
      <trkpt lat="45.52433" lon="6.75394">
        <ele>2204.6</ele>
        <time>2021-08-03T08:32:28Z</time>
      </trkpt>
      <trkpt lat="45.52433" lon="6.75394">
        <ele>2204.6</ele>
        <time>2021-08-03T08:32:29Z</time>
      </trkpt>
      <trkpt lat="45.52433" lon="6.75394">
        <ele>2204.6</ele>
        <time>2021-08-03T08:32:30Z</time>
      </trkpt>
      <trkpt lat="45.52433" lon="6.75394">
        <ele>2204.6</ele>
        <time>2021-08-03T08:32:31Z</time>
      </trkpt>
      <trkpt lat="45.52433" lon="6.75394">
        <ele>2204.6</ele>
        <time>2021-08-03T08:32:32Z</time>
      </trkpt>
      <trkpt lat="45.52433" lon="6.75394">
        <ele>2204.6</ele>
        <time>2021-08-03T08:32:33Z</time>
      </trkpt>
      <trkpt lat="45.52433" lon="6.75394">
        <ele>2204.7</ele>
        <time>2021-08-03T08:32:34Z</time>
      </trkpt>
      <trkpt lat="45.52433" lon="6.75393">
        <ele>2204.8</ele>
        <time>2021-08-03T08:32:35Z</time>
      </trkpt>
      <trkpt lat="45.52432" lon="6.75393">
        <ele>2205.1</ele>
        <time>2021-08-03T08:32:36Z</time>
      </trkpt>
      <trkpt lat="45.52431" lon="6.75393">
        <ele>2205.4</ele>
        <time>2021-08-03T08:32:37Z</time>
      </trkpt>
      <trkpt lat="45.52431" lon="6.75392">
        <ele>2205.8</ele>
        <time>2021-08-03T08:32:38Z</time>
      </trkpt>
      <trkpt lat="45.5243" lon="6.75392">
        <ele>2206.1</ele>
        <time>2021-08-03T08:32:39Z</time>
      </trkpt>
      <trkpt lat="45.52429" lon="6.75391">
        <ele>2206.5</ele>
        <time>2021-08-03T08:32:40Z</time>
      </trkpt>
      <trkpt lat="45.52428" lon="6.75391">
        <ele>2206.8</ele>
        <time>2021-08-03T08:32:41Z</time>
      </trkpt>
      <trkpt lat="45.52427" lon="6.75391">
        <ele>2207.1</ele>
        <time>2021-08-03T08:32:42Z</time>
      </trkpt>
      <trkpt lat="45.52427" lon="6.75391">
        <ele>2207.4</ele>
        <time>2021-08-03T08:32:43Z</time>
      </trkpt>
      <trkpt lat="45.52426" lon="6.75391">
        <ele>2207.7</ele>
        <time>2021-08-03T08:32:44Z</time>
      </trkpt>
      <trkpt lat="45.52425" lon="6.75391">
        <ele>2208</ele>
        <time>2021-08-03T08:32:45Z</time>
      </trkpt>
      <trkpt lat="45.52424" lon="6.75392">
        <ele>2208.3</ele>
        <time>2021-08-03T08:32:46Z</time>
      </trkpt>
      <trkpt lat="45.52424" lon="6.75392">
        <ele>2208.6</ele>
        <time>2021-08-03T08:32:47Z</time>
      </trkpt>
      <trkpt lat="45.52423" lon="6.75392">
        <ele>2208.8</ele>
        <time>2021-08-03T08:32:48Z</time>
      </trkpt>
      <trkpt lat="45.52423" lon="6.75393">
        <ele>2209.1</ele>
        <time>2021-08-03T08:32:49Z</time>
      </trkpt>
      <trkpt lat="45.52422" lon="6.75393">
        <ele>2209.4</ele>
        <time>2021-08-03T08:32:50Z</time>
      </trkpt>
      <trkpt lat="45.52421" lon="6.75394">
        <ele>2209.6</ele>
        <time>2021-08-03T08:32:51Z</time>
      </trkpt>
      <trkpt lat="45.52421" lon="6.75394">
        <ele>2209.9</ele>
        <time>2021-08-03T08:32:52Z</time>
      </trkpt>
      <trkpt lat="45.5242" lon="6.75395">
        <ele>2210.1</ele>
        <time>2021-08-03T08:32:53Z</time>
      </trkpt>
      <trkpt lat="45.5242" lon="6.75395">
        <ele>2210.4</ele>
        <time>2021-08-03T08:32:54Z</time>
      </trkpt>
      <trkpt lat="45.52419" lon="6.75395">
        <ele>2210.6</ele>
        <time>2021-08-03T08:32:55Z</time>
      </trkpt>
      <trkpt lat="45.52419" lon="6.75396">
        <ele>2210.9</ele>
        <time>2021-08-03T08:32:56Z</time>
      </trkpt>
      <trkpt lat="45.52418" lon="6.75396">
        <ele>2211.1</ele>
        <time>2021-08-03T08:32:57Z</time>
      </trkpt>
      <trkpt lat="45.52417" lon="6.75396">
        <ele>2211.4</ele>
        <time>2021-08-03T08:32:58Z</time>
      </trkpt>
      <trkpt lat="45.52417" lon="6.75396">
        <ele>2211.7</ele>
        <time>2021-08-03T08:32:59Z</time>
      </trkpt>
      <trkpt lat="45.52416" lon="6.75396">
        <ele>2211.9</ele>
        <time>2021-08-03T08:33:00Z</time>
      </trkpt>
      <trkpt lat="45.52415" lon="6.75396">
        <ele>2212.2</ele>
        <time>2021-08-03T08:33:01Z</time>
      </trkpt>
      <trkpt lat="45.52415" lon="6.75396">
        <ele>2212.4</ele>
        <time>2021-08-03T08:33:02Z</time>
      </trkpt>
      <trkpt lat="45.52414" lon="6.75396">
        <ele>2212.6</ele>
        <time>2021-08-03T08:33:03Z</time>
      </trkpt>
      <trkpt lat="45.52414" lon="6.75396">
        <ele>2212.8</ele>
        <time>2021-08-03T08:33:04Z</time>
      </trkpt>
      <trkpt lat="45.52413" lon="6.75396">
        <ele>2212.9</ele>
        <time>2021-08-03T08:33:05Z</time>
      </trkpt>
      <trkpt lat="45.52413" lon="6.75396">
        <ele>2213.1</ele>
        <time>2021-08-03T08:33:06Z</time>
      </trkpt>
      <trkpt lat="45.52413" lon="6.75396">
        <ele>2213.2</ele>
        <time>2021-08-03T08:33:07Z</time>
      </trkpt>
      <trkpt lat="45.52413" lon="6.75396">
        <ele>2213.3</ele>
        <time>2021-08-03T08:33:08Z</time>
      </trkpt>
      <trkpt lat="45.52412" lon="6.75396">
        <ele>2213.3</ele>
        <time>2021-08-03T08:33:09Z</time>
      </trkpt>
      <trkpt lat="45.52412" lon="6.75396">
        <ele>2213.4</ele>
        <time>2021-08-03T08:33:10Z</time>
      </trkpt>
      <trkpt lat="45.52412" lon="6.75396">
        <ele>2213.5</ele>
        <time>2021-08-03T08:33:11Z</time>
      </trkpt>
      <trkpt lat="45.52412" lon="6.75396">
        <ele>2213.5</ele>
        <time>2021-08-03T08:33:12Z</time>
      </trkpt>
      <trkpt lat="45.52412" lon="6.75396">
        <ele>2213.5</ele>
        <time>2021-08-03T08:33:13Z</time>
      </trkpt>
      <trkpt lat="45.52412" lon="6.75396">
        <ele>2213.6</ele>
        <time>2021-08-03T08:33:14Z</time>
      </trkpt>
      <trkpt lat="45.52412" lon="6.75396">
        <ele>2213.6</ele>
        <time>2021-08-03T08:33:15Z</time>
      </trkpt>
      <trkpt lat="45.52412" lon="6.75396">
        <ele>2213.6</ele>
        <time>2021-08-03T08:33:16Z</time>
      </trkpt>
      <trkpt lat="45.52412" lon="6.75396">
        <ele>2213.6</ele>
        <time>2021-08-03T08:33:17Z</time>
      </trkpt>
      <trkpt lat="45.52412" lon="6.75396">
        <ele>2213.6</ele>
        <time>2021-08-03T08:33:18Z</time>
      </trkpt>
      <trkpt lat="45.52412" lon="6.75396">
        <ele>2213.6</ele>
        <time>2021-08-03T08:33:19Z</time>
      </trkpt>
      <trkpt lat="45.52412" lon="6.75396">
        <ele>2213.6</ele>
        <time>2021-08-03T08:33:20Z</time>
      </trkpt>
      <trkpt lat="45.52412" lon="6.75396">
        <ele>2213.6</ele>
        <time>2021-08-03T08:33:21Z</time>
      </trkpt>
      <trkpt lat="45.52412" lon="6.75396">
        <ele>2213.6</ele>
        <time>2021-08-03T08:33:22Z</time>
      </trkpt>
      <trkpt lat="45.52412" lon="6.75396">
        <ele>2213.6</ele>
        <time>2021-08-03T08:33:23Z</time>
      </trkpt>
      <trkpt lat="45.52412" lon="6.75396">
        <ele>2213.6</ele>
        <time>2021-08-03T08:33:24Z</time>
      </trkpt>
      <trkpt lat="45.52412" lon="6.75396">
        <ele>2213.6</ele>
        <time>2021-08-03T08:33:25Z</time>
      </trkpt>
      <trkpt lat="45.52412" lon="6.75396">
        <ele>2213.7</ele>
        <time>2021-08-03T08:33:26Z</time>
      </trkpt>
      <trkpt lat="45.52412" lon="6.75396">
        <ele>2213.7</ele>
        <time>2021-08-03T08:33:27Z</time>
      </trkpt>
      <trkpt lat="45.52412" lon="6.75396">
        <ele>2213.7</ele>
        <time>2021-08-03T08:33:28Z</time>
      </trkpt>
      <trkpt lat="45.52412" lon="6.75396">
        <ele>2213.7</ele>
        <time>2021-08-03T08:33:29Z</time>
      </trkpt>
      <trkpt lat="45.52412" lon="6.75396">
        <ele>2213.7</ele>
        <time>2021-08-03T08:33:30Z</time>
      </trkpt>
      <trkpt lat="45.52412" lon="6.75396">
        <ele>2213.7</ele>
        <time>2021-08-03T08:33:31Z</time>
      </trkpt>
      <trkpt lat="45.52412" lon="6.75396">
        <ele>2213.7</ele>
        <time>2021-08-03T08:33:32Z</time>
      </trkpt>
      <trkpt lat="45.52412" lon="6.75396">
        <ele>2213.7</ele>
        <time>2021-08-03T08:33:33Z</time>
      </trkpt>
      <trkpt lat="45.52412" lon="6.75396">
        <ele>2213.7</ele>
        <time>2021-08-03T08:33:34Z</time>
      </trkpt>
      <trkpt lat="45.52412" lon="6.75396">
        <ele>2213.7</ele>
        <time>2021-08-03T08:33:35Z</time>
      </trkpt>
      <trkpt lat="45.52412" lon="6.75396">
        <ele>2213.7</ele>
        <time>2021-08-03T08:33:36Z</time>
      </trkpt>
      <trkpt lat="45.52412" lon="6.75396">
        <ele>2213.7</ele>
        <time>2021-08-03T08:33:37Z</time>
      </trkpt>
      <trkpt lat="45.52412" lon="6.75396">
        <ele>2213.7</ele>
        <time>2021-08-03T08:33:38Z</time>
      </trkpt>
      <trkpt lat="45.52412" lon="6.75396">
        <ele>2213.7</ele>
        <time>2021-08-03T08:33:39Z</time>
      </trkpt>
      <trkpt lat="45.52412" lon="6.75396">
        <ele>2213.7</ele>
        <time>2021-08-03T08:33:40Z</time>
      </trkpt>
      <trkpt lat="45.52412" lon="6.75396">
        <ele>2213.7</ele>
        <time>2021-08-03T08:33:41Z</time>
      </trkpt>
      <trkpt lat="45.52412" lon="6.75396">
        <ele>2213.7</ele>
        <time>2021-08-03T08:33:42Z</time>
      </trkpt>
      <trkpt lat="45.52412" lon="6.75396">
        <ele>2213.7</ele>
        <time>2021-08-03T08:33:43Z</time>
      </trkpt>
      <trkpt lat="45.52412" lon="6.75396">
        <ele>2213.7</ele>
        <time>2021-08-03T08:33:44Z</time>
      </trkpt>
      <trkpt lat="45.52412" lon="6.75396">
        <ele>2213.7</ele>
        <time>2021-08-03T08:33:45Z</time>
      </trkpt>
      <trkpt lat="45.52412" lon="6.75396">
        <ele>2213.7</ele>
        <time>2021-08-03T08:33:46Z</time>
      </trkpt>
      <trkpt lat="45.52412" lon="6.75396">
        <ele>2213.7</ele>
        <time>2021-08-03T08:33:47Z</time>
      </trkpt>
      <trkpt lat="45.52412" lon="6.75396">
        <ele>2213.7</ele>
        <time>2021-08-03T08:33:48Z</time>
      </trkpt>
      <trkpt lat="45.52412" lon="6.75396">
        <ele>2213.7</ele>
        <time>2021-08-03T08:33:49Z</time>
      </trkpt>
      <trkpt lat="45.52412" lon="6.75396">
        <ele>2213.7</ele>
        <time>2021-08-03T08:33:50Z</time>
      </trkpt>
      <trkpt lat="45.52412" lon="6.75396">
        <ele>2213.8</ele>
        <time>2021-08-03T08:33:51Z</time>
      </trkpt>
      <trkpt lat="45.52412" lon="6.75396">
        <ele>2213.8</ele>
        <time>2021-08-03T08:33:52Z</time>
      </trkpt>
      <trkpt lat="45.52412" lon="6.75396">
        <ele>2213.8</ele>
        <time>2021-08-03T08:33:53Z</time>
      </trkpt>
      <trkpt lat="45.52412" lon="6.75396">
        <ele>2213.8</ele>
        <time>2021-08-03T08:33:54Z</time>
      </trkpt>
      <trkpt lat="45.52412" lon="6.75396">
        <ele>2213.8</ele>
        <time>2021-08-03T08:33:55Z</time>
      </trkpt>
      <trkpt lat="45.52412" lon="6.75395">
        <ele>2213.8</ele>
        <time>2021-08-03T08:33:56Z</time>
      </trkpt>
      <trkpt lat="45.52412" lon="6.75395">
        <ele>2213.9</ele>
        <time>2021-08-03T08:33:57Z</time>
      </trkpt>
      <trkpt lat="45.52412" lon="6.75395">
        <ele>2214</ele>
        <time>2021-08-03T08:33:58Z</time>
      </trkpt>
      <trkpt lat="45.52411" lon="6.75395">
        <ele>2214.1</ele>
        <time>2021-08-03T08:33:59Z</time>
      </trkpt>
      <trkpt lat="45.52411" lon="6.75395">
        <ele>2214.4</ele>
        <time>2021-08-03T08:34:00Z</time>
      </trkpt>
      <trkpt lat="45.5241" lon="6.75395">
        <ele>2214.7</ele>
        <time>2021-08-03T08:34:01Z</time>
      </trkpt>
      <trkpt lat="45.52409" lon="6.75395">
        <ele>2215</ele>
        <time>2021-08-03T08:34:02Z</time>
      </trkpt>
      <trkpt lat="45.52408" lon="6.75395">
        <ele>2215.3</ele>
        <time>2021-08-03T08:34:03Z</time>
      </trkpt>
      <trkpt lat="45.52408" lon="6.75395">
        <ele>2215.5</ele>
        <time>2021-08-03T08:34:04Z</time>
      </trkpt>
      <trkpt lat="45.52407" lon="6.75395">
        <ele>2215.7</ele>
        <time>2021-08-03T08:34:05Z</time>
      </trkpt>
      <trkpt lat="45.52407" lon="6.75395">
        <ele>2215.8</ele>
        <time>2021-08-03T08:34:06Z</time>
      </trkpt>
      <trkpt lat="45.52407" lon="6.75395">
        <ele>2216</ele>
        <time>2021-08-03T08:34:07Z</time>
      </trkpt>
      <trkpt lat="45.52406" lon="6.75394">
        <ele>2216.1</ele>
        <time>2021-08-03T08:34:08Z</time>
      </trkpt>
      <trkpt lat="45.52406" lon="6.75394">
        <ele>2216.3</ele>
        <time>2021-08-03T08:34:09Z</time>
      </trkpt>
      <trkpt lat="45.52405" lon="6.75394">
        <ele>2216.6</ele>
        <time>2021-08-03T08:34:10Z</time>
      </trkpt>
      <trkpt lat="45.52405" lon="6.75393">
        <ele>2216.8</ele>
        <time>2021-08-03T08:34:11Z</time>
      </trkpt>
      <trkpt lat="45.52404" lon="6.75393">
        <ele>2217</ele>
        <time>2021-08-03T08:34:12Z</time>
      </trkpt>
      <trkpt lat="45.52404" lon="6.75393">
        <ele>2217.3</ele>
        <time>2021-08-03T08:34:13Z</time>
      </trkpt>
      <trkpt lat="45.52403" lon="6.75393">
        <ele>2217.5</ele>
        <time>2021-08-03T08:34:14Z</time>
      </trkpt>
      <trkpt lat="45.52402" lon="6.75392">
        <ele>2217.8</ele>
        <time>2021-08-03T08:34:15Z</time>
      </trkpt>
      <trkpt lat="45.52402" lon="6.75393">
        <ele>2218</ele>
        <time>2021-08-03T08:34:16Z</time>
      </trkpt>
      <trkpt lat="45.52401" lon="6.75393">
        <ele>2218.3</ele>
        <time>2021-08-03T08:34:17Z</time>
      </trkpt>
      <trkpt lat="45.52401" lon="6.75393">
        <ele>2218.5</ele>
        <time>2021-08-03T08:34:18Z</time>
      </trkpt>
      <trkpt lat="45.524" lon="6.75393">
        <ele>2218.7</ele>
        <time>2021-08-03T08:34:19Z</time>
      </trkpt>
      <trkpt lat="45.524" lon="6.75394">
        <ele>2219</ele>
        <time>2021-08-03T08:34:20Z</time>
      </trkpt>
      <trkpt lat="45.52399" lon="6.75394">
        <ele>2219.2</ele>
        <time>2021-08-03T08:34:21Z</time>
      </trkpt>
      <trkpt lat="45.52398" lon="6.75394">
        <ele>2219.5</ele>
        <time>2021-08-03T08:34:22Z</time>
      </trkpt>
      <trkpt lat="45.52398" lon="6.75395">
        <ele>2219.8</ele>
        <time>2021-08-03T08:34:23Z</time>
      </trkpt>
      <trkpt lat="45.52397" lon="6.75395">
        <ele>2220.1</ele>
        <time>2021-08-03T08:34:24Z</time>
      </trkpt>
      <trkpt lat="45.52396" lon="6.75395">
        <ele>2220.4</ele>
        <time>2021-08-03T08:34:25Z</time>
      </trkpt>
      <trkpt lat="45.52396" lon="6.75396">
        <ele>2220.7</ele>
        <time>2021-08-03T08:34:26Z</time>
      </trkpt>
      <trkpt lat="45.52395" lon="6.75396">
        <ele>2221</ele>
        <time>2021-08-03T08:34:27Z</time>
      </trkpt>
      <trkpt lat="45.52394" lon="6.75396">
        <ele>2221.3</ele>
        <time>2021-08-03T08:34:28Z</time>
      </trkpt>
      <trkpt lat="45.52393" lon="6.75397">
        <ele>2221.6</ele>
        <time>2021-08-03T08:34:29Z</time>
      </trkpt>
      <trkpt lat="45.52393" lon="6.75397">
        <ele>2221.9</ele>
        <time>2021-08-03T08:34:30Z</time>
      </trkpt>
      <trkpt lat="45.52392" lon="6.75397">
        <ele>2222.1</ele>
        <time>2021-08-03T08:34:31Z</time>
      </trkpt>
      <trkpt lat="45.52391" lon="6.75397">
        <ele>2222.4</ele>
        <time>2021-08-03T08:34:32Z</time>
      </trkpt>
      <trkpt lat="45.52391" lon="6.75398">
        <ele>2222.6</ele>
        <time>2021-08-03T08:34:33Z</time>
      </trkpt>
      <trkpt lat="45.5239" lon="6.75398">
        <ele>2222.9</ele>
        <time>2021-08-03T08:34:34Z</time>
      </trkpt>
      <trkpt lat="45.5239" lon="6.75398">
        <ele>2223.1</ele>
        <time>2021-08-03T08:34:35Z</time>
      </trkpt>
      <trkpt lat="45.52389" lon="6.75398">
        <ele>2223.3</ele>
        <time>2021-08-03T08:34:36Z</time>
      </trkpt>
      <trkpt lat="45.52389" lon="6.75398">
        <ele>2223.5</ele>
        <time>2021-08-03T08:34:37Z</time>
      </trkpt>
      <trkpt lat="45.52388" lon="6.75398">
        <ele>2223.7</ele>
        <time>2021-08-03T08:34:38Z</time>
      </trkpt>
      <trkpt lat="45.52388" lon="6.75398">
        <ele>2223.9</ele>
        <time>2021-08-03T08:34:39Z</time>
      </trkpt>
      <trkpt lat="45.52387" lon="6.75398">
        <ele>2224.1</ele>
        <time>2021-08-03T08:34:40Z</time>
      </trkpt>
      <trkpt lat="45.52387" lon="6.75398">
        <ele>2224.3</ele>
        <time>2021-08-03T08:34:41Z</time>
      </trkpt>
      <trkpt lat="45.52386" lon="6.75397">
        <ele>2224.5</ele>
        <time>2021-08-03T08:34:42Z</time>
      </trkpt>
      <trkpt lat="45.52386" lon="6.75397">
        <ele>2224.7</ele>
        <time>2021-08-03T08:34:43Z</time>
      </trkpt>
      <trkpt lat="45.52385" lon="6.75397">
        <ele>2224.9</ele>
        <time>2021-08-03T08:34:44Z</time>
      </trkpt>
      <trkpt lat="45.52385" lon="6.75396">
        <ele>2225.1</ele>
        <time>2021-08-03T08:34:45Z</time>
      </trkpt>
      <trkpt lat="45.52384" lon="6.75396">
        <ele>2225.3</ele>
        <time>2021-08-03T08:34:46Z</time>
      </trkpt>
      <trkpt lat="45.52384" lon="6.75396">
        <ele>2225.5</ele>
        <time>2021-08-03T08:34:47Z</time>
      </trkpt>
      <trkpt lat="45.52384" lon="6.75396">
        <ele>2225.6</ele>
        <time>2021-08-03T08:34:48Z</time>
      </trkpt>
      <trkpt lat="45.52383" lon="6.75396">
        <ele>2225.8</ele>
        <time>2021-08-03T08:34:49Z</time>
      </trkpt>
      <trkpt lat="45.52383" lon="6.75396">
        <ele>2225.9</ele>
        <time>2021-08-03T08:34:50Z</time>
      </trkpt>
      <trkpt lat="45.52383" lon="6.75396">
        <ele>2226</ele>
        <time>2021-08-03T08:34:51Z</time>
      </trkpt>
      <trkpt lat="45.52383" lon="6.75396">
        <ele>2226.1</ele>
        <time>2021-08-03T08:34:52Z</time>
      </trkpt>
      <trkpt lat="45.52382" lon="6.75396">
        <ele>2226.2</ele>
        <time>2021-08-03T08:34:53Z</time>
      </trkpt>
      <trkpt lat="45.52382" lon="6.75396">
        <ele>2226.2</ele>
        <time>2021-08-03T08:34:54Z</time>
      </trkpt>
      <trkpt lat="45.52382" lon="6.75396">
        <ele>2226.3</ele>
        <time>2021-08-03T08:34:55Z</time>
      </trkpt>
      <trkpt lat="45.52382" lon="6.75396">
        <ele>2226.3</ele>
        <time>2021-08-03T08:34:56Z</time>
      </trkpt>
      <trkpt lat="45.52382" lon="6.75396">
        <ele>2226.3</ele>
        <time>2021-08-03T08:34:57Z</time>
      </trkpt>
      <trkpt lat="45.52382" lon="6.75396">
        <ele>2226.3</ele>
        <time>2021-08-03T08:34:58Z</time>
      </trkpt>
      <trkpt lat="45.52382" lon="6.75396">
        <ele>2226.3</ele>
        <time>2021-08-03T08:34:59Z</time>
      </trkpt>
      <trkpt lat="45.52382" lon="6.75396">
        <ele>2226.3</ele>
        <time>2021-08-03T08:35:00Z</time>
      </trkpt>
      <trkpt lat="45.52382" lon="6.75396">
        <ele>2226.3</ele>
        <time>2021-08-03T08:35:01Z</time>
      </trkpt>
      <trkpt lat="45.52382" lon="6.75396">
        <ele>2226.3</ele>
        <time>2021-08-03T08:35:02Z</time>
      </trkpt>
      <trkpt lat="45.52382" lon="6.75396">
        <ele>2226.4</ele>
        <time>2021-08-03T08:35:03Z</time>
      </trkpt>
      <trkpt lat="45.52382" lon="6.75396">
        <ele>2226.4</ele>
        <time>2021-08-03T08:35:04Z</time>
      </trkpt>
      <trkpt lat="45.52382" lon="6.75396">
        <ele>2226.4</ele>
        <time>2021-08-03T08:35:05Z</time>
      </trkpt>
      <trkpt lat="45.52382" lon="6.75396">
        <ele>2226.5</ele>
        <time>2021-08-03T08:35:06Z</time>
      </trkpt>
      <trkpt lat="45.52382" lon="6.75396">
        <ele>2226.5</ele>
        <time>2021-08-03T08:35:07Z</time>
      </trkpt>
      <trkpt lat="45.52382" lon="6.75396">
        <ele>2226.6</ele>
        <time>2021-08-03T08:35:08Z</time>
      </trkpt>
      <trkpt lat="45.52381" lon="6.75397">
        <ele>2226.7</ele>
        <time>2021-08-03T08:35:09Z</time>
      </trkpt>
      <trkpt lat="45.52381" lon="6.75397">
        <ele>2226.8</ele>
        <time>2021-08-03T08:35:10Z</time>
      </trkpt>
      <trkpt lat="45.52381" lon="6.75397">
        <ele>2226.8</ele>
        <time>2021-08-03T08:35:11Z</time>
      </trkpt>
      <trkpt lat="45.52381" lon="6.75397">
        <ele>2226.9</ele>
        <time>2021-08-03T08:35:12Z</time>
      </trkpt>
      <trkpt lat="45.52381" lon="6.75397">
        <ele>2227</ele>
        <time>2021-08-03T08:35:13Z</time>
      </trkpt>
      <trkpt lat="45.5238" lon="6.75398">
        <ele>2227.1</ele>
        <time>2021-08-03T08:35:14Z</time>
      </trkpt>
      <trkpt lat="45.5238" lon="6.75398">
        <ele>2227.3</ele>
        <time>2021-08-03T08:35:15Z</time>
      </trkpt>
      <trkpt lat="45.5238" lon="6.75398">
        <ele>2227.4</ele>
        <time>2021-08-03T08:35:16Z</time>
      </trkpt>
      <trkpt lat="45.5238" lon="6.75399">
        <ele>2227.6</ele>
        <time>2021-08-03T08:35:17Z</time>
      </trkpt>
      <trkpt lat="45.5238" lon="6.75399">
        <ele>2227.7</ele>
        <time>2021-08-03T08:35:18Z</time>
      </trkpt>
      <trkpt lat="45.5238" lon="6.754">
        <ele>2227.9</ele>
        <time>2021-08-03T08:35:19Z</time>
      </trkpt>
      <trkpt lat="45.5238" lon="6.75401">
        <ele>2228.1</ele>
        <time>2021-08-03T08:35:20Z</time>
      </trkpt>
      <trkpt lat="45.5238" lon="6.75401">
        <ele>2228.3</ele>
        <time>2021-08-03T08:35:21Z</time>
      </trkpt>
      <trkpt lat="45.5238" lon="6.75402">
        <ele>2228.5</ele>
        <time>2021-08-03T08:35:22Z</time>
      </trkpt>
      <trkpt lat="45.5238" lon="6.75403">
        <ele>2228.8</ele>
        <time>2021-08-03T08:35:23Z</time>
      </trkpt>
      <trkpt lat="45.5238" lon="6.75404">
        <ele>2229</ele>
        <time>2021-08-03T08:35:24Z</time>
      </trkpt>
      <trkpt lat="45.5238" lon="6.75404">
        <ele>2229.2</ele>
        <time>2021-08-03T08:35:25Z</time>
      </trkpt>
      <trkpt lat="45.5238" lon="6.75405">
        <ele>2229.3</ele>
        <time>2021-08-03T08:35:26Z</time>
      </trkpt>
      <trkpt lat="45.5238" lon="6.75405">
        <ele>2229.4</ele>
        <time>2021-08-03T08:35:27Z</time>
      </trkpt>
      <trkpt lat="45.52379" lon="6.75406">
        <ele>2229.6</ele>
        <time>2021-08-03T08:35:28Z</time>
      </trkpt>
      <trkpt lat="45.52379" lon="6.75406">
        <ele>2229.6</ele>
        <time>2021-08-03T08:35:29Z</time>
      </trkpt>
      <trkpt lat="45.52379" lon="6.75406">
        <ele>2229.7</ele>
        <time>2021-08-03T08:35:30Z</time>
      </trkpt>
      <trkpt lat="45.52379" lon="6.75407">
        <ele>2229.8</ele>
        <time>2021-08-03T08:35:31Z</time>
      </trkpt>
      <trkpt lat="45.52379" lon="6.75407">
        <ele>2229.8</ele>
        <time>2021-08-03T08:35:32Z</time>
      </trkpt>
      <trkpt lat="45.52379" lon="6.75407">
        <ele>2229.9</ele>
        <time>2021-08-03T08:35:33Z</time>
      </trkpt>
      <trkpt lat="45.52379" lon="6.75407">
        <ele>2229.9</ele>
        <time>2021-08-03T08:35:34Z</time>
      </trkpt>
      <trkpt lat="45.52379" lon="6.75407">
        <ele>2230</ele>
        <time>2021-08-03T08:35:35Z</time>
      </trkpt>
      <trkpt lat="45.52379" lon="6.75407">
        <ele>2230.1</ele>
        <time>2021-08-03T08:35:36Z</time>
      </trkpt>
      <trkpt lat="45.52379" lon="6.75407">
        <ele>2230.2</ele>
        <time>2021-08-03T08:35:37Z</time>
      </trkpt>
      <trkpt lat="45.52378" lon="6.75407">
        <ele>2230.2</ele>
        <time>2021-08-03T08:35:38Z</time>
      </trkpt>
      <trkpt lat="45.52378" lon="6.75407">
        <ele>2230.3</ele>
        <time>2021-08-03T08:35:39Z</time>
      </trkpt>
      <trkpt lat="45.52378" lon="6.75407">
        <ele>2230.5</ele>
        <time>2021-08-03T08:35:40Z</time>
      </trkpt>
      <trkpt lat="45.52377" lon="6.75408">
        <ele>2230.6</ele>
        <time>2021-08-03T08:35:41Z</time>
      </trkpt>
      <trkpt lat="45.52377" lon="6.75408">
        <ele>2230.8</ele>
        <time>2021-08-03T08:35:42Z</time>
      </trkpt>
      <trkpt lat="45.52377" lon="6.75408">
        <ele>2231</ele>
        <time>2021-08-03T08:35:43Z</time>
      </trkpt>
      <trkpt lat="45.52376" lon="6.75408">
        <ele>2231.2</ele>
        <time>2021-08-03T08:35:44Z</time>
      </trkpt>
      <trkpt lat="45.52376" lon="6.75409">
        <ele>2231.3</ele>
        <time>2021-08-03T08:35:45Z</time>
      </trkpt>
      <trkpt lat="45.52375" lon="6.75409">
        <ele>2231.5</ele>
        <time>2021-08-03T08:35:46Z</time>
      </trkpt>
      <trkpt lat="45.52375" lon="6.75409">
        <ele>2231.7</ele>
        <time>2021-08-03T08:35:47Z</time>
      </trkpt>
      <trkpt lat="45.52375" lon="6.7541">
        <ele>2231.9</ele>
        <time>2021-08-03T08:35:48Z</time>
      </trkpt>
      <trkpt lat="45.52374" lon="6.7541">
        <ele>2232</ele>
        <time>2021-08-03T08:35:49Z</time>
      </trkpt>
      <trkpt lat="45.52374" lon="6.7541">
        <ele>2232.1</ele>
        <time>2021-08-03T08:35:50Z</time>
      </trkpt>
      <trkpt lat="45.52374" lon="6.7541">
        <ele>2232.3</ele>
        <time>2021-08-03T08:35:51Z</time>
      </trkpt>
      <trkpt lat="45.52374" lon="6.7541">
        <ele>2232.3</ele>
        <time>2021-08-03T08:35:52Z</time>
      </trkpt>
      <trkpt lat="45.52373" lon="6.7541">
        <ele>2232.4</ele>
        <time>2021-08-03T08:35:53Z</time>
      </trkpt>
      <trkpt lat="45.52373" lon="6.7541">
        <ele>2232.5</ele>
        <time>2021-08-03T08:35:54Z</time>
      </trkpt>
      <trkpt lat="45.52373" lon="6.7541">
        <ele>2232.5</ele>
        <time>2021-08-03T08:35:55Z</time>
      </trkpt>
      <trkpt lat="45.52373" lon="6.7541">
        <ele>2232.5</ele>
        <time>2021-08-03T08:35:56Z</time>
      </trkpt>
      <trkpt lat="45.52373" lon="6.7541">
        <ele>2232.6</ele>
        <time>2021-08-03T08:35:57Z</time>
      </trkpt>
      <trkpt lat="45.52373" lon="6.7541">
        <ele>2232.7</ele>
        <time>2021-08-03T08:35:58Z</time>
      </trkpt>
      <trkpt lat="45.52373" lon="6.75411">
        <ele>2232.8</ele>
        <time>2021-08-03T08:35:59Z</time>
      </trkpt>
      <trkpt lat="45.52373" lon="6.75411">
        <ele>2232.9</ele>
        <time>2021-08-03T08:36:00Z</time>
      </trkpt>
      <trkpt lat="45.52373" lon="6.75411">
        <ele>2233</ele>
        <time>2021-08-03T08:36:01Z</time>
      </trkpt>
      <trkpt lat="45.52373" lon="6.75412">
        <ele>2233.1</ele>
        <time>2021-08-03T08:36:02Z</time>
      </trkpt>
      <trkpt lat="45.52373" lon="6.75412">
        <ele>2233.2</ele>
        <time>2021-08-03T08:36:03Z</time>
      </trkpt>
      <trkpt lat="45.52373" lon="6.75413">
        <ele>2233.4</ele>
        <time>2021-08-03T08:36:04Z</time>
      </trkpt>
      <trkpt lat="45.52372" lon="6.75413">
        <ele>2233.5</ele>
        <time>2021-08-03T08:36:05Z</time>
      </trkpt>
      <trkpt lat="45.52372" lon="6.75413">
        <ele>2233.7</ele>
        <time>2021-08-03T08:36:06Z</time>
      </trkpt>
      <trkpt lat="45.52372" lon="6.75414">
        <ele>2233.8</ele>
        <time>2021-08-03T08:36:07Z</time>
      </trkpt>
      <trkpt lat="45.52371" lon="6.75414">
        <ele>2234.1</ele>
        <time>2021-08-03T08:36:08Z</time>
      </trkpt>
      <trkpt lat="45.52371" lon="6.75414">
        <ele>2234.3</ele>
        <time>2021-08-03T08:36:09Z</time>
      </trkpt>
      <trkpt lat="45.5237" lon="6.75414">
        <ele>2234.5</ele>
        <time>2021-08-03T08:36:10Z</time>
      </trkpt>
      <trkpt lat="45.5237" lon="6.75415">
        <ele>2234.7</ele>
        <time>2021-08-03T08:36:11Z</time>
      </trkpt>
      <trkpt lat="45.52369" lon="6.75415">
        <ele>2234.9</ele>
        <time>2021-08-03T08:36:12Z</time>
      </trkpt>
      <trkpt lat="45.52369" lon="6.75415">
        <ele>2235.2</ele>
        <time>2021-08-03T08:36:13Z</time>
      </trkpt>
      <trkpt lat="45.52368" lon="6.75416">
        <ele>2235.4</ele>
        <time>2021-08-03T08:36:14Z</time>
      </trkpt>
      <trkpt lat="45.52368" lon="6.75416">
        <ele>2235.6</ele>
        <time>2021-08-03T08:36:15Z</time>
      </trkpt>
      <trkpt lat="45.52367" lon="6.75417">
        <ele>2235.8</ele>
        <time>2021-08-03T08:36:16Z</time>
      </trkpt>
      <trkpt lat="45.52367" lon="6.75417">
        <ele>2236</ele>
        <time>2021-08-03T08:36:17Z</time>
      </trkpt>
      <trkpt lat="45.52367" lon="6.75418">
        <ele>2236.2</ele>
        <time>2021-08-03T08:36:18Z</time>
      </trkpt>
      <trkpt lat="45.52366" lon="6.75418">
        <ele>2236.4</ele>
        <time>2021-08-03T08:36:19Z</time>
      </trkpt>
      <trkpt lat="45.52366" lon="6.75419">
        <ele>2236.5</ele>
        <time>2021-08-03T08:36:20Z</time>
      </trkpt>
      <trkpt lat="45.52366" lon="6.75419">
        <ele>2236.7</ele>
        <time>2021-08-03T08:36:21Z</time>
      </trkpt>
      <trkpt lat="45.52366" lon="6.75419">
        <ele>2236.8</ele>
        <time>2021-08-03T08:36:22Z</time>
      </trkpt>
      <trkpt lat="45.52365" lon="6.75419">
        <ele>2236.8</ele>
        <time>2021-08-03T08:36:23Z</time>
      </trkpt>
      <trkpt lat="45.52365" lon="6.75419">
        <ele>2236.9</ele>
        <time>2021-08-03T08:36:24Z</time>
      </trkpt>
      <trkpt lat="45.52365" lon="6.75419">
        <ele>2237</ele>
        <time>2021-08-03T08:36:25Z</time>
      </trkpt>
      <trkpt lat="45.52365" lon="6.75419">
        <ele>2237</ele>
        <time>2021-08-03T08:36:26Z</time>
      </trkpt>
      <trkpt lat="45.52365" lon="6.75419">
        <ele>2237.1</ele>
        <time>2021-08-03T08:36:27Z</time>
      </trkpt>
      <trkpt lat="45.52365" lon="6.75419">
        <ele>2237.1</ele>
        <time>2021-08-03T08:36:28Z</time>
      </trkpt>
      <trkpt lat="45.52365" lon="6.75419">
        <ele>2237.2</ele>
        <time>2021-08-03T08:36:29Z</time>
      </trkpt>
      <trkpt lat="45.52365" lon="6.75419">
        <ele>2237.2</ele>
        <time>2021-08-03T08:36:30Z</time>
      </trkpt>
      <trkpt lat="45.52365" lon="6.75419">
        <ele>2237.2</ele>
        <time>2021-08-03T08:36:31Z</time>
      </trkpt>
      <trkpt lat="45.52365" lon="6.75419">
        <ele>2237.3</ele>
        <time>2021-08-03T08:36:32Z</time>
      </trkpt>
      <trkpt lat="45.52365" lon="6.75419">
        <ele>2237.3</ele>
        <time>2021-08-03T08:36:33Z</time>
      </trkpt>
      <trkpt lat="45.52365" lon="6.75419">
        <ele>2237.3</ele>
        <time>2021-08-03T08:36:34Z</time>
      </trkpt>
      <trkpt lat="45.52365" lon="6.75419">
        <ele>2237.3</ele>
        <time>2021-08-03T08:36:35Z</time>
      </trkpt>
      <trkpt lat="45.52365" lon="6.75419">
        <ele>2237.3</ele>
        <time>2021-08-03T08:36:36Z</time>
      </trkpt>
      <trkpt lat="45.52365" lon="6.75419">
        <ele>2237.4</ele>
        <time>2021-08-03T08:36:37Z</time>
      </trkpt>
      <trkpt lat="45.52365" lon="6.75419">
        <ele>2237.5</ele>
        <time>2021-08-03T08:36:38Z</time>
      </trkpt>
      <trkpt lat="45.52364" lon="6.75419">
        <ele>2237.6</ele>
        <time>2021-08-03T08:36:39Z</time>
      </trkpt>
      <trkpt lat="45.52364" lon="6.75419">
        <ele>2237.8</ele>
        <time>2021-08-03T08:36:40Z</time>
      </trkpt>
      <trkpt lat="45.52363" lon="6.75418">
        <ele>2238</ele>
        <time>2021-08-03T08:36:41Z</time>
      </trkpt>
      <trkpt lat="45.52363" lon="6.75418">
        <ele>2238.2</ele>
        <time>2021-08-03T08:36:42Z</time>
      </trkpt>
      <trkpt lat="45.52362" lon="6.75418">
        <ele>2238.4</ele>
        <time>2021-08-03T08:36:43Z</time>
      </trkpt>
      <trkpt lat="45.52362" lon="6.75418">
        <ele>2238.6</ele>
        <time>2021-08-03T08:36:44Z</time>
      </trkpt>
      <trkpt lat="45.52361" lon="6.75418">
        <ele>2238.8</ele>
        <time>2021-08-03T08:36:45Z</time>
      </trkpt>
      <trkpt lat="45.52361" lon="6.75418">
        <ele>2238.9</ele>
        <time>2021-08-03T08:36:46Z</time>
      </trkpt>
      <trkpt lat="45.52361" lon="6.75418">
        <ele>2239</ele>
        <time>2021-08-03T08:36:47Z</time>
      </trkpt>
      <trkpt lat="45.5236" lon="6.75418">
        <ele>2239.2</ele>
        <time>2021-08-03T08:36:48Z</time>
      </trkpt>
      <trkpt lat="45.5236" lon="6.75418">
        <ele>2239.3</ele>
        <time>2021-08-03T08:36:49Z</time>
      </trkpt>
      <trkpt lat="45.5236" lon="6.75418">
        <ele>2239.4</ele>
        <time>2021-08-03T08:36:50Z</time>
      </trkpt>
      <trkpt lat="45.5236" lon="6.75418">
        <ele>2239.5</ele>
        <time>2021-08-03T08:36:51Z</time>
      </trkpt>
      <trkpt lat="45.52359" lon="6.75418">
        <ele>2239.5</ele>
        <time>2021-08-03T08:36:52Z</time>
      </trkpt>
      <trkpt lat="45.52359" lon="6.75418">
        <ele>2239.6</ele>
        <time>2021-08-03T08:36:53Z</time>
      </trkpt>
      <trkpt lat="45.52359" lon="6.75418">
        <ele>2239.6</ele>
        <time>2021-08-03T08:36:54Z</time>
      </trkpt>
      <trkpt lat="45.52359" lon="6.75418">
        <ele>2239.6</ele>
        <time>2021-08-03T08:36:55Z</time>
      </trkpt>
      <trkpt lat="45.52359" lon="6.75418">
        <ele>2239.6</ele>
        <time>2021-08-03T08:36:56Z</time>
      </trkpt>
      <trkpt lat="45.52359" lon="6.75418">
        <ele>2239.7</ele>
        <time>2021-08-03T08:36:57Z</time>
      </trkpt>
      <trkpt lat="45.52359" lon="6.75418">
        <ele>2239.7</ele>
        <time>2021-08-03T08:36:58Z</time>
      </trkpt>
      <trkpt lat="45.52359" lon="6.75418">
        <ele>2239.7</ele>
        <time>2021-08-03T08:36:59Z</time>
      </trkpt>
      <trkpt lat="45.52359" lon="6.75418">
        <ele>2239.7</ele>
        <time>2021-08-03T08:37:00Z</time>
      </trkpt>
      <trkpt lat="45.52359" lon="6.75418">
        <ele>2239.7</ele>
        <time>2021-08-03T08:37:01Z</time>
      </trkpt>
      <trkpt lat="45.52359" lon="6.75418">
        <ele>2239.7</ele>
        <time>2021-08-03T08:37:02Z</time>
      </trkpt>
      <trkpt lat="45.52359" lon="6.75418">
        <ele>2239.7</ele>
        <time>2021-08-03T08:37:03Z</time>
      </trkpt>
      <trkpt lat="45.52359" lon="6.75418">
        <ele>2239.7</ele>
        <time>2021-08-03T08:37:04Z</time>
      </trkpt>
      <trkpt lat="45.52359" lon="6.75418">
        <ele>2239.7</ele>
        <time>2021-08-03T08:37:05Z</time>
      </trkpt>
      <trkpt lat="45.52359" lon="6.75418">
        <ele>2239.8</ele>
        <time>2021-08-03T08:37:06Z</time>
      </trkpt>
      <trkpt lat="45.52359" lon="6.75418">
        <ele>2239.8</ele>
        <time>2021-08-03T08:37:07Z</time>
      </trkpt>
      <trkpt lat="45.52359" lon="6.75418">
        <ele>2239.8</ele>
        <time>2021-08-03T08:37:08Z</time>
      </trkpt>
      <trkpt lat="45.52359" lon="6.75418">
        <ele>2239.8</ele>
        <time>2021-08-03T08:37:09Z</time>
      </trkpt>
      <trkpt lat="45.52359" lon="6.75418">
        <ele>2239.8</ele>
        <time>2021-08-03T08:37:10Z</time>
      </trkpt>
      <trkpt lat="45.52359" lon="6.75418">
        <ele>2239.9</ele>
        <time>2021-08-03T08:37:11Z</time>
      </trkpt>
      <trkpt lat="45.52359" lon="6.75417">
        <ele>2239.9</ele>
        <time>2021-08-03T08:37:12Z</time>
      </trkpt>
      <trkpt lat="45.52359" lon="6.75417">
        <ele>2239.9</ele>
        <time>2021-08-03T08:37:13Z</time>
      </trkpt>
      <trkpt lat="45.52359" lon="6.75417">
        <ele>2240</ele>
        <time>2021-08-03T08:37:14Z</time>
      </trkpt>
      <trkpt lat="45.52359" lon="6.75417">
        <ele>2240.1</ele>
        <time>2021-08-03T08:37:15Z</time>
      </trkpt>
      <trkpt lat="45.52359" lon="6.75417">
        <ele>2240.2</ele>
        <time>2021-08-03T08:37:16Z</time>
      </trkpt>
      <trkpt lat="45.52359" lon="6.75416">
        <ele>2240.2</ele>
        <time>2021-08-03T08:37:17Z</time>
      </trkpt>
      <trkpt lat="45.52359" lon="6.75416">
        <ele>2240.3</ele>
        <time>2021-08-03T08:37:18Z</time>
      </trkpt>
      <trkpt lat="45.52359" lon="6.75416">
        <ele>2240.4</ele>
        <time>2021-08-03T08:37:19Z</time>
      </trkpt>
      <trkpt lat="45.52359" lon="6.75416">
        <ele>2240.5</ele>
        <time>2021-08-03T08:37:20Z</time>
      </trkpt>
      <trkpt lat="45.52358" lon="6.75415">
        <ele>2240.6</ele>
        <time>2021-08-03T08:37:21Z</time>
      </trkpt>
      <trkpt lat="45.52358" lon="6.75415">
        <ele>2240.7</ele>
        <time>2021-08-03T08:37:22Z</time>
      </trkpt>
      <trkpt lat="45.52358" lon="6.75415">
        <ele>2240.7</ele>
        <time>2021-08-03T08:37:23Z</time>
      </trkpt>
      <trkpt lat="45.52358" lon="6.75415">
        <ele>2240.8</ele>
        <time>2021-08-03T08:37:24Z</time>
      </trkpt>
      <trkpt lat="45.52358" lon="6.75415">
        <ele>2240.8</ele>
        <time>2021-08-03T08:37:25Z</time>
      </trkpt>
      <trkpt lat="45.52358" lon="6.75415">
        <ele>2240.8</ele>
        <time>2021-08-03T08:37:26Z</time>
      </trkpt>
      <trkpt lat="45.52358" lon="6.75415">
        <ele>2240.8</ele>
        <time>2021-08-03T08:37:27Z</time>
      </trkpt>
      <trkpt lat="45.52358" lon="6.75415">
        <ele>2240.8</ele>
        <time>2021-08-03T08:37:28Z</time>
      </trkpt>
      <trkpt lat="45.52358" lon="6.75414">
        <ele>2241</ele>
        <time>2021-08-03T08:37:29Z</time>
      </trkpt>
      <trkpt lat="45.52358" lon="6.75414">
        <ele>2241.1</ele>
        <time>2021-08-03T08:37:30Z</time>
      </trkpt>
      <trkpt lat="45.52358" lon="6.75413">
        <ele>2241.3</ele>
        <time>2021-08-03T08:37:31Z</time>
      </trkpt>
      <trkpt lat="45.52357" lon="6.75412">
        <ele>2241.6</ele>
        <time>2021-08-03T08:37:32Z</time>
      </trkpt>
      <trkpt lat="45.52357" lon="6.75412">
        <ele>2241.8</ele>
        <time>2021-08-03T08:37:33Z</time>
      </trkpt>
      <trkpt lat="45.52357" lon="6.75411">
        <ele>2241.9</ele>
        <time>2021-08-03T08:37:34Z</time>
      </trkpt>
      <trkpt lat="45.52357" lon="6.75411">
        <ele>2242.1</ele>
        <time>2021-08-03T08:37:35Z</time>
      </trkpt>
      <trkpt lat="45.52356" lon="6.7541">
        <ele>2242.3</ele>
        <time>2021-08-03T08:37:36Z</time>
      </trkpt>
      <trkpt lat="45.52356" lon="6.7541">
        <ele>2242.4</ele>
        <time>2021-08-03T08:37:37Z</time>
      </trkpt>
      <trkpt lat="45.52356" lon="6.75409">
        <ele>2242.6</ele>
        <time>2021-08-03T08:37:38Z</time>
      </trkpt>
      <trkpt lat="45.52356" lon="6.75409">
        <ele>2242.7</ele>
        <time>2021-08-03T08:37:39Z</time>
      </trkpt>
      <trkpt lat="45.52356" lon="6.75408">
        <ele>2242.8</ele>
        <time>2021-08-03T08:37:40Z</time>
      </trkpt>
      <trkpt lat="45.52356" lon="6.75408">
        <ele>2242.9</ele>
        <time>2021-08-03T08:37:41Z</time>
      </trkpt>
      <trkpt lat="45.52356" lon="6.75408">
        <ele>2243</ele>
        <time>2021-08-03T08:37:42Z</time>
      </trkpt>
      <trkpt lat="45.52355" lon="6.75408">
        <ele>2243.1</ele>
        <time>2021-08-03T08:37:43Z</time>
      </trkpt>
      <trkpt lat="45.52355" lon="6.75408">
        <ele>2243.2</ele>
        <time>2021-08-03T08:37:44Z</time>
      </trkpt>
      <trkpt lat="45.52355" lon="6.75407">
        <ele>2243.3</ele>
        <time>2021-08-03T08:37:45Z</time>
      </trkpt>
      <trkpt lat="45.52355" lon="6.75407">
        <ele>2243.4</ele>
        <time>2021-08-03T08:37:46Z</time>
      </trkpt>
      <trkpt lat="45.52354" lon="6.75408">
        <ele>2243.5</ele>
        <time>2021-08-03T08:37:47Z</time>
      </trkpt>
      <trkpt lat="45.52354" lon="6.75408">
        <ele>2243.6</ele>
        <time>2021-08-03T08:37:48Z</time>
      </trkpt>
      <trkpt lat="45.52354" lon="6.75408">
        <ele>2243.8</ele>
        <time>2021-08-03T08:37:49Z</time>
      </trkpt>
      <trkpt lat="45.52353" lon="6.75408">
        <ele>2243.9</ele>
        <time>2021-08-03T08:37:50Z</time>
      </trkpt>
      <trkpt lat="45.52353" lon="6.75408">
        <ele>2244.1</ele>
        <time>2021-08-03T08:37:51Z</time>
      </trkpt>
      <trkpt lat="45.52353" lon="6.75408">
        <ele>2244.2</ele>
        <time>2021-08-03T08:37:52Z</time>
      </trkpt>
      <trkpt lat="45.52352" lon="6.75409">
        <ele>2244.4</ele>
        <time>2021-08-03T08:37:53Z</time>
      </trkpt>
      <trkpt lat="45.52352" lon="6.75409">
        <ele>2244.6</ele>
        <time>2021-08-03T08:37:54Z</time>
      </trkpt>
      <trkpt lat="45.52351" lon="6.75409">
        <ele>2244.8</ele>
        <time>2021-08-03T08:37:55Z</time>
      </trkpt>
      <trkpt lat="45.52351" lon="6.75409">
        <ele>2245</ele>
        <time>2021-08-03T08:37:56Z</time>
      </trkpt>
      <trkpt lat="45.5235" lon="6.75409">
        <ele>2245.1</ele>
        <time>2021-08-03T08:37:57Z</time>
      </trkpt>
      <trkpt lat="45.5235" lon="6.75409">
        <ele>2245.3</ele>
        <time>2021-08-03T08:37:58Z</time>
      </trkpt>
      <trkpt lat="45.5235" lon="6.75409">
        <ele>2245.5</ele>
        <time>2021-08-03T08:37:59Z</time>
      </trkpt>
      <trkpt lat="45.52349" lon="6.75409">
        <ele>2245.7</ele>
        <time>2021-08-03T08:38:00Z</time>
      </trkpt>
      <trkpt lat="45.52349" lon="6.75409">
        <ele>2245.9</ele>
        <time>2021-08-03T08:38:01Z</time>
      </trkpt>
      <trkpt lat="45.52348" lon="6.75409">
        <ele>2246.1</ele>
        <time>2021-08-03T08:38:02Z</time>
      </trkpt>
      <trkpt lat="45.52348" lon="6.75409">
        <ele>2246.2</ele>
        <time>2021-08-03T08:38:03Z</time>
      </trkpt>
      <trkpt lat="45.52347" lon="6.75409">
        <ele>2246.4</ele>
        <time>2021-08-03T08:38:04Z</time>
      </trkpt>
      <trkpt lat="45.52347" lon="6.75408">
        <ele>2246.6</ele>
        <time>2021-08-03T08:38:05Z</time>
      </trkpt>
      <trkpt lat="45.52346" lon="6.75408">
        <ele>2246.8</ele>
        <time>2021-08-03T08:38:06Z</time>
      </trkpt>
      <trkpt lat="45.52346" lon="6.75407">
        <ele>2247</ele>
        <time>2021-08-03T08:38:07Z</time>
      </trkpt>
      <trkpt lat="45.52346" lon="6.75407">
        <ele>2247.2</ele>
        <time>2021-08-03T08:38:08Z</time>
      </trkpt>
      <trkpt lat="45.52345" lon="6.75406">
        <ele>2247.4</ele>
        <time>2021-08-03T08:38:09Z</time>
      </trkpt>
      <trkpt lat="45.52345" lon="6.75406">
        <ele>2247.7</ele>
        <time>2021-08-03T08:38:10Z</time>
      </trkpt>
      <trkpt lat="45.52344" lon="6.75405">
        <ele>2247.9</ele>
        <time>2021-08-03T08:38:11Z</time>
      </trkpt>
      <trkpt lat="45.52344" lon="6.75405">
        <ele>2248.1</ele>
        <time>2021-08-03T08:38:12Z</time>
      </trkpt>
      <trkpt lat="45.52344" lon="6.75404">
        <ele>2248.3</ele>
        <time>2021-08-03T08:38:13Z</time>
      </trkpt>
      <trkpt lat="45.52343" lon="6.75404">
        <ele>2248.5</ele>
        <time>2021-08-03T08:38:14Z</time>
      </trkpt>
      <trkpt lat="45.52343" lon="6.75403">
        <ele>2248.7</ele>
        <time>2021-08-03T08:38:15Z</time>
      </trkpt>
      <trkpt lat="45.52343" lon="6.75403">
        <ele>2248.8</ele>
        <time>2021-08-03T08:38:16Z</time>
      </trkpt>
      <trkpt lat="45.52342" lon="6.75403">
        <ele>2249</ele>
        <time>2021-08-03T08:38:17Z</time>
      </trkpt>
      <trkpt lat="45.52342" lon="6.75402">
        <ele>2249.2</ele>
        <time>2021-08-03T08:38:18Z</time>
      </trkpt>
      <trkpt lat="45.52342" lon="6.75402">
        <ele>2249.3</ele>
        <time>2021-08-03T08:38:19Z</time>
      </trkpt>
      <trkpt lat="45.52342" lon="6.75401">
        <ele>2249.4</ele>
        <time>2021-08-03T08:38:20Z</time>
      </trkpt>
      <trkpt lat="45.52341" lon="6.75401">
        <ele>2249.6</ele>
        <time>2021-08-03T08:38:21Z</time>
      </trkpt>
      <trkpt lat="45.52341" lon="6.75401">
        <ele>2249.7</ele>
        <time>2021-08-03T08:38:22Z</time>
      </trkpt>
      <trkpt lat="45.52341" lon="6.75401">
        <ele>2249.7</ele>
        <time>2021-08-03T08:38:23Z</time>
      </trkpt>
      <trkpt lat="45.52341" lon="6.75401">
        <ele>2249.8</ele>
        <time>2021-08-03T08:38:24Z</time>
      </trkpt>
      <trkpt lat="45.52341" lon="6.75401">
        <ele>2249.9</ele>
        <time>2021-08-03T08:38:25Z</time>
      </trkpt>
      <trkpt lat="45.52341" lon="6.754">
        <ele>2249.9</ele>
        <time>2021-08-03T08:38:26Z</time>
      </trkpt>
      <trkpt lat="45.52341" lon="6.754">
        <ele>2250</ele>
        <time>2021-08-03T08:38:27Z</time>
      </trkpt>
      <trkpt lat="45.52341" lon="6.754">
        <ele>2250</ele>
        <time>2021-08-03T08:38:28Z</time>
      </trkpt>
      <trkpt lat="45.5234" lon="6.754">
        <ele>2250</ele>
        <time>2021-08-03T08:38:29Z</time>
      </trkpt>
      <trkpt lat="45.5234" lon="6.754">
        <ele>2250.1</ele>
        <time>2021-08-03T08:38:30Z</time>
      </trkpt>
      <trkpt lat="45.5234" lon="6.754">
        <ele>2250.1</ele>
        <time>2021-08-03T08:38:31Z</time>
      </trkpt>
      <trkpt lat="45.5234" lon="6.754">
        <ele>2250.1</ele>
        <time>2021-08-03T08:38:32Z</time>
      </trkpt>
      <trkpt lat="45.5234" lon="6.754">
        <ele>2250.1</ele>
        <time>2021-08-03T08:38:33Z</time>
      </trkpt>
      <trkpt lat="45.5234" lon="6.754">
        <ele>2250.1</ele>
        <time>2021-08-03T08:38:34Z</time>
      </trkpt>
      <trkpt lat="45.5234" lon="6.754">
        <ele>2250.1</ele>
        <time>2021-08-03T08:38:35Z</time>
      </trkpt>
      <trkpt lat="45.5234" lon="6.75401">
        <ele>2250.1</ele>
        <time>2021-08-03T08:38:36Z</time>
      </trkpt>
      <trkpt lat="45.5234" lon="6.75401">
        <ele>2250.1</ele>
        <time>2021-08-03T08:38:37Z</time>
      </trkpt>
      <trkpt lat="45.5234" lon="6.75401">
        <ele>2250.1</ele>
        <time>2021-08-03T08:38:38Z</time>
      </trkpt>
      <trkpt lat="45.5234" lon="6.75401">
        <ele>2250.1</ele>
        <time>2021-08-03T08:38:39Z</time>
      </trkpt>
      <trkpt lat="45.5234" lon="6.75401">
        <ele>2250.1</ele>
        <time>2021-08-03T08:38:40Z</time>
      </trkpt>
      <trkpt lat="45.5234" lon="6.75401">
        <ele>2250.1</ele>
        <time>2021-08-03T08:38:41Z</time>
      </trkpt>
      <trkpt lat="45.5234" lon="6.75401">
        <ele>2250.2</ele>
        <time>2021-08-03T08:38:42Z</time>
      </trkpt>
      <trkpt lat="45.5234" lon="6.75401">
        <ele>2250.3</ele>
        <time>2021-08-03T08:38:43Z</time>
      </trkpt>
      <trkpt lat="45.5234" lon="6.75401">
        <ele>2250.4</ele>
        <time>2021-08-03T08:38:44Z</time>
      </trkpt>
      <trkpt lat="45.52339" lon="6.75401">
        <ele>2250.6</ele>
        <time>2021-08-03T08:38:45Z</time>
      </trkpt>
      <trkpt lat="45.52339" lon="6.75401">
        <ele>2250.7</ele>
        <time>2021-08-03T08:38:46Z</time>
      </trkpt>
      <trkpt lat="45.52338" lon="6.75401">
        <ele>2250.9</ele>
        <time>2021-08-03T08:38:47Z</time>
      </trkpt>
      <trkpt lat="45.52338" lon="6.75401">
        <ele>2251</ele>
        <time>2021-08-03T08:38:48Z</time>
      </trkpt>
      <trkpt lat="45.52338" lon="6.75402">
        <ele>2251.2</ele>
        <time>2021-08-03T08:38:49Z</time>
      </trkpt>
      <trkpt lat="45.52337" lon="6.75402">
        <ele>2251.4</ele>
        <time>2021-08-03T08:38:50Z</time>
      </trkpt>
      <trkpt lat="45.52337" lon="6.75403">
        <ele>2251.5</ele>
        <time>2021-08-03T08:38:51Z</time>
      </trkpt>
      <trkpt lat="45.52337" lon="6.75403">
        <ele>2251.7</ele>
        <time>2021-08-03T08:38:52Z</time>
      </trkpt>
      <trkpt lat="45.52337" lon="6.75404">
        <ele>2251.9</ele>
        <time>2021-08-03T08:38:53Z</time>
      </trkpt>
      <trkpt lat="45.52337" lon="6.75405">
        <ele>2252.1</ele>
        <time>2021-08-03T08:38:54Z</time>
      </trkpt>
      <trkpt lat="45.52337" lon="6.75405">
        <ele>2252.3</ele>
        <time>2021-08-03T08:38:55Z</time>
      </trkpt>
      <trkpt lat="45.52337" lon="6.75406">
        <ele>2252.5</ele>
        <time>2021-08-03T08:38:56Z</time>
      </trkpt>
      <trkpt lat="45.52337" lon="6.75407">
        <ele>2252.7</ele>
        <time>2021-08-03T08:38:57Z</time>
      </trkpt>
      <trkpt lat="45.52337" lon="6.75407">
        <ele>2252.9</ele>
        <time>2021-08-03T08:38:58Z</time>
      </trkpt>
      <trkpt lat="45.52337" lon="6.75408">
        <ele>2253</ele>
        <time>2021-08-03T08:38:59Z</time>
      </trkpt>
      <trkpt lat="45.52337" lon="6.75408">
        <ele>2253.2</ele>
        <time>2021-08-03T08:39:00Z</time>
      </trkpt>
      <trkpt lat="45.52337" lon="6.75409">
        <ele>2253.3</ele>
        <time>2021-08-03T08:39:01Z</time>
      </trkpt>
      <trkpt lat="45.52337" lon="6.75409">
        <ele>2253.4</ele>
        <time>2021-08-03T08:39:02Z</time>
      </trkpt>
      <trkpt lat="45.52337" lon="6.7541">
        <ele>2253.5</ele>
        <time>2021-08-03T08:39:03Z</time>
      </trkpt>
      <trkpt lat="45.52337" lon="6.7541">
        <ele>2253.6</ele>
        <time>2021-08-03T08:39:04Z</time>
      </trkpt>
      <trkpt lat="45.52337" lon="6.7541">
        <ele>2253.8</ele>
        <time>2021-08-03T08:39:05Z</time>
      </trkpt>
      <trkpt lat="45.52336" lon="6.75411">
        <ele>2253.9</ele>
        <time>2021-08-03T08:39:06Z</time>
      </trkpt>
      <trkpt lat="45.52336" lon="6.75411">
        <ele>2254</ele>
        <time>2021-08-03T08:39:07Z</time>
      </trkpt>
      <trkpt lat="45.52336" lon="6.75411">
        <ele>2254.1</ele>
        <time>2021-08-03T08:39:08Z</time>
      </trkpt>
      <trkpt lat="45.52336" lon="6.75412">
        <ele>2254.3</ele>
        <time>2021-08-03T08:39:09Z</time>
      </trkpt>
      <trkpt lat="45.52335" lon="6.75412">
        <ele>2254.4</ele>
        <time>2021-08-03T08:39:10Z</time>
      </trkpt>
      <trkpt lat="45.52335" lon="6.75412">
        <ele>2254.5</ele>
        <time>2021-08-03T08:39:11Z</time>
      </trkpt>
      <trkpt lat="45.52335" lon="6.75413">
        <ele>2254.7</ele>
        <time>2021-08-03T08:39:12Z</time>
      </trkpt>
      <trkpt lat="45.52335" lon="6.75413">
        <ele>2254.9</ele>
        <time>2021-08-03T08:39:13Z</time>
      </trkpt>
      <trkpt lat="45.52334" lon="6.75414">
        <ele>2255</ele>
        <time>2021-08-03T08:39:14Z</time>
      </trkpt>
      <trkpt lat="45.52334" lon="6.75414">
        <ele>2255.2</ele>
        <time>2021-08-03T08:39:15Z</time>
      </trkpt>
      <trkpt lat="45.52334" lon="6.75414">
        <ele>2255.4</ele>
        <time>2021-08-03T08:39:16Z</time>
      </trkpt>
      <trkpt lat="45.52333" lon="6.75415">
        <ele>2255.6</ele>
        <time>2021-08-03T08:39:17Z</time>
      </trkpt>
      <trkpt lat="45.52333" lon="6.75415">
        <ele>2255.7</ele>
        <time>2021-08-03T08:39:18Z</time>
      </trkpt>
      <trkpt lat="45.52333" lon="6.75416">
        <ele>2255.9</ele>
        <time>2021-08-03T08:39:19Z</time>
      </trkpt>
      <trkpt lat="45.52333" lon="6.75416">
        <ele>2256.1</ele>
        <time>2021-08-03T08:39:20Z</time>
      </trkpt>
      <trkpt lat="45.52332" lon="6.75417">
        <ele>2256.3</ele>
        <time>2021-08-03T08:39:21Z</time>
      </trkpt>
      <trkpt lat="45.52332" lon="6.75418">
        <ele>2256.5</ele>
        <time>2021-08-03T08:39:22Z</time>
      </trkpt>
      <trkpt lat="45.52332" lon="6.75418">
        <ele>2256.7</ele>
        <time>2021-08-03T08:39:23Z</time>
      </trkpt>
      <trkpt lat="45.52331" lon="6.75419">
        <ele>2256.9</ele>
        <time>2021-08-03T08:39:24Z</time>
      </trkpt>
      <trkpt lat="45.52331" lon="6.75419">
        <ele>2257.2</ele>
        <time>2021-08-03T08:39:25Z</time>
      </trkpt>
      <trkpt lat="45.52331" lon="6.7542">
        <ele>2257.4</ele>
        <time>2021-08-03T08:39:26Z</time>
      </trkpt>
      <trkpt lat="45.52331" lon="6.75421">
        <ele>2257.5</ele>
        <time>2021-08-03T08:39:27Z</time>
      </trkpt>
      <trkpt lat="45.5233" lon="6.75421">
        <ele>2257.7</ele>
        <time>2021-08-03T08:39:28Z</time>
      </trkpt>
      <trkpt lat="45.5233" lon="6.75421">
        <ele>2257.8</ele>
        <time>2021-08-03T08:39:29Z</time>
      </trkpt>
      <trkpt lat="45.5233" lon="6.75422">
        <ele>2258</ele>
        <time>2021-08-03T08:39:30Z</time>
      </trkpt>
      <trkpt lat="45.5233" lon="6.75422">
        <ele>2258</ele>
        <time>2021-08-03T08:39:31Z</time>
      </trkpt>
      <trkpt lat="45.5233" lon="6.75422">
        <ele>2258.1</ele>
        <time>2021-08-03T08:39:32Z</time>
      </trkpt>
      <trkpt lat="45.52329" lon="6.75422">
        <ele>2258.2</ele>
        <time>2021-08-03T08:39:33Z</time>
      </trkpt>
      <trkpt lat="45.52329" lon="6.75422">
        <ele>2258.2</ele>
        <time>2021-08-03T08:39:34Z</time>
      </trkpt>
      <trkpt lat="45.52329" lon="6.75421">
        <ele>2258.3</ele>
        <time>2021-08-03T08:39:35Z</time>
      </trkpt>
      <trkpt lat="45.52329" lon="6.75421">
        <ele>2258.4</ele>
        <time>2021-08-03T08:39:36Z</time>
      </trkpt>
      <trkpt lat="45.52329" lon="6.75421">
        <ele>2258.5</ele>
        <time>2021-08-03T08:39:37Z</time>
      </trkpt>
      <trkpt lat="45.52329" lon="6.75421">
        <ele>2258.6</ele>
        <time>2021-08-03T08:39:38Z</time>
      </trkpt>
      <trkpt lat="45.52329" lon="6.7542">
        <ele>2258.7</ele>
        <time>2021-08-03T08:39:39Z</time>
      </trkpt>
      <trkpt lat="45.52328" lon="6.7542">
        <ele>2258.7</ele>
        <time>2021-08-03T08:39:40Z</time>
      </trkpt>
      <trkpt lat="45.52328" lon="6.7542">
        <ele>2258.8</ele>
        <time>2021-08-03T08:39:41Z</time>
      </trkpt>
      <trkpt lat="45.52328" lon="6.7542">
        <ele>2258.9</ele>
        <time>2021-08-03T08:39:42Z</time>
      </trkpt>
      <trkpt lat="45.52328" lon="6.7542">
        <ele>2258.9</ele>
        <time>2021-08-03T08:39:43Z</time>
      </trkpt>
      <trkpt lat="45.52328" lon="6.7542">
        <ele>2259</ele>
        <time>2021-08-03T08:39:44Z</time>
      </trkpt>
      <trkpt lat="45.52328" lon="6.7542">
        <ele>2259.1</ele>
        <time>2021-08-03T08:39:45Z</time>
      </trkpt>
      <trkpt lat="45.52328" lon="6.75419">
        <ele>2259.1</ele>
        <time>2021-08-03T08:39:46Z</time>
      </trkpt>
      <trkpt lat="45.52328" lon="6.75419">
        <ele>2259.2</ele>
        <time>2021-08-03T08:39:47Z</time>
      </trkpt>
      <trkpt lat="45.52327" lon="6.75419">
        <ele>2259.3</ele>
        <time>2021-08-03T08:39:48Z</time>
      </trkpt>
      <trkpt lat="45.52327" lon="6.75419">
        <ele>2259.4</ele>
        <time>2021-08-03T08:39:49Z</time>
      </trkpt>
      <trkpt lat="45.52327" lon="6.75419">
        <ele>2259.5</ele>
        <time>2021-08-03T08:39:50Z</time>
      </trkpt>
      <trkpt lat="45.52327" lon="6.75418">
        <ele>2259.5</ele>
        <time>2021-08-03T08:39:51Z</time>
      </trkpt>
      <trkpt lat="45.52327" lon="6.75418">
        <ele>2259.7</ele>
        <time>2021-08-03T08:39:52Z</time>
      </trkpt>
      <trkpt lat="45.52327" lon="6.75417">
        <ele>2259.8</ele>
        <time>2021-08-03T08:39:53Z</time>
      </trkpt>
      <trkpt lat="45.52327" lon="6.75417">
        <ele>2259.9</ele>
        <time>2021-08-03T08:39:54Z</time>
      </trkpt>
      <trkpt lat="45.52327" lon="6.75416">
        <ele>2260.1</ele>
        <time>2021-08-03T08:39:55Z</time>
      </trkpt>
      <trkpt lat="45.52327" lon="6.75416">
        <ele>2260.2</ele>
        <time>2021-08-03T08:39:56Z</time>
      </trkpt>
      <trkpt lat="45.52326" lon="6.75415">
        <ele>2260.4</ele>
        <time>2021-08-03T08:39:57Z</time>
      </trkpt>
      <trkpt lat="45.52326" lon="6.75415">
        <ele>2260.6</ele>
        <time>2021-08-03T08:39:58Z</time>
      </trkpt>
      <trkpt lat="45.52326" lon="6.75414">
        <ele>2260.8</ele>
        <time>2021-08-03T08:39:59Z</time>
      </trkpt>
      <trkpt lat="45.52326" lon="6.75413">
        <ele>2261</ele>
        <time>2021-08-03T08:40:00Z</time>
      </trkpt>
      <trkpt lat="45.52326" lon="6.75413">
        <ele>2261.2</ele>
        <time>2021-08-03T08:40:01Z</time>
      </trkpt>
      <trkpt lat="45.52326" lon="6.75412">
        <ele>2261.4</ele>
        <time>2021-08-03T08:40:02Z</time>
      </trkpt>
      <trkpt lat="45.52325" lon="6.75411">
        <ele>2261.6</ele>
        <time>2021-08-03T08:40:03Z</time>
      </trkpt>
      <trkpt lat="45.52325" lon="6.75411">
        <ele>2261.9</ele>
        <time>2021-08-03T08:40:04Z</time>
      </trkpt>
      <trkpt lat="45.52325" lon="6.7541">
        <ele>2262.1</ele>
        <time>2021-08-03T08:40:05Z</time>
      </trkpt>
      <trkpt lat="45.52324" lon="6.75409">
        <ele>2262.2</ele>
        <time>2021-08-03T08:40:06Z</time>
      </trkpt>
      <trkpt lat="45.52324" lon="6.75409">
        <ele>2262.4</ele>
        <time>2021-08-03T08:40:07Z</time>
      </trkpt>
      <trkpt lat="45.52324" lon="6.75409">
        <ele>2262.5</ele>
        <time>2021-08-03T08:40:08Z</time>
      </trkpt>
      <trkpt lat="45.52324" lon="6.75408">
        <ele>2262.6</ele>
        <time>2021-08-03T08:40:09Z</time>
      </trkpt>
      <trkpt lat="45.52324" lon="6.75408">
        <ele>2262.7</ele>
        <time>2021-08-03T08:40:10Z</time>
      </trkpt>
      <trkpt lat="45.52324" lon="6.75408">
        <ele>2262.7</ele>
        <time>2021-08-03T08:40:11Z</time>
      </trkpt>
      <trkpt lat="45.52324" lon="6.75408">
        <ele>2262.7</ele>
        <time>2021-08-03T08:40:12Z</time>
      </trkpt>
      <trkpt lat="45.52324" lon="6.75408">
        <ele>2262.7</ele>
        <time>2021-08-03T08:40:13Z</time>
      </trkpt>
      <trkpt lat="45.52324" lon="6.75408">
        <ele>2262.7</ele>
        <time>2021-08-03T08:40:14Z</time>
      </trkpt>
      <trkpt lat="45.52324" lon="6.75408">
        <ele>2262.8</ele>
        <time>2021-08-03T08:40:15Z</time>
      </trkpt>
      <trkpt lat="45.52324" lon="6.75408">
        <ele>2262.8</ele>
        <time>2021-08-03T08:40:16Z</time>
      </trkpt>
      <trkpt lat="45.52324" lon="6.75408">
        <ele>2262.9</ele>
        <time>2021-08-03T08:40:17Z</time>
      </trkpt>
      <trkpt lat="45.52323" lon="6.75407">
        <ele>2263</ele>
        <time>2021-08-03T08:40:18Z</time>
      </trkpt>
      <trkpt lat="45.52323" lon="6.75407">
        <ele>2263.2</ele>
        <time>2021-08-03T08:40:19Z</time>
      </trkpt>
      <trkpt lat="45.52323" lon="6.75406">
        <ele>2263.3</ele>
        <time>2021-08-03T08:40:20Z</time>
      </trkpt>
      <trkpt lat="45.52323" lon="6.75406">
        <ele>2263.5</ele>
        <time>2021-08-03T08:40:21Z</time>
      </trkpt>
      <trkpt lat="45.52322" lon="6.75405">
        <ele>2263.7</ele>
        <time>2021-08-03T08:40:22Z</time>
      </trkpt>
      <trkpt lat="45.52322" lon="6.75405">
        <ele>2263.9</ele>
        <time>2021-08-03T08:40:23Z</time>
      </trkpt>
      <trkpt lat="45.52322" lon="6.75404">
        <ele>2264.1</ele>
        <time>2021-08-03T08:40:24Z</time>
      </trkpt>
      <trkpt lat="45.52322" lon="6.75404">
        <ele>2264.2</ele>
        <time>2021-08-03T08:40:25Z</time>
      </trkpt>
      <trkpt lat="45.52322" lon="6.75403">
        <ele>2264.4</ele>
        <time>2021-08-03T08:40:26Z</time>
      </trkpt>
      <trkpt lat="45.52322" lon="6.75403">
        <ele>2264.4</ele>
        <time>2021-08-03T08:40:27Z</time>
      </trkpt>
      <trkpt lat="45.52322" lon="6.75403">
        <ele>2264.5</ele>
        <time>2021-08-03T08:40:28Z</time>
      </trkpt>
      <trkpt lat="45.52322" lon="6.75403">
        <ele>2264.5</ele>
        <time>2021-08-03T08:40:29Z</time>
      </trkpt>
      <trkpt lat="45.52322" lon="6.75403">
        <ele>2264.6</ele>
        <time>2021-08-03T08:40:30Z</time>
      </trkpt>
      <trkpt lat="45.52322" lon="6.75402">
        <ele>2264.6</ele>
        <time>2021-08-03T08:40:31Z</time>
      </trkpt>
      <trkpt lat="45.52321" lon="6.75402">
        <ele>2264.8</ele>
        <time>2021-08-03T08:40:32Z</time>
      </trkpt>
      <trkpt lat="45.52321" lon="6.75401">
        <ele>2264.9</ele>
        <time>2021-08-03T08:40:33Z</time>
      </trkpt>
      <trkpt lat="45.52321" lon="6.75401">
        <ele>2265.1</ele>
        <time>2021-08-03T08:40:34Z</time>
      </trkpt>
      <trkpt lat="45.52321" lon="6.754">
        <ele>2265.3</ele>
        <time>2021-08-03T08:40:35Z</time>
      </trkpt>
      <trkpt lat="45.52321" lon="6.75399">
        <ele>2265.6</ele>
        <time>2021-08-03T08:40:36Z</time>
      </trkpt>
      <trkpt lat="45.52321" lon="6.75398">
        <ele>2265.9</ele>
        <time>2021-08-03T08:40:37Z</time>
      </trkpt>
      <trkpt lat="45.5232" lon="6.75397">
        <ele>2266.2</ele>
        <time>2021-08-03T08:40:38Z</time>
      </trkpt>
      <trkpt lat="45.5232" lon="6.75396">
        <ele>2266.5</ele>
        <time>2021-08-03T08:40:39Z</time>
      </trkpt>
      <trkpt lat="45.5232" lon="6.75395">
        <ele>2266.8</ele>
        <time>2021-08-03T08:40:40Z</time>
      </trkpt>
      <trkpt lat="45.52319" lon="6.75394">
        <ele>2267.1</ele>
        <time>2021-08-03T08:40:41Z</time>
      </trkpt>
      <trkpt lat="45.52319" lon="6.75393">
        <ele>2267.3</ele>
        <time>2021-08-03T08:40:42Z</time>
      </trkpt>
      <trkpt lat="45.52319" lon="6.75393">
        <ele>2267.6</ele>
        <time>2021-08-03T08:40:43Z</time>
      </trkpt>
      <trkpt lat="45.52318" lon="6.75392">
        <ele>2267.8</ele>
        <time>2021-08-03T08:40:44Z</time>
      </trkpt>
      <trkpt lat="45.52318" lon="6.75392">
        <ele>2268</ele>
        <time>2021-08-03T08:40:45Z</time>
      </trkpt>
      <trkpt lat="45.52317" lon="6.75391">
        <ele>2268.2</ele>
        <time>2021-08-03T08:40:46Z</time>
      </trkpt>
      <trkpt lat="45.52317" lon="6.75391">
        <ele>2268.3</ele>
        <time>2021-08-03T08:40:47Z</time>
      </trkpt>
      <trkpt lat="45.52317" lon="6.75391">
        <ele>2268.4</ele>
        <time>2021-08-03T08:40:48Z</time>
      </trkpt>
      <trkpt lat="45.52317" lon="6.75391">
        <ele>2268.6</ele>
        <time>2021-08-03T08:40:49Z</time>
      </trkpt>
      <trkpt lat="45.52316" lon="6.75391">
        <ele>2268.6</ele>
        <time>2021-08-03T08:40:50Z</time>
      </trkpt>
      <trkpt lat="45.52316" lon="6.75391">
        <ele>2268.7</ele>
        <time>2021-08-03T08:40:51Z</time>
      </trkpt>
      <trkpt lat="45.52316" lon="6.7539">
        <ele>2268.8</ele>
        <time>2021-08-03T08:40:52Z</time>
      </trkpt>
      <trkpt lat="45.52316" lon="6.7539">
        <ele>2268.8</ele>
        <time>2021-08-03T08:40:53Z</time>
      </trkpt>
      <trkpt lat="45.52316" lon="6.7539">
        <ele>2268.9</ele>
        <time>2021-08-03T08:40:54Z</time>
      </trkpt>
      <trkpt lat="45.52316" lon="6.7539">
        <ele>2269</ele>
        <time>2021-08-03T08:40:55Z</time>
      </trkpt>
      <trkpt lat="45.52315" lon="6.7539">
        <ele>2269.1</ele>
        <time>2021-08-03T08:40:56Z</time>
      </trkpt>
      <trkpt lat="45.52315" lon="6.75389">
        <ele>2269.3</ele>
        <time>2021-08-03T08:40:57Z</time>
      </trkpt>
      <trkpt lat="45.52315" lon="6.75389">
        <ele>2269.5</ele>
        <time>2021-08-03T08:40:58Z</time>
      </trkpt>
      <trkpt lat="45.52315" lon="6.75388">
        <ele>2269.7</ele>
        <time>2021-08-03T08:40:59Z</time>
      </trkpt>
      <trkpt lat="45.52314" lon="6.75387">
        <ele>2269.9</ele>
        <time>2021-08-03T08:41:00Z</time>
      </trkpt>
      <trkpt lat="45.52314" lon="6.75387">
        <ele>2270.2</ele>
        <time>2021-08-03T08:41:01Z</time>
      </trkpt>
      <trkpt lat="45.52314" lon="6.75386">
        <ele>2270.4</ele>
        <time>2021-08-03T08:41:02Z</time>
      </trkpt>
      <trkpt lat="45.52313" lon="6.75385">
        <ele>2270.6</ele>
        <time>2021-08-03T08:41:03Z</time>
      </trkpt>
      <trkpt lat="45.52313" lon="6.75385">
        <ele>2270.8</ele>
        <time>2021-08-03T08:41:04Z</time>
      </trkpt>
      <trkpt lat="45.52313" lon="6.75384">
        <ele>2270.9</ele>
        <time>2021-08-03T08:41:05Z</time>
      </trkpt>
      <trkpt lat="45.52313" lon="6.75384">
        <ele>2271</ele>
        <time>2021-08-03T08:41:06Z</time>
      </trkpt>
      <trkpt lat="45.52313" lon="6.75384">
        <ele>2271.1</ele>
        <time>2021-08-03T08:41:07Z</time>
      </trkpt>
      <trkpt lat="45.52313" lon="6.75383">
        <ele>2271.2</ele>
        <time>2021-08-03T08:41:08Z</time>
      </trkpt>
      <trkpt lat="45.52313" lon="6.75383">
        <ele>2271.2</ele>
        <time>2021-08-03T08:41:09Z</time>
      </trkpt>
      <trkpt lat="45.52313" lon="6.75383">
        <ele>2271.3</ele>
        <time>2021-08-03T08:41:10Z</time>
      </trkpt>
      <trkpt lat="45.52313" lon="6.75383">
        <ele>2271.3</ele>
        <time>2021-08-03T08:41:11Z</time>
      </trkpt>
      <trkpt lat="45.52313" lon="6.75383">
        <ele>2271.3</ele>
        <time>2021-08-03T08:41:12Z</time>
      </trkpt>
      <trkpt lat="45.52313" lon="6.75383">
        <ele>2271.3</ele>
        <time>2021-08-03T08:41:13Z</time>
      </trkpt>
      <trkpt lat="45.52313" lon="6.75383">
        <ele>2271.4</ele>
        <time>2021-08-03T08:41:14Z</time>
      </trkpt>
      <trkpt lat="45.52313" lon="6.75383">
        <ele>2271.4</ele>
        <time>2021-08-03T08:41:15Z</time>
      </trkpt>
      <trkpt lat="45.52313" lon="6.75383">
        <ele>2271.4</ele>
        <time>2021-08-03T08:41:16Z</time>
      </trkpt>
      <trkpt lat="45.52313" lon="6.75383">
        <ele>2271.4</ele>
        <time>2021-08-03T08:41:17Z</time>
      </trkpt>
      <trkpt lat="45.52313" lon="6.75383">
        <ele>2271.4</ele>
        <time>2021-08-03T08:41:18Z</time>
      </trkpt>
      <trkpt lat="45.52313" lon="6.75383">
        <ele>2271.4</ele>
        <time>2021-08-03T08:41:19Z</time>
      </trkpt>
      <trkpt lat="45.52313" lon="6.75383">
        <ele>2271.4</ele>
        <time>2021-08-03T08:41:20Z</time>
      </trkpt>
      <trkpt lat="45.52313" lon="6.75383">
        <ele>2271.4</ele>
        <time>2021-08-03T08:41:21Z</time>
      </trkpt>
      <trkpt lat="45.52313" lon="6.75383">
        <ele>2271.4</ele>
        <time>2021-08-03T08:41:22Z</time>
      </trkpt>
      <trkpt lat="45.52313" lon="6.75383">
        <ele>2271.4</ele>
        <time>2021-08-03T08:41:23Z</time>
      </trkpt>
      <trkpt lat="45.52313" lon="6.75383">
        <ele>2271.4</ele>
        <time>2021-08-03T08:41:24Z</time>
      </trkpt>
      <trkpt lat="45.52313" lon="6.75383">
        <ele>2271.4</ele>
        <time>2021-08-03T08:41:25Z</time>
      </trkpt>
      <trkpt lat="45.52313" lon="6.75383">
        <ele>2271.4</ele>
        <time>2021-08-03T08:41:26Z</time>
      </trkpt>
      <trkpt lat="45.52313" lon="6.75383">
        <ele>2271.4</ele>
        <time>2021-08-03T08:41:27Z</time>
      </trkpt>
      <trkpt lat="45.52313" lon="6.75383">
        <ele>2271.4</ele>
        <time>2021-08-03T08:41:28Z</time>
      </trkpt>
      <trkpt lat="45.52313" lon="6.75383">
        <ele>2271.4</ele>
        <time>2021-08-03T08:41:29Z</time>
      </trkpt>
      <trkpt lat="45.52313" lon="6.75383">
        <ele>2271.4</ele>
        <time>2021-08-03T08:41:30Z</time>
      </trkpt>
      <trkpt lat="45.52313" lon="6.75383">
        <ele>2271.4</ele>
        <time>2021-08-03T08:41:31Z</time>
      </trkpt>
      <trkpt lat="45.52313" lon="6.75383">
        <ele>2271.4</ele>
        <time>2021-08-03T08:41:32Z</time>
      </trkpt>
      <trkpt lat="45.52313" lon="6.75383">
        <ele>2271.4</ele>
        <time>2021-08-03T08:41:33Z</time>
      </trkpt>
      <trkpt lat="45.52313" lon="6.75383">
        <ele>2271.4</ele>
        <time>2021-08-03T08:41:34Z</time>
      </trkpt>
      <trkpt lat="45.52313" lon="6.75383">
        <ele>2271.4</ele>
        <time>2021-08-03T08:41:35Z</time>
      </trkpt>
      <trkpt lat="45.52313" lon="6.75383">
        <ele>2271.4</ele>
        <time>2021-08-03T08:41:36Z</time>
      </trkpt>
      <trkpt lat="45.52313" lon="6.75383">
        <ele>2271.4</ele>
        <time>2021-08-03T08:41:37Z</time>
      </trkpt>
      <trkpt lat="45.52313" lon="6.75383">
        <ele>2271.4</ele>
        <time>2021-08-03T08:41:38Z</time>
      </trkpt>
      <trkpt lat="45.52313" lon="6.75383">
        <ele>2271.4</ele>
        <time>2021-08-03T08:41:39Z</time>
      </trkpt>
      <trkpt lat="45.52313" lon="6.75383">
        <ele>2271.4</ele>
        <time>2021-08-03T08:41:40Z</time>
      </trkpt>
      <trkpt lat="45.52313" lon="6.75383">
        <ele>2271.4</ele>
        <time>2021-08-03T08:41:41Z</time>
      </trkpt>
      <trkpt lat="45.52313" lon="6.75383">
        <ele>2271.4</ele>
        <time>2021-08-03T08:41:42Z</time>
      </trkpt>
      <trkpt lat="45.52313" lon="6.75383">
        <ele>2271.4</ele>
        <time>2021-08-03T08:41:43Z</time>
      </trkpt>
      <trkpt lat="45.52313" lon="6.75383">
        <ele>2271.4</ele>
        <time>2021-08-03T08:41:44Z</time>
      </trkpt>
      <trkpt lat="45.52313" lon="6.75383">
        <ele>2271.4</ele>
        <time>2021-08-03T08:41:45Z</time>
      </trkpt>
      <trkpt lat="45.52313" lon="6.75383">
        <ele>2271.4</ele>
        <time>2021-08-03T08:41:46Z</time>
      </trkpt>
      <trkpt lat="45.52313" lon="6.75383">
        <ele>2271.4</ele>
        <time>2021-08-03T08:41:47Z</time>
      </trkpt>
      <trkpt lat="45.52313" lon="6.75383">
        <ele>2271.4</ele>
        <time>2021-08-03T08:41:48Z</time>
      </trkpt>
      <trkpt lat="45.52313" lon="6.75383">
        <ele>2271.4</ele>
        <time>2021-08-03T08:41:49Z</time>
      </trkpt>
      <trkpt lat="45.52313" lon="6.75383">
        <ele>2271.4</ele>
        <time>2021-08-03T08:41:50Z</time>
      </trkpt>
      <trkpt lat="45.52313" lon="6.75383">
        <ele>2271.4</ele>
        <time>2021-08-03T08:41:51Z</time>
      </trkpt>
      <trkpt lat="45.52313" lon="6.75383">
        <ele>2271.4</ele>
        <time>2021-08-03T08:41:52Z</time>
      </trkpt>
      <trkpt lat="45.52313" lon="6.75383">
        <ele>2271.4</ele>
        <time>2021-08-03T08:41:53Z</time>
      </trkpt>
      <trkpt lat="45.52313" lon="6.75383">
        <ele>2271.5</ele>
        <time>2021-08-03T08:41:54Z</time>
      </trkpt>
      <trkpt lat="45.52313" lon="6.75383">
        <ele>2271.5</ele>
        <time>2021-08-03T08:41:55Z</time>
      </trkpt>
      <trkpt lat="45.52313" lon="6.75383">
        <ele>2271.5</ele>
        <time>2021-08-03T08:41:56Z</time>
      </trkpt>
      <trkpt lat="45.52313" lon="6.75383">
        <ele>2271.5</ele>
        <time>2021-08-03T08:41:57Z</time>
      </trkpt>
      <trkpt lat="45.52313" lon="6.75383">
        <ele>2271.6</ele>
        <time>2021-08-03T08:41:58Z</time>
      </trkpt>
      <trkpt lat="45.52313" lon="6.75383">
        <ele>2271.6</ele>
        <time>2021-08-03T08:41:59Z</time>
      </trkpt>
      <trkpt lat="45.52313" lon="6.75383">
        <ele>2271.6</ele>
        <time>2021-08-03T08:42:00Z</time>
      </trkpt>
      <trkpt lat="45.52312" lon="6.75383">
        <ele>2271.7</ele>
        <time>2021-08-03T08:42:01Z</time>
      </trkpt>
      <trkpt lat="45.52312" lon="6.75382">
        <ele>2271.7</ele>
        <time>2021-08-03T08:42:02Z</time>
      </trkpt>
      <trkpt lat="45.52312" lon="6.75382">
        <ele>2271.7</ele>
        <time>2021-08-03T08:42:03Z</time>
      </trkpt>
      <trkpt lat="45.52312" lon="6.75382">
        <ele>2271.8</ele>
        <time>2021-08-03T08:42:04Z</time>
      </trkpt>
      <trkpt lat="45.52312" lon="6.75382">
        <ele>2271.8</ele>
        <time>2021-08-03T08:42:05Z</time>
      </trkpt>
      <trkpt lat="45.52312" lon="6.75382">
        <ele>2271.8</ele>
        <time>2021-08-03T08:42:06Z</time>
      </trkpt>
      <trkpt lat="45.52312" lon="6.75382">
        <ele>2271.9</ele>
        <time>2021-08-03T08:42:07Z</time>
      </trkpt>
      <trkpt lat="45.52312" lon="6.75382">
        <ele>2271.9</ele>
        <time>2021-08-03T08:42:08Z</time>
      </trkpt>
      <trkpt lat="45.52312" lon="6.75382">
        <ele>2271.9</ele>
        <time>2021-08-03T08:42:09Z</time>
      </trkpt>
      <trkpt lat="45.52312" lon="6.75382">
        <ele>2272</ele>
        <time>2021-08-03T08:42:10Z</time>
      </trkpt>
      <trkpt lat="45.52312" lon="6.75382">
        <ele>2272</ele>
        <time>2021-08-03T08:42:11Z</time>
      </trkpt>
      <trkpt lat="45.52312" lon="6.75382">
        <ele>2272</ele>
        <time>2021-08-03T08:42:12Z</time>
      </trkpt>
      <trkpt lat="45.52312" lon="6.75382">
        <ele>2272.1</ele>
        <time>2021-08-03T08:42:13Z</time>
      </trkpt>
      <trkpt lat="45.52312" lon="6.75382">
        <ele>2272.1</ele>
        <time>2021-08-03T08:42:14Z</time>
      </trkpt>
      <trkpt lat="45.52312" lon="6.75381">
        <ele>2272.1</ele>
        <time>2021-08-03T08:42:15Z</time>
      </trkpt>
      <trkpt lat="45.52312" lon="6.75381">
        <ele>2272.2</ele>
        <time>2021-08-03T08:42:16Z</time>
      </trkpt>
      <trkpt lat="45.52312" lon="6.75381">
        <ele>2272.2</ele>
        <time>2021-08-03T08:42:17Z</time>
      </trkpt>
      <trkpt lat="45.52312" lon="6.75381">
        <ele>2272.2</ele>
        <time>2021-08-03T08:42:18Z</time>
      </trkpt>
      <trkpt lat="45.52312" lon="6.75381">
        <ele>2272.2</ele>
        <time>2021-08-03T08:42:19Z</time>
      </trkpt>
      <trkpt lat="45.52312" lon="6.75381">
        <ele>2272.2</ele>
        <time>2021-08-03T08:42:20Z</time>
      </trkpt>
      <trkpt lat="45.52312" lon="6.75381">
        <ele>2272.2</ele>
        <time>2021-08-03T08:42:21Z</time>
      </trkpt>
      <trkpt lat="45.52312" lon="6.75381">
        <ele>2272.2</ele>
        <time>2021-08-03T08:42:22Z</time>
      </trkpt>
      <trkpt lat="45.52312" lon="6.75381">
        <ele>2272.2</ele>
        <time>2021-08-03T08:42:23Z</time>
      </trkpt>
      <trkpt lat="45.52312" lon="6.75381">
        <ele>2272.2</ele>
        <time>2021-08-03T08:42:24Z</time>
      </trkpt>
      <trkpt lat="45.52312" lon="6.75381">
        <ele>2272.2</ele>
        <time>2021-08-03T08:42:25Z</time>
      </trkpt>
      <trkpt lat="45.52312" lon="6.75381">
        <ele>2272.2</ele>
        <time>2021-08-03T08:42:26Z</time>
      </trkpt>
      <trkpt lat="45.52312" lon="6.75381">
        <ele>2272.2</ele>
        <time>2021-08-03T08:42:27Z</time>
      </trkpt>
      <trkpt lat="45.52312" lon="6.75381">
        <ele>2272.2</ele>
        <time>2021-08-03T08:42:28Z</time>
      </trkpt>
      <trkpt lat="45.52312" lon="6.75381">
        <ele>2272.3</ele>
        <time>2021-08-03T08:42:29Z</time>
      </trkpt>
      <trkpt lat="45.52312" lon="6.75381">
        <ele>2272.3</ele>
        <time>2021-08-03T08:42:30Z</time>
      </trkpt>
      <trkpt lat="45.52312" lon="6.75381">
        <ele>2272.3</ele>
        <time>2021-08-03T08:42:31Z</time>
      </trkpt>
      <trkpt lat="45.52312" lon="6.75381">
        <ele>2272.3</ele>
        <time>2021-08-03T08:42:32Z</time>
      </trkpt>
      <trkpt lat="45.52312" lon="6.75381">
        <ele>2272.3</ele>
        <time>2021-08-03T08:42:33Z</time>
      </trkpt>
      <trkpt lat="45.52312" lon="6.75381">
        <ele>2272.3</ele>
        <time>2021-08-03T08:42:34Z</time>
      </trkpt>
      <trkpt lat="45.52312" lon="6.75381">
        <ele>2272.3</ele>
        <time>2021-08-03T08:42:35Z</time>
      </trkpt>
      <trkpt lat="45.52312" lon="6.75381">
        <ele>2272.3</ele>
        <time>2021-08-03T08:42:36Z</time>
      </trkpt>
      <trkpt lat="45.52312" lon="6.75381">
        <ele>2272.3</ele>
        <time>2021-08-03T08:42:37Z</time>
      </trkpt>
      <trkpt lat="45.52312" lon="6.75381">
        <ele>2272.3</ele>
        <time>2021-08-03T08:42:38Z</time>
      </trkpt>
      <trkpt lat="45.52312" lon="6.75381">
        <ele>2272.3</ele>
        <time>2021-08-03T08:42:39Z</time>
      </trkpt>
      <trkpt lat="45.52312" lon="6.75381">
        <ele>2272.3</ele>
        <time>2021-08-03T08:42:40Z</time>
      </trkpt>
      <trkpt lat="45.52312" lon="6.75381">
        <ele>2272.4</ele>
        <time>2021-08-03T08:42:41Z</time>
      </trkpt>
      <trkpt lat="45.52311" lon="6.75381">
        <ele>2272.4</ele>
        <time>2021-08-03T08:42:42Z</time>
      </trkpt>
      <trkpt lat="45.52311" lon="6.75381">
        <ele>2272.5</ele>
        <time>2021-08-03T08:42:43Z</time>
      </trkpt>
      <trkpt lat="45.52311" lon="6.75381">
        <ele>2272.5</ele>
        <time>2021-08-03T08:42:44Z</time>
      </trkpt>
      <trkpt lat="45.52311" lon="6.75381">
        <ele>2272.6</ele>
        <time>2021-08-03T08:42:45Z</time>
      </trkpt>
      <trkpt lat="45.52311" lon="6.75381">
        <ele>2272.7</ele>
        <time>2021-08-03T08:42:46Z</time>
      </trkpt>
      <trkpt lat="45.52311" lon="6.75381">
        <ele>2272.8</ele>
        <time>2021-08-03T08:42:47Z</time>
      </trkpt>
      <trkpt lat="45.5231" lon="6.7538">
        <ele>2272.9</ele>
        <time>2021-08-03T08:42:48Z</time>
      </trkpt>
      <trkpt lat="45.5231" lon="6.7538">
        <ele>2273</ele>
        <time>2021-08-03T08:42:49Z</time>
      </trkpt>
      <trkpt lat="45.5231" lon="6.7538">
        <ele>2273.1</ele>
        <time>2021-08-03T08:42:50Z</time>
      </trkpt>
      <trkpt lat="45.5231" lon="6.7538">
        <ele>2273.2</ele>
        <time>2021-08-03T08:42:51Z</time>
      </trkpt>
      <trkpt lat="45.52309" lon="6.7538">
        <ele>2273.3</ele>
        <time>2021-08-03T08:42:52Z</time>
      </trkpt>
      <trkpt lat="45.52309" lon="6.7538">
        <ele>2273.3</ele>
        <time>2021-08-03T08:42:53Z</time>
      </trkpt>
      <trkpt lat="45.52309" lon="6.7538">
        <ele>2273.3</ele>
        <time>2021-08-03T08:42:54Z</time>
      </trkpt>
      <trkpt lat="45.52309" lon="6.7538">
        <ele>2273.3</ele>
        <time>2021-08-03T08:42:55Z</time>
      </trkpt>
      <trkpt lat="45.52309" lon="6.7538">
        <ele>2273.4</ele>
        <time>2021-08-03T08:42:56Z</time>
      </trkpt>
      <trkpt lat="45.52309" lon="6.7538">
        <ele>2273.4</ele>
        <time>2021-08-03T08:42:57Z</time>
      </trkpt>
      <trkpt lat="45.52309" lon="6.7538">
        <ele>2273.6</ele>
        <time>2021-08-03T08:42:58Z</time>
      </trkpt>
      <trkpt lat="45.52308" lon="6.7538">
        <ele>2273.8</ele>
        <time>2021-08-03T08:42:59Z</time>
      </trkpt>
      <trkpt lat="45.52308" lon="6.75379">
        <ele>2274</ele>
        <time>2021-08-03T08:43:00Z</time>
      </trkpt>
      <trkpt lat="45.52307" lon="6.75379">
        <ele>2274.2</ele>
        <time>2021-08-03T08:43:01Z</time>
      </trkpt>
      <trkpt lat="45.52307" lon="6.75379">
        <ele>2274.4</ele>
        <time>2021-08-03T08:43:02Z</time>
      </trkpt>
      <trkpt lat="45.52306" lon="6.75379">
        <ele>2274.6</ele>
        <time>2021-08-03T08:43:03Z</time>
      </trkpt>
      <trkpt lat="45.52306" lon="6.75378">
        <ele>2274.8</ele>
        <time>2021-08-03T08:43:04Z</time>
      </trkpt>
      <trkpt lat="45.52306" lon="6.75378">
        <ele>2274.9</ele>
        <time>2021-08-03T08:43:05Z</time>
      </trkpt>
      <trkpt lat="45.52305" lon="6.75378">
        <ele>2275.1</ele>
        <time>2021-08-03T08:43:06Z</time>
      </trkpt>
      <trkpt lat="45.52305" lon="6.75378">
        <ele>2275.2</ele>
        <time>2021-08-03T08:43:07Z</time>
      </trkpt>
      <trkpt lat="45.52305" lon="6.75377">
        <ele>2275.3</ele>
        <time>2021-08-03T08:43:08Z</time>
      </trkpt>
      <trkpt lat="45.52305" lon="6.75377">
        <ele>2275.4</ele>
        <time>2021-08-03T08:43:09Z</time>
      </trkpt>
      <trkpt lat="45.52305" lon="6.75377">
        <ele>2275.5</ele>
        <time>2021-08-03T08:43:10Z</time>
      </trkpt>
      <trkpt lat="45.52304" lon="6.75377">
        <ele>2275.5</ele>
        <time>2021-08-03T08:43:11Z</time>
      </trkpt>
      <trkpt lat="45.52304" lon="6.75377">
        <ele>2275.6</ele>
        <time>2021-08-03T08:43:12Z</time>
      </trkpt>
      <trkpt lat="45.52304" lon="6.75377">
        <ele>2275.6</ele>
        <time>2021-08-03T08:43:13Z</time>
      </trkpt>
      <trkpt lat="45.52304" lon="6.75377">
        <ele>2275.7</ele>
        <time>2021-08-03T08:43:14Z</time>
      </trkpt>
      <trkpt lat="45.52304" lon="6.75377">
        <ele>2275.7</ele>
        <time>2021-08-03T08:43:15Z</time>
      </trkpt>
      <trkpt lat="45.52304" lon="6.75377">
        <ele>2275.7</ele>
        <time>2021-08-03T08:43:16Z</time>
      </trkpt>
      <trkpt lat="45.52304" lon="6.75377">
        <ele>2275.7</ele>
        <time>2021-08-03T08:43:17Z</time>
      </trkpt>
      <trkpt lat="45.52304" lon="6.75377">
        <ele>2275.7</ele>
        <time>2021-08-03T08:43:18Z</time>
      </trkpt>
      <trkpt lat="45.52304" lon="6.75377">
        <ele>2275.7</ele>
        <time>2021-08-03T08:43:19Z</time>
      </trkpt>
      <trkpt lat="45.52304" lon="6.75377">
        <ele>2275.7</ele>
        <time>2021-08-03T08:43:20Z</time>
      </trkpt>
      <trkpt lat="45.52304" lon="6.75377">
        <ele>2275.7</ele>
        <time>2021-08-03T08:43:21Z</time>
      </trkpt>
      <trkpt lat="45.52304" lon="6.75377">
        <ele>2275.7</ele>
        <time>2021-08-03T08:43:22Z</time>
      </trkpt>
      <trkpt lat="45.52304" lon="6.75377">
        <ele>2275.7</ele>
        <time>2021-08-03T08:43:23Z</time>
      </trkpt>
      <trkpt lat="45.52304" lon="6.75377">
        <ele>2275.7</ele>
        <time>2021-08-03T08:43:24Z</time>
      </trkpt>
      <trkpt lat="45.52304" lon="6.75377">
        <ele>2275.7</ele>
        <time>2021-08-03T08:43:25Z</time>
      </trkpt>
      <trkpt lat="45.52304" lon="6.75377">
        <ele>2275.7</ele>
        <time>2021-08-03T08:43:26Z</time>
      </trkpt>
      <trkpt lat="45.52304" lon="6.75377">
        <ele>2275.7</ele>
        <time>2021-08-03T08:43:27Z</time>
      </trkpt>
      <trkpt lat="45.52304" lon="6.75377">
        <ele>2275.7</ele>
        <time>2021-08-03T08:43:28Z</time>
      </trkpt>
      <trkpt lat="45.52304" lon="6.75377">
        <ele>2275.7</ele>
        <time>2021-08-03T08:43:29Z</time>
      </trkpt>
      <trkpt lat="45.52304" lon="6.75377">
        <ele>2275.7</ele>
        <time>2021-08-03T08:43:30Z</time>
      </trkpt>
      <trkpt lat="45.52304" lon="6.75377">
        <ele>2275.7</ele>
        <time>2021-08-03T08:43:31Z</time>
      </trkpt>
      <trkpt lat="45.52304" lon="6.75377">
        <ele>2275.7</ele>
        <time>2021-08-03T08:43:32Z</time>
      </trkpt>
      <trkpt lat="45.52304" lon="6.75377">
        <ele>2275.7</ele>
        <time>2021-08-03T08:43:33Z</time>
      </trkpt>
      <trkpt lat="45.52304" lon="6.75377">
        <ele>2275.7</ele>
        <time>2021-08-03T08:43:34Z</time>
      </trkpt>
      <trkpt lat="45.52304" lon="6.75377">
        <ele>2275.7</ele>
        <time>2021-08-03T08:43:35Z</time>
      </trkpt>
      <trkpt lat="45.52304" lon="6.75377">
        <ele>2275.7</ele>
        <time>2021-08-03T08:43:36Z</time>
      </trkpt>
      <trkpt lat="45.52304" lon="6.75377">
        <ele>2275.7</ele>
        <time>2021-08-03T08:43:37Z</time>
      </trkpt>
      <trkpt lat="45.52304" lon="6.75377">
        <ele>2275.7</ele>
        <time>2021-08-03T08:43:38Z</time>
      </trkpt>
      <trkpt lat="45.52304" lon="6.75377">
        <ele>2275.7</ele>
        <time>2021-08-03T08:43:39Z</time>
      </trkpt>
      <trkpt lat="45.52304" lon="6.75377">
        <ele>2275.7</ele>
        <time>2021-08-03T08:43:40Z</time>
      </trkpt>
      <trkpt lat="45.52304" lon="6.75377">
        <ele>2275.7</ele>
        <time>2021-08-03T08:43:41Z</time>
      </trkpt>
      <trkpt lat="45.52304" lon="6.75377">
        <ele>2275.7</ele>
        <time>2021-08-03T08:43:42Z</time>
      </trkpt>
      <trkpt lat="45.52304" lon="6.75377">
        <ele>2275.7</ele>
        <time>2021-08-03T08:43:43Z</time>
      </trkpt>
      <trkpt lat="45.52304" lon="6.75377">
        <ele>2275.8</ele>
        <time>2021-08-03T08:43:44Z</time>
      </trkpt>
      <trkpt lat="45.52304" lon="6.75377">
        <ele>2275.8</ele>
        <time>2021-08-03T08:43:45Z</time>
      </trkpt>
      <trkpt lat="45.52304" lon="6.75377">
        <ele>2275.8</ele>
        <time>2021-08-03T08:43:46Z</time>
      </trkpt>
      <trkpt lat="45.52304" lon="6.75377">
        <ele>2275.8</ele>
        <time>2021-08-03T08:43:47Z</time>
      </trkpt>
      <trkpt lat="45.52304" lon="6.75377">
        <ele>2275.8</ele>
        <time>2021-08-03T08:43:48Z</time>
      </trkpt>
      <trkpt lat="45.52304" lon="6.75377">
        <ele>2275.8</ele>
        <time>2021-08-03T08:43:49Z</time>
      </trkpt>
      <trkpt lat="45.52304" lon="6.75377">
        <ele>2275.9</ele>
        <time>2021-08-03T08:43:50Z</time>
      </trkpt>
      <trkpt lat="45.52304" lon="6.75377">
        <ele>2275.9</ele>
        <time>2021-08-03T08:43:51Z</time>
      </trkpt>
      <trkpt lat="45.52304" lon="6.75377">
        <ele>2276</ele>
        <time>2021-08-03T08:43:52Z</time>
      </trkpt>
      <trkpt lat="45.52304" lon="6.75377">
        <ele>2276.1</ele>
        <time>2021-08-03T08:43:53Z</time>
      </trkpt>
      <trkpt lat="45.52303" lon="6.75377">
        <ele>2276.2</ele>
        <time>2021-08-03T08:43:54Z</time>
      </trkpt>
      <trkpt lat="45.52303" lon="6.75378">
        <ele>2276.3</ele>
        <time>2021-08-03T08:43:55Z</time>
      </trkpt>
      <trkpt lat="45.52303" lon="6.75378">
        <ele>2276.4</ele>
        <time>2021-08-03T08:43:56Z</time>
      </trkpt>
      <trkpt lat="45.52303" lon="6.75379">
        <ele>2276.6</ele>
        <time>2021-08-03T08:43:57Z</time>
      </trkpt>
      <trkpt lat="45.52303" lon="6.75379">
        <ele>2276.8</ele>
        <time>2021-08-03T08:43:58Z</time>
      </trkpt>
      <trkpt lat="45.52302" lon="6.7538">
        <ele>2277</ele>
        <time>2021-08-03T08:43:59Z</time>
      </trkpt>
      <trkpt lat="45.52302" lon="6.7538">
        <ele>2277.2</ele>
        <time>2021-08-03T08:44:00Z</time>
      </trkpt>
      <trkpt lat="45.52302" lon="6.75381">
        <ele>2277.4</ele>
        <time>2021-08-03T08:44:01Z</time>
      </trkpt>
      <trkpt lat="45.52302" lon="6.75382">
        <ele>2277.6</ele>
        <time>2021-08-03T08:44:02Z</time>
      </trkpt>
      <trkpt lat="45.52302" lon="6.75383">
        <ele>2277.9</ele>
        <time>2021-08-03T08:44:03Z</time>
      </trkpt>
      <trkpt lat="45.52302" lon="6.75384">
        <ele>2278.2</ele>
        <time>2021-08-03T08:44:04Z</time>
      </trkpt>
      <trkpt lat="45.52302" lon="6.75385">
        <ele>2278.4</ele>
        <time>2021-08-03T08:44:05Z</time>
      </trkpt>
      <trkpt lat="45.52302" lon="6.75386">
        <ele>2278.7</ele>
        <time>2021-08-03T08:44:06Z</time>
      </trkpt>
      <trkpt lat="45.52302" lon="6.75387">
        <ele>2278.9</ele>
        <time>2021-08-03T08:44:07Z</time>
      </trkpt>
      <trkpt lat="45.52302" lon="6.75387">
        <ele>2279.1</ele>
        <time>2021-08-03T08:44:08Z</time>
      </trkpt>
      <trkpt lat="45.52302" lon="6.75388">
        <ele>2279.4</ele>
        <time>2021-08-03T08:44:09Z</time>
      </trkpt>
      <trkpt lat="45.52301" lon="6.75389">
        <ele>2279.5</ele>
        <time>2021-08-03T08:44:10Z</time>
      </trkpt>
      <trkpt lat="45.52301" lon="6.75389">
        <ele>2279.7</ele>
        <time>2021-08-03T08:44:11Z</time>
      </trkpt>
      <trkpt lat="45.52301" lon="6.7539">
        <ele>2279.8</ele>
        <time>2021-08-03T08:44:12Z</time>
      </trkpt>
      <trkpt lat="45.52301" lon="6.7539">
        <ele>2280</ele>
        <time>2021-08-03T08:44:13Z</time>
      </trkpt>
      <trkpt lat="45.52301" lon="6.7539">
        <ele>2280.1</ele>
        <time>2021-08-03T08:44:14Z</time>
      </trkpt>
      <trkpt lat="45.52301" lon="6.75391">
        <ele>2280.1</ele>
        <time>2021-08-03T08:44:15Z</time>
      </trkpt>
      <trkpt lat="45.52301" lon="6.75391">
        <ele>2280.1</ele>
        <time>2021-08-03T08:44:16Z</time>
      </trkpt>
      <trkpt lat="45.52301" lon="6.75391">
        <ele>2280.1</ele>
        <time>2021-08-03T08:44:17Z</time>
      </trkpt>
      <trkpt lat="45.52301" lon="6.75391">
        <ele>2280.1</ele>
        <time>2021-08-03T08:44:18Z</time>
      </trkpt>
      <trkpt lat="45.52301" lon="6.7539">
        <ele>2280.2</ele>
        <time>2021-08-03T08:44:19Z</time>
      </trkpt>
      <trkpt lat="45.52301" lon="6.7539">
        <ele>2280.2</ele>
        <time>2021-08-03T08:44:20Z</time>
      </trkpt>
      <trkpt lat="45.52301" lon="6.7539">
        <ele>2280.2</ele>
        <time>2021-08-03T08:44:21Z</time>
      </trkpt>
      <trkpt lat="45.52301" lon="6.7539">
        <ele>2280.2</ele>
        <time>2021-08-03T08:44:22Z</time>
      </trkpt>
      <trkpt lat="45.52301" lon="6.7539">
        <ele>2280.2</ele>
        <time>2021-08-03T08:44:23Z</time>
      </trkpt>
      <trkpt lat="45.52301" lon="6.7539">
        <ele>2280.3</ele>
        <time>2021-08-03T08:44:24Z</time>
      </trkpt>
      <trkpt lat="45.523" lon="6.75391">
        <ele>2280.3</ele>
        <time>2021-08-03T08:44:25Z</time>
      </trkpt>
      <trkpt lat="45.523" lon="6.75391">
        <ele>2280.4</ele>
        <time>2021-08-03T08:44:26Z</time>
      </trkpt>
      <trkpt lat="45.523" lon="6.7539">
        <ele>2280.6</ele>
        <time>2021-08-03T08:44:27Z</time>
      </trkpt>
      <trkpt lat="45.523" lon="6.7539">
        <ele>2280.7</ele>
        <time>2021-08-03T08:44:28Z</time>
      </trkpt>
      <trkpt lat="45.52299" lon="6.7539">
        <ele>2280.9</ele>
        <time>2021-08-03T08:44:29Z</time>
      </trkpt>
      <trkpt lat="45.52299" lon="6.7539">
        <ele>2281</ele>
        <time>2021-08-03T08:44:30Z</time>
      </trkpt>
      <trkpt lat="45.52299" lon="6.7539">
        <ele>2281.1</ele>
        <time>2021-08-03T08:44:31Z</time>
      </trkpt>
      <trkpt lat="45.52298" lon="6.7539">
        <ele>2281.2</ele>
        <time>2021-08-03T08:44:32Z</time>
      </trkpt>
      <trkpt lat="45.52298" lon="6.7539">
        <ele>2281.2</ele>
        <time>2021-08-03T08:44:33Z</time>
      </trkpt>
      <trkpt lat="45.52298" lon="6.7539">
        <ele>2281.2</ele>
        <time>2021-08-03T08:44:34Z</time>
      </trkpt>
      <trkpt lat="45.52298" lon="6.7539">
        <ele>2281.2</ele>
        <time>2021-08-03T08:44:35Z</time>
      </trkpt>
      <trkpt lat="45.52298" lon="6.7539">
        <ele>2281.2</ele>
        <time>2021-08-03T08:44:36Z</time>
      </trkpt>
      <trkpt lat="45.52298" lon="6.7539">
        <ele>2281.2</ele>
        <time>2021-08-03T08:44:37Z</time>
      </trkpt>
      <trkpt lat="45.52298" lon="6.7539">
        <ele>2281.3</ele>
        <time>2021-08-03T08:44:38Z</time>
      </trkpt>
      <trkpt lat="45.52298" lon="6.7539">
        <ele>2281.3</ele>
        <time>2021-08-03T08:44:39Z</time>
      </trkpt>
      <trkpt lat="45.52298" lon="6.7539">
        <ele>2281.3</ele>
        <time>2021-08-03T08:44:40Z</time>
      </trkpt>
      <trkpt lat="45.52298" lon="6.7539">
        <ele>2281.3</ele>
        <time>2021-08-03T08:44:41Z</time>
      </trkpt>
      <trkpt lat="45.52298" lon="6.7539">
        <ele>2281.3</ele>
        <time>2021-08-03T08:44:42Z</time>
      </trkpt>
      <trkpt lat="45.52298" lon="6.7539">
        <ele>2281.3</ele>
        <time>2021-08-03T08:44:43Z</time>
      </trkpt>
      <trkpt lat="45.52298" lon="6.7539">
        <ele>2281.3</ele>
        <time>2021-08-03T08:44:44Z</time>
      </trkpt>
      <trkpt lat="45.52298" lon="6.7539">
        <ele>2281.3</ele>
        <time>2021-08-03T08:44:45Z</time>
      </trkpt>
      <trkpt lat="45.52298" lon="6.7539">
        <ele>2281.3</ele>
        <time>2021-08-03T08:44:46Z</time>
      </trkpt>
      <trkpt lat="45.52298" lon="6.7539">
        <ele>2281.4</ele>
        <time>2021-08-03T08:44:47Z</time>
      </trkpt>
      <trkpt lat="45.52298" lon="6.7539">
        <ele>2281.4</ele>
        <time>2021-08-03T08:44:48Z</time>
      </trkpt>
      <trkpt lat="45.52298" lon="6.7539">
        <ele>2281.5</ele>
        <time>2021-08-03T08:44:49Z</time>
      </trkpt>
      <trkpt lat="45.52298" lon="6.7539">
        <ele>2281.6</ele>
        <time>2021-08-03T08:44:50Z</time>
      </trkpt>
      <trkpt lat="45.52298" lon="6.75391">
        <ele>2281.7</ele>
        <time>2021-08-03T08:44:51Z</time>
      </trkpt>
      <trkpt lat="45.52297" lon="6.75391">
        <ele>2281.8</ele>
        <time>2021-08-03T08:44:52Z</time>
      </trkpt>
      <trkpt lat="45.52297" lon="6.75391">
        <ele>2281.9</ele>
        <time>2021-08-03T08:44:53Z</time>
      </trkpt>
      <trkpt lat="45.52297" lon="6.75391">
        <ele>2282</ele>
        <time>2021-08-03T08:44:54Z</time>
      </trkpt>
      <trkpt lat="45.52297" lon="6.75391">
        <ele>2282.1</ele>
        <time>2021-08-03T08:44:55Z</time>
      </trkpt>
      <trkpt lat="45.52296" lon="6.75392">
        <ele>2282.3</ele>
        <time>2021-08-03T08:44:56Z</time>
      </trkpt>
      <trkpt lat="45.52296" lon="6.75392">
        <ele>2282.4</ele>
        <time>2021-08-03T08:44:57Z</time>
      </trkpt>
      <trkpt lat="45.52296" lon="6.75392">
        <ele>2282.6</ele>
        <time>2021-08-03T08:44:58Z</time>
      </trkpt>
      <trkpt lat="45.52295" lon="6.75393">
        <ele>2282.8</ele>
        <time>2021-08-03T08:44:59Z</time>
      </trkpt>
      <trkpt lat="45.52295" lon="6.75393">
        <ele>2283</ele>
        <time>2021-08-03T08:45:00Z</time>
      </trkpt>
      <trkpt lat="45.52294" lon="6.75393">
        <ele>2283.2</ele>
        <time>2021-08-03T08:45:01Z</time>
      </trkpt>
      <trkpt lat="45.52294" lon="6.75393">
        <ele>2283.4</ele>
        <time>2021-08-03T08:45:02Z</time>
      </trkpt>
      <trkpt lat="45.52293" lon="6.75393">
        <ele>2283.5</ele>
        <time>2021-08-03T08:45:03Z</time>
      </trkpt>
      <trkpt lat="45.52293" lon="6.75393">
        <ele>2283.7</ele>
        <time>2021-08-03T08:45:04Z</time>
      </trkpt>
      <trkpt lat="45.52292" lon="6.75393">
        <ele>2283.9</ele>
        <time>2021-08-03T08:45:05Z</time>
      </trkpt>
      <trkpt lat="45.52292" lon="6.75393">
        <ele>2284.1</ele>
        <time>2021-08-03T08:45:06Z</time>
      </trkpt>
      <trkpt lat="45.52292" lon="6.75393">
        <ele>2284.3</ele>
        <time>2021-08-03T08:45:07Z</time>
      </trkpt>
      <trkpt lat="45.52291" lon="6.75393">
        <ele>2284.4</ele>
        <time>2021-08-03T08:45:08Z</time>
      </trkpt>
      <trkpt lat="45.52291" lon="6.75393">
        <ele>2284.5</ele>
        <time>2021-08-03T08:45:09Z</time>
      </trkpt>
      <trkpt lat="45.52291" lon="6.75393">
        <ele>2284.5</ele>
        <time>2021-08-03T08:45:10Z</time>
      </trkpt>
      <trkpt lat="45.52291" lon="6.75393">
        <ele>2284.6</ele>
        <time>2021-08-03T08:45:11Z</time>
      </trkpt>
      <trkpt lat="45.52291" lon="6.75393">
        <ele>2284.6</ele>
        <time>2021-08-03T08:45:12Z</time>
      </trkpt>
      <trkpt lat="45.52291" lon="6.75393">
        <ele>2284.6</ele>
        <time>2021-08-03T08:45:13Z</time>
      </trkpt>
      <trkpt lat="45.52291" lon="6.75393">
        <ele>2284.6</ele>
        <time>2021-08-03T08:45:14Z</time>
      </trkpt>
      <trkpt lat="45.52291" lon="6.75393">
        <ele>2284.6</ele>
        <time>2021-08-03T08:45:15Z</time>
      </trkpt>
      <trkpt lat="45.52291" lon="6.75393">
        <ele>2284.7</ele>
        <time>2021-08-03T08:45:16Z</time>
      </trkpt>
      <trkpt lat="45.5229" lon="6.75392">
        <ele>2284.8</ele>
        <time>2021-08-03T08:45:17Z</time>
      </trkpt>
      <trkpt lat="45.5229" lon="6.75392">
        <ele>2285</ele>
        <time>2021-08-03T08:45:18Z</time>
      </trkpt>
      <trkpt lat="45.5229" lon="6.75393">
        <ele>2285.2</ele>
        <time>2021-08-03T08:45:19Z</time>
      </trkpt>
      <trkpt lat="45.52289" lon="6.75393">
        <ele>2285.4</ele>
        <time>2021-08-03T08:45:20Z</time>
      </trkpt>
      <trkpt lat="45.52288" lon="6.75393">
        <ele>2285.6</ele>
        <time>2021-08-03T08:45:21Z</time>
      </trkpt>
      <trkpt lat="45.52288" lon="6.75393">
        <ele>2285.8</ele>
        <time>2021-08-03T08:45:22Z</time>
      </trkpt>
      <trkpt lat="45.52288" lon="6.75394">
        <ele>2285.8</ele>
        <time>2021-08-03T08:45:23Z</time>
      </trkpt>
      <trkpt lat="45.52288" lon="6.75394">
        <ele>2285.9</ele>
        <time>2021-08-03T08:45:24Z</time>
      </trkpt>
      <trkpt lat="45.52288" lon="6.75394">
        <ele>2285.9</ele>
        <time>2021-08-03T08:45:25Z</time>
      </trkpt>
      <trkpt lat="45.52288" lon="6.75394">
        <ele>2286</ele>
        <time>2021-08-03T08:45:26Z</time>
      </trkpt>
      <trkpt lat="45.52287" lon="6.75394">
        <ele>2286.1</ele>
        <time>2021-08-03T08:45:27Z</time>
      </trkpt>
      <trkpt lat="45.52287" lon="6.75394">
        <ele>2286.3</ele>
        <time>2021-08-03T08:45:28Z</time>
      </trkpt>
      <trkpt lat="45.52287" lon="6.75395">
        <ele>2286.5</ele>
        <time>2021-08-03T08:45:29Z</time>
      </trkpt>
      <trkpt lat="45.52286" lon="6.75395">
        <ele>2286.6</ele>
        <time>2021-08-03T08:45:30Z</time>
      </trkpt>
      <trkpt lat="45.52286" lon="6.75395">
        <ele>2286.8</ele>
        <time>2021-08-03T08:45:31Z</time>
      </trkpt>
      <trkpt lat="45.52286" lon="6.75396">
        <ele>2286.9</ele>
        <time>2021-08-03T08:45:32Z</time>
      </trkpt>
      <trkpt lat="45.52286" lon="6.75396">
        <ele>2287</ele>
        <time>2021-08-03T08:45:33Z</time>
      </trkpt>
      <trkpt lat="45.52285" lon="6.75396">
        <ele>2287.1</ele>
        <time>2021-08-03T08:45:34Z</time>
      </trkpt>
      <trkpt lat="45.52285" lon="6.75396">
        <ele>2287.1</ele>
        <time>2021-08-03T08:45:35Z</time>
      </trkpt>
      <trkpt lat="45.52285" lon="6.75396">
        <ele>2287.1</ele>
        <time>2021-08-03T08:45:36Z</time>
      </trkpt>
      <trkpt lat="45.52285" lon="6.75396">
        <ele>2287.1</ele>
        <time>2021-08-03T08:45:37Z</time>
      </trkpt>
      <trkpt lat="45.52285" lon="6.75396">
        <ele>2287.2</ele>
        <time>2021-08-03T08:45:38Z</time>
      </trkpt>
      <trkpt lat="45.52286" lon="6.75396">
        <ele>2287.2</ele>
        <time>2021-08-03T08:45:39Z</time>
      </trkpt>
      <trkpt lat="45.52286" lon="6.75396">
        <ele>2287.2</ele>
        <time>2021-08-03T08:45:40Z</time>
      </trkpt>
      <trkpt lat="45.52286" lon="6.75396">
        <ele>2287.3</ele>
        <time>2021-08-03T08:45:41Z</time>
      </trkpt>
      <trkpt lat="45.52286" lon="6.75396">
        <ele>2287.4</ele>
        <time>2021-08-03T08:45:42Z</time>
      </trkpt>
      <trkpt lat="45.52286" lon="6.75397">
        <ele>2287.4</ele>
        <time>2021-08-03T08:45:43Z</time>
      </trkpt>
      <trkpt lat="45.52286" lon="6.75397">
        <ele>2287.5</ele>
        <time>2021-08-03T08:45:44Z</time>
      </trkpt>
      <trkpt lat="45.52286" lon="6.75397">
        <ele>2287.6</ele>
        <time>2021-08-03T08:45:45Z</time>
      </trkpt>
      <trkpt lat="45.52286" lon="6.75398">
        <ele>2287.8</ele>
        <time>2021-08-03T08:45:46Z</time>
      </trkpt>
      <trkpt lat="45.52286" lon="6.75398">
        <ele>2287.9</ele>
        <time>2021-08-03T08:45:47Z</time>
      </trkpt>
      <trkpt lat="45.52286" lon="6.75399">
        <ele>2288.1</ele>
        <time>2021-08-03T08:45:48Z</time>
      </trkpt>
      <trkpt lat="45.52286" lon="6.754">
        <ele>2288.3</ele>
        <time>2021-08-03T08:45:49Z</time>
      </trkpt>
      <trkpt lat="45.52286" lon="6.754">
        <ele>2288.5</ele>
        <time>2021-08-03T08:45:50Z</time>
      </trkpt>
      <trkpt lat="45.52286" lon="6.75401">
        <ele>2288.7</ele>
        <time>2021-08-03T08:45:51Z</time>
      </trkpt>
      <trkpt lat="45.52286" lon="6.75402">
        <ele>2288.9</ele>
        <time>2021-08-03T08:45:52Z</time>
      </trkpt>
      <trkpt lat="45.52286" lon="6.75403">
        <ele>2289.2</ele>
        <time>2021-08-03T08:45:53Z</time>
      </trkpt>
      <trkpt lat="45.52285" lon="6.75404">
        <ele>2289.4</ele>
        <time>2021-08-03T08:45:54Z</time>
      </trkpt>
      <trkpt lat="45.52285" lon="6.75404">
        <ele>2289.6</ele>
        <time>2021-08-03T08:45:55Z</time>
      </trkpt>
      <trkpt lat="45.52285" lon="6.75405">
        <ele>2289.9</ele>
        <time>2021-08-03T08:45:56Z</time>
      </trkpt>
      <trkpt lat="45.52285" lon="6.75406">
        <ele>2290.1</ele>
        <time>2021-08-03T08:45:57Z</time>
      </trkpt>
      <trkpt lat="45.52285" lon="6.75407">
        <ele>2290.3</ele>
        <time>2021-08-03T08:45:58Z</time>
      </trkpt>
      <trkpt lat="45.52285" lon="6.75408">
        <ele>2290.6</ele>
        <time>2021-08-03T08:45:59Z</time>
      </trkpt>
      <trkpt lat="45.52285" lon="6.75408">
        <ele>2290.8</ele>
        <time>2021-08-03T08:46:00Z</time>
      </trkpt>
      <trkpt lat="45.52285" lon="6.75409">
        <ele>2291</ele>
        <time>2021-08-03T08:46:01Z</time>
      </trkpt>
      <trkpt lat="45.52285" lon="6.7541">
        <ele>2291.2</ele>
        <time>2021-08-03T08:46:02Z</time>
      </trkpt>
      <trkpt lat="45.52284" lon="6.75411">
        <ele>2291.4</ele>
        <time>2021-08-03T08:46:03Z</time>
      </trkpt>
      <trkpt lat="45.52284" lon="6.75411">
        <ele>2291.6</ele>
        <time>2021-08-03T08:46:04Z</time>
      </trkpt>
      <trkpt lat="45.52284" lon="6.75412">
        <ele>2291.8</ele>
        <time>2021-08-03T08:46:05Z</time>
      </trkpt>
      <trkpt lat="45.52284" lon="6.75412">
        <ele>2292</ele>
        <time>2021-08-03T08:46:06Z</time>
      </trkpt>
      <trkpt lat="45.52284" lon="6.75413">
        <ele>2292.1</ele>
        <time>2021-08-03T08:46:07Z</time>
      </trkpt>
      <trkpt lat="45.52284" lon="6.75414">
        <ele>2292.3</ele>
        <time>2021-08-03T08:46:08Z</time>
      </trkpt>
      <trkpt lat="45.52284" lon="6.75414">
        <ele>2292.5</ele>
        <time>2021-08-03T08:46:09Z</time>
      </trkpt>
      <trkpt lat="45.52283" lon="6.75415">
        <ele>2292.6</ele>
        <time>2021-08-03T08:46:10Z</time>
      </trkpt>
      <trkpt lat="45.52283" lon="6.75415">
        <ele>2292.8</ele>
        <time>2021-08-03T08:46:11Z</time>
      </trkpt>
      <trkpt lat="45.52283" lon="6.75416">
        <ele>2292.9</ele>
        <time>2021-08-03T08:46:12Z</time>
      </trkpt>
      <trkpt lat="45.52283" lon="6.75416">
        <ele>2293.1</ele>
        <time>2021-08-03T08:46:13Z</time>
      </trkpt>
      <trkpt lat="45.52283" lon="6.75416">
        <ele>2293.2</ele>
        <time>2021-08-03T08:46:14Z</time>
      </trkpt>
      <trkpt lat="45.52283" lon="6.75417">
        <ele>2293.3</ele>
        <time>2021-08-03T08:46:15Z</time>
      </trkpt>
      <trkpt lat="45.52283" lon="6.75417">
        <ele>2293.4</ele>
        <time>2021-08-03T08:46:16Z</time>
      </trkpt>
      <trkpt lat="45.52282" lon="6.75418">
        <ele>2293.5</ele>
        <time>2021-08-03T08:46:17Z</time>
      </trkpt>
      <trkpt lat="45.52282" lon="6.75418">
        <ele>2293.6</ele>
        <time>2021-08-03T08:46:18Z</time>
      </trkpt>
      <trkpt lat="45.52282" lon="6.75418">
        <ele>2293.7</ele>
        <time>2021-08-03T08:46:19Z</time>
      </trkpt>
      <trkpt lat="45.52282" lon="6.75418">
        <ele>2293.7</ele>
        <time>2021-08-03T08:46:20Z</time>
      </trkpt>
      <trkpt lat="45.52282" lon="6.75418">
        <ele>2293.8</ele>
        <time>2021-08-03T08:46:21Z</time>
      </trkpt>
      <trkpt lat="45.52282" lon="6.75418">
        <ele>2293.8</ele>
        <time>2021-08-03T08:46:22Z</time>
      </trkpt>
      <trkpt lat="45.52282" lon="6.75418">
        <ele>2293.8</ele>
        <time>2021-08-03T08:46:23Z</time>
      </trkpt>
      <trkpt lat="45.52282" lon="6.75418">
        <ele>2293.8</ele>
        <time>2021-08-03T08:46:24Z</time>
      </trkpt>
      <trkpt lat="45.52282" lon="6.75418">
        <ele>2293.8</ele>
        <time>2021-08-03T08:46:25Z</time>
      </trkpt>
      <trkpt lat="45.52282" lon="6.75418">
        <ele>2293.9</ele>
        <time>2021-08-03T08:46:26Z</time>
      </trkpt>
      <trkpt lat="45.52282" lon="6.75418">
        <ele>2293.9</ele>
        <time>2021-08-03T08:46:27Z</time>
      </trkpt>
      <trkpt lat="45.52282" lon="6.75418">
        <ele>2293.9</ele>
        <time>2021-08-03T08:46:28Z</time>
      </trkpt>
      <trkpt lat="45.52282" lon="6.75418">
        <ele>2293.9</ele>
        <time>2021-08-03T08:46:29Z</time>
      </trkpt>
      <trkpt lat="45.52282" lon="6.75418">
        <ele>2294</ele>
        <time>2021-08-03T08:46:30Z</time>
      </trkpt>
      <trkpt lat="45.52282" lon="6.75418">
        <ele>2294</ele>
        <time>2021-08-03T08:46:31Z</time>
      </trkpt>
      <trkpt lat="45.52282" lon="6.75418">
        <ele>2294.1</ele>
        <time>2021-08-03T08:46:32Z</time>
      </trkpt>
      <trkpt lat="45.52281" lon="6.75418">
        <ele>2294.3</ele>
        <time>2021-08-03T08:46:33Z</time>
      </trkpt>
      <trkpt lat="45.52281" lon="6.75418">
        <ele>2294.5</ele>
        <time>2021-08-03T08:46:34Z</time>
      </trkpt>
      <trkpt lat="45.5228" lon="6.75418">
        <ele>2294.7</ele>
        <time>2021-08-03T08:46:35Z</time>
      </trkpt>
      <trkpt lat="45.5228" lon="6.75419">
        <ele>2294.9</ele>
        <time>2021-08-03T08:46:36Z</time>
      </trkpt>
      <trkpt lat="45.52279" lon="6.75419">
        <ele>2295.2</ele>
        <time>2021-08-03T08:46:37Z</time>
      </trkpt>
      <trkpt lat="45.52279" lon="6.7542">
        <ele>2295.4</ele>
        <time>2021-08-03T08:46:38Z</time>
      </trkpt>
      <trkpt lat="45.52279" lon="6.75421">
        <ele>2295.6</ele>
        <time>2021-08-03T08:46:39Z</time>
      </trkpt>
      <trkpt lat="45.52279" lon="6.75422">
        <ele>2295.9</ele>
        <time>2021-08-03T08:46:40Z</time>
      </trkpt>
      <trkpt lat="45.52278" lon="6.75423">
        <ele>2296.1</ele>
        <time>2021-08-03T08:46:41Z</time>
      </trkpt>
      <trkpt lat="45.52278" lon="6.75424">
        <ele>2296.4</ele>
        <time>2021-08-03T08:46:42Z</time>
      </trkpt>
      <trkpt lat="45.52278" lon="6.75425">
        <ele>2296.7</ele>
        <time>2021-08-03T08:46:43Z</time>
      </trkpt>
      <trkpt lat="45.52278" lon="6.75426">
        <ele>2297</ele>
        <time>2021-08-03T08:46:44Z</time>
      </trkpt>
      <trkpt lat="45.52278" lon="6.75427">
        <ele>2297.3</ele>
        <time>2021-08-03T08:46:45Z</time>
      </trkpt>
      <trkpt lat="45.52278" lon="6.75428">
        <ele>2297.5</ele>
        <time>2021-08-03T08:46:46Z</time>
      </trkpt>
      <trkpt lat="45.52278" lon="6.75429">
        <ele>2297.8</ele>
        <time>2021-08-03T08:46:47Z</time>
      </trkpt>
      <trkpt lat="45.52278" lon="6.75429">
        <ele>2298.1</ele>
        <time>2021-08-03T08:46:48Z</time>
      </trkpt>
      <trkpt lat="45.52278" lon="6.7543">
        <ele>2298.3</ele>
        <time>2021-08-03T08:46:49Z</time>
      </trkpt>
      <trkpt lat="45.52278" lon="6.75431">
        <ele>2298.5</ele>
        <time>2021-08-03T08:46:50Z</time>
      </trkpt>
      <trkpt lat="45.52278" lon="6.75432">
        <ele>2298.7</ele>
        <time>2021-08-03T08:46:51Z</time>
      </trkpt>
      <trkpt lat="45.52278" lon="6.75432">
        <ele>2298.9</ele>
        <time>2021-08-03T08:46:52Z</time>
      </trkpt>
      <trkpt lat="45.52278" lon="6.75433">
        <ele>2299</ele>
        <time>2021-08-03T08:46:53Z</time>
      </trkpt>
      <trkpt lat="45.52278" lon="6.75433">
        <ele>2299.1</ele>
        <time>2021-08-03T08:46:54Z</time>
      </trkpt>
      <trkpt lat="45.52278" lon="6.75433">
        <ele>2299.2</ele>
        <time>2021-08-03T08:46:55Z</time>
      </trkpt>
      <trkpt lat="45.52278" lon="6.75434">
        <ele>2299.2</ele>
        <time>2021-08-03T08:46:56Z</time>
      </trkpt>
      <trkpt lat="45.52278" lon="6.75434">
        <ele>2299.3</ele>
        <time>2021-08-03T08:46:57Z</time>
      </trkpt>
      <trkpt lat="45.52278" lon="6.75434">
        <ele>2299.3</ele>
        <time>2021-08-03T08:46:58Z</time>
      </trkpt>
      <trkpt lat="45.52278" lon="6.75434">
        <ele>2299.3</ele>
        <time>2021-08-03T08:46:59Z</time>
      </trkpt>
      <trkpt lat="45.52278" lon="6.75434">
        <ele>2299.3</ele>
        <time>2021-08-03T08:47:00Z</time>
      </trkpt>
      <trkpt lat="45.52278" lon="6.75434">
        <ele>2299.3</ele>
        <time>2021-08-03T08:47:01Z</time>
      </trkpt>
      <trkpt lat="45.52278" lon="6.75434">
        <ele>2299.3</ele>
        <time>2021-08-03T08:47:02Z</time>
      </trkpt>
      <trkpt lat="45.52278" lon="6.75434">
        <ele>2299.3</ele>
        <time>2021-08-03T08:47:03Z</time>
      </trkpt>
      <trkpt lat="45.52278" lon="6.75434">
        <ele>2299.3</ele>
        <time>2021-08-03T08:47:04Z</time>
      </trkpt>
      <trkpt lat="45.52278" lon="6.75434">
        <ele>2299.3</ele>
        <time>2021-08-03T08:47:05Z</time>
      </trkpt>
      <trkpt lat="45.52278" lon="6.75434">
        <ele>2299.3</ele>
        <time>2021-08-03T08:47:06Z</time>
      </trkpt>
      <trkpt lat="45.52278" lon="6.75434">
        <ele>2299.3</ele>
        <time>2021-08-03T08:47:07Z</time>
      </trkpt>
      <trkpt lat="45.52278" lon="6.75434">
        <ele>2299.3</ele>
        <time>2021-08-03T08:47:08Z</time>
      </trkpt>
      <trkpt lat="45.52278" lon="6.75434">
        <ele>2299.3</ele>
        <time>2021-08-03T08:47:09Z</time>
      </trkpt>
      <trkpt lat="45.52278" lon="6.75434">
        <ele>2299.3</ele>
        <time>2021-08-03T08:47:10Z</time>
      </trkpt>
      <trkpt lat="45.52278" lon="6.75434">
        <ele>2299.3</ele>
        <time>2021-08-03T08:47:11Z</time>
      </trkpt>
      <trkpt lat="45.52278" lon="6.75434">
        <ele>2299.3</ele>
        <time>2021-08-03T08:47:12Z</time>
      </trkpt>
      <trkpt lat="45.52278" lon="6.75434">
        <ele>2299.3</ele>
        <time>2021-08-03T08:47:13Z</time>
      </trkpt>
      <trkpt lat="45.52278" lon="6.75434">
        <ele>2299.3</ele>
        <time>2021-08-03T08:47:14Z</time>
      </trkpt>
      <trkpt lat="45.52278" lon="6.75434">
        <ele>2299.3</ele>
        <time>2021-08-03T08:47:15Z</time>
      </trkpt>
      <trkpt lat="45.52278" lon="6.75434">
        <ele>2299.3</ele>
        <time>2021-08-03T08:47:16Z</time>
      </trkpt>
      <trkpt lat="45.52278" lon="6.75434">
        <ele>2299.3</ele>
        <time>2021-08-03T08:47:17Z</time>
      </trkpt>
      <trkpt lat="45.52278" lon="6.75434">
        <ele>2299.3</ele>
        <time>2021-08-03T08:47:18Z</time>
      </trkpt>
      <trkpt lat="45.52278" lon="6.75434">
        <ele>2299.3</ele>
        <time>2021-08-03T08:47:19Z</time>
      </trkpt>
      <trkpt lat="45.52278" lon="6.75434">
        <ele>2299.3</ele>
        <time>2021-08-03T08:47:20Z</time>
      </trkpt>
      <trkpt lat="45.52278" lon="6.75434">
        <ele>2299.3</ele>
        <time>2021-08-03T08:47:21Z</time>
      </trkpt>
      <trkpt lat="45.52278" lon="6.75434">
        <ele>2299.3</ele>
        <time>2021-08-03T08:47:22Z</time>
      </trkpt>
      <trkpt lat="45.52278" lon="6.75434">
        <ele>2299.3</ele>
        <time>2021-08-03T08:47:23Z</time>
      </trkpt>
      <trkpt lat="45.52278" lon="6.75434">
        <ele>2299.3</ele>
        <time>2021-08-03T08:47:24Z</time>
      </trkpt>
      <trkpt lat="45.52278" lon="6.75434">
        <ele>2299.3</ele>
        <time>2021-08-03T08:47:25Z</time>
      </trkpt>
      <trkpt lat="45.52278" lon="6.75434">
        <ele>2299.3</ele>
        <time>2021-08-03T08:47:26Z</time>
      </trkpt>
      <trkpt lat="45.52278" lon="6.75434">
        <ele>2299.3</ele>
        <time>2021-08-03T08:47:27Z</time>
      </trkpt>
      <trkpt lat="45.52278" lon="6.75434">
        <ele>2299.3</ele>
        <time>2021-08-03T08:47:28Z</time>
      </trkpt>
      <trkpt lat="45.52278" lon="6.75434">
        <ele>2299.3</ele>
        <time>2021-08-03T08:47:29Z</time>
      </trkpt>
      <trkpt lat="45.52278" lon="6.75434">
        <ele>2299.3</ele>
        <time>2021-08-03T08:47:30Z</time>
      </trkpt>
      <trkpt lat="45.52278" lon="6.75434">
        <ele>2299.3</ele>
        <time>2021-08-03T08:47:31Z</time>
      </trkpt>
      <trkpt lat="45.52278" lon="6.75434">
        <ele>2299.3</ele>
        <time>2021-08-03T08:47:32Z</time>
      </trkpt>
      <trkpt lat="45.52278" lon="6.75434">
        <ele>2299.3</ele>
        <time>2021-08-03T08:47:33Z</time>
      </trkpt>
      <trkpt lat="45.52278" lon="6.75434">
        <ele>2299.3</ele>
        <time>2021-08-03T08:47:34Z</time>
      </trkpt>
      <trkpt lat="45.52278" lon="6.75434">
        <ele>2299.3</ele>
        <time>2021-08-03T08:47:35Z</time>
      </trkpt>
      <trkpt lat="45.52278" lon="6.75434">
        <ele>2299.3</ele>
        <time>2021-08-03T08:47:36Z</time>
      </trkpt>
      <trkpt lat="45.52278" lon="6.75434">
        <ele>2299.3</ele>
        <time>2021-08-03T08:47:37Z</time>
      </trkpt>
      <trkpt lat="45.52278" lon="6.75434">
        <ele>2299.3</ele>
        <time>2021-08-03T08:47:38Z</time>
      </trkpt>
      <trkpt lat="45.52278" lon="6.75434">
        <ele>2299.3</ele>
        <time>2021-08-03T08:47:39Z</time>
      </trkpt>
      <trkpt lat="45.52278" lon="6.75434">
        <ele>2299.3</ele>
        <time>2021-08-03T08:47:40Z</time>
      </trkpt>
      <trkpt lat="45.52278" lon="6.75434">
        <ele>2299.3</ele>
        <time>2021-08-03T08:47:41Z</time>
      </trkpt>
      <trkpt lat="45.52278" lon="6.75434">
        <ele>2299.3</ele>
        <time>2021-08-03T08:47:42Z</time>
      </trkpt>
      <trkpt lat="45.52278" lon="6.75434">
        <ele>2299.3</ele>
        <time>2021-08-03T08:47:43Z</time>
      </trkpt>
      <trkpt lat="45.52278" lon="6.75434">
        <ele>2299.3</ele>
        <time>2021-08-03T08:47:44Z</time>
      </trkpt>
      <trkpt lat="45.52278" lon="6.75434">
        <ele>2299.3</ele>
        <time>2021-08-03T08:47:45Z</time>
      </trkpt>
      <trkpt lat="45.52278" lon="6.75434">
        <ele>2299.3</ele>
        <time>2021-08-03T08:47:46Z</time>
      </trkpt>
      <trkpt lat="45.52278" lon="6.75434">
        <ele>2299.3</ele>
        <time>2021-08-03T08:47:47Z</time>
      </trkpt>
      <trkpt lat="45.52278" lon="6.75434">
        <ele>2299.3</ele>
        <time>2021-08-03T08:47:48Z</time>
      </trkpt>
      <trkpt lat="45.52278" lon="6.75434">
        <ele>2299.3</ele>
        <time>2021-08-03T08:47:49Z</time>
      </trkpt>
      <trkpt lat="45.52278" lon="6.75434">
        <ele>2299.3</ele>
        <time>2021-08-03T08:47:50Z</time>
      </trkpt>
      <trkpt lat="45.52278" lon="6.75434">
        <ele>2299.3</ele>
        <time>2021-08-03T08:47:51Z</time>
      </trkpt>
      <trkpt lat="45.52278" lon="6.75434">
        <ele>2299.3</ele>
        <time>2021-08-03T08:47:52Z</time>
      </trkpt>
      <trkpt lat="45.52278" lon="6.75434">
        <ele>2299.3</ele>
        <time>2021-08-03T08:47:53Z</time>
      </trkpt>
      <trkpt lat="45.52278" lon="6.75434">
        <ele>2299.3</ele>
        <time>2021-08-03T08:47:54Z</time>
      </trkpt>
      <trkpt lat="45.52278" lon="6.75434">
        <ele>2299.3</ele>
        <time>2021-08-03T08:47:55Z</time>
      </trkpt>
      <trkpt lat="45.52278" lon="6.75434">
        <ele>2299.3</ele>
        <time>2021-08-03T08:47:56Z</time>
      </trkpt>
      <trkpt lat="45.52278" lon="6.75434">
        <ele>2299.3</ele>
        <time>2021-08-03T08:47:57Z</time>
      </trkpt>
      <trkpt lat="45.52278" lon="6.75434">
        <ele>2299.3</ele>
        <time>2021-08-03T08:47:58Z</time>
      </trkpt>
      <trkpt lat="45.52278" lon="6.75434">
        <ele>2299.3</ele>
        <time>2021-08-03T08:47:59Z</time>
      </trkpt>
      <trkpt lat="45.52278" lon="6.75434">
        <ele>2299.3</ele>
        <time>2021-08-03T08:48:00Z</time>
      </trkpt>
      <trkpt lat="45.52278" lon="6.75434">
        <ele>2299.3</ele>
        <time>2021-08-03T08:48:01Z</time>
      </trkpt>
      <trkpt lat="45.52278" lon="6.75434">
        <ele>2299.4</ele>
        <time>2021-08-03T08:48:02Z</time>
      </trkpt>
      <trkpt lat="45.52278" lon="6.75434">
        <ele>2299.4</ele>
        <time>2021-08-03T08:48:03Z</time>
      </trkpt>
      <trkpt lat="45.52278" lon="6.75434">
        <ele>2299.4</ele>
        <time>2021-08-03T08:48:04Z</time>
      </trkpt>
      <trkpt lat="45.52278" lon="6.75434">
        <ele>2299.5</ele>
        <time>2021-08-03T08:48:05Z</time>
      </trkpt>
      <trkpt lat="45.52278" lon="6.75434">
        <ele>2299.5</ele>
        <time>2021-08-03T08:48:06Z</time>
      </trkpt>
      <trkpt lat="45.52278" lon="6.75434">
        <ele>2299.5</ele>
        <time>2021-08-03T08:48:07Z</time>
      </trkpt>
      <trkpt lat="45.52278" lon="6.75434">
        <ele>2299.5</ele>
        <time>2021-08-03T08:48:08Z</time>
      </trkpt>
      <trkpt lat="45.52278" lon="6.75434">
        <ele>2299.6</ele>
        <time>2021-08-03T08:48:09Z</time>
      </trkpt>
      <trkpt lat="45.52278" lon="6.75434">
        <ele>2299.6</ele>
        <time>2021-08-03T08:48:10Z</time>
      </trkpt>
      <trkpt lat="45.52278" lon="6.75434">
        <ele>2299.6</ele>
        <time>2021-08-03T08:48:11Z</time>
      </trkpt>
      <trkpt lat="45.52278" lon="6.75434">
        <ele>2299.7</ele>
        <time>2021-08-03T08:48:12Z</time>
      </trkpt>
      <trkpt lat="45.52278" lon="6.75434">
        <ele>2299.7</ele>
        <time>2021-08-03T08:48:13Z</time>
      </trkpt>
      <trkpt lat="45.52278" lon="6.75434">
        <ele>2299.7</ele>
        <time>2021-08-03T08:48:14Z</time>
      </trkpt>
      <trkpt lat="45.52278" lon="6.75434">
        <ele>2299.8</ele>
        <time>2021-08-03T08:48:15Z</time>
      </trkpt>
      <trkpt lat="45.52278" lon="6.75434">
        <ele>2299.8</ele>
        <time>2021-08-03T08:48:16Z</time>
      </trkpt>
      <trkpt lat="45.52278" lon="6.75434">
        <ele>2299.8</ele>
        <time>2021-08-03T08:48:17Z</time>
      </trkpt>
      <trkpt lat="45.52278" lon="6.75434">
        <ele>2299.8</ele>
        <time>2021-08-03T08:48:18Z</time>
      </trkpt>
      <trkpt lat="45.52278" lon="6.75434">
        <ele>2299.9</ele>
        <time>2021-08-03T08:48:19Z</time>
      </trkpt>
      <trkpt lat="45.52278" lon="6.75434">
        <ele>2299.9</ele>
        <time>2021-08-03T08:48:20Z</time>
      </trkpt>
      <trkpt lat="45.52277" lon="6.75434">
        <ele>2300</ele>
        <time>2021-08-03T08:48:21Z</time>
      </trkpt>
      <trkpt lat="45.52277" lon="6.75435">
        <ele>2300.3</ele>
        <time>2021-08-03T08:48:22Z</time>
      </trkpt>
      <trkpt lat="45.52276" lon="6.75436">
        <ele>2300.6</ele>
        <time>2021-08-03T08:48:23Z</time>
      </trkpt>
      <trkpt lat="45.52276" lon="6.75437">
        <ele>2301</ele>
        <time>2021-08-03T08:48:24Z</time>
      </trkpt>
      <trkpt lat="45.52275" lon="6.75437">
        <ele>2301.4</ele>
        <time>2021-08-03T08:48:25Z</time>
      </trkpt>
      <trkpt lat="45.52273" lon="6.75437">
        <ele>2301.7</ele>
        <time>2021-08-03T08:48:26Z</time>
      </trkpt>
      <trkpt lat="45.52272" lon="6.75436">
        <ele>2302.8</ele>
        <time>2021-08-03T08:48:27Z</time>
      </trkpt>
      <trkpt lat="45.52272" lon="6.75435">
        <ele>2303</ele>
        <time>2021-08-03T08:48:28Z</time>
      </trkpt>
      <trkpt lat="45.52271" lon="6.75434">
        <ele>2303.2</ele>
        <time>2021-08-03T08:48:29Z</time>
      </trkpt>
      <trkpt lat="45.5227" lon="6.75433">
        <ele>2303.4</ele>
        <time>2021-08-03T08:48:30Z</time>
      </trkpt>
      <trkpt lat="45.52269" lon="6.75433">
        <ele>2303.6</ele>
        <time>2021-08-03T08:48:31Z</time>
      </trkpt>
      <trkpt lat="45.52268" lon="6.75432">
        <ele>2303.7</ele>
        <time>2021-08-03T08:48:32Z</time>
      </trkpt>
      <trkpt lat="45.52267" lon="6.75431">
        <ele>2303.9</ele>
        <time>2021-08-03T08:48:33Z</time>
      </trkpt>
      <trkpt lat="45.52267" lon="6.75431">
        <ele>2304</ele>
        <time>2021-08-03T08:48:34Z</time>
      </trkpt>
      <trkpt lat="45.52266" lon="6.75431">
        <ele>2304.1</ele>
        <time>2021-08-03T08:48:35Z</time>
      </trkpt>
      <trkpt lat="45.52266" lon="6.75431">
        <ele>2304.1</ele>
        <time>2021-08-03T08:48:36Z</time>
      </trkpt>
      <trkpt lat="45.52266" lon="6.75431">
        <ele>2304.2</ele>
        <time>2021-08-03T08:48:37Z</time>
      </trkpt>
      <trkpt lat="45.52266" lon="6.7543">
        <ele>2304.2</ele>
        <time>2021-08-03T08:48:38Z</time>
      </trkpt>
      <trkpt lat="45.52266" lon="6.7543">
        <ele>2304.2</ele>
        <time>2021-08-03T08:48:39Z</time>
      </trkpt>
      <trkpt lat="45.52265" lon="6.7543">
        <ele>2304.2</ele>
        <time>2021-08-03T08:48:40Z</time>
      </trkpt>
      <trkpt lat="45.52265" lon="6.75431">
        <ele>2304.2</ele>
        <time>2021-08-03T08:48:41Z</time>
      </trkpt>
      <trkpt lat="45.52265" lon="6.75431">
        <ele>2304.2</ele>
        <time>2021-08-03T08:48:42Z</time>
      </trkpt>
      <trkpt lat="45.52265" lon="6.75431">
        <ele>2304.2</ele>
        <time>2021-08-03T08:48:43Z</time>
      </trkpt>
      <trkpt lat="45.52265" lon="6.7543">
        <ele>2304.2</ele>
        <time>2021-08-03T08:48:44Z</time>
      </trkpt>
      <trkpt lat="45.52265" lon="6.7543">
        <ele>2304.2</ele>
        <time>2021-08-03T08:48:45Z</time>
      </trkpt>
      <trkpt lat="45.52265" lon="6.7543">
        <ele>2304.2</ele>
        <time>2021-08-03T08:48:46Z</time>
      </trkpt>
      <trkpt lat="45.52265" lon="6.7543">
        <ele>2304.2</ele>
        <time>2021-08-03T08:48:47Z</time>
      </trkpt>
      <trkpt lat="45.52265" lon="6.7543">
        <ele>2304.2</ele>
        <time>2021-08-03T08:48:48Z</time>
      </trkpt>
      <trkpt lat="45.52265" lon="6.7543">
        <ele>2304.2</ele>
        <time>2021-08-03T08:48:49Z</time>
      </trkpt>
      <trkpt lat="45.52265" lon="6.7543">
        <ele>2304.2</ele>
        <time>2021-08-03T08:48:50Z</time>
      </trkpt>
      <trkpt lat="45.52265" lon="6.75431">
        <ele>2304.2</ele>
        <time>2021-08-03T08:48:51Z</time>
      </trkpt>
      <trkpt lat="45.52265" lon="6.75431">
        <ele>2304.2</ele>
        <time>2021-08-03T08:48:52Z</time>
      </trkpt>
      <trkpt lat="45.52266" lon="6.75431">
        <ele>2304.2</ele>
        <time>2021-08-03T08:48:53Z</time>
      </trkpt>
      <trkpt lat="45.52266" lon="6.75431">
        <ele>2304.3</ele>
        <time>2021-08-03T08:48:54Z</time>
      </trkpt>
      <trkpt lat="45.52266" lon="6.75431">
        <ele>2304.3</ele>
        <time>2021-08-03T08:48:55Z</time>
      </trkpt>
      <trkpt lat="45.52266" lon="6.75431">
        <ele>2304.3</ele>
        <time>2021-08-03T08:48:56Z</time>
      </trkpt>
      <trkpt lat="45.52266" lon="6.75431">
        <ele>2304.3</ele>
        <time>2021-08-03T08:48:57Z</time>
      </trkpt>
      <trkpt lat="45.52266" lon="6.75432">
        <ele>2304.3</ele>
        <time>2021-08-03T08:48:58Z</time>
      </trkpt>
      <trkpt lat="45.52266" lon="6.75432">
        <ele>2304.3</ele>
        <time>2021-08-03T08:48:59Z</time>
      </trkpt>
      <trkpt lat="45.52266" lon="6.75432">
        <ele>2304.3</ele>
        <time>2021-08-03T08:49:00Z</time>
      </trkpt>
      <trkpt lat="45.52266" lon="6.75431">
        <ele>2304.3</ele>
        <time>2021-08-03T08:49:01Z</time>
      </trkpt>
      <trkpt lat="45.52266" lon="6.75431">
        <ele>2304.3</ele>
        <time>2021-08-03T08:49:02Z</time>
      </trkpt>
      <trkpt lat="45.52266" lon="6.75431">
        <ele>2304.4</ele>
        <time>2021-08-03T08:49:03Z</time>
      </trkpt>
      <trkpt lat="45.52265" lon="6.75431">
        <ele>2304.4</ele>
        <time>2021-08-03T08:49:04Z</time>
      </trkpt>
      <trkpt lat="45.52265" lon="6.7543">
        <ele>2304.5</ele>
        <time>2021-08-03T08:49:05Z</time>
      </trkpt>
      <trkpt lat="45.52265" lon="6.75429">
        <ele>2304.5</ele>
        <time>2021-08-03T08:49:06Z</time>
      </trkpt>
      <trkpt lat="45.52264" lon="6.75429">
        <ele>2304.6</ele>
        <time>2021-08-03T08:49:07Z</time>
      </trkpt>
      <trkpt lat="45.52264" lon="6.75428">
        <ele>2304.7</ele>
        <time>2021-08-03T08:49:08Z</time>
      </trkpt>
      <trkpt lat="45.52263" lon="6.75427">
        <ele>2304.8</ele>
        <time>2021-08-03T08:49:09Z</time>
      </trkpt>
      <trkpt lat="45.52263" lon="6.75426">
        <ele>2305</ele>
        <time>2021-08-03T08:49:10Z</time>
      </trkpt>
      <trkpt lat="45.52262" lon="6.75425">
        <ele>2305.1</ele>
        <time>2021-08-03T08:49:11Z</time>
      </trkpt>
      <trkpt lat="45.52261" lon="6.75424">
        <ele>2305.2</ele>
        <time>2021-08-03T08:49:12Z</time>
      </trkpt>
      <trkpt lat="45.5226" lon="6.75423">
        <ele>2305.3</ele>
        <time>2021-08-03T08:49:13Z</time>
      </trkpt>
      <trkpt lat="45.5226" lon="6.75422">
        <ele>2305.4</ele>
        <time>2021-08-03T08:49:14Z</time>
      </trkpt>
      <trkpt lat="45.52259" lon="6.75422">
        <ele>2305.5</ele>
        <time>2021-08-03T08:49:15Z</time>
      </trkpt>
      <trkpt lat="45.52258" lon="6.75421">
        <ele>2305.6</ele>
        <time>2021-08-03T08:49:16Z</time>
      </trkpt>
      <trkpt lat="45.52257" lon="6.75421">
        <ele>2305.7</ele>
        <time>2021-08-03T08:49:17Z</time>
      </trkpt>
      <trkpt lat="45.52256" lon="6.75421">
        <ele>2305.8</ele>
        <time>2021-08-03T08:49:18Z</time>
      </trkpt>
      <trkpt lat="45.52255" lon="6.75421">
        <ele>2305.9</ele>
        <time>2021-08-03T08:49:19Z</time>
      </trkpt>
      <trkpt lat="45.52254" lon="6.7542">
        <ele>2306.1</ele>
        <time>2021-08-03T08:49:20Z</time>
      </trkpt>
      <trkpt lat="45.52253" lon="6.7542">
        <ele>2306.2</ele>
        <time>2021-08-03T08:49:21Z</time>
      </trkpt>
      <trkpt lat="45.52252" lon="6.7542">
        <ele>2306.3</ele>
        <time>2021-08-03T08:49:22Z</time>
      </trkpt>
      <trkpt lat="45.52251" lon="6.75419">
        <ele>2306.4</ele>
        <time>2021-08-03T08:49:23Z</time>
      </trkpt>
      <trkpt lat="45.5225" lon="6.75419">
        <ele>2306.5</ele>
        <time>2021-08-03T08:49:24Z</time>
      </trkpt>
      <trkpt lat="45.52249" lon="6.75419">
        <ele>2306.6</ele>
        <time>2021-08-03T08:49:25Z</time>
      </trkpt>
      <trkpt lat="45.52248" lon="6.75418">
        <ele>2306.7</ele>
        <time>2021-08-03T08:49:26Z</time>
      </trkpt>
      <trkpt lat="45.52247" lon="6.75418">
        <ele>2306.8</ele>
        <time>2021-08-03T08:49:27Z</time>
      </trkpt>
      <trkpt lat="45.52246" lon="6.75418">
        <ele>2306.9</ele>
        <time>2021-08-03T08:49:28Z</time>
      </trkpt>
      <trkpt lat="45.52245" lon="6.75419">
        <ele>2306.9</ele>
        <time>2021-08-03T08:49:29Z</time>
      </trkpt>
      <trkpt lat="45.52244" lon="6.75419">
        <ele>2307</ele>
        <time>2021-08-03T08:49:30Z</time>
      </trkpt>
      <trkpt lat="45.52243" lon="6.7542">
        <ele>2307.2</ele>
        <time>2021-08-03T08:49:31Z</time>
      </trkpt>
      <trkpt lat="45.52242" lon="6.7542">
        <ele>2307.3</ele>
        <time>2021-08-03T08:49:32Z</time>
      </trkpt>
      <trkpt lat="45.52241" lon="6.75421">
        <ele>2307.4</ele>
        <time>2021-08-03T08:49:33Z</time>
      </trkpt>
      <trkpt lat="45.5224" lon="6.75422">
        <ele>2307.5</ele>
        <time>2021-08-03T08:49:34Z</time>
      </trkpt>
      <trkpt lat="45.52238" lon="6.75423">
        <ele>2307.6</ele>
        <time>2021-08-03T08:49:35Z</time>
      </trkpt>
      <trkpt lat="45.52237" lon="6.75423">
        <ele>2307.7</ele>
        <time>2021-08-03T08:49:36Z</time>
      </trkpt>
      <trkpt lat="45.52236" lon="6.75424">
        <ele>2307.8</ele>
        <time>2021-08-03T08:49:37Z</time>
      </trkpt>
      <trkpt lat="45.52235" lon="6.75425">
        <ele>2307.9</ele>
        <time>2021-08-03T08:49:38Z</time>
      </trkpt>
      <trkpt lat="45.52234" lon="6.75425">
        <ele>2307.9</ele>
        <time>2021-08-03T08:49:39Z</time>
      </trkpt>
      <trkpt lat="45.52233" lon="6.75425">
        <ele>2308</ele>
        <time>2021-08-03T08:49:40Z</time>
      </trkpt>
      <trkpt lat="45.52232" lon="6.75426">
        <ele>2308.2</ele>
        <time>2021-08-03T08:49:41Z</time>
      </trkpt>
      <trkpt lat="45.5223" lon="6.75426">
        <ele>2308.3</ele>
        <time>2021-08-03T08:49:42Z</time>
      </trkpt>
      <trkpt lat="45.52229" lon="6.75426">
        <ele>2308.5</ele>
        <time>2021-08-03T08:49:43Z</time>
      </trkpt>
      <trkpt lat="45.52228" lon="6.75427">
        <ele>2308.6</ele>
        <time>2021-08-03T08:49:44Z</time>
      </trkpt>
      <trkpt lat="45.52227" lon="6.75427">
        <ele>2308.7</ele>
        <time>2021-08-03T08:49:45Z</time>
      </trkpt>
      <trkpt lat="45.52226" lon="6.75427">
        <ele>2308.8</ele>
        <time>2021-08-03T08:49:46Z</time>
      </trkpt>
      <trkpt lat="45.52226" lon="6.75427">
        <ele>2308.8</ele>
        <time>2021-08-03T08:49:47Z</time>
      </trkpt>
      <trkpt lat="45.52225" lon="6.75427">
        <ele>2308.9</ele>
        <time>2021-08-03T08:49:48Z</time>
      </trkpt>
      <trkpt lat="45.52225" lon="6.75427">
        <ele>2308.9</ele>
        <time>2021-08-03T08:49:49Z</time>
      </trkpt>
      <trkpt lat="45.52225" lon="6.75427">
        <ele>2308.9</ele>
        <time>2021-08-03T08:49:50Z</time>
      </trkpt>
      <trkpt lat="45.52225" lon="6.75427">
        <ele>2308.9</ele>
        <time>2021-08-03T08:49:51Z</time>
      </trkpt>
      <trkpt lat="45.52225" lon="6.75427">
        <ele>2308.9</ele>
        <time>2021-08-03T08:49:52Z</time>
      </trkpt>
      <trkpt lat="45.52225" lon="6.75427">
        <ele>2308.9</ele>
        <time>2021-08-03T08:49:53Z</time>
      </trkpt>
      <trkpt lat="45.52225" lon="6.75427">
        <ele>2308.9</ele>
        <time>2021-08-03T08:49:54Z</time>
      </trkpt>
      <trkpt lat="45.52225" lon="6.75427">
        <ele>2308.9</ele>
        <time>2021-08-03T08:49:55Z</time>
      </trkpt>
      <trkpt lat="45.52225" lon="6.75427">
        <ele>2308.9</ele>
        <time>2021-08-03T08:49:56Z</time>
      </trkpt>
      <trkpt lat="45.52225" lon="6.75427">
        <ele>2308.9</ele>
        <time>2021-08-03T08:49:57Z</time>
      </trkpt>
      <trkpt lat="45.52225" lon="6.75427">
        <ele>2308.9</ele>
        <time>2021-08-03T08:49:58Z</time>
      </trkpt>
      <trkpt lat="45.52225" lon="6.75427">
        <ele>2308.9</ele>
        <time>2021-08-03T08:49:59Z</time>
      </trkpt>
      <trkpt lat="45.52225" lon="6.75427">
        <ele>2308.9</ele>
        <time>2021-08-03T08:50:00Z</time>
      </trkpt>
      <trkpt lat="45.52225" lon="6.75426">
        <ele>2308.9</ele>
        <time>2021-08-03T08:50:01Z</time>
      </trkpt>
      <trkpt lat="45.52226" lon="6.75426">
        <ele>2309</ele>
        <time>2021-08-03T08:50:02Z</time>
      </trkpt>
      <trkpt lat="45.52226" lon="6.75425">
        <ele>2309.1</ele>
        <time>2021-08-03T08:50:03Z</time>
      </trkpt>
      <trkpt lat="45.52226" lon="6.75424">
        <ele>2309.1</ele>
        <time>2021-08-03T08:50:04Z</time>
      </trkpt>
      <trkpt lat="45.52227" lon="6.75424">
        <ele>2309.2</ele>
        <time>2021-08-03T08:50:05Z</time>
      </trkpt>
      <trkpt lat="45.52228" lon="6.75424">
        <ele>2309.3</ele>
        <time>2021-08-03T08:50:06Z</time>
      </trkpt>
      <trkpt lat="45.52229" lon="6.75424">
        <ele>2309.4</ele>
        <time>2021-08-03T08:50:07Z</time>
      </trkpt>
      <trkpt lat="45.5223" lon="6.75425">
        <ele>2309.5</ele>
        <time>2021-08-03T08:50:08Z</time>
      </trkpt>
      <trkpt lat="45.52231" lon="6.75425">
        <ele>2309.6</ele>
        <time>2021-08-03T08:50:09Z</time>
      </trkpt>
      <trkpt lat="45.52232" lon="6.75425">
        <ele>2309.8</ele>
        <time>2021-08-03T08:50:10Z</time>
      </trkpt>
      <trkpt lat="45.52233" lon="6.75426">
        <ele>2309.9</ele>
        <time>2021-08-03T08:50:11Z</time>
      </trkpt>
      <trkpt lat="45.52234" lon="6.75426">
        <ele>2310</ele>
        <time>2021-08-03T08:50:12Z</time>
      </trkpt>
      <trkpt lat="45.52235" lon="6.75425">
        <ele>2310.2</ele>
        <time>2021-08-03T08:50:13Z</time>
      </trkpt>
      <trkpt lat="45.52237" lon="6.75425">
        <ele>2310.3</ele>
        <time>2021-08-03T08:50:14Z</time>
      </trkpt>
      <trkpt lat="45.52238" lon="6.75425">
        <ele>2310.4</ele>
        <time>2021-08-03T08:50:15Z</time>
      </trkpt>
      <trkpt lat="45.52239" lon="6.75424">
        <ele>2310.5</ele>
        <time>2021-08-03T08:50:16Z</time>
      </trkpt>
      <trkpt lat="45.5224" lon="6.75424">
        <ele>2310.6</ele>
        <time>2021-08-03T08:50:17Z</time>
      </trkpt>
      <trkpt lat="45.52241" lon="6.75423">
        <ele>2310.8</ele>
        <time>2021-08-03T08:50:18Z</time>
      </trkpt>
      <trkpt lat="45.52242" lon="6.75422">
        <ele>2310.4</ele>
        <time>2021-08-03T08:50:19Z</time>
      </trkpt>
      <trkpt lat="45.52243" lon="6.75422">
        <ele>2310.2</ele>
        <time>2021-08-03T08:50:20Z</time>
      </trkpt>
      <trkpt lat="45.52244" lon="6.75421">
        <ele>2310.1</ele>
        <time>2021-08-03T08:50:21Z</time>
      </trkpt>
      <trkpt lat="45.52245" lon="6.7542">
        <ele>2309.9</ele>
        <time>2021-08-03T08:50:22Z</time>
      </trkpt>
      <trkpt lat="45.52245" lon="6.7542">
        <ele>2309.8</ele>
        <time>2021-08-03T08:50:23Z</time>
      </trkpt>
      <trkpt lat="45.52246" lon="6.75419">
        <ele>2309.6</ele>
        <time>2021-08-03T08:50:24Z</time>
      </trkpt>
      <trkpt lat="45.52247" lon="6.75419">
        <ele>2309.5</ele>
        <time>2021-08-03T08:50:25Z</time>
      </trkpt>
      <trkpt lat="45.52248" lon="6.75419">
        <ele>2309.4</ele>
        <time>2021-08-03T08:50:26Z</time>
      </trkpt>
      <trkpt lat="45.52248" lon="6.75418">
        <ele>2309.3</ele>
        <time>2021-08-03T08:50:27Z</time>
      </trkpt>
      <trkpt lat="45.52249" lon="6.75418">
        <ele>2309.2</ele>
        <time>2021-08-03T08:50:28Z</time>
      </trkpt>
      <trkpt lat="45.52249" lon="6.75418">
        <ele>2309.1</ele>
        <time>2021-08-03T08:50:29Z</time>
      </trkpt>
      <trkpt lat="45.5225" lon="6.75418">
        <ele>2309</ele>
        <time>2021-08-03T08:50:30Z</time>
      </trkpt>
      <trkpt lat="45.5225" lon="6.75418">
        <ele>2308.9</ele>
        <time>2021-08-03T08:50:31Z</time>
      </trkpt>
      <trkpt lat="45.52251" lon="6.75418">
        <ele>2308.8</ele>
        <time>2021-08-03T08:50:32Z</time>
      </trkpt>
      <trkpt lat="45.52252" lon="6.75419">
        <ele>2308.7</ele>
        <time>2021-08-03T08:50:33Z</time>
      </trkpt>
      <trkpt lat="45.52253" lon="6.75419">
        <ele>2308.5</ele>
        <time>2021-08-03T08:50:34Z</time>
      </trkpt>
      <trkpt lat="45.52254" lon="6.75419">
        <ele>2308.3</ele>
        <time>2021-08-03T08:50:35Z</time>
      </trkpt>
      <trkpt lat="45.52255" lon="6.75419">
        <ele>2308.1</ele>
        <time>2021-08-03T08:50:36Z</time>
      </trkpt>
      <trkpt lat="45.52257" lon="6.7542">
        <ele>2307.9</ele>
        <time>2021-08-03T08:50:37Z</time>
      </trkpt>
      <trkpt lat="45.52258" lon="6.7542">
        <ele>2307.7</ele>
        <time>2021-08-03T08:50:38Z</time>
      </trkpt>
      <trkpt lat="45.52259" lon="6.75421">
        <ele>2307.5</ele>
        <time>2021-08-03T08:50:39Z</time>
      </trkpt>
      <trkpt lat="45.5226" lon="6.75422">
        <ele>2307.3</ele>
        <time>2021-08-03T08:50:40Z</time>
      </trkpt>
      <trkpt lat="45.52262" lon="6.75422">
        <ele>2307</ele>
        <time>2021-08-03T08:50:41Z</time>
      </trkpt>
      <trkpt lat="45.52263" lon="6.75423">
        <ele>2306.8</ele>
        <time>2021-08-03T08:50:42Z</time>
      </trkpt>
      <trkpt lat="45.52264" lon="6.75424">
        <ele>2306.6</ele>
        <time>2021-08-03T08:50:43Z</time>
      </trkpt>
      <trkpt lat="45.52265" lon="6.75425">
        <ele>2306.5</ele>
        <time>2021-08-03T08:50:44Z</time>
      </trkpt>
      <trkpt lat="45.52266" lon="6.75426">
        <ele>2306.3</ele>
        <time>2021-08-03T08:50:45Z</time>
      </trkpt>
      <trkpt lat="45.52266" lon="6.75427">
        <ele>2306.1</ele>
        <time>2021-08-03T08:50:46Z</time>
      </trkpt>
      <trkpt lat="45.52267" lon="6.75428">
        <ele>2305.9</ele>
        <time>2021-08-03T08:50:47Z</time>
      </trkpt>
      <trkpt lat="45.52268" lon="6.75429">
        <ele>2305.7</ele>
        <time>2021-08-03T08:50:48Z</time>
      </trkpt>
      <trkpt lat="45.52269" lon="6.7543">
        <ele>2305.6</ele>
        <time>2021-08-03T08:50:49Z</time>
      </trkpt>
      <trkpt lat="45.52269" lon="6.75431">
        <ele>2305.4</ele>
        <time>2021-08-03T08:50:50Z</time>
      </trkpt>
      <trkpt lat="45.5227" lon="6.75432">
        <ele>2305.2</ele>
        <time>2021-08-03T08:50:51Z</time>
      </trkpt>
      <trkpt lat="45.52271" lon="6.75433">
        <ele>2305.1</ele>
        <time>2021-08-03T08:50:52Z</time>
      </trkpt>
      <trkpt lat="45.52272" lon="6.75434">
        <ele>2304.9</ele>
        <time>2021-08-03T08:50:53Z</time>
      </trkpt>
      <trkpt lat="45.52272" lon="6.75435">
        <ele>2304.8</ele>
        <time>2021-08-03T08:50:54Z</time>
      </trkpt>
      <trkpt lat="45.52273" lon="6.75436">
        <ele>2304.6</ele>
        <time>2021-08-03T08:50:55Z</time>
      </trkpt>
      <trkpt lat="45.52274" lon="6.75437">
        <ele>2304.5</ele>
        <time>2021-08-03T08:50:56Z</time>
      </trkpt>
      <trkpt lat="45.52275" lon="6.75437">
        <ele>2304.3</ele>
        <time>2021-08-03T08:50:57Z</time>
      </trkpt>
      <trkpt lat="45.52275" lon="6.75438">
        <ele>2304.2</ele>
        <time>2021-08-03T08:50:58Z</time>
      </trkpt>
      <trkpt lat="45.52276" lon="6.75439">
        <ele>2304</ele>
        <time>2021-08-03T08:50:59Z</time>
      </trkpt>
      <trkpt lat="45.52277" lon="6.75439">
        <ele>2303.9</ele>
        <time>2021-08-03T08:51:00Z</time>
      </trkpt>
      <trkpt lat="45.52277" lon="6.7544">
        <ele>2303.7</ele>
        <time>2021-08-03T08:51:01Z</time>
      </trkpt>
      <trkpt lat="45.52278" lon="6.75441">
        <ele>2303.6</ele>
        <time>2021-08-03T08:51:02Z</time>
      </trkpt>
      <trkpt lat="45.52278" lon="6.75441">
        <ele>2303.6</ele>
        <time>2021-08-03T08:51:03Z</time>
      </trkpt>
      <trkpt lat="45.52278" lon="6.75442">
        <ele>2303.5</ele>
        <time>2021-08-03T08:51:04Z</time>
      </trkpt>
      <trkpt lat="45.52278" lon="6.75443">
        <ele>2303.4</ele>
        <time>2021-08-03T08:51:05Z</time>
      </trkpt>
      <trkpt lat="45.52277" lon="6.75443">
        <ele>2303.3</ele>
        <time>2021-08-03T08:51:06Z</time>
      </trkpt>
      <trkpt lat="45.52277" lon="6.75444">
        <ele>2303.3</ele>
        <time>2021-08-03T08:51:07Z</time>
      </trkpt>
      <trkpt lat="45.52277" lon="6.75444">
        <ele>2303.2</ele>
        <time>2021-08-03T08:51:08Z</time>
      </trkpt>
      <trkpt lat="45.52277" lon="6.75444">
        <ele>2303.2</ele>
        <time>2021-08-03T08:51:09Z</time>
      </trkpt>
      <trkpt lat="45.52277" lon="6.75444">
        <ele>2303.2</ele>
        <time>2021-08-03T08:51:10Z</time>
      </trkpt>
      <trkpt lat="45.52277" lon="6.75444">
        <ele>2303.2</ele>
        <time>2021-08-03T08:51:11Z</time>
      </trkpt>
      <trkpt lat="45.52277" lon="6.75443">
        <ele>2303.1</ele>
        <time>2021-08-03T08:51:12Z</time>
      </trkpt>
      <trkpt lat="45.52277" lon="6.75443">
        <ele>2303</ele>
        <time>2021-08-03T08:51:13Z</time>
      </trkpt>
      <trkpt lat="45.52278" lon="6.75442">
        <ele>2302.9</ele>
        <time>2021-08-03T08:51:14Z</time>
      </trkpt>
      <trkpt lat="45.52278" lon="6.75441">
        <ele>2302.8</ele>
        <time>2021-08-03T08:51:15Z</time>
      </trkpt>
      <trkpt lat="45.52279" lon="6.75441">
        <ele>2302.7</ele>
        <time>2021-08-03T08:51:16Z</time>
      </trkpt>
      <trkpt lat="45.5228" lon="6.7544">
        <ele>2302.5</ele>
        <time>2021-08-03T08:51:17Z</time>
      </trkpt>
      <trkpt lat="45.52281" lon="6.7544">
        <ele>2302.4</ele>
        <time>2021-08-03T08:51:18Z</time>
      </trkpt>
      <trkpt lat="45.52281" lon="6.75441">
        <ele>2302.3</ele>
        <time>2021-08-03T08:51:19Z</time>
      </trkpt>
      <trkpt lat="45.52282" lon="6.75441">
        <ele>2302.2</ele>
        <time>2021-08-03T08:51:20Z</time>
      </trkpt>
      <trkpt lat="45.52282" lon="6.75442">
        <ele>2302</ele>
        <time>2021-08-03T08:51:21Z</time>
      </trkpt>
      <trkpt lat="45.52283" lon="6.75443">
        <ele>2301.9</ele>
        <time>2021-08-03T08:51:22Z</time>
      </trkpt>
      <trkpt lat="45.52283" lon="6.75444">
        <ele>2301.8</ele>
        <time>2021-08-03T08:51:23Z</time>
      </trkpt>
      <trkpt lat="45.52283" lon="6.75445">
        <ele>2301.7</ele>
        <time>2021-08-03T08:51:24Z</time>
      </trkpt>
      <trkpt lat="45.52282" lon="6.75446">
        <ele>2301.6</ele>
        <time>2021-08-03T08:51:25Z</time>
      </trkpt>
      <trkpt lat="45.52282" lon="6.75447">
        <ele>2301.4</ele>
        <time>2021-08-03T08:51:26Z</time>
      </trkpt>
      <trkpt lat="45.52281" lon="6.75448">
        <ele>2301.3</ele>
        <time>2021-08-03T08:51:27Z</time>
      </trkpt>
      <trkpt lat="45.52281" lon="6.75449">
        <ele>2299.6</ele>
        <time>2021-08-03T08:51:28Z</time>
      </trkpt>
      <trkpt lat="45.5228" lon="6.7545">
        <ele>2299.4</ele>
        <time>2021-08-03T08:51:29Z</time>
      </trkpt>
      <trkpt lat="45.52279" lon="6.7545">
        <ele>2299.2</ele>
        <time>2021-08-03T08:51:30Z</time>
      </trkpt>
      <trkpt lat="45.52279" lon="6.75451">
        <ele>2299.1</ele>
        <time>2021-08-03T08:51:31Z</time>
      </trkpt>
      <trkpt lat="45.52278" lon="6.75452">
        <ele>2298.9</ele>
        <time>2021-08-03T08:51:32Z</time>
      </trkpt>
      <trkpt lat="45.52277" lon="6.75452">
        <ele>2298.8</ele>
        <time>2021-08-03T08:51:33Z</time>
      </trkpt>
      <trkpt lat="45.52277" lon="6.75453">
        <ele>2298.6</ele>
        <time>2021-08-03T08:51:34Z</time>
      </trkpt>
      <trkpt lat="45.52276" lon="6.75453">
        <ele>2298.5</ele>
        <time>2021-08-03T08:51:35Z</time>
      </trkpt>
      <trkpt lat="45.52275" lon="6.75454">
        <ele>2298.4</ele>
        <time>2021-08-03T08:51:36Z</time>
      </trkpt>
      <trkpt lat="45.52275" lon="6.75454">
        <ele>2298.3</ele>
        <time>2021-08-03T08:51:37Z</time>
      </trkpt>
      <trkpt lat="45.52274" lon="6.75454">
        <ele>2298.2</ele>
        <time>2021-08-03T08:51:38Z</time>
      </trkpt>
      <trkpt lat="45.52274" lon="6.75454">
        <ele>2298</ele>
        <time>2021-08-03T08:51:39Z</time>
      </trkpt>
      <trkpt lat="45.52273" lon="6.75455">
        <ele>2297.9</ele>
        <time>2021-08-03T08:51:40Z</time>
      </trkpt>
      <trkpt lat="45.52273" lon="6.75455">
        <ele>2297.9</ele>
        <time>2021-08-03T08:51:41Z</time>
      </trkpt>
      <trkpt lat="45.52272" lon="6.75455">
        <ele>2297.8</ele>
        <time>2021-08-03T08:51:42Z</time>
      </trkpt>
      <trkpt lat="45.52272" lon="6.75455">
        <ele>2297.7</ele>
        <time>2021-08-03T08:51:43Z</time>
      </trkpt>
      <trkpt lat="45.52272" lon="6.75455">
        <ele>2297.7</ele>
        <time>2021-08-03T08:51:44Z</time>
      </trkpt>
      <trkpt lat="45.52272" lon="6.75455">
        <ele>2297.6</ele>
        <time>2021-08-03T08:51:45Z</time>
      </trkpt>
      <trkpt lat="45.52272" lon="6.75455">
        <ele>2297.6</ele>
        <time>2021-08-03T08:51:46Z</time>
      </trkpt>
      <trkpt lat="45.52271" lon="6.75455">
        <ele>2297.6</ele>
        <time>2021-08-03T08:51:47Z</time>
      </trkpt>
      <trkpt lat="45.52271" lon="6.75455">
        <ele>2297.6</ele>
        <time>2021-08-03T08:51:48Z</time>
      </trkpt>
      <trkpt lat="45.52271" lon="6.75455">
        <ele>2297.6</ele>
        <time>2021-08-03T08:51:49Z</time>
      </trkpt>
      <trkpt lat="45.52272" lon="6.75455">
        <ele>2297.6</ele>
        <time>2021-08-03T08:51:50Z</time>
      </trkpt>
      <trkpt lat="45.52272" lon="6.75455">
        <ele>2297.5</ele>
        <time>2021-08-03T08:51:51Z</time>
      </trkpt>
      <trkpt lat="45.52272" lon="6.75455">
        <ele>2297.5</ele>
        <time>2021-08-03T08:51:52Z</time>
      </trkpt>
      <trkpt lat="45.52272" lon="6.75455">
        <ele>2297.5</ele>
        <time>2021-08-03T08:51:53Z</time>
      </trkpt>
      <trkpt lat="45.52272" lon="6.75455">
        <ele>2297.5</ele>
        <time>2021-08-03T08:51:54Z</time>
      </trkpt>
      <trkpt lat="45.52272" lon="6.75455">
        <ele>2297.5</ele>
        <time>2021-08-03T08:51:55Z</time>
      </trkpt>
      <trkpt lat="45.52272" lon="6.75455">
        <ele>2297.5</ele>
        <time>2021-08-03T08:51:56Z</time>
      </trkpt>
      <trkpt lat="45.52272" lon="6.75455">
        <ele>2297.5</ele>
        <time>2021-08-03T08:51:57Z</time>
      </trkpt>
      <trkpt lat="45.52272" lon="6.75455">
        <ele>2297.5</ele>
        <time>2021-08-03T08:51:58Z</time>
      </trkpt>
      <trkpt lat="45.52272" lon="6.75455">
        <ele>2297.4</ele>
        <time>2021-08-03T08:51:59Z</time>
      </trkpt>
      <trkpt lat="45.52272" lon="6.75455">
        <ele>2297.4</ele>
        <time>2021-08-03T08:52:00Z</time>
      </trkpt>
      <trkpt lat="45.52272" lon="6.75455">
        <ele>2297.4</ele>
        <time>2021-08-03T08:52:01Z</time>
      </trkpt>
      <trkpt lat="45.52272" lon="6.75455">
        <ele>2297.4</ele>
        <time>2021-08-03T08:52:02Z</time>
      </trkpt>
      <trkpt lat="45.52271" lon="6.75455">
        <ele>2297.3</ele>
        <time>2021-08-03T08:52:03Z</time>
      </trkpt>
      <trkpt lat="45.52271" lon="6.75455">
        <ele>2297.2</ele>
        <time>2021-08-03T08:52:04Z</time>
      </trkpt>
      <trkpt lat="45.52271" lon="6.75455">
        <ele>2297.2</ele>
        <time>2021-08-03T08:52:05Z</time>
      </trkpt>
      <trkpt lat="45.5227" lon="6.75455">
        <ele>2297.1</ele>
        <time>2021-08-03T08:52:06Z</time>
      </trkpt>
      <trkpt lat="45.5227" lon="6.75456">
        <ele>2297</ele>
        <time>2021-08-03T08:52:07Z</time>
      </trkpt>
      <trkpt lat="45.52269" lon="6.75456">
        <ele>2296.9</ele>
        <time>2021-08-03T08:52:08Z</time>
      </trkpt>
      <trkpt lat="45.52269" lon="6.75456">
        <ele>2296.9</ele>
        <time>2021-08-03T08:52:09Z</time>
      </trkpt>
      <trkpt lat="45.52269" lon="6.75456">
        <ele>2296.8</ele>
        <time>2021-08-03T08:52:10Z</time>
      </trkpt>
      <trkpt lat="45.52268" lon="6.75456">
        <ele>2296.7</ele>
        <time>2021-08-03T08:52:11Z</time>
      </trkpt>
      <trkpt lat="45.52268" lon="6.75456">
        <ele>2296.6</ele>
        <time>2021-08-03T08:52:12Z</time>
      </trkpt>
      <trkpt lat="45.52267" lon="6.75456">
        <ele>2296.5</ele>
        <time>2021-08-03T08:52:13Z</time>
      </trkpt>
      <trkpt lat="45.52267" lon="6.75456">
        <ele>2296.4</ele>
        <time>2021-08-03T08:52:14Z</time>
      </trkpt>
      <trkpt lat="45.52266" lon="6.75456">
        <ele>2296.4</ele>
        <time>2021-08-03T08:52:15Z</time>
      </trkpt>
      <trkpt lat="45.52266" lon="6.75456">
        <ele>2296.3</ele>
        <time>2021-08-03T08:52:16Z</time>
      </trkpt>
      <trkpt lat="45.52266" lon="6.75456">
        <ele>2296.2</ele>
        <time>2021-08-03T08:52:17Z</time>
      </trkpt>
      <trkpt lat="45.52265" lon="6.75456">
        <ele>2296.2</ele>
        <time>2021-08-03T08:52:18Z</time>
      </trkpt>
      <trkpt lat="45.52265" lon="6.75456">
        <ele>2296.1</ele>
        <time>2021-08-03T08:52:19Z</time>
      </trkpt>
      <trkpt lat="45.52265" lon="6.75456">
        <ele>2296.1</ele>
        <time>2021-08-03T08:52:20Z</time>
      </trkpt>
      <trkpt lat="45.52265" lon="6.75456">
        <ele>2296.1</ele>
        <time>2021-08-03T08:52:21Z</time>
      </trkpt>
      <trkpt lat="45.52265" lon="6.75456">
        <ele>2296</ele>
        <time>2021-08-03T08:52:22Z</time>
      </trkpt>
      <trkpt lat="45.52265" lon="6.75456">
        <ele>2296</ele>
        <time>2021-08-03T08:52:23Z</time>
      </trkpt>
      <trkpt lat="45.52265" lon="6.75456">
        <ele>2296</ele>
        <time>2021-08-03T08:52:24Z</time>
      </trkpt>
      <trkpt lat="45.52264" lon="6.75456">
        <ele>2296</ele>
        <time>2021-08-03T08:52:25Z</time>
      </trkpt>
      <trkpt lat="45.52264" lon="6.75456">
        <ele>2296</ele>
        <time>2021-08-03T08:52:26Z</time>
      </trkpt>
      <trkpt lat="45.52264" lon="6.75456">
        <ele>2296</ele>
        <time>2021-08-03T08:52:27Z</time>
      </trkpt>
      <trkpt lat="45.52264" lon="6.75456">
        <ele>2296</ele>
        <time>2021-08-03T08:52:28Z</time>
      </trkpt>
      <trkpt lat="45.52264" lon="6.75456">
        <ele>2296</ele>
        <time>2021-08-03T08:52:29Z</time>
      </trkpt>
      <trkpt lat="45.52264" lon="6.75456">
        <ele>2296</ele>
        <time>2021-08-03T08:52:30Z</time>
      </trkpt>
      <trkpt lat="45.52265" lon="6.75456">
        <ele>2296</ele>
        <time>2021-08-03T08:52:31Z</time>
      </trkpt>
      <trkpt lat="45.52265" lon="6.75456">
        <ele>2296</ele>
        <time>2021-08-03T08:52:32Z</time>
      </trkpt>
      <trkpt lat="45.52265" lon="6.75456">
        <ele>2296</ele>
        <time>2021-08-03T08:52:33Z</time>
      </trkpt>
      <trkpt lat="45.52265" lon="6.75456">
        <ele>2296</ele>
        <time>2021-08-03T08:52:34Z</time>
      </trkpt>
      <trkpt lat="45.52265" lon="6.75456">
        <ele>2296</ele>
        <time>2021-08-03T08:52:35Z</time>
      </trkpt>
      <trkpt lat="45.52265" lon="6.75456">
        <ele>2296</ele>
        <time>2021-08-03T08:52:36Z</time>
      </trkpt>
      <trkpt lat="45.52265" lon="6.75456">
        <ele>2296</ele>
        <time>2021-08-03T08:52:37Z</time>
      </trkpt>
      <trkpt lat="45.52265" lon="6.75456">
        <ele>2296</ele>
        <time>2021-08-03T08:52:38Z</time>
      </trkpt>
      <trkpt lat="45.52265" lon="6.75456">
        <ele>2296</ele>
        <time>2021-08-03T08:52:39Z</time>
      </trkpt>
      <trkpt lat="45.52265" lon="6.75456">
        <ele>2296</ele>
        <time>2021-08-03T08:52:40Z</time>
      </trkpt>
      <trkpt lat="45.52265" lon="6.75456">
        <ele>2296</ele>
        <time>2021-08-03T08:52:41Z</time>
      </trkpt>
      <trkpt lat="45.52265" lon="6.75456">
        <ele>2296</ele>
        <time>2021-08-03T08:52:42Z</time>
      </trkpt>
      <trkpt lat="45.52265" lon="6.75456">
        <ele>2296</ele>
        <time>2021-08-03T08:52:43Z</time>
      </trkpt>
      <trkpt lat="45.52265" lon="6.75456">
        <ele>2296</ele>
        <time>2021-08-03T08:52:44Z</time>
      </trkpt>
      <trkpt lat="45.52265" lon="6.75456">
        <ele>2296</ele>
        <time>2021-08-03T08:52:45Z</time>
      </trkpt>
      <trkpt lat="45.52265" lon="6.75456">
        <ele>2296</ele>
        <time>2021-08-03T08:52:46Z</time>
      </trkpt>
      <trkpt lat="45.52265" lon="6.75456">
        <ele>2296</ele>
        <time>2021-08-03T08:52:47Z</time>
      </trkpt>
      <trkpt lat="45.52265" lon="6.75456">
        <ele>2296</ele>
        <time>2021-08-03T08:52:48Z</time>
      </trkpt>
      <trkpt lat="45.52265" lon="6.75456">
        <ele>2296</ele>
        <time>2021-08-03T08:52:49Z</time>
      </trkpt>
      <trkpt lat="45.52265" lon="6.75456">
        <ele>2295.9</ele>
        <time>2021-08-03T08:52:50Z</time>
      </trkpt>
      <trkpt lat="45.52265" lon="6.75456">
        <ele>2295.9</ele>
        <time>2021-08-03T08:52:51Z</time>
      </trkpt>
      <trkpt lat="45.52265" lon="6.75456">
        <ele>2295.9</ele>
        <time>2021-08-03T08:52:52Z</time>
      </trkpt>
      <trkpt lat="45.52265" lon="6.75456">
        <ele>2295.9</ele>
        <time>2021-08-03T08:52:53Z</time>
      </trkpt>
      <trkpt lat="45.52265" lon="6.75456">
        <ele>2295.9</ele>
        <time>2021-08-03T08:52:54Z</time>
      </trkpt>
      <trkpt lat="45.52265" lon="6.75456">
        <ele>2295.9</ele>
        <time>2021-08-03T08:52:55Z</time>
      </trkpt>
      <trkpt lat="45.52265" lon="6.75456">
        <ele>2295.9</ele>
        <time>2021-08-03T08:52:56Z</time>
      </trkpt>
      <trkpt lat="45.52265" lon="6.75456">
        <ele>2295.9</ele>
        <time>2021-08-03T08:52:57Z</time>
      </trkpt>
      <trkpt lat="45.52265" lon="6.75456">
        <ele>2295.9</ele>
        <time>2021-08-03T08:52:58Z</time>
      </trkpt>
      <trkpt lat="45.52265" lon="6.75456">
        <ele>2295.9</ele>
        <time>2021-08-03T08:52:59Z</time>
      </trkpt>
      <trkpt lat="45.52265" lon="6.75456">
        <ele>2295.9</ele>
        <time>2021-08-03T08:53:00Z</time>
      </trkpt>
      <trkpt lat="45.52265" lon="6.75456">
        <ele>2295.9</ele>
        <time>2021-08-03T08:53:01Z</time>
      </trkpt>
      <trkpt lat="45.52265" lon="6.75456">
        <ele>2295.9</ele>
        <time>2021-08-03T08:53:02Z</time>
      </trkpt>
      <trkpt lat="45.52265" lon="6.75456">
        <ele>2295.9</ele>
        <time>2021-08-03T08:53:03Z</time>
      </trkpt>
      <trkpt lat="45.52265" lon="6.75456">
        <ele>2295.9</ele>
        <time>2021-08-03T08:53:04Z</time>
      </trkpt>
      <trkpt lat="45.52265" lon="6.75456">
        <ele>2295.9</ele>
        <time>2021-08-03T08:53:05Z</time>
      </trkpt>
      <trkpt lat="45.52265" lon="6.75456">
        <ele>2295.9</ele>
        <time>2021-08-03T08:53:06Z</time>
      </trkpt>
      <trkpt lat="45.52265" lon="6.75456">
        <ele>2295.9</ele>
        <time>2021-08-03T08:53:07Z</time>
      </trkpt>
      <trkpt lat="45.52265" lon="6.75456">
        <ele>2295.9</ele>
        <time>2021-08-03T08:53:08Z</time>
      </trkpt>
      <trkpt lat="45.52265" lon="6.75456">
        <ele>2295.9</ele>
        <time>2021-08-03T08:53:09Z</time>
      </trkpt>
      <trkpt lat="45.52265" lon="6.75456">
        <ele>2295.9</ele>
        <time>2021-08-03T08:53:10Z</time>
      </trkpt>
      <trkpt lat="45.52265" lon="6.75456">
        <ele>2295.9</ele>
        <time>2021-08-03T08:53:11Z</time>
      </trkpt>
      <trkpt lat="45.52265" lon="6.75456">
        <ele>2295.9</ele>
        <time>2021-08-03T08:53:12Z</time>
      </trkpt>
      <trkpt lat="45.52265" lon="6.75456">
        <ele>2295.9</ele>
        <time>2021-08-03T08:53:13Z</time>
      </trkpt>
      <trkpt lat="45.52265" lon="6.75456">
        <ele>2295.9</ele>
        <time>2021-08-03T08:53:14Z</time>
      </trkpt>
      <trkpt lat="45.52265" lon="6.75456">
        <ele>2295.9</ele>
        <time>2021-08-03T08:53:15Z</time>
      </trkpt>
      <trkpt lat="45.52265" lon="6.75456">
        <ele>2295.9</ele>
        <time>2021-08-03T08:53:16Z</time>
      </trkpt>
      <trkpt lat="45.52265" lon="6.75456">
        <ele>2295.9</ele>
        <time>2021-08-03T08:53:17Z</time>
      </trkpt>
      <trkpt lat="45.52265" lon="6.75456">
        <ele>2295.9</ele>
        <time>2021-08-03T08:53:18Z</time>
      </trkpt>
      <trkpt lat="45.52265" lon="6.75456">
        <ele>2295.9</ele>
        <time>2021-08-03T08:53:19Z</time>
      </trkpt>
      <trkpt lat="45.52265" lon="6.75456">
        <ele>2295.9</ele>
        <time>2021-08-03T08:53:20Z</time>
      </trkpt>
      <trkpt lat="45.52265" lon="6.75456">
        <ele>2295.9</ele>
        <time>2021-08-03T08:53:21Z</time>
      </trkpt>
      <trkpt lat="45.52265" lon="6.75456">
        <ele>2295.9</ele>
        <time>2021-08-03T08:53:22Z</time>
      </trkpt>
      <trkpt lat="45.52265" lon="6.75456">
        <ele>2295.9</ele>
        <time>2021-08-03T08:53:23Z</time>
      </trkpt>
      <trkpt lat="45.52265" lon="6.75456">
        <ele>2295.9</ele>
        <time>2021-08-03T08:53:24Z</time>
      </trkpt>
      <trkpt lat="45.52265" lon="6.75456">
        <ele>2295.9</ele>
        <time>2021-08-03T08:53:25Z</time>
      </trkpt>
      <trkpt lat="45.52265" lon="6.75456">
        <ele>2295.9</ele>
        <time>2021-08-03T08:53:26Z</time>
      </trkpt>
      <trkpt lat="45.52265" lon="6.75456">
        <ele>2295.9</ele>
        <time>2021-08-03T08:53:27Z</time>
      </trkpt>
      <trkpt lat="45.52265" lon="6.75456">
        <ele>2295.9</ele>
        <time>2021-08-03T08:53:28Z</time>
      </trkpt>
      <trkpt lat="45.52265" lon="6.75456">
        <ele>2295.9</ele>
        <time>2021-08-03T08:53:29Z</time>
      </trkpt>
      <trkpt lat="45.52265" lon="6.75456">
        <ele>2295.9</ele>
        <time>2021-08-03T08:53:30Z</time>
      </trkpt>
      <trkpt lat="45.52265" lon="6.75456">
        <ele>2295.9</ele>
        <time>2021-08-03T08:53:31Z</time>
      </trkpt>
      <trkpt lat="45.52265" lon="6.75456">
        <ele>2295.9</ele>
        <time>2021-08-03T08:53:32Z</time>
      </trkpt>
      <trkpt lat="45.52265" lon="6.75456">
        <ele>2295.9</ele>
        <time>2021-08-03T08:53:33Z</time>
      </trkpt>
      <trkpt lat="45.52265" lon="6.75456">
        <ele>2295.9</ele>
        <time>2021-08-03T08:53:34Z</time>
      </trkpt>
      <trkpt lat="45.52265" lon="6.75456">
        <ele>2295.9</ele>
        <time>2021-08-03T08:53:35Z</time>
      </trkpt>
      <trkpt lat="45.52265" lon="6.75456">
        <ele>2295.9</ele>
        <time>2021-08-03T08:53:36Z</time>
      </trkpt>
      <trkpt lat="45.52265" lon="6.75456">
        <ele>2295.9</ele>
        <time>2021-08-03T08:53:37Z</time>
      </trkpt>
      <trkpt lat="45.52265" lon="6.75456">
        <ele>2295.9</ele>
        <time>2021-08-03T08:53:38Z</time>
      </trkpt>
      <trkpt lat="45.52265" lon="6.75456">
        <ele>2295.9</ele>
        <time>2021-08-03T08:53:39Z</time>
      </trkpt>
      <trkpt lat="45.52265" lon="6.75456">
        <ele>2295.9</ele>
        <time>2021-08-03T08:53:40Z</time>
      </trkpt>
      <trkpt lat="45.52265" lon="6.75456">
        <ele>2295.9</ele>
        <time>2021-08-03T08:53:41Z</time>
      </trkpt>
      <trkpt lat="45.52265" lon="6.75456">
        <ele>2295.9</ele>
        <time>2021-08-03T08:53:42Z</time>
      </trkpt>
      <trkpt lat="45.52265" lon="6.75456">
        <ele>2295.9</ele>
        <time>2021-08-03T08:53:43Z</time>
      </trkpt>
      <trkpt lat="45.52265" lon="6.75456">
        <ele>2295.9</ele>
        <time>2021-08-03T08:53:44Z</time>
      </trkpt>
      <trkpt lat="45.52264" lon="6.75456">
        <ele>2295.9</ele>
        <time>2021-08-03T08:53:45Z</time>
      </trkpt>
      <trkpt lat="45.52264" lon="6.75457">
        <ele>2295.8</ele>
        <time>2021-08-03T08:53:46Z</time>
      </trkpt>
      <trkpt lat="45.52264" lon="6.75457">
        <ele>2295.8</ele>
        <time>2021-08-03T08:53:47Z</time>
      </trkpt>
      <trkpt lat="45.52264" lon="6.75457">
        <ele>2295.7</ele>
        <time>2021-08-03T08:53:48Z</time>
      </trkpt>
      <trkpt lat="45.52263" lon="6.75457">
        <ele>2295.6</ele>
        <time>2021-08-03T08:53:49Z</time>
      </trkpt>
      <trkpt lat="45.52263" lon="6.75458">
        <ele>2295.5</ele>
        <time>2021-08-03T08:53:50Z</time>
      </trkpt>
      <trkpt lat="45.52262" lon="6.75458">
        <ele>2295.4</ele>
        <time>2021-08-03T08:53:51Z</time>
      </trkpt>
      <trkpt lat="45.52262" lon="6.75459">
        <ele>2295.2</ele>
        <time>2021-08-03T08:53:52Z</time>
      </trkpt>
      <trkpt lat="45.52261" lon="6.75459">
        <ele>2295.1</ele>
        <time>2021-08-03T08:53:53Z</time>
      </trkpt>
      <trkpt lat="45.52261" lon="6.7546">
        <ele>2295</ele>
        <time>2021-08-03T08:53:54Z</time>
      </trkpt>
      <trkpt lat="45.5226" lon="6.7546">
        <ele>2295</ele>
        <time>2021-08-03T08:53:55Z</time>
      </trkpt>
      <trkpt lat="45.5226" lon="6.7546">
        <ele>2295</ele>
        <time>2021-08-03T08:53:56Z</time>
      </trkpt>
      <trkpt lat="45.5226" lon="6.7546">
        <ele>2295</ele>
        <time>2021-08-03T08:53:57Z</time>
      </trkpt>
      <trkpt lat="45.5226" lon="6.7546">
        <ele>2295</ele>
        <time>2021-08-03T08:53:58Z</time>
      </trkpt>
      <trkpt lat="45.5226" lon="6.7546">
        <ele>2294.9</ele>
        <time>2021-08-03T08:53:59Z</time>
      </trkpt>
      <trkpt lat="45.5226" lon="6.75461">
        <ele>2294.8</ele>
        <time>2021-08-03T08:54:00Z</time>
      </trkpt>
      <trkpt lat="45.52259" lon="6.75461">
        <ele>2294.7</ele>
        <time>2021-08-03T08:54:01Z</time>
      </trkpt>
      <trkpt lat="45.52259" lon="6.75462">
        <ele>2294.5</ele>
        <time>2021-08-03T08:54:02Z</time>
      </trkpt>
      <trkpt lat="45.52259" lon="6.75463">
        <ele>2294.4</ele>
        <time>2021-08-03T08:54:03Z</time>
      </trkpt>
      <trkpt lat="45.52258" lon="6.75464">
        <ele>2294.2</ele>
        <time>2021-08-03T08:54:04Z</time>
      </trkpt>
      <trkpt lat="45.52258" lon="6.75465">
        <ele>2294.1</ele>
        <time>2021-08-03T08:54:05Z</time>
      </trkpt>
      <trkpt lat="45.52257" lon="6.75466">
        <ele>2294</ele>
        <time>2021-08-03T08:54:06Z</time>
      </trkpt>
      <trkpt lat="45.52257" lon="6.75466">
        <ele>2293.9</ele>
        <time>2021-08-03T08:54:07Z</time>
      </trkpt>
      <trkpt lat="45.52256" lon="6.75467">
        <ele>2293.8</ele>
        <time>2021-08-03T08:54:08Z</time>
      </trkpt>
      <trkpt lat="45.52256" lon="6.75467">
        <ele>2293.7</ele>
        <time>2021-08-03T08:54:09Z</time>
      </trkpt>
      <trkpt lat="45.52256" lon="6.75467">
        <ele>2293.7</ele>
        <time>2021-08-03T08:54:10Z</time>
      </trkpt>
      <trkpt lat="45.52256" lon="6.75467">
        <ele>2293.7</ele>
        <time>2021-08-03T08:54:11Z</time>
      </trkpt>
      <trkpt lat="45.52256" lon="6.75468">
        <ele>2293.6</ele>
        <time>2021-08-03T08:54:12Z</time>
      </trkpt>
      <trkpt lat="45.52256" lon="6.75468">
        <ele>2293.6</ele>
        <time>2021-08-03T08:54:13Z</time>
      </trkpt>
      <trkpt lat="45.52255" lon="6.75468">
        <ele>2293.5</ele>
        <time>2021-08-03T08:54:14Z</time>
      </trkpt>
      <trkpt lat="45.52255" lon="6.75468">
        <ele>2293.4</ele>
        <time>2021-08-03T08:54:15Z</time>
      </trkpt>
      <trkpt lat="45.52255" lon="6.75468">
        <ele>2293.4</ele>
        <time>2021-08-03T08:54:16Z</time>
      </trkpt>
      <trkpt lat="45.52254" lon="6.75469">
        <ele>2293.3</ele>
        <time>2021-08-03T08:54:17Z</time>
      </trkpt>
      <trkpt lat="45.52254" lon="6.75469">
        <ele>2293.2</ele>
        <time>2021-08-03T08:54:18Z</time>
      </trkpt>
      <trkpt lat="45.52253" lon="6.7547">
        <ele>2293.1</ele>
        <time>2021-08-03T08:54:19Z</time>
      </trkpt>
      <trkpt lat="45.52253" lon="6.7547">
        <ele>2293</ele>
        <time>2021-08-03T08:54:20Z</time>
      </trkpt>
      <trkpt lat="45.52252" lon="6.7547">
        <ele>2292.9</ele>
        <time>2021-08-03T08:54:21Z</time>
      </trkpt>
      <trkpt lat="45.52252" lon="6.7547">
        <ele>2292.8</ele>
        <time>2021-08-03T08:54:22Z</time>
      </trkpt>
      <trkpt lat="45.52252" lon="6.75471">
        <ele>2292.8</ele>
        <time>2021-08-03T08:54:23Z</time>
      </trkpt>
      <trkpt lat="45.52252" lon="6.75471">
        <ele>2292.7</ele>
        <time>2021-08-03T08:54:24Z</time>
      </trkpt>
      <trkpt lat="45.52252" lon="6.75471">
        <ele>2292.7</ele>
        <time>2021-08-03T08:54:25Z</time>
      </trkpt>
      <trkpt lat="45.52251" lon="6.75471">
        <ele>2292.7</ele>
        <time>2021-08-03T08:54:26Z</time>
      </trkpt>
      <trkpt lat="45.52251" lon="6.75471">
        <ele>2292.6</ele>
        <time>2021-08-03T08:54:27Z</time>
      </trkpt>
      <trkpt lat="45.52251" lon="6.75471">
        <ele>2292.6</ele>
        <time>2021-08-03T08:54:28Z</time>
      </trkpt>
      <trkpt lat="45.52251" lon="6.75472">
        <ele>2292.5</ele>
        <time>2021-08-03T08:54:29Z</time>
      </trkpt>
      <trkpt lat="45.5225" lon="6.75472">
        <ele>2292.4</ele>
        <time>2021-08-03T08:54:30Z</time>
      </trkpt>
      <trkpt lat="45.5225" lon="6.75473">
        <ele>2292.3</ele>
        <time>2021-08-03T08:54:31Z</time>
      </trkpt>
      <trkpt lat="45.52249" lon="6.75473">
        <ele>2292.1</ele>
        <time>2021-08-03T08:54:32Z</time>
      </trkpt>
      <trkpt lat="45.52248" lon="6.75474">
        <ele>2292</ele>
        <time>2021-08-03T08:54:33Z</time>
      </trkpt>
      <trkpt lat="45.52248" lon="6.75474">
        <ele>2291.8</ele>
        <time>2021-08-03T08:54:34Z</time>
      </trkpt>
      <trkpt lat="45.52247" lon="6.75475">
        <ele>2291.7</ele>
        <time>2021-08-03T08:54:35Z</time>
      </trkpt>
      <trkpt lat="45.52246" lon="6.75475">
        <ele>2291.6</ele>
        <time>2021-08-03T08:54:36Z</time>
      </trkpt>
      <trkpt lat="45.52246" lon="6.75476">
        <ele>2291.5</ele>
        <time>2021-08-03T08:54:37Z</time>
      </trkpt>
      <trkpt lat="45.52246" lon="6.75476">
        <ele>2291.4</ele>
        <time>2021-08-03T08:54:38Z</time>
      </trkpt>
      <trkpt lat="45.52245" lon="6.75476">
        <ele>2291.3</ele>
        <time>2021-08-03T08:54:39Z</time>
      </trkpt>
      <trkpt lat="45.52245" lon="6.75476">
        <ele>2291.3</ele>
        <time>2021-08-03T08:54:40Z</time>
      </trkpt>
      <trkpt lat="45.52245" lon="6.75476">
        <ele>2291.3</ele>
        <time>2021-08-03T08:54:41Z</time>
      </trkpt>
      <trkpt lat="45.52245" lon="6.75476">
        <ele>2291.3</ele>
        <time>2021-08-03T08:54:42Z</time>
      </trkpt>
      <trkpt lat="45.52245" lon="6.75476">
        <ele>2291.3</ele>
        <time>2021-08-03T08:54:43Z</time>
      </trkpt>
      <trkpt lat="45.52245" lon="6.75476">
        <ele>2291.3</ele>
        <time>2021-08-03T08:54:44Z</time>
      </trkpt>
      <trkpt lat="45.52245" lon="6.75476">
        <ele>2291.3</ele>
        <time>2021-08-03T08:54:45Z</time>
      </trkpt>
      <trkpt lat="45.52245" lon="6.75476">
        <ele>2291.2</ele>
        <time>2021-08-03T08:54:46Z</time>
      </trkpt>
      <trkpt lat="45.52245" lon="6.75476">
        <ele>2291.2</ele>
        <time>2021-08-03T08:54:47Z</time>
      </trkpt>
      <trkpt lat="45.52244" lon="6.75477">
        <ele>2291.1</ele>
        <time>2021-08-03T08:54:48Z</time>
      </trkpt>
      <trkpt lat="45.52244" lon="6.75477">
        <ele>2291</ele>
        <time>2021-08-03T08:54:49Z</time>
      </trkpt>
      <trkpt lat="45.52243" lon="6.75477">
        <ele>2291</ele>
        <time>2021-08-03T08:54:50Z</time>
      </trkpt>
      <trkpt lat="45.52243" lon="6.75478">
        <ele>2290.8</ele>
        <time>2021-08-03T08:54:51Z</time>
      </trkpt>
      <trkpt lat="45.52242" lon="6.75478">
        <ele>2290.7</ele>
        <time>2021-08-03T08:54:52Z</time>
      </trkpt>
      <trkpt lat="45.52242" lon="6.75478">
        <ele>2290.6</ele>
        <time>2021-08-03T08:54:53Z</time>
      </trkpt>
      <trkpt lat="45.52241" lon="6.75479">
        <ele>2290.5</ele>
        <time>2021-08-03T08:54:54Z</time>
      </trkpt>
      <trkpt lat="45.52241" lon="6.75479">
        <ele>2290.4</ele>
        <time>2021-08-03T08:54:55Z</time>
      </trkpt>
      <trkpt lat="45.52241" lon="6.75479">
        <ele>2290.3</ele>
        <time>2021-08-03T08:54:56Z</time>
      </trkpt>
      <trkpt lat="45.5224" lon="6.7548">
        <ele>2290.3</ele>
        <time>2021-08-03T08:54:57Z</time>
      </trkpt>
      <trkpt lat="45.5224" lon="6.7548">
        <ele>2290.2</ele>
        <time>2021-08-03T08:54:58Z</time>
      </trkpt>
      <trkpt lat="45.52239" lon="6.7548">
        <ele>2290.1</ele>
        <time>2021-08-03T08:54:59Z</time>
      </trkpt>
      <trkpt lat="45.52239" lon="6.75481">
        <ele>2290</ele>
        <time>2021-08-03T08:55:00Z</time>
      </trkpt>
      <trkpt lat="45.52239" lon="6.75481">
        <ele>2289.9</ele>
        <time>2021-08-03T08:55:01Z</time>
      </trkpt>
      <trkpt lat="45.52238" lon="6.75481">
        <ele>2289.8</ele>
        <time>2021-08-03T08:55:02Z</time>
      </trkpt>
      <trkpt lat="45.52238" lon="6.75482">
        <ele>2289.8</ele>
        <time>2021-08-03T08:55:03Z</time>
      </trkpt>
      <trkpt lat="45.52238" lon="6.75482">
        <ele>2289.7</ele>
        <time>2021-08-03T08:55:04Z</time>
      </trkpt>
      <trkpt lat="45.52237" lon="6.75482">
        <ele>2289.6</ele>
        <time>2021-08-03T08:55:05Z</time>
      </trkpt>
      <trkpt lat="45.52237" lon="6.75483">
        <ele>2289.6</ele>
        <time>2021-08-03T08:55:06Z</time>
      </trkpt>
      <trkpt lat="45.52237" lon="6.75483">
        <ele>2289.5</ele>
        <time>2021-08-03T08:55:07Z</time>
      </trkpt>
      <trkpt lat="45.52237" lon="6.75483">
        <ele>2289.5</ele>
        <time>2021-08-03T08:55:08Z</time>
      </trkpt>
      <trkpt lat="45.52237" lon="6.75483">
        <ele>2289.4</ele>
        <time>2021-08-03T08:55:09Z</time>
      </trkpt>
      <trkpt lat="45.52236" lon="6.75483">
        <ele>2289.4</ele>
        <time>2021-08-03T08:55:10Z</time>
      </trkpt>
      <trkpt lat="45.52236" lon="6.75483">
        <ele>2289.4</ele>
        <time>2021-08-03T08:55:11Z</time>
      </trkpt>
      <trkpt lat="45.52236" lon="6.75484">
        <ele>2289.3</ele>
        <time>2021-08-03T08:55:12Z</time>
      </trkpt>
      <trkpt lat="45.52236" lon="6.75484">
        <ele>2289.3</ele>
        <time>2021-08-03T08:55:13Z</time>
      </trkpt>
      <trkpt lat="45.52236" lon="6.75484">
        <ele>2289.2</ele>
        <time>2021-08-03T08:55:14Z</time>
      </trkpt>
      <trkpt lat="45.52236" lon="6.75484">
        <ele>2289.2</ele>
        <time>2021-08-03T08:55:15Z</time>
      </trkpt>
      <trkpt lat="45.52235" lon="6.75485">
        <ele>2289.1</ele>
        <time>2021-08-03T08:55:16Z</time>
      </trkpt>
      <trkpt lat="45.52235" lon="6.75485">
        <ele>2289</ele>
        <time>2021-08-03T08:55:17Z</time>
      </trkpt>
      <trkpt lat="45.52235" lon="6.75486">
        <ele>2288.9</ele>
        <time>2021-08-03T08:55:18Z</time>
      </trkpt>
      <trkpt lat="45.52234" lon="6.75487">
        <ele>2288.8</ele>
        <time>2021-08-03T08:55:19Z</time>
      </trkpt>
      <trkpt lat="45.52234" lon="6.75488">
        <ele>2288.6</ele>
        <time>2021-08-03T08:55:20Z</time>
      </trkpt>
      <trkpt lat="45.52233" lon="6.75489">
        <ele>2288.5</ele>
        <time>2021-08-03T08:55:21Z</time>
      </trkpt>
      <trkpt lat="45.52233" lon="6.7549">
        <ele>2288.3</ele>
        <time>2021-08-03T08:55:22Z</time>
      </trkpt>
      <trkpt lat="45.52232" lon="6.75491">
        <ele>2288.1</ele>
        <time>2021-08-03T08:55:23Z</time>
      </trkpt>
      <trkpt lat="45.52232" lon="6.75492">
        <ele>2288</ele>
        <time>2021-08-03T08:55:24Z</time>
      </trkpt>
      <trkpt lat="45.52231" lon="6.75492">
        <ele>2287.8</ele>
        <time>2021-08-03T08:55:25Z</time>
      </trkpt>
      <trkpt lat="45.5223" lon="6.75493">
        <ele>2287.7</ele>
        <time>2021-08-03T08:55:26Z</time>
      </trkpt>
      <trkpt lat="45.5223" lon="6.75494">
        <ele>2287.5</ele>
        <time>2021-08-03T08:55:27Z</time>
      </trkpt>
      <trkpt lat="45.52229" lon="6.75494">
        <ele>2287.4</ele>
        <time>2021-08-03T08:55:28Z</time>
      </trkpt>
      <trkpt lat="45.52229" lon="6.75495">
        <ele>2287.3</ele>
        <time>2021-08-03T08:55:29Z</time>
      </trkpt>
      <trkpt lat="45.52228" lon="6.75495">
        <ele>2287.2</ele>
        <time>2021-08-03T08:55:30Z</time>
      </trkpt>
      <trkpt lat="45.52228" lon="6.75495">
        <ele>2287.1</ele>
        <time>2021-08-03T08:55:31Z</time>
      </trkpt>
      <trkpt lat="45.52227" lon="6.75496">
        <ele>2287</ele>
        <time>2021-08-03T08:55:32Z</time>
      </trkpt>
      <trkpt lat="45.52227" lon="6.75496">
        <ele>2286.9</ele>
        <time>2021-08-03T08:55:33Z</time>
      </trkpt>
      <trkpt lat="45.52227" lon="6.75496">
        <ele>2286.8</ele>
        <time>2021-08-03T08:55:34Z</time>
      </trkpt>
      <trkpt lat="45.52226" lon="6.75496">
        <ele>2286.8</ele>
        <time>2021-08-03T08:55:35Z</time>
      </trkpt>
      <trkpt lat="45.52226" lon="6.75497">
        <ele>2286.7</ele>
        <time>2021-08-03T08:55:36Z</time>
      </trkpt>
      <trkpt lat="45.52226" lon="6.75497">
        <ele>2286.6</ele>
        <time>2021-08-03T08:55:37Z</time>
      </trkpt>
      <trkpt lat="45.52226" lon="6.75498">
        <ele>2286.6</ele>
        <time>2021-08-03T08:55:38Z</time>
      </trkpt>
      <trkpt lat="45.52225" lon="6.75498">
        <ele>2286.5</ele>
        <time>2021-08-03T08:55:39Z</time>
      </trkpt>
      <trkpt lat="45.52225" lon="6.75499">
        <ele>2286.4</ele>
        <time>2021-08-03T08:55:40Z</time>
      </trkpt>
      <trkpt lat="45.52225" lon="6.75499">
        <ele>2286.3</ele>
        <time>2021-08-03T08:55:41Z</time>
      </trkpt>
      <trkpt lat="45.52225" lon="6.755">
        <ele>2286.2</ele>
        <time>2021-08-03T08:55:42Z</time>
      </trkpt>
      <trkpt lat="45.52224" lon="6.75501">
        <ele>2286</ele>
        <time>2021-08-03T08:55:43Z</time>
      </trkpt>
      <trkpt lat="45.52224" lon="6.75502">
        <ele>2285.9</ele>
        <time>2021-08-03T08:55:44Z</time>
      </trkpt>
      <trkpt lat="45.52224" lon="6.75503">
        <ele>2285.8</ele>
        <time>2021-08-03T08:55:45Z</time>
      </trkpt>
      <trkpt lat="45.52224" lon="6.75504">
        <ele>2285.7</ele>
        <time>2021-08-03T08:55:46Z</time>
      </trkpt>
      <trkpt lat="45.52224" lon="6.75505">
        <ele>2285.6</ele>
        <time>2021-08-03T08:55:47Z</time>
      </trkpt>
      <trkpt lat="45.52223" lon="6.75505">
        <ele>2285.4</ele>
        <time>2021-08-03T08:55:48Z</time>
      </trkpt>
      <trkpt lat="45.52223" lon="6.75506">
        <ele>2285.3</ele>
        <time>2021-08-03T08:55:49Z</time>
      </trkpt>
      <trkpt lat="45.52223" lon="6.75507">
        <ele>2285.2</ele>
        <time>2021-08-03T08:55:50Z</time>
      </trkpt>
      <trkpt lat="45.52222" lon="6.75507">
        <ele>2285.1</ele>
        <time>2021-08-03T08:55:51Z</time>
      </trkpt>
      <trkpt lat="45.52222" lon="6.75507">
        <ele>2285.1</ele>
        <time>2021-08-03T08:55:52Z</time>
      </trkpt>
      <trkpt lat="45.52221" lon="6.75508">
        <ele>2285</ele>
        <time>2021-08-03T08:55:53Z</time>
      </trkpt>
      <trkpt lat="45.52221" lon="6.75508">
        <ele>2284.9</ele>
        <time>2021-08-03T08:55:54Z</time>
      </trkpt>
      <trkpt lat="45.52221" lon="6.75508">
        <ele>2284.8</ele>
        <time>2021-08-03T08:55:55Z</time>
      </trkpt>
      <trkpt lat="45.5222" lon="6.75509">
        <ele>2284.7</ele>
        <time>2021-08-03T08:55:56Z</time>
      </trkpt>
      <trkpt lat="45.5222" lon="6.75509">
        <ele>2284.6</ele>
        <time>2021-08-03T08:55:57Z</time>
      </trkpt>
      <trkpt lat="45.5222" lon="6.7551">
        <ele>2284.5</ele>
        <time>2021-08-03T08:55:58Z</time>
      </trkpt>
      <trkpt lat="45.52219" lon="6.7551">
        <ele>2284.4</ele>
        <time>2021-08-03T08:55:59Z</time>
      </trkpt>
      <trkpt lat="45.52219" lon="6.75511">
        <ele>2284.3</ele>
        <time>2021-08-03T08:56:00Z</time>
      </trkpt>
      <trkpt lat="45.52219" lon="6.75511">
        <ele>2284.3</ele>
        <time>2021-08-03T08:56:01Z</time>
      </trkpt>
      <trkpt lat="45.52219" lon="6.75512">
        <ele>2284.2</ele>
        <time>2021-08-03T08:56:02Z</time>
      </trkpt>
      <trkpt lat="45.52218" lon="6.75512">
        <ele>2284.1</ele>
        <time>2021-08-03T08:56:03Z</time>
      </trkpt>
      <trkpt lat="45.52218" lon="6.75513">
        <ele>2284</ele>
        <time>2021-08-03T08:56:04Z</time>
      </trkpt>
      <trkpt lat="45.52218" lon="6.75514">
        <ele>2283.9</ele>
        <time>2021-08-03T08:56:05Z</time>
      </trkpt>
      <trkpt lat="45.52218" lon="6.75514">
        <ele>2283.9</ele>
        <time>2021-08-03T08:56:06Z</time>
      </trkpt>
      <trkpt lat="45.52218" lon="6.75515">
        <ele>2283.8</ele>
        <time>2021-08-03T08:56:07Z</time>
      </trkpt>
      <trkpt lat="45.52218" lon="6.75515">
        <ele>2283.7</ele>
        <time>2021-08-03T08:56:08Z</time>
      </trkpt>
      <trkpt lat="45.52217" lon="6.75516">
        <ele>2283.6</ele>
        <time>2021-08-03T08:56:09Z</time>
      </trkpt>
      <trkpt lat="45.52217" lon="6.75517">
        <ele>2283.5</ele>
        <time>2021-08-03T08:56:10Z</time>
      </trkpt>
      <trkpt lat="45.52217" lon="6.75518">
        <ele>2283.4</ele>
        <time>2021-08-03T08:56:11Z</time>
      </trkpt>
      <trkpt lat="45.52217" lon="6.75519">
        <ele>2283.2</ele>
        <time>2021-08-03T08:56:12Z</time>
      </trkpt>
      <trkpt lat="45.52216" lon="6.7552">
        <ele>2283.1</ele>
        <time>2021-08-03T08:56:13Z</time>
      </trkpt>
      <trkpt lat="45.52216" lon="6.75521">
        <ele>2282.9</ele>
        <time>2021-08-03T08:56:14Z</time>
      </trkpt>
      <trkpt lat="45.52215" lon="6.75522">
        <ele>2282.7</ele>
        <time>2021-08-03T08:56:15Z</time>
      </trkpt>
      <trkpt lat="45.52215" lon="6.75523">
        <ele>2282.5</ele>
        <time>2021-08-03T08:56:16Z</time>
      </trkpt>
      <trkpt lat="45.52214" lon="6.75524">
        <ele>2282.4</ele>
        <time>2021-08-03T08:56:17Z</time>
      </trkpt>
      <trkpt lat="45.52214" lon="6.75526">
        <ele>2282.2</ele>
        <time>2021-08-03T08:56:18Z</time>
      </trkpt>
      <trkpt lat="45.52213" lon="6.75527">
        <ele>2282</ele>
        <time>2021-08-03T08:56:19Z</time>
      </trkpt>
      <trkpt lat="45.52213" lon="6.75528">
        <ele>2281.8</ele>
        <time>2021-08-03T08:56:20Z</time>
      </trkpt>
      <trkpt lat="45.52212" lon="6.75529">
        <ele>2281.7</ele>
        <time>2021-08-03T08:56:21Z</time>
      </trkpt>
      <trkpt lat="45.52212" lon="6.75529">
        <ele>2281.5</ele>
        <time>2021-08-03T08:56:22Z</time>
      </trkpt>
      <trkpt lat="45.52211" lon="6.7553">
        <ele>2281.4</ele>
        <time>2021-08-03T08:56:23Z</time>
      </trkpt>
      <trkpt lat="45.52211" lon="6.75531">
        <ele>2281.2</ele>
        <time>2021-08-03T08:56:24Z</time>
      </trkpt>
      <trkpt lat="45.5221" lon="6.75531">
        <ele>2281.1</ele>
        <time>2021-08-03T08:56:25Z</time>
      </trkpt>
      <trkpt lat="45.5221" lon="6.75532">
        <ele>2281</ele>
        <time>2021-08-03T08:56:26Z</time>
      </trkpt>
      <trkpt lat="45.52209" lon="6.75533">
        <ele>2280.9</ele>
        <time>2021-08-03T08:56:27Z</time>
      </trkpt>
      <trkpt lat="45.52209" lon="6.75533">
        <ele>2280.8</ele>
        <time>2021-08-03T08:56:28Z</time>
      </trkpt>
      <trkpt lat="45.52209" lon="6.75534">
        <ele>2280.7</ele>
        <time>2021-08-03T08:56:29Z</time>
      </trkpt>
      <trkpt lat="45.52209" lon="6.75535">
        <ele>2280.6</ele>
        <time>2021-08-03T08:56:30Z</time>
      </trkpt>
      <trkpt lat="45.52208" lon="6.75535">
        <ele>2280.5</ele>
        <time>2021-08-03T08:56:31Z</time>
      </trkpt>
      <trkpt lat="45.52208" lon="6.75536">
        <ele>2280.4</ele>
        <time>2021-08-03T08:56:32Z</time>
      </trkpt>
      <trkpt lat="45.52208" lon="6.75537">
        <ele>2280.3</ele>
        <time>2021-08-03T08:56:33Z</time>
      </trkpt>
      <trkpt lat="45.52208" lon="6.75538">
        <ele>2280.2</ele>
        <time>2021-08-03T08:56:34Z</time>
      </trkpt>
      <trkpt lat="45.52208" lon="6.75539">
        <ele>2280</ele>
        <time>2021-08-03T08:56:35Z</time>
      </trkpt>
      <trkpt lat="45.52208" lon="6.7554">
        <ele>2279.9</ele>
        <time>2021-08-03T08:56:36Z</time>
      </trkpt>
      <trkpt lat="45.52208" lon="6.7554">
        <ele>2279.8</ele>
        <time>2021-08-03T08:56:37Z</time>
      </trkpt>
      <trkpt lat="45.52208" lon="6.75541">
        <ele>2279.7</ele>
        <time>2021-08-03T08:56:38Z</time>
      </trkpt>
      <trkpt lat="45.52208" lon="6.75542">
        <ele>2279.6</ele>
        <time>2021-08-03T08:56:39Z</time>
      </trkpt>
      <trkpt lat="45.52208" lon="6.75543">
        <ele>2279.4</ele>
        <time>2021-08-03T08:56:40Z</time>
      </trkpt>
      <trkpt lat="45.52208" lon="6.75544">
        <ele>2279.3</ele>
        <time>2021-08-03T08:56:41Z</time>
      </trkpt>
      <trkpt lat="45.52208" lon="6.75545">
        <ele>2279.2</ele>
        <time>2021-08-03T08:56:42Z</time>
      </trkpt>
      <trkpt lat="45.52208" lon="6.75546">
        <ele>2279.1</ele>
        <time>2021-08-03T08:56:43Z</time>
      </trkpt>
      <trkpt lat="45.52208" lon="6.75547">
        <ele>2279</ele>
        <time>2021-08-03T08:56:44Z</time>
      </trkpt>
      <trkpt lat="45.52208" lon="6.75548">
        <ele>2278.9</ele>
        <time>2021-08-03T08:56:45Z</time>
      </trkpt>
      <trkpt lat="45.52208" lon="6.75548">
        <ele>2278.8</ele>
        <time>2021-08-03T08:56:46Z</time>
      </trkpt>
      <trkpt lat="45.52208" lon="6.75549">
        <ele>2278.6</ele>
        <time>2021-08-03T08:56:47Z</time>
      </trkpt>
      <trkpt lat="45.52208" lon="6.7555">
        <ele>2278.5</ele>
        <time>2021-08-03T08:56:48Z</time>
      </trkpt>
      <trkpt lat="45.52208" lon="6.75551">
        <ele>2278.4</ele>
        <time>2021-08-03T08:56:49Z</time>
      </trkpt>
      <trkpt lat="45.52207" lon="6.75552">
        <ele>2278.3</ele>
        <time>2021-08-03T08:56:50Z</time>
      </trkpt>
      <trkpt lat="45.52207" lon="6.75553">
        <ele>2278.2</ele>
        <time>2021-08-03T08:56:51Z</time>
      </trkpt>
      <trkpt lat="45.52207" lon="6.75553">
        <ele>2278.1</ele>
        <time>2021-08-03T08:56:52Z</time>
      </trkpt>
      <trkpt lat="45.52207" lon="6.75554">
        <ele>2278</ele>
        <time>2021-08-03T08:56:53Z</time>
      </trkpt>
      <trkpt lat="45.52207" lon="6.75555">
        <ele>2277.8</ele>
        <time>2021-08-03T08:56:54Z</time>
      </trkpt>
      <trkpt lat="45.52207" lon="6.75556">
        <ele>2277.7</ele>
        <time>2021-08-03T08:56:55Z</time>
      </trkpt>
      <trkpt lat="45.52207" lon="6.75557">
        <ele>2277.6</ele>
        <time>2021-08-03T08:56:56Z</time>
      </trkpt>
      <trkpt lat="45.52207" lon="6.75558">
        <ele>2277.5</ele>
        <time>2021-08-03T08:56:57Z</time>
      </trkpt>
      <trkpt lat="45.52207" lon="6.75559">
        <ele>2277.4</ele>
        <time>2021-08-03T08:56:58Z</time>
      </trkpt>
      <trkpt lat="45.52207" lon="6.75559">
        <ele>2277.3</ele>
        <time>2021-08-03T08:56:59Z</time>
      </trkpt>
      <trkpt lat="45.52207" lon="6.7556">
        <ele>2277.2</ele>
        <time>2021-08-03T08:57:00Z</time>
      </trkpt>
      <trkpt lat="45.52207" lon="6.75561">
        <ele>2277.1</ele>
        <time>2021-08-03T08:57:01Z</time>
      </trkpt>
      <trkpt lat="45.52207" lon="6.75562">
        <ele>2276.9</ele>
        <time>2021-08-03T08:57:02Z</time>
      </trkpt>
      <trkpt lat="45.52207" lon="6.75563">
        <ele>2276.8</ele>
        <time>2021-08-03T08:57:03Z</time>
      </trkpt>
      <trkpt lat="45.52207" lon="6.75563">
        <ele>2276.8</ele>
        <time>2021-08-03T08:57:04Z</time>
      </trkpt>
      <trkpt lat="45.52207" lon="6.75564">
        <ele>2276.6</ele>
        <time>2021-08-03T08:57:05Z</time>
      </trkpt>
      <trkpt lat="45.52207" lon="6.75565">
        <ele>2276.6</ele>
        <time>2021-08-03T08:57:06Z</time>
      </trkpt>
      <trkpt lat="45.52207" lon="6.75566">
        <ele>2276.5</ele>
        <time>2021-08-03T08:57:07Z</time>
      </trkpt>
      <trkpt lat="45.52207" lon="6.75566">
        <ele>2276.4</ele>
        <time>2021-08-03T08:57:08Z</time>
      </trkpt>
      <trkpt lat="45.52207" lon="6.75567">
        <ele>2276.3</ele>
        <time>2021-08-03T08:57:09Z</time>
      </trkpt>
      <trkpt lat="45.52207" lon="6.75567">
        <ele>2276.2</ele>
        <time>2021-08-03T08:57:10Z</time>
      </trkpt>
      <trkpt lat="45.52207" lon="6.75568">
        <ele>2276.1</ele>
        <time>2021-08-03T08:57:11Z</time>
      </trkpt>
      <trkpt lat="45.52207" lon="6.75568">
        <ele>2276.1</ele>
        <time>2021-08-03T08:57:12Z</time>
      </trkpt>
      <trkpt lat="45.52207" lon="6.75569">
        <ele>2276</ele>
        <time>2021-08-03T08:57:13Z</time>
      </trkpt>
      <trkpt lat="45.52207" lon="6.75569">
        <ele>2276</ele>
        <time>2021-08-03T08:57:14Z</time>
      </trkpt>
      <trkpt lat="45.52207" lon="6.7557">
        <ele>2275.9</ele>
        <time>2021-08-03T08:57:15Z</time>
      </trkpt>
      <trkpt lat="45.52207" lon="6.7557">
        <ele>2275.9</ele>
        <time>2021-08-03T08:57:16Z</time>
      </trkpt>
      <trkpt lat="45.52206" lon="6.7557">
        <ele>2275.8</ele>
        <time>2021-08-03T08:57:17Z</time>
      </trkpt>
      <trkpt lat="45.52206" lon="6.7557">
        <ele>2275.8</ele>
        <time>2021-08-03T08:57:18Z</time>
      </trkpt>
      <trkpt lat="45.52206" lon="6.75571">
        <ele>2275.7</ele>
        <time>2021-08-03T08:57:19Z</time>
      </trkpt>
      <trkpt lat="45.52206" lon="6.75571">
        <ele>2275.7</ele>
        <time>2021-08-03T08:57:20Z</time>
      </trkpt>
      <trkpt lat="45.52206" lon="6.75571">
        <ele>2275.7</ele>
        <time>2021-08-03T08:57:21Z</time>
      </trkpt>
      <trkpt lat="45.52206" lon="6.75571">
        <ele>2275.6</ele>
        <time>2021-08-03T08:57:22Z</time>
      </trkpt>
      <trkpt lat="45.52205" lon="6.75571">
        <ele>2275.6</ele>
        <time>2021-08-03T08:57:23Z</time>
      </trkpt>
      <trkpt lat="45.52205" lon="6.75572">
        <ele>2275.5</ele>
        <time>2021-08-03T08:57:24Z</time>
      </trkpt>
      <trkpt lat="45.52205" lon="6.75572">
        <ele>2275.4</ele>
        <time>2021-08-03T08:57:25Z</time>
      </trkpt>
      <trkpt lat="45.52205" lon="6.75572">
        <ele>2275.4</ele>
        <time>2021-08-03T08:57:26Z</time>
      </trkpt>
      <trkpt lat="45.52204" lon="6.75573">
        <ele>2275.3</ele>
        <time>2021-08-03T08:57:27Z</time>
      </trkpt>
      <trkpt lat="45.52204" lon="6.75573">
        <ele>2275.2</ele>
        <time>2021-08-03T08:57:28Z</time>
      </trkpt>
      <trkpt lat="45.52204" lon="6.75574">
        <ele>2275.1</ele>
        <time>2021-08-03T08:57:29Z</time>
      </trkpt>
      <trkpt lat="45.52204" lon="6.75575">
        <ele>2275</ele>
        <time>2021-08-03T08:57:30Z</time>
      </trkpt>
      <trkpt lat="45.52203" lon="6.75575">
        <ele>2274.9</ele>
        <time>2021-08-03T08:57:31Z</time>
      </trkpt>
      <trkpt lat="45.52203" lon="6.75576">
        <ele>2274.8</ele>
        <time>2021-08-03T08:57:32Z</time>
      </trkpt>
      <trkpt lat="45.52203" lon="6.75577">
        <ele>2274.6</ele>
        <time>2021-08-03T08:57:33Z</time>
      </trkpt>
      <trkpt lat="45.52202" lon="6.75578">
        <ele>2274.5</ele>
        <time>2021-08-03T08:57:34Z</time>
      </trkpt>
      <trkpt lat="45.52202" lon="6.7558">
        <ele>2274.3</ele>
        <time>2021-08-03T08:57:35Z</time>
      </trkpt>
      <trkpt lat="45.52202" lon="6.75581">
        <ele>2274.1</ele>
        <time>2021-08-03T08:57:36Z</time>
      </trkpt>
      <trkpt lat="45.52201" lon="6.75582">
        <ele>2273.9</ele>
        <time>2021-08-03T08:57:37Z</time>
      </trkpt>
      <trkpt lat="45.52201" lon="6.75583">
        <ele>2273.7</ele>
        <time>2021-08-03T08:57:38Z</time>
      </trkpt>
      <trkpt lat="45.52201" lon="6.75585">
        <ele>2273.5</ele>
        <time>2021-08-03T08:57:39Z</time>
      </trkpt>
      <trkpt lat="45.522" lon="6.75586">
        <ele>2273.4</ele>
        <time>2021-08-03T08:57:40Z</time>
      </trkpt>
      <trkpt lat="45.522" lon="6.75588">
        <ele>2273.2</ele>
        <time>2021-08-03T08:57:41Z</time>
      </trkpt>
      <trkpt lat="45.522" lon="6.75589">
        <ele>2273</ele>
        <time>2021-08-03T08:57:42Z</time>
      </trkpt>
      <trkpt lat="45.52199" lon="6.7559">
        <ele>2272.8</ele>
        <time>2021-08-03T08:57:43Z</time>
      </trkpt>
      <trkpt lat="45.52199" lon="6.75592">
        <ele>2272.6</ele>
        <time>2021-08-03T08:57:44Z</time>
      </trkpt>
      <trkpt lat="45.52199" lon="6.75593">
        <ele>2272.4</ele>
        <time>2021-08-03T08:57:45Z</time>
      </trkpt>
      <trkpt lat="45.52198" lon="6.75594">
        <ele>2272.2</ele>
        <time>2021-08-03T08:57:46Z</time>
      </trkpt>
      <trkpt lat="45.52198" lon="6.75596">
        <ele>2272</ele>
        <time>2021-08-03T08:57:47Z</time>
      </trkpt>
      <trkpt lat="45.52198" lon="6.75597">
        <ele>2271.9</ele>
        <time>2021-08-03T08:57:48Z</time>
      </trkpt>
      <trkpt lat="45.52197" lon="6.75598">
        <ele>2271.7</ele>
        <time>2021-08-03T08:57:49Z</time>
      </trkpt>
      <trkpt lat="45.52197" lon="6.75599">
        <ele>2271.6</ele>
        <time>2021-08-03T08:57:50Z</time>
      </trkpt>
      <trkpt lat="45.52197" lon="6.756">
        <ele>2271.4</ele>
        <time>2021-08-03T08:57:51Z</time>
      </trkpt>
      <trkpt lat="45.52197" lon="6.75601">
        <ele>2271.3</ele>
        <time>2021-08-03T08:57:52Z</time>
      </trkpt>
      <trkpt lat="45.52197" lon="6.75602">
        <ele>2271.2</ele>
        <time>2021-08-03T08:57:53Z</time>
      </trkpt>
      <trkpt lat="45.52196" lon="6.75603">
        <ele>2271</ele>
        <time>2021-08-03T08:57:54Z</time>
      </trkpt>
      <trkpt lat="45.52196" lon="6.75604">
        <ele>2270.9</ele>
        <time>2021-08-03T08:57:55Z</time>
      </trkpt>
      <trkpt lat="45.52196" lon="6.75605">
        <ele>2270.8</ele>
        <time>2021-08-03T08:57:56Z</time>
      </trkpt>
      <trkpt lat="45.52196" lon="6.75605">
        <ele>2270.7</ele>
        <time>2021-08-03T08:57:57Z</time>
      </trkpt>
      <trkpt lat="45.52195" lon="6.75606">
        <ele>2270.5</ele>
        <time>2021-08-03T08:57:58Z</time>
      </trkpt>
      <trkpt lat="45.52195" lon="6.75607">
        <ele>2270.4</ele>
        <time>2021-08-03T08:57:59Z</time>
      </trkpt>
      <trkpt lat="45.52195" lon="6.75608">
        <ele>2270.3</ele>
        <time>2021-08-03T08:58:00Z</time>
      </trkpt>
      <trkpt lat="45.52195" lon="6.75609">
        <ele>2270.2</ele>
        <time>2021-08-03T08:58:01Z</time>
      </trkpt>
      <trkpt lat="45.52195" lon="6.7561">
        <ele>2270</ele>
        <time>2021-08-03T08:58:02Z</time>
      </trkpt>
      <trkpt lat="45.52194" lon="6.75611">
        <ele>2269.9</ele>
        <time>2021-08-03T08:58:03Z</time>
      </trkpt>
      <trkpt lat="45.52194" lon="6.75612">
        <ele>2269.7</ele>
        <time>2021-08-03T08:58:04Z</time>
      </trkpt>
      <trkpt lat="45.52194" lon="6.75613">
        <ele>2269.6</ele>
        <time>2021-08-03T08:58:05Z</time>
      </trkpt>
      <trkpt lat="45.52194" lon="6.75614">
        <ele>2269.4</ele>
        <time>2021-08-03T08:58:06Z</time>
      </trkpt>
      <trkpt lat="45.52194" lon="6.75615">
        <ele>2269.3</ele>
        <time>2021-08-03T08:58:07Z</time>
      </trkpt>
      <trkpt lat="45.52193" lon="6.75616">
        <ele>2269.2</ele>
        <time>2021-08-03T08:58:08Z</time>
      </trkpt>
      <trkpt lat="45.52193" lon="6.75617">
        <ele>2269</ele>
        <time>2021-08-03T08:58:09Z</time>
      </trkpt>
      <trkpt lat="45.52193" lon="6.75618">
        <ele>2268.9</ele>
        <time>2021-08-03T08:58:10Z</time>
      </trkpt>
      <trkpt lat="45.52193" lon="6.75619">
        <ele>2268.7</ele>
        <time>2021-08-03T08:58:11Z</time>
      </trkpt>
      <trkpt lat="45.52193" lon="6.7562">
        <ele>2268.6</ele>
        <time>2021-08-03T08:58:12Z</time>
      </trkpt>
      <trkpt lat="45.52193" lon="6.75621">
        <ele>2268.5</ele>
        <time>2021-08-03T08:58:13Z</time>
      </trkpt>
      <trkpt lat="45.52193" lon="6.75622">
        <ele>2268.4</ele>
        <time>2021-08-03T08:58:14Z</time>
      </trkpt>
      <trkpt lat="45.52192" lon="6.75623">
        <ele>2268.3</ele>
        <time>2021-08-03T08:58:15Z</time>
      </trkpt>
      <trkpt lat="45.52192" lon="6.75623">
        <ele>2268.2</ele>
        <time>2021-08-03T08:58:16Z</time>
      </trkpt>
      <trkpt lat="45.52192" lon="6.75624">
        <ele>2268.2</ele>
        <time>2021-08-03T08:58:17Z</time>
      </trkpt>
      <trkpt lat="45.52192" lon="6.75624">
        <ele>2268.1</ele>
        <time>2021-08-03T08:58:18Z</time>
      </trkpt>
      <trkpt lat="45.52192" lon="6.75625">
        <ele>2268.1</ele>
        <time>2021-08-03T08:58:19Z</time>
      </trkpt>
      <trkpt lat="45.52192" lon="6.75625">
        <ele>2268</ele>
        <time>2021-08-03T08:58:20Z</time>
      </trkpt>
      <trkpt lat="45.52192" lon="6.75625">
        <ele>2268</ele>
        <time>2021-08-03T08:58:21Z</time>
      </trkpt>
      <trkpt lat="45.52192" lon="6.75625">
        <ele>2268</ele>
        <time>2021-08-03T08:58:22Z</time>
      </trkpt>
      <trkpt lat="45.52192" lon="6.75625">
        <ele>2268</ele>
        <time>2021-08-03T08:58:23Z</time>
      </trkpt>
      <trkpt lat="45.52192" lon="6.75625">
        <ele>2268</ele>
        <time>2021-08-03T08:58:24Z</time>
      </trkpt>
      <trkpt lat="45.52192" lon="6.75625">
        <ele>2268</ele>
        <time>2021-08-03T08:58:25Z</time>
      </trkpt>
      <trkpt lat="45.52192" lon="6.75625">
        <ele>2268</ele>
        <time>2021-08-03T08:58:26Z</time>
      </trkpt>
      <trkpt lat="45.52192" lon="6.75625">
        <ele>2268</ele>
        <time>2021-08-03T08:58:27Z</time>
      </trkpt>
      <trkpt lat="45.52192" lon="6.75624">
        <ele>2267.9</ele>
        <time>2021-08-03T08:58:28Z</time>
      </trkpt>
      <trkpt lat="45.52192" lon="6.75624">
        <ele>2267.9</ele>
        <time>2021-08-03T08:58:29Z</time>
      </trkpt>
      <trkpt lat="45.52192" lon="6.75624">
        <ele>2267.9</ele>
        <time>2021-08-03T08:58:30Z</time>
      </trkpt>
      <trkpt lat="45.52192" lon="6.75625">
        <ele>2267.9</ele>
        <time>2021-08-03T08:58:31Z</time>
      </trkpt>
      <trkpt lat="45.52192" lon="6.75625">
        <ele>2267.9</ele>
        <time>2021-08-03T08:58:32Z</time>
      </trkpt>
      <trkpt lat="45.52192" lon="6.75625">
        <ele>2267.9</ele>
        <time>2021-08-03T08:58:33Z</time>
      </trkpt>
      <trkpt lat="45.52192" lon="6.75625">
        <ele>2267.8</ele>
        <time>2021-08-03T08:58:34Z</time>
      </trkpt>
      <trkpt lat="45.52192" lon="6.75626">
        <ele>2267.8</ele>
        <time>2021-08-03T08:58:35Z</time>
      </trkpt>
      <trkpt lat="45.52192" lon="6.75627">
        <ele>2267.7</ele>
        <time>2021-08-03T08:58:36Z</time>
      </trkpt>
      <trkpt lat="45.52192" lon="6.75627">
        <ele>2267.6</ele>
        <time>2021-08-03T08:58:37Z</time>
      </trkpt>
      <trkpt lat="45.52192" lon="6.75628">
        <ele>2267.4</ele>
        <time>2021-08-03T08:58:38Z</time>
      </trkpt>
      <trkpt lat="45.52192" lon="6.75629">
        <ele>2267.3</ele>
        <time>2021-08-03T08:58:39Z</time>
      </trkpt>
      <trkpt lat="45.52192" lon="6.7563">
        <ele>2267.2</ele>
        <time>2021-08-03T08:58:40Z</time>
      </trkpt>
      <trkpt lat="45.52192" lon="6.75631">
        <ele>2267.1</ele>
        <time>2021-08-03T08:58:41Z</time>
      </trkpt>
      <trkpt lat="45.52192" lon="6.75632">
        <ele>2267</ele>
        <time>2021-08-03T08:58:42Z</time>
      </trkpt>
      <trkpt lat="45.52191" lon="6.75633">
        <ele>2266.8</ele>
        <time>2021-08-03T08:58:43Z</time>
      </trkpt>
      <trkpt lat="45.52191" lon="6.75633">
        <ele>2266.7</ele>
        <time>2021-08-03T08:58:44Z</time>
      </trkpt>
      <trkpt lat="45.52191" lon="6.75634">
        <ele>2266.6</ele>
        <time>2021-08-03T08:58:45Z</time>
      </trkpt>
      <trkpt lat="45.52191" lon="6.75635">
        <ele>2266.5</ele>
        <time>2021-08-03T08:58:46Z</time>
      </trkpt>
      <trkpt lat="45.5219" lon="6.75635">
        <ele>2266.4</ele>
        <time>2021-08-03T08:58:47Z</time>
      </trkpt>
      <trkpt lat="45.5219" lon="6.75635">
        <ele>2266.4</ele>
        <time>2021-08-03T08:58:48Z</time>
      </trkpt>
      <trkpt lat="45.5219" lon="6.75636">
        <ele>2266.3</ele>
        <time>2021-08-03T08:58:49Z</time>
      </trkpt>
      <trkpt lat="45.5219" lon="6.75636">
        <ele>2266.3</ele>
        <time>2021-08-03T08:58:50Z</time>
      </trkpt>
      <trkpt lat="45.5219" lon="6.75636">
        <ele>2266.3</ele>
        <time>2021-08-03T08:58:51Z</time>
      </trkpt>
      <trkpt lat="45.5219" lon="6.75636">
        <ele>2266.3</ele>
        <time>2021-08-03T08:58:52Z</time>
      </trkpt>
      <trkpt lat="45.5219" lon="6.75636">
        <ele>2266.2</ele>
        <time>2021-08-03T08:58:53Z</time>
      </trkpt>
      <trkpt lat="45.52189" lon="6.75637">
        <ele>2266.1</ele>
        <time>2021-08-03T08:58:54Z</time>
      </trkpt>
      <trkpt lat="45.52189" lon="6.75638">
        <ele>2265.9</ele>
        <time>2021-08-03T08:58:55Z</time>
      </trkpt>
      <trkpt lat="45.52189" lon="6.7564">
        <ele>2265.8</ele>
        <time>2021-08-03T08:58:56Z</time>
      </trkpt>
      <trkpt lat="45.52188" lon="6.75641">
        <ele>2265.6</ele>
        <time>2021-08-03T08:58:57Z</time>
      </trkpt>
      <trkpt lat="45.52188" lon="6.75642">
        <ele>2265.5</ele>
        <time>2021-08-03T08:58:58Z</time>
      </trkpt>
      <trkpt lat="45.52188" lon="6.75642">
        <ele>2265.4</ele>
        <time>2021-08-03T08:58:59Z</time>
      </trkpt>
      <trkpt lat="45.52188" lon="6.75642">
        <ele>2265.4</ele>
        <time>2021-08-03T08:59:00Z</time>
      </trkpt>
      <trkpt lat="45.52188" lon="6.75642">
        <ele>2265.3</ele>
        <time>2021-08-03T08:59:01Z</time>
      </trkpt>
      <trkpt lat="45.52188" lon="6.75642">
        <ele>2265.3</ele>
        <time>2021-08-03T08:59:02Z</time>
      </trkpt>
      <trkpt lat="45.52188" lon="6.75642">
        <ele>2265.3</ele>
        <time>2021-08-03T08:59:03Z</time>
      </trkpt>
      <trkpt lat="45.52188" lon="6.75642">
        <ele>2265.3</ele>
        <time>2021-08-03T08:59:04Z</time>
      </trkpt>
      <trkpt lat="45.52188" lon="6.75642">
        <ele>2265.2</ele>
        <time>2021-08-03T08:59:05Z</time>
      </trkpt>
      <trkpt lat="45.52188" lon="6.75642">
        <ele>2265.2</ele>
        <time>2021-08-03T08:59:06Z</time>
      </trkpt>
      <trkpt lat="45.52188" lon="6.75642">
        <ele>2265.2</ele>
        <time>2021-08-03T08:59:07Z</time>
      </trkpt>
      <trkpt lat="45.52188" lon="6.75642">
        <ele>2265.2</ele>
        <time>2021-08-03T08:59:08Z</time>
      </trkpt>
      <trkpt lat="45.52188" lon="6.75642">
        <ele>2265.2</ele>
        <time>2021-08-03T08:59:09Z</time>
      </trkpt>
      <trkpt lat="45.52188" lon="6.75642">
        <ele>2265.2</ele>
        <time>2021-08-03T08:59:10Z</time>
      </trkpt>
      <trkpt lat="45.52188" lon="6.75642">
        <ele>2265.2</ele>
        <time>2021-08-03T08:59:11Z</time>
      </trkpt>
      <trkpt lat="45.52188" lon="6.75642">
        <ele>2265.2</ele>
        <time>2021-08-03T08:59:12Z</time>
      </trkpt>
      <trkpt lat="45.52187" lon="6.75642">
        <ele>2265.2</ele>
        <time>2021-08-03T08:59:13Z</time>
      </trkpt>
      <trkpt lat="45.52187" lon="6.75642">
        <ele>2265.2</ele>
        <time>2021-08-03T08:59:14Z</time>
      </trkpt>
      <trkpt lat="45.52187" lon="6.75642">
        <ele>2265.2</ele>
        <time>2021-08-03T08:59:15Z</time>
      </trkpt>
      <trkpt lat="45.52187" lon="6.75642">
        <ele>2265.2</ele>
        <time>2021-08-03T08:59:16Z</time>
      </trkpt>
      <trkpt lat="45.52187" lon="6.75642">
        <ele>2265.2</ele>
        <time>2021-08-03T08:59:17Z</time>
      </trkpt>
      <trkpt lat="45.52188" lon="6.75642">
        <ele>2265.1</ele>
        <time>2021-08-03T08:59:18Z</time>
      </trkpt>
      <trkpt lat="45.52188" lon="6.75642">
        <ele>2265.1</ele>
        <time>2021-08-03T08:59:19Z</time>
      </trkpt>
      <trkpt lat="45.52188" lon="6.75641">
        <ele>2265.1</ele>
        <time>2021-08-03T08:59:20Z</time>
      </trkpt>
      <trkpt lat="45.52188" lon="6.75641">
        <ele>2265.1</ele>
        <time>2021-08-03T08:59:21Z</time>
      </trkpt>
      <trkpt lat="45.52188" lon="6.75641">
        <ele>2265.1</ele>
        <time>2021-08-03T08:59:22Z</time>
      </trkpt>
      <trkpt lat="45.52188" lon="6.75641">
        <ele>2265</ele>
        <time>2021-08-03T08:59:23Z</time>
      </trkpt>
      <trkpt lat="45.52188" lon="6.75641">
        <ele>2265</ele>
        <time>2021-08-03T08:59:24Z</time>
      </trkpt>
      <trkpt lat="45.52188" lon="6.75641">
        <ele>2265</ele>
        <time>2021-08-03T08:59:25Z</time>
      </trkpt>
      <trkpt lat="45.52188" lon="6.75641">
        <ele>2265</ele>
        <time>2021-08-03T08:59:26Z</time>
      </trkpt>
      <trkpt lat="45.52188" lon="6.75641">
        <ele>2265</ele>
        <time>2021-08-03T08:59:27Z</time>
      </trkpt>
      <trkpt lat="45.52188" lon="6.75641">
        <ele>2265</ele>
        <time>2021-08-03T08:59:28Z</time>
      </trkpt>
      <trkpt lat="45.52188" lon="6.75641">
        <ele>2264.9</ele>
        <time>2021-08-03T08:59:29Z</time>
      </trkpt>
      <trkpt lat="45.52188" lon="6.75641">
        <ele>2264.9</ele>
        <time>2021-08-03T08:59:30Z</time>
      </trkpt>
      <trkpt lat="45.52187" lon="6.75642">
        <ele>2264.8</ele>
        <time>2021-08-03T08:59:31Z</time>
      </trkpt>
      <trkpt lat="45.52187" lon="6.75643">
        <ele>2264.7</ele>
        <time>2021-08-03T08:59:32Z</time>
      </trkpt>
      <trkpt lat="45.52187" lon="6.75643">
        <ele>2264.6</ele>
        <time>2021-08-03T08:59:33Z</time>
      </trkpt>
      <trkpt lat="45.52187" lon="6.75644">
        <ele>2264.5</ele>
        <time>2021-08-03T08:59:34Z</time>
      </trkpt>
      <trkpt lat="45.52187" lon="6.75645">
        <ele>2264.4</ele>
        <time>2021-08-03T08:59:35Z</time>
      </trkpt>
      <trkpt lat="45.52187" lon="6.75646">
        <ele>2264.3</ele>
        <time>2021-08-03T08:59:36Z</time>
      </trkpt>
      <trkpt lat="45.52187" lon="6.75646">
        <ele>2264.2</ele>
        <time>2021-08-03T08:59:37Z</time>
      </trkpt>
      <trkpt lat="45.52187" lon="6.75647">
        <ele>2264.1</ele>
        <time>2021-08-03T08:59:38Z</time>
      </trkpt>
      <trkpt lat="45.52187" lon="6.75648">
        <ele>2264</ele>
        <time>2021-08-03T08:59:39Z</time>
      </trkpt>
      <trkpt lat="45.52187" lon="6.75648">
        <ele>2263.9</ele>
        <time>2021-08-03T08:59:40Z</time>
      </trkpt>
      <trkpt lat="45.52186" lon="6.75649">
        <ele>2263.9</ele>
        <time>2021-08-03T08:59:41Z</time>
      </trkpt>
      <trkpt lat="45.52186" lon="6.75649">
        <ele>2263.8</ele>
        <time>2021-08-03T08:59:42Z</time>
      </trkpt>
      <trkpt lat="45.52186" lon="6.7565">
        <ele>2263.7</ele>
        <time>2021-08-03T08:59:43Z</time>
      </trkpt>
      <trkpt lat="45.52186" lon="6.7565">
        <ele>2263.7</ele>
        <time>2021-08-03T08:59:44Z</time>
      </trkpt>
      <trkpt lat="45.52186" lon="6.75651">
        <ele>2263.6</ele>
        <time>2021-08-03T08:59:45Z</time>
      </trkpt>
      <trkpt lat="45.52186" lon="6.75651">
        <ele>2263.5</ele>
        <time>2021-08-03T08:59:46Z</time>
      </trkpt>
      <trkpt lat="45.52187" lon="6.75652">
        <ele>2263.5</ele>
        <time>2021-08-03T08:59:47Z</time>
      </trkpt>
      <trkpt lat="45.52187" lon="6.75652">
        <ele>2263.4</ele>
        <time>2021-08-03T08:59:48Z</time>
      </trkpt>
      <trkpt lat="45.52187" lon="6.75653">
        <ele>2263.3</ele>
        <time>2021-08-03T08:59:49Z</time>
      </trkpt>
      <trkpt lat="45.52187" lon="6.75654">
        <ele>2263.2</ele>
        <time>2021-08-03T08:59:50Z</time>
      </trkpt>
      <trkpt lat="45.52187" lon="6.75654">
        <ele>2263.2</ele>
        <time>2021-08-03T08:59:51Z</time>
      </trkpt>
      <trkpt lat="45.52187" lon="6.75655">
        <ele>2263.1</ele>
        <time>2021-08-03T08:59:52Z</time>
      </trkpt>
      <trkpt lat="45.52187" lon="6.75655">
        <ele>2263</ele>
        <time>2021-08-03T08:59:53Z</time>
      </trkpt>
      <trkpt lat="45.52187" lon="6.75656">
        <ele>2262.9</ele>
        <time>2021-08-03T08:59:54Z</time>
      </trkpt>
      <trkpt lat="45.52187" lon="6.75657">
        <ele>2262.8</ele>
        <time>2021-08-03T08:59:55Z</time>
      </trkpt>
      <trkpt lat="45.52187" lon="6.75658">
        <ele>2262.7</ele>
        <time>2021-08-03T08:59:56Z</time>
      </trkpt>
      <trkpt lat="45.52188" lon="6.75659">
        <ele>2262.6</ele>
        <time>2021-08-03T08:59:57Z</time>
      </trkpt>
      <trkpt lat="45.52188" lon="6.75659">
        <ele>2262.4</ele>
        <time>2021-08-03T08:59:58Z</time>
      </trkpt>
      <trkpt lat="45.52188" lon="6.7566">
        <ele>2262.3</ele>
        <time>2021-08-03T08:59:59Z</time>
      </trkpt>
      <trkpt lat="45.52188" lon="6.75661">
        <ele>2262.2</ele>
        <time>2021-08-03T09:00:00Z</time>
      </trkpt>
      <trkpt lat="45.52188" lon="6.75662">
        <ele>2262.1</ele>
        <time>2021-08-03T09:00:01Z</time>
      </trkpt>
      <trkpt lat="45.52187" lon="6.75663">
        <ele>2262</ele>
        <time>2021-08-03T09:00:02Z</time>
      </trkpt>
      <trkpt lat="45.52187" lon="6.75664">
        <ele>2261.8</ele>
        <time>2021-08-03T09:00:03Z</time>
      </trkpt>
      <trkpt lat="45.52187" lon="6.75665">
        <ele>2261.7</ele>
        <time>2021-08-03T09:00:04Z</time>
      </trkpt>
      <trkpt lat="45.52187" lon="6.75665">
        <ele>2261.6</ele>
        <time>2021-08-03T09:00:05Z</time>
      </trkpt>
      <trkpt lat="45.52186" lon="6.75666">
        <ele>2261.5</ele>
        <time>2021-08-03T09:00:06Z</time>
      </trkpt>
      <trkpt lat="45.52186" lon="6.75667">
        <ele>2261.4</ele>
        <time>2021-08-03T09:00:07Z</time>
      </trkpt>
      <trkpt lat="45.52186" lon="6.75667">
        <ele>2261.3</ele>
        <time>2021-08-03T09:00:08Z</time>
      </trkpt>
      <trkpt lat="45.52186" lon="6.75668">
        <ele>2261.2</ele>
        <time>2021-08-03T09:00:09Z</time>
      </trkpt>
      <trkpt lat="45.52185" lon="6.75668">
        <ele>2261.1</ele>
        <time>2021-08-03T09:00:10Z</time>
      </trkpt>
      <trkpt lat="45.52185" lon="6.75669">
        <ele>2261</ele>
        <time>2021-08-03T09:00:11Z</time>
      </trkpt>
      <trkpt lat="45.52185" lon="6.75669">
        <ele>2261</ele>
        <time>2021-08-03T09:00:12Z</time>
      </trkpt>
      <trkpt lat="45.52185" lon="6.75669">
        <ele>2260.9</ele>
        <time>2021-08-03T09:00:13Z</time>
      </trkpt>
      <trkpt lat="45.52185" lon="6.7567">
        <ele>2260.9</ele>
        <time>2021-08-03T09:00:14Z</time>
      </trkpt>
      <trkpt lat="45.52185" lon="6.7567">
        <ele>2260.9</ele>
        <time>2021-08-03T09:00:15Z</time>
      </trkpt>
      <trkpt lat="45.52185" lon="6.7567">
        <ele>2260.8</ele>
        <time>2021-08-03T09:00:16Z</time>
      </trkpt>
      <trkpt lat="45.52185" lon="6.7567">
        <ele>2260.7</ele>
        <time>2021-08-03T09:00:17Z</time>
      </trkpt>
      <trkpt lat="45.52186" lon="6.75671">
        <ele>2260.6</ele>
        <time>2021-08-03T09:00:18Z</time>
      </trkpt>
      <trkpt lat="45.52186" lon="6.75671">
        <ele>2260.5</ele>
        <time>2021-08-03T09:00:19Z</time>
      </trkpt>
      <trkpt lat="45.52187" lon="6.75671">
        <ele>2260.4</ele>
        <time>2021-08-03T09:00:20Z</time>
      </trkpt>
      <trkpt lat="45.52188" lon="6.75672">
        <ele>2260.2</ele>
        <time>2021-08-03T09:00:21Z</time>
      </trkpt>
      <trkpt lat="45.52188" lon="6.75672">
        <ele>2260.1</ele>
        <time>2021-08-03T09:00:22Z</time>
      </trkpt>
      <trkpt lat="45.52189" lon="6.75673">
        <ele>2260</ele>
        <time>2021-08-03T09:00:23Z</time>
      </trkpt>
      <trkpt lat="45.52189" lon="6.75674">
        <ele>2259.9</ele>
        <time>2021-08-03T09:00:24Z</time>
      </trkpt>
      <trkpt lat="45.52189" lon="6.75675">
        <ele>2259.8</ele>
        <time>2021-08-03T09:00:25Z</time>
      </trkpt>
      <trkpt lat="45.52189" lon="6.75675">
        <ele>2259.6</ele>
        <time>2021-08-03T09:00:26Z</time>
      </trkpt>
      <trkpt lat="45.52189" lon="6.75676">
        <ele>2259.5</ele>
        <time>2021-08-03T09:00:27Z</time>
      </trkpt>
      <trkpt lat="45.52189" lon="6.75677">
        <ele>2259.4</ele>
        <time>2021-08-03T09:00:28Z</time>
      </trkpt>
      <trkpt lat="45.52189" lon="6.75678">
        <ele>2259.2</ele>
        <time>2021-08-03T09:00:29Z</time>
      </trkpt>
      <trkpt lat="45.52189" lon="6.75679">
        <ele>2259.1</ele>
        <time>2021-08-03T09:00:30Z</time>
      </trkpt>
      <trkpt lat="45.52189" lon="6.7568">
        <ele>2259</ele>
        <time>2021-08-03T09:00:31Z</time>
      </trkpt>
      <trkpt lat="45.52189" lon="6.75681">
        <ele>2258.9</ele>
        <time>2021-08-03T09:00:32Z</time>
      </trkpt>
      <trkpt lat="45.52188" lon="6.75681">
        <ele>2258.9</ele>
        <time>2021-08-03T09:00:33Z</time>
      </trkpt>
      <trkpt lat="45.52188" lon="6.75681">
        <ele>2258.8</ele>
        <time>2021-08-03T09:00:34Z</time>
      </trkpt>
      <trkpt lat="45.52188" lon="6.75682">
        <ele>2258.8</ele>
        <time>2021-08-03T09:00:35Z</time>
      </trkpt>
      <trkpt lat="45.52188" lon="6.75682">
        <ele>2258.8</ele>
        <time>2021-08-03T09:00:36Z</time>
      </trkpt>
      <trkpt lat="45.52188" lon="6.75682">
        <ele>2258.8</ele>
        <time>2021-08-03T09:00:37Z</time>
      </trkpt>
      <trkpt lat="45.52188" lon="6.75682">
        <ele>2258.8</ele>
        <time>2021-08-03T09:00:38Z</time>
      </trkpt>
      <trkpt lat="45.52188" lon="6.75682">
        <ele>2258.7</ele>
        <time>2021-08-03T09:00:39Z</time>
      </trkpt>
      <trkpt lat="45.52188" lon="6.75681">
        <ele>2258.7</ele>
        <time>2021-08-03T09:00:40Z</time>
      </trkpt>
      <trkpt lat="45.52188" lon="6.75681">
        <ele>2258.7</ele>
        <time>2021-08-03T09:00:41Z</time>
      </trkpt>
      <trkpt lat="45.52188" lon="6.75681">
        <ele>2258.7</ele>
        <time>2021-08-03T09:00:42Z</time>
      </trkpt>
      <trkpt lat="45.52188" lon="6.75681">
        <ele>2258.7</ele>
        <time>2021-08-03T09:00:43Z</time>
      </trkpt>
      <trkpt lat="45.52188" lon="6.75681">
        <ele>2258.7</ele>
        <time>2021-08-03T09:00:44Z</time>
      </trkpt>
      <trkpt lat="45.52188" lon="6.75681">
        <ele>2258.7</ele>
        <time>2021-08-03T09:00:45Z</time>
      </trkpt>
      <trkpt lat="45.52188" lon="6.75681">
        <ele>2258.6</ele>
        <time>2021-08-03T09:00:46Z</time>
      </trkpt>
      <trkpt lat="45.52188" lon="6.75682">
        <ele>2258.6</ele>
        <time>2021-08-03T09:00:47Z</time>
      </trkpt>
      <trkpt lat="45.52188" lon="6.75682">
        <ele>2258.5</ele>
        <time>2021-08-03T09:00:48Z</time>
      </trkpt>
      <trkpt lat="45.52188" lon="6.75682">
        <ele>2258.5</ele>
        <time>2021-08-03T09:00:49Z</time>
      </trkpt>
      <trkpt lat="45.52188" lon="6.75683">
        <ele>2258.4</ele>
        <time>2021-08-03T09:00:50Z</time>
      </trkpt>
      <trkpt lat="45.52187" lon="6.75684">
        <ele>2258.3</ele>
        <time>2021-08-03T09:00:51Z</time>
      </trkpt>
      <trkpt lat="45.52187" lon="6.75684">
        <ele>2258.2</ele>
        <time>2021-08-03T09:00:52Z</time>
      </trkpt>
      <trkpt lat="45.52187" lon="6.75685">
        <ele>2258.1</ele>
        <time>2021-08-03T09:00:53Z</time>
      </trkpt>
      <trkpt lat="45.52187" lon="6.75686">
        <ele>2258</ele>
        <time>2021-08-03T09:00:54Z</time>
      </trkpt>
      <trkpt lat="45.52187" lon="6.75687">
        <ele>2257.9</ele>
        <time>2021-08-03T09:00:55Z</time>
      </trkpt>
      <trkpt lat="45.52188" lon="6.75687">
        <ele>2257.8</ele>
        <time>2021-08-03T09:00:56Z</time>
      </trkpt>
      <trkpt lat="45.52188" lon="6.75688">
        <ele>2257.6</ele>
        <time>2021-08-03T09:00:57Z</time>
      </trkpt>
      <trkpt lat="45.52188" lon="6.75689">
        <ele>2257.5</ele>
        <time>2021-08-03T09:00:58Z</time>
      </trkpt>
      <trkpt lat="45.52189" lon="6.7569">
        <ele>2257.4</ele>
        <time>2021-08-03T09:00:59Z</time>
      </trkpt>
      <trkpt lat="45.52188" lon="6.75691">
        <ele>2257.3</ele>
        <time>2021-08-03T09:01:00Z</time>
      </trkpt>
      <trkpt lat="45.52188" lon="6.75692">
        <ele>2257.2</ele>
        <time>2021-08-03T09:01:01Z</time>
      </trkpt>
      <trkpt lat="45.52188" lon="6.75693">
        <ele>2257</ele>
        <time>2021-08-03T09:01:02Z</time>
      </trkpt>
      <trkpt lat="45.52187" lon="6.75694">
        <ele>2256.8</ele>
        <time>2021-08-03T09:01:03Z</time>
      </trkpt>
      <trkpt lat="45.52187" lon="6.75695">
        <ele>2256.7</ele>
        <time>2021-08-03T09:01:04Z</time>
      </trkpt>
      <trkpt lat="45.52186" lon="6.75696">
        <ele>2256.5</ele>
        <time>2021-08-03T09:01:05Z</time>
      </trkpt>
      <trkpt lat="45.52186" lon="6.75697">
        <ele>2256.4</ele>
        <time>2021-08-03T09:01:06Z</time>
      </trkpt>
      <trkpt lat="45.52186" lon="6.75698">
        <ele>2256.2</ele>
        <time>2021-08-03T09:01:07Z</time>
      </trkpt>
      <trkpt lat="45.52185" lon="6.75699">
        <ele>2256</ele>
        <time>2021-08-03T09:01:08Z</time>
      </trkpt>
      <trkpt lat="45.52185" lon="6.75701">
        <ele>2255.9</ele>
        <time>2021-08-03T09:01:09Z</time>
      </trkpt>
      <trkpt lat="45.52185" lon="6.75702">
        <ele>2255.7</ele>
        <time>2021-08-03T09:01:10Z</time>
      </trkpt>
      <trkpt lat="45.52185" lon="6.75703">
        <ele>2255.5</ele>
        <time>2021-08-03T09:01:11Z</time>
      </trkpt>
      <trkpt lat="45.52185" lon="6.75704">
        <ele>2255.4</ele>
        <time>2021-08-03T09:01:12Z</time>
      </trkpt>
      <trkpt lat="45.52184" lon="6.75705">
        <ele>2255.2</ele>
        <time>2021-08-03T09:01:13Z</time>
      </trkpt>
      <trkpt lat="45.52184" lon="6.75706">
        <ele>2255.1</ele>
        <time>2021-08-03T09:01:14Z</time>
      </trkpt>
      <trkpt lat="45.52184" lon="6.75707">
        <ele>2254.9</ele>
        <time>2021-08-03T09:01:15Z</time>
      </trkpt>
      <trkpt lat="45.52183" lon="6.75708">
        <ele>2254.8</ele>
        <time>2021-08-03T09:01:16Z</time>
      </trkpt>
      <trkpt lat="45.52183" lon="6.75709">
        <ele>2254.6</ele>
        <time>2021-08-03T09:01:17Z</time>
      </trkpt>
      <trkpt lat="45.52182" lon="6.7571">
        <ele>2254.4</ele>
        <time>2021-08-03T09:01:18Z</time>
      </trkpt>
      <trkpt lat="45.52182" lon="6.75712">
        <ele>2254.3</ele>
        <time>2021-08-03T09:01:19Z</time>
      </trkpt>
      <trkpt lat="45.52181" lon="6.75713">
        <ele>2254.1</ele>
        <time>2021-08-03T09:01:20Z</time>
      </trkpt>
      <trkpt lat="45.52181" lon="6.75714">
        <ele>2253.9</ele>
        <time>2021-08-03T09:01:21Z</time>
      </trkpt>
      <trkpt lat="45.5218" lon="6.75715">
        <ele>2253.7</ele>
        <time>2021-08-03T09:01:22Z</time>
      </trkpt>
      <trkpt lat="45.5218" lon="6.75716">
        <ele>2253.6</ele>
        <time>2021-08-03T09:01:23Z</time>
      </trkpt>
      <trkpt lat="45.52179" lon="6.75717">
        <ele>2253.4</ele>
        <time>2021-08-03T09:01:24Z</time>
      </trkpt>
      <trkpt lat="45.52179" lon="6.75718">
        <ele>2253.2</ele>
        <time>2021-08-03T09:01:25Z</time>
      </trkpt>
      <trkpt lat="45.52178" lon="6.75719">
        <ele>2253.1</ele>
        <time>2021-08-03T09:01:26Z</time>
      </trkpt>
      <trkpt lat="45.52178" lon="6.7572">
        <ele>2252.9</ele>
        <time>2021-08-03T09:01:27Z</time>
      </trkpt>
      <trkpt lat="45.52177" lon="6.75721">
        <ele>2252.8</ele>
        <time>2021-08-03T09:01:28Z</time>
      </trkpt>
      <trkpt lat="45.52177" lon="6.75722">
        <ele>2252.6</ele>
        <time>2021-08-03T09:01:29Z</time>
      </trkpt>
      <trkpt lat="45.52177" lon="6.75723">
        <ele>2252.5</ele>
        <time>2021-08-03T09:01:30Z</time>
      </trkpt>
      <trkpt lat="45.52176" lon="6.75723">
        <ele>2252.4</ele>
        <time>2021-08-03T09:01:31Z</time>
      </trkpt>
      <trkpt lat="45.52176" lon="6.75724">
        <ele>2252.3</ele>
        <time>2021-08-03T09:01:32Z</time>
      </trkpt>
      <trkpt lat="45.52176" lon="6.75725">
        <ele>2252.2</ele>
        <time>2021-08-03T09:01:33Z</time>
      </trkpt>
      <trkpt lat="45.52176" lon="6.75725">
        <ele>2252.1</ele>
        <time>2021-08-03T09:01:34Z</time>
      </trkpt>
      <trkpt lat="45.52175" lon="6.75726">
        <ele>2252</ele>
        <time>2021-08-03T09:01:35Z</time>
      </trkpt>
      <trkpt lat="45.52175" lon="6.75726">
        <ele>2251.9</ele>
        <time>2021-08-03T09:01:36Z</time>
      </trkpt>
      <trkpt lat="45.52175" lon="6.75727">
        <ele>2251.9</ele>
        <time>2021-08-03T09:01:37Z</time>
      </trkpt>
      <trkpt lat="45.52175" lon="6.75727">
        <ele>2251.8</ele>
        <time>2021-08-03T09:01:38Z</time>
      </trkpt>
      <trkpt lat="45.52175" lon="6.75728">
        <ele>2251.7</ele>
        <time>2021-08-03T09:01:39Z</time>
      </trkpt>
      <trkpt lat="45.52175" lon="6.75728">
        <ele>2251.7</ele>
        <time>2021-08-03T09:01:40Z</time>
      </trkpt>
      <trkpt lat="45.52175" lon="6.75728">
        <ele>2251.7</ele>
        <time>2021-08-03T09:01:41Z</time>
      </trkpt>
      <trkpt lat="45.52175" lon="6.75728">
        <ele>2251.6</ele>
        <time>2021-08-03T09:01:42Z</time>
      </trkpt>
      <trkpt lat="45.52174" lon="6.75729">
        <ele>2251.6</ele>
        <time>2021-08-03T09:01:43Z</time>
      </trkpt>
      <trkpt lat="45.52174" lon="6.75729">
        <ele>2251.6</ele>
        <time>2021-08-03T09:01:44Z</time>
      </trkpt>
      <trkpt lat="45.52174" lon="6.75729">
        <ele>2251.6</ele>
        <time>2021-08-03T09:01:45Z</time>
      </trkpt>
      <trkpt lat="45.52174" lon="6.75729">
        <ele>2251.5</ele>
        <time>2021-08-03T09:01:46Z</time>
      </trkpt>
      <trkpt lat="45.52174" lon="6.75729">
        <ele>2251.5</ele>
        <time>2021-08-03T09:01:47Z</time>
      </trkpt>
      <trkpt lat="45.52174" lon="6.75729">
        <ele>2251.5</ele>
        <time>2021-08-03T09:01:48Z</time>
      </trkpt>
      <trkpt lat="45.52174" lon="6.75729">
        <ele>2251.5</ele>
        <time>2021-08-03T09:01:49Z</time>
      </trkpt>
      <trkpt lat="45.52174" lon="6.75729">
        <ele>2251.5</ele>
        <time>2021-08-03T09:01:50Z</time>
      </trkpt>
      <trkpt lat="45.52174" lon="6.75729">
        <ele>2251.5</ele>
        <time>2021-08-03T09:01:51Z</time>
      </trkpt>
      <trkpt lat="45.52174" lon="6.75729">
        <ele>2251.5</ele>
        <time>2021-08-03T09:01:52Z</time>
      </trkpt>
      <trkpt lat="45.52174" lon="6.75729">
        <ele>2251.5</ele>
        <time>2021-08-03T09:01:53Z</time>
      </trkpt>
      <trkpt lat="45.52174" lon="6.75729">
        <ele>2251.5</ele>
        <time>2021-08-03T09:01:54Z</time>
      </trkpt>
      <trkpt lat="45.52174" lon="6.75728">
        <ele>2251.5</ele>
        <time>2021-08-03T09:01:55Z</time>
      </trkpt>
      <trkpt lat="45.52174" lon="6.75728">
        <ele>2251.5</ele>
        <time>2021-08-03T09:01:56Z</time>
      </trkpt>
      <trkpt lat="45.52175" lon="6.75728">
        <ele>2251.5</ele>
        <time>2021-08-03T09:01:57Z</time>
      </trkpt>
      <trkpt lat="45.52175" lon="6.75728">
        <ele>2251.4</ele>
        <time>2021-08-03T09:01:58Z</time>
      </trkpt>
      <trkpt lat="45.52175" lon="6.75728">
        <ele>2251.4</ele>
        <time>2021-08-03T09:01:59Z</time>
      </trkpt>
      <trkpt lat="45.52174" lon="6.75728">
        <ele>2251.4</ele>
        <time>2021-08-03T09:02:00Z</time>
      </trkpt>
      <trkpt lat="45.52174" lon="6.75728">
        <ele>2251.4</ele>
        <time>2021-08-03T09:02:01Z</time>
      </trkpt>
      <trkpt lat="45.52174" lon="6.75728">
        <ele>2251.4</ele>
        <time>2021-08-03T09:02:02Z</time>
      </trkpt>
      <trkpt lat="45.52174" lon="6.75729">
        <ele>2251.4</ele>
        <time>2021-08-03T09:02:03Z</time>
      </trkpt>
      <trkpt lat="45.52174" lon="6.75729">
        <ele>2251.3</ele>
        <time>2021-08-03T09:02:04Z</time>
      </trkpt>
      <trkpt lat="45.52174" lon="6.7573">
        <ele>2251.2</ele>
        <time>2021-08-03T09:02:05Z</time>
      </trkpt>
      <trkpt lat="45.52174" lon="6.75731">
        <ele>2251.1</ele>
        <time>2021-08-03T09:02:06Z</time>
      </trkpt>
      <trkpt lat="45.52174" lon="6.75732">
        <ele>2251</ele>
        <time>2021-08-03T09:02:07Z</time>
      </trkpt>
      <trkpt lat="45.52174" lon="6.75733">
        <ele>2250.8</ele>
        <time>2021-08-03T09:02:08Z</time>
      </trkpt>
      <trkpt lat="45.52173" lon="6.75734">
        <ele>2250.6</ele>
        <time>2021-08-03T09:02:09Z</time>
      </trkpt>
      <trkpt lat="45.52173" lon="6.75735">
        <ele>2250.4</ele>
        <time>2021-08-03T09:02:10Z</time>
      </trkpt>
      <trkpt lat="45.52173" lon="6.75737">
        <ele>2250.2</ele>
        <time>2021-08-03T09:02:11Z</time>
      </trkpt>
      <trkpt lat="45.52172" lon="6.75738">
        <ele>2250</ele>
        <time>2021-08-03T09:02:12Z</time>
      </trkpt>
      <trkpt lat="45.52172" lon="6.7574">
        <ele>2249.8</ele>
        <time>2021-08-03T09:02:13Z</time>
      </trkpt>
      <trkpt lat="45.52172" lon="6.75741">
        <ele>2249.6</ele>
        <time>2021-08-03T09:02:14Z</time>
      </trkpt>
      <trkpt lat="45.52171" lon="6.75743">
        <ele>2249.4</ele>
        <time>2021-08-03T09:02:15Z</time>
      </trkpt>
      <trkpt lat="45.52171" lon="6.75744">
        <ele>2249.2</ele>
        <time>2021-08-03T09:02:16Z</time>
      </trkpt>
      <trkpt lat="45.5217" lon="6.75745">
        <ele>2249</ele>
        <time>2021-08-03T09:02:17Z</time>
      </trkpt>
      <trkpt lat="45.5217" lon="6.75746">
        <ele>2248.9</ele>
        <time>2021-08-03T09:02:18Z</time>
      </trkpt>
      <trkpt lat="45.5217" lon="6.75748">
        <ele>2248.7</ele>
        <time>2021-08-03T09:02:19Z</time>
      </trkpt>
      <trkpt lat="45.52169" lon="6.75749">
        <ele>2248.5</ele>
        <time>2021-08-03T09:02:20Z</time>
      </trkpt>
      <trkpt lat="45.52169" lon="6.7575">
        <ele>2248.4</ele>
        <time>2021-08-03T09:02:21Z</time>
      </trkpt>
      <trkpt lat="45.52169" lon="6.75751">
        <ele>2248.2</ele>
        <time>2021-08-03T09:02:22Z</time>
      </trkpt>
      <trkpt lat="45.52168" lon="6.75752">
        <ele>2248</ele>
        <time>2021-08-03T09:02:23Z</time>
      </trkpt>
      <trkpt lat="45.52168" lon="6.75754">
        <ele>2247.8</ele>
        <time>2021-08-03T09:02:24Z</time>
      </trkpt>
      <trkpt lat="45.52168" lon="6.75755">
        <ele>2247.7</ele>
        <time>2021-08-03T09:02:25Z</time>
      </trkpt>
      <trkpt lat="45.52167" lon="6.75756">
        <ele>2247.5</ele>
        <time>2021-08-03T09:02:26Z</time>
      </trkpt>
      <trkpt lat="45.52167" lon="6.75758">
        <ele>2247.3</ele>
        <time>2021-08-03T09:02:27Z</time>
      </trkpt>
      <trkpt lat="45.52167" lon="6.75759">
        <ele>2247.1</ele>
        <time>2021-08-03T09:02:28Z</time>
      </trkpt>
      <trkpt lat="45.52166" lon="6.7576">
        <ele>2247</ele>
        <time>2021-08-03T09:02:29Z</time>
      </trkpt>
      <trkpt lat="45.52166" lon="6.75761">
        <ele>2246.8</ele>
        <time>2021-08-03T09:02:30Z</time>
      </trkpt>
      <trkpt lat="45.52166" lon="6.75762">
        <ele>2246.7</ele>
        <time>2021-08-03T09:02:31Z</time>
      </trkpt>
      <trkpt lat="45.52166" lon="6.75763">
        <ele>2246.5</ele>
        <time>2021-08-03T09:02:32Z</time>
      </trkpt>
      <trkpt lat="45.52165" lon="6.75764">
        <ele>2246.4</ele>
        <time>2021-08-03T09:02:33Z</time>
      </trkpt>
      <trkpt lat="45.52165" lon="6.75764">
        <ele>2246.3</ele>
        <time>2021-08-03T09:02:34Z</time>
      </trkpt>
      <trkpt lat="45.52165" lon="6.75765">
        <ele>2246.2</ele>
        <time>2021-08-03T09:02:35Z</time>
      </trkpt>
      <trkpt lat="45.52164" lon="6.75765">
        <ele>2246.1</ele>
        <time>2021-08-03T09:02:36Z</time>
      </trkpt>
      <trkpt lat="45.52164" lon="6.75766">
        <ele>2246</ele>
        <time>2021-08-03T09:02:37Z</time>
      </trkpt>
      <trkpt lat="45.52164" lon="6.75767">
        <ele>2245.9</ele>
        <time>2021-08-03T09:02:38Z</time>
      </trkpt>
      <trkpt lat="45.52163" lon="6.75767">
        <ele>2245.8</ele>
        <time>2021-08-03T09:02:39Z</time>
      </trkpt>
      <trkpt lat="45.52163" lon="6.75768">
        <ele>2245.7</ele>
        <time>2021-08-03T09:02:40Z</time>
      </trkpt>
      <trkpt lat="45.52163" lon="6.75768">
        <ele>2245.6</ele>
        <time>2021-08-03T09:02:41Z</time>
      </trkpt>
      <trkpt lat="45.52162" lon="6.75769">
        <ele>2245.5</ele>
        <time>2021-08-03T09:02:42Z</time>
      </trkpt>
      <trkpt lat="45.52162" lon="6.7577">
        <ele>2245.4</ele>
        <time>2021-08-03T09:02:43Z</time>
      </trkpt>
      <trkpt lat="45.52162" lon="6.75771">
        <ele>2245.2</ele>
        <time>2021-08-03T09:02:44Z</time>
      </trkpt>
      <trkpt lat="45.52162" lon="6.75772">
        <ele>2245.1</ele>
        <time>2021-08-03T09:02:45Z</time>
      </trkpt>
      <trkpt lat="45.52161" lon="6.75773">
        <ele>2244.9</ele>
        <time>2021-08-03T09:02:46Z</time>
      </trkpt>
      <trkpt lat="45.52161" lon="6.75775">
        <ele>2244.7</ele>
        <time>2021-08-03T09:02:47Z</time>
      </trkpt>
      <trkpt lat="45.52161" lon="6.75776">
        <ele>2244.5</ele>
        <time>2021-08-03T09:02:48Z</time>
      </trkpt>
      <trkpt lat="45.52161" lon="6.75778">
        <ele>2244.3</ele>
        <time>2021-08-03T09:02:49Z</time>
      </trkpt>
      <trkpt lat="45.52161" lon="6.7578">
        <ele>2244.1</ele>
        <time>2021-08-03T09:02:50Z</time>
      </trkpt>
      <trkpt lat="45.52161" lon="6.75781">
        <ele>2243.9</ele>
        <time>2021-08-03T09:02:51Z</time>
      </trkpt>
      <trkpt lat="45.52161" lon="6.75783">
        <ele>2243.6</ele>
        <time>2021-08-03T09:02:52Z</time>
      </trkpt>
      <trkpt lat="45.5216" lon="6.75785">
        <ele>2243.4</ele>
        <time>2021-08-03T09:02:53Z</time>
      </trkpt>
      <trkpt lat="45.5216" lon="6.75786">
        <ele>2243.2</ele>
        <time>2021-08-03T09:02:54Z</time>
      </trkpt>
      <trkpt lat="45.5216" lon="6.75787">
        <ele>2243</ele>
        <time>2021-08-03T09:02:55Z</time>
      </trkpt>
      <trkpt lat="45.5216" lon="6.75789">
        <ele>2242.9</ele>
        <time>2021-08-03T09:02:56Z</time>
      </trkpt>
      <trkpt lat="45.5216" lon="6.7579">
        <ele>2242.7</ele>
        <time>2021-08-03T09:02:57Z</time>
      </trkpt>
      <trkpt lat="45.52159" lon="6.75791">
        <ele>2242.5</ele>
        <time>2021-08-03T09:02:58Z</time>
      </trkpt>
      <trkpt lat="45.52159" lon="6.75793">
        <ele>2242.3</ele>
        <time>2021-08-03T09:02:59Z</time>
      </trkpt>
      <trkpt lat="45.52159" lon="6.75794">
        <ele>2242.1</ele>
        <time>2021-08-03T09:03:00Z</time>
      </trkpt>
      <trkpt lat="45.52159" lon="6.75796">
        <ele>2241.9</ele>
        <time>2021-08-03T09:03:01Z</time>
      </trkpt>
      <trkpt lat="45.52159" lon="6.75798">
        <ele>2241.6</ele>
        <time>2021-08-03T09:03:02Z</time>
      </trkpt>
      <trkpt lat="45.52158" lon="6.758">
        <ele>2241.4</ele>
        <time>2021-08-03T09:03:03Z</time>
      </trkpt>
      <trkpt lat="45.52158" lon="6.75802">
        <ele>2241.1</ele>
        <time>2021-08-03T09:03:04Z</time>
      </trkpt>
      <trkpt lat="45.52158" lon="6.75804">
        <ele>2240.8</ele>
        <time>2021-08-03T09:03:05Z</time>
      </trkpt>
      <trkpt lat="45.52158" lon="6.75806">
        <ele>2240.6</ele>
        <time>2021-08-03T09:03:06Z</time>
      </trkpt>
      <trkpt lat="45.52158" lon="6.75807">
        <ele>2240.4</ele>
        <time>2021-08-03T09:03:07Z</time>
      </trkpt>
      <trkpt lat="45.52158" lon="6.75809">
        <ele>2240.2</ele>
        <time>2021-08-03T09:03:08Z</time>
      </trkpt>
      <trkpt lat="45.52157" lon="6.75809">
        <ele>2240.1</ele>
        <time>2021-08-03T09:03:09Z</time>
      </trkpt>
      <trkpt lat="45.52157" lon="6.7581">
        <ele>2240</ele>
        <time>2021-08-03T09:03:10Z</time>
      </trkpt>
      <trkpt lat="45.52157" lon="6.7581">
        <ele>2240</ele>
        <time>2021-08-03T09:03:11Z</time>
      </trkpt>
      <trkpt lat="45.52157" lon="6.7581">
        <ele>2240</ele>
        <time>2021-08-03T09:03:12Z</time>
      </trkpt>
      <trkpt lat="45.52157" lon="6.75811">
        <ele>2239.9</ele>
        <time>2021-08-03T09:03:13Z</time>
      </trkpt>
      <trkpt lat="45.52158" lon="6.75811">
        <ele>2239.8</ele>
        <time>2021-08-03T09:03:14Z</time>
      </trkpt>
      <trkpt lat="45.52158" lon="6.75812">
        <ele>2239.7</ele>
        <time>2021-08-03T09:03:15Z</time>
      </trkpt>
      <trkpt lat="45.52158" lon="6.75813">
        <ele>2239.6</ele>
        <time>2021-08-03T09:03:16Z</time>
      </trkpt>
      <trkpt lat="45.52159" lon="6.75814">
        <ele>2239.4</ele>
        <time>2021-08-03T09:03:17Z</time>
      </trkpt>
      <trkpt lat="45.52159" lon="6.75815">
        <ele>2239.2</ele>
        <time>2021-08-03T09:03:18Z</time>
      </trkpt>
      <trkpt lat="45.5216" lon="6.75817">
        <ele>2239</ele>
        <time>2021-08-03T09:03:19Z</time>
      </trkpt>
      <trkpt lat="45.5216" lon="6.75818">
        <ele>2238.8</ele>
        <time>2021-08-03T09:03:20Z</time>
      </trkpt>
      <trkpt lat="45.52161" lon="6.75819">
        <ele>2238.6</ele>
        <time>2021-08-03T09:03:21Z</time>
      </trkpt>
      <trkpt lat="45.52161" lon="6.75821">
        <ele>2238.3</ele>
        <time>2021-08-03T09:03:22Z</time>
      </trkpt>
      <trkpt lat="45.52162" lon="6.75823">
        <ele>2238.1</ele>
        <time>2021-08-03T09:03:23Z</time>
      </trkpt>
      <trkpt lat="45.52163" lon="6.75824">
        <ele>2237.9</ele>
        <time>2021-08-03T09:03:24Z</time>
      </trkpt>
      <trkpt lat="45.52163" lon="6.75826">
        <ele>2237.6</ele>
        <time>2021-08-03T09:03:25Z</time>
      </trkpt>
      <trkpt lat="45.52164" lon="6.75828">
        <ele>2237.4</ele>
        <time>2021-08-03T09:03:26Z</time>
      </trkpt>
      <trkpt lat="45.52164" lon="6.75829">
        <ele>2237.1</ele>
        <time>2021-08-03T09:03:27Z</time>
      </trkpt>
      <trkpt lat="45.52164" lon="6.75831">
        <ele>2236.9</ele>
        <time>2021-08-03T09:03:28Z</time>
      </trkpt>
      <trkpt lat="45.52165" lon="6.75833">
        <ele>2236.6</ele>
        <time>2021-08-03T09:03:29Z</time>
      </trkpt>
      <trkpt lat="45.52165" lon="6.75835">
        <ele>2236.4</ele>
        <time>2021-08-03T09:03:30Z</time>
      </trkpt>
      <trkpt lat="45.52165" lon="6.75837">
        <ele>2236.1</ele>
        <time>2021-08-03T09:03:31Z</time>
      </trkpt>
      <trkpt lat="45.52165" lon="6.75838">
        <ele>2235.9</ele>
        <time>2021-08-03T09:03:32Z</time>
      </trkpt>
      <trkpt lat="45.52165" lon="6.7584">
        <ele>2235.7</ele>
        <time>2021-08-03T09:03:33Z</time>
      </trkpt>
      <trkpt lat="45.52165" lon="6.75843">
        <ele>2235.2</ele>
        <time>2021-08-03T09:03:34Z</time>
      </trkpt>
      <trkpt lat="45.52164" lon="6.75845">
        <ele>2235</ele>
        <time>2021-08-03T09:03:35Z</time>
      </trkpt>
      <trkpt lat="45.52164" lon="6.75846">
        <ele>2234.8</ele>
        <time>2021-08-03T09:03:36Z</time>
      </trkpt>
      <trkpt lat="45.52163" lon="6.75848">
        <ele>2234.6</ele>
        <time>2021-08-03T09:03:37Z</time>
      </trkpt>
      <trkpt lat="45.52163" lon="6.75849">
        <ele>2234.4</ele>
        <time>2021-08-03T09:03:38Z</time>
      </trkpt>
      <trkpt lat="45.52162" lon="6.75851">
        <ele>2234.2</ele>
        <time>2021-08-03T09:03:39Z</time>
      </trkpt>
      <trkpt lat="45.52162" lon="6.75852">
        <ele>2234</ele>
        <time>2021-08-03T09:03:40Z</time>
      </trkpt>
      <trkpt lat="45.52161" lon="6.75853">
        <ele>2233.8</ele>
        <time>2021-08-03T09:03:41Z</time>
      </trkpt>
      <trkpt lat="45.52161" lon="6.75855">
        <ele>2233.6</ele>
        <time>2021-08-03T09:03:42Z</time>
      </trkpt>
      <trkpt lat="45.52161" lon="6.75856">
        <ele>2233.4</ele>
        <time>2021-08-03T09:03:43Z</time>
      </trkpt>
      <trkpt lat="45.5216" lon="6.75858">
        <ele>2233.1</ele>
        <time>2021-08-03T09:03:44Z</time>
      </trkpt>
      <trkpt lat="45.52159" lon="6.75859">
        <ele>2232.9</ele>
        <time>2021-08-03T09:03:45Z</time>
      </trkpt>
      <trkpt lat="45.52159" lon="6.7586">
        <ele>2232.7</ele>
        <time>2021-08-03T09:03:46Z</time>
      </trkpt>
      <trkpt lat="45.52158" lon="6.75862">
        <ele>2232.5</ele>
        <time>2021-08-03T09:03:47Z</time>
      </trkpt>
      <trkpt lat="45.52158" lon="6.75863">
        <ele>2232.3</ele>
        <time>2021-08-03T09:03:48Z</time>
      </trkpt>
      <trkpt lat="45.52158" lon="6.75864">
        <ele>2232.1</ele>
        <time>2021-08-03T09:03:49Z</time>
      </trkpt>
      <trkpt lat="45.52157" lon="6.75865">
        <ele>2232</ele>
        <time>2021-08-03T09:03:50Z</time>
      </trkpt>
      <trkpt lat="45.52157" lon="6.75867">
        <ele>2231.8</ele>
        <time>2021-08-03T09:03:51Z</time>
      </trkpt>
      <trkpt lat="45.52157" lon="6.75868">
        <ele>2231.7</ele>
        <time>2021-08-03T09:03:52Z</time>
      </trkpt>
      <trkpt lat="45.52157" lon="6.75869">
        <ele>2231.5</ele>
        <time>2021-08-03T09:03:53Z</time>
      </trkpt>
      <trkpt lat="45.52158" lon="6.7587">
        <ele>2231.4</ele>
        <time>2021-08-03T09:03:54Z</time>
      </trkpt>
      <trkpt lat="45.52158" lon="6.75871">
        <ele>2231.2</ele>
        <time>2021-08-03T09:03:55Z</time>
      </trkpt>
      <trkpt lat="45.52158" lon="6.75872">
        <ele>2231</ele>
        <time>2021-08-03T09:03:56Z</time>
      </trkpt>
      <trkpt lat="45.52158" lon="6.75873">
        <ele>2230.9</ele>
        <time>2021-08-03T09:03:57Z</time>
      </trkpt>
      <trkpt lat="45.52159" lon="6.75874">
        <ele>2230.8</ele>
        <time>2021-08-03T09:03:58Z</time>
      </trkpt>
      <trkpt lat="45.52159" lon="6.75875">
        <ele>2230.6</ele>
        <time>2021-08-03T09:03:59Z</time>
      </trkpt>
      <trkpt lat="45.52159" lon="6.75876">
        <ele>2230.5</ele>
        <time>2021-08-03T09:04:00Z</time>
      </trkpt>
      <trkpt lat="45.5216" lon="6.75877">
        <ele>2230.4</ele>
        <time>2021-08-03T09:04:01Z</time>
      </trkpt>
      <trkpt lat="45.5216" lon="6.75877">
        <ele>2230.3</ele>
        <time>2021-08-03T09:04:02Z</time>
      </trkpt>
      <trkpt lat="45.5216" lon="6.75878">
        <ele>2230.2</ele>
        <time>2021-08-03T09:04:03Z</time>
      </trkpt>
      <trkpt lat="45.52161" lon="6.75879">
        <ele>2230.1</ele>
        <time>2021-08-03T09:04:04Z</time>
      </trkpt>
      <trkpt lat="45.52161" lon="6.75879">
        <ele>2230</ele>
        <time>2021-08-03T09:04:05Z</time>
      </trkpt>
      <trkpt lat="45.52161" lon="6.75879">
        <ele>2230</ele>
        <time>2021-08-03T09:04:06Z</time>
      </trkpt>
      <trkpt lat="45.52161" lon="6.7588">
        <ele>2229.9</ele>
        <time>2021-08-03T09:04:07Z</time>
      </trkpt>
      <trkpt lat="45.52161" lon="6.7588">
        <ele>2229.9</ele>
        <time>2021-08-03T09:04:08Z</time>
      </trkpt>
      <trkpt lat="45.52161" lon="6.7588">
        <ele>2229.9</ele>
        <time>2021-08-03T09:04:09Z</time>
      </trkpt>
      <trkpt lat="45.52161" lon="6.7588">
        <ele>2229.9</ele>
        <time>2021-08-03T09:04:10Z</time>
      </trkpt>
      <trkpt lat="45.52161" lon="6.7588">
        <ele>2229.9</ele>
        <time>2021-08-03T09:04:11Z</time>
      </trkpt>
      <trkpt lat="45.52161" lon="6.7588">
        <ele>2229.8</ele>
        <time>2021-08-03T09:04:12Z</time>
      </trkpt>
      <trkpt lat="45.52161" lon="6.7588">
        <ele>2229.8</ele>
        <time>2021-08-03T09:04:13Z</time>
      </trkpt>
      <trkpt lat="45.52161" lon="6.7588">
        <ele>2229.8</ele>
        <time>2021-08-03T09:04:14Z</time>
      </trkpt>
      <trkpt lat="45.52161" lon="6.7588">
        <ele>2229.8</ele>
        <time>2021-08-03T09:04:15Z</time>
      </trkpt>
      <trkpt lat="45.52161" lon="6.7588">
        <ele>2229.8</ele>
        <time>2021-08-03T09:04:16Z</time>
      </trkpt>
      <trkpt lat="45.52161" lon="6.7588">
        <ele>2229.8</ele>
        <time>2021-08-03T09:04:17Z</time>
      </trkpt>
      <trkpt lat="45.52161" lon="6.7588">
        <ele>2229.8</ele>
        <time>2021-08-03T09:04:18Z</time>
      </trkpt>
      <trkpt lat="45.52161" lon="6.7588">
        <ele>2229.8</ele>
        <time>2021-08-03T09:04:19Z</time>
      </trkpt>
      <trkpt lat="45.52161" lon="6.7588">
        <ele>2229.8</ele>
        <time>2021-08-03T09:04:20Z</time>
      </trkpt>
      <trkpt lat="45.52161" lon="6.7588">
        <ele>2229.8</ele>
        <time>2021-08-03T09:04:21Z</time>
      </trkpt>
      <trkpt lat="45.52161" lon="6.7588">
        <ele>2229.8</ele>
        <time>2021-08-03T09:04:22Z</time>
      </trkpt>
      <trkpt lat="45.52161" lon="6.75881">
        <ele>2229.7</ele>
        <time>2021-08-03T09:04:23Z</time>
      </trkpt>
      <trkpt lat="45.52161" lon="6.75881">
        <ele>2229.7</ele>
        <time>2021-08-03T09:04:24Z</time>
      </trkpt>
      <trkpt lat="45.5216" lon="6.75881">
        <ele>2229.6</ele>
        <time>2021-08-03T09:04:25Z</time>
      </trkpt>
      <trkpt lat="45.5216" lon="6.75882">
        <ele>2229.6</ele>
        <time>2021-08-03T09:04:26Z</time>
      </trkpt>
      <trkpt lat="45.5216" lon="6.75882">
        <ele>2229.5</ele>
        <time>2021-08-03T09:04:27Z</time>
      </trkpt>
      <trkpt lat="45.5216" lon="6.75883">
        <ele>2229.4</ele>
        <time>2021-08-03T09:04:28Z</time>
      </trkpt>
      <trkpt lat="45.5216" lon="6.75884">
        <ele>2229.3</ele>
        <time>2021-08-03T09:04:29Z</time>
      </trkpt>
      <trkpt lat="45.5216" lon="6.75884">
        <ele>2229.2</ele>
        <time>2021-08-03T09:04:30Z</time>
      </trkpt>
      <trkpt lat="45.5216" lon="6.75885">
        <ele>2229.1</ele>
        <time>2021-08-03T09:04:31Z</time>
      </trkpt>
      <trkpt lat="45.5216" lon="6.75886">
        <ele>2229</ele>
        <time>2021-08-03T09:04:32Z</time>
      </trkpt>
      <trkpt lat="45.5216" lon="6.75887">
        <ele>2228.8</ele>
        <time>2021-08-03T09:04:33Z</time>
      </trkpt>
      <trkpt lat="45.5216" lon="6.75888">
        <ele>2228.7</ele>
        <time>2021-08-03T09:04:34Z</time>
      </trkpt>
      <trkpt lat="45.52161" lon="6.75889">
        <ele>2228.6</ele>
        <time>2021-08-03T09:04:35Z</time>
      </trkpt>
      <trkpt lat="45.52161" lon="6.7589">
        <ele>2228.4</ele>
        <time>2021-08-03T09:04:36Z</time>
      </trkpt>
      <trkpt lat="45.52161" lon="6.75891">
        <ele>2228.3</ele>
        <time>2021-08-03T09:04:37Z</time>
      </trkpt>
      <trkpt lat="45.52161" lon="6.75892">
        <ele>2228.1</ele>
        <time>2021-08-03T09:04:38Z</time>
      </trkpt>
      <trkpt lat="45.52162" lon="6.75893">
        <ele>2228</ele>
        <time>2021-08-03T09:04:39Z</time>
      </trkpt>
      <trkpt lat="45.52162" lon="6.75894">
        <ele>2227.8</ele>
        <time>2021-08-03T09:04:40Z</time>
      </trkpt>
      <trkpt lat="45.52162" lon="6.75895">
        <ele>2227.7</ele>
        <time>2021-08-03T09:04:41Z</time>
      </trkpt>
      <trkpt lat="45.52162" lon="6.75896">
        <ele>2227.6</ele>
        <time>2021-08-03T09:04:42Z</time>
      </trkpt>
      <trkpt lat="45.52163" lon="6.75897">
        <ele>2227.4</ele>
        <time>2021-08-03T09:04:43Z</time>
      </trkpt>
      <trkpt lat="45.52163" lon="6.75898">
        <ele>2227.3</ele>
        <time>2021-08-03T09:04:44Z</time>
      </trkpt>
      <trkpt lat="45.52163" lon="6.759">
        <ele>2227.1</ele>
        <time>2021-08-03T09:04:45Z</time>
      </trkpt>
      <trkpt lat="45.52162" lon="6.75901">
        <ele>2227</ele>
        <time>2021-08-03T09:04:46Z</time>
      </trkpt>
      <trkpt lat="45.52162" lon="6.75902">
        <ele>2226.8</ele>
        <time>2021-08-03T09:04:47Z</time>
      </trkpt>
      <trkpt lat="45.52162" lon="6.75903">
        <ele>2226.7</ele>
        <time>2021-08-03T09:04:48Z</time>
      </trkpt>
      <trkpt lat="45.52162" lon="6.75904">
        <ele>2226.6</ele>
        <time>2021-08-03T09:04:49Z</time>
      </trkpt>
      <trkpt lat="45.52161" lon="6.75905">
        <ele>2226.4</ele>
        <time>2021-08-03T09:04:50Z</time>
      </trkpt>
      <trkpt lat="45.52161" lon="6.75906">
        <ele>2226.3</ele>
        <time>2021-08-03T09:04:51Z</time>
      </trkpt>
      <trkpt lat="45.52161" lon="6.75907">
        <ele>2226.1</ele>
        <time>2021-08-03T09:04:52Z</time>
      </trkpt>
      <trkpt lat="45.52161" lon="6.75908">
        <ele>2226</ele>
        <time>2021-08-03T09:04:53Z</time>
      </trkpt>
      <trkpt lat="45.52161" lon="6.75909">
        <ele>2225.8</ele>
        <time>2021-08-03T09:04:54Z</time>
      </trkpt>
      <trkpt lat="45.52161" lon="6.7591">
        <ele>2225.7</ele>
        <time>2021-08-03T09:04:55Z</time>
      </trkpt>
      <trkpt lat="45.52161" lon="6.75911">
        <ele>2225.6</ele>
        <time>2021-08-03T09:04:56Z</time>
      </trkpt>
      <trkpt lat="45.52162" lon="6.75912">
        <ele>2225.4</ele>
        <time>2021-08-03T09:04:57Z</time>
      </trkpt>
      <trkpt lat="45.52162" lon="6.75913">
        <ele>2225.3</ele>
        <time>2021-08-03T09:04:58Z</time>
      </trkpt>
      <trkpt lat="45.52162" lon="6.75914">
        <ele>2225.2</ele>
        <time>2021-08-03T09:04:59Z</time>
      </trkpt>
      <trkpt lat="45.52163" lon="6.75915">
        <ele>2225</ele>
        <time>2021-08-03T09:05:00Z</time>
      </trkpt>
      <trkpt lat="45.52163" lon="6.75915">
        <ele>2224.9</ele>
        <time>2021-08-03T09:05:01Z</time>
      </trkpt>
      <trkpt lat="45.52163" lon="6.75916">
        <ele>2224.8</ele>
        <time>2021-08-03T09:05:02Z</time>
      </trkpt>
      <trkpt lat="45.52164" lon="6.75917">
        <ele>2224.7</ele>
        <time>2021-08-03T09:05:03Z</time>
      </trkpt>
      <trkpt lat="45.52164" lon="6.75918">
        <ele>2224.6</ele>
        <time>2021-08-03T09:05:04Z</time>
      </trkpt>
      <trkpt lat="45.52164" lon="6.75919">
        <ele>2224.5</ele>
        <time>2021-08-03T09:05:05Z</time>
      </trkpt>
      <trkpt lat="45.52164" lon="6.75919">
        <ele>2224.4</ele>
        <time>2021-08-03T09:05:06Z</time>
      </trkpt>
      <trkpt lat="45.52164" lon="6.7592">
        <ele>2224.3</ele>
        <time>2021-08-03T09:05:07Z</time>
      </trkpt>
      <trkpt lat="45.52164" lon="6.7592">
        <ele>2224.2</ele>
        <time>2021-08-03T09:05:08Z</time>
      </trkpt>
      <trkpt lat="45.52164" lon="6.75921">
        <ele>2224.1</ele>
        <time>2021-08-03T09:05:09Z</time>
      </trkpt>
      <trkpt lat="45.52164" lon="6.75922">
        <ele>2224</ele>
        <time>2021-08-03T09:05:10Z</time>
      </trkpt>
      <trkpt lat="45.52163" lon="6.75922">
        <ele>2223.9</ele>
        <time>2021-08-03T09:05:11Z</time>
      </trkpt>
      <trkpt lat="45.52163" lon="6.75923">
        <ele>2223.8</ele>
        <time>2021-08-03T09:05:12Z</time>
      </trkpt>
      <trkpt lat="45.52162" lon="6.75923">
        <ele>2223.7</ele>
        <time>2021-08-03T09:05:13Z</time>
      </trkpt>
      <trkpt lat="45.52162" lon="6.75924">
        <ele>2223.6</ele>
        <time>2021-08-03T09:05:14Z</time>
      </trkpt>
      <trkpt lat="45.52161" lon="6.75924">
        <ele>2223.5</ele>
        <time>2021-08-03T09:05:15Z</time>
      </trkpt>
      <trkpt lat="45.52161" lon="6.75925">
        <ele>2223.3</ele>
        <time>2021-08-03T09:05:16Z</time>
      </trkpt>
      <trkpt lat="45.5216" lon="6.75925">
        <ele>2223.2</ele>
        <time>2021-08-03T09:05:17Z</time>
      </trkpt>
      <trkpt lat="45.5216" lon="6.75926">
        <ele>2223.1</ele>
        <time>2021-08-03T09:05:18Z</time>
      </trkpt>
      <trkpt lat="45.52159" lon="6.75927">
        <ele>2222.9</ele>
        <time>2021-08-03T09:05:19Z</time>
      </trkpt>
      <trkpt lat="45.52159" lon="6.75927">
        <ele>2222.8</ele>
        <time>2021-08-03T09:05:20Z</time>
      </trkpt>
      <trkpt lat="45.52158" lon="6.75928">
        <ele>2222.7</ele>
        <time>2021-08-03T09:05:21Z</time>
      </trkpt>
      <trkpt lat="45.52158" lon="6.75928">
        <ele>2222.6</ele>
        <time>2021-08-03T09:05:22Z</time>
      </trkpt>
      <trkpt lat="45.52157" lon="6.75929">
        <ele>2222.5</ele>
        <time>2021-08-03T09:05:23Z</time>
      </trkpt>
      <trkpt lat="45.52157" lon="6.75929">
        <ele>2222.4</ele>
        <time>2021-08-03T09:05:24Z</time>
      </trkpt>
      <trkpt lat="45.52156" lon="6.75929">
        <ele>2222.3</ele>
        <time>2021-08-03T09:05:25Z</time>
      </trkpt>
      <trkpt lat="45.52156" lon="6.75929">
        <ele>2222.3</ele>
        <time>2021-08-03T09:05:26Z</time>
      </trkpt>
      <trkpt lat="45.52156" lon="6.7593">
        <ele>2222.2</ele>
        <time>2021-08-03T09:05:27Z</time>
      </trkpt>
      <trkpt lat="45.52156" lon="6.7593">
        <ele>2222.2</ele>
        <time>2021-08-03T09:05:28Z</time>
      </trkpt>
      <trkpt lat="45.52156" lon="6.7593">
        <ele>2222.1</ele>
        <time>2021-08-03T09:05:29Z</time>
      </trkpt>
      <trkpt lat="45.52155" lon="6.7593">
        <ele>2222.1</ele>
        <time>2021-08-03T09:05:30Z</time>
      </trkpt>
      <trkpt lat="45.52155" lon="6.7593">
        <ele>2222.1</ele>
        <time>2021-08-03T09:05:31Z</time>
      </trkpt>
      <trkpt lat="45.52155" lon="6.7593">
        <ele>2222.1</ele>
        <time>2021-08-03T09:05:32Z</time>
      </trkpt>
      <trkpt lat="45.52155" lon="6.7593">
        <ele>2222.1</ele>
        <time>2021-08-03T09:05:33Z</time>
      </trkpt>
      <trkpt lat="45.52155" lon="6.7593">
        <ele>2222.1</ele>
        <time>2021-08-03T09:05:34Z</time>
      </trkpt>
      <trkpt lat="45.52155" lon="6.7593">
        <ele>2222</ele>
        <time>2021-08-03T09:05:35Z</time>
      </trkpt>
      <trkpt lat="45.52155" lon="6.7593">
        <ele>2222</ele>
        <time>2021-08-03T09:05:36Z</time>
      </trkpt>
      <trkpt lat="45.52155" lon="6.75929">
        <ele>2222</ele>
        <time>2021-08-03T09:05:37Z</time>
      </trkpt>
      <trkpt lat="45.52155" lon="6.75929">
        <ele>2222</ele>
        <time>2021-08-03T09:05:38Z</time>
      </trkpt>
      <trkpt lat="45.52155" lon="6.75929">
        <ele>2222</ele>
        <time>2021-08-03T09:05:39Z</time>
      </trkpt>
      <trkpt lat="45.52155" lon="6.75929">
        <ele>2221.9</ele>
        <time>2021-08-03T09:05:40Z</time>
      </trkpt>
      <trkpt lat="45.52155" lon="6.75929">
        <ele>2221.9</ele>
        <time>2021-08-03T09:05:41Z</time>
      </trkpt>
      <trkpt lat="45.52155" lon="6.75929">
        <ele>2221.9</ele>
        <time>2021-08-03T09:05:42Z</time>
      </trkpt>
      <trkpt lat="45.52155" lon="6.75929">
        <ele>2221.9</ele>
        <time>2021-08-03T09:05:43Z</time>
      </trkpt>
      <trkpt lat="45.52155" lon="6.75929">
        <ele>2221.9</ele>
        <time>2021-08-03T09:05:44Z</time>
      </trkpt>
      <trkpt lat="45.52155" lon="6.75929">
        <ele>2221.9</ele>
        <time>2021-08-03T09:05:45Z</time>
      </trkpt>
      <trkpt lat="45.52155" lon="6.75929">
        <ele>2221.9</ele>
        <time>2021-08-03T09:05:46Z</time>
      </trkpt>
      <trkpt lat="45.52155" lon="6.75929">
        <ele>2221.9</ele>
        <time>2021-08-03T09:05:47Z</time>
      </trkpt>
      <trkpt lat="45.52155" lon="6.75929">
        <ele>2221.9</ele>
        <time>2021-08-03T09:05:48Z</time>
      </trkpt>
      <trkpt lat="45.52155" lon="6.75929">
        <ele>2221.9</ele>
        <time>2021-08-03T09:05:49Z</time>
      </trkpt>
      <trkpt lat="45.52155" lon="6.75929">
        <ele>2221.8</ele>
        <time>2021-08-03T09:05:50Z</time>
      </trkpt>
      <trkpt lat="45.52155" lon="6.75929">
        <ele>2221.8</ele>
        <time>2021-08-03T09:05:51Z</time>
      </trkpt>
      <trkpt lat="45.52155" lon="6.75929">
        <ele>2221.8</ele>
        <time>2021-08-03T09:05:52Z</time>
      </trkpt>
      <trkpt lat="45.52155" lon="6.75929">
        <ele>2221.7</ele>
        <time>2021-08-03T09:05:53Z</time>
      </trkpt>
      <trkpt lat="45.52154" lon="6.7593">
        <ele>2221.7</ele>
        <time>2021-08-03T09:05:54Z</time>
      </trkpt>
      <trkpt lat="45.52154" lon="6.7593">
        <ele>2221.6</ele>
        <time>2021-08-03T09:05:55Z</time>
      </trkpt>
      <trkpt lat="45.52154" lon="6.7593">
        <ele>2221.5</ele>
        <time>2021-08-03T09:05:56Z</time>
      </trkpt>
      <trkpt lat="45.52153" lon="6.7593">
        <ele>2221.5</ele>
        <time>2021-08-03T09:05:57Z</time>
      </trkpt>
      <trkpt lat="45.52153" lon="6.75931">
        <ele>2221.4</ele>
        <time>2021-08-03T09:05:58Z</time>
      </trkpt>
      <trkpt lat="45.52153" lon="6.75931">
        <ele>2221.3</ele>
        <time>2021-08-03T09:05:59Z</time>
      </trkpt>
      <trkpt lat="45.52152" lon="6.75931">
        <ele>2221.2</ele>
        <time>2021-08-03T09:06:00Z</time>
      </trkpt>
      <trkpt lat="45.52152" lon="6.75932">
        <ele>2221.1</ele>
        <time>2021-08-03T09:06:01Z</time>
      </trkpt>
      <trkpt lat="45.52152" lon="6.75932">
        <ele>2221.1</ele>
        <time>2021-08-03T09:06:02Z</time>
      </trkpt>
      <trkpt lat="45.52151" lon="6.75932">
        <ele>2221</ele>
        <time>2021-08-03T09:06:03Z</time>
      </trkpt>
      <trkpt lat="45.52151" lon="6.75932">
        <ele>2221</ele>
        <time>2021-08-03T09:06:04Z</time>
      </trkpt>
      <trkpt lat="45.52151" lon="6.75932">
        <ele>2221</ele>
        <time>2021-08-03T09:06:05Z</time>
      </trkpt>
      <trkpt lat="45.52151" lon="6.75932">
        <ele>2221</ele>
        <time>2021-08-03T09:06:06Z</time>
      </trkpt>
      <trkpt lat="45.52151" lon="6.75932">
        <ele>2221</ele>
        <time>2021-08-03T09:06:07Z</time>
      </trkpt>
      <trkpt lat="45.52151" lon="6.75932">
        <ele>2221</ele>
        <time>2021-08-03T09:06:08Z</time>
      </trkpt>
      <trkpt lat="45.52151" lon="6.75932">
        <ele>2220.9</ele>
        <time>2021-08-03T09:06:09Z</time>
      </trkpt>
      <trkpt lat="45.52151" lon="6.75932">
        <ele>2220.9</ele>
        <time>2021-08-03T09:06:10Z</time>
      </trkpt>
      <trkpt lat="45.52151" lon="6.75933">
        <ele>2220.8</ele>
        <time>2021-08-03T09:06:11Z</time>
      </trkpt>
      <trkpt lat="45.5215" lon="6.75933">
        <ele>2220.7</ele>
        <time>2021-08-03T09:06:12Z</time>
      </trkpt>
      <trkpt lat="45.5215" lon="6.75934">
        <ele>2220.6</ele>
        <time>2021-08-03T09:06:13Z</time>
      </trkpt>
      <trkpt lat="45.5215" lon="6.75935">
        <ele>2220.5</ele>
        <time>2021-08-03T09:06:14Z</time>
      </trkpt>
      <trkpt lat="45.52149" lon="6.75936">
        <ele>2220.3</ele>
        <time>2021-08-03T09:06:15Z</time>
      </trkpt>
      <trkpt lat="45.52149" lon="6.75937">
        <ele>2220.2</ele>
        <time>2021-08-03T09:06:16Z</time>
      </trkpt>
      <trkpt lat="45.52148" lon="6.75938">
        <ele>2220</ele>
        <time>2021-08-03T09:06:17Z</time>
      </trkpt>
      <trkpt lat="45.52148" lon="6.75938">
        <ele>2219.9</ele>
        <time>2021-08-03T09:06:18Z</time>
      </trkpt>
      <trkpt lat="45.52147" lon="6.75939">
        <ele>2219.7</ele>
        <time>2021-08-03T09:06:19Z</time>
      </trkpt>
      <trkpt lat="45.52146" lon="6.7594">
        <ele>2219.6</ele>
        <time>2021-08-03T09:06:20Z</time>
      </trkpt>
      <trkpt lat="45.52146" lon="6.7594">
        <ele>2219.5</ele>
        <time>2021-08-03T09:06:21Z</time>
      </trkpt>
      <trkpt lat="45.52145" lon="6.7594">
        <ele>2219.4</ele>
        <time>2021-08-03T09:06:22Z</time>
      </trkpt>
      <trkpt lat="45.52145" lon="6.75941">
        <ele>2219.2</ele>
        <time>2021-08-03T09:06:23Z</time>
      </trkpt>
      <trkpt lat="45.52144" lon="6.75941">
        <ele>2219.1</ele>
        <time>2021-08-03T09:06:24Z</time>
      </trkpt>
      <trkpt lat="45.52143" lon="6.75941">
        <ele>2219</ele>
        <time>2021-08-03T09:06:25Z</time>
      </trkpt>
      <trkpt lat="45.52143" lon="6.75942">
        <ele>2218.8</ele>
        <time>2021-08-03T09:06:26Z</time>
      </trkpt>
      <trkpt lat="45.52142" lon="6.75942">
        <ele>2218.7</ele>
        <time>2021-08-03T09:06:27Z</time>
      </trkpt>
      <trkpt lat="45.52141" lon="6.75942">
        <ele>2218.6</ele>
        <time>2021-08-03T09:06:28Z</time>
      </trkpt>
      <trkpt lat="45.52141" lon="6.75942">
        <ele>2218.4</ele>
        <time>2021-08-03T09:06:29Z</time>
      </trkpt>
      <trkpt lat="45.5214" lon="6.75942">
        <ele>2218.3</ele>
        <time>2021-08-03T09:06:30Z</time>
      </trkpt>
      <trkpt lat="45.52139" lon="6.75943">
        <ele>2218.2</ele>
        <time>2021-08-03T09:06:31Z</time>
      </trkpt>
      <trkpt lat="45.52138" lon="6.75943">
        <ele>2218</ele>
        <time>2021-08-03T09:06:32Z</time>
      </trkpt>
      <trkpt lat="45.52138" lon="6.75943">
        <ele>2217.9</ele>
        <time>2021-08-03T09:06:33Z</time>
      </trkpt>
      <trkpt lat="45.52137" lon="6.75943">
        <ele>2217.7</ele>
        <time>2021-08-03T09:06:34Z</time>
      </trkpt>
      <trkpt lat="45.52136" lon="6.75943">
        <ele>2217.6</ele>
        <time>2021-08-03T09:06:35Z</time>
      </trkpt>
      <trkpt lat="45.52135" lon="6.75943">
        <ele>2217.4</ele>
        <time>2021-08-03T09:06:36Z</time>
      </trkpt>
      <trkpt lat="45.52134" lon="6.75943">
        <ele>2217.3</ele>
        <time>2021-08-03T09:06:37Z</time>
      </trkpt>
      <trkpt lat="45.52134" lon="6.75943">
        <ele>2217.1</ele>
        <time>2021-08-03T09:06:38Z</time>
      </trkpt>
      <trkpt lat="45.52133" lon="6.75943">
        <ele>2217</ele>
        <time>2021-08-03T09:06:39Z</time>
      </trkpt>
      <trkpt lat="45.52132" lon="6.75943">
        <ele>2216.8</ele>
        <time>2021-08-03T09:06:40Z</time>
      </trkpt>
      <trkpt lat="45.52131" lon="6.75943">
        <ele>2216.7</ele>
        <time>2021-08-03T09:06:41Z</time>
      </trkpt>
      <trkpt lat="45.5213" lon="6.75943">
        <ele>2216.5</ele>
        <time>2021-08-03T09:06:42Z</time>
      </trkpt>
      <trkpt lat="45.5213" lon="6.75943">
        <ele>2216.4</ele>
        <time>2021-08-03T09:06:43Z</time>
      </trkpt>
      <trkpt lat="45.52129" lon="6.75943">
        <ele>2216.2</ele>
        <time>2021-08-03T09:06:44Z</time>
      </trkpt>
      <trkpt lat="45.52128" lon="6.75943">
        <ele>2216.1</ele>
        <time>2021-08-03T09:06:45Z</time>
      </trkpt>
      <trkpt lat="45.52128" lon="6.75943">
        <ele>2216</ele>
        <time>2021-08-03T09:06:46Z</time>
      </trkpt>
      <trkpt lat="45.52127" lon="6.75943">
        <ele>2215.9</ele>
        <time>2021-08-03T09:06:47Z</time>
      </trkpt>
      <trkpt lat="45.52127" lon="6.75943">
        <ele>2215.8</ele>
        <time>2021-08-03T09:06:48Z</time>
      </trkpt>
      <trkpt lat="45.52126" lon="6.75943">
        <ele>2215.7</ele>
        <time>2021-08-03T09:06:49Z</time>
      </trkpt>
      <trkpt lat="45.52126" lon="6.75943">
        <ele>2215.7</ele>
        <time>2021-08-03T09:06:50Z</time>
      </trkpt>
      <trkpt lat="45.52126" lon="6.75943">
        <ele>2215.6</ele>
        <time>2021-08-03T09:06:51Z</time>
      </trkpt>
      <trkpt lat="45.52126" lon="6.75943">
        <ele>2215.6</ele>
        <time>2021-08-03T09:06:52Z</time>
      </trkpt>
      <trkpt lat="45.52126" lon="6.75943">
        <ele>2215.6</ele>
        <time>2021-08-03T09:06:53Z</time>
      </trkpt>
      <trkpt lat="45.52126" lon="6.75943">
        <ele>2215.6</ele>
        <time>2021-08-03T09:06:54Z</time>
      </trkpt>
      <trkpt lat="45.52126" lon="6.75943">
        <ele>2215.6</ele>
        <time>2021-08-03T09:06:55Z</time>
      </trkpt>
      <trkpt lat="45.52126" lon="6.75943">
        <ele>2215.6</ele>
        <time>2021-08-03T09:06:56Z</time>
      </trkpt>
      <trkpt lat="45.52126" lon="6.75943">
        <ele>2215.5</ele>
        <time>2021-08-03T09:06:57Z</time>
      </trkpt>
      <trkpt lat="45.52126" lon="6.75943">
        <ele>2215.5</ele>
        <time>2021-08-03T09:06:58Z</time>
      </trkpt>
      <trkpt lat="45.52126" lon="6.75942">
        <ele>2215.5</ele>
        <time>2021-08-03T09:06:59Z</time>
      </trkpt>
      <trkpt lat="45.52126" lon="6.75942">
        <ele>2215.4</ele>
        <time>2021-08-03T09:07:00Z</time>
      </trkpt>
      <trkpt lat="45.52125" lon="6.75942">
        <ele>2215.3</ele>
        <time>2021-08-03T09:07:01Z</time>
      </trkpt>
      <trkpt lat="45.52125" lon="6.75942">
        <ele>2215.2</ele>
        <time>2021-08-03T09:07:02Z</time>
      </trkpt>
      <trkpt lat="45.52124" lon="6.75941">
        <ele>2215.1</ele>
        <time>2021-08-03T09:07:03Z</time>
      </trkpt>
      <trkpt lat="45.52124" lon="6.75941">
        <ele>2215</ele>
        <time>2021-08-03T09:07:04Z</time>
      </trkpt>
      <trkpt lat="45.52123" lon="6.75941">
        <ele>2214.9</ele>
        <time>2021-08-03T09:07:05Z</time>
      </trkpt>
      <trkpt lat="45.52123" lon="6.75941">
        <ele>2214.8</ele>
        <time>2021-08-03T09:07:06Z</time>
      </trkpt>
      <trkpt lat="45.52123" lon="6.75941">
        <ele>2214.8</ele>
        <time>2021-08-03T09:07:07Z</time>
      </trkpt>
      <trkpt lat="45.52122" lon="6.7594">
        <ele>2214.7</ele>
        <time>2021-08-03T09:07:08Z</time>
      </trkpt>
      <trkpt lat="45.52122" lon="6.7594">
        <ele>2214.7</ele>
        <time>2021-08-03T09:07:09Z</time>
      </trkpt>
      <trkpt lat="45.52122" lon="6.7594">
        <ele>2214.7</ele>
        <time>2021-08-03T09:07:10Z</time>
      </trkpt>
      <trkpt lat="45.52122" lon="6.7594">
        <ele>2214.7</ele>
        <time>2021-08-03T09:07:11Z</time>
      </trkpt>
      <trkpt lat="45.52122" lon="6.7594">
        <ele>2214.7</ele>
        <time>2021-08-03T09:07:12Z</time>
      </trkpt>
      <trkpt lat="45.52122" lon="6.7594">
        <ele>2214.7</ele>
        <time>2021-08-03T09:07:13Z</time>
      </trkpt>
      <trkpt lat="45.52122" lon="6.7594">
        <ele>2214.7</ele>
        <time>2021-08-03T09:07:14Z</time>
      </trkpt>
      <trkpt lat="45.52122" lon="6.7594">
        <ele>2214.7</ele>
        <time>2021-08-03T09:07:15Z</time>
      </trkpt>
      <trkpt lat="45.52122" lon="6.7594">
        <ele>2214.7</ele>
        <time>2021-08-03T09:07:16Z</time>
      </trkpt>
      <trkpt lat="45.52122" lon="6.7594">
        <ele>2214.7</ele>
        <time>2021-08-03T09:07:17Z</time>
      </trkpt>
      <trkpt lat="45.52122" lon="6.7594">
        <ele>2214.7</ele>
        <time>2021-08-03T09:07:18Z</time>
      </trkpt>
      <trkpt lat="45.52122" lon="6.7594">
        <ele>2214.7</ele>
        <time>2021-08-03T09:07:19Z</time>
      </trkpt>
      <trkpt lat="45.52122" lon="6.7594">
        <ele>2214.7</ele>
        <time>2021-08-03T09:07:20Z</time>
      </trkpt>
      <trkpt lat="45.52122" lon="6.7594">
        <ele>2214.7</ele>
        <time>2021-08-03T09:07:21Z</time>
      </trkpt>
      <trkpt lat="45.52122" lon="6.7594">
        <ele>2214.7</ele>
        <time>2021-08-03T09:07:22Z</time>
      </trkpt>
      <trkpt lat="45.52122" lon="6.7594">
        <ele>2214.7</ele>
        <time>2021-08-03T09:07:23Z</time>
      </trkpt>
      <trkpt lat="45.52122" lon="6.7594">
        <ele>2214.7</ele>
        <time>2021-08-03T09:07:24Z</time>
      </trkpt>
      <trkpt lat="45.52122" lon="6.7594">
        <ele>2214.7</ele>
        <time>2021-08-03T09:07:25Z</time>
      </trkpt>
      <trkpt lat="45.52122" lon="6.7594">
        <ele>2214.7</ele>
        <time>2021-08-03T09:07:26Z</time>
      </trkpt>
      <trkpt lat="45.52122" lon="6.7594">
        <ele>2214.7</ele>
        <time>2021-08-03T09:07:27Z</time>
      </trkpt>
      <trkpt lat="45.52122" lon="6.7594">
        <ele>2214.7</ele>
        <time>2021-08-03T09:07:28Z</time>
      </trkpt>
      <trkpt lat="45.52122" lon="6.7594">
        <ele>2214.6</ele>
        <time>2021-08-03T09:07:29Z</time>
      </trkpt>
      <trkpt lat="45.52122" lon="6.7594">
        <ele>2214.6</ele>
        <time>2021-08-03T09:07:30Z</time>
      </trkpt>
      <trkpt lat="45.52122" lon="6.7594">
        <ele>2214.6</ele>
        <time>2021-08-03T09:07:31Z</time>
      </trkpt>
      <trkpt lat="45.52122" lon="6.7594">
        <ele>2214.6</ele>
        <time>2021-08-03T09:07:32Z</time>
      </trkpt>
      <trkpt lat="45.52122" lon="6.7594">
        <ele>2214.6</ele>
        <time>2021-08-03T09:07:33Z</time>
      </trkpt>
      <trkpt lat="45.52122" lon="6.7594">
        <ele>2214.6</ele>
        <time>2021-08-03T09:07:34Z</time>
      </trkpt>
      <trkpt lat="45.52122" lon="6.7594">
        <ele>2214.6</ele>
        <time>2021-08-03T09:07:35Z</time>
      </trkpt>
      <trkpt lat="45.52122" lon="6.7594">
        <ele>2214.5</ele>
        <time>2021-08-03T09:07:36Z</time>
      </trkpt>
      <trkpt lat="45.52122" lon="6.7594">
        <ele>2214.5</ele>
        <time>2021-08-03T09:07:37Z</time>
      </trkpt>
      <trkpt lat="45.52121" lon="6.7594">
        <ele>2214.4</ele>
        <time>2021-08-03T09:07:38Z</time>
      </trkpt>
      <trkpt lat="45.52121" lon="6.75941">
        <ele>2214.3</ele>
        <time>2021-08-03T09:07:39Z</time>
      </trkpt>
      <trkpt lat="45.5212" lon="6.75941">
        <ele>2214.2</ele>
        <time>2021-08-03T09:07:40Z</time>
      </trkpt>
      <trkpt lat="45.5212" lon="6.75941">
        <ele>2214.1</ele>
        <time>2021-08-03T09:07:41Z</time>
      </trkpt>
      <trkpt lat="45.52119" lon="6.75941">
        <ele>2214</ele>
        <time>2021-08-03T09:07:42Z</time>
      </trkpt>
      <trkpt lat="45.52118" lon="6.75941">
        <ele>2213.8</ele>
        <time>2021-08-03T09:07:43Z</time>
      </trkpt>
      <trkpt lat="45.52117" lon="6.75941">
        <ele>2213.7</ele>
        <time>2021-08-03T09:07:44Z</time>
      </trkpt>
      <trkpt lat="45.52117" lon="6.75941">
        <ele>2213.5</ele>
        <time>2021-08-03T09:07:45Z</time>
      </trkpt>
      <trkpt lat="45.52116" lon="6.75942">
        <ele>2213.4</ele>
        <time>2021-08-03T09:07:46Z</time>
      </trkpt>
      <trkpt lat="45.52115" lon="6.75941">
        <ele>2213.2</ele>
        <time>2021-08-03T09:07:47Z</time>
      </trkpt>
      <trkpt lat="45.52114" lon="6.75941">
        <ele>2213.1</ele>
        <time>2021-08-03T09:07:48Z</time>
      </trkpt>
      <trkpt lat="45.52113" lon="6.75941">
        <ele>2212.9</ele>
        <time>2021-08-03T09:07:49Z</time>
      </trkpt>
      <trkpt lat="45.52113" lon="6.75941">
        <ele>2212.8</ele>
        <time>2021-08-03T09:07:50Z</time>
      </trkpt>
      <trkpt lat="45.52112" lon="6.75941">
        <ele>2212.6</ele>
        <time>2021-08-03T09:07:51Z</time>
      </trkpt>
      <trkpt lat="45.52111" lon="6.75941">
        <ele>2212.5</ele>
        <time>2021-08-03T09:07:52Z</time>
      </trkpt>
      <trkpt lat="45.5211" lon="6.75941">
        <ele>2212.4</ele>
        <time>2021-08-03T09:07:53Z</time>
      </trkpt>
      <trkpt lat="45.5211" lon="6.75941">
        <ele>2212.2</ele>
        <time>2021-08-03T09:07:54Z</time>
      </trkpt>
      <trkpt lat="45.52109" lon="6.75941">
        <ele>2212.1</ele>
        <time>2021-08-03T09:07:55Z</time>
      </trkpt>
      <trkpt lat="45.52108" lon="6.75941">
        <ele>2211.9</ele>
        <time>2021-08-03T09:07:56Z</time>
      </trkpt>
      <trkpt lat="45.52107" lon="6.75941">
        <ele>2211.8</ele>
        <time>2021-08-03T09:07:57Z</time>
      </trkpt>
      <trkpt lat="45.52107" lon="6.75941">
        <ele>2211.7</ele>
        <time>2021-08-03T09:07:58Z</time>
      </trkpt>
      <trkpt lat="45.52106" lon="6.75941">
        <ele>2211.5</ele>
        <time>2021-08-03T09:07:59Z</time>
      </trkpt>
      <trkpt lat="45.52105" lon="6.75941">
        <ele>2211.4</ele>
        <time>2021-08-03T09:08:00Z</time>
      </trkpt>
      <trkpt lat="45.52105" lon="6.75941">
        <ele>2211.3</ele>
        <time>2021-08-03T09:08:01Z</time>
      </trkpt>
      <trkpt lat="45.52104" lon="6.75941">
        <ele>2211.2</ele>
        <time>2021-08-03T09:08:02Z</time>
      </trkpt>
      <trkpt lat="45.52103" lon="6.75941">
        <ele>2211</ele>
        <time>2021-08-03T09:08:03Z</time>
      </trkpt>
      <trkpt lat="45.52103" lon="6.75941">
        <ele>2210.9</ele>
        <time>2021-08-03T09:08:04Z</time>
      </trkpt>
      <trkpt lat="45.52102" lon="6.75941">
        <ele>2210.8</ele>
        <time>2021-08-03T09:08:05Z</time>
      </trkpt>
      <trkpt lat="45.52102" lon="6.75941">
        <ele>2210.7</ele>
        <time>2021-08-03T09:08:06Z</time>
      </trkpt>
      <trkpt lat="45.52101" lon="6.75941">
        <ele>2210.6</ele>
        <time>2021-08-03T09:08:07Z</time>
      </trkpt>
      <trkpt lat="45.52101" lon="6.75941">
        <ele>2210.5</ele>
        <time>2021-08-03T09:08:08Z</time>
      </trkpt>
      <trkpt lat="45.521" lon="6.75941">
        <ele>2210.4</ele>
        <time>2021-08-03T09:08:09Z</time>
      </trkpt>
      <trkpt lat="45.521" lon="6.75941">
        <ele>2210.3</ele>
        <time>2021-08-03T09:08:10Z</time>
      </trkpt>
      <trkpt lat="45.52099" lon="6.75941">
        <ele>2210.2</ele>
        <time>2021-08-03T09:08:11Z</time>
      </trkpt>
      <trkpt lat="45.52099" lon="6.75941">
        <ele>2210.1</ele>
        <time>2021-08-03T09:08:12Z</time>
      </trkpt>
      <trkpt lat="45.52098" lon="6.75941">
        <ele>2210</ele>
        <time>2021-08-03T09:08:13Z</time>
      </trkpt>
      <trkpt lat="45.52098" lon="6.75941">
        <ele>2209.9</ele>
        <time>2021-08-03T09:08:14Z</time>
      </trkpt>
      <trkpt lat="45.52097" lon="6.75941">
        <ele>2209.9</ele>
        <time>2021-08-03T09:08:15Z</time>
      </trkpt>
      <trkpt lat="45.52097" lon="6.75941">
        <ele>2209.8</ele>
        <time>2021-08-03T09:08:16Z</time>
      </trkpt>
      <trkpt lat="45.52096" lon="6.75941">
        <ele>2209.7</ele>
        <time>2021-08-03T09:08:17Z</time>
      </trkpt>
      <trkpt lat="45.52096" lon="6.75941">
        <ele>2209.6</ele>
        <time>2021-08-03T09:08:18Z</time>
      </trkpt>
      <trkpt lat="45.52095" lon="6.75941">
        <ele>2209.5</ele>
        <time>2021-08-03T09:08:19Z</time>
      </trkpt>
      <trkpt lat="45.52095" lon="6.75941">
        <ele>2209.5</ele>
        <time>2021-08-03T09:08:20Z</time>
      </trkpt>
      <trkpt lat="45.52095" lon="6.75941">
        <ele>2209.4</ele>
        <time>2021-08-03T09:08:21Z</time>
      </trkpt>
      <trkpt lat="45.52095" lon="6.75941">
        <ele>2209.4</ele>
        <time>2021-08-03T09:08:22Z</time>
      </trkpt>
      <trkpt lat="45.52094" lon="6.75941">
        <ele>2209.3</ele>
        <time>2021-08-03T09:08:23Z</time>
      </trkpt>
      <trkpt lat="45.52094" lon="6.75941">
        <ele>2209.3</ele>
        <time>2021-08-03T09:08:24Z</time>
      </trkpt>
      <trkpt lat="45.52094" lon="6.75941">
        <ele>2209.3</ele>
        <time>2021-08-03T09:08:25Z</time>
      </trkpt>
      <trkpt lat="45.52094" lon="6.75941">
        <ele>2209.2</ele>
        <time>2021-08-03T09:08:26Z</time>
      </trkpt>
      <trkpt lat="45.52094" lon="6.75941">
        <ele>2209.2</ele>
        <time>2021-08-03T09:08:27Z</time>
      </trkpt>
      <trkpt lat="45.52094" lon="6.75941">
        <ele>2209.2</ele>
        <time>2021-08-03T09:08:28Z</time>
      </trkpt>
      <trkpt lat="45.52094" lon="6.75941">
        <ele>2209.2</ele>
        <time>2021-08-03T09:08:29Z</time>
      </trkpt>
      <trkpt lat="45.52094" lon="6.75941">
        <ele>2209.2</ele>
        <time>2021-08-03T09:08:30Z</time>
      </trkpt>
      <trkpt lat="45.52094" lon="6.75941">
        <ele>2209.2</ele>
        <time>2021-08-03T09:08:31Z</time>
      </trkpt>
      <trkpt lat="45.52094" lon="6.75941">
        <ele>2209.1</ele>
        <time>2021-08-03T09:08:32Z</time>
      </trkpt>
      <trkpt lat="45.52094" lon="6.75941">
        <ele>2209.1</ele>
        <time>2021-08-03T09:08:33Z</time>
      </trkpt>
      <trkpt lat="45.52094" lon="6.75942">
        <ele>2209</ele>
        <time>2021-08-03T09:08:34Z</time>
      </trkpt>
      <trkpt lat="45.52094" lon="6.75942">
        <ele>2208.9</ele>
        <time>2021-08-03T09:08:35Z</time>
      </trkpt>
      <trkpt lat="45.52093" lon="6.75943">
        <ele>2208.8</ele>
        <time>2021-08-03T09:08:36Z</time>
      </trkpt>
      <trkpt lat="45.52093" lon="6.75944">
        <ele>2208.7</ele>
        <time>2021-08-03T09:08:37Z</time>
      </trkpt>
      <trkpt lat="45.52093" lon="6.75945">
        <ele>2208.6</ele>
        <time>2021-08-03T09:08:38Z</time>
      </trkpt>
      <trkpt lat="45.52093" lon="6.75945">
        <ele>2208.5</ele>
        <time>2021-08-03T09:08:39Z</time>
      </trkpt>
      <trkpt lat="45.52093" lon="6.75946">
        <ele>2208.3</ele>
        <time>2021-08-03T09:08:40Z</time>
      </trkpt>
      <trkpt lat="45.52093" lon="6.75947">
        <ele>2208.2</ele>
        <time>2021-08-03T09:08:41Z</time>
      </trkpt>
      <trkpt lat="45.52093" lon="6.75948">
        <ele>2208.1</ele>
        <time>2021-08-03T09:08:42Z</time>
      </trkpt>
      <trkpt lat="45.52093" lon="6.7595">
        <ele>2207.9</ele>
        <time>2021-08-03T09:08:43Z</time>
      </trkpt>
      <trkpt lat="45.52093" lon="6.75951">
        <ele>2207.8</ele>
        <time>2021-08-03T09:08:44Z</time>
      </trkpt>
      <trkpt lat="45.52094" lon="6.75952">
        <ele>2207.6</ele>
        <time>2021-08-03T09:08:45Z</time>
      </trkpt>
      <trkpt lat="45.52094" lon="6.75953">
        <ele>2207.5</ele>
        <time>2021-08-03T09:08:46Z</time>
      </trkpt>
      <trkpt lat="45.52095" lon="6.75954">
        <ele>2207.3</ele>
        <time>2021-08-03T09:08:47Z</time>
      </trkpt>
      <trkpt lat="45.52095" lon="6.75955">
        <ele>2207.1</ele>
        <time>2021-08-03T09:08:48Z</time>
      </trkpt>
      <trkpt lat="45.52095" lon="6.75956">
        <ele>2206.9</ele>
        <time>2021-08-03T09:08:49Z</time>
      </trkpt>
      <trkpt lat="45.52096" lon="6.75957">
        <ele>2206.7</ele>
        <time>2021-08-03T09:08:50Z</time>
      </trkpt>
      <trkpt lat="45.52096" lon="6.75958">
        <ele>2206.6</ele>
        <time>2021-08-03T09:08:51Z</time>
      </trkpt>
      <trkpt lat="45.52096" lon="6.75959">
        <ele>2206.4</ele>
        <time>2021-08-03T09:08:52Z</time>
      </trkpt>
      <trkpt lat="45.52096" lon="6.7596">
        <ele>2206.3</ele>
        <time>2021-08-03T09:08:53Z</time>
      </trkpt>
      <trkpt lat="45.52097" lon="6.75961">
        <ele>2206.1</ele>
        <time>2021-08-03T09:08:54Z</time>
      </trkpt>
      <trkpt lat="45.52097" lon="6.75962">
        <ele>2206</ele>
        <time>2021-08-03T09:08:55Z</time>
      </trkpt>
      <trkpt lat="45.52097" lon="6.75963">
        <ele>2205.9</ele>
        <time>2021-08-03T09:08:56Z</time>
      </trkpt>
      <trkpt lat="45.52097" lon="6.75964">
        <ele>2205.7</ele>
        <time>2021-08-03T09:08:57Z</time>
      </trkpt>
      <trkpt lat="45.52097" lon="6.75965">
        <ele>2205.6</ele>
        <time>2021-08-03T09:08:58Z</time>
      </trkpt>
      <trkpt lat="45.52097" lon="6.75966">
        <ele>2205.4</ele>
        <time>2021-08-03T09:08:59Z</time>
      </trkpt>
      <trkpt lat="45.52097" lon="6.75967">
        <ele>2205.3</ele>
        <time>2021-08-03T09:09:00Z</time>
      </trkpt>
      <trkpt lat="45.52097" lon="6.75968">
        <ele>2205.1</ele>
        <time>2021-08-03T09:09:01Z</time>
      </trkpt>
      <trkpt lat="45.52098" lon="6.7597">
        <ele>2204.9</ele>
        <time>2021-08-03T09:09:02Z</time>
      </trkpt>
      <trkpt lat="45.52098" lon="6.75971">
        <ele>2204.8</ele>
        <time>2021-08-03T09:09:03Z</time>
      </trkpt>
      <trkpt lat="45.52098" lon="6.75972">
        <ele>2204.6</ele>
        <time>2021-08-03T09:09:04Z</time>
      </trkpt>
      <trkpt lat="45.52098" lon="6.75972">
        <ele>2204.5</ele>
        <time>2021-08-03T09:09:05Z</time>
      </trkpt>
      <trkpt lat="45.52099" lon="6.75973">
        <ele>2204.3</ele>
        <time>2021-08-03T09:09:06Z</time>
      </trkpt>
      <trkpt lat="45.52099" lon="6.75974">
        <ele>2204.2</ele>
        <time>2021-08-03T09:09:07Z</time>
      </trkpt>
      <trkpt lat="45.521" lon="6.75975">
        <ele>2204.1</ele>
        <time>2021-08-03T09:09:08Z</time>
      </trkpt>
      <trkpt lat="45.521" lon="6.75976">
        <ele>2203.9</ele>
        <time>2021-08-03T09:09:09Z</time>
      </trkpt>
      <trkpt lat="45.521" lon="6.75977">
        <ele>2203.8</ele>
        <time>2021-08-03T09:09:10Z</time>
      </trkpt>
      <trkpt lat="45.52101" lon="6.75978">
        <ele>2203.6</ele>
        <time>2021-08-03T09:09:11Z</time>
      </trkpt>
      <trkpt lat="45.52101" lon="6.75979">
        <ele>2203.5</ele>
        <time>2021-08-03T09:09:12Z</time>
      </trkpt>
      <trkpt lat="45.52101" lon="6.7598">
        <ele>2203.3</ele>
        <time>2021-08-03T09:09:13Z</time>
      </trkpt>
      <trkpt lat="45.52102" lon="6.75981">
        <ele>2203.2</ele>
        <time>2021-08-03T09:09:14Z</time>
      </trkpt>
      <trkpt lat="45.52102" lon="6.75982">
        <ele>2203.1</ele>
        <time>2021-08-03T09:09:15Z</time>
      </trkpt>
      <trkpt lat="45.52102" lon="6.75983">
        <ele>2202.9</ele>
        <time>2021-08-03T09:09:16Z</time>
      </trkpt>
      <trkpt lat="45.52102" lon="6.75984">
        <ele>2202.8</ele>
        <time>2021-08-03T09:09:17Z</time>
      </trkpt>
      <trkpt lat="45.52102" lon="6.75985">
        <ele>2202.6</ele>
        <time>2021-08-03T09:09:18Z</time>
      </trkpt>
      <trkpt lat="45.52103" lon="6.75986">
        <ele>2202.4</ele>
        <time>2021-08-03T09:09:19Z</time>
      </trkpt>
      <trkpt lat="45.52103" lon="6.75987">
        <ele>2202.3</ele>
        <time>2021-08-03T09:09:20Z</time>
      </trkpt>
      <trkpt lat="45.52103" lon="6.75988">
        <ele>2202.2</ele>
        <time>2021-08-03T09:09:21Z</time>
      </trkpt>
      <trkpt lat="45.52104" lon="6.75989">
        <ele>2202</ele>
        <time>2021-08-03T09:09:22Z</time>
      </trkpt>
      <trkpt lat="45.52104" lon="6.7599">
        <ele>2201.9</ele>
        <time>2021-08-03T09:09:23Z</time>
      </trkpt>
      <trkpt lat="45.52104" lon="6.7599">
        <ele>2201.7</ele>
        <time>2021-08-03T09:09:24Z</time>
      </trkpt>
      <trkpt lat="45.52105" lon="6.75991">
        <ele>2201.6</ele>
        <time>2021-08-03T09:09:25Z</time>
      </trkpt>
      <trkpt lat="45.52105" lon="6.75992">
        <ele>2201.5</ele>
        <time>2021-08-03T09:09:26Z</time>
      </trkpt>
      <trkpt lat="45.52105" lon="6.75993">
        <ele>2201.3</ele>
        <time>2021-08-03T09:09:27Z</time>
      </trkpt>
      <trkpt lat="45.52105" lon="6.75994">
        <ele>2201.2</ele>
        <time>2021-08-03T09:09:28Z</time>
      </trkpt>
      <trkpt lat="45.52106" lon="6.75995">
        <ele>2201.1</ele>
        <time>2021-08-03T09:09:29Z</time>
      </trkpt>
      <trkpt lat="45.52106" lon="6.75996">
        <ele>2201</ele>
        <time>2021-08-03T09:09:30Z</time>
      </trkpt>
      <trkpt lat="45.52106" lon="6.75997">
        <ele>2200.8</ele>
        <time>2021-08-03T09:09:31Z</time>
      </trkpt>
      <trkpt lat="45.52106" lon="6.75998">
        <ele>2200.7</ele>
        <time>2021-08-03T09:09:32Z</time>
      </trkpt>
      <trkpt lat="45.52107" lon="6.75999">
        <ele>2200.6</ele>
        <time>2021-08-03T09:09:33Z</time>
      </trkpt>
      <trkpt lat="45.52107" lon="6.76">
        <ele>2200.4</ele>
        <time>2021-08-03T09:09:34Z</time>
      </trkpt>
      <trkpt lat="45.52107" lon="6.76">
        <ele>2200.3</ele>
        <time>2021-08-03T09:09:35Z</time>
      </trkpt>
      <trkpt lat="45.52107" lon="6.76001">
        <ele>2200.2</ele>
        <time>2021-08-03T09:09:36Z</time>
      </trkpt>
      <trkpt lat="45.52108" lon="6.76002">
        <ele>2200.1</ele>
        <time>2021-08-03T09:09:37Z</time>
      </trkpt>
      <trkpt lat="45.52108" lon="6.76003">
        <ele>2199.9</ele>
        <time>2021-08-03T09:09:38Z</time>
      </trkpt>
      <trkpt lat="45.52108" lon="6.76004">
        <ele>2199.8</ele>
        <time>2021-08-03T09:09:39Z</time>
      </trkpt>
      <trkpt lat="45.52108" lon="6.76005">
        <ele>2199.7</ele>
        <time>2021-08-03T09:09:40Z</time>
      </trkpt>
      <trkpt lat="45.52109" lon="6.76006">
        <ele>2199.5</ele>
        <time>2021-08-03T09:09:41Z</time>
      </trkpt>
      <trkpt lat="45.52109" lon="6.76007">
        <ele>2199.4</ele>
        <time>2021-08-03T09:09:42Z</time>
      </trkpt>
      <trkpt lat="45.52109" lon="6.76008">
        <ele>2199.2</ele>
        <time>2021-08-03T09:09:43Z</time>
      </trkpt>
      <trkpt lat="45.52109" lon="6.76009">
        <ele>2199.1</ele>
        <time>2021-08-03T09:09:44Z</time>
      </trkpt>
      <trkpt lat="45.5211" lon="6.7601">
        <ele>2199</ele>
        <time>2021-08-03T09:09:45Z</time>
      </trkpt>
      <trkpt lat="45.5211" lon="6.76011">
        <ele>2198.9</ele>
        <time>2021-08-03T09:09:46Z</time>
      </trkpt>
      <trkpt lat="45.5211" lon="6.76012">
        <ele>2198.7</ele>
        <time>2021-08-03T09:09:47Z</time>
      </trkpt>
      <trkpt lat="45.52111" lon="6.76013">
        <ele>2198.6</ele>
        <time>2021-08-03T09:09:48Z</time>
      </trkpt>
      <trkpt lat="45.52111" lon="6.76014">
        <ele>2198.4</ele>
        <time>2021-08-03T09:09:49Z</time>
      </trkpt>
      <trkpt lat="45.52111" lon="6.76015">
        <ele>2198.3</ele>
        <time>2021-08-03T09:09:50Z</time>
      </trkpt>
      <trkpt lat="45.52112" lon="6.76015">
        <ele>2198.2</ele>
        <time>2021-08-03T09:09:51Z</time>
      </trkpt>
      <trkpt lat="45.52112" lon="6.76016">
        <ele>2198</ele>
        <time>2021-08-03T09:09:52Z</time>
      </trkpt>
      <trkpt lat="45.52112" lon="6.76017">
        <ele>2197.8</ele>
        <time>2021-08-03T09:09:53Z</time>
      </trkpt>
      <trkpt lat="45.52113" lon="6.76018">
        <ele>2197.7</ele>
        <time>2021-08-03T09:09:54Z</time>
      </trkpt>
      <trkpt lat="45.52113" lon="6.76019">
        <ele>2197.6</ele>
        <time>2021-08-03T09:09:55Z</time>
      </trkpt>
      <trkpt lat="45.52113" lon="6.7602">
        <ele>2197.5</ele>
        <time>2021-08-03T09:09:56Z</time>
      </trkpt>
      <trkpt lat="45.52113" lon="6.7602">
        <ele>2197.4</ele>
        <time>2021-08-03T09:09:57Z</time>
      </trkpt>
      <trkpt lat="45.52114" lon="6.7602">
        <ele>2197.4</ele>
        <time>2021-08-03T09:09:58Z</time>
      </trkpt>
      <trkpt lat="45.52114" lon="6.7602">
        <ele>2197.4</ele>
        <time>2021-08-03T09:09:59Z</time>
      </trkpt>
      <trkpt lat="45.52114" lon="6.7602">
        <ele>2197.4</ele>
        <time>2021-08-03T09:10:00Z</time>
      </trkpt>
      <trkpt lat="45.52114" lon="6.7602">
        <ele>2197.3</ele>
        <time>2021-08-03T09:10:01Z</time>
      </trkpt>
      <trkpt lat="45.52113" lon="6.7602">
        <ele>2197.3</ele>
        <time>2021-08-03T09:10:02Z</time>
      </trkpt>
      <trkpt lat="45.52113" lon="6.7602">
        <ele>2197.3</ele>
        <time>2021-08-03T09:10:03Z</time>
      </trkpt>
      <trkpt lat="45.52114" lon="6.7602">
        <ele>2197.3</ele>
        <time>2021-08-03T09:10:04Z</time>
      </trkpt>
      <trkpt lat="45.52114" lon="6.7602">
        <ele>2197.2</ele>
        <time>2021-08-03T09:10:05Z</time>
      </trkpt>
      <trkpt lat="45.52114" lon="6.76021">
        <ele>2197.1</ele>
        <time>2021-08-03T09:10:06Z</time>
      </trkpt>
      <trkpt lat="45.52115" lon="6.76022">
        <ele>2196.9</ele>
        <time>2021-08-03T09:10:07Z</time>
      </trkpt>
      <trkpt lat="45.52115" lon="6.76023">
        <ele>2196.8</ele>
        <time>2021-08-03T09:10:08Z</time>
      </trkpt>
      <trkpt lat="45.52116" lon="6.76023">
        <ele>2196.7</ele>
        <time>2021-08-03T09:10:09Z</time>
      </trkpt>
      <trkpt lat="45.52116" lon="6.76024">
        <ele>2196.4</ele>
        <time>2021-08-03T09:10:10Z</time>
      </trkpt>
      <trkpt lat="45.52117" lon="6.76025">
        <ele>2196.3</ele>
        <time>2021-08-03T09:10:11Z</time>
      </trkpt>
      <trkpt lat="45.52117" lon="6.76026">
        <ele>2196.2</ele>
        <time>2021-08-03T09:10:12Z</time>
      </trkpt>
      <trkpt lat="45.52117" lon="6.76027">
        <ele>2196.1</ele>
        <time>2021-08-03T09:10:13Z</time>
      </trkpt>
      <trkpt lat="45.52118" lon="6.76028">
        <ele>2195.9</ele>
        <time>2021-08-03T09:10:14Z</time>
      </trkpt>
      <trkpt lat="45.52118" lon="6.76029">
        <ele>2195.8</ele>
        <time>2021-08-03T09:10:15Z</time>
      </trkpt>
      <trkpt lat="45.52118" lon="6.7603">
        <ele>2195.7</ele>
        <time>2021-08-03T09:10:16Z</time>
      </trkpt>
      <trkpt lat="45.52119" lon="6.76031">
        <ele>2195.5</ele>
        <time>2021-08-03T09:10:17Z</time>
      </trkpt>
      <trkpt lat="45.5212" lon="6.76031">
        <ele>2195.4</ele>
        <time>2021-08-03T09:10:18Z</time>
      </trkpt>
      <trkpt lat="45.5212" lon="6.76032">
        <ele>2195.2</ele>
        <time>2021-08-03T09:10:19Z</time>
      </trkpt>
      <trkpt lat="45.52121" lon="6.76033">
        <ele>2195.1</ele>
        <time>2021-08-03T09:10:20Z</time>
      </trkpt>
      <trkpt lat="45.52122" lon="6.76034">
        <ele>2194.9</ele>
        <time>2021-08-03T09:10:21Z</time>
      </trkpt>
      <trkpt lat="45.52122" lon="6.76034">
        <ele>2194.8</ele>
        <time>2021-08-03T09:10:22Z</time>
      </trkpt>
      <trkpt lat="45.52123" lon="6.76035">
        <ele>2194.6</ele>
        <time>2021-08-03T09:10:23Z</time>
      </trkpt>
      <trkpt lat="45.52124" lon="6.76036">
        <ele>2194.5</ele>
        <time>2021-08-03T09:10:24Z</time>
      </trkpt>
      <trkpt lat="45.52124" lon="6.76037">
        <ele>2194.3</ele>
        <time>2021-08-03T09:10:25Z</time>
      </trkpt>
      <trkpt lat="45.52125" lon="6.76037">
        <ele>2194.1</ele>
        <time>2021-08-03T09:10:26Z</time>
      </trkpt>
      <trkpt lat="45.52126" lon="6.76038">
        <ele>2194</ele>
        <time>2021-08-03T09:10:27Z</time>
      </trkpt>
      <trkpt lat="45.52126" lon="6.76039">
        <ele>2193.8</ele>
        <time>2021-08-03T09:10:28Z</time>
      </trkpt>
      <trkpt lat="45.52127" lon="6.7604">
        <ele>2193.7</ele>
        <time>2021-08-03T09:10:29Z</time>
      </trkpt>
      <trkpt lat="45.52128" lon="6.76041">
        <ele>2193.5</ele>
        <time>2021-08-03T09:10:30Z</time>
      </trkpt>
      <trkpt lat="45.52128" lon="6.76042">
        <ele>2193.4</ele>
        <time>2021-08-03T09:10:31Z</time>
      </trkpt>
      <trkpt lat="45.52129" lon="6.76043">
        <ele>2193.2</ele>
        <time>2021-08-03T09:10:32Z</time>
      </trkpt>
      <trkpt lat="45.52129" lon="6.76043">
        <ele>2193.1</ele>
        <time>2021-08-03T09:10:33Z</time>
      </trkpt>
      <trkpt lat="45.5213" lon="6.76044">
        <ele>2192.9</ele>
        <time>2021-08-03T09:10:34Z</time>
      </trkpt>
      <trkpt lat="45.5213" lon="6.76045">
        <ele>2192.8</ele>
        <time>2021-08-03T09:10:35Z</time>
      </trkpt>
      <trkpt lat="45.52131" lon="6.76046">
        <ele>2192.7</ele>
        <time>2021-08-03T09:10:36Z</time>
      </trkpt>
      <trkpt lat="45.52131" lon="6.76047">
        <ele>2192.6</ele>
        <time>2021-08-03T09:10:37Z</time>
      </trkpt>
      <trkpt lat="45.52131" lon="6.76048">
        <ele>2192.4</ele>
        <time>2021-08-03T09:10:38Z</time>
      </trkpt>
      <trkpt lat="45.52131" lon="6.76049">
        <ele>2192.3</ele>
        <time>2021-08-03T09:10:39Z</time>
      </trkpt>
      <trkpt lat="45.52131" lon="6.7605">
        <ele>2192.2</ele>
        <time>2021-08-03T09:10:40Z</time>
      </trkpt>
      <trkpt lat="45.5213" lon="6.76051">
        <ele>2192.1</ele>
        <time>2021-08-03T09:10:41Z</time>
      </trkpt>
      <trkpt lat="45.5213" lon="6.76052">
        <ele>2191.9</ele>
        <time>2021-08-03T09:10:42Z</time>
      </trkpt>
      <trkpt lat="45.52129" lon="6.76053">
        <ele>2191.7</ele>
        <time>2021-08-03T09:10:43Z</time>
      </trkpt>
      <trkpt lat="45.52129" lon="6.76054">
        <ele>2191.6</ele>
        <time>2021-08-03T09:10:44Z</time>
      </trkpt>
      <trkpt lat="45.52128" lon="6.76055">
        <ele>2191.4</ele>
        <time>2021-08-03T09:10:45Z</time>
      </trkpt>
      <trkpt lat="45.52128" lon="6.76056">
        <ele>2191.3</ele>
        <time>2021-08-03T09:10:46Z</time>
      </trkpt>
      <trkpt lat="45.52128" lon="6.76057">
        <ele>2191.2</ele>
        <time>2021-08-03T09:10:47Z</time>
      </trkpt>
      <trkpt lat="45.52128" lon="6.76058">
        <ele>2191</ele>
        <time>2021-08-03T09:10:48Z</time>
      </trkpt>
      <trkpt lat="45.52128" lon="6.76059">
        <ele>2190.9</ele>
        <time>2021-08-03T09:10:49Z</time>
      </trkpt>
      <trkpt lat="45.52128" lon="6.7606">
        <ele>2190.8</ele>
        <time>2021-08-03T09:10:50Z</time>
      </trkpt>
      <trkpt lat="45.52128" lon="6.76061">
        <ele>2190.7</ele>
        <time>2021-08-03T09:10:51Z</time>
      </trkpt>
      <trkpt lat="45.52128" lon="6.76061">
        <ele>2190.6</ele>
        <time>2021-08-03T09:10:52Z</time>
      </trkpt>
      <trkpt lat="45.52128" lon="6.76062">
        <ele>2190.5</ele>
        <time>2021-08-03T09:10:53Z</time>
      </trkpt>
      <trkpt lat="45.52128" lon="6.76063">
        <ele>2190.4</ele>
        <time>2021-08-03T09:10:54Z</time>
      </trkpt>
      <trkpt lat="45.52129" lon="6.76063">
        <ele>2190.4</ele>
        <time>2021-08-03T09:10:55Z</time>
      </trkpt>
      <trkpt lat="45.52129" lon="6.76064">
        <ele>2190.3</ele>
        <time>2021-08-03T09:10:56Z</time>
      </trkpt>
      <trkpt lat="45.52129" lon="6.76064">
        <ele>2190.2</ele>
        <time>2021-08-03T09:10:57Z</time>
      </trkpt>
      <trkpt lat="45.52129" lon="6.76065">
        <ele>2190.2</ele>
        <time>2021-08-03T09:10:58Z</time>
      </trkpt>
      <trkpt lat="45.52129" lon="6.76065">
        <ele>2190.1</ele>
        <time>2021-08-03T09:10:59Z</time>
      </trkpt>
      <trkpt lat="45.52129" lon="6.76066">
        <ele>2190</ele>
        <time>2021-08-03T09:11:00Z</time>
      </trkpt>
      <trkpt lat="45.5213" lon="6.76066">
        <ele>2190</ele>
        <time>2021-08-03T09:11:01Z</time>
      </trkpt>
      <trkpt lat="45.5213" lon="6.76067">
        <ele>2189.8</ele>
        <time>2021-08-03T09:11:02Z</time>
      </trkpt>
      <trkpt lat="45.5213" lon="6.76067">
        <ele>2189.8</ele>
        <time>2021-08-03T09:11:03Z</time>
      </trkpt>
      <trkpt lat="45.52131" lon="6.76068">
        <ele>2189.6</ele>
        <time>2021-08-03T09:11:04Z</time>
      </trkpt>
      <trkpt lat="45.52131" lon="6.76069">
        <ele>2189.5</ele>
        <time>2021-08-03T09:11:05Z</time>
      </trkpt>
      <trkpt lat="45.52132" lon="6.7607">
        <ele>2189.3</ele>
        <time>2021-08-03T09:11:06Z</time>
      </trkpt>
      <trkpt lat="45.52133" lon="6.76071">
        <ele>2189.2</ele>
        <time>2021-08-03T09:11:07Z</time>
      </trkpt>
      <trkpt lat="45.52133" lon="6.76071">
        <ele>2189</ele>
        <time>2021-08-03T09:11:08Z</time>
      </trkpt>
      <trkpt lat="45.52134" lon="6.76072">
        <ele>2188.9</ele>
        <time>2021-08-03T09:11:09Z</time>
      </trkpt>
      <trkpt lat="45.52135" lon="6.76073">
        <ele>2188.7</ele>
        <time>2021-08-03T09:11:10Z</time>
      </trkpt>
      <trkpt lat="45.52135" lon="6.76074">
        <ele>2188.5</ele>
        <time>2021-08-03T09:11:11Z</time>
      </trkpt>
      <trkpt lat="45.52136" lon="6.76075">
        <ele>2188.4</ele>
        <time>2021-08-03T09:11:12Z</time>
      </trkpt>
      <trkpt lat="45.52137" lon="6.76076">
        <ele>2188.2</ele>
        <time>2021-08-03T09:11:13Z</time>
      </trkpt>
      <trkpt lat="45.52137" lon="6.76076">
        <ele>2188.1</ele>
        <time>2021-08-03T09:11:14Z</time>
      </trkpt>
      <trkpt lat="45.52138" lon="6.76077">
        <ele>2187.9</ele>
        <time>2021-08-03T09:11:15Z</time>
      </trkpt>
      <trkpt lat="45.52139" lon="6.76078">
        <ele>2187.7</ele>
        <time>2021-08-03T09:11:16Z</time>
      </trkpt>
      <trkpt lat="45.52139" lon="6.76079">
        <ele>2187.6</ele>
        <time>2021-08-03T09:11:17Z</time>
      </trkpt>
      <trkpt lat="45.5214" lon="6.7608">
        <ele>2187.4</ele>
        <time>2021-08-03T09:11:18Z</time>
      </trkpt>
      <trkpt lat="45.5214" lon="6.76081">
        <ele>2187.3</ele>
        <time>2021-08-03T09:11:19Z</time>
      </trkpt>
      <trkpt lat="45.52141" lon="6.76083">
        <ele>2187.1</ele>
        <time>2021-08-03T09:11:20Z</time>
      </trkpt>
      <trkpt lat="45.52141" lon="6.76084">
        <ele>2186.9</ele>
        <time>2021-08-03T09:11:21Z</time>
      </trkpt>
      <trkpt lat="45.52142" lon="6.76086">
        <ele>2186.7</ele>
        <time>2021-08-03T09:11:22Z</time>
      </trkpt>
      <trkpt lat="45.52142" lon="6.76087">
        <ele>2186.4</ele>
        <time>2021-08-03T09:11:23Z</time>
      </trkpt>
      <trkpt lat="45.52143" lon="6.76089">
        <ele>2186.2</ele>
        <time>2021-08-03T09:11:24Z</time>
      </trkpt>
      <trkpt lat="45.52143" lon="6.7609">
        <ele>2186</ele>
        <time>2021-08-03T09:11:25Z</time>
      </trkpt>
      <trkpt lat="45.52144" lon="6.76092">
        <ele>2185.8</ele>
        <time>2021-08-03T09:11:26Z</time>
      </trkpt>
      <trkpt lat="45.52144" lon="6.76093">
        <ele>2185.7</ele>
        <time>2021-08-03T09:11:27Z</time>
      </trkpt>
      <trkpt lat="45.52145" lon="6.76094">
        <ele>2185.5</ele>
        <time>2021-08-03T09:11:28Z</time>
      </trkpt>
      <trkpt lat="45.52145" lon="6.76095">
        <ele>2185.3</ele>
        <time>2021-08-03T09:11:29Z</time>
      </trkpt>
      <trkpt lat="45.52145" lon="6.76096">
        <ele>2185.2</ele>
        <time>2021-08-03T09:11:30Z</time>
      </trkpt>
      <trkpt lat="45.52145" lon="6.76098">
        <ele>2185</ele>
        <time>2021-08-03T09:11:31Z</time>
      </trkpt>
      <trkpt lat="45.52145" lon="6.76099">
        <ele>2184.9</ele>
        <time>2021-08-03T09:11:32Z</time>
      </trkpt>
      <trkpt lat="45.52145" lon="6.761">
        <ele>2184.7</ele>
        <time>2021-08-03T09:11:33Z</time>
      </trkpt>
      <trkpt lat="45.52145" lon="6.76101">
        <ele>2184.6</ele>
        <time>2021-08-03T09:11:34Z</time>
      </trkpt>
      <trkpt lat="45.52144" lon="6.76101">
        <ele>2184.5</ele>
        <time>2021-08-03T09:11:35Z</time>
      </trkpt>
      <trkpt lat="45.52143" lon="6.76101">
        <ele>2184.3</ele>
        <time>2021-08-03T09:11:36Z</time>
      </trkpt>
      <trkpt lat="45.52142" lon="6.76102">
        <ele>2184.1</ele>
        <time>2021-08-03T09:11:37Z</time>
      </trkpt>
      <trkpt lat="45.52141" lon="6.76102">
        <ele>2183.9</ele>
        <time>2021-08-03T09:11:38Z</time>
      </trkpt>
      <trkpt lat="45.5214" lon="6.76102">
        <ele>2183.7</ele>
        <time>2021-08-03T09:11:39Z</time>
      </trkpt>
      <trkpt lat="45.52139" lon="6.76102">
        <ele>2183.5</ele>
        <time>2021-08-03T09:11:40Z</time>
      </trkpt>
      <trkpt lat="45.52138" lon="6.76103">
        <ele>2183.3</ele>
        <time>2021-08-03T09:11:41Z</time>
      </trkpt>
      <trkpt lat="45.52137" lon="6.76103">
        <ele>2183.1</ele>
        <time>2021-08-03T09:11:42Z</time>
      </trkpt>
      <trkpt lat="45.52136" lon="6.76104">
        <ele>2183</ele>
        <time>2021-08-03T09:11:43Z</time>
      </trkpt>
      <trkpt lat="45.52135" lon="6.76104">
        <ele>2182.8</ele>
        <time>2021-08-03T09:11:44Z</time>
      </trkpt>
      <trkpt lat="45.52134" lon="6.76104">
        <ele>2182.7</ele>
        <time>2021-08-03T09:11:45Z</time>
      </trkpt>
      <trkpt lat="45.52134" lon="6.76105">
        <ele>2182.6</ele>
        <time>2021-08-03T09:11:46Z</time>
      </trkpt>
      <trkpt lat="45.52133" lon="6.76105">
        <ele>2182.5</ele>
        <time>2021-08-03T09:11:47Z</time>
      </trkpt>
      <trkpt lat="45.52133" lon="6.76105">
        <ele>2182.5</ele>
        <time>2021-08-03T09:11:48Z</time>
      </trkpt>
      <trkpt lat="45.52133" lon="6.76105">
        <ele>2182.4</ele>
        <time>2021-08-03T09:11:49Z</time>
      </trkpt>
      <trkpt lat="45.52132" lon="6.76105">
        <ele>2182.4</ele>
        <time>2021-08-03T09:11:50Z</time>
      </trkpt>
      <trkpt lat="45.52132" lon="6.76105">
        <ele>2182.3</ele>
        <time>2021-08-03T09:11:51Z</time>
      </trkpt>
      <trkpt lat="45.52132" lon="6.76106">
        <ele>2182.3</ele>
        <time>2021-08-03T09:11:52Z</time>
      </trkpt>
      <trkpt lat="45.52132" lon="6.76106">
        <ele>2182.3</ele>
        <time>2021-08-03T09:11:53Z</time>
      </trkpt>
      <trkpt lat="45.52132" lon="6.76106">
        <ele>2182.3</ele>
        <time>2021-08-03T09:11:54Z</time>
      </trkpt>
      <trkpt lat="45.52132" lon="6.76106">
        <ele>2182.3</ele>
        <time>2021-08-03T09:11:55Z</time>
      </trkpt>
      <trkpt lat="45.52132" lon="6.76106">
        <ele>2182.3</ele>
        <time>2021-08-03T09:11:56Z</time>
      </trkpt>
      <trkpt lat="45.52132" lon="6.76106">
        <ele>2182.3</ele>
        <time>2021-08-03T09:11:57Z</time>
      </trkpt>
      <trkpt lat="45.52132" lon="6.76106">
        <ele>2182.3</ele>
        <time>2021-08-03T09:11:58Z</time>
      </trkpt>
      <trkpt lat="45.52132" lon="6.76106">
        <ele>2182.3</ele>
        <time>2021-08-03T09:11:59Z</time>
      </trkpt>
      <trkpt lat="45.52132" lon="6.76106">
        <ele>2182.3</ele>
        <time>2021-08-03T09:12:00Z</time>
      </trkpt>
      <trkpt lat="45.52132" lon="6.76106">
        <ele>2182.3</ele>
        <time>2021-08-03T09:12:01Z</time>
      </trkpt>
      <trkpt lat="45.52132" lon="6.76106">
        <ele>2182.3</ele>
        <time>2021-08-03T09:12:02Z</time>
      </trkpt>
      <trkpt lat="45.52132" lon="6.76105">
        <ele>2182.3</ele>
        <time>2021-08-03T09:12:03Z</time>
      </trkpt>
      <trkpt lat="45.52132" lon="6.76105">
        <ele>2182.3</ele>
        <time>2021-08-03T09:12:04Z</time>
      </trkpt>
      <trkpt lat="45.52132" lon="6.76105">
        <ele>2182.3</ele>
        <time>2021-08-03T09:12:05Z</time>
      </trkpt>
      <trkpt lat="45.52132" lon="6.76105">
        <ele>2182.3</ele>
        <time>2021-08-03T09:12:06Z</time>
      </trkpt>
      <trkpt lat="45.52132" lon="6.76105">
        <ele>2182.3</ele>
        <time>2021-08-03T09:12:07Z</time>
      </trkpt>
      <trkpt lat="45.52132" lon="6.76105">
        <ele>2182.3</ele>
        <time>2021-08-03T09:12:08Z</time>
      </trkpt>
      <trkpt lat="45.52132" lon="6.76105">
        <ele>2182.3</ele>
        <time>2021-08-03T09:12:09Z</time>
      </trkpt>
      <trkpt lat="45.52132" lon="6.76105">
        <ele>2182.3</ele>
        <time>2021-08-03T09:12:10Z</time>
      </trkpt>
      <trkpt lat="45.52132" lon="6.76105">
        <ele>2182.3</ele>
        <time>2021-08-03T09:12:11Z</time>
      </trkpt>
      <trkpt lat="45.52132" lon="6.76105">
        <ele>2182.3</ele>
        <time>2021-08-03T09:12:12Z</time>
      </trkpt>
      <trkpt lat="45.52132" lon="6.76105">
        <ele>2182.3</ele>
        <time>2021-08-03T09:12:13Z</time>
      </trkpt>
      <trkpt lat="45.52132" lon="6.76105">
        <ele>2182.3</ele>
        <time>2021-08-03T09:12:14Z</time>
      </trkpt>
      <trkpt lat="45.52132" lon="6.76105">
        <ele>2182.3</ele>
        <time>2021-08-03T09:12:15Z</time>
      </trkpt>
      <trkpt lat="45.52132" lon="6.76105">
        <ele>2182.3</ele>
        <time>2021-08-03T09:12:16Z</time>
      </trkpt>
      <trkpt lat="45.52132" lon="6.76105">
        <ele>2182.3</ele>
        <time>2021-08-03T09:12:17Z</time>
      </trkpt>
      <trkpt lat="45.52132" lon="6.76106">
        <ele>2182.2</ele>
        <time>2021-08-03T09:12:18Z</time>
      </trkpt>
      <trkpt lat="45.52132" lon="6.76106">
        <ele>2182.2</ele>
        <time>2021-08-03T09:12:19Z</time>
      </trkpt>
      <trkpt lat="45.52132" lon="6.76106">
        <ele>2182.2</ele>
        <time>2021-08-03T09:12:20Z</time>
      </trkpt>
      <trkpt lat="45.52132" lon="6.76106">
        <ele>2182.2</ele>
        <time>2021-08-03T09:12:21Z</time>
      </trkpt>
      <trkpt lat="45.52132" lon="6.76106">
        <ele>2182.2</ele>
        <time>2021-08-03T09:12:22Z</time>
      </trkpt>
      <trkpt lat="45.52132" lon="6.76106">
        <ele>2182.2</ele>
        <time>2021-08-03T09:12:23Z</time>
      </trkpt>
      <trkpt lat="45.52132" lon="6.76106">
        <ele>2182.2</ele>
        <time>2021-08-03T09:12:24Z</time>
      </trkpt>
      <trkpt lat="45.52132" lon="6.76106">
        <ele>2182.2</ele>
        <time>2021-08-03T09:12:25Z</time>
      </trkpt>
      <trkpt lat="45.52132" lon="6.76106">
        <ele>2182.2</ele>
        <time>2021-08-03T09:12:26Z</time>
      </trkpt>
      <trkpt lat="45.52132" lon="6.76106">
        <ele>2182.2</ele>
        <time>2021-08-03T09:12:27Z</time>
      </trkpt>
      <trkpt lat="45.52132" lon="6.76106">
        <ele>2182.2</ele>
        <time>2021-08-03T09:12:28Z</time>
      </trkpt>
      <trkpt lat="45.52132" lon="6.76106">
        <ele>2182.2</ele>
        <time>2021-08-03T09:12:29Z</time>
      </trkpt>
      <trkpt lat="45.52132" lon="6.76106">
        <ele>2182.2</ele>
        <time>2021-08-03T09:12:30Z</time>
      </trkpt>
      <trkpt lat="45.52132" lon="6.76105">
        <ele>2182.2</ele>
        <time>2021-08-03T09:12:31Z</time>
      </trkpt>
      <trkpt lat="45.52132" lon="6.76105">
        <ele>2182.2</ele>
        <time>2021-08-03T09:12:32Z</time>
      </trkpt>
      <trkpt lat="45.52132" lon="6.76105">
        <ele>2182.2</ele>
        <time>2021-08-03T09:12:33Z</time>
      </trkpt>
      <trkpt lat="45.52132" lon="6.76105">
        <ele>2182.2</ele>
        <time>2021-08-03T09:12:34Z</time>
      </trkpt>
      <trkpt lat="45.52132" lon="6.76105">
        <ele>2182.2</ele>
        <time>2021-08-03T09:12:35Z</time>
      </trkpt>
      <trkpt lat="45.52132" lon="6.76105">
        <ele>2182.2</ele>
        <time>2021-08-03T09:12:36Z</time>
      </trkpt>
      <trkpt lat="45.52132" lon="6.76105">
        <ele>2182.2</ele>
        <time>2021-08-03T09:12:37Z</time>
      </trkpt>
      <trkpt lat="45.52132" lon="6.76105">
        <ele>2182.2</ele>
        <time>2021-08-03T09:12:38Z</time>
      </trkpt>
      <trkpt lat="45.52132" lon="6.76105">
        <ele>2182.2</ele>
        <time>2021-08-03T09:12:39Z</time>
      </trkpt>
      <trkpt lat="45.52132" lon="6.76105">
        <ele>2182.2</ele>
        <time>2021-08-03T09:12:40Z</time>
      </trkpt>
      <trkpt lat="45.52132" lon="6.76105">
        <ele>2182.2</ele>
        <time>2021-08-03T09:12:41Z</time>
      </trkpt>
      <trkpt lat="45.52132" lon="6.76105">
        <ele>2182.2</ele>
        <time>2021-08-03T09:12:42Z</time>
      </trkpt>
      <trkpt lat="45.52132" lon="6.76105">
        <ele>2182.2</ele>
        <time>2021-08-03T09:12:43Z</time>
      </trkpt>
      <trkpt lat="45.52132" lon="6.76105">
        <ele>2182.2</ele>
        <time>2021-08-03T09:12:44Z</time>
      </trkpt>
      <trkpt lat="45.52132" lon="6.76105">
        <ele>2182.2</ele>
        <time>2021-08-03T09:12:45Z</time>
      </trkpt>
      <trkpt lat="45.52132" lon="6.76105">
        <ele>2182.2</ele>
        <time>2021-08-03T09:12:46Z</time>
      </trkpt>
      <trkpt lat="45.52132" lon="6.76105">
        <ele>2182.2</ele>
        <time>2021-08-03T09:12:47Z</time>
      </trkpt>
      <trkpt lat="45.52132" lon="6.76105">
        <ele>2182.2</ele>
        <time>2021-08-03T09:12:48Z</time>
      </trkpt>
      <trkpt lat="45.52132" lon="6.76105">
        <ele>2182.2</ele>
        <time>2021-08-03T09:12:49Z</time>
      </trkpt>
      <trkpt lat="45.52132" lon="6.76105">
        <ele>2182.2</ele>
        <time>2021-08-03T09:12:50Z</time>
      </trkpt>
      <trkpt lat="45.52132" lon="6.76105">
        <ele>2182.2</ele>
        <time>2021-08-03T09:12:51Z</time>
      </trkpt>
      <trkpt lat="45.52132" lon="6.76105">
        <ele>2182.2</ele>
        <time>2021-08-03T09:12:52Z</time>
      </trkpt>
      <trkpt lat="45.52132" lon="6.76105">
        <ele>2182.2</ele>
        <time>2021-08-03T09:12:53Z</time>
      </trkpt>
      <trkpt lat="45.52132" lon="6.76105">
        <ele>2182.2</ele>
        <time>2021-08-03T09:12:54Z</time>
      </trkpt>
      <trkpt lat="45.52132" lon="6.76105">
        <ele>2182.2</ele>
        <time>2021-08-03T09:12:55Z</time>
      </trkpt>
      <trkpt lat="45.52132" lon="6.76105">
        <ele>2182.2</ele>
        <time>2021-08-03T09:12:56Z</time>
      </trkpt>
      <trkpt lat="45.52132" lon="6.76105">
        <ele>2182.2</ele>
        <time>2021-08-03T09:12:57Z</time>
      </trkpt>
      <trkpt lat="45.52132" lon="6.76105">
        <ele>2182.2</ele>
        <time>2021-08-03T09:12:58Z</time>
      </trkpt>
      <trkpt lat="45.52132" lon="6.76105">
        <ele>2182.2</ele>
        <time>2021-08-03T09:12:59Z</time>
      </trkpt>
      <trkpt lat="45.52132" lon="6.76105">
        <ele>2182.2</ele>
        <time>2021-08-03T09:13:00Z</time>
      </trkpt>
      <trkpt lat="45.52132" lon="6.76105">
        <ele>2182.2</ele>
        <time>2021-08-03T09:13:01Z</time>
      </trkpt>
      <trkpt lat="45.52132" lon="6.76105">
        <ele>2182.2</ele>
        <time>2021-08-03T09:13:02Z</time>
      </trkpt>
      <trkpt lat="45.52132" lon="6.76105">
        <ele>2182.2</ele>
        <time>2021-08-03T09:13:03Z</time>
      </trkpt>
      <trkpt lat="45.52132" lon="6.76105">
        <ele>2182.2</ele>
        <time>2021-08-03T09:13:04Z</time>
      </trkpt>
      <trkpt lat="45.52132" lon="6.76105">
        <ele>2182.2</ele>
        <time>2021-08-03T09:13:05Z</time>
      </trkpt>
      <trkpt lat="45.52132" lon="6.76105">
        <ele>2182.2</ele>
        <time>2021-08-03T09:13:06Z</time>
      </trkpt>
      <trkpt lat="45.52132" lon="6.76105">
        <ele>2182.2</ele>
        <time>2021-08-03T09:13:07Z</time>
      </trkpt>
      <trkpt lat="45.52132" lon="6.76105">
        <ele>2182.2</ele>
        <time>2021-08-03T09:13:08Z</time>
      </trkpt>
      <trkpt lat="45.52132" lon="6.76105">
        <ele>2182.2</ele>
        <time>2021-08-03T09:13:09Z</time>
      </trkpt>
      <trkpt lat="45.52132" lon="6.76105">
        <ele>2182.2</ele>
        <time>2021-08-03T09:13:10Z</time>
      </trkpt>
      <trkpt lat="45.52132" lon="6.76105">
        <ele>2182.2</ele>
        <time>2021-08-03T09:13:11Z</time>
      </trkpt>
      <trkpt lat="45.52132" lon="6.76105">
        <ele>2182.2</ele>
        <time>2021-08-03T09:13:12Z</time>
      </trkpt>
      <trkpt lat="45.52132" lon="6.76105">
        <ele>2182.2</ele>
        <time>2021-08-03T09:13:13Z</time>
      </trkpt>
      <trkpt lat="45.52132" lon="6.76105">
        <ele>2182.2</ele>
        <time>2021-08-03T09:13:14Z</time>
      </trkpt>
      <trkpt lat="45.52132" lon="6.76105">
        <ele>2182.2</ele>
        <time>2021-08-03T09:13:15Z</time>
      </trkpt>
      <trkpt lat="45.52132" lon="6.76105">
        <ele>2182.2</ele>
        <time>2021-08-03T09:13:16Z</time>
      </trkpt>
      <trkpt lat="45.52132" lon="6.76105">
        <ele>2182.2</ele>
        <time>2021-08-03T09:13:17Z</time>
      </trkpt>
      <trkpt lat="45.52132" lon="6.76105">
        <ele>2182.2</ele>
        <time>2021-08-03T09:13:18Z</time>
      </trkpt>
      <trkpt lat="45.52132" lon="6.76105">
        <ele>2182.2</ele>
        <time>2021-08-03T09:13:19Z</time>
      </trkpt>
      <trkpt lat="45.52132" lon="6.76105">
        <ele>2182.2</ele>
        <time>2021-08-03T09:13:20Z</time>
      </trkpt>
      <trkpt lat="45.52132" lon="6.76105">
        <ele>2182.2</ele>
        <time>2021-08-03T09:13:21Z</time>
      </trkpt>
      <trkpt lat="45.52132" lon="6.76105">
        <ele>2182.2</ele>
        <time>2021-08-03T09:13:22Z</time>
      </trkpt>
      <trkpt lat="45.52132" lon="6.76105">
        <ele>2182.2</ele>
        <time>2021-08-03T09:13:23Z</time>
      </trkpt>
      <trkpt lat="45.52132" lon="6.76105">
        <ele>2182.2</ele>
        <time>2021-08-03T09:13:24Z</time>
      </trkpt>
      <trkpt lat="45.52132" lon="6.76105">
        <ele>2182.2</ele>
        <time>2021-08-03T09:13:25Z</time>
      </trkpt>
      <trkpt lat="45.52132" lon="6.76106">
        <ele>2182.2</ele>
        <time>2021-08-03T09:13:26Z</time>
      </trkpt>
      <trkpt lat="45.52132" lon="6.76106">
        <ele>2182.2</ele>
        <time>2021-08-03T09:13:27Z</time>
      </trkpt>
      <trkpt lat="45.52132" lon="6.76106">
        <ele>2182.2</ele>
        <time>2021-08-03T09:13:28Z</time>
      </trkpt>
      <trkpt lat="45.52132" lon="6.76106">
        <ele>2182.2</ele>
        <time>2021-08-03T09:13:29Z</time>
      </trkpt>
      <trkpt lat="45.52132" lon="6.76106">
        <ele>2182.2</ele>
        <time>2021-08-03T09:13:30Z</time>
      </trkpt>
      <trkpt lat="45.52132" lon="6.76106">
        <ele>2182.2</ele>
        <time>2021-08-03T09:13:31Z</time>
      </trkpt>
      <trkpt lat="45.52132" lon="6.76106">
        <ele>2182.2</ele>
        <time>2021-08-03T09:13:32Z</time>
      </trkpt>
      <trkpt lat="45.52132" lon="6.76106">
        <ele>2182.2</ele>
        <time>2021-08-03T09:13:33Z</time>
      </trkpt>
      <trkpt lat="45.52132" lon="6.76106">
        <ele>2182.2</ele>
        <time>2021-08-03T09:13:34Z</time>
      </trkpt>
      <trkpt lat="45.52132" lon="6.76106">
        <ele>2182.2</ele>
        <time>2021-08-03T09:13:35Z</time>
      </trkpt>
      <trkpt lat="45.52132" lon="6.76106">
        <ele>2182.2</ele>
        <time>2021-08-03T09:13:36Z</time>
      </trkpt>
      <trkpt lat="45.52132" lon="6.76106">
        <ele>2182.2</ele>
        <time>2021-08-03T09:13:37Z</time>
      </trkpt>
      <trkpt lat="45.52132" lon="6.76106">
        <ele>2182.2</ele>
        <time>2021-08-03T09:13:38Z</time>
      </trkpt>
      <trkpt lat="45.52132" lon="6.76106">
        <ele>2182.2</ele>
        <time>2021-08-03T09:13:39Z</time>
      </trkpt>
      <trkpt lat="45.52132" lon="6.76106">
        <ele>2182.2</ele>
        <time>2021-08-03T09:13:40Z</time>
      </trkpt>
      <trkpt lat="45.52132" lon="6.76106">
        <ele>2182.2</ele>
        <time>2021-08-03T09:13:41Z</time>
      </trkpt>
      <trkpt lat="45.52132" lon="6.76106">
        <ele>2182.2</ele>
        <time>2021-08-03T09:13:42Z</time>
      </trkpt>
      <trkpt lat="45.52132" lon="6.76106">
        <ele>2182.2</ele>
        <time>2021-08-03T09:13:43Z</time>
      </trkpt>
      <trkpt lat="45.52132" lon="6.76106">
        <ele>2182.2</ele>
        <time>2021-08-03T09:13:44Z</time>
      </trkpt>
      <trkpt lat="45.52132" lon="6.76106">
        <ele>2182.2</ele>
        <time>2021-08-03T09:13:45Z</time>
      </trkpt>
      <trkpt lat="45.52132" lon="6.76106">
        <ele>2182.2</ele>
        <time>2021-08-03T09:13:46Z</time>
      </trkpt>
      <trkpt lat="45.52132" lon="6.76106">
        <ele>2182.2</ele>
        <time>2021-08-03T09:13:47Z</time>
      </trkpt>
      <trkpt lat="45.52132" lon="6.76106">
        <ele>2182.2</ele>
        <time>2021-08-03T09:13:48Z</time>
      </trkpt>
      <trkpt lat="45.52132" lon="6.76106">
        <ele>2182.2</ele>
        <time>2021-08-03T09:13:49Z</time>
      </trkpt>
      <trkpt lat="45.52132" lon="6.76106">
        <ele>2182.2</ele>
        <time>2021-08-03T09:13:50Z</time>
      </trkpt>
      <trkpt lat="45.52132" lon="6.76106">
        <ele>2182.2</ele>
        <time>2021-08-03T09:13:51Z</time>
      </trkpt>
      <trkpt lat="45.52132" lon="6.76106">
        <ele>2182.2</ele>
        <time>2021-08-03T09:13:52Z</time>
      </trkpt>
      <trkpt lat="45.52132" lon="6.76106">
        <ele>2182.2</ele>
        <time>2021-08-03T09:13:53Z</time>
      </trkpt>
      <trkpt lat="45.52132" lon="6.76106">
        <ele>2182.2</ele>
        <time>2021-08-03T09:13:54Z</time>
      </trkpt>
      <trkpt lat="45.52132" lon="6.76106">
        <ele>2182.2</ele>
        <time>2021-08-03T09:13:55Z</time>
      </trkpt>
      <trkpt lat="45.52132" lon="6.76106">
        <ele>2182.2</ele>
        <time>2021-08-03T09:13:56Z</time>
      </trkpt>
      <trkpt lat="45.52132" lon="6.76106">
        <ele>2182.2</ele>
        <time>2021-08-03T09:13:57Z</time>
      </trkpt>
      <trkpt lat="45.52132" lon="6.76106">
        <ele>2182.2</ele>
        <time>2021-08-03T09:13:58Z</time>
      </trkpt>
      <trkpt lat="45.52132" lon="6.76106">
        <ele>2182.2</ele>
        <time>2021-08-03T09:13:59Z</time>
      </trkpt>
      <trkpt lat="45.52132" lon="6.76106">
        <ele>2182.2</ele>
        <time>2021-08-03T09:14:00Z</time>
      </trkpt>
      <trkpt lat="45.52132" lon="6.76106">
        <ele>2182.2</ele>
        <time>2021-08-03T09:14:01Z</time>
      </trkpt>
      <trkpt lat="45.52132" lon="6.76106">
        <ele>2182.2</ele>
        <time>2021-08-03T09:14:02Z</time>
      </trkpt>
      <trkpt lat="45.52132" lon="6.76106">
        <ele>2182.2</ele>
        <time>2021-08-03T09:14:03Z</time>
      </trkpt>
      <trkpt lat="45.52132" lon="6.76106">
        <ele>2182.2</ele>
        <time>2021-08-03T09:14:04Z</time>
      </trkpt>
      <trkpt lat="45.52132" lon="6.76106">
        <ele>2182.2</ele>
        <time>2021-08-03T09:14:05Z</time>
      </trkpt>
      <trkpt lat="45.52132" lon="6.76106">
        <ele>2182.2</ele>
        <time>2021-08-03T09:14:06Z</time>
      </trkpt>
      <trkpt lat="45.52132" lon="6.76106">
        <ele>2182.2</ele>
        <time>2021-08-03T09:14:07Z</time>
      </trkpt>
      <trkpt lat="45.52132" lon="6.76106">
        <ele>2182.2</ele>
        <time>2021-08-03T09:14:08Z</time>
      </trkpt>
      <trkpt lat="45.52132" lon="6.76106">
        <ele>2182.2</ele>
        <time>2021-08-03T09:14:09Z</time>
      </trkpt>
      <trkpt lat="45.52132" lon="6.76106">
        <ele>2182.2</ele>
        <time>2021-08-03T09:14:10Z</time>
      </trkpt>
      <trkpt lat="45.52132" lon="6.76106">
        <ele>2182.2</ele>
        <time>2021-08-03T09:14:11Z</time>
      </trkpt>
      <trkpt lat="45.52132" lon="6.76106">
        <ele>2182.2</ele>
        <time>2021-08-03T09:14:12Z</time>
      </trkpt>
      <trkpt lat="45.52132" lon="6.76106">
        <ele>2182.2</ele>
        <time>2021-08-03T09:14:13Z</time>
      </trkpt>
      <trkpt lat="45.52132" lon="6.76106">
        <ele>2182.2</ele>
        <time>2021-08-03T09:14:14Z</time>
      </trkpt>
      <trkpt lat="45.52132" lon="6.76106">
        <ele>2182.2</ele>
        <time>2021-08-03T09:14:15Z</time>
      </trkpt>
      <trkpt lat="45.52132" lon="6.76106">
        <ele>2182.2</ele>
        <time>2021-08-03T09:14:16Z</time>
      </trkpt>
      <trkpt lat="45.52132" lon="6.76106">
        <ele>2182.2</ele>
        <time>2021-08-03T09:14:17Z</time>
      </trkpt>
      <trkpt lat="45.52132" lon="6.76106">
        <ele>2182.2</ele>
        <time>2021-08-03T09:14:18Z</time>
      </trkpt>
      <trkpt lat="45.52132" lon="6.76106">
        <ele>2182.2</ele>
        <time>2021-08-03T09:14:19Z</time>
      </trkpt>
      <trkpt lat="45.52132" lon="6.76106">
        <ele>2182.2</ele>
        <time>2021-08-03T09:14:20Z</time>
      </trkpt>
      <trkpt lat="45.52132" lon="6.76106">
        <ele>2182.2</ele>
        <time>2021-08-03T09:14:21Z</time>
      </trkpt>
      <trkpt lat="45.52132" lon="6.76106">
        <ele>2182.2</ele>
        <time>2021-08-03T09:14:22Z</time>
      </trkpt>
      <trkpt lat="45.52132" lon="6.76106">
        <ele>2182.2</ele>
        <time>2021-08-03T09:14:23Z</time>
      </trkpt>
      <trkpt lat="45.52132" lon="6.76106">
        <ele>2182.2</ele>
        <time>2021-08-03T09:14:24Z</time>
      </trkpt>
      <trkpt lat="45.52132" lon="6.76106">
        <ele>2182.2</ele>
        <time>2021-08-03T09:14:25Z</time>
      </trkpt>
      <trkpt lat="45.52132" lon="6.76106">
        <ele>2182.2</ele>
        <time>2021-08-03T09:14:26Z</time>
      </trkpt>
      <trkpt lat="45.52132" lon="6.76106">
        <ele>2182.2</ele>
        <time>2021-08-03T09:14:27Z</time>
      </trkpt>
      <trkpt lat="45.52132" lon="6.76106">
        <ele>2182.2</ele>
        <time>2021-08-03T09:14:28Z</time>
      </trkpt>
      <trkpt lat="45.52132" lon="6.76106">
        <ele>2182.2</ele>
        <time>2021-08-03T09:14:29Z</time>
      </trkpt>
      <trkpt lat="45.52132" lon="6.76106">
        <ele>2182.2</ele>
        <time>2021-08-03T09:14:30Z</time>
      </trkpt>
      <trkpt lat="45.52132" lon="6.76106">
        <ele>2182.2</ele>
        <time>2021-08-03T09:14:31Z</time>
      </trkpt>
      <trkpt lat="45.52132" lon="6.76106">
        <ele>2182.2</ele>
        <time>2021-08-03T09:14:32Z</time>
      </trkpt>
      <trkpt lat="45.52132" lon="6.76106">
        <ele>2182.2</ele>
        <time>2021-08-03T09:14:33Z</time>
      </trkpt>
      <trkpt lat="45.52132" lon="6.76106">
        <ele>2182.2</ele>
        <time>2021-08-03T09:14:34Z</time>
      </trkpt>
      <trkpt lat="45.52132" lon="6.76106">
        <ele>2182.2</ele>
        <time>2021-08-03T09:14:35Z</time>
      </trkpt>
      <trkpt lat="45.52132" lon="6.76106">
        <ele>2182.2</ele>
        <time>2021-08-03T09:14:36Z</time>
      </trkpt>
      <trkpt lat="45.52132" lon="6.76106">
        <ele>2182.2</ele>
        <time>2021-08-03T09:14:37Z</time>
      </trkpt>
      <trkpt lat="45.52132" lon="6.76106">
        <ele>2182.2</ele>
        <time>2021-08-03T09:14:38Z</time>
      </trkpt>
      <trkpt lat="45.52132" lon="6.76106">
        <ele>2182.2</ele>
        <time>2021-08-03T09:14:39Z</time>
      </trkpt>
      <trkpt lat="45.52132" lon="6.76106">
        <ele>2182.2</ele>
        <time>2021-08-03T09:14:40Z</time>
      </trkpt>
      <trkpt lat="45.52132" lon="6.76106">
        <ele>2182.2</ele>
        <time>2021-08-03T09:14:41Z</time>
      </trkpt>
      <trkpt lat="45.52132" lon="6.76106">
        <ele>2182.2</ele>
        <time>2021-08-03T09:14:42Z</time>
      </trkpt>
      <trkpt lat="45.52132" lon="6.76106">
        <ele>2182.2</ele>
        <time>2021-08-03T09:14:43Z</time>
      </trkpt>
      <trkpt lat="45.52132" lon="6.76106">
        <ele>2182.2</ele>
        <time>2021-08-03T09:14:44Z</time>
      </trkpt>
      <trkpt lat="45.52132" lon="6.76106">
        <ele>2182.2</ele>
        <time>2021-08-03T09:14:45Z</time>
      </trkpt>
      <trkpt lat="45.52132" lon="6.76106">
        <ele>2182.2</ele>
        <time>2021-08-03T09:14:46Z</time>
      </trkpt>
      <trkpt lat="45.52132" lon="6.76106">
        <ele>2182.2</ele>
        <time>2021-08-03T09:14:47Z</time>
      </trkpt>
      <trkpt lat="45.52132" lon="6.76106">
        <ele>2182.2</ele>
        <time>2021-08-03T09:14:48Z</time>
      </trkpt>
      <trkpt lat="45.52132" lon="6.76106">
        <ele>2182.2</ele>
        <time>2021-08-03T09:14:49Z</time>
      </trkpt>
      <trkpt lat="45.52132" lon="6.76106">
        <ele>2182.2</ele>
        <time>2021-08-03T09:14:50Z</time>
      </trkpt>
      <trkpt lat="45.52132" lon="6.76106">
        <ele>2182.2</ele>
        <time>2021-08-03T09:14:51Z</time>
      </trkpt>
      <trkpt lat="45.52132" lon="6.76106">
        <ele>2182.2</ele>
        <time>2021-08-03T09:14:52Z</time>
      </trkpt>
      <trkpt lat="45.52132" lon="6.76106">
        <ele>2182.2</ele>
        <time>2021-08-03T09:14:53Z</time>
      </trkpt>
      <trkpt lat="45.52132" lon="6.76106">
        <ele>2182.2</ele>
        <time>2021-08-03T09:14:54Z</time>
      </trkpt>
      <trkpt lat="45.52132" lon="6.76106">
        <ele>2182.2</ele>
        <time>2021-08-03T09:14:55Z</time>
      </trkpt>
      <trkpt lat="45.52132" lon="6.76106">
        <ele>2182.2</ele>
        <time>2021-08-03T09:14:56Z</time>
      </trkpt>
      <trkpt lat="45.52132" lon="6.76106">
        <ele>2182.2</ele>
        <time>2021-08-03T09:14:57Z</time>
      </trkpt>
      <trkpt lat="45.52132" lon="6.76106">
        <ele>2182.2</ele>
        <time>2021-08-03T09:14:58Z</time>
      </trkpt>
      <trkpt lat="45.52132" lon="6.76106">
        <ele>2182.2</ele>
        <time>2021-08-03T09:14:59Z</time>
      </trkpt>
      <trkpt lat="45.52132" lon="6.76106">
        <ele>2182.2</ele>
        <time>2021-08-03T09:15:00Z</time>
      </trkpt>
      <trkpt lat="45.52132" lon="6.76106">
        <ele>2182.2</ele>
        <time>2021-08-03T09:15:01Z</time>
      </trkpt>
      <trkpt lat="45.52132" lon="6.76106">
        <ele>2182.2</ele>
        <time>2021-08-03T09:15:02Z</time>
      </trkpt>
      <trkpt lat="45.52132" lon="6.76106">
        <ele>2182.2</ele>
        <time>2021-08-03T09:15:03Z</time>
      </trkpt>
      <trkpt lat="45.52132" lon="6.76106">
        <ele>2182.2</ele>
        <time>2021-08-03T09:15:04Z</time>
      </trkpt>
      <trkpt lat="45.52132" lon="6.76106">
        <ele>2182.2</ele>
        <time>2021-08-03T09:15:05Z</time>
      </trkpt>
      <trkpt lat="45.52132" lon="6.76106">
        <ele>2182.2</ele>
        <time>2021-08-03T09:15:06Z</time>
      </trkpt>
      <trkpt lat="45.52132" lon="6.76106">
        <ele>2182.2</ele>
        <time>2021-08-03T09:15:07Z</time>
      </trkpt>
      <trkpt lat="45.52132" lon="6.76106">
        <ele>2182.2</ele>
        <time>2021-08-03T09:15:08Z</time>
      </trkpt>
      <trkpt lat="45.52132" lon="6.76106">
        <ele>2182.2</ele>
        <time>2021-08-03T09:15:09Z</time>
      </trkpt>
      <trkpt lat="45.52132" lon="6.76106">
        <ele>2182.2</ele>
        <time>2021-08-03T09:15:10Z</time>
      </trkpt>
      <trkpt lat="45.52132" lon="6.76106">
        <ele>2182.2</ele>
        <time>2021-08-03T09:15:11Z</time>
      </trkpt>
      <trkpt lat="45.52132" lon="6.76106">
        <ele>2182.2</ele>
        <time>2021-08-03T09:15:12Z</time>
      </trkpt>
      <trkpt lat="45.52132" lon="6.76106">
        <ele>2182.2</ele>
        <time>2021-08-03T09:15:13Z</time>
      </trkpt>
      <trkpt lat="45.52132" lon="6.76106">
        <ele>2182.2</ele>
        <time>2021-08-03T09:15:14Z</time>
      </trkpt>
      <trkpt lat="45.52132" lon="6.76106">
        <ele>2182.2</ele>
        <time>2021-08-03T09:15:15Z</time>
      </trkpt>
      <trkpt lat="45.52132" lon="6.76106">
        <ele>2182.2</ele>
        <time>2021-08-03T09:15:16Z</time>
      </trkpt>
      <trkpt lat="45.52132" lon="6.76106">
        <ele>2182.2</ele>
        <time>2021-08-03T09:15:17Z</time>
      </trkpt>
      <trkpt lat="45.52132" lon="6.76106">
        <ele>2182.2</ele>
        <time>2021-08-03T09:15:18Z</time>
      </trkpt>
      <trkpt lat="45.52132" lon="6.76106">
        <ele>2182.2</ele>
        <time>2021-08-03T09:15:19Z</time>
      </trkpt>
      <trkpt lat="45.52132" lon="6.76106">
        <ele>2182.2</ele>
        <time>2021-08-03T09:15:20Z</time>
      </trkpt>
      <trkpt lat="45.52132" lon="6.76106">
        <ele>2182.2</ele>
        <time>2021-08-03T09:15:21Z</time>
      </trkpt>
      <trkpt lat="45.52132" lon="6.76106">
        <ele>2182.2</ele>
        <time>2021-08-03T09:15:22Z</time>
      </trkpt>
      <trkpt lat="45.52132" lon="6.76106">
        <ele>2182.2</ele>
        <time>2021-08-03T09:15:23Z</time>
      </trkpt>
      <trkpt lat="45.52132" lon="6.76106">
        <ele>2182.2</ele>
        <time>2021-08-03T09:15:24Z</time>
      </trkpt>
      <trkpt lat="45.52132" lon="6.76106">
        <ele>2182.2</ele>
        <time>2021-08-03T09:15:25Z</time>
      </trkpt>
      <trkpt lat="45.52132" lon="6.76106">
        <ele>2182.2</ele>
        <time>2021-08-03T09:15:26Z</time>
      </trkpt>
      <trkpt lat="45.52132" lon="6.76106">
        <ele>2182.2</ele>
        <time>2021-08-03T09:15:27Z</time>
      </trkpt>
      <trkpt lat="45.52132" lon="6.76106">
        <ele>2182.2</ele>
        <time>2021-08-03T09:15:28Z</time>
      </trkpt>
      <trkpt lat="45.52132" lon="6.76106">
        <ele>2182.2</ele>
        <time>2021-08-03T09:15:29Z</time>
      </trkpt>
      <trkpt lat="45.52132" lon="6.76106">
        <ele>2182.2</ele>
        <time>2021-08-03T09:15:30Z</time>
      </trkpt>
      <trkpt lat="45.52132" lon="6.76106">
        <ele>2182.2</ele>
        <time>2021-08-03T09:15:31Z</time>
      </trkpt>
      <trkpt lat="45.52132" lon="6.76106">
        <ele>2182.2</ele>
        <time>2021-08-03T09:15:32Z</time>
      </trkpt>
      <trkpt lat="45.52132" lon="6.76106">
        <ele>2182.2</ele>
        <time>2021-08-03T09:15:33Z</time>
      </trkpt>
      <trkpt lat="45.52132" lon="6.76106">
        <ele>2182.2</ele>
        <time>2021-08-03T09:15:34Z</time>
      </trkpt>
      <trkpt lat="45.52132" lon="6.76106">
        <ele>2182.2</ele>
        <time>2021-08-03T09:15:35Z</time>
      </trkpt>
      <trkpt lat="45.52132" lon="6.76106">
        <ele>2182.2</ele>
        <time>2021-08-03T09:15:36Z</time>
      </trkpt>
      <trkpt lat="45.52132" lon="6.76106">
        <ele>2182.2</ele>
        <time>2021-08-03T09:15:37Z</time>
      </trkpt>
      <trkpt lat="45.52132" lon="6.76106">
        <ele>2182.2</ele>
        <time>2021-08-03T09:15:38Z</time>
      </trkpt>
      <trkpt lat="45.52132" lon="6.76106">
        <ele>2182.2</ele>
        <time>2021-08-03T09:15:39Z</time>
      </trkpt>
      <trkpt lat="45.52132" lon="6.76106">
        <ele>2182.2</ele>
        <time>2021-08-03T09:15:40Z</time>
      </trkpt>
      <trkpt lat="45.52132" lon="6.76106">
        <ele>2182.2</ele>
        <time>2021-08-03T09:15:41Z</time>
      </trkpt>
      <trkpt lat="45.52132" lon="6.76106">
        <ele>2182.2</ele>
        <time>2021-08-03T09:15:42Z</time>
      </trkpt>
      <trkpt lat="45.52132" lon="6.76106">
        <ele>2182.2</ele>
        <time>2021-08-03T09:15:43Z</time>
      </trkpt>
      <trkpt lat="45.52132" lon="6.76106">
        <ele>2182.2</ele>
        <time>2021-08-03T09:15:44Z</time>
      </trkpt>
      <trkpt lat="45.52132" lon="6.76106">
        <ele>2182.2</ele>
        <time>2021-08-03T09:15:45Z</time>
      </trkpt>
      <trkpt lat="45.52132" lon="6.76106">
        <ele>2182.2</ele>
        <time>2021-08-03T09:15:46Z</time>
      </trkpt>
      <trkpt lat="45.52132" lon="6.76106">
        <ele>2182.2</ele>
        <time>2021-08-03T09:15:47Z</time>
      </trkpt>
      <trkpt lat="45.52132" lon="6.76106">
        <ele>2182.2</ele>
        <time>2021-08-03T09:15:48Z</time>
      </trkpt>
      <trkpt lat="45.52132" lon="6.76106">
        <ele>2182.2</ele>
        <time>2021-08-03T09:15:49Z</time>
      </trkpt>
      <trkpt lat="45.52132" lon="6.76106">
        <ele>2182.2</ele>
        <time>2021-08-03T09:15:50Z</time>
      </trkpt>
      <trkpt lat="45.52132" lon="6.76106">
        <ele>2182.2</ele>
        <time>2021-08-03T09:15:51Z</time>
      </trkpt>
      <trkpt lat="45.52132" lon="6.76106">
        <ele>2182.2</ele>
        <time>2021-08-03T09:15:52Z</time>
      </trkpt>
      <trkpt lat="45.52132" lon="6.76106">
        <ele>2182.2</ele>
        <time>2021-08-03T09:15:53Z</time>
      </trkpt>
      <trkpt lat="45.52132" lon="6.76106">
        <ele>2182.2</ele>
        <time>2021-08-03T09:15:54Z</time>
      </trkpt>
      <trkpt lat="45.52132" lon="6.76106">
        <ele>2182.2</ele>
        <time>2021-08-03T09:15:55Z</time>
      </trkpt>
      <trkpt lat="45.52132" lon="6.76106">
        <ele>2182.2</ele>
        <time>2021-08-03T09:15:56Z</time>
      </trkpt>
      <trkpt lat="45.52132" lon="6.76106">
        <ele>2182.2</ele>
        <time>2021-08-03T09:15:57Z</time>
      </trkpt>
      <trkpt lat="45.52132" lon="6.76106">
        <ele>2182.2</ele>
        <time>2021-08-03T09:15:58Z</time>
      </trkpt>
      <trkpt lat="45.52132" lon="6.76106">
        <ele>2182.2</ele>
        <time>2021-08-03T09:15:59Z</time>
      </trkpt>
      <trkpt lat="45.52132" lon="6.76106">
        <ele>2182.2</ele>
        <time>2021-08-03T09:16:00Z</time>
      </trkpt>
      <trkpt lat="45.52132" lon="6.76106">
        <ele>2182.2</ele>
        <time>2021-08-03T09:16:01Z</time>
      </trkpt>
      <trkpt lat="45.52132" lon="6.76106">
        <ele>2182.2</ele>
        <time>2021-08-03T09:16:02Z</time>
      </trkpt>
      <trkpt lat="45.52132" lon="6.76106">
        <ele>2182.2</ele>
        <time>2021-08-03T09:16:03Z</time>
      </trkpt>
      <trkpt lat="45.52132" lon="6.76106">
        <ele>2182.2</ele>
        <time>2021-08-03T09:16:04Z</time>
      </trkpt>
      <trkpt lat="45.52132" lon="6.76106">
        <ele>2182.2</ele>
        <time>2021-08-03T09:16:05Z</time>
      </trkpt>
      <trkpt lat="45.52132" lon="6.76106">
        <ele>2182.2</ele>
        <time>2021-08-03T09:16:06Z</time>
      </trkpt>
      <trkpt lat="45.52132" lon="6.76106">
        <ele>2182.2</ele>
        <time>2021-08-03T09:16:07Z</time>
      </trkpt>
      <trkpt lat="45.52132" lon="6.76106">
        <ele>2182.2</ele>
        <time>2021-08-03T09:16:08Z</time>
      </trkpt>
      <trkpt lat="45.52132" lon="6.76106">
        <ele>2182.2</ele>
        <time>2021-08-03T09:16:09Z</time>
      </trkpt>
      <trkpt lat="45.52132" lon="6.76106">
        <ele>2182.2</ele>
        <time>2021-08-03T09:16:10Z</time>
      </trkpt>
      <trkpt lat="45.52132" lon="6.76106">
        <ele>2182.2</ele>
        <time>2021-08-03T09:16:11Z</time>
      </trkpt>
      <trkpt lat="45.52132" lon="6.76105">
        <ele>2182.2</ele>
        <time>2021-08-03T09:16:12Z</time>
      </trkpt>
      <trkpt lat="45.52132" lon="6.76105">
        <ele>2182.2</ele>
        <time>2021-08-03T09:16:13Z</time>
      </trkpt>
      <trkpt lat="45.52132" lon="6.76105">
        <ele>2182.2</ele>
        <time>2021-08-03T09:16:14Z</time>
      </trkpt>
      <trkpt lat="45.52132" lon="6.76105">
        <ele>2182.2</ele>
        <time>2021-08-03T09:16:15Z</time>
      </trkpt>
      <trkpt lat="45.52132" lon="6.76105">
        <ele>2182.2</ele>
        <time>2021-08-03T09:16:16Z</time>
      </trkpt>
      <trkpt lat="45.52132" lon="6.76105">
        <ele>2182.2</ele>
        <time>2021-08-03T09:16:17Z</time>
      </trkpt>
      <trkpt lat="45.52132" lon="6.76105">
        <ele>2182.2</ele>
        <time>2021-08-03T09:16:18Z</time>
      </trkpt>
      <trkpt lat="45.52132" lon="6.76105">
        <ele>2182.2</ele>
        <time>2021-08-03T09:16:19Z</time>
      </trkpt>
      <trkpt lat="45.52132" lon="6.76105">
        <ele>2182.2</ele>
        <time>2021-08-03T09:16:20Z</time>
      </trkpt>
      <trkpt lat="45.52132" lon="6.76105">
        <ele>2182.2</ele>
        <time>2021-08-03T09:16:21Z</time>
      </trkpt>
      <trkpt lat="45.52132" lon="6.76105">
        <ele>2182.2</ele>
        <time>2021-08-03T09:16:22Z</time>
      </trkpt>
      <trkpt lat="45.52132" lon="6.76105">
        <ele>2182.2</ele>
        <time>2021-08-03T09:16:23Z</time>
      </trkpt>
      <trkpt lat="45.52132" lon="6.76105">
        <ele>2182.2</ele>
        <time>2021-08-03T09:16:24Z</time>
      </trkpt>
      <trkpt lat="45.52132" lon="6.76105">
        <ele>2182.2</ele>
        <time>2021-08-03T09:16:25Z</time>
      </trkpt>
      <trkpt lat="45.52132" lon="6.76105">
        <ele>2182.2</ele>
        <time>2021-08-03T09:16:26Z</time>
      </trkpt>
      <trkpt lat="45.52132" lon="6.76105">
        <ele>2182.2</ele>
        <time>2021-08-03T09:16:27Z</time>
      </trkpt>
      <trkpt lat="45.52132" lon="6.76105">
        <ele>2182.2</ele>
        <time>2021-08-03T09:16:28Z</time>
      </trkpt>
      <trkpt lat="45.52132" lon="6.76105">
        <ele>2182.2</ele>
        <time>2021-08-03T09:16:29Z</time>
      </trkpt>
      <trkpt lat="45.52132" lon="6.76105">
        <ele>2182.2</ele>
        <time>2021-08-03T09:16:30Z</time>
      </trkpt>
      <trkpt lat="45.52132" lon="6.76105">
        <ele>2182.2</ele>
        <time>2021-08-03T09:16:31Z</time>
      </trkpt>
      <trkpt lat="45.52132" lon="6.76105">
        <ele>2182.2</ele>
        <time>2021-08-03T09:16:32Z</time>
      </trkpt>
      <trkpt lat="45.52132" lon="6.76105">
        <ele>2182.2</ele>
        <time>2021-08-03T09:16:33Z</time>
      </trkpt>
      <trkpt lat="45.52132" lon="6.76105">
        <ele>2182.2</ele>
        <time>2021-08-03T09:16:34Z</time>
      </trkpt>
      <trkpt lat="45.52132" lon="6.76105">
        <ele>2182.2</ele>
        <time>2021-08-03T09:16:35Z</time>
      </trkpt>
      <trkpt lat="45.52132" lon="6.76105">
        <ele>2182.2</ele>
        <time>2021-08-03T09:16:36Z</time>
      </trkpt>
      <trkpt lat="45.52132" lon="6.76105">
        <ele>2182.2</ele>
        <time>2021-08-03T09:16:37Z</time>
      </trkpt>
      <trkpt lat="45.52132" lon="6.76105">
        <ele>2182.2</ele>
        <time>2021-08-03T09:16:38Z</time>
      </trkpt>
      <trkpt lat="45.52132" lon="6.76105">
        <ele>2182.2</ele>
        <time>2021-08-03T09:16:39Z</time>
      </trkpt>
      <trkpt lat="45.52132" lon="6.76105">
        <ele>2182.2</ele>
        <time>2021-08-03T09:16:40Z</time>
      </trkpt>
      <trkpt lat="45.52132" lon="6.76105">
        <ele>2182.2</ele>
        <time>2021-08-03T09:16:41Z</time>
      </trkpt>
      <trkpt lat="45.52132" lon="6.76105">
        <ele>2182.2</ele>
        <time>2021-08-03T09:16:42Z</time>
      </trkpt>
      <trkpt lat="45.52132" lon="6.76105">
        <ele>2182.2</ele>
        <time>2021-08-03T09:16:43Z</time>
      </trkpt>
      <trkpt lat="45.52132" lon="6.76105">
        <ele>2182.2</ele>
        <time>2021-08-03T09:16:44Z</time>
      </trkpt>
      <trkpt lat="45.52132" lon="6.76105">
        <ele>2182.2</ele>
        <time>2021-08-03T09:16:45Z</time>
      </trkpt>
      <trkpt lat="45.52132" lon="6.76105">
        <ele>2182.2</ele>
        <time>2021-08-03T09:16:46Z</time>
      </trkpt>
      <trkpt lat="45.52132" lon="6.76105">
        <ele>2182.2</ele>
        <time>2021-08-03T09:16:47Z</time>
      </trkpt>
      <trkpt lat="45.52132" lon="6.76105">
        <ele>2182.2</ele>
        <time>2021-08-03T09:16:48Z</time>
      </trkpt>
      <trkpt lat="45.52132" lon="6.76105">
        <ele>2182.2</ele>
        <time>2021-08-03T09:16:49Z</time>
      </trkpt>
      <trkpt lat="45.52132" lon="6.76105">
        <ele>2182.2</ele>
        <time>2021-08-03T09:16:50Z</time>
      </trkpt>
      <trkpt lat="45.52132" lon="6.76105">
        <ele>2182.2</ele>
        <time>2021-08-03T09:16:51Z</time>
      </trkpt>
      <trkpt lat="45.52132" lon="6.76105">
        <ele>2182.2</ele>
        <time>2021-08-03T09:16:52Z</time>
      </trkpt>
      <trkpt lat="45.52132" lon="6.76105">
        <ele>2182.2</ele>
        <time>2021-08-03T09:16:53Z</time>
      </trkpt>
      <trkpt lat="45.52132" lon="6.76105">
        <ele>2182.2</ele>
        <time>2021-08-03T09:16:54Z</time>
      </trkpt>
      <trkpt lat="45.52132" lon="6.76105">
        <ele>2182.2</ele>
        <time>2021-08-03T09:16:55Z</time>
      </trkpt>
      <trkpt lat="45.52132" lon="6.76105">
        <ele>2182.2</ele>
        <time>2021-08-03T09:16:56Z</time>
      </trkpt>
      <trkpt lat="45.52132" lon="6.76105">
        <ele>2182.2</ele>
        <time>2021-08-03T09:16:57Z</time>
      </trkpt>
      <trkpt lat="45.52132" lon="6.76105">
        <ele>2182.2</ele>
        <time>2021-08-03T09:16:58Z</time>
      </trkpt>
      <trkpt lat="45.52132" lon="6.76105">
        <ele>2182.2</ele>
        <time>2021-08-03T09:16:59Z</time>
      </trkpt>
      <trkpt lat="45.52132" lon="6.76105">
        <ele>2182.2</ele>
        <time>2021-08-03T09:17:00Z</time>
      </trkpt>
      <trkpt lat="45.52132" lon="6.76105">
        <ele>2182.2</ele>
        <time>2021-08-03T09:17:01Z</time>
      </trkpt>
      <trkpt lat="45.52132" lon="6.76105">
        <ele>2182.2</ele>
        <time>2021-08-03T09:17:02Z</time>
      </trkpt>
      <trkpt lat="45.52132" lon="6.76105">
        <ele>2182.2</ele>
        <time>2021-08-03T09:17:03Z</time>
      </trkpt>
      <trkpt lat="45.52132" lon="6.76105">
        <ele>2182.2</ele>
        <time>2021-08-03T09:17:04Z</time>
      </trkpt>
      <trkpt lat="45.52132" lon="6.76105">
        <ele>2182.2</ele>
        <time>2021-08-03T09:17:05Z</time>
      </trkpt>
      <trkpt lat="45.52132" lon="6.76105">
        <ele>2182.2</ele>
        <time>2021-08-03T09:17:06Z</time>
      </trkpt>
      <trkpt lat="45.52132" lon="6.76105">
        <ele>2182.2</ele>
        <time>2021-08-03T09:17:07Z</time>
      </trkpt>
      <trkpt lat="45.52132" lon="6.76105">
        <ele>2182.2</ele>
        <time>2021-08-03T09:17:08Z</time>
      </trkpt>
      <trkpt lat="45.52132" lon="6.76105">
        <ele>2182.2</ele>
        <time>2021-08-03T09:17:09Z</time>
      </trkpt>
      <trkpt lat="45.52132" lon="6.76105">
        <ele>2182.2</ele>
        <time>2021-08-03T09:17:10Z</time>
      </trkpt>
      <trkpt lat="45.52132" lon="6.76105">
        <ele>2182.2</ele>
        <time>2021-08-03T09:17:11Z</time>
      </trkpt>
      <trkpt lat="45.52132" lon="6.76105">
        <ele>2182.2</ele>
        <time>2021-08-03T09:17:12Z</time>
      </trkpt>
      <trkpt lat="45.52132" lon="6.76105">
        <ele>2182.2</ele>
        <time>2021-08-03T09:17:13Z</time>
      </trkpt>
      <trkpt lat="45.52132" lon="6.76105">
        <ele>2182.2</ele>
        <time>2021-08-03T09:17:14Z</time>
      </trkpt>
      <trkpt lat="45.52132" lon="6.76105">
        <ele>2182.2</ele>
        <time>2021-08-03T09:17:15Z</time>
      </trkpt>
      <trkpt lat="45.52132" lon="6.76105">
        <ele>2182.2</ele>
        <time>2021-08-03T09:17:16Z</time>
      </trkpt>
      <trkpt lat="45.52132" lon="6.76105">
        <ele>2182.2</ele>
        <time>2021-08-03T09:17:17Z</time>
      </trkpt>
      <trkpt lat="45.52132" lon="6.76105">
        <ele>2182.2</ele>
        <time>2021-08-03T09:17:18Z</time>
      </trkpt>
      <trkpt lat="45.52132" lon="6.76105">
        <ele>2182.2</ele>
        <time>2021-08-03T09:17:19Z</time>
      </trkpt>
      <trkpt lat="45.52132" lon="6.76105">
        <ele>2182.2</ele>
        <time>2021-08-03T09:17:20Z</time>
      </trkpt>
      <trkpt lat="45.52132" lon="6.76105">
        <ele>2182.2</ele>
        <time>2021-08-03T09:17:21Z</time>
      </trkpt>
      <trkpt lat="45.52132" lon="6.76105">
        <ele>2182.2</ele>
        <time>2021-08-03T09:17:22Z</time>
      </trkpt>
      <trkpt lat="45.52132" lon="6.76105">
        <ele>2182.2</ele>
        <time>2021-08-03T09:17:23Z</time>
      </trkpt>
      <trkpt lat="45.52132" lon="6.76105">
        <ele>2182.2</ele>
        <time>2021-08-03T09:17:24Z</time>
      </trkpt>
      <trkpt lat="45.52132" lon="6.76105">
        <ele>2182.2</ele>
        <time>2021-08-03T09:17:25Z</time>
      </trkpt>
      <trkpt lat="45.52132" lon="6.76105">
        <ele>2182.2</ele>
        <time>2021-08-03T09:17:26Z</time>
      </trkpt>
      <trkpt lat="45.52132" lon="6.76105">
        <ele>2182.2</ele>
        <time>2021-08-03T09:17:27Z</time>
      </trkpt>
      <trkpt lat="45.52132" lon="6.76105">
        <ele>2182.2</ele>
        <time>2021-08-03T09:17:28Z</time>
      </trkpt>
      <trkpt lat="45.52132" lon="6.76105">
        <ele>2182.2</ele>
        <time>2021-08-03T09:17:29Z</time>
      </trkpt>
      <trkpt lat="45.52132" lon="6.76105">
        <ele>2182.2</ele>
        <time>2021-08-03T09:17:30Z</time>
      </trkpt>
      <trkpt lat="45.52132" lon="6.76105">
        <ele>2182.2</ele>
        <time>2021-08-03T09:17:31Z</time>
      </trkpt>
      <trkpt lat="45.52132" lon="6.76105">
        <ele>2182.2</ele>
        <time>2021-08-03T09:17:32Z</time>
      </trkpt>
      <trkpt lat="45.52132" lon="6.76105">
        <ele>2182.2</ele>
        <time>2021-08-03T09:17:33Z</time>
      </trkpt>
      <trkpt lat="45.52132" lon="6.76105">
        <ele>2182.2</ele>
        <time>2021-08-03T09:17:34Z</time>
      </trkpt>
      <trkpt lat="45.52132" lon="6.76105">
        <ele>2182.2</ele>
        <time>2021-08-03T09:17:35Z</time>
      </trkpt>
      <trkpt lat="45.52132" lon="6.76105">
        <ele>2182.2</ele>
        <time>2021-08-03T09:17:36Z</time>
      </trkpt>
      <trkpt lat="45.52132" lon="6.76105">
        <ele>2182.2</ele>
        <time>2021-08-03T09:17:37Z</time>
      </trkpt>
      <trkpt lat="45.52132" lon="6.76105">
        <ele>2182.2</ele>
        <time>2021-08-03T09:17:38Z</time>
      </trkpt>
      <trkpt lat="45.52132" lon="6.76105">
        <ele>2182.2</ele>
        <time>2021-08-03T09:17:39Z</time>
      </trkpt>
      <trkpt lat="45.52132" lon="6.76105">
        <ele>2182.2</ele>
        <time>2021-08-03T09:17:40Z</time>
      </trkpt>
      <trkpt lat="45.52132" lon="6.76105">
        <ele>2182.2</ele>
        <time>2021-08-03T09:17:41Z</time>
      </trkpt>
      <trkpt lat="45.52132" lon="6.76105">
        <ele>2182.2</ele>
        <time>2021-08-03T09:17:42Z</time>
      </trkpt>
      <trkpt lat="45.52132" lon="6.76105">
        <ele>2182.2</ele>
        <time>2021-08-03T09:17:43Z</time>
      </trkpt>
      <trkpt lat="45.52132" lon="6.76105">
        <ele>2182.2</ele>
        <time>2021-08-03T09:17:44Z</time>
      </trkpt>
      <trkpt lat="45.52132" lon="6.76105">
        <ele>2182.2</ele>
        <time>2021-08-03T09:17:45Z</time>
      </trkpt>
      <trkpt lat="45.52132" lon="6.76105">
        <ele>2182.2</ele>
        <time>2021-08-03T09:17:46Z</time>
      </trkpt>
      <trkpt lat="45.52132" lon="6.76105">
        <ele>2182.2</ele>
        <time>2021-08-03T09:17:47Z</time>
      </trkpt>
      <trkpt lat="45.52132" lon="6.76105">
        <ele>2182.2</ele>
        <time>2021-08-03T09:17:48Z</time>
      </trkpt>
      <trkpt lat="45.52132" lon="6.76105">
        <ele>2182.2</ele>
        <time>2021-08-03T09:17:49Z</time>
      </trkpt>
      <trkpt lat="45.52132" lon="6.76105">
        <ele>2182.2</ele>
        <time>2021-08-03T09:17:50Z</time>
      </trkpt>
      <trkpt lat="45.52132" lon="6.76105">
        <ele>2182.2</ele>
        <time>2021-08-03T09:17:51Z</time>
      </trkpt>
      <trkpt lat="45.52132" lon="6.76105">
        <ele>2182.2</ele>
        <time>2021-08-03T09:17:52Z</time>
      </trkpt>
      <trkpt lat="45.52132" lon="6.76105">
        <ele>2182.2</ele>
        <time>2021-08-03T09:17:53Z</time>
      </trkpt>
      <trkpt lat="45.52132" lon="6.76105">
        <ele>2182.2</ele>
        <time>2021-08-03T09:17:54Z</time>
      </trkpt>
      <trkpt lat="45.52132" lon="6.76105">
        <ele>2182.2</ele>
        <time>2021-08-03T09:17:55Z</time>
      </trkpt>
      <trkpt lat="45.52132" lon="6.76105">
        <ele>2182.2</ele>
        <time>2021-08-03T09:17:56Z</time>
      </trkpt>
      <trkpt lat="45.52132" lon="6.76105">
        <ele>2182.2</ele>
        <time>2021-08-03T09:17:57Z</time>
      </trkpt>
      <trkpt lat="45.52132" lon="6.76105">
        <ele>2182.2</ele>
        <time>2021-08-03T09:17:58Z</time>
      </trkpt>
      <trkpt lat="45.52132" lon="6.76105">
        <ele>2182.2</ele>
        <time>2021-08-03T09:17:59Z</time>
      </trkpt>
      <trkpt lat="45.52132" lon="6.76105">
        <ele>2182.2</ele>
        <time>2021-08-03T09:18:00Z</time>
      </trkpt>
      <trkpt lat="45.52132" lon="6.76106">
        <ele>2182.2</ele>
        <time>2021-08-03T09:18:01Z</time>
      </trkpt>
      <trkpt lat="45.52132" lon="6.76106">
        <ele>2182.2</ele>
        <time>2021-08-03T09:18:02Z</time>
      </trkpt>
      <trkpt lat="45.52132" lon="6.76106">
        <ele>2182.2</ele>
        <time>2021-08-03T09:18:03Z</time>
      </trkpt>
      <trkpt lat="45.52132" lon="6.76106">
        <ele>2182.2</ele>
        <time>2021-08-03T09:18:04Z</time>
      </trkpt>
      <trkpt lat="45.52132" lon="6.76106">
        <ele>2182.2</ele>
        <time>2021-08-03T09:18:05Z</time>
      </trkpt>
      <trkpt lat="45.52132" lon="6.76106">
        <ele>2182.2</ele>
        <time>2021-08-03T09:18:06Z</time>
      </trkpt>
      <trkpt lat="45.52132" lon="6.76106">
        <ele>2182.2</ele>
        <time>2021-08-03T09:18:07Z</time>
      </trkpt>
      <trkpt lat="45.52132" lon="6.76106">
        <ele>2182.2</ele>
        <time>2021-08-03T09:18:08Z</time>
      </trkpt>
      <trkpt lat="45.52132" lon="6.76106">
        <ele>2182.2</ele>
        <time>2021-08-03T09:18:09Z</time>
      </trkpt>
      <trkpt lat="45.52132" lon="6.76106">
        <ele>2182.2</ele>
        <time>2021-08-03T09:18:10Z</time>
      </trkpt>
      <trkpt lat="45.52132" lon="6.76106">
        <ele>2182.2</ele>
        <time>2021-08-03T09:18:11Z</time>
      </trkpt>
      <trkpt lat="45.52132" lon="6.76106">
        <ele>2182.2</ele>
        <time>2021-08-03T09:18:12Z</time>
      </trkpt>
      <trkpt lat="45.52132" lon="6.76106">
        <ele>2182.2</ele>
        <time>2021-08-03T09:18:13Z</time>
      </trkpt>
      <trkpt lat="45.52132" lon="6.76106">
        <ele>2182.2</ele>
        <time>2021-08-03T09:18:14Z</time>
      </trkpt>
      <trkpt lat="45.52132" lon="6.76106">
        <ele>2182.2</ele>
        <time>2021-08-03T09:18:15Z</time>
      </trkpt>
      <trkpt lat="45.52132" lon="6.76106">
        <ele>2182.2</ele>
        <time>2021-08-03T09:18:16Z</time>
      </trkpt>
      <trkpt lat="45.52132" lon="6.76106">
        <ele>2182.2</ele>
        <time>2021-08-03T09:18:17Z</time>
      </trkpt>
      <trkpt lat="45.52132" lon="6.76106">
        <ele>2182.2</ele>
        <time>2021-08-03T09:18:18Z</time>
      </trkpt>
      <trkpt lat="45.52132" lon="6.76106">
        <ele>2182.2</ele>
        <time>2021-08-03T09:18:19Z</time>
      </trkpt>
      <trkpt lat="45.52132" lon="6.76106">
        <ele>2182.2</ele>
        <time>2021-08-03T09:18:20Z</time>
      </trkpt>
      <trkpt lat="45.52132" lon="6.76106">
        <ele>2182.2</ele>
        <time>2021-08-03T09:18:21Z</time>
      </trkpt>
      <trkpt lat="45.52132" lon="6.76106">
        <ele>2182.2</ele>
        <time>2021-08-03T09:18:22Z</time>
      </trkpt>
      <trkpt lat="45.52132" lon="6.76106">
        <ele>2182.2</ele>
        <time>2021-08-03T09:18:23Z</time>
      </trkpt>
      <trkpt lat="45.52132" lon="6.76106">
        <ele>2182.2</ele>
        <time>2021-08-03T09:18:24Z</time>
      </trkpt>
      <trkpt lat="45.52132" lon="6.76106">
        <ele>2182.2</ele>
        <time>2021-08-03T09:18:25Z</time>
      </trkpt>
      <trkpt lat="45.52132" lon="6.76106">
        <ele>2182.2</ele>
        <time>2021-08-03T09:18:26Z</time>
      </trkpt>
      <trkpt lat="45.52132" lon="6.76106">
        <ele>2182.2</ele>
        <time>2021-08-03T09:18:27Z</time>
      </trkpt>
      <trkpt lat="45.52132" lon="6.76106">
        <ele>2182.2</ele>
        <time>2021-08-03T09:18:28Z</time>
      </trkpt>
      <trkpt lat="45.52132" lon="6.76106">
        <ele>2182.2</ele>
        <time>2021-08-03T09:18:29Z</time>
      </trkpt>
      <trkpt lat="45.52132" lon="6.76106">
        <ele>2182.2</ele>
        <time>2021-08-03T09:18:30Z</time>
      </trkpt>
      <trkpt lat="45.52132" lon="6.76106">
        <ele>2182.2</ele>
        <time>2021-08-03T09:18:31Z</time>
      </trkpt>
      <trkpt lat="45.52132" lon="6.76106">
        <ele>2182.2</ele>
        <time>2021-08-03T09:18:32Z</time>
      </trkpt>
      <trkpt lat="45.52132" lon="6.76106">
        <ele>2182.2</ele>
        <time>2021-08-03T09:18:33Z</time>
      </trkpt>
      <trkpt lat="45.52132" lon="6.76106">
        <ele>2182.2</ele>
        <time>2021-08-03T09:18:34Z</time>
      </trkpt>
      <trkpt lat="45.52132" lon="6.76106">
        <ele>2182.2</ele>
        <time>2021-08-03T09:18:35Z</time>
      </trkpt>
      <trkpt lat="45.52132" lon="6.76106">
        <ele>2182.2</ele>
        <time>2021-08-03T09:18:36Z</time>
      </trkpt>
      <trkpt lat="45.52132" lon="6.76106">
        <ele>2182.2</ele>
        <time>2021-08-03T09:18:37Z</time>
      </trkpt>
      <trkpt lat="45.52132" lon="6.76106">
        <ele>2182.2</ele>
        <time>2021-08-03T09:18:38Z</time>
      </trkpt>
      <trkpt lat="45.52132" lon="6.76106">
        <ele>2182.2</ele>
        <time>2021-08-03T09:18:39Z</time>
      </trkpt>
      <trkpt lat="45.52132" lon="6.76106">
        <ele>2182.2</ele>
        <time>2021-08-03T09:18:40Z</time>
      </trkpt>
      <trkpt lat="45.52132" lon="6.76106">
        <ele>2182.2</ele>
        <time>2021-08-03T09:18:41Z</time>
      </trkpt>
      <trkpt lat="45.52132" lon="6.76106">
        <ele>2182.2</ele>
        <time>2021-08-03T09:18:42Z</time>
      </trkpt>
      <trkpt lat="45.52132" lon="6.76106">
        <ele>2182.2</ele>
        <time>2021-08-03T09:18:43Z</time>
      </trkpt>
      <trkpt lat="45.52132" lon="6.76106">
        <ele>2182.2</ele>
        <time>2021-08-03T09:18:44Z</time>
      </trkpt>
      <trkpt lat="45.52132" lon="6.76106">
        <ele>2182.2</ele>
        <time>2021-08-03T09:18:45Z</time>
      </trkpt>
      <trkpt lat="45.52132" lon="6.76106">
        <ele>2182.2</ele>
        <time>2021-08-03T09:18:46Z</time>
      </trkpt>
      <trkpt lat="45.52132" lon="6.76106">
        <ele>2182.2</ele>
        <time>2021-08-03T09:18:47Z</time>
      </trkpt>
      <trkpt lat="45.52132" lon="6.76106">
        <ele>2182.2</ele>
        <time>2021-08-03T09:18:48Z</time>
      </trkpt>
      <trkpt lat="45.52132" lon="6.76106">
        <ele>2182.2</ele>
        <time>2021-08-03T09:18:49Z</time>
      </trkpt>
      <trkpt lat="45.52132" lon="6.76106">
        <ele>2182.2</ele>
        <time>2021-08-03T09:18:50Z</time>
      </trkpt>
      <trkpt lat="45.52132" lon="6.76106">
        <ele>2182.2</ele>
        <time>2021-08-03T09:18:51Z</time>
      </trkpt>
      <trkpt lat="45.52132" lon="6.76106">
        <ele>2182.2</ele>
        <time>2021-08-03T09:18:52Z</time>
      </trkpt>
      <trkpt lat="45.52132" lon="6.76106">
        <ele>2182.2</ele>
        <time>2021-08-03T09:18:53Z</time>
      </trkpt>
      <trkpt lat="45.52132" lon="6.76106">
        <ele>2182.2</ele>
        <time>2021-08-03T09:18:54Z</time>
      </trkpt>
      <trkpt lat="45.52132" lon="6.76106">
        <ele>2182.2</ele>
        <time>2021-08-03T09:18:55Z</time>
      </trkpt>
      <trkpt lat="45.52132" lon="6.76106">
        <ele>2182.2</ele>
        <time>2021-08-03T09:18:56Z</time>
      </trkpt>
      <trkpt lat="45.52132" lon="6.76106">
        <ele>2182.2</ele>
        <time>2021-08-03T09:18:57Z</time>
      </trkpt>
      <trkpt lat="45.52132" lon="6.76106">
        <ele>2182.2</ele>
        <time>2021-08-03T09:18:58Z</time>
      </trkpt>
      <trkpt lat="45.52132" lon="6.76106">
        <ele>2182.2</ele>
        <time>2021-08-03T09:18:59Z</time>
      </trkpt>
      <trkpt lat="45.52132" lon="6.76106">
        <ele>2182.2</ele>
        <time>2021-08-03T09:19:00Z</time>
      </trkpt>
      <trkpt lat="45.52132" lon="6.76106">
        <ele>2182.2</ele>
        <time>2021-08-03T09:19:01Z</time>
      </trkpt>
      <trkpt lat="45.52132" lon="6.76106">
        <ele>2182.2</ele>
        <time>2021-08-03T09:19:02Z</time>
      </trkpt>
      <trkpt lat="45.52132" lon="6.76106">
        <ele>2182.2</ele>
        <time>2021-08-03T09:19:03Z</time>
      </trkpt>
      <trkpt lat="45.52132" lon="6.76106">
        <ele>2182.2</ele>
        <time>2021-08-03T09:19:04Z</time>
      </trkpt>
      <trkpt lat="45.52132" lon="6.76106">
        <ele>2182.2</ele>
        <time>2021-08-03T09:19:05Z</time>
      </trkpt>
      <trkpt lat="45.52132" lon="6.76106">
        <ele>2182.2</ele>
        <time>2021-08-03T09:19:06Z</time>
      </trkpt>
      <trkpt lat="45.52132" lon="6.76105">
        <ele>2182.2</ele>
        <time>2021-08-03T09:19:07Z</time>
      </trkpt>
      <trkpt lat="45.52132" lon="6.76105">
        <ele>2182.2</ele>
        <time>2021-08-03T09:19:08Z</time>
      </trkpt>
      <trkpt lat="45.52132" lon="6.76105">
        <ele>2182.2</ele>
        <time>2021-08-03T09:19:09Z</time>
      </trkpt>
      <trkpt lat="45.52132" lon="6.76105">
        <ele>2182.1</ele>
        <time>2021-08-03T09:19:10Z</time>
      </trkpt>
      <trkpt lat="45.52132" lon="6.76105">
        <ele>2182.1</ele>
        <time>2021-08-03T09:19:11Z</time>
      </trkpt>
      <trkpt lat="45.52132" lon="6.76104">
        <ele>2182</ele>
        <time>2021-08-03T09:19:12Z</time>
      </trkpt>
      <trkpt lat="45.52132" lon="6.76104">
        <ele>2181.9</ele>
        <time>2021-08-03T09:19:13Z</time>
      </trkpt>
      <trkpt lat="45.52132" lon="6.76103">
        <ele>2181.9</ele>
        <time>2021-08-03T09:19:14Z</time>
      </trkpt>
      <trkpt lat="45.52132" lon="6.76102">
        <ele>2181.8</ele>
        <time>2021-08-03T09:19:15Z</time>
      </trkpt>
      <trkpt lat="45.52133" lon="6.76102">
        <ele>2181.7</ele>
        <time>2021-08-03T09:19:16Z</time>
      </trkpt>
      <trkpt lat="45.52133" lon="6.76102">
        <ele>2181.6</ele>
        <time>2021-08-03T09:19:17Z</time>
      </trkpt>
      <trkpt lat="45.52134" lon="6.76101">
        <ele>2181.5</ele>
        <time>2021-08-03T09:19:18Z</time>
      </trkpt>
      <trkpt lat="45.52135" lon="6.76101">
        <ele>2181.3</ele>
        <time>2021-08-03T09:19:19Z</time>
      </trkpt>
      <trkpt lat="45.52136" lon="6.761">
        <ele>2181.1</ele>
        <time>2021-08-03T09:19:20Z</time>
      </trkpt>
      <trkpt lat="45.52136" lon="6.761">
        <ele>2181</ele>
        <time>2021-08-03T09:19:21Z</time>
      </trkpt>
      <trkpt lat="45.52137" lon="6.76099">
        <ele>2180.8</ele>
        <time>2021-08-03T09:19:22Z</time>
      </trkpt>
      <trkpt lat="45.52138" lon="6.76098">
        <ele>2180.6</ele>
        <time>2021-08-03T09:19:23Z</time>
      </trkpt>
      <trkpt lat="45.52139" lon="6.76098">
        <ele>2180.4</ele>
        <time>2021-08-03T09:19:24Z</time>
      </trkpt>
      <trkpt lat="45.5214" lon="6.76097">
        <ele>2180.3</ele>
        <time>2021-08-03T09:19:25Z</time>
      </trkpt>
      <trkpt lat="45.52141" lon="6.76097">
        <ele>2180.1</ele>
        <time>2021-08-03T09:19:26Z</time>
      </trkpt>
      <trkpt lat="45.52142" lon="6.76096">
        <ele>2180</ele>
        <time>2021-08-03T09:19:27Z</time>
      </trkpt>
      <trkpt lat="45.52142" lon="6.76096">
        <ele>2179.8</ele>
        <time>2021-08-03T09:19:28Z</time>
      </trkpt>
      <trkpt lat="45.52143" lon="6.76096">
        <ele>2179.7</ele>
        <time>2021-08-03T09:19:29Z</time>
      </trkpt>
      <trkpt lat="45.52144" lon="6.76097">
        <ele>2179.5</ele>
        <time>2021-08-03T09:19:30Z</time>
      </trkpt>
      <trkpt lat="45.52145" lon="6.76098">
        <ele>2179.3</ele>
        <time>2021-08-03T09:19:31Z</time>
      </trkpt>
      <trkpt lat="45.52146" lon="6.76098">
        <ele>2179.1</ele>
        <time>2021-08-03T09:19:32Z</time>
      </trkpt>
      <trkpt lat="45.52147" lon="6.76099">
        <ele>2178.9</ele>
        <time>2021-08-03T09:19:33Z</time>
      </trkpt>
      <trkpt lat="45.52147" lon="6.76101">
        <ele>2178.7</ele>
        <time>2021-08-03T09:19:34Z</time>
      </trkpt>
      <trkpt lat="45.52148" lon="6.76102">
        <ele>2178.5</ele>
        <time>2021-08-03T09:19:35Z</time>
      </trkpt>
      <trkpt lat="45.52149" lon="6.76103">
        <ele>2178.3</ele>
        <time>2021-08-03T09:19:36Z</time>
      </trkpt>
      <trkpt lat="45.5215" lon="6.76104">
        <ele>2178.1</ele>
        <time>2021-08-03T09:19:37Z</time>
      </trkpt>
      <trkpt lat="45.52151" lon="6.76105">
        <ele>2177.9</ele>
        <time>2021-08-03T09:19:38Z</time>
      </trkpt>
      <trkpt lat="45.52152" lon="6.76106">
        <ele>2177.7</ele>
        <time>2021-08-03T09:19:39Z</time>
      </trkpt>
      <trkpt lat="45.52153" lon="6.76106">
        <ele>2177.5</ele>
        <time>2021-08-03T09:19:40Z</time>
      </trkpt>
      <trkpt lat="45.52154" lon="6.76107">
        <ele>2177.4</ele>
        <time>2021-08-03T09:19:41Z</time>
      </trkpt>
      <trkpt lat="45.52155" lon="6.76108">
        <ele>2177.2</ele>
        <time>2021-08-03T09:19:42Z</time>
      </trkpt>
      <trkpt lat="45.52155" lon="6.76108">
        <ele>2177.1</ele>
        <time>2021-08-03T09:19:43Z</time>
      </trkpt>
      <trkpt lat="45.52156" lon="6.76109">
        <ele>2177</ele>
        <time>2021-08-03T09:19:44Z</time>
      </trkpt>
      <trkpt lat="45.52156" lon="6.76109">
        <ele>2176.9</ele>
        <time>2021-08-03T09:19:45Z</time>
      </trkpt>
      <trkpt lat="45.52157" lon="6.76109">
        <ele>2176.8</ele>
        <time>2021-08-03T09:19:46Z</time>
      </trkpt>
      <trkpt lat="45.52157" lon="6.76109">
        <ele>2176.7</ele>
        <time>2021-08-03T09:19:47Z</time>
      </trkpt>
      <trkpt lat="45.52157" lon="6.76109">
        <ele>2176.7</ele>
        <time>2021-08-03T09:19:48Z</time>
      </trkpt>
      <trkpt lat="45.52157" lon="6.76109">
        <ele>2176.7</ele>
        <time>2021-08-03T09:19:49Z</time>
      </trkpt>
      <trkpt lat="45.52157" lon="6.76109">
        <ele>2176.7</ele>
        <time>2021-08-03T09:19:50Z</time>
      </trkpt>
      <trkpt lat="45.52157" lon="6.76109">
        <ele>2176.7</ele>
        <time>2021-08-03T09:19:51Z</time>
      </trkpt>
      <trkpt lat="45.52157" lon="6.76109">
        <ele>2176.7</ele>
        <time>2021-08-03T09:19:52Z</time>
      </trkpt>
      <trkpt lat="45.52157" lon="6.76109">
        <ele>2176.7</ele>
        <time>2021-08-03T09:19:53Z</time>
      </trkpt>
      <trkpt lat="45.52157" lon="6.76109">
        <ele>2176.7</ele>
        <time>2021-08-03T09:19:54Z</time>
      </trkpt>
      <trkpt lat="45.52157" lon="6.76109">
        <ele>2176.7</ele>
        <time>2021-08-03T09:19:55Z</time>
      </trkpt>
      <trkpt lat="45.52157" lon="6.76109">
        <ele>2176.7</ele>
        <time>2021-08-03T09:19:56Z</time>
      </trkpt>
      <trkpt lat="45.52157" lon="6.76109">
        <ele>2176.7</ele>
        <time>2021-08-03T09:19:57Z</time>
      </trkpt>
      <trkpt lat="45.52157" lon="6.76109">
        <ele>2176.7</ele>
        <time>2021-08-03T09:19:58Z</time>
      </trkpt>
      <trkpt lat="45.52157" lon="6.76109">
        <ele>2176.7</ele>
        <time>2021-08-03T09:19:59Z</time>
      </trkpt>
      <trkpt lat="45.52157" lon="6.76109">
        <ele>2176.7</ele>
        <time>2021-08-03T09:20:00Z</time>
      </trkpt>
      <trkpt lat="45.52157" lon="6.76109">
        <ele>2176.7</ele>
        <time>2021-08-03T09:20:01Z</time>
      </trkpt>
      <trkpt lat="45.52157" lon="6.76109">
        <ele>2176.7</ele>
        <time>2021-08-03T09:20:02Z</time>
      </trkpt>
      <trkpt lat="45.52157" lon="6.76109">
        <ele>2176.7</ele>
        <time>2021-08-03T09:20:03Z</time>
      </trkpt>
      <trkpt lat="45.52157" lon="6.76109">
        <ele>2176.7</ele>
        <time>2021-08-03T09:20:04Z</time>
      </trkpt>
      <trkpt lat="45.52157" lon="6.76109">
        <ele>2176.6</ele>
        <time>2021-08-03T09:20:05Z</time>
      </trkpt>
      <trkpt lat="45.52157" lon="6.76109">
        <ele>2176.6</ele>
        <time>2021-08-03T09:20:06Z</time>
      </trkpt>
      <trkpt lat="45.52157" lon="6.76109">
        <ele>2176.6</ele>
        <time>2021-08-03T09:20:07Z</time>
      </trkpt>
      <trkpt lat="45.52157" lon="6.7611">
        <ele>2176.6</ele>
        <time>2021-08-03T09:20:08Z</time>
      </trkpt>
      <trkpt lat="45.52158" lon="6.7611">
        <ele>2176.6</ele>
        <time>2021-08-03T09:20:09Z</time>
      </trkpt>
      <trkpt lat="45.52158" lon="6.7611">
        <ele>2176.6</ele>
        <time>2021-08-03T09:20:10Z</time>
      </trkpt>
      <trkpt lat="45.52158" lon="6.7611">
        <ele>2176.5</ele>
        <time>2021-08-03T09:20:11Z</time>
      </trkpt>
      <trkpt lat="45.52158" lon="6.7611">
        <ele>2176.5</ele>
        <time>2021-08-03T09:20:12Z</time>
      </trkpt>
      <trkpt lat="45.52159" lon="6.7611">
        <ele>2176.4</ele>
        <time>2021-08-03T09:20:13Z</time>
      </trkpt>
      <trkpt lat="45.52159" lon="6.76111">
        <ele>2176.3</ele>
        <time>2021-08-03T09:20:14Z</time>
      </trkpt>
      <trkpt lat="45.5216" lon="6.76111">
        <ele>2176.2</ele>
        <time>2021-08-03T09:20:15Z</time>
      </trkpt>
      <trkpt lat="45.5216" lon="6.76112">
        <ele>2176</ele>
        <time>2021-08-03T09:20:16Z</time>
      </trkpt>
      <trkpt lat="45.52161" lon="6.76112">
        <ele>2175.9</ele>
        <time>2021-08-03T09:20:17Z</time>
      </trkpt>
      <trkpt lat="45.52162" lon="6.76113">
        <ele>2175.7</ele>
        <time>2021-08-03T09:20:18Z</time>
      </trkpt>
      <trkpt lat="45.52163" lon="6.76114">
        <ele>2175.5</ele>
        <time>2021-08-03T09:20:19Z</time>
      </trkpt>
      <trkpt lat="45.52164" lon="6.76115">
        <ele>2175.3</ele>
        <time>2021-08-03T09:20:20Z</time>
      </trkpt>
      <trkpt lat="45.52164" lon="6.76117">
        <ele>2175.1</ele>
        <time>2021-08-03T09:20:21Z</time>
      </trkpt>
      <trkpt lat="45.52165" lon="6.76118">
        <ele>2174.9</ele>
        <time>2021-08-03T09:20:22Z</time>
      </trkpt>
      <trkpt lat="45.52166" lon="6.76119">
        <ele>2174.7</ele>
        <time>2021-08-03T09:20:23Z</time>
      </trkpt>
      <trkpt lat="45.52166" lon="6.76121">
        <ele>2174.5</ele>
        <time>2021-08-03T09:20:24Z</time>
      </trkpt>
      <trkpt lat="45.52166" lon="6.76122">
        <ele>2174.3</ele>
        <time>2021-08-03T09:20:25Z</time>
      </trkpt>
      <trkpt lat="45.52167" lon="6.76124">
        <ele>2174.1</ele>
        <time>2021-08-03T09:20:26Z</time>
      </trkpt>
      <trkpt lat="45.52167" lon="6.76125">
        <ele>2173.9</ele>
        <time>2021-08-03T09:20:27Z</time>
      </trkpt>
      <trkpt lat="45.52167" lon="6.76127">
        <ele>2173.7</ele>
        <time>2021-08-03T09:20:28Z</time>
      </trkpt>
      <trkpt lat="45.52167" lon="6.76128">
        <ele>2173.6</ele>
        <time>2021-08-03T09:20:29Z</time>
      </trkpt>
      <trkpt lat="45.52167" lon="6.76129">
        <ele>2173.4</ele>
        <time>2021-08-03T09:20:30Z</time>
      </trkpt>
      <trkpt lat="45.52167" lon="6.7613">
        <ele>2173.3</ele>
        <time>2021-08-03T09:20:31Z</time>
      </trkpt>
      <trkpt lat="45.52167" lon="6.76131">
        <ele>2173.2</ele>
        <time>2021-08-03T09:20:32Z</time>
      </trkpt>
      <trkpt lat="45.52167" lon="6.76131">
        <ele>2173.2</ele>
        <time>2021-08-03T09:20:33Z</time>
      </trkpt>
      <trkpt lat="45.52167" lon="6.76131">
        <ele>2173.1</ele>
        <time>2021-08-03T09:20:34Z</time>
      </trkpt>
      <trkpt lat="45.52167" lon="6.76132">
        <ele>2173.1</ele>
        <time>2021-08-03T09:20:35Z</time>
      </trkpt>
      <trkpt lat="45.52167" lon="6.76132">
        <ele>2173.1</ele>
        <time>2021-08-03T09:20:36Z</time>
      </trkpt>
      <trkpt lat="45.52167" lon="6.76132">
        <ele>2173.1</ele>
        <time>2021-08-03T09:20:37Z</time>
      </trkpt>
      <trkpt lat="45.52167" lon="6.76132">
        <ele>2173.1</ele>
        <time>2021-08-03T09:20:38Z</time>
      </trkpt>
      <trkpt lat="45.52167" lon="6.76131">
        <ele>2173.1</ele>
        <time>2021-08-03T09:20:39Z</time>
      </trkpt>
      <trkpt lat="45.52167" lon="6.76131">
        <ele>2173.1</ele>
        <time>2021-08-03T09:20:40Z</time>
      </trkpt>
      <trkpt lat="45.52167" lon="6.76131">
        <ele>2173.1</ele>
        <time>2021-08-03T09:20:41Z</time>
      </trkpt>
      <trkpt lat="45.52167" lon="6.76131">
        <ele>2173.1</ele>
        <time>2021-08-03T09:20:42Z</time>
      </trkpt>
      <trkpt lat="45.52167" lon="6.76131">
        <ele>2173.1</ele>
        <time>2021-08-03T09:20:43Z</time>
      </trkpt>
      <trkpt lat="45.52167" lon="6.76131">
        <ele>2173.1</ele>
        <time>2021-08-03T09:20:44Z</time>
      </trkpt>
      <trkpt lat="45.52167" lon="6.76131">
        <ele>2173</ele>
        <time>2021-08-03T09:20:45Z</time>
      </trkpt>
      <trkpt lat="45.52167" lon="6.76132">
        <ele>2173</ele>
        <time>2021-08-03T09:20:46Z</time>
      </trkpt>
      <trkpt lat="45.52166" lon="6.76132">
        <ele>2173</ele>
        <time>2021-08-03T09:20:47Z</time>
      </trkpt>
      <trkpt lat="45.52166" lon="6.76132">
        <ele>2173</ele>
        <time>2021-08-03T09:20:48Z</time>
      </trkpt>
      <trkpt lat="45.52166" lon="6.76132">
        <ele>2172.9</ele>
        <time>2021-08-03T09:20:49Z</time>
      </trkpt>
      <trkpt lat="45.52166" lon="6.76133">
        <ele>2172.8</ele>
        <time>2021-08-03T09:20:50Z</time>
      </trkpt>
      <trkpt lat="45.52166" lon="6.76133">
        <ele>2172.7</ele>
        <time>2021-08-03T09:20:51Z</time>
      </trkpt>
      <trkpt lat="45.52165" lon="6.76134">
        <ele>2172.6</ele>
        <time>2021-08-03T09:20:52Z</time>
      </trkpt>
      <trkpt lat="45.52165" lon="6.76135">
        <ele>2172.5</ele>
        <time>2021-08-03T09:20:53Z</time>
      </trkpt>
      <trkpt lat="45.52164" lon="6.76135">
        <ele>2172.4</ele>
        <time>2021-08-03T09:20:54Z</time>
      </trkpt>
      <trkpt lat="45.52163" lon="6.76136">
        <ele>2172.2</ele>
        <time>2021-08-03T09:20:55Z</time>
      </trkpt>
      <trkpt lat="45.52162" lon="6.76138">
        <ele>2171.8</ele>
        <time>2021-08-03T09:20:56Z</time>
      </trkpt>
      <trkpt lat="45.52161" lon="6.76139">
        <ele>2171.7</ele>
        <time>2021-08-03T09:20:57Z</time>
      </trkpt>
      <trkpt lat="45.52161" lon="6.7614">
        <ele>2171.5</ele>
        <time>2021-08-03T09:20:58Z</time>
      </trkpt>
      <trkpt lat="45.52161" lon="6.76142">
        <ele>2171.4</ele>
        <time>2021-08-03T09:20:59Z</time>
      </trkpt>
      <trkpt lat="45.5216" lon="6.76143">
        <ele>2171.2</ele>
        <time>2021-08-03T09:21:00Z</time>
      </trkpt>
      <trkpt lat="45.5216" lon="6.76144">
        <ele>2171</ele>
        <time>2021-08-03T09:21:01Z</time>
      </trkpt>
      <trkpt lat="45.52159" lon="6.76145">
        <ele>2170.9</ele>
        <time>2021-08-03T09:21:02Z</time>
      </trkpt>
      <trkpt lat="45.52159" lon="6.76146">
        <ele>2170.7</ele>
        <time>2021-08-03T09:21:03Z</time>
      </trkpt>
      <trkpt lat="45.52159" lon="6.76147">
        <ele>2170.6</ele>
        <time>2021-08-03T09:21:04Z</time>
      </trkpt>
      <trkpt lat="45.52158" lon="6.76148">
        <ele>2170.4</ele>
        <time>2021-08-03T09:21:05Z</time>
      </trkpt>
      <trkpt lat="45.52158" lon="6.76149">
        <ele>2170.3</ele>
        <time>2021-08-03T09:21:06Z</time>
      </trkpt>
      <trkpt lat="45.52157" lon="6.7615">
        <ele>2165.6</ele>
        <time>2021-08-03T09:21:07Z</time>
      </trkpt>
      <trkpt lat="45.52157" lon="6.76151">
        <ele>2165.6</ele>
        <time>2021-08-03T09:21:08Z</time>
      </trkpt>
      <trkpt lat="45.52157" lon="6.76152">
        <ele>2165.6</ele>
        <time>2021-08-03T09:21:09Z</time>
      </trkpt>
      <trkpt lat="45.52156" lon="6.76154">
        <ele>2165.6</ele>
        <time>2021-08-03T09:21:10Z</time>
      </trkpt>
      <trkpt lat="45.52156" lon="6.76155">
        <ele>2165.6</ele>
        <time>2021-08-03T09:21:11Z</time>
      </trkpt>
      <trkpt lat="45.52156" lon="6.76156">
        <ele>2165.6</ele>
        <time>2021-08-03T09:21:12Z</time>
      </trkpt>
      <trkpt lat="45.52155" lon="6.76157">
        <ele>2165.6</ele>
        <time>2021-08-03T09:21:13Z</time>
      </trkpt>
      <trkpt lat="45.52155" lon="6.76158">
        <ele>2165.6</ele>
        <time>2021-08-03T09:21:14Z</time>
      </trkpt>
      <trkpt lat="45.52154" lon="6.76159">
        <ele>2165.6</ele>
        <time>2021-08-03T09:21:15Z</time>
      </trkpt>
      <trkpt lat="45.52154" lon="6.7616">
        <ele>2165.6</ele>
        <time>2021-08-03T09:21:16Z</time>
      </trkpt>
      <trkpt lat="45.52154" lon="6.76161">
        <ele>2165.6</ele>
        <time>2021-08-03T09:21:17Z</time>
      </trkpt>
      <trkpt lat="45.52153" lon="6.76162">
        <ele>2165.6</ele>
        <time>2021-08-03T09:21:18Z</time>
      </trkpt>
      <trkpt lat="45.52153" lon="6.76163">
        <ele>2162.9</ele>
        <time>2021-08-03T09:21:19Z</time>
      </trkpt>
      <trkpt lat="45.52152" lon="6.76165">
        <ele>2162.6</ele>
        <time>2021-08-03T09:21:20Z</time>
      </trkpt>
      <trkpt lat="45.52152" lon="6.76166">
        <ele>2162.3</ele>
        <time>2021-08-03T09:21:21Z</time>
      </trkpt>
      <trkpt lat="45.52152" lon="6.76167">
        <ele>2162</ele>
        <time>2021-08-03T09:21:22Z</time>
      </trkpt>
      <trkpt lat="45.52152" lon="6.76167">
        <ele>2161.9</ele>
        <time>2021-08-03T09:21:23Z</time>
      </trkpt>
      <trkpt lat="45.52152" lon="6.76168">
        <ele>2161.7</ele>
        <time>2021-08-03T09:21:24Z</time>
      </trkpt>
      <trkpt lat="45.52152" lon="6.76168">
        <ele>2161.6</ele>
        <time>2021-08-03T09:21:25Z</time>
      </trkpt>
      <trkpt lat="45.52152" lon="6.76168">
        <ele>2161.6</ele>
        <time>2021-08-03T09:21:26Z</time>
      </trkpt>
      <trkpt lat="45.52152" lon="6.76168">
        <ele>2161.6</ele>
        <time>2021-08-03T09:21:27Z</time>
      </trkpt>
      <trkpt lat="45.52152" lon="6.76168">
        <ele>2161.5</ele>
        <time>2021-08-03T09:21:28Z</time>
      </trkpt>
      <trkpt lat="45.52152" lon="6.76168">
        <ele>2161.5</ele>
        <time>2021-08-03T09:21:29Z</time>
      </trkpt>
      <trkpt lat="45.52152" lon="6.76168">
        <ele>2161.4</ele>
        <time>2021-08-03T09:21:30Z</time>
      </trkpt>
      <trkpt lat="45.52152" lon="6.76168">
        <ele>2161.4</ele>
        <time>2021-08-03T09:21:31Z</time>
      </trkpt>
      <trkpt lat="45.52152" lon="6.76168">
        <ele>2161.4</ele>
        <time>2021-08-03T09:21:32Z</time>
      </trkpt>
      <trkpt lat="45.52152" lon="6.76168">
        <ele>2161.3</ele>
        <time>2021-08-03T09:21:33Z</time>
      </trkpt>
      <trkpt lat="45.52152" lon="6.76168">
        <ele>2161.2</ele>
        <time>2021-08-03T09:21:34Z</time>
      </trkpt>
      <trkpt lat="45.52153" lon="6.76168">
        <ele>2161</ele>
        <time>2021-08-03T09:21:35Z</time>
      </trkpt>
      <trkpt lat="45.52153" lon="6.76168">
        <ele>2160.8</ele>
        <time>2021-08-03T09:21:36Z</time>
      </trkpt>
      <trkpt lat="45.52154" lon="6.76168">
        <ele>2160.6</ele>
        <time>2021-08-03T09:21:37Z</time>
      </trkpt>
      <trkpt lat="45.52154" lon="6.76168">
        <ele>2160.5</ele>
        <time>2021-08-03T09:21:38Z</time>
      </trkpt>
      <trkpt lat="45.52154" lon="6.76168">
        <ele>2160.4</ele>
        <time>2021-08-03T09:21:39Z</time>
      </trkpt>
      <trkpt lat="45.52154" lon="6.76168">
        <ele>2160.4</ele>
        <time>2021-08-03T09:21:40Z</time>
      </trkpt>
      <trkpt lat="45.52154" lon="6.76168">
        <ele>2160.4</ele>
        <time>2021-08-03T09:21:41Z</time>
      </trkpt>
      <trkpt lat="45.52154" lon="6.76169">
        <ele>2160.3</ele>
        <time>2021-08-03T09:21:42Z</time>
      </trkpt>
      <trkpt lat="45.52155" lon="6.76169">
        <ele>2160.1</ele>
        <time>2021-08-03T09:21:43Z</time>
      </trkpt>
      <trkpt lat="45.52155" lon="6.76169">
        <ele>2159.9</ele>
        <time>2021-08-03T09:21:44Z</time>
      </trkpt>
      <trkpt lat="45.52156" lon="6.76169">
        <ele>2159.5</ele>
        <time>2021-08-03T09:21:45Z</time>
      </trkpt>
      <trkpt lat="45.52157" lon="6.76169">
        <ele>2159.2</ele>
        <time>2021-08-03T09:21:46Z</time>
      </trkpt>
      <trkpt lat="45.52158" lon="6.7617">
        <ele>2158.8</ele>
        <time>2021-08-03T09:21:47Z</time>
      </trkpt>
      <trkpt lat="45.52159" lon="6.7617">
        <ele>2158.4</ele>
        <time>2021-08-03T09:21:48Z</time>
      </trkpt>
      <trkpt lat="45.52159" lon="6.7617">
        <ele>2158</ele>
        <time>2021-08-03T09:21:49Z</time>
      </trkpt>
      <trkpt lat="45.5216" lon="6.7617">
        <ele>2157.8</ele>
        <time>2021-08-03T09:21:50Z</time>
      </trkpt>
      <trkpt lat="45.5216" lon="6.7617">
        <ele>2157.7</ele>
        <time>2021-08-03T09:21:51Z</time>
      </trkpt>
      <trkpt lat="45.5216" lon="6.76171">
        <ele>2157.6</ele>
        <time>2021-08-03T09:21:52Z</time>
      </trkpt>
      <trkpt lat="45.5216" lon="6.76171">
        <ele>2157.6</ele>
        <time>2021-08-03T09:21:53Z</time>
      </trkpt>
      <trkpt lat="45.5216" lon="6.76171">
        <ele>2157.5</ele>
        <time>2021-08-03T09:21:54Z</time>
      </trkpt>
      <trkpt lat="45.52161" lon="6.76171">
        <ele>2157.3</ele>
        <time>2021-08-03T09:21:55Z</time>
      </trkpt>
      <trkpt lat="45.52161" lon="6.76171">
        <ele>2157</ele>
        <time>2021-08-03T09:21:56Z</time>
      </trkpt>
      <trkpt lat="45.52162" lon="6.76171">
        <ele>2156.6</ele>
        <time>2021-08-03T09:21:57Z</time>
      </trkpt>
      <trkpt lat="45.52163" lon="6.76171">
        <ele>2156.3</ele>
        <time>2021-08-03T09:21:58Z</time>
      </trkpt>
      <trkpt lat="45.52163" lon="6.76171">
        <ele>2156</ele>
        <time>2021-08-03T09:21:59Z</time>
      </trkpt>
      <trkpt lat="45.52164" lon="6.76172">
        <ele>2155.7</ele>
        <time>2021-08-03T09:22:00Z</time>
      </trkpt>
      <trkpt lat="45.52165" lon="6.76172">
        <ele>2155.4</ele>
        <time>2021-08-03T09:22:01Z</time>
      </trkpt>
      <trkpt lat="45.52165" lon="6.76172">
        <ele>2155.1</ele>
        <time>2021-08-03T09:22:02Z</time>
      </trkpt>
      <trkpt lat="45.52165" lon="6.76172">
        <ele>2154.9</ele>
        <time>2021-08-03T09:22:03Z</time>
      </trkpt>
      <trkpt lat="45.52166" lon="6.76172">
        <ele>2154.7</ele>
        <time>2021-08-03T09:22:04Z</time>
      </trkpt>
      <trkpt lat="45.52166" lon="6.76173">
        <ele>2154.5</ele>
        <time>2021-08-03T09:22:05Z</time>
      </trkpt>
      <trkpt lat="45.52167" lon="6.76173">
        <ele>2154.2</ele>
        <time>2021-08-03T09:22:06Z</time>
      </trkpt>
      <trkpt lat="45.52167" lon="6.76173">
        <ele>2154</ele>
        <time>2021-08-03T09:22:07Z</time>
      </trkpt>
      <trkpt lat="45.52168" lon="6.76173">
        <ele>2153.8</ele>
        <time>2021-08-03T09:22:08Z</time>
      </trkpt>
      <trkpt lat="45.52168" lon="6.76173">
        <ele>2153.5</ele>
        <time>2021-08-03T09:22:09Z</time>
      </trkpt>
      <trkpt lat="45.52169" lon="6.76173">
        <ele>2153.3</ele>
        <time>2021-08-03T09:22:10Z</time>
      </trkpt>
      <trkpt lat="45.52169" lon="6.76173">
        <ele>2153.1</ele>
        <time>2021-08-03T09:22:11Z</time>
      </trkpt>
      <trkpt lat="45.52169" lon="6.76173">
        <ele>2152.9</ele>
        <time>2021-08-03T09:22:12Z</time>
      </trkpt>
      <trkpt lat="45.5217" lon="6.76173">
        <ele>2152.6</ele>
        <time>2021-08-03T09:22:13Z</time>
      </trkpt>
      <trkpt lat="45.5217" lon="6.76173">
        <ele>2152.4</ele>
        <time>2021-08-03T09:22:14Z</time>
      </trkpt>
      <trkpt lat="45.52171" lon="6.76173">
        <ele>2152.1</ele>
        <time>2021-08-03T09:22:15Z</time>
      </trkpt>
      <trkpt lat="45.52172" lon="6.76173">
        <ele>2151.8</ele>
        <time>2021-08-03T09:22:16Z</time>
      </trkpt>
      <trkpt lat="45.52172" lon="6.76173">
        <ele>2151.6</ele>
        <time>2021-08-03T09:22:17Z</time>
      </trkpt>
      <trkpt lat="45.52173" lon="6.76173">
        <ele>2151.3</ele>
        <time>2021-08-03T09:22:18Z</time>
      </trkpt>
      <trkpt lat="45.52173" lon="6.76173">
        <ele>2151</ele>
        <time>2021-08-03T09:22:19Z</time>
      </trkpt>
      <trkpt lat="45.52174" lon="6.76172">
        <ele>2150.7</ele>
        <time>2021-08-03T09:22:20Z</time>
      </trkpt>
      <trkpt lat="45.52175" lon="6.76172">
        <ele>2150.4</ele>
        <time>2021-08-03T09:22:21Z</time>
      </trkpt>
      <trkpt lat="45.52175" lon="6.76172">
        <ele>2150</ele>
        <time>2021-08-03T09:22:22Z</time>
      </trkpt>
      <trkpt lat="45.52176" lon="6.76172">
        <ele>2149.8</ele>
        <time>2021-08-03T09:22:23Z</time>
      </trkpt>
      <trkpt lat="45.52177" lon="6.76172">
        <ele>2149.5</ele>
        <time>2021-08-03T09:22:24Z</time>
      </trkpt>
      <trkpt lat="45.52177" lon="6.76172">
        <ele>2149.2</ele>
        <time>2021-08-03T09:22:25Z</time>
      </trkpt>
      <trkpt lat="45.52178" lon="6.76172">
        <ele>2149</ele>
        <time>2021-08-03T09:22:26Z</time>
      </trkpt>
      <trkpt lat="45.52178" lon="6.76172">
        <ele>2148.8</ele>
        <time>2021-08-03T09:22:27Z</time>
      </trkpt>
      <trkpt lat="45.52179" lon="6.76172">
        <ele>2148.6</ele>
        <time>2021-08-03T09:22:28Z</time>
      </trkpt>
      <trkpt lat="45.52179" lon="6.76172">
        <ele>2148.5</ele>
        <time>2021-08-03T09:22:29Z</time>
      </trkpt>
      <trkpt lat="45.52179" lon="6.76172">
        <ele>2148.5</ele>
        <time>2021-08-03T09:22:30Z</time>
      </trkpt>
      <trkpt lat="45.52179" lon="6.76172">
        <ele>2148.5</ele>
        <time>2021-08-03T09:22:31Z</time>
      </trkpt>
      <trkpt lat="45.52179" lon="6.76172">
        <ele>2148.5</ele>
        <time>2021-08-03T09:22:32Z</time>
      </trkpt>
      <trkpt lat="45.52179" lon="6.76172">
        <ele>2148.4</ele>
        <time>2021-08-03T09:22:33Z</time>
      </trkpt>
      <trkpt lat="45.52179" lon="6.76172">
        <ele>2148.4</ele>
        <time>2021-08-03T09:22:34Z</time>
      </trkpt>
      <trkpt lat="45.52179" lon="6.76172">
        <ele>2148.3</ele>
        <time>2021-08-03T09:22:35Z</time>
      </trkpt>
      <trkpt lat="45.52179" lon="6.76172">
        <ele>2148.3</ele>
        <time>2021-08-03T09:22:36Z</time>
      </trkpt>
      <trkpt lat="45.52179" lon="6.76172">
        <ele>2148.2</ele>
        <time>2021-08-03T09:22:37Z</time>
      </trkpt>
      <trkpt lat="45.52179" lon="6.76172">
        <ele>2148</ele>
        <time>2021-08-03T09:22:38Z</time>
      </trkpt>
      <trkpt lat="45.5218" lon="6.76171">
        <ele>2147.8</ele>
        <time>2021-08-03T09:22:39Z</time>
      </trkpt>
      <trkpt lat="45.52181" lon="6.76171">
        <ele>2147.6</ele>
        <time>2021-08-03T09:22:40Z</time>
      </trkpt>
      <trkpt lat="45.52181" lon="6.76171">
        <ele>2147.3</ele>
        <time>2021-08-03T09:22:41Z</time>
      </trkpt>
      <trkpt lat="45.52182" lon="6.76171">
        <ele>2146.9</ele>
        <time>2021-08-03T09:22:42Z</time>
      </trkpt>
      <trkpt lat="45.52183" lon="6.76171">
        <ele>2146.6</ele>
        <time>2021-08-03T09:22:43Z</time>
      </trkpt>
      <trkpt lat="45.52184" lon="6.76171">
        <ele>2146.3</ele>
        <time>2021-08-03T09:22:44Z</time>
      </trkpt>
      <trkpt lat="45.52185" lon="6.76171">
        <ele>2146</ele>
        <time>2021-08-03T09:22:45Z</time>
      </trkpt>
      <trkpt lat="45.52186" lon="6.76171">
        <ele>2145.7</ele>
        <time>2021-08-03T09:22:46Z</time>
      </trkpt>
      <trkpt lat="45.52186" lon="6.76171">
        <ele>2145.4</ele>
        <time>2021-08-03T09:22:47Z</time>
      </trkpt>
      <trkpt lat="45.52187" lon="6.76171">
        <ele>2145.2</ele>
        <time>2021-08-03T09:22:48Z</time>
      </trkpt>
      <trkpt lat="45.52188" lon="6.7617">
        <ele>2144.9</ele>
        <time>2021-08-03T09:22:49Z</time>
      </trkpt>
      <trkpt lat="45.52188" lon="6.7617">
        <ele>2144.7</ele>
        <time>2021-08-03T09:22:50Z</time>
      </trkpt>
      <trkpt lat="45.52189" lon="6.7617">
        <ele>2144.5</ele>
        <time>2021-08-03T09:22:51Z</time>
      </trkpt>
      <trkpt lat="45.52189" lon="6.7617">
        <ele>2144.3</ele>
        <time>2021-08-03T09:22:52Z</time>
      </trkpt>
      <trkpt lat="45.5219" lon="6.7617">
        <ele>2144.1</ele>
        <time>2021-08-03T09:22:53Z</time>
      </trkpt>
      <trkpt lat="45.5219" lon="6.7617">
        <ele>2143.9</ele>
        <time>2021-08-03T09:22:54Z</time>
      </trkpt>
      <trkpt lat="45.52191" lon="6.76169">
        <ele>2143.7</ele>
        <time>2021-08-03T09:22:55Z</time>
      </trkpt>
      <trkpt lat="45.52191" lon="6.76169">
        <ele>2143.6</ele>
        <time>2021-08-03T09:22:56Z</time>
      </trkpt>
      <trkpt lat="45.52192" lon="6.76169">
        <ele>2143.4</ele>
        <time>2021-08-03T09:22:57Z</time>
      </trkpt>
      <trkpt lat="45.52192" lon="6.76169">
        <ele>2143.2</ele>
        <time>2021-08-03T09:22:58Z</time>
      </trkpt>
      <trkpt lat="45.52193" lon="6.76168">
        <ele>2143</ele>
        <time>2021-08-03T09:22:59Z</time>
      </trkpt>
      <trkpt lat="45.52193" lon="6.76168">
        <ele>2142.8</ele>
        <time>2021-08-03T09:23:00Z</time>
      </trkpt>
      <trkpt lat="45.52194" lon="6.76167">
        <ele>2142.5</ele>
        <time>2021-08-03T09:23:01Z</time>
      </trkpt>
      <trkpt lat="45.52194" lon="6.76167">
        <ele>2142.3</ele>
        <time>2021-08-03T09:23:02Z</time>
      </trkpt>
      <trkpt lat="45.52195" lon="6.76167">
        <ele>2142.1</ele>
        <time>2021-08-03T09:23:03Z</time>
      </trkpt>
      <trkpt lat="45.52196" lon="6.76166">
        <ele>2141.8</ele>
        <time>2021-08-03T09:23:04Z</time>
      </trkpt>
      <trkpt lat="45.52196" lon="6.76166">
        <ele>2141.6</ele>
        <time>2021-08-03T09:23:05Z</time>
      </trkpt>
      <trkpt lat="45.52197" lon="6.76166">
        <ele>2141.4</ele>
        <time>2021-08-03T09:23:06Z</time>
      </trkpt>
      <trkpt lat="45.52198" lon="6.76165">
        <ele>2141.1</ele>
        <time>2021-08-03T09:23:07Z</time>
      </trkpt>
      <trkpt lat="45.52199" lon="6.76165">
        <ele>2140.8</ele>
        <time>2021-08-03T09:23:08Z</time>
      </trkpt>
      <trkpt lat="45.52199" lon="6.76165">
        <ele>2140.6</ele>
        <time>2021-08-03T09:23:09Z</time>
      </trkpt>
      <trkpt lat="45.522" lon="6.76165">
        <ele>2140.3</ele>
        <time>2021-08-03T09:23:10Z</time>
      </trkpt>
      <trkpt lat="45.52201" lon="6.76165">
        <ele>2140.1</ele>
        <time>2021-08-03T09:23:11Z</time>
      </trkpt>
      <trkpt lat="45.52202" lon="6.76166">
        <ele>2139.8</ele>
        <time>2021-08-03T09:23:12Z</time>
      </trkpt>
      <trkpt lat="45.52202" lon="6.76166">
        <ele>2139.6</ele>
        <time>2021-08-03T09:23:13Z</time>
      </trkpt>
      <trkpt lat="45.52203" lon="6.76166">
        <ele>2139.4</ele>
        <time>2021-08-03T09:23:14Z</time>
      </trkpt>
      <trkpt lat="45.52204" lon="6.76166">
        <ele>2139.2</ele>
        <time>2021-08-03T09:23:15Z</time>
      </trkpt>
      <trkpt lat="45.52204" lon="6.76166">
        <ele>2139.1</ele>
        <time>2021-08-03T09:23:16Z</time>
      </trkpt>
      <trkpt lat="45.52204" lon="6.76166">
        <ele>2139</ele>
        <time>2021-08-03T09:23:17Z</time>
      </trkpt>
      <trkpt lat="45.52205" lon="6.76166">
        <ele>2138.9</ele>
        <time>2021-08-03T09:23:18Z</time>
      </trkpt>
      <trkpt lat="45.52205" lon="6.76166">
        <ele>2138.9</ele>
        <time>2021-08-03T09:23:19Z</time>
      </trkpt>
      <trkpt lat="45.52205" lon="6.76166">
        <ele>2138.8</ele>
        <time>2021-08-03T09:23:20Z</time>
      </trkpt>
      <trkpt lat="45.52205" lon="6.76166">
        <ele>2138.8</ele>
        <time>2021-08-03T09:23:21Z</time>
      </trkpt>
      <trkpt lat="45.52205" lon="6.76166">
        <ele>2138.8</ele>
        <time>2021-08-03T09:23:22Z</time>
      </trkpt>
      <trkpt lat="45.52205" lon="6.76166">
        <ele>2138.7</ele>
        <time>2021-08-03T09:23:23Z</time>
      </trkpt>
      <trkpt lat="45.52206" lon="6.76165">
        <ele>2138.7</ele>
        <time>2021-08-03T09:23:24Z</time>
      </trkpt>
      <trkpt lat="45.52206" lon="6.76165">
        <ele>2138.5</ele>
        <time>2021-08-03T09:23:25Z</time>
      </trkpt>
      <trkpt lat="45.52207" lon="6.76165">
        <ele>2138.3</ele>
        <time>2021-08-03T09:23:26Z</time>
      </trkpt>
      <trkpt lat="45.52208" lon="6.76165">
        <ele>2138.1</ele>
        <time>2021-08-03T09:23:27Z</time>
      </trkpt>
      <trkpt lat="45.52208" lon="6.76165">
        <ele>2137.8</ele>
        <time>2021-08-03T09:23:28Z</time>
      </trkpt>
      <trkpt lat="45.52209" lon="6.76164">
        <ele>2137.6</ele>
        <time>2021-08-03T09:23:29Z</time>
      </trkpt>
      <trkpt lat="45.5221" lon="6.76164">
        <ele>2137.3</ele>
        <time>2021-08-03T09:23:30Z</time>
      </trkpt>
      <trkpt lat="45.52211" lon="6.76164">
        <ele>2137.1</ele>
        <time>2021-08-03T09:23:31Z</time>
      </trkpt>
      <trkpt lat="45.52212" lon="6.76164">
        <ele>2136.9</ele>
        <time>2021-08-03T09:23:32Z</time>
      </trkpt>
      <trkpt lat="45.52213" lon="6.76164">
        <ele>2136.7</ele>
        <time>2021-08-03T09:23:33Z</time>
      </trkpt>
      <trkpt lat="45.52214" lon="6.76165">
        <ele>2136.5</ele>
        <time>2021-08-03T09:23:34Z</time>
      </trkpt>
      <trkpt lat="45.52214" lon="6.76165">
        <ele>2136.3</ele>
        <time>2021-08-03T09:23:35Z</time>
      </trkpt>
      <trkpt lat="45.52215" lon="6.76165">
        <ele>2136.2</ele>
        <time>2021-08-03T09:23:36Z</time>
      </trkpt>
      <trkpt lat="45.52215" lon="6.76166">
        <ele>2136</ele>
        <time>2021-08-03T09:23:37Z</time>
      </trkpt>
      <trkpt lat="45.52216" lon="6.76166">
        <ele>2135.9</ele>
        <time>2021-08-03T09:23:38Z</time>
      </trkpt>
      <trkpt lat="45.52216" lon="6.76167">
        <ele>2135.7</ele>
        <time>2021-08-03T09:23:39Z</time>
      </trkpt>
      <trkpt lat="45.52217" lon="6.76167">
        <ele>2135.5</ele>
        <time>2021-08-03T09:23:40Z</time>
      </trkpt>
      <trkpt lat="45.52217" lon="6.76168">
        <ele>2135.4</ele>
        <time>2021-08-03T09:23:41Z</time>
      </trkpt>
      <trkpt lat="45.52218" lon="6.76168">
        <ele>2135.2</ele>
        <time>2021-08-03T09:23:42Z</time>
      </trkpt>
      <trkpt lat="45.52218" lon="6.76169">
        <ele>2135.1</ele>
        <time>2021-08-03T09:23:43Z</time>
      </trkpt>
      <trkpt lat="45.52219" lon="6.76169">
        <ele>2134.9</ele>
        <time>2021-08-03T09:23:44Z</time>
      </trkpt>
      <trkpt lat="45.52219" lon="6.76169">
        <ele>2134.7</ele>
        <time>2021-08-03T09:23:45Z</time>
      </trkpt>
      <trkpt lat="45.5222" lon="6.76169">
        <ele>2134.6</ele>
        <time>2021-08-03T09:23:46Z</time>
      </trkpt>
      <trkpt lat="45.52221" lon="6.7617">
        <ele>2134.4</ele>
        <time>2021-08-03T09:23:47Z</time>
      </trkpt>
      <trkpt lat="45.52221" lon="6.7617">
        <ele>2134.3</ele>
        <time>2021-08-03T09:23:48Z</time>
      </trkpt>
      <trkpt lat="45.52221" lon="6.7617">
        <ele>2134.2</ele>
        <time>2021-08-03T09:23:49Z</time>
      </trkpt>
      <trkpt lat="45.52222" lon="6.7617">
        <ele>2134.1</ele>
        <time>2021-08-03T09:23:50Z</time>
      </trkpt>
      <trkpt lat="45.52222" lon="6.7617">
        <ele>2134</ele>
        <time>2021-08-03T09:23:51Z</time>
      </trkpt>
      <trkpt lat="45.52222" lon="6.7617">
        <ele>2133.9</ele>
        <time>2021-08-03T09:23:52Z</time>
      </trkpt>
      <trkpt lat="45.52223" lon="6.7617">
        <ele>2133.9</ele>
        <time>2021-08-03T09:23:53Z</time>
      </trkpt>
      <trkpt lat="45.52223" lon="6.7617">
        <ele>2133.8</ele>
        <time>2021-08-03T09:23:54Z</time>
      </trkpt>
      <trkpt lat="45.52223" lon="6.7617">
        <ele>2133.8</ele>
        <time>2021-08-03T09:23:55Z</time>
      </trkpt>
      <trkpt lat="45.52223" lon="6.7617">
        <ele>2133.8</ele>
        <time>2021-08-03T09:23:56Z</time>
      </trkpt>
      <trkpt lat="45.52223" lon="6.7617">
        <ele>2133.7</ele>
        <time>2021-08-03T09:23:57Z</time>
      </trkpt>
      <trkpt lat="45.52223" lon="6.7617">
        <ele>2133.7</ele>
        <time>2021-08-03T09:23:58Z</time>
      </trkpt>
      <trkpt lat="45.52223" lon="6.7617">
        <ele>2133.7</ele>
        <time>2021-08-03T09:23:59Z</time>
      </trkpt>
      <trkpt lat="45.52223" lon="6.7617">
        <ele>2133.7</ele>
        <time>2021-08-03T09:24:00Z</time>
      </trkpt>
      <trkpt lat="45.52223" lon="6.7617">
        <ele>2133.7</ele>
        <time>2021-08-03T09:24:01Z</time>
      </trkpt>
      <trkpt lat="45.52223" lon="6.7617">
        <ele>2133.6</ele>
        <time>2021-08-03T09:24:02Z</time>
      </trkpt>
      <trkpt lat="45.52223" lon="6.7617">
        <ele>2133.6</ele>
        <time>2021-08-03T09:24:03Z</time>
      </trkpt>
      <trkpt lat="45.52223" lon="6.7617">
        <ele>2133.6</ele>
        <time>2021-08-03T09:24:04Z</time>
      </trkpt>
      <trkpt lat="45.52223" lon="6.7617">
        <ele>2133.6</ele>
        <time>2021-08-03T09:24:05Z</time>
      </trkpt>
      <trkpt lat="45.52223" lon="6.7617">
        <ele>2133.6</ele>
        <time>2021-08-03T09:24:06Z</time>
      </trkpt>
      <trkpt lat="45.52223" lon="6.7617">
        <ele>2133.6</ele>
        <time>2021-08-03T09:24:07Z</time>
      </trkpt>
      <trkpt lat="45.52223" lon="6.7617">
        <ele>2133.6</ele>
        <time>2021-08-03T09:24:08Z</time>
      </trkpt>
      <trkpt lat="45.52223" lon="6.7617">
        <ele>2133.6</ele>
        <time>2021-08-03T09:24:09Z</time>
      </trkpt>
      <trkpt lat="45.52223" lon="6.7617">
        <ele>2133.5</ele>
        <time>2021-08-03T09:24:10Z</time>
      </trkpt>
      <trkpt lat="45.52223" lon="6.7617">
        <ele>2133.5</ele>
        <time>2021-08-03T09:24:11Z</time>
      </trkpt>
      <trkpt lat="45.52224" lon="6.7617">
        <ele>2133.4</ele>
        <time>2021-08-03T09:24:12Z</time>
      </trkpt>
      <trkpt lat="45.52224" lon="6.7617">
        <ele>2133.3</ele>
        <time>2021-08-03T09:24:13Z</time>
      </trkpt>
      <trkpt lat="45.52224" lon="6.7617">
        <ele>2133.1</ele>
        <time>2021-08-03T09:24:14Z</time>
      </trkpt>
      <trkpt lat="45.52225" lon="6.7617">
        <ele>2133</ele>
        <time>2021-08-03T09:24:15Z</time>
      </trkpt>
      <trkpt lat="45.52225" lon="6.7617">
        <ele>2132.8</ele>
        <time>2021-08-03T09:24:16Z</time>
      </trkpt>
      <trkpt lat="45.52226" lon="6.7617">
        <ele>2132.6</ele>
        <time>2021-08-03T09:24:17Z</time>
      </trkpt>
      <trkpt lat="45.52227" lon="6.7617">
        <ele>2132.4</ele>
        <time>2021-08-03T09:24:18Z</time>
      </trkpt>
      <trkpt lat="45.52227" lon="6.7617">
        <ele>2132.1</ele>
        <time>2021-08-03T09:24:19Z</time>
      </trkpt>
      <trkpt lat="45.52228" lon="6.7617">
        <ele>2131.9</ele>
        <time>2021-08-03T09:24:20Z</time>
      </trkpt>
      <trkpt lat="45.52229" lon="6.7617">
        <ele>2131.6</ele>
        <time>2021-08-03T09:24:21Z</time>
      </trkpt>
      <trkpt lat="45.5223" lon="6.7617">
        <ele>2131.2</ele>
        <time>2021-08-03T09:24:22Z</time>
      </trkpt>
      <trkpt lat="45.52231" lon="6.7617">
        <ele>2130.9</ele>
        <time>2021-08-03T09:24:23Z</time>
      </trkpt>
      <trkpt lat="45.52232" lon="6.7617">
        <ele>2130.6</ele>
        <time>2021-08-03T09:24:24Z</time>
      </trkpt>
      <trkpt lat="45.52233" lon="6.7617">
        <ele>2130.2</ele>
        <time>2021-08-03T09:24:25Z</time>
      </trkpt>
      <trkpt lat="45.52234" lon="6.7617">
        <ele>2129.9</ele>
        <time>2021-08-03T09:24:26Z</time>
      </trkpt>
      <trkpt lat="45.52235" lon="6.7617">
        <ele>2129.5</ele>
        <time>2021-08-03T09:24:27Z</time>
      </trkpt>
      <trkpt lat="45.52236" lon="6.76171">
        <ele>2129.1</ele>
        <time>2021-08-03T09:24:28Z</time>
      </trkpt>
      <trkpt lat="45.52237" lon="6.76171">
        <ele>2128.7</ele>
        <time>2021-08-03T09:24:29Z</time>
      </trkpt>
      <trkpt lat="45.52237" lon="6.76171">
        <ele>2128.4</ele>
        <time>2021-08-03T09:24:30Z</time>
      </trkpt>
      <trkpt lat="45.52238" lon="6.76171">
        <ele>2128</ele>
        <time>2021-08-03T09:24:31Z</time>
      </trkpt>
      <trkpt lat="45.52239" lon="6.76171">
        <ele>2127.6</ele>
        <time>2021-08-03T09:24:32Z</time>
      </trkpt>
      <trkpt lat="45.5224" lon="6.76171">
        <ele>2127.3</ele>
        <time>2021-08-03T09:24:33Z</time>
      </trkpt>
      <trkpt lat="45.52241" lon="6.76171">
        <ele>2126.9</ele>
        <time>2021-08-03T09:24:34Z</time>
      </trkpt>
      <trkpt lat="45.52242" lon="6.76172">
        <ele>2126.6</ele>
        <time>2021-08-03T09:24:35Z</time>
      </trkpt>
      <trkpt lat="45.52242" lon="6.76172">
        <ele>2126.3</ele>
        <time>2021-08-03T09:24:36Z</time>
      </trkpt>
      <trkpt lat="45.52243" lon="6.76172">
        <ele>2126</ele>
        <time>2021-08-03T09:24:37Z</time>
      </trkpt>
      <trkpt lat="45.52244" lon="6.76173">
        <ele>2125.7</ele>
        <time>2021-08-03T09:24:38Z</time>
      </trkpt>
      <trkpt lat="45.52244" lon="6.76173">
        <ele>2125.4</ele>
        <time>2021-08-03T09:24:39Z</time>
      </trkpt>
      <trkpt lat="45.52245" lon="6.76173">
        <ele>2125.2</ele>
        <time>2021-08-03T09:24:40Z</time>
      </trkpt>
      <trkpt lat="45.52245" lon="6.76174">
        <ele>2124.9</ele>
        <time>2021-08-03T09:24:41Z</time>
      </trkpt>
      <trkpt lat="45.52246" lon="6.76174">
        <ele>2124.7</ele>
        <time>2021-08-03T09:24:42Z</time>
      </trkpt>
      <trkpt lat="45.52246" lon="6.76175">
        <ele>2124.5</ele>
        <time>2021-08-03T09:24:43Z</time>
      </trkpt>
      <trkpt lat="45.52247" lon="6.76175">
        <ele>2124.3</ele>
        <time>2021-08-03T09:24:44Z</time>
      </trkpt>
      <trkpt lat="45.52247" lon="6.76175">
        <ele>2124.1</ele>
        <time>2021-08-03T09:24:45Z</time>
      </trkpt>
      <trkpt lat="45.52247" lon="6.76176">
        <ele>2124</ele>
        <time>2021-08-03T09:24:46Z</time>
      </trkpt>
      <trkpt lat="45.52248" lon="6.76176">
        <ele>2123.8</ele>
        <time>2021-08-03T09:24:47Z</time>
      </trkpt>
      <trkpt lat="45.52248" lon="6.76176">
        <ele>2123.6</ele>
        <time>2021-08-03T09:24:48Z</time>
      </trkpt>
      <trkpt lat="45.52248" lon="6.76176">
        <ele>2123.5</ele>
        <time>2021-08-03T09:24:49Z</time>
      </trkpt>
      <trkpt lat="45.52249" lon="6.76176">
        <ele>2123.4</ele>
        <time>2021-08-03T09:24:50Z</time>
      </trkpt>
      <trkpt lat="45.52249" lon="6.76176">
        <ele>2123.2</ele>
        <time>2021-08-03T09:24:51Z</time>
      </trkpt>
      <trkpt lat="45.52249" lon="6.76176">
        <ele>2123.1</ele>
        <time>2021-08-03T09:24:52Z</time>
      </trkpt>
      <trkpt lat="45.52249" lon="6.76176">
        <ele>2123</ele>
        <time>2021-08-03T09:24:53Z</time>
      </trkpt>
      <trkpt lat="45.5225" lon="6.76176">
        <ele>2122.8</ele>
        <time>2021-08-03T09:24:54Z</time>
      </trkpt>
      <trkpt lat="45.5225" lon="6.76176">
        <ele>2122.7</ele>
        <time>2021-08-03T09:24:55Z</time>
      </trkpt>
      <trkpt lat="45.52251" lon="6.76176">
        <ele>2122.5</ele>
        <time>2021-08-03T09:24:56Z</time>
      </trkpt>
      <trkpt lat="45.52251" lon="6.76177">
        <ele>2122.2</ele>
        <time>2021-08-03T09:24:57Z</time>
      </trkpt>
      <trkpt lat="45.52252" lon="6.76177">
        <ele>2122</ele>
        <time>2021-08-03T09:24:58Z</time>
      </trkpt>
      <trkpt lat="45.52252" lon="6.76178">
        <ele>2121.6</ele>
        <time>2021-08-03T09:24:59Z</time>
      </trkpt>
      <trkpt lat="45.52253" lon="6.76178">
        <ele>2121.3</ele>
        <time>2021-08-03T09:25:00Z</time>
      </trkpt>
      <trkpt lat="45.52253" lon="6.76178">
        <ele>2121.1</ele>
        <time>2021-08-03T09:25:01Z</time>
      </trkpt>
      <trkpt lat="45.52253" lon="6.76179">
        <ele>2121</ele>
        <time>2021-08-03T09:25:02Z</time>
      </trkpt>
      <trkpt lat="45.52254" lon="6.76178">
        <ele>2120.8</ele>
        <time>2021-08-03T09:25:03Z</time>
      </trkpt>
      <trkpt lat="45.52254" lon="6.76178">
        <ele>2120.7</ele>
        <time>2021-08-03T09:25:04Z</time>
      </trkpt>
      <trkpt lat="45.52254" lon="6.76178">
        <ele>2120.5</ele>
        <time>2021-08-03T09:25:05Z</time>
      </trkpt>
      <trkpt lat="45.52254" lon="6.76177">
        <ele>2120.2</ele>
        <time>2021-08-03T09:25:06Z</time>
      </trkpt>
      <trkpt lat="45.52255" lon="6.76176">
        <ele>2120</ele>
        <time>2021-08-03T09:25:07Z</time>
      </trkpt>
      <trkpt lat="45.52255" lon="6.76175">
        <ele>2119.6</ele>
        <time>2021-08-03T09:25:08Z</time>
      </trkpt>
      <trkpt lat="45.52255" lon="6.76174">
        <ele>2119.3</ele>
        <time>2021-08-03T09:25:09Z</time>
      </trkpt>
      <trkpt lat="45.52256" lon="6.76173">
        <ele>2119</ele>
        <time>2021-08-03T09:25:10Z</time>
      </trkpt>
      <trkpt lat="45.52256" lon="6.76172">
        <ele>2118.6</ele>
        <time>2021-08-03T09:25:11Z</time>
      </trkpt>
      <trkpt lat="45.52256" lon="6.76171">
        <ele>2118.2</ele>
        <time>2021-08-03T09:25:12Z</time>
      </trkpt>
      <trkpt lat="45.52256" lon="6.7617">
        <ele>2117.8</ele>
        <time>2021-08-03T09:25:13Z</time>
      </trkpt>
      <trkpt lat="45.52256" lon="6.76169">
        <ele>2117.5</ele>
        <time>2021-08-03T09:25:14Z</time>
      </trkpt>
      <trkpt lat="45.52257" lon="6.76168">
        <ele>2117.2</ele>
        <time>2021-08-03T09:25:15Z</time>
      </trkpt>
      <trkpt lat="45.52257" lon="6.76168">
        <ele>2117</ele>
        <time>2021-08-03T09:25:16Z</time>
      </trkpt>
      <trkpt lat="45.52257" lon="6.76167">
        <ele>2116.7</ele>
        <time>2021-08-03T09:25:17Z</time>
      </trkpt>
      <trkpt lat="45.52257" lon="6.76166">
        <ele>2116.5</ele>
        <time>2021-08-03T09:25:18Z</time>
      </trkpt>
      <trkpt lat="45.52257" lon="6.76166">
        <ele>2116.3</ele>
        <time>2021-08-03T09:25:19Z</time>
      </trkpt>
      <trkpt lat="45.52257" lon="6.76165">
        <ele>2116.1</ele>
        <time>2021-08-03T09:25:20Z</time>
      </trkpt>
      <trkpt lat="45.52257" lon="6.76165">
        <ele>2115.9</ele>
        <time>2021-08-03T09:25:21Z</time>
      </trkpt>
      <trkpt lat="45.52258" lon="6.76164">
        <ele>2115.5</ele>
        <time>2021-08-03T09:25:22Z</time>
      </trkpt>
      <trkpt lat="45.52258" lon="6.76163">
        <ele>2115.1</ele>
        <time>2021-08-03T09:25:23Z</time>
      </trkpt>
      <trkpt lat="45.52259" lon="6.76162">
        <ele>2114.6</ele>
        <time>2021-08-03T09:25:24Z</time>
      </trkpt>
      <trkpt lat="45.5226" lon="6.76162">
        <ele>2114.1</ele>
        <time>2021-08-03T09:25:25Z</time>
      </trkpt>
      <trkpt lat="45.52261" lon="6.76161">
        <ele>2113.4</ele>
        <time>2021-08-03T09:25:26Z</time>
      </trkpt>
      <trkpt lat="45.52262" lon="6.7616">
        <ele>2112.9</ele>
        <time>2021-08-03T09:25:27Z</time>
      </trkpt>
      <trkpt lat="45.52263" lon="6.76159">
        <ele>2112.4</ele>
        <time>2021-08-03T09:25:28Z</time>
      </trkpt>
      <trkpt lat="45.52263" lon="6.76159">
        <ele>2112</ele>
        <time>2021-08-03T09:25:29Z</time>
      </trkpt>
      <trkpt lat="45.52264" lon="6.76158">
        <ele>2111.7</ele>
        <time>2021-08-03T09:25:30Z</time>
      </trkpt>
      <trkpt lat="45.52264" lon="6.76158">
        <ele>2111.4</ele>
        <time>2021-08-03T09:25:31Z</time>
      </trkpt>
      <trkpt lat="45.52265" lon="6.76158">
        <ele>2111</ele>
        <time>2021-08-03T09:25:32Z</time>
      </trkpt>
      <trkpt lat="45.52266" lon="6.76158">
        <ele>2110.7</ele>
        <time>2021-08-03T09:25:33Z</time>
      </trkpt>
      <trkpt lat="45.52266" lon="6.76158">
        <ele>2110.3</ele>
        <time>2021-08-03T09:25:34Z</time>
      </trkpt>
      <trkpt lat="45.52267" lon="6.76158">
        <ele>2109.9</ele>
        <time>2021-08-03T09:25:35Z</time>
      </trkpt>
      <trkpt lat="45.52268" lon="6.76158">
        <ele>2109.5</ele>
        <time>2021-08-03T09:25:36Z</time>
      </trkpt>
      <trkpt lat="45.52269" lon="6.76159">
        <ele>2109.2</ele>
        <time>2021-08-03T09:25:37Z</time>
      </trkpt>
      <trkpt lat="45.52269" lon="6.76159">
        <ele>2108.8</ele>
        <time>2021-08-03T09:25:38Z</time>
      </trkpt>
      <trkpt lat="45.5227" lon="6.76159">
        <ele>2108.5</ele>
        <time>2021-08-03T09:25:39Z</time>
      </trkpt>
      <trkpt lat="45.5227" lon="6.76159">
        <ele>2108.3</ele>
        <time>2021-08-03T09:25:40Z</time>
      </trkpt>
      <trkpt lat="45.52271" lon="6.76159">
        <ele>2108</ele>
        <time>2021-08-03T09:25:41Z</time>
      </trkpt>
      <trkpt lat="45.52271" lon="6.76159">
        <ele>2107.8</ele>
        <time>2021-08-03T09:25:42Z</time>
      </trkpt>
      <trkpt lat="45.52271" lon="6.7616">
        <ele>2107.7</ele>
        <time>2021-08-03T09:25:43Z</time>
      </trkpt>
      <trkpt lat="45.52271" lon="6.7616">
        <ele>2107.6</ele>
        <time>2021-08-03T09:25:44Z</time>
      </trkpt>
      <trkpt lat="45.52272" lon="6.7616">
        <ele>2107.5</ele>
        <time>2021-08-03T09:25:45Z</time>
      </trkpt>
      <trkpt lat="45.52272" lon="6.7616">
        <ele>2107.4</ele>
        <time>2021-08-03T09:25:46Z</time>
      </trkpt>
      <trkpt lat="45.52272" lon="6.7616">
        <ele>2107.4</ele>
        <time>2021-08-03T09:25:47Z</time>
      </trkpt>
      <trkpt lat="45.52272" lon="6.7616">
        <ele>2107.3</ele>
        <time>2021-08-03T09:25:48Z</time>
      </trkpt>
      <trkpt lat="45.52272" lon="6.7616">
        <ele>2107.3</ele>
        <time>2021-08-03T09:25:49Z</time>
      </trkpt>
      <trkpt lat="45.52272" lon="6.7616">
        <ele>2107.3</ele>
        <time>2021-08-03T09:25:50Z</time>
      </trkpt>
      <trkpt lat="45.52272" lon="6.76159">
        <ele>2107.3</ele>
        <time>2021-08-03T09:25:51Z</time>
      </trkpt>
      <trkpt lat="45.52272" lon="6.76159">
        <ele>2107.3</ele>
        <time>2021-08-03T09:25:52Z</time>
      </trkpt>
      <trkpt lat="45.52272" lon="6.76159">
        <ele>2107.2</ele>
        <time>2021-08-03T09:25:53Z</time>
      </trkpt>
      <trkpt lat="45.52272" lon="6.76159">
        <ele>2107.1</ele>
        <time>2021-08-03T09:25:54Z</time>
      </trkpt>
      <trkpt lat="45.52271" lon="6.76159">
        <ele>2107.1</ele>
        <time>2021-08-03T09:25:55Z</time>
      </trkpt>
      <trkpt lat="45.52271" lon="6.76159">
        <ele>2107.1</ele>
        <time>2021-08-03T09:25:56Z</time>
      </trkpt>
      <trkpt lat="45.52271" lon="6.76159">
        <ele>2107</ele>
        <time>2021-08-03T09:25:57Z</time>
      </trkpt>
      <trkpt lat="45.52271" lon="6.76159">
        <ele>2107</ele>
        <time>2021-08-03T09:25:58Z</time>
      </trkpt>
      <trkpt lat="45.52271" lon="6.76159">
        <ele>2106.9</ele>
        <time>2021-08-03T09:25:59Z</time>
      </trkpt>
      <trkpt lat="45.52271" lon="6.76159">
        <ele>2106.9</ele>
        <time>2021-08-03T09:26:00Z</time>
      </trkpt>
      <trkpt lat="45.52271" lon="6.76159">
        <ele>2106.9</ele>
        <time>2021-08-03T09:26:01Z</time>
      </trkpt>
      <trkpt lat="45.52271" lon="6.76159">
        <ele>2106.8</ele>
        <time>2021-08-03T09:26:02Z</time>
      </trkpt>
      <trkpt lat="45.52271" lon="6.76159">
        <ele>2106.8</ele>
        <time>2021-08-03T09:26:03Z</time>
      </trkpt>
      <trkpt lat="45.52271" lon="6.76159">
        <ele>2106.7</ele>
        <time>2021-08-03T09:26:04Z</time>
      </trkpt>
      <trkpt lat="45.52272" lon="6.76159">
        <ele>2106.6</ele>
        <time>2021-08-03T09:26:05Z</time>
      </trkpt>
      <trkpt lat="45.52272" lon="6.76159">
        <ele>2106.5</ele>
        <time>2021-08-03T09:26:06Z</time>
      </trkpt>
      <trkpt lat="45.52272" lon="6.76159">
        <ele>2106.4</ele>
        <time>2021-08-03T09:26:07Z</time>
      </trkpt>
      <trkpt lat="45.52272" lon="6.76159">
        <ele>2106.2</ele>
        <time>2021-08-03T09:26:08Z</time>
      </trkpt>
      <trkpt lat="45.52273" lon="6.76158">
        <ele>2106.1</ele>
        <time>2021-08-03T09:26:09Z</time>
      </trkpt>
      <trkpt lat="45.52273" lon="6.76158">
        <ele>2105.9</ele>
        <time>2021-08-03T09:26:10Z</time>
      </trkpt>
      <trkpt lat="45.52273" lon="6.76158">
        <ele>2105.6</ele>
        <time>2021-08-03T09:26:11Z</time>
      </trkpt>
      <trkpt lat="45.52274" lon="6.76158">
        <ele>2105.3</ele>
        <time>2021-08-03T09:26:12Z</time>
      </trkpt>
      <trkpt lat="45.52275" lon="6.76157">
        <ele>2105</ele>
        <time>2021-08-03T09:26:13Z</time>
      </trkpt>
      <trkpt lat="45.52275" lon="6.76157">
        <ele>2104.7</ele>
        <time>2021-08-03T09:26:14Z</time>
      </trkpt>
      <trkpt lat="45.52276" lon="6.76157">
        <ele>2104.4</ele>
        <time>2021-08-03T09:26:15Z</time>
      </trkpt>
      <trkpt lat="45.52276" lon="6.76156">
        <ele>2104</ele>
        <time>2021-08-03T09:26:16Z</time>
      </trkpt>
      <trkpt lat="45.52277" lon="6.76156">
        <ele>2103.7</ele>
        <time>2021-08-03T09:26:17Z</time>
      </trkpt>
      <trkpt lat="45.52277" lon="6.76156">
        <ele>2103.4</ele>
        <time>2021-08-03T09:26:18Z</time>
      </trkpt>
      <trkpt lat="45.52278" lon="6.76155">
        <ele>2103.2</ele>
        <time>2021-08-03T09:26:19Z</time>
      </trkpt>
      <trkpt lat="45.52278" lon="6.76155">
        <ele>2102.9</ele>
        <time>2021-08-03T09:26:20Z</time>
      </trkpt>
      <trkpt lat="45.52279" lon="6.76155">
        <ele>2102.6</ele>
        <time>2021-08-03T09:26:21Z</time>
      </trkpt>
      <trkpt lat="45.52279" lon="6.76155">
        <ele>2102.4</ele>
        <time>2021-08-03T09:26:22Z</time>
      </trkpt>
      <trkpt lat="45.5228" lon="6.76154">
        <ele>2102.2</ele>
        <time>2021-08-03T09:26:23Z</time>
      </trkpt>
      <trkpt lat="45.5228" lon="6.76154">
        <ele>2102</ele>
        <time>2021-08-03T09:26:24Z</time>
      </trkpt>
      <trkpt lat="45.5228" lon="6.76154">
        <ele>2101.8</ele>
        <time>2021-08-03T09:26:25Z</time>
      </trkpt>
      <trkpt lat="45.52281" lon="6.76154">
        <ele>2101.6</ele>
        <time>2021-08-03T09:26:26Z</time>
      </trkpt>
      <trkpt lat="45.52281" lon="6.76153">
        <ele>2101.4</ele>
        <time>2021-08-03T09:26:27Z</time>
      </trkpt>
      <trkpt lat="45.52282" lon="6.76153">
        <ele>2101.2</ele>
        <time>2021-08-03T09:26:28Z</time>
      </trkpt>
      <trkpt lat="45.52282" lon="6.76153">
        <ele>2101</ele>
        <time>2021-08-03T09:26:29Z</time>
      </trkpt>
      <trkpt lat="45.52282" lon="6.76153">
        <ele>2100.8</ele>
        <time>2021-08-03T09:26:30Z</time>
      </trkpt>
      <trkpt lat="45.52283" lon="6.76153">
        <ele>2100.6</ele>
        <time>2021-08-03T09:26:31Z</time>
      </trkpt>
      <trkpt lat="45.52283" lon="6.76153">
        <ele>2100.5</ele>
        <time>2021-08-03T09:26:32Z</time>
      </trkpt>
      <trkpt lat="45.52283" lon="6.76153">
        <ele>2100.3</ele>
        <time>2021-08-03T09:26:33Z</time>
      </trkpt>
      <trkpt lat="45.52284" lon="6.76153">
        <ele>2100.1</ele>
        <time>2021-08-03T09:26:34Z</time>
      </trkpt>
      <trkpt lat="45.52284" lon="6.76153">
        <ele>2100</ele>
        <time>2021-08-03T09:26:35Z</time>
      </trkpt>
      <trkpt lat="45.52284" lon="6.76153">
        <ele>2099.9</ele>
        <time>2021-08-03T09:26:36Z</time>
      </trkpt>
      <trkpt lat="45.52285" lon="6.76152">
        <ele>2099.7</ele>
        <time>2021-08-03T09:26:37Z</time>
      </trkpt>
      <trkpt lat="45.52285" lon="6.76152">
        <ele>2099.6</ele>
        <time>2021-08-03T09:26:38Z</time>
      </trkpt>
      <trkpt lat="45.52285" lon="6.76152">
        <ele>2099.5</ele>
        <time>2021-08-03T09:26:39Z</time>
      </trkpt>
      <trkpt lat="45.52285" lon="6.76152">
        <ele>2099.4</ele>
        <time>2021-08-03T09:26:40Z</time>
      </trkpt>
      <trkpt lat="45.52285" lon="6.76152">
        <ele>2099.4</ele>
        <time>2021-08-03T09:26:41Z</time>
      </trkpt>
      <trkpt lat="45.52285" lon="6.76152">
        <ele>2099.4</ele>
        <time>2021-08-03T09:26:42Z</time>
      </trkpt>
      <trkpt lat="45.52285" lon="6.76152">
        <ele>2099.4</ele>
        <time>2021-08-03T09:26:43Z</time>
      </trkpt>
      <trkpt lat="45.52285" lon="6.76152">
        <ele>2099.3</ele>
        <time>2021-08-03T09:26:44Z</time>
      </trkpt>
      <trkpt lat="45.52285" lon="6.76152">
        <ele>2099.3</ele>
        <time>2021-08-03T09:26:45Z</time>
      </trkpt>
      <trkpt lat="45.52285" lon="6.76152">
        <ele>2099.3</ele>
        <time>2021-08-03T09:26:46Z</time>
      </trkpt>
      <trkpt lat="45.52285" lon="6.76152">
        <ele>2099.3</ele>
        <time>2021-08-03T09:26:47Z</time>
      </trkpt>
      <trkpt lat="45.52285" lon="6.76152">
        <ele>2099.3</ele>
        <time>2021-08-03T09:26:48Z</time>
      </trkpt>
      <trkpt lat="45.52285" lon="6.76152">
        <ele>2099.2</ele>
        <time>2021-08-03T09:26:49Z</time>
      </trkpt>
      <trkpt lat="45.52286" lon="6.76152">
        <ele>2099.1</ele>
        <time>2021-08-03T09:26:50Z</time>
      </trkpt>
      <trkpt lat="45.52286" lon="6.76152">
        <ele>2099</ele>
        <time>2021-08-03T09:26:51Z</time>
      </trkpt>
      <trkpt lat="45.52286" lon="6.76152">
        <ele>2098.8</ele>
        <time>2021-08-03T09:26:52Z</time>
      </trkpt>
      <trkpt lat="45.52287" lon="6.76152">
        <ele>2098.5</ele>
        <time>2021-08-03T09:26:53Z</time>
      </trkpt>
      <trkpt lat="45.52287" lon="6.76152">
        <ele>2098.3</ele>
        <time>2021-08-03T09:26:54Z</time>
      </trkpt>
      <trkpt lat="45.52288" lon="6.76152">
        <ele>2098</ele>
        <time>2021-08-03T09:26:55Z</time>
      </trkpt>
      <trkpt lat="45.52288" lon="6.76152">
        <ele>2097.7</ele>
        <time>2021-08-03T09:26:56Z</time>
      </trkpt>
      <trkpt lat="45.52289" lon="6.76152">
        <ele>2097.4</ele>
        <time>2021-08-03T09:26:57Z</time>
      </trkpt>
      <trkpt lat="45.52289" lon="6.76152">
        <ele>2097.1</ele>
        <time>2021-08-03T09:26:58Z</time>
      </trkpt>
      <trkpt lat="45.5229" lon="6.76152">
        <ele>2096.9</ele>
        <time>2021-08-03T09:26:59Z</time>
      </trkpt>
      <trkpt lat="45.5229" lon="6.76151">
        <ele>2096.6</ele>
        <time>2021-08-03T09:27:00Z</time>
      </trkpt>
      <trkpt lat="45.52291" lon="6.76151">
        <ele>2096.4</ele>
        <time>2021-08-03T09:27:01Z</time>
      </trkpt>
      <trkpt lat="45.52291" lon="6.76151">
        <ele>2096.1</ele>
        <time>2021-08-03T09:27:02Z</time>
      </trkpt>
      <trkpt lat="45.52292" lon="6.76151">
        <ele>2095.9</ele>
        <time>2021-08-03T09:27:03Z</time>
      </trkpt>
      <trkpt lat="45.52292" lon="6.76152">
        <ele>2095.5</ele>
        <time>2021-08-03T09:27:04Z</time>
      </trkpt>
      <trkpt lat="45.52292" lon="6.76153">
        <ele>2095.2</ele>
        <time>2021-08-03T09:27:05Z</time>
      </trkpt>
      <trkpt lat="45.52293" lon="6.76154">
        <ele>2094.9</ele>
        <time>2021-08-03T09:27:06Z</time>
      </trkpt>
      <trkpt lat="45.52293" lon="6.76154">
        <ele>2094.6</ele>
        <time>2021-08-03T09:27:07Z</time>
      </trkpt>
      <trkpt lat="45.52293" lon="6.76155">
        <ele>2094.4</ele>
        <time>2021-08-03T09:27:08Z</time>
      </trkpt>
      <trkpt lat="45.52294" lon="6.76155">
        <ele>2094.2</ele>
        <time>2021-08-03T09:27:09Z</time>
      </trkpt>
      <trkpt lat="45.52294" lon="6.76156">
        <ele>2094</ele>
        <time>2021-08-03T09:27:10Z</time>
      </trkpt>
      <trkpt lat="45.52294" lon="6.76156">
        <ele>2093.8</ele>
        <time>2021-08-03T09:27:11Z</time>
      </trkpt>
      <trkpt lat="45.52294" lon="6.76156">
        <ele>2093.7</ele>
        <time>2021-08-03T09:27:12Z</time>
      </trkpt>
      <trkpt lat="45.52295" lon="6.76157">
        <ele>2093.4</ele>
        <time>2021-08-03T09:27:13Z</time>
      </trkpt>
      <trkpt lat="45.52295" lon="6.76157">
        <ele>2093.3</ele>
        <time>2021-08-03T09:27:14Z</time>
      </trkpt>
      <trkpt lat="45.52295" lon="6.76157">
        <ele>2093</ele>
        <time>2021-08-03T09:27:15Z</time>
      </trkpt>
      <trkpt lat="45.52296" lon="6.76157">
        <ele>2092.8</ele>
        <time>2021-08-03T09:27:16Z</time>
      </trkpt>
      <trkpt lat="45.52296" lon="6.76158">
        <ele>2092.5</ele>
        <time>2021-08-03T09:27:17Z</time>
      </trkpt>
      <trkpt lat="45.52297" lon="6.76158">
        <ele>2092.3</ele>
        <time>2021-08-03T09:27:18Z</time>
      </trkpt>
      <trkpt lat="45.52297" lon="6.76158">
        <ele>2092.1</ele>
        <time>2021-08-03T09:27:19Z</time>
      </trkpt>
      <trkpt lat="45.52297" lon="6.76158">
        <ele>2091.9</ele>
        <time>2021-08-03T09:27:20Z</time>
      </trkpt>
      <trkpt lat="45.52298" lon="6.76158">
        <ele>2091.8</ele>
        <time>2021-08-03T09:27:21Z</time>
      </trkpt>
      <trkpt lat="45.52298" lon="6.76158">
        <ele>2091.6</ele>
        <time>2021-08-03T09:27:22Z</time>
      </trkpt>
      <trkpt lat="45.52298" lon="6.76158">
        <ele>2091.5</ele>
        <time>2021-08-03T09:27:23Z</time>
      </trkpt>
      <trkpt lat="45.52298" lon="6.76157">
        <ele>2091.3</ele>
        <time>2021-08-03T09:27:24Z</time>
      </trkpt>
      <trkpt lat="45.52299" lon="6.76157">
        <ele>2091.2</ele>
        <time>2021-08-03T09:27:25Z</time>
      </trkpt>
      <trkpt lat="45.52299" lon="6.76157">
        <ele>2091.1</ele>
        <time>2021-08-03T09:27:26Z</time>
      </trkpt>
      <trkpt lat="45.52299" lon="6.76156">
        <ele>2090.9</ele>
        <time>2021-08-03T09:27:27Z</time>
      </trkpt>
      <trkpt lat="45.52299" lon="6.76156">
        <ele>2090.8</ele>
        <time>2021-08-03T09:27:28Z</time>
      </trkpt>
      <trkpt lat="45.52299" lon="6.76156">
        <ele>2090.6</ele>
        <time>2021-08-03T09:27:29Z</time>
      </trkpt>
      <trkpt lat="45.523" lon="6.76156">
        <ele>2090.4</ele>
        <time>2021-08-03T09:27:30Z</time>
      </trkpt>
      <trkpt lat="45.523" lon="6.76156">
        <ele>2090.2</ele>
        <time>2021-08-03T09:27:31Z</time>
      </trkpt>
      <trkpt lat="45.52301" lon="6.76156">
        <ele>2090</ele>
        <time>2021-08-03T09:27:32Z</time>
      </trkpt>
      <trkpt lat="45.52301" lon="6.76156">
        <ele>2089.7</ele>
        <time>2021-08-03T09:27:33Z</time>
      </trkpt>
      <trkpt lat="45.52302" lon="6.76156">
        <ele>2089.4</ele>
        <time>2021-08-03T09:27:34Z</time>
      </trkpt>
      <trkpt lat="45.52302" lon="6.76156">
        <ele>2089.2</ele>
        <time>2021-08-03T09:27:35Z</time>
      </trkpt>
      <trkpt lat="45.52303" lon="6.76156">
        <ele>2088.9</ele>
        <time>2021-08-03T09:27:36Z</time>
      </trkpt>
      <trkpt lat="45.52303" lon="6.76156">
        <ele>2088.6</ele>
        <time>2021-08-03T09:27:37Z</time>
      </trkpt>
      <trkpt lat="45.52304" lon="6.76156">
        <ele>2088.3</ele>
        <time>2021-08-03T09:27:38Z</time>
      </trkpt>
      <trkpt lat="45.52305" lon="6.76156">
        <ele>2087.9</ele>
        <time>2021-08-03T09:27:39Z</time>
      </trkpt>
      <trkpt lat="45.52305" lon="6.76157">
        <ele>2087.6</ele>
        <time>2021-08-03T09:27:40Z</time>
      </trkpt>
      <trkpt lat="45.52306" lon="6.76157">
        <ele>2087.3</ele>
        <time>2021-08-03T09:27:41Z</time>
      </trkpt>
      <trkpt lat="45.52306" lon="6.76157">
        <ele>2087.1</ele>
        <time>2021-08-03T09:27:42Z</time>
      </trkpt>
      <trkpt lat="45.52307" lon="6.76157">
        <ele>2086.8</ele>
        <time>2021-08-03T09:27:43Z</time>
      </trkpt>
      <trkpt lat="45.52307" lon="6.76157">
        <ele>2086.5</ele>
        <time>2021-08-03T09:27:44Z</time>
      </trkpt>
      <trkpt lat="45.52308" lon="6.76157">
        <ele>2086.3</ele>
        <time>2021-08-03T09:27:45Z</time>
      </trkpt>
      <trkpt lat="45.52308" lon="6.76157">
        <ele>2086.1</ele>
        <time>2021-08-03T09:27:46Z</time>
      </trkpt>
      <trkpt lat="45.52309" lon="6.76157">
        <ele>2085.9</ele>
        <time>2021-08-03T09:27:47Z</time>
      </trkpt>
      <trkpt lat="45.52309" lon="6.76157">
        <ele>2085.7</ele>
        <time>2021-08-03T09:27:48Z</time>
      </trkpt>
      <trkpt lat="45.52309" lon="6.76157">
        <ele>2085.6</ele>
        <time>2021-08-03T09:27:49Z</time>
      </trkpt>
      <trkpt lat="45.5231" lon="6.76157">
        <ele>2085.4</ele>
        <time>2021-08-03T09:27:50Z</time>
      </trkpt>
      <trkpt lat="45.5231" lon="6.76157">
        <ele>2085.3</ele>
        <time>2021-08-03T09:27:51Z</time>
      </trkpt>
      <trkpt lat="45.5231" lon="6.76157">
        <ele>2085.2</ele>
        <time>2021-08-03T09:27:52Z</time>
      </trkpt>
      <trkpt lat="45.52311" lon="6.76157">
        <ele>2085</ele>
        <time>2021-08-03T09:27:53Z</time>
      </trkpt>
      <trkpt lat="45.52311" lon="6.76157">
        <ele>2084.8</ele>
        <time>2021-08-03T09:27:54Z</time>
      </trkpt>
      <trkpt lat="45.52311" lon="6.76157">
        <ele>2084.7</ele>
        <time>2021-08-03T09:27:55Z</time>
      </trkpt>
      <trkpt lat="45.52312" lon="6.76156">
        <ele>2084.5</ele>
        <time>2021-08-03T09:27:56Z</time>
      </trkpt>
      <trkpt lat="45.52312" lon="6.76156">
        <ele>2084.3</ele>
        <time>2021-08-03T09:27:57Z</time>
      </trkpt>
      <trkpt lat="45.52312" lon="6.76156">
        <ele>2084.2</ele>
        <time>2021-08-03T09:27:58Z</time>
      </trkpt>
      <trkpt lat="45.52312" lon="6.76156">
        <ele>2084.1</ele>
        <time>2021-08-03T09:27:59Z</time>
      </trkpt>
      <trkpt lat="45.52313" lon="6.76156">
        <ele>2084</ele>
        <time>2021-08-03T09:28:00Z</time>
      </trkpt>
      <trkpt lat="45.52313" lon="6.76156">
        <ele>2083.9</ele>
        <time>2021-08-03T09:28:01Z</time>
      </trkpt>
      <trkpt lat="45.52313" lon="6.76156">
        <ele>2083.8</ele>
        <time>2021-08-03T09:28:02Z</time>
      </trkpt>
      <trkpt lat="45.52313" lon="6.76156">
        <ele>2083.8</ele>
        <time>2021-08-03T09:28:03Z</time>
      </trkpt>
      <trkpt lat="45.52313" lon="6.76155">
        <ele>2083.7</ele>
        <time>2021-08-03T09:28:04Z</time>
      </trkpt>
      <trkpt lat="45.52313" lon="6.76155">
        <ele>2083.7</ele>
        <time>2021-08-03T09:28:05Z</time>
      </trkpt>
      <trkpt lat="45.52313" lon="6.76155">
        <ele>2083.6</ele>
        <time>2021-08-03T09:28:06Z</time>
      </trkpt>
      <trkpt lat="45.52313" lon="6.76155">
        <ele>2083.6</ele>
        <time>2021-08-03T09:28:07Z</time>
      </trkpt>
      <trkpt lat="45.52313" lon="6.76155">
        <ele>2083.5</ele>
        <time>2021-08-03T09:28:08Z</time>
      </trkpt>
      <trkpt lat="45.52313" lon="6.76155">
        <ele>2083.5</ele>
        <time>2021-08-03T09:28:09Z</time>
      </trkpt>
      <trkpt lat="45.52313" lon="6.76155">
        <ele>2083.5</ele>
        <time>2021-08-03T09:28:10Z</time>
      </trkpt>
      <trkpt lat="45.52313" lon="6.76155">
        <ele>2083.4</ele>
        <time>2021-08-03T09:28:11Z</time>
      </trkpt>
      <trkpt lat="45.52313" lon="6.76155">
        <ele>2083.4</ele>
        <time>2021-08-03T09:28:12Z</time>
      </trkpt>
      <trkpt lat="45.52313" lon="6.76155">
        <ele>2083.4</ele>
        <time>2021-08-03T09:28:13Z</time>
      </trkpt>
      <trkpt lat="45.52313" lon="6.76155">
        <ele>2083.3</ele>
        <time>2021-08-03T09:28:14Z</time>
      </trkpt>
      <trkpt lat="45.52313" lon="6.76155">
        <ele>2083.2</ele>
        <time>2021-08-03T09:28:15Z</time>
      </trkpt>
      <trkpt lat="45.52313" lon="6.76155">
        <ele>2083.1</ele>
        <time>2021-08-03T09:28:16Z</time>
      </trkpt>
      <trkpt lat="45.52314" lon="6.76155">
        <ele>2082.9</ele>
        <time>2021-08-03T09:28:17Z</time>
      </trkpt>
      <trkpt lat="45.52314" lon="6.76156">
        <ele>2082.7</ele>
        <time>2021-08-03T09:28:18Z</time>
      </trkpt>
      <trkpt lat="45.52314" lon="6.76156">
        <ele>2082.5</ele>
        <time>2021-08-03T09:28:19Z</time>
      </trkpt>
      <trkpt lat="45.52315" lon="6.76156">
        <ele>2082.3</ele>
        <time>2021-08-03T09:28:20Z</time>
      </trkpt>
      <trkpt lat="45.52316" lon="6.76156">
        <ele>2082</ele>
        <time>2021-08-03T09:28:21Z</time>
      </trkpt>
      <trkpt lat="45.52316" lon="6.76156">
        <ele>2081.7</ele>
        <time>2021-08-03T09:28:22Z</time>
      </trkpt>
      <trkpt lat="45.52317" lon="6.76156">
        <ele>2081.4</ele>
        <time>2021-08-03T09:28:23Z</time>
      </trkpt>
      <trkpt lat="45.52317" lon="6.76157">
        <ele>2081.2</ele>
        <time>2021-08-03T09:28:24Z</time>
      </trkpt>
      <trkpt lat="45.52318" lon="6.76157">
        <ele>2080.9</ele>
        <time>2021-08-03T09:28:25Z</time>
      </trkpt>
      <trkpt lat="45.52318" lon="6.76157">
        <ele>2080.7</ele>
        <time>2021-08-03T09:28:26Z</time>
      </trkpt>
      <trkpt lat="45.52319" lon="6.76157">
        <ele>2080.4</ele>
        <time>2021-08-03T09:28:27Z</time>
      </trkpt>
      <trkpt lat="45.52319" lon="6.76157">
        <ele>2080.2</ele>
        <time>2021-08-03T09:28:28Z</time>
      </trkpt>
      <trkpt lat="45.5232" lon="6.76158">
        <ele>2080</ele>
        <time>2021-08-03T09:28:29Z</time>
      </trkpt>
      <trkpt lat="45.5232" lon="6.76158">
        <ele>2079.8</ele>
        <time>2021-08-03T09:28:30Z</time>
      </trkpt>
      <trkpt lat="45.5232" lon="6.76158">
        <ele>2079.6</ele>
        <time>2021-08-03T09:28:31Z</time>
      </trkpt>
      <trkpt lat="45.52321" lon="6.76158">
        <ele>2079.3</ele>
        <time>2021-08-03T09:28:32Z</time>
      </trkpt>
      <trkpt lat="45.52321" lon="6.76158">
        <ele>2079.1</ele>
        <time>2021-08-03T09:28:33Z</time>
      </trkpt>
      <trkpt lat="45.52322" lon="6.76158">
        <ele>2078.9</ele>
        <time>2021-08-03T09:28:34Z</time>
      </trkpt>
      <trkpt lat="45.52322" lon="6.76158">
        <ele>2078.7</ele>
        <time>2021-08-03T09:28:35Z</time>
      </trkpt>
      <trkpt lat="45.52322" lon="6.76158">
        <ele>2078.5</ele>
        <time>2021-08-03T09:28:36Z</time>
      </trkpt>
      <trkpt lat="45.52323" lon="6.76158">
        <ele>2078.3</ele>
        <time>2021-08-03T09:28:37Z</time>
      </trkpt>
      <trkpt lat="45.52323" lon="6.76159">
        <ele>2078.1</ele>
        <time>2021-08-03T09:28:38Z</time>
      </trkpt>
      <trkpt lat="45.52323" lon="6.7616">
        <ele>2077.8</ele>
        <time>2021-08-03T09:28:39Z</time>
      </trkpt>
      <trkpt lat="45.52323" lon="6.7616">
        <ele>2077.6</ele>
        <time>2021-08-03T09:28:40Z</time>
      </trkpt>
      <trkpt lat="45.52324" lon="6.76161">
        <ele>2077.3</ele>
        <time>2021-08-03T09:28:41Z</time>
      </trkpt>
      <trkpt lat="45.52324" lon="6.76161">
        <ele>2077.1</ele>
        <time>2021-08-03T09:28:42Z</time>
      </trkpt>
      <trkpt lat="45.52324" lon="6.76162">
        <ele>2076.9</ele>
        <time>2021-08-03T09:28:43Z</time>
      </trkpt>
      <trkpt lat="45.52325" lon="6.76162">
        <ele>2076.6</ele>
        <time>2021-08-03T09:28:44Z</time>
      </trkpt>
      <trkpt lat="45.52325" lon="6.76162">
        <ele>2076.4</ele>
        <time>2021-08-03T09:28:45Z</time>
      </trkpt>
      <trkpt lat="45.52326" lon="6.76162">
        <ele>2076.2</ele>
        <time>2021-08-03T09:28:46Z</time>
      </trkpt>
      <trkpt lat="45.52326" lon="6.76163">
        <ele>2075.9</ele>
        <time>2021-08-03T09:28:47Z</time>
      </trkpt>
      <trkpt lat="45.52327" lon="6.76163">
        <ele>2075.7</ele>
        <time>2021-08-03T09:28:48Z</time>
      </trkpt>
      <trkpt lat="45.52327" lon="6.76163">
        <ele>2075.5</ele>
        <time>2021-08-03T09:28:49Z</time>
      </trkpt>
      <trkpt lat="45.52328" lon="6.76162">
        <ele>2075.2</ele>
        <time>2021-08-03T09:28:50Z</time>
      </trkpt>
      <trkpt lat="45.52328" lon="6.76162">
        <ele>2075</ele>
        <time>2021-08-03T09:28:51Z</time>
      </trkpt>
      <trkpt lat="45.52329" lon="6.76162">
        <ele>2074.8</ele>
        <time>2021-08-03T09:28:52Z</time>
      </trkpt>
      <trkpt lat="45.52329" lon="6.76162">
        <ele>2074.5</ele>
        <time>2021-08-03T09:28:53Z</time>
      </trkpt>
      <trkpt lat="45.52329" lon="6.76162">
        <ele>2074.3</ele>
        <time>2021-08-03T09:28:54Z</time>
      </trkpt>
      <trkpt lat="45.5233" lon="6.76162">
        <ele>2074.1</ele>
        <time>2021-08-03T09:28:55Z</time>
      </trkpt>
      <trkpt lat="45.5233" lon="6.76162">
        <ele>2073.9</ele>
        <time>2021-08-03T09:28:56Z</time>
      </trkpt>
      <trkpt lat="45.52331" lon="6.76161">
        <ele>2073.7</ele>
        <time>2021-08-03T09:28:57Z</time>
      </trkpt>
      <trkpt lat="45.52331" lon="6.76161">
        <ele>2073.5</ele>
        <time>2021-08-03T09:28:58Z</time>
      </trkpt>
      <trkpt lat="45.52332" lon="6.76161">
        <ele>2073.3</ele>
        <time>2021-08-03T09:28:59Z</time>
      </trkpt>
      <trkpt lat="45.52332" lon="6.76161">
        <ele>2073.2</ele>
        <time>2021-08-03T09:29:00Z</time>
      </trkpt>
      <trkpt lat="45.52332" lon="6.76161">
        <ele>2073</ele>
        <time>2021-08-03T09:29:01Z</time>
      </trkpt>
      <trkpt lat="45.52333" lon="6.76161">
        <ele>2072.9</ele>
        <time>2021-08-03T09:29:02Z</time>
      </trkpt>
      <trkpt lat="45.52333" lon="6.76161">
        <ele>2072.7</ele>
        <time>2021-08-03T09:29:03Z</time>
      </trkpt>
      <trkpt lat="45.52333" lon="6.76161">
        <ele>2072.6</ele>
        <time>2021-08-03T09:29:04Z</time>
      </trkpt>
      <trkpt lat="45.52334" lon="6.76161">
        <ele>2072.4</ele>
        <time>2021-08-03T09:29:05Z</time>
      </trkpt>
      <trkpt lat="45.52334" lon="6.76161">
        <ele>2072.3</ele>
        <time>2021-08-03T09:29:06Z</time>
      </trkpt>
      <trkpt lat="45.52334" lon="6.76161">
        <ele>2072.1</ele>
        <time>2021-08-03T09:29:07Z</time>
      </trkpt>
      <trkpt lat="45.52334" lon="6.76161">
        <ele>2072</ele>
        <time>2021-08-03T09:29:08Z</time>
      </trkpt>
      <trkpt lat="45.52335" lon="6.76161">
        <ele>2071.9</ele>
        <time>2021-08-03T09:29:09Z</time>
      </trkpt>
      <trkpt lat="45.52335" lon="6.7616">
        <ele>2071.7</ele>
        <time>2021-08-03T09:29:10Z</time>
      </trkpt>
      <trkpt lat="45.52335" lon="6.7616">
        <ele>2071.6</ele>
        <time>2021-08-03T09:29:11Z</time>
      </trkpt>
      <trkpt lat="45.52336" lon="6.7616">
        <ele>2071.5</ele>
        <time>2021-08-03T09:29:12Z</time>
      </trkpt>
      <trkpt lat="45.52336" lon="6.7616">
        <ele>2071.3</ele>
        <time>2021-08-03T09:29:13Z</time>
      </trkpt>
      <trkpt lat="45.52336" lon="6.7616">
        <ele>2071.2</ele>
        <time>2021-08-03T09:29:14Z</time>
      </trkpt>
      <trkpt lat="45.52337" lon="6.7616">
        <ele>2071.1</ele>
        <time>2021-08-03T09:29:15Z</time>
      </trkpt>
      <trkpt lat="45.52337" lon="6.76159">
        <ele>2070.9</ele>
        <time>2021-08-03T09:29:16Z</time>
      </trkpt>
      <trkpt lat="45.52337" lon="6.76159">
        <ele>2070.7</ele>
        <time>2021-08-03T09:29:17Z</time>
      </trkpt>
      <trkpt lat="45.52338" lon="6.76159">
        <ele>2070.6</ele>
        <time>2021-08-03T09:29:18Z</time>
      </trkpt>
      <trkpt lat="45.52338" lon="6.76159">
        <ele>2070.4</ele>
        <time>2021-08-03T09:29:19Z</time>
      </trkpt>
      <trkpt lat="45.52338" lon="6.76158">
        <ele>2070.2</ele>
        <time>2021-08-03T09:29:20Z</time>
      </trkpt>
      <trkpt lat="45.52339" lon="6.76158">
        <ele>2070.1</ele>
        <time>2021-08-03T09:29:21Z</time>
      </trkpt>
      <trkpt lat="45.52339" lon="6.76158">
        <ele>2069.9</ele>
        <time>2021-08-03T09:29:22Z</time>
      </trkpt>
      <trkpt lat="45.5234" lon="6.76158">
        <ele>2069.7</ele>
        <time>2021-08-03T09:29:23Z</time>
      </trkpt>
      <trkpt lat="45.5234" lon="6.76157">
        <ele>2069.5</ele>
        <time>2021-08-03T09:29:24Z</time>
      </trkpt>
      <trkpt lat="45.5234" lon="6.76157">
        <ele>2069.3</ele>
        <time>2021-08-03T09:29:25Z</time>
      </trkpt>
      <trkpt lat="45.52341" lon="6.76157">
        <ele>2069.1</ele>
        <time>2021-08-03T09:29:26Z</time>
      </trkpt>
      <trkpt lat="45.52341" lon="6.76157">
        <ele>2069</ele>
        <time>2021-08-03T09:29:27Z</time>
      </trkpt>
      <trkpt lat="45.52342" lon="6.76157">
        <ele>2068.8</ele>
        <time>2021-08-03T09:29:28Z</time>
      </trkpt>
      <trkpt lat="45.52342" lon="6.76157">
        <ele>2068.6</ele>
        <time>2021-08-03T09:29:29Z</time>
      </trkpt>
      <trkpt lat="45.52343" lon="6.76158">
        <ele>2068.4</ele>
        <time>2021-08-03T09:29:30Z</time>
      </trkpt>
      <trkpt lat="45.52343" lon="6.76158">
        <ele>2068.1</ele>
        <time>2021-08-03T09:29:31Z</time>
      </trkpt>
      <trkpt lat="45.52344" lon="6.76158">
        <ele>2067.9</ele>
        <time>2021-08-03T09:29:32Z</time>
      </trkpt>
      <trkpt lat="45.52344" lon="6.76158">
        <ele>2067.8</ele>
        <time>2021-08-03T09:29:33Z</time>
      </trkpt>
      <trkpt lat="45.52345" lon="6.76159">
        <ele>2067.5</ele>
        <time>2021-08-03T09:29:34Z</time>
      </trkpt>
      <trkpt lat="45.52346" lon="6.76159">
        <ele>2067.3</ele>
        <time>2021-08-03T09:29:35Z</time>
      </trkpt>
      <trkpt lat="45.52346" lon="6.76159">
        <ele>2067.1</ele>
        <time>2021-08-03T09:29:36Z</time>
      </trkpt>
      <trkpt lat="45.52347" lon="6.76159">
        <ele>2066.8</ele>
        <time>2021-08-03T09:29:37Z</time>
      </trkpt>
      <trkpt lat="45.52347" lon="6.76159">
        <ele>2066.6</ele>
        <time>2021-08-03T09:29:38Z</time>
      </trkpt>
      <trkpt lat="45.52348" lon="6.76159">
        <ele>2066.5</ele>
        <time>2021-08-03T09:29:39Z</time>
      </trkpt>
      <trkpt lat="45.52348" lon="6.76159">
        <ele>2066.2</ele>
        <time>2021-08-03T09:29:40Z</time>
      </trkpt>
      <trkpt lat="45.52349" lon="6.76159">
        <ele>2066</ele>
        <time>2021-08-03T09:29:41Z</time>
      </trkpt>
      <trkpt lat="45.52349" lon="6.76158">
        <ele>2065.8</ele>
        <time>2021-08-03T09:29:42Z</time>
      </trkpt>
      <trkpt lat="45.5235" lon="6.76158">
        <ele>2065.6</ele>
        <time>2021-08-03T09:29:43Z</time>
      </trkpt>
      <trkpt lat="45.52351" lon="6.76158">
        <ele>2065.4</ele>
        <time>2021-08-03T09:29:44Z</time>
      </trkpt>
      <trkpt lat="45.52351" lon="6.76158">
        <ele>2065.2</ele>
        <time>2021-08-03T09:29:45Z</time>
      </trkpt>
      <trkpt lat="45.52352" lon="6.76158">
        <ele>2064.9</ele>
        <time>2021-08-03T09:29:46Z</time>
      </trkpt>
      <trkpt lat="45.52352" lon="6.76158">
        <ele>2064.8</ele>
        <time>2021-08-03T09:29:47Z</time>
      </trkpt>
      <trkpt lat="45.52352" lon="6.76158">
        <ele>2064.6</ele>
        <time>2021-08-03T09:29:48Z</time>
      </trkpt>
      <trkpt lat="45.52353" lon="6.76158">
        <ele>2064.5</ele>
        <time>2021-08-03T09:29:49Z</time>
      </trkpt>
      <trkpt lat="45.52353" lon="6.76158">
        <ele>2064.3</ele>
        <time>2021-08-03T09:29:50Z</time>
      </trkpt>
      <trkpt lat="45.52354" lon="6.76159">
        <ele>2064.2</ele>
        <time>2021-08-03T09:29:51Z</time>
      </trkpt>
      <trkpt lat="45.52354" lon="6.76159">
        <ele>2064.1</ele>
        <time>2021-08-03T09:29:52Z</time>
      </trkpt>
      <trkpt lat="45.52354" lon="6.76159">
        <ele>2064</ele>
        <time>2021-08-03T09:29:53Z</time>
      </trkpt>
      <trkpt lat="45.52354" lon="6.76159">
        <ele>2063.9</ele>
        <time>2021-08-03T09:29:54Z</time>
      </trkpt>
      <trkpt lat="45.52354" lon="6.76159">
        <ele>2063.8</ele>
        <time>2021-08-03T09:29:55Z</time>
      </trkpt>
      <trkpt lat="45.52355" lon="6.76159">
        <ele>2063.8</ele>
        <time>2021-08-03T09:29:56Z</time>
      </trkpt>
      <trkpt lat="45.52355" lon="6.76159">
        <ele>2063.8</ele>
        <time>2021-08-03T09:29:57Z</time>
      </trkpt>
      <trkpt lat="45.52355" lon="6.76159">
        <ele>2063.8</ele>
        <time>2021-08-03T09:29:58Z</time>
      </trkpt>
      <trkpt lat="45.52355" lon="6.76159">
        <ele>2063.8</ele>
        <time>2021-08-03T09:29:59Z</time>
      </trkpt>
      <trkpt lat="45.52355" lon="6.76159">
        <ele>2063.8</ele>
        <time>2021-08-03T09:30:00Z</time>
      </trkpt>
      <trkpt lat="45.52355" lon="6.76159">
        <ele>2063.7</ele>
        <time>2021-08-03T09:30:01Z</time>
      </trkpt>
      <trkpt lat="45.52355" lon="6.76159">
        <ele>2063.8</ele>
        <time>2021-08-03T09:30:02Z</time>
      </trkpt>
      <trkpt lat="45.52355" lon="6.76159">
        <ele>2063.8</ele>
        <time>2021-08-03T09:30:03Z</time>
      </trkpt>
      <trkpt lat="45.52355" lon="6.76159">
        <ele>2063.8</ele>
        <time>2021-08-03T09:30:04Z</time>
      </trkpt>
      <trkpt lat="45.52355" lon="6.76159">
        <ele>2063.8</ele>
        <time>2021-08-03T09:30:05Z</time>
      </trkpt>
      <trkpt lat="45.52355" lon="6.76159">
        <ele>2063.8</ele>
        <time>2021-08-03T09:30:06Z</time>
      </trkpt>
      <trkpt lat="45.52355" lon="6.76159">
        <ele>2063.8</ele>
        <time>2021-08-03T09:30:07Z</time>
      </trkpt>
      <trkpt lat="45.52355" lon="6.76159">
        <ele>2063.8</ele>
        <time>2021-08-03T09:30:08Z</time>
      </trkpt>
      <trkpt lat="45.52355" lon="6.76159">
        <ele>2063.9</ele>
        <time>2021-08-03T09:30:09Z</time>
      </trkpt>
      <trkpt lat="45.52355" lon="6.76159">
        <ele>2063.9</ele>
        <time>2021-08-03T09:30:10Z</time>
      </trkpt>
      <trkpt lat="45.52355" lon="6.76159">
        <ele>2063.9</ele>
        <time>2021-08-03T09:30:11Z</time>
      </trkpt>
      <trkpt lat="45.52355" lon="6.76159">
        <ele>2063.9</ele>
        <time>2021-08-03T09:30:12Z</time>
      </trkpt>
      <trkpt lat="45.52355" lon="6.76159">
        <ele>2063.9</ele>
        <time>2021-08-03T09:30:13Z</time>
      </trkpt>
      <trkpt lat="45.52355" lon="6.76159">
        <ele>2063.9</ele>
        <time>2021-08-03T09:30:14Z</time>
      </trkpt>
      <trkpt lat="45.52355" lon="6.76159">
        <ele>2063.9</ele>
        <time>2021-08-03T09:30:15Z</time>
      </trkpt>
      <trkpt lat="45.52355" lon="6.76159">
        <ele>2063.9</ele>
        <time>2021-08-03T09:30:16Z</time>
      </trkpt>
      <trkpt lat="45.52355" lon="6.76159">
        <ele>2064</ele>
        <time>2021-08-03T09:30:17Z</time>
      </trkpt>
      <trkpt lat="45.52355" lon="6.76159">
        <ele>2064</ele>
        <time>2021-08-03T09:30:18Z</time>
      </trkpt>
      <trkpt lat="45.52355" lon="6.76159">
        <ele>2064</ele>
        <time>2021-08-03T09:30:19Z</time>
      </trkpt>
      <trkpt lat="45.52355" lon="6.76159">
        <ele>2064</ele>
        <time>2021-08-03T09:30:20Z</time>
      </trkpt>
      <trkpt lat="45.52355" lon="6.76159">
        <ele>2064</ele>
        <time>2021-08-03T09:30:21Z</time>
      </trkpt>
      <trkpt lat="45.52355" lon="6.76159">
        <ele>2064.1</ele>
        <time>2021-08-03T09:30:22Z</time>
      </trkpt>
      <trkpt lat="45.52355" lon="6.76159">
        <ele>2064.1</ele>
        <time>2021-08-03T09:30:23Z</time>
      </trkpt>
      <trkpt lat="45.52355" lon="6.76159">
        <ele>2064.1</ele>
        <time>2021-08-03T09:30:24Z</time>
      </trkpt>
      <trkpt lat="45.52355" lon="6.76159">
        <ele>2064.1</ele>
        <time>2021-08-03T09:30:25Z</time>
      </trkpt>
      <trkpt lat="45.52355" lon="6.76159">
        <ele>2064.1</ele>
        <time>2021-08-03T09:30:26Z</time>
      </trkpt>
      <trkpt lat="45.52355" lon="6.76159">
        <ele>2064.2</ele>
        <time>2021-08-03T09:30:27Z</time>
      </trkpt>
      <trkpt lat="45.52355" lon="6.76159">
        <ele>2064.2</ele>
        <time>2021-08-03T09:30:28Z</time>
      </trkpt>
      <trkpt lat="45.52355" lon="6.76159">
        <ele>2064.2</ele>
        <time>2021-08-03T09:30:29Z</time>
      </trkpt>
      <trkpt lat="45.52355" lon="6.76159">
        <ele>2064.2</ele>
        <time>2021-08-03T09:30:30Z</time>
      </trkpt>
      <trkpt lat="45.52355" lon="6.76159">
        <ele>2064.2</ele>
        <time>2021-08-03T09:30:31Z</time>
      </trkpt>
      <trkpt lat="45.52355" lon="6.76159">
        <ele>2064.3</ele>
        <time>2021-08-03T09:30:32Z</time>
      </trkpt>
      <trkpt lat="45.52355" lon="6.76159">
        <ele>2064.3</ele>
        <time>2021-08-03T09:30:33Z</time>
      </trkpt>
      <trkpt lat="45.52355" lon="6.76159">
        <ele>2064.3</ele>
        <time>2021-08-03T09:30:34Z</time>
      </trkpt>
      <trkpt lat="45.52355" lon="6.76159">
        <ele>2064.3</ele>
        <time>2021-08-03T09:30:35Z</time>
      </trkpt>
      <trkpt lat="45.52355" lon="6.76159">
        <ele>2064.3</ele>
        <time>2021-08-03T09:30:36Z</time>
      </trkpt>
      <trkpt lat="45.52355" lon="6.76159">
        <ele>2064.4</ele>
        <time>2021-08-03T09:30:37Z</time>
      </trkpt>
      <trkpt lat="45.52355" lon="6.76159">
        <ele>2064.4</ele>
        <time>2021-08-03T09:30:38Z</time>
      </trkpt>
      <trkpt lat="45.52355" lon="6.76159">
        <ele>2064.4</ele>
        <time>2021-08-03T09:30:39Z</time>
      </trkpt>
      <trkpt lat="45.52355" lon="6.76159">
        <ele>2064.4</ele>
        <time>2021-08-03T09:30:40Z</time>
      </trkpt>
      <trkpt lat="45.52355" lon="6.76159">
        <ele>2064.4</ele>
        <time>2021-08-03T09:30:41Z</time>
      </trkpt>
      <trkpt lat="45.52355" lon="6.76159">
        <ele>2064.5</ele>
        <time>2021-08-03T09:30:42Z</time>
      </trkpt>
      <trkpt lat="45.52355" lon="6.76159">
        <ele>2064.5</ele>
        <time>2021-08-03T09:30:43Z</time>
      </trkpt>
      <trkpt lat="45.52355" lon="6.76159">
        <ele>2064.5</ele>
        <time>2021-08-03T09:30:44Z</time>
      </trkpt>
      <trkpt lat="45.52355" lon="6.76159">
        <ele>2064.5</ele>
        <time>2021-08-03T09:30:45Z</time>
      </trkpt>
      <trkpt lat="45.52355" lon="6.76159">
        <ele>2064.5</ele>
        <time>2021-08-03T09:30:46Z</time>
      </trkpt>
      <trkpt lat="45.52355" lon="6.76159">
        <ele>2064.6</ele>
        <time>2021-08-03T09:30:47Z</time>
      </trkpt>
      <trkpt lat="45.52355" lon="6.76159">
        <ele>2064.6</ele>
        <time>2021-08-03T09:30:48Z</time>
      </trkpt>
      <trkpt lat="45.52355" lon="6.76159">
        <ele>2064.6</ele>
        <time>2021-08-03T09:30:49Z</time>
      </trkpt>
      <trkpt lat="45.52355" lon="6.76159">
        <ele>2064.6</ele>
        <time>2021-08-03T09:30:50Z</time>
      </trkpt>
      <trkpt lat="45.52355" lon="6.76159">
        <ele>2064.6</ele>
        <time>2021-08-03T09:30:51Z</time>
      </trkpt>
      <trkpt lat="45.52355" lon="6.76159">
        <ele>2064.7</ele>
        <time>2021-08-03T09:30:52Z</time>
      </trkpt>
      <trkpt lat="45.52355" lon="6.76159">
        <ele>2064.7</ele>
        <time>2021-08-03T09:30:53Z</time>
      </trkpt>
      <trkpt lat="45.52355" lon="6.76159">
        <ele>2064.7</ele>
        <time>2021-08-03T09:30:54Z</time>
      </trkpt>
      <trkpt lat="45.52355" lon="6.76159">
        <ele>2064.6</ele>
        <time>2021-08-03T09:30:55Z</time>
      </trkpt>
      <trkpt lat="45.52355" lon="6.76159">
        <ele>2064.6</ele>
        <time>2021-08-03T09:30:56Z</time>
      </trkpt>
      <trkpt lat="45.52355" lon="6.76159">
        <ele>2064.7</ele>
        <time>2021-08-03T09:30:57Z</time>
      </trkpt>
      <trkpt lat="45.52355" lon="6.76159">
        <ele>2064.7</ele>
        <time>2021-08-03T09:30:58Z</time>
      </trkpt>
      <trkpt lat="45.52355" lon="6.76159">
        <ele>2064.6</ele>
        <time>2021-08-03T09:30:59Z</time>
      </trkpt>
      <trkpt lat="45.52355" lon="6.76159">
        <ele>2064.6</ele>
        <time>2021-08-03T09:31:00Z</time>
      </trkpt>
      <trkpt lat="45.52356" lon="6.76159">
        <ele>2064.4</ele>
        <time>2021-08-03T09:31:01Z</time>
      </trkpt>
      <trkpt lat="45.52356" lon="6.76159">
        <ele>2064.3</ele>
        <time>2021-08-03T09:31:02Z</time>
      </trkpt>
      <trkpt lat="45.52356" lon="6.76158">
        <ele>2064.2</ele>
        <time>2021-08-03T09:31:03Z</time>
      </trkpt>
      <trkpt lat="45.52357" lon="6.76158">
        <ele>2063.9</ele>
        <time>2021-08-03T09:31:04Z</time>
      </trkpt>
      <trkpt lat="45.52358" lon="6.76158">
        <ele>2063.7</ele>
        <time>2021-08-03T09:31:05Z</time>
      </trkpt>
      <trkpt lat="45.52358" lon="6.76158">
        <ele>2063.4</ele>
        <time>2021-08-03T09:31:06Z</time>
      </trkpt>
      <trkpt lat="45.52359" lon="6.76158">
        <ele>2063.1</ele>
        <time>2021-08-03T09:31:07Z</time>
      </trkpt>
      <trkpt lat="45.5236" lon="6.76159">
        <ele>2062.8</ele>
        <time>2021-08-03T09:31:08Z</time>
      </trkpt>
      <trkpt lat="45.5236" lon="6.76159">
        <ele>2062.5</ele>
        <time>2021-08-03T09:31:09Z</time>
      </trkpt>
      <trkpt lat="45.52361" lon="6.76159">
        <ele>2062.1</ele>
        <time>2021-08-03T09:31:10Z</time>
      </trkpt>
      <trkpt lat="45.52361" lon="6.7616">
        <ele>2061.9</ele>
        <time>2021-08-03T09:31:11Z</time>
      </trkpt>
      <trkpt lat="45.52362" lon="6.7616">
        <ele>2061.6</ele>
        <time>2021-08-03T09:31:12Z</time>
      </trkpt>
      <trkpt lat="45.52362" lon="6.76161">
        <ele>2061.3</ele>
        <time>2021-08-03T09:31:13Z</time>
      </trkpt>
      <trkpt lat="45.52363" lon="6.76161">
        <ele>2061</ele>
        <time>2021-08-03T09:31:14Z</time>
      </trkpt>
      <trkpt lat="45.52363" lon="6.76162">
        <ele>2060.7</ele>
        <time>2021-08-03T09:31:15Z</time>
      </trkpt>
      <trkpt lat="45.52364" lon="6.76163">
        <ele>2060.5</ele>
        <time>2021-08-03T09:31:16Z</time>
      </trkpt>
      <trkpt lat="45.52364" lon="6.76163">
        <ele>2060.2</ele>
        <time>2021-08-03T09:31:17Z</time>
      </trkpt>
      <trkpt lat="45.52364" lon="6.76164">
        <ele>2059.9</ele>
        <time>2021-08-03T09:31:18Z</time>
      </trkpt>
      <trkpt lat="45.52365" lon="6.76164">
        <ele>2059.7</ele>
        <time>2021-08-03T09:31:19Z</time>
      </trkpt>
      <trkpt lat="45.52366" lon="6.76164">
        <ele>2059.4</ele>
        <time>2021-08-03T09:31:20Z</time>
      </trkpt>
      <trkpt lat="45.52366" lon="6.76164">
        <ele>2059.2</ele>
        <time>2021-08-03T09:31:21Z</time>
      </trkpt>
      <trkpt lat="45.52367" lon="6.76164">
        <ele>2058.9</ele>
        <time>2021-08-03T09:31:22Z</time>
      </trkpt>
      <trkpt lat="45.52367" lon="6.76164">
        <ele>2058.7</ele>
        <time>2021-08-03T09:31:23Z</time>
      </trkpt>
      <trkpt lat="45.52368" lon="6.76164">
        <ele>2058.5</ele>
        <time>2021-08-03T09:31:24Z</time>
      </trkpt>
      <trkpt lat="45.52368" lon="6.76164">
        <ele>2058.2</ele>
        <time>2021-08-03T09:31:25Z</time>
      </trkpt>
      <trkpt lat="45.52369" lon="6.76164">
        <ele>2058</ele>
        <time>2021-08-03T09:31:26Z</time>
      </trkpt>
      <trkpt lat="45.52369" lon="6.76164">
        <ele>2057.8</ele>
        <time>2021-08-03T09:31:27Z</time>
      </trkpt>
      <trkpt lat="45.52369" lon="6.76164">
        <ele>2057.7</ele>
        <time>2021-08-03T09:31:28Z</time>
      </trkpt>
      <trkpt lat="45.5237" lon="6.76164">
        <ele>2057.5</ele>
        <time>2021-08-03T09:31:29Z</time>
      </trkpt>
      <trkpt lat="45.5237" lon="6.76163">
        <ele>2057.4</ele>
        <time>2021-08-03T09:31:30Z</time>
      </trkpt>
      <trkpt lat="45.5237" lon="6.76163">
        <ele>2057.3</ele>
        <time>2021-08-03T09:31:31Z</time>
      </trkpt>
      <trkpt lat="45.5237" lon="6.76163">
        <ele>2057.2</ele>
        <time>2021-08-03T09:31:32Z</time>
      </trkpt>
      <trkpt lat="45.52371" lon="6.76163">
        <ele>2057.1</ele>
        <time>2021-08-03T09:31:33Z</time>
      </trkpt>
      <trkpt lat="45.52371" lon="6.76163">
        <ele>2057</ele>
        <time>2021-08-03T09:31:34Z</time>
      </trkpt>
      <trkpt lat="45.52371" lon="6.76163">
        <ele>2056.9</ele>
        <time>2021-08-03T09:31:35Z</time>
      </trkpt>
      <trkpt lat="45.52371" lon="6.76163">
        <ele>2056.9</ele>
        <time>2021-08-03T09:31:36Z</time>
      </trkpt>
      <trkpt lat="45.52371" lon="6.76164">
        <ele>2056.8</ele>
        <time>2021-08-03T09:31:37Z</time>
      </trkpt>
      <trkpt lat="45.52371" lon="6.76164">
        <ele>2056.7</ele>
        <time>2021-08-03T09:31:38Z</time>
      </trkpt>
      <trkpt lat="45.52371" lon="6.76164">
        <ele>2056.6</ele>
        <time>2021-08-03T09:31:39Z</time>
      </trkpt>
      <trkpt lat="45.52371" lon="6.76165">
        <ele>2056.4</ele>
        <time>2021-08-03T09:31:40Z</time>
      </trkpt>
      <trkpt lat="45.52371" lon="6.76165">
        <ele>2056.3</ele>
        <time>2021-08-03T09:31:41Z</time>
      </trkpt>
      <trkpt lat="45.52371" lon="6.76166">
        <ele>2056.1</ele>
        <time>2021-08-03T09:31:42Z</time>
      </trkpt>
      <trkpt lat="45.52371" lon="6.76167">
        <ele>2055.9</ele>
        <time>2021-08-03T09:31:43Z</time>
      </trkpt>
      <trkpt lat="45.52371" lon="6.76167">
        <ele>2055.7</ele>
        <time>2021-08-03T09:31:44Z</time>
      </trkpt>
      <trkpt lat="45.52372" lon="6.76168">
        <ele>2055.5</ele>
        <time>2021-08-03T09:31:45Z</time>
      </trkpt>
      <trkpt lat="45.52372" lon="6.76169">
        <ele>2055.3</ele>
        <time>2021-08-03T09:31:46Z</time>
      </trkpt>
      <trkpt lat="45.52372" lon="6.76169">
        <ele>2055.1</ele>
        <time>2021-08-03T09:31:47Z</time>
      </trkpt>
      <trkpt lat="45.52372" lon="6.7617">
        <ele>2054.9</ele>
        <time>2021-08-03T09:31:48Z</time>
      </trkpt>
      <trkpt lat="45.52372" lon="6.7617">
        <ele>2054.8</ele>
        <time>2021-08-03T09:31:49Z</time>
      </trkpt>
      <trkpt lat="45.52373" lon="6.7617">
        <ele>2054.6</ele>
        <time>2021-08-03T09:31:50Z</time>
      </trkpt>
      <trkpt lat="45.52373" lon="6.7617">
        <ele>2054.4</ele>
        <time>2021-08-03T09:31:51Z</time>
      </trkpt>
      <trkpt lat="45.52374" lon="6.7617">
        <ele>2054.2</ele>
        <time>2021-08-03T09:31:52Z</time>
      </trkpt>
      <trkpt lat="45.52374" lon="6.76169">
        <ele>2054</ele>
        <time>2021-08-03T09:31:53Z</time>
      </trkpt>
      <trkpt lat="45.52375" lon="6.76169">
        <ele>2053.8</ele>
        <time>2021-08-03T09:31:54Z</time>
      </trkpt>
      <trkpt lat="45.52376" lon="6.76169">
        <ele>2053.6</ele>
        <time>2021-08-03T09:31:55Z</time>
      </trkpt>
      <trkpt lat="45.52376" lon="6.76169">
        <ele>2053.4</ele>
        <time>2021-08-03T09:31:56Z</time>
      </trkpt>
      <trkpt lat="45.52377" lon="6.76169">
        <ele>2053.2</ele>
        <time>2021-08-03T09:31:57Z</time>
      </trkpt>
      <trkpt lat="45.52377" lon="6.7617">
        <ele>2052.9</ele>
        <time>2021-08-03T09:31:58Z</time>
      </trkpt>
      <trkpt lat="45.52378" lon="6.7617">
        <ele>2052.7</ele>
        <time>2021-08-03T09:31:59Z</time>
      </trkpt>
      <trkpt lat="45.52378" lon="6.76171">
        <ele>2052.4</ele>
        <time>2021-08-03T09:32:00Z</time>
      </trkpt>
      <trkpt lat="45.52379" lon="6.76172">
        <ele>2052.2</ele>
        <time>2021-08-03T09:32:01Z</time>
      </trkpt>
      <trkpt lat="45.52379" lon="6.76172">
        <ele>2052</ele>
        <time>2021-08-03T09:32:02Z</time>
      </trkpt>
      <trkpt lat="45.52379" lon="6.76173">
        <ele>2051.8</ele>
        <time>2021-08-03T09:32:03Z</time>
      </trkpt>
      <trkpt lat="45.5238" lon="6.76173">
        <ele>2051.6</ele>
        <time>2021-08-03T09:32:04Z</time>
      </trkpt>
      <trkpt lat="45.5238" lon="6.76173">
        <ele>2051.5</ele>
        <time>2021-08-03T09:32:05Z</time>
      </trkpt>
      <trkpt lat="45.52381" lon="6.76173">
        <ele>2051.3</ele>
        <time>2021-08-03T09:32:06Z</time>
      </trkpt>
      <trkpt lat="45.52381" lon="6.76173">
        <ele>2051.1</ele>
        <time>2021-08-03T09:32:07Z</time>
      </trkpt>
      <trkpt lat="45.52382" lon="6.76172">
        <ele>2050.9</ele>
        <time>2021-08-03T09:32:08Z</time>
      </trkpt>
      <trkpt lat="45.52382" lon="6.76172">
        <ele>2050.7</ele>
        <time>2021-08-03T09:32:09Z</time>
      </trkpt>
      <trkpt lat="45.52383" lon="6.76172">
        <ele>2050.4</ele>
        <time>2021-08-03T09:32:10Z</time>
      </trkpt>
      <trkpt lat="45.52384" lon="6.76172">
        <ele>2050.1</ele>
        <time>2021-08-03T09:32:11Z</time>
      </trkpt>
      <trkpt lat="45.52385" lon="6.76172">
        <ele>2049.7</ele>
        <time>2021-08-03T09:32:12Z</time>
      </trkpt>
      <trkpt lat="45.52386" lon="6.76172">
        <ele>2049.5</ele>
        <time>2021-08-03T09:32:13Z</time>
      </trkpt>
      <trkpt lat="45.52386" lon="6.76172">
        <ele>2049.3</ele>
        <time>2021-08-03T09:32:14Z</time>
      </trkpt>
      <trkpt lat="45.52387" lon="6.76173">
        <ele>2049.1</ele>
        <time>2021-08-03T09:32:15Z</time>
      </trkpt>
      <trkpt lat="45.52387" lon="6.76173">
        <ele>2049.1</ele>
        <time>2021-08-03T09:32:16Z</time>
      </trkpt>
      <trkpt lat="45.52387" lon="6.76173">
        <ele>2049</ele>
        <time>2021-08-03T09:32:17Z</time>
      </trkpt>
      <trkpt lat="45.52387" lon="6.76173">
        <ele>2049</ele>
        <time>2021-08-03T09:32:18Z</time>
      </trkpt>
      <trkpt lat="45.52387" lon="6.76173">
        <ele>2049</ele>
        <time>2021-08-03T09:32:19Z</time>
      </trkpt>
      <trkpt lat="45.52387" lon="6.76173">
        <ele>2048.9</ele>
        <time>2021-08-03T09:32:20Z</time>
      </trkpt>
      <trkpt lat="45.52387" lon="6.76173">
        <ele>2048.8</ele>
        <time>2021-08-03T09:32:21Z</time>
      </trkpt>
      <trkpt lat="45.52386" lon="6.76172">
        <ele>2048.8</ele>
        <time>2021-08-03T09:32:22Z</time>
      </trkpt>
      <trkpt lat="45.52386" lon="6.76172">
        <ele>2048.7</ele>
        <time>2021-08-03T09:32:23Z</time>
      </trkpt>
      <trkpt lat="45.52386" lon="6.76172">
        <ele>2048.6</ele>
        <time>2021-08-03T09:32:24Z</time>
      </trkpt>
      <trkpt lat="45.52386" lon="6.76172">
        <ele>2048.6</ele>
        <time>2021-08-03T09:32:25Z</time>
      </trkpt>
      <trkpt lat="45.52386" lon="6.76172">
        <ele>2048.6</ele>
        <time>2021-08-03T09:32:26Z</time>
      </trkpt>
      <trkpt lat="45.52386" lon="6.76172">
        <ele>2048.5</ele>
        <time>2021-08-03T09:32:27Z</time>
      </trkpt>
      <trkpt lat="45.52387" lon="6.76172">
        <ele>2048.3</ele>
        <time>2021-08-03T09:32:28Z</time>
      </trkpt>
      <trkpt lat="45.52388" lon="6.76172">
        <ele>2048</ele>
        <time>2021-08-03T09:32:29Z</time>
      </trkpt>
      <trkpt lat="45.52388" lon="6.76172">
        <ele>2047.7</ele>
        <time>2021-08-03T09:32:30Z</time>
      </trkpt>
      <trkpt lat="45.52389" lon="6.76171">
        <ele>2047.4</ele>
        <time>2021-08-03T09:32:31Z</time>
      </trkpt>
      <trkpt lat="45.5239" lon="6.76171">
        <ele>2047</ele>
        <time>2021-08-03T09:32:32Z</time>
      </trkpt>
      <trkpt lat="45.52391" lon="6.76171">
        <ele>2046.6</ele>
        <time>2021-08-03T09:32:33Z</time>
      </trkpt>
      <trkpt lat="45.52392" lon="6.76171">
        <ele>2046.2</ele>
        <time>2021-08-03T09:32:34Z</time>
      </trkpt>
      <trkpt lat="45.52393" lon="6.76171">
        <ele>2045.8</ele>
        <time>2021-08-03T09:32:35Z</time>
      </trkpt>
      <trkpt lat="45.52394" lon="6.76171">
        <ele>2045.5</ele>
        <time>2021-08-03T09:32:36Z</time>
      </trkpt>
      <trkpt lat="45.52394" lon="6.76171">
        <ele>2045.3</ele>
        <time>2021-08-03T09:32:37Z</time>
      </trkpt>
      <trkpt lat="45.52395" lon="6.76171">
        <ele>2045.1</ele>
        <time>2021-08-03T09:32:38Z</time>
      </trkpt>
      <trkpt lat="45.52395" lon="6.76172">
        <ele>2045</ele>
        <time>2021-08-03T09:32:39Z</time>
      </trkpt>
      <trkpt lat="45.52395" lon="6.76172">
        <ele>2045</ele>
        <time>2021-08-03T09:32:40Z</time>
      </trkpt>
      <trkpt lat="45.52395" lon="6.76172">
        <ele>2044.9</ele>
        <time>2021-08-03T09:32:41Z</time>
      </trkpt>
      <trkpt lat="45.52395" lon="6.76172">
        <ele>2044.7</ele>
        <time>2021-08-03T09:32:42Z</time>
      </trkpt>
      <trkpt lat="45.52395" lon="6.76173">
        <ele>2044.6</ele>
        <time>2021-08-03T09:32:43Z</time>
      </trkpt>
      <trkpt lat="45.52395" lon="6.76174">
        <ele>2044.4</ele>
        <time>2021-08-03T09:32:44Z</time>
      </trkpt>
      <trkpt lat="45.52396" lon="6.76174">
        <ele>2044</ele>
        <time>2021-08-03T09:32:45Z</time>
      </trkpt>
      <trkpt lat="45.52397" lon="6.76175">
        <ele>2043.6</ele>
        <time>2021-08-03T09:32:46Z</time>
      </trkpt>
      <trkpt lat="45.52397" lon="6.76176">
        <ele>2043.2</ele>
        <time>2021-08-03T09:32:47Z</time>
      </trkpt>
      <trkpt lat="45.52398" lon="6.76176">
        <ele>2042.8</ele>
        <time>2021-08-03T09:32:48Z</time>
      </trkpt>
      <trkpt lat="45.52399" lon="6.76177">
        <ele>2042.4</ele>
        <time>2021-08-03T09:32:49Z</time>
      </trkpt>
      <trkpt lat="45.52399" lon="6.76177">
        <ele>2042.1</ele>
        <time>2021-08-03T09:32:50Z</time>
      </trkpt>
      <trkpt lat="45.52399" lon="6.76178">
        <ele>2041.9</ele>
        <time>2021-08-03T09:32:51Z</time>
      </trkpt>
      <trkpt lat="45.524" lon="6.76178">
        <ele>2041.9</ele>
        <time>2021-08-03T09:32:52Z</time>
      </trkpt>
      <trkpt lat="45.52399" lon="6.76178">
        <ele>2041.8</ele>
        <time>2021-08-03T09:32:53Z</time>
      </trkpt>
      <trkpt lat="45.52399" lon="6.76178">
        <ele>2041.8</ele>
        <time>2021-08-03T09:32:54Z</time>
      </trkpt>
      <trkpt lat="45.524" lon="6.76178">
        <ele>2041.5</ele>
        <time>2021-08-03T09:32:55Z</time>
      </trkpt>
      <trkpt lat="45.52401" lon="6.76178">
        <ele>2041.1</ele>
        <time>2021-08-03T09:32:56Z</time>
      </trkpt>
      <trkpt lat="45.52401" lon="6.76179">
        <ele>2040.7</ele>
        <time>2021-08-03T09:32:57Z</time>
      </trkpt>
      <trkpt lat="45.52402" lon="6.76179">
        <ele>2040.4</ele>
        <time>2021-08-03T09:32:58Z</time>
      </trkpt>
      <trkpt lat="45.52402" lon="6.76179">
        <ele>2040.2</ele>
        <time>2021-08-03T09:32:59Z</time>
      </trkpt>
      <trkpt lat="45.52403" lon="6.7618">
        <ele>2040</ele>
        <time>2021-08-03T09:33:00Z</time>
      </trkpt>
      <trkpt lat="45.52403" lon="6.7618">
        <ele>2039.8</ele>
        <time>2021-08-03T09:33:01Z</time>
      </trkpt>
      <trkpt lat="45.52404" lon="6.7618">
        <ele>2039.5</ele>
        <time>2021-08-03T09:33:02Z</time>
      </trkpt>
      <trkpt lat="45.52404" lon="6.76181">
        <ele>2039.1</ele>
        <time>2021-08-03T09:33:03Z</time>
      </trkpt>
      <trkpt lat="45.52405" lon="6.76181">
        <ele>2038.8</ele>
        <time>2021-08-03T09:33:04Z</time>
      </trkpt>
      <trkpt lat="45.52405" lon="6.76182">
        <ele>2038.4</ele>
        <time>2021-08-03T09:33:05Z</time>
      </trkpt>
      <trkpt lat="45.52406" lon="6.76183">
        <ele>2038</ele>
        <time>2021-08-03T09:33:06Z</time>
      </trkpt>
      <trkpt lat="45.52406" lon="6.76183">
        <ele>2037.7</ele>
        <time>2021-08-03T09:33:07Z</time>
      </trkpt>
      <trkpt lat="45.52407" lon="6.76184">
        <ele>2037.3</ele>
        <time>2021-08-03T09:33:08Z</time>
      </trkpt>
      <trkpt lat="45.52407" lon="6.76185">
        <ele>2036.9</ele>
        <time>2021-08-03T09:33:09Z</time>
      </trkpt>
      <trkpt lat="45.52408" lon="6.76185">
        <ele>2036.4</ele>
        <time>2021-08-03T09:33:10Z</time>
      </trkpt>
      <trkpt lat="45.52409" lon="6.76186">
        <ele>2036.1</ele>
        <time>2021-08-03T09:33:11Z</time>
      </trkpt>
      <trkpt lat="45.52409" lon="6.76186">
        <ele>2035.8</ele>
        <time>2021-08-03T09:33:12Z</time>
      </trkpt>
      <trkpt lat="45.5241" lon="6.76187">
        <ele>2035.4</ele>
        <time>2021-08-03T09:33:13Z</time>
      </trkpt>
      <trkpt lat="45.52411" lon="6.76187">
        <ele>2035.1</ele>
        <time>2021-08-03T09:33:14Z</time>
      </trkpt>
      <trkpt lat="45.52411" lon="6.76187">
        <ele>2034.8</ele>
        <time>2021-08-03T09:33:15Z</time>
      </trkpt>
      <trkpt lat="45.52412" lon="6.76187">
        <ele>2034.5</ele>
        <time>2021-08-03T09:33:16Z</time>
      </trkpt>
      <trkpt lat="45.52412" lon="6.76187">
        <ele>2034.2</ele>
        <time>2021-08-03T09:33:17Z</time>
      </trkpt>
      <trkpt lat="45.52413" lon="6.76187">
        <ele>2033.8</ele>
        <time>2021-08-03T09:33:18Z</time>
      </trkpt>
      <trkpt lat="45.52414" lon="6.76186">
        <ele>2033.5</ele>
        <time>2021-08-03T09:33:19Z</time>
      </trkpt>
      <trkpt lat="45.52414" lon="6.76186">
        <ele>2033.1</ele>
        <time>2021-08-03T09:33:20Z</time>
      </trkpt>
      <trkpt lat="45.52415" lon="6.76185">
        <ele>2032.8</ele>
        <time>2021-08-03T09:33:21Z</time>
      </trkpt>
      <trkpt lat="45.52416" lon="6.76185">
        <ele>2032.4</ele>
        <time>2021-08-03T09:33:22Z</time>
      </trkpt>
      <trkpt lat="45.52417" lon="6.76185">
        <ele>2032</ele>
        <time>2021-08-03T09:33:23Z</time>
      </trkpt>
      <trkpt lat="45.52418" lon="6.76185">
        <ele>2031.6</ele>
        <time>2021-08-03T09:33:24Z</time>
      </trkpt>
      <trkpt lat="45.52419" lon="6.76185">
        <ele>2031.2</ele>
        <time>2021-08-03T09:33:25Z</time>
      </trkpt>
      <trkpt lat="45.5242" lon="6.76185">
        <ele>2030.7</ele>
        <time>2021-08-03T09:33:26Z</time>
      </trkpt>
      <trkpt lat="45.52421" lon="6.76185">
        <ele>2030.3</ele>
        <time>2021-08-03T09:33:27Z</time>
      </trkpt>
      <trkpt lat="45.52422" lon="6.76186">
        <ele>2029.9</ele>
        <time>2021-08-03T09:33:28Z</time>
      </trkpt>
      <trkpt lat="45.52422" lon="6.76186">
        <ele>2029.5</ele>
        <time>2021-08-03T09:33:29Z</time>
      </trkpt>
      <trkpt lat="45.52423" lon="6.76187">
        <ele>2029.1</ele>
        <time>2021-08-03T09:33:30Z</time>
      </trkpt>
      <trkpt lat="45.52424" lon="6.76187">
        <ele>2028.8</ele>
        <time>2021-08-03T09:33:31Z</time>
      </trkpt>
      <trkpt lat="45.52424" lon="6.76187">
        <ele>2028.7</ele>
        <time>2021-08-03T09:33:32Z</time>
      </trkpt>
      <trkpt lat="45.52425" lon="6.76187">
        <ele>2028.6</ele>
        <time>2021-08-03T09:33:33Z</time>
      </trkpt>
      <trkpt lat="45.52425" lon="6.76187">
        <ele>2028.5</ele>
        <time>2021-08-03T09:33:34Z</time>
      </trkpt>
      <trkpt lat="45.52425" lon="6.76187">
        <ele>2028.4</ele>
        <time>2021-08-03T09:33:35Z</time>
      </trkpt>
      <trkpt lat="45.52425" lon="6.76187">
        <ele>2028.4</ele>
        <time>2021-08-03T09:33:36Z</time>
      </trkpt>
      <trkpt lat="45.52425" lon="6.76187">
        <ele>2028.4</ele>
        <time>2021-08-03T09:33:37Z</time>
      </trkpt>
      <trkpt lat="45.52425" lon="6.76187">
        <ele>2028.4</ele>
        <time>2021-08-03T09:33:38Z</time>
      </trkpt>
      <trkpt lat="45.52425" lon="6.76187">
        <ele>2028.4</ele>
        <time>2021-08-03T09:33:39Z</time>
      </trkpt>
      <trkpt lat="45.52425" lon="6.76187">
        <ele>2028.4</ele>
        <time>2021-08-03T09:33:40Z</time>
      </trkpt>
      <trkpt lat="45.52425" lon="6.76187">
        <ele>2028.3</ele>
        <time>2021-08-03T09:33:41Z</time>
      </trkpt>
      <trkpt lat="45.52425" lon="6.76187">
        <ele>2028.3</ele>
        <time>2021-08-03T09:33:42Z</time>
      </trkpt>
      <trkpt lat="45.52425" lon="6.76188">
        <ele>2028.2</ele>
        <time>2021-08-03T09:33:43Z</time>
      </trkpt>
      <trkpt lat="45.52425" lon="6.76188">
        <ele>2028.1</ele>
        <time>2021-08-03T09:33:44Z</time>
      </trkpt>
      <trkpt lat="45.52426" lon="6.76188">
        <ele>2027.9</ele>
        <time>2021-08-03T09:33:45Z</time>
      </trkpt>
      <trkpt lat="45.52426" lon="6.76188">
        <ele>2027.8</ele>
        <time>2021-08-03T09:33:46Z</time>
      </trkpt>
      <trkpt lat="45.52426" lon="6.76188">
        <ele>2027.6</ele>
        <time>2021-08-03T09:33:47Z</time>
      </trkpt>
      <trkpt lat="45.52427" lon="6.76189">
        <ele>2027.5</ele>
        <time>2021-08-03T09:33:48Z</time>
      </trkpt>
      <trkpt lat="45.52427" lon="6.76189">
        <ele>2027.3</ele>
        <time>2021-08-03T09:33:49Z</time>
      </trkpt>
      <trkpt lat="45.52428" lon="6.76189">
        <ele>2027.1</ele>
        <time>2021-08-03T09:33:50Z</time>
      </trkpt>
      <trkpt lat="45.52428" lon="6.76189">
        <ele>2026.9</ele>
        <time>2021-08-03T09:33:51Z</time>
      </trkpt>
      <trkpt lat="45.52429" lon="6.76189">
        <ele>2026.7</ele>
        <time>2021-08-03T09:33:52Z</time>
      </trkpt>
      <trkpt lat="45.52429" lon="6.76189">
        <ele>2026.6</ele>
        <time>2021-08-03T09:33:53Z</time>
      </trkpt>
      <trkpt lat="45.52429" lon="6.76189">
        <ele>2026.4</ele>
        <time>2021-08-03T09:33:54Z</time>
      </trkpt>
      <trkpt lat="45.5243" lon="6.76189">
        <ele>2026.2</ele>
        <time>2021-08-03T09:33:55Z</time>
      </trkpt>
      <trkpt lat="45.5243" lon="6.7619">
        <ele>2026.1</ele>
        <time>2021-08-03T09:33:56Z</time>
      </trkpt>
      <trkpt lat="45.5243" lon="6.7619">
        <ele>2025.9</ele>
        <time>2021-08-03T09:33:57Z</time>
      </trkpt>
      <trkpt lat="45.52431" lon="6.7619">
        <ele>2025.7</ele>
        <time>2021-08-03T09:33:58Z</time>
      </trkpt>
      <trkpt lat="45.52431" lon="6.76191">
        <ele>2025.5</ele>
        <time>2021-08-03T09:33:59Z</time>
      </trkpt>
      <trkpt lat="45.52431" lon="6.76191">
        <ele>2025.3</ele>
        <time>2021-08-03T09:34:00Z</time>
      </trkpt>
      <trkpt lat="45.52432" lon="6.76192">
        <ele>2025.1</ele>
        <time>2021-08-03T09:34:01Z</time>
      </trkpt>
      <trkpt lat="45.52432" lon="6.76193">
        <ele>2025</ele>
        <time>2021-08-03T09:34:02Z</time>
      </trkpt>
      <trkpt lat="45.52432" lon="6.76193">
        <ele>2024.8</ele>
        <time>2021-08-03T09:34:03Z</time>
      </trkpt>
      <trkpt lat="45.52432" lon="6.76194">
        <ele>2024.5</ele>
        <time>2021-08-03T09:34:04Z</time>
      </trkpt>
      <trkpt lat="45.52433" lon="6.76195">
        <ele>2024.3</ele>
        <time>2021-08-03T09:34:05Z</time>
      </trkpt>
      <trkpt lat="45.52433" lon="6.76195">
        <ele>2024.1</ele>
        <time>2021-08-03T09:34:06Z</time>
      </trkpt>
      <trkpt lat="45.52433" lon="6.76196">
        <ele>2023.9</ele>
        <time>2021-08-03T09:34:07Z</time>
      </trkpt>
      <trkpt lat="45.52433" lon="6.76197">
        <ele>2023.7</ele>
        <time>2021-08-03T09:34:08Z</time>
      </trkpt>
      <trkpt lat="45.52433" lon="6.76197">
        <ele>2023.5</ele>
        <time>2021-08-03T09:34:09Z</time>
      </trkpt>
      <trkpt lat="45.52434" lon="6.76198">
        <ele>2023.3</ele>
        <time>2021-08-03T09:34:10Z</time>
      </trkpt>
      <trkpt lat="45.52434" lon="6.76198">
        <ele>2023.1</ele>
        <time>2021-08-03T09:34:11Z</time>
      </trkpt>
      <trkpt lat="45.52434" lon="6.76199">
        <ele>2022.9</ele>
        <time>2021-08-03T09:34:12Z</time>
      </trkpt>
      <trkpt lat="45.52434" lon="6.762">
        <ele>2022.7</ele>
        <time>2021-08-03T09:34:13Z</time>
      </trkpt>
      <trkpt lat="45.52435" lon="6.762">
        <ele>2022.5</ele>
        <time>2021-08-03T09:34:14Z</time>
      </trkpt>
      <trkpt lat="45.52435" lon="6.76201">
        <ele>2022.3</ele>
        <time>2021-08-03T09:34:15Z</time>
      </trkpt>
      <trkpt lat="45.52435" lon="6.76201">
        <ele>2022.1</ele>
        <time>2021-08-03T09:34:16Z</time>
      </trkpt>
      <trkpt lat="45.52435" lon="6.76202">
        <ele>2022</ele>
        <time>2021-08-03T09:34:17Z</time>
      </trkpt>
      <trkpt lat="45.52436" lon="6.76202">
        <ele>2021.8</ele>
        <time>2021-08-03T09:34:18Z</time>
      </trkpt>
      <trkpt lat="45.52436" lon="6.76202">
        <ele>2021.7</ele>
        <time>2021-08-03T09:34:19Z</time>
      </trkpt>
      <trkpt lat="45.52436" lon="6.76203">
        <ele>2021.6</ele>
        <time>2021-08-03T09:34:20Z</time>
      </trkpt>
      <trkpt lat="45.52436" lon="6.76203">
        <ele>2021.5</ele>
        <time>2021-08-03T09:34:21Z</time>
      </trkpt>
      <trkpt lat="45.52437" lon="6.76203">
        <ele>2021.3</ele>
        <time>2021-08-03T09:34:22Z</time>
      </trkpt>
      <trkpt lat="45.52437" lon="6.76203">
        <ele>2021.2</ele>
        <time>2021-08-03T09:34:23Z</time>
      </trkpt>
      <trkpt lat="45.52437" lon="6.76204">
        <ele>2021.1</ele>
        <time>2021-08-03T09:34:24Z</time>
      </trkpt>
      <trkpt lat="45.52437" lon="6.76204">
        <ele>2020.9</ele>
        <time>2021-08-03T09:34:25Z</time>
      </trkpt>
      <trkpt lat="45.52438" lon="6.76204">
        <ele>2020.8</ele>
        <time>2021-08-03T09:34:26Z</time>
      </trkpt>
      <trkpt lat="45.52438" lon="6.76205">
        <ele>2020.6</ele>
        <time>2021-08-03T09:34:27Z</time>
      </trkpt>
      <trkpt lat="45.52438" lon="6.76205">
        <ele>2020.4</ele>
        <time>2021-08-03T09:34:28Z</time>
      </trkpt>
      <trkpt lat="45.52438" lon="6.76206">
        <ele>2020.2</ele>
        <time>2021-08-03T09:34:29Z</time>
      </trkpt>
      <trkpt lat="45.52439" lon="6.76206">
        <ele>2020</ele>
        <time>2021-08-03T09:34:30Z</time>
      </trkpt>
      <trkpt lat="45.52439" lon="6.76207">
        <ele>2019.9</ele>
        <time>2021-08-03T09:34:31Z</time>
      </trkpt>
      <trkpt lat="45.52439" lon="6.76207">
        <ele>2019.9</ele>
        <time>2021-08-03T09:34:32Z</time>
      </trkpt>
      <trkpt lat="45.52439" lon="6.76207">
        <ele>2019.8</ele>
        <time>2021-08-03T09:34:33Z</time>
      </trkpt>
      <trkpt lat="45.52439" lon="6.76206">
        <ele>2019.8</ele>
        <time>2021-08-03T09:34:34Z</time>
      </trkpt>
      <trkpt lat="45.52439" lon="6.76206">
        <ele>2019.7</ele>
        <time>2021-08-03T09:34:35Z</time>
      </trkpt>
      <trkpt lat="45.52439" lon="6.76207">
        <ele>2019.6</ele>
        <time>2021-08-03T09:34:36Z</time>
      </trkpt>
      <trkpt lat="45.5244" lon="6.76207">
        <ele>2019.4</ele>
        <time>2021-08-03T09:34:37Z</time>
      </trkpt>
      <trkpt lat="45.5244" lon="6.76207">
        <ele>2019.1</ele>
        <time>2021-08-03T09:34:38Z</time>
      </trkpt>
      <trkpt lat="45.52441" lon="6.76207">
        <ele>2018.9</ele>
        <time>2021-08-03T09:34:39Z</time>
      </trkpt>
      <trkpt lat="45.52441" lon="6.76208">
        <ele>2018.6</ele>
        <time>2021-08-03T09:34:40Z</time>
      </trkpt>
      <trkpt lat="45.52442" lon="6.76208">
        <ele>2018.3</ele>
        <time>2021-08-03T09:34:41Z</time>
      </trkpt>
      <trkpt lat="45.52442" lon="6.76209">
        <ele>2017.9</ele>
        <time>2021-08-03T09:34:42Z</time>
      </trkpt>
      <trkpt lat="45.52442" lon="6.7621">
        <ele>2017.6</ele>
        <time>2021-08-03T09:34:43Z</time>
      </trkpt>
      <trkpt lat="45.52443" lon="6.76211">
        <ele>2017.3</ele>
        <time>2021-08-03T09:34:44Z</time>
      </trkpt>
      <trkpt lat="45.52443" lon="6.76211">
        <ele>2016.9</ele>
        <time>2021-08-03T09:34:45Z</time>
      </trkpt>
      <trkpt lat="45.52443" lon="6.76212">
        <ele>2016.6</ele>
        <time>2021-08-03T09:34:46Z</time>
      </trkpt>
      <trkpt lat="45.52443" lon="6.76213">
        <ele>2016.3</ele>
        <time>2021-08-03T09:34:47Z</time>
      </trkpt>
      <trkpt lat="45.52444" lon="6.76214">
        <ele>2016</ele>
        <time>2021-08-03T09:34:48Z</time>
      </trkpt>
      <trkpt lat="45.52444" lon="6.76215">
        <ele>2015.8</ele>
        <time>2021-08-03T09:34:49Z</time>
      </trkpt>
      <trkpt lat="45.52444" lon="6.76215">
        <ele>2015.5</ele>
        <time>2021-08-03T09:34:50Z</time>
      </trkpt>
      <trkpt lat="45.52444" lon="6.76216">
        <ele>2015.3</ele>
        <time>2021-08-03T09:34:51Z</time>
      </trkpt>
      <trkpt lat="45.52444" lon="6.76216">
        <ele>2015.2</ele>
        <time>2021-08-03T09:34:52Z</time>
      </trkpt>
      <trkpt lat="45.52444" lon="6.76216">
        <ele>2015.1</ele>
        <time>2021-08-03T09:34:53Z</time>
      </trkpt>
      <trkpt lat="45.52444" lon="6.76217">
        <ele>2015</ele>
        <time>2021-08-03T09:34:54Z</time>
      </trkpt>
      <trkpt lat="45.52444" lon="6.76217">
        <ele>2014.9</ele>
        <time>2021-08-03T09:34:55Z</time>
      </trkpt>
      <trkpt lat="45.52444" lon="6.76217">
        <ele>2014.9</ele>
        <time>2021-08-03T09:34:56Z</time>
      </trkpt>
      <trkpt lat="45.52444" lon="6.76217">
        <ele>2014.8</ele>
        <time>2021-08-03T09:34:57Z</time>
      </trkpt>
      <trkpt lat="45.52444" lon="6.76217">
        <ele>2014.8</ele>
        <time>2021-08-03T09:34:58Z</time>
      </trkpt>
      <trkpt lat="45.52444" lon="6.76217">
        <ele>2014.8</ele>
        <time>2021-08-03T09:34:59Z</time>
      </trkpt>
      <trkpt lat="45.52444" lon="6.76217">
        <ele>2014.7</ele>
        <time>2021-08-03T09:35:00Z</time>
      </trkpt>
      <trkpt lat="45.52444" lon="6.76217">
        <ele>2014.7</ele>
        <time>2021-08-03T09:35:01Z</time>
      </trkpt>
      <trkpt lat="45.52444" lon="6.76217">
        <ele>2014.7</ele>
        <time>2021-08-03T09:35:02Z</time>
      </trkpt>
      <trkpt lat="45.52444" lon="6.76217">
        <ele>2014.6</ele>
        <time>2021-08-03T09:35:03Z</time>
      </trkpt>
      <trkpt lat="45.52444" lon="6.76217">
        <ele>2014.6</ele>
        <time>2021-08-03T09:35:04Z</time>
      </trkpt>
      <trkpt lat="45.52444" lon="6.76217">
        <ele>2014.5</ele>
        <time>2021-08-03T09:35:05Z</time>
      </trkpt>
      <trkpt lat="45.52444" lon="6.76218">
        <ele>2014.3</ele>
        <time>2021-08-03T09:35:06Z</time>
      </trkpt>
      <trkpt lat="45.52445" lon="6.76218">
        <ele>2014.2</ele>
        <time>2021-08-03T09:35:07Z</time>
      </trkpt>
      <trkpt lat="45.52445" lon="6.76219">
        <ele>2014</ele>
        <time>2021-08-03T09:35:08Z</time>
      </trkpt>
      <trkpt lat="45.52445" lon="6.76219">
        <ele>2013.7</ele>
        <time>2021-08-03T09:35:09Z</time>
      </trkpt>
      <trkpt lat="45.52445" lon="6.7622">
        <ele>2013.5</ele>
        <time>2021-08-03T09:35:10Z</time>
      </trkpt>
      <trkpt lat="45.52445" lon="6.7622">
        <ele>2013.3</ele>
        <time>2021-08-03T09:35:11Z</time>
      </trkpt>
      <trkpt lat="45.52445" lon="6.76221">
        <ele>2013.1</ele>
        <time>2021-08-03T09:35:12Z</time>
      </trkpt>
      <trkpt lat="45.52445" lon="6.76221">
        <ele>2012.9</ele>
        <time>2021-08-03T09:35:13Z</time>
      </trkpt>
      <trkpt lat="45.52445" lon="6.76222">
        <ele>2012.7</ele>
        <time>2021-08-03T09:35:14Z</time>
      </trkpt>
      <trkpt lat="45.52445" lon="6.76222">
        <ele>2012.5</ele>
        <time>2021-08-03T09:35:15Z</time>
      </trkpt>
      <trkpt lat="45.52445" lon="6.76222">
        <ele>2012.5</ele>
        <time>2021-08-03T09:35:16Z</time>
      </trkpt>
      <trkpt lat="45.52445" lon="6.76222">
        <ele>2012.4</ele>
        <time>2021-08-03T09:35:17Z</time>
      </trkpt>
      <trkpt lat="45.52445" lon="6.76223">
        <ele>2012.4</ele>
        <time>2021-08-03T09:35:18Z</time>
      </trkpt>
      <trkpt lat="45.52445" lon="6.76223">
        <ele>2012.4</ele>
        <time>2021-08-03T09:35:19Z</time>
      </trkpt>
      <trkpt lat="45.52445" lon="6.76223">
        <ele>2012.4</ele>
        <time>2021-08-03T09:35:20Z</time>
      </trkpt>
      <trkpt lat="45.52445" lon="6.76223">
        <ele>2012.4</ele>
        <time>2021-08-03T09:35:21Z</time>
      </trkpt>
      <trkpt lat="45.52445" lon="6.76223">
        <ele>2012.4</ele>
        <time>2021-08-03T09:35:22Z</time>
      </trkpt>
      <trkpt lat="45.52445" lon="6.76223">
        <ele>2012.4</ele>
        <time>2021-08-03T09:35:23Z</time>
      </trkpt>
      <trkpt lat="45.52445" lon="6.76223">
        <ele>2012.3</ele>
        <time>2021-08-03T09:35:24Z</time>
      </trkpt>
      <trkpt lat="45.52445" lon="6.76223">
        <ele>2012.3</ele>
        <time>2021-08-03T09:35:25Z</time>
      </trkpt>
      <trkpt lat="45.52445" lon="6.76223">
        <ele>2012.3</ele>
        <time>2021-08-03T09:35:26Z</time>
      </trkpt>
      <trkpt lat="45.52445" lon="6.76222">
        <ele>2012.3</ele>
        <time>2021-08-03T09:35:27Z</time>
      </trkpt>
      <trkpt lat="45.52446" lon="6.76222">
        <ele>2012.1</ele>
        <time>2021-08-03T09:35:28Z</time>
      </trkpt>
      <trkpt lat="45.52446" lon="6.76222">
        <ele>2012</ele>
        <time>2021-08-03T09:35:29Z</time>
      </trkpt>
      <trkpt lat="45.52446" lon="6.76222">
        <ele>2011.9</ele>
        <time>2021-08-03T09:35:30Z</time>
      </trkpt>
      <trkpt lat="45.52446" lon="6.76222">
        <ele>2011.6</ele>
        <time>2021-08-03T09:35:31Z</time>
      </trkpt>
      <trkpt lat="45.52447" lon="6.76222">
        <ele>2011.4</ele>
        <time>2021-08-03T09:35:32Z</time>
      </trkpt>
      <trkpt lat="45.52447" lon="6.76222">
        <ele>2011.2</ele>
        <time>2021-08-03T09:35:33Z</time>
      </trkpt>
      <trkpt lat="45.52448" lon="6.76221">
        <ele>2010.9</ele>
        <time>2021-08-03T09:35:34Z</time>
      </trkpt>
      <trkpt lat="45.52448" lon="6.76221">
        <ele>2010.6</ele>
        <time>2021-08-03T09:35:35Z</time>
      </trkpt>
      <trkpt lat="45.52449" lon="6.76221">
        <ele>2010.4</ele>
        <time>2021-08-03T09:35:36Z</time>
      </trkpt>
      <trkpt lat="45.52449" lon="6.76221">
        <ele>2010.1</ele>
        <time>2021-08-03T09:35:37Z</time>
      </trkpt>
      <trkpt lat="45.52449" lon="6.7622">
        <ele>2009.9</ele>
        <time>2021-08-03T09:35:38Z</time>
      </trkpt>
      <trkpt lat="45.5245" lon="6.7622">
        <ele>2009.6</ele>
        <time>2021-08-03T09:35:39Z</time>
      </trkpt>
      <trkpt lat="45.5245" lon="6.7622">
        <ele>2009.5</ele>
        <time>2021-08-03T09:35:40Z</time>
      </trkpt>
      <trkpt lat="45.5245" lon="6.7622">
        <ele>2009.3</ele>
        <time>2021-08-03T09:35:41Z</time>
      </trkpt>
      <trkpt lat="45.52451" lon="6.7622">
        <ele>2009.2</ele>
        <time>2021-08-03T09:35:42Z</time>
      </trkpt>
      <trkpt lat="45.52451" lon="6.7622">
        <ele>2009</ele>
        <time>2021-08-03T09:35:43Z</time>
      </trkpt>
      <trkpt lat="45.52451" lon="6.76221">
        <ele>2008.8</ele>
        <time>2021-08-03T09:35:44Z</time>
      </trkpt>
      <trkpt lat="45.52451" lon="6.76221">
        <ele>2008.7</ele>
        <time>2021-08-03T09:35:45Z</time>
      </trkpt>
      <trkpt lat="45.52452" lon="6.76221">
        <ele>2008.5</ele>
        <time>2021-08-03T09:35:46Z</time>
      </trkpt>
      <trkpt lat="45.52452" lon="6.76222">
        <ele>2008.2</ele>
        <time>2021-08-03T09:35:47Z</time>
      </trkpt>
      <trkpt lat="45.52452" lon="6.76222">
        <ele>2008</ele>
        <time>2021-08-03T09:35:48Z</time>
      </trkpt>
      <trkpt lat="45.52452" lon="6.76222">
        <ele>2007.8</ele>
        <time>2021-08-03T09:35:49Z</time>
      </trkpt>
      <trkpt lat="45.52453" lon="6.76223">
        <ele>2007.5</ele>
        <time>2021-08-03T09:35:50Z</time>
      </trkpt>
      <trkpt lat="45.52453" lon="6.76223">
        <ele>2007.3</ele>
        <time>2021-08-03T09:35:51Z</time>
      </trkpt>
      <trkpt lat="45.52453" lon="6.76224">
        <ele>2007.1</ele>
        <time>2021-08-03T09:35:52Z</time>
      </trkpt>
      <trkpt lat="45.52453" lon="6.76224">
        <ele>2006.9</ele>
        <time>2021-08-03T09:35:53Z</time>
      </trkpt>
      <trkpt lat="45.52453" lon="6.76224">
        <ele>2006.8</ele>
        <time>2021-08-03T09:35:54Z</time>
      </trkpt>
      <trkpt lat="45.52454" lon="6.76225">
        <ele>2006.7</ele>
        <time>2021-08-03T09:35:55Z</time>
      </trkpt>
      <trkpt lat="45.52454" lon="6.76225">
        <ele>2006.6</ele>
        <time>2021-08-03T09:35:56Z</time>
      </trkpt>
      <trkpt lat="45.52454" lon="6.76225">
        <ele>2006.5</ele>
        <time>2021-08-03T09:35:57Z</time>
      </trkpt>
      <trkpt lat="45.52454" lon="6.76225">
        <ele>2006.5</ele>
        <time>2021-08-03T09:35:58Z</time>
      </trkpt>
      <trkpt lat="45.52454" lon="6.76225">
        <ele>2006.4</ele>
        <time>2021-08-03T09:35:59Z</time>
      </trkpt>
      <trkpt lat="45.52454" lon="6.76226">
        <ele>2006.3</ele>
        <time>2021-08-03T09:36:00Z</time>
      </trkpt>
      <trkpt lat="45.52454" lon="6.76226">
        <ele>2006.2</ele>
        <time>2021-08-03T09:36:01Z</time>
      </trkpt>
      <trkpt lat="45.52454" lon="6.76226">
        <ele>2006.1</ele>
        <time>2021-08-03T09:36:02Z</time>
      </trkpt>
      <trkpt lat="45.52454" lon="6.76226">
        <ele>2006</ele>
        <time>2021-08-03T09:36:03Z</time>
      </trkpt>
      <trkpt lat="45.52454" lon="6.76227">
        <ele>2005.9</ele>
        <time>2021-08-03T09:36:04Z</time>
      </trkpt>
      <trkpt lat="45.52454" lon="6.76227">
        <ele>2005.7</ele>
        <time>2021-08-03T09:36:05Z</time>
      </trkpt>
      <trkpt lat="45.52454" lon="6.76227">
        <ele>2005.6</ele>
        <time>2021-08-03T09:36:06Z</time>
      </trkpt>
      <trkpt lat="45.52454" lon="6.76227">
        <ele>2005.4</ele>
        <time>2021-08-03T09:36:07Z</time>
      </trkpt>
      <trkpt lat="45.52455" lon="6.76228">
        <ele>2005.3</ele>
        <time>2021-08-03T09:36:08Z</time>
      </trkpt>
      <trkpt lat="45.52455" lon="6.76228">
        <ele>2005.1</ele>
        <time>2021-08-03T09:36:09Z</time>
      </trkpt>
      <trkpt lat="45.52455" lon="6.76228">
        <ele>2005</ele>
        <time>2021-08-03T09:36:10Z</time>
      </trkpt>
      <trkpt lat="45.52455" lon="6.76229">
        <ele>2004.9</ele>
        <time>2021-08-03T09:36:11Z</time>
      </trkpt>
      <trkpt lat="45.52455" lon="6.76229">
        <ele>2004.8</ele>
        <time>2021-08-03T09:36:12Z</time>
      </trkpt>
      <trkpt lat="45.52455" lon="6.76229">
        <ele>2004.7</ele>
        <time>2021-08-03T09:36:13Z</time>
      </trkpt>
      <trkpt lat="45.52455" lon="6.76229">
        <ele>2004.6</ele>
        <time>2021-08-03T09:36:14Z</time>
      </trkpt>
      <trkpt lat="45.52455" lon="6.76229">
        <ele>2004.5</ele>
        <time>2021-08-03T09:36:15Z</time>
      </trkpt>
      <trkpt lat="45.52455" lon="6.7623">
        <ele>2004.4</ele>
        <time>2021-08-03T09:36:16Z</time>
      </trkpt>
      <trkpt lat="45.52456" lon="6.7623">
        <ele>2004.3</ele>
        <time>2021-08-03T09:36:17Z</time>
      </trkpt>
      <trkpt lat="45.52456" lon="6.7623">
        <ele>2004.2</ele>
        <time>2021-08-03T09:36:18Z</time>
      </trkpt>
      <trkpt lat="45.52456" lon="6.7623">
        <ele>2004.1</ele>
        <time>2021-08-03T09:36:19Z</time>
      </trkpt>
      <trkpt lat="45.52456" lon="6.7623">
        <ele>2004.1</ele>
        <time>2021-08-03T09:36:20Z</time>
      </trkpt>
      <trkpt lat="45.52456" lon="6.7623">
        <ele>2004</ele>
        <time>2021-08-03T09:36:21Z</time>
      </trkpt>
      <trkpt lat="45.52456" lon="6.7623">
        <ele>2004</ele>
        <time>2021-08-03T09:36:22Z</time>
      </trkpt>
      <trkpt lat="45.52456" lon="6.7623">
        <ele>2003.9</ele>
        <time>2021-08-03T09:36:23Z</time>
      </trkpt>
      <trkpt lat="45.52456" lon="6.7623">
        <ele>2003.9</ele>
        <time>2021-08-03T09:36:24Z</time>
      </trkpt>
      <trkpt lat="45.52456" lon="6.7623">
        <ele>2003.8</ele>
        <time>2021-08-03T09:36:25Z</time>
      </trkpt>
      <trkpt lat="45.52456" lon="6.76231">
        <ele>2003.8</ele>
        <time>2021-08-03T09:36:26Z</time>
      </trkpt>
      <trkpt lat="45.52456" lon="6.76231">
        <ele>2003.7</ele>
        <time>2021-08-03T09:36:27Z</time>
      </trkpt>
      <trkpt lat="45.52456" lon="6.76231">
        <ele>2003.7</ele>
        <time>2021-08-03T09:36:28Z</time>
      </trkpt>
      <trkpt lat="45.52456" lon="6.76231">
        <ele>2003.7</ele>
        <time>2021-08-03T09:36:29Z</time>
      </trkpt>
      <trkpt lat="45.52456" lon="6.76231">
        <ele>2003.6</ele>
        <time>2021-08-03T09:36:30Z</time>
      </trkpt>
      <trkpt lat="45.52456" lon="6.76231">
        <ele>2003.6</ele>
        <time>2021-08-03T09:36:31Z</time>
      </trkpt>
      <trkpt lat="45.52456" lon="6.76231">
        <ele>2003.6</ele>
        <time>2021-08-03T09:36:32Z</time>
      </trkpt>
      <trkpt lat="45.52456" lon="6.76231">
        <ele>2003.5</ele>
        <time>2021-08-03T09:36:33Z</time>
      </trkpt>
      <trkpt lat="45.52456" lon="6.76231">
        <ele>2003.5</ele>
        <time>2021-08-03T09:36:34Z</time>
      </trkpt>
      <trkpt lat="45.52456" lon="6.76231">
        <ele>2003.5</ele>
        <time>2021-08-03T09:36:35Z</time>
      </trkpt>
      <trkpt lat="45.52456" lon="6.76231">
        <ele>2003.5</ele>
        <time>2021-08-03T09:36:36Z</time>
      </trkpt>
      <trkpt lat="45.52456" lon="6.76231">
        <ele>2003.5</ele>
        <time>2021-08-03T09:36:37Z</time>
      </trkpt>
      <trkpt lat="45.52456" lon="6.76231">
        <ele>2003.5</ele>
        <time>2021-08-03T09:36:38Z</time>
      </trkpt>
      <trkpt lat="45.52456" lon="6.76231">
        <ele>2003.5</ele>
        <time>2021-08-03T09:36:39Z</time>
      </trkpt>
      <trkpt lat="45.52456" lon="6.76231">
        <ele>2003.5</ele>
        <time>2021-08-03T09:36:40Z</time>
      </trkpt>
      <trkpt lat="45.52456" lon="6.76231">
        <ele>2003.5</ele>
        <time>2021-08-03T09:36:41Z</time>
      </trkpt>
      <trkpt lat="45.52457" lon="6.76231">
        <ele>2003.4</ele>
        <time>2021-08-03T09:36:42Z</time>
      </trkpt>
      <trkpt lat="45.52457" lon="6.76231">
        <ele>2003.4</ele>
        <time>2021-08-03T09:36:43Z</time>
      </trkpt>
      <trkpt lat="45.52457" lon="6.76231">
        <ele>2003.4</ele>
        <time>2021-08-03T09:36:44Z</time>
      </trkpt>
      <trkpt lat="45.52457" lon="6.76231">
        <ele>2003.4</ele>
        <time>2021-08-03T09:36:45Z</time>
      </trkpt>
      <trkpt lat="45.52457" lon="6.76231">
        <ele>2003.4</ele>
        <time>2021-08-03T09:36:46Z</time>
      </trkpt>
      <trkpt lat="45.52457" lon="6.76231">
        <ele>2003.4</ele>
        <time>2021-08-03T09:36:47Z</time>
      </trkpt>
      <trkpt lat="45.52457" lon="6.76231">
        <ele>2003.4</ele>
        <time>2021-08-03T09:36:48Z</time>
      </trkpt>
      <trkpt lat="45.52457" lon="6.76231">
        <ele>2003.4</ele>
        <time>2021-08-03T09:36:49Z</time>
      </trkpt>
      <trkpt lat="45.52457" lon="6.76231">
        <ele>2003.4</ele>
        <time>2021-08-03T09:36:50Z</time>
      </trkpt>
      <trkpt lat="45.52457" lon="6.76231">
        <ele>2003.4</ele>
        <time>2021-08-03T09:36:51Z</time>
      </trkpt>
      <trkpt lat="45.52457" lon="6.76231">
        <ele>2003.4</ele>
        <time>2021-08-03T09:36:52Z</time>
      </trkpt>
      <trkpt lat="45.52457" lon="6.76231">
        <ele>2003.4</ele>
        <time>2021-08-03T09:36:53Z</time>
      </trkpt>
      <trkpt lat="45.52456" lon="6.76231">
        <ele>2003.4</ele>
        <time>2021-08-03T09:36:54Z</time>
      </trkpt>
      <trkpt lat="45.52456" lon="6.76231">
        <ele>2003.4</ele>
        <time>2021-08-03T09:36:55Z</time>
      </trkpt>
      <trkpt lat="45.52456" lon="6.76231">
        <ele>2003.4</ele>
        <time>2021-08-03T09:36:56Z</time>
      </trkpt>
      <trkpt lat="45.52456" lon="6.76231">
        <ele>2003.4</ele>
        <time>2021-08-03T09:36:57Z</time>
      </trkpt>
      <trkpt lat="45.52456" lon="6.76231">
        <ele>2003.4</ele>
        <time>2021-08-03T09:36:58Z</time>
      </trkpt>
      <trkpt lat="45.52456" lon="6.76231">
        <ele>2003.4</ele>
        <time>2021-08-03T09:36:59Z</time>
      </trkpt>
      <trkpt lat="45.52456" lon="6.76231">
        <ele>2003.4</ele>
        <time>2021-08-03T09:37:00Z</time>
      </trkpt>
      <trkpt lat="45.52457" lon="6.76231">
        <ele>2003.3</ele>
        <time>2021-08-03T09:37:01Z</time>
      </trkpt>
      <trkpt lat="45.52457" lon="6.76231">
        <ele>2003.3</ele>
        <time>2021-08-03T09:37:02Z</time>
      </trkpt>
      <trkpt lat="45.52457" lon="6.76231">
        <ele>2003.3</ele>
        <time>2021-08-03T09:37:03Z</time>
      </trkpt>
      <trkpt lat="45.52457" lon="6.76231">
        <ele>2003.3</ele>
        <time>2021-08-03T09:37:04Z</time>
      </trkpt>
      <trkpt lat="45.52457" lon="6.76231">
        <ele>2003.3</ele>
        <time>2021-08-03T09:37:05Z</time>
      </trkpt>
      <trkpt lat="45.52457" lon="6.76231">
        <ele>2003.3</ele>
        <time>2021-08-03T09:37:06Z</time>
      </trkpt>
      <trkpt lat="45.52457" lon="6.76231">
        <ele>2003.3</ele>
        <time>2021-08-03T09:37:07Z</time>
      </trkpt>
      <trkpt lat="45.52457" lon="6.76231">
        <ele>2003.3</ele>
        <time>2021-08-03T09:37:08Z</time>
      </trkpt>
      <trkpt lat="45.52457" lon="6.76231">
        <ele>2003.3</ele>
        <time>2021-08-03T09:37:09Z</time>
      </trkpt>
      <trkpt lat="45.52457" lon="6.76231">
        <ele>2003.2</ele>
        <time>2021-08-03T09:37:10Z</time>
      </trkpt>
      <trkpt lat="45.52457" lon="6.76231">
        <ele>2003.2</ele>
        <time>2021-08-03T09:37:11Z</time>
      </trkpt>
      <trkpt lat="45.52457" lon="6.76231">
        <ele>2003.2</ele>
        <time>2021-08-03T09:37:12Z</time>
      </trkpt>
      <trkpt lat="45.52457" lon="6.76231">
        <ele>2003.2</ele>
        <time>2021-08-03T09:37:13Z</time>
      </trkpt>
      <trkpt lat="45.52457" lon="6.76231">
        <ele>2003.1</ele>
        <time>2021-08-03T09:37:14Z</time>
      </trkpt>
      <trkpt lat="45.52457" lon="6.76231">
        <ele>2003.1</ele>
        <time>2021-08-03T09:37:15Z</time>
      </trkpt>
      <trkpt lat="45.52457" lon="6.76231">
        <ele>2003.1</ele>
        <time>2021-08-03T09:37:16Z</time>
      </trkpt>
      <trkpt lat="45.52457" lon="6.76231">
        <ele>2003</ele>
        <time>2021-08-03T09:37:17Z</time>
      </trkpt>
      <trkpt lat="45.52457" lon="6.76231">
        <ele>2003</ele>
        <time>2021-08-03T09:37:18Z</time>
      </trkpt>
      <trkpt lat="45.52457" lon="6.76231">
        <ele>2003</ele>
        <time>2021-08-03T09:37:19Z</time>
      </trkpt>
      <trkpt lat="45.52457" lon="6.76231">
        <ele>2002.9</ele>
        <time>2021-08-03T09:37:20Z</time>
      </trkpt>
      <trkpt lat="45.52457" lon="6.76231">
        <ele>2002.9</ele>
        <time>2021-08-03T09:37:21Z</time>
      </trkpt>
      <trkpt lat="45.52457" lon="6.76232">
        <ele>2002.8</ele>
        <time>2021-08-03T09:37:22Z</time>
      </trkpt>
      <trkpt lat="45.52457" lon="6.76232">
        <ele>2002.7</ele>
        <time>2021-08-03T09:37:23Z</time>
      </trkpt>
      <trkpt lat="45.52457" lon="6.76232">
        <ele>2002.6</ele>
        <time>2021-08-03T09:37:24Z</time>
      </trkpt>
      <trkpt lat="45.52457" lon="6.76232">
        <ele>2002.5</ele>
        <time>2021-08-03T09:37:25Z</time>
      </trkpt>
      <trkpt lat="45.52457" lon="6.76233">
        <ele>2002.3</ele>
        <time>2021-08-03T09:37:26Z</time>
      </trkpt>
      <trkpt lat="45.52457" lon="6.76233">
        <ele>2002.2</ele>
        <time>2021-08-03T09:37:27Z</time>
      </trkpt>
      <trkpt lat="45.52457" lon="6.76234">
        <ele>2001.9</ele>
        <time>2021-08-03T09:37:28Z</time>
      </trkpt>
      <trkpt lat="45.52458" lon="6.76234">
        <ele>2001.8</ele>
        <time>2021-08-03T09:37:29Z</time>
      </trkpt>
      <trkpt lat="45.52458" lon="6.76235">
        <ele>2001.5</ele>
        <time>2021-08-03T09:37:30Z</time>
      </trkpt>
      <trkpt lat="45.52458" lon="6.76235">
        <ele>2001.3</ele>
        <time>2021-08-03T09:37:31Z</time>
      </trkpt>
      <trkpt lat="45.52458" lon="6.76236">
        <ele>2001</ele>
        <time>2021-08-03T09:37:32Z</time>
      </trkpt>
      <trkpt lat="45.52458" lon="6.76236">
        <ele>2000.8</ele>
        <time>2021-08-03T09:37:33Z</time>
      </trkpt>
      <trkpt lat="45.52458" lon="6.76237">
        <ele>2000.5</ele>
        <time>2021-08-03T09:37:34Z</time>
      </trkpt>
      <trkpt lat="45.52458" lon="6.76238">
        <ele>2000.3</ele>
        <time>2021-08-03T09:37:35Z</time>
      </trkpt>
      <trkpt lat="45.52458" lon="6.76238">
        <ele>2000</ele>
        <time>2021-08-03T09:37:36Z</time>
      </trkpt>
      <trkpt lat="45.52459" lon="6.76239">
        <ele>1999.8</ele>
        <time>2021-08-03T09:37:37Z</time>
      </trkpt>
      <trkpt lat="45.52459" lon="6.76239">
        <ele>1999.6</ele>
        <time>2021-08-03T09:37:38Z</time>
      </trkpt>
      <trkpt lat="45.52459" lon="6.7624">
        <ele>1999.4</ele>
        <time>2021-08-03T09:37:39Z</time>
      </trkpt>
      <trkpt lat="45.52459" lon="6.7624">
        <ele>1999.1</ele>
        <time>2021-08-03T09:37:40Z</time>
      </trkpt>
      <trkpt lat="45.52459" lon="6.76241">
        <ele>1999</ele>
        <time>2021-08-03T09:37:41Z</time>
      </trkpt>
      <trkpt lat="45.52459" lon="6.76241">
        <ele>1998.9</ele>
        <time>2021-08-03T09:37:42Z</time>
      </trkpt>
      <trkpt lat="45.52459" lon="6.76241">
        <ele>1998.8</ele>
        <time>2021-08-03T09:37:43Z</time>
      </trkpt>
      <trkpt lat="45.52459" lon="6.76241">
        <ele>1998.8</ele>
        <time>2021-08-03T09:37:44Z</time>
      </trkpt>
      <trkpt lat="45.52459" lon="6.76241">
        <ele>1998.7</ele>
        <time>2021-08-03T09:37:45Z</time>
      </trkpt>
      <trkpt lat="45.52459" lon="6.76241">
        <ele>1998.7</ele>
        <time>2021-08-03T09:37:46Z</time>
      </trkpt>
      <trkpt lat="45.52459" lon="6.76241">
        <ele>1998.6</ele>
        <time>2021-08-03T09:37:47Z</time>
      </trkpt>
      <trkpt lat="45.52459" lon="6.76241">
        <ele>1998.6</ele>
        <time>2021-08-03T09:37:48Z</time>
      </trkpt>
      <trkpt lat="45.52459" lon="6.76241">
        <ele>1998.6</ele>
        <time>2021-08-03T09:37:49Z</time>
      </trkpt>
      <trkpt lat="45.52459" lon="6.76242">
        <ele>1998.4</ele>
        <time>2021-08-03T09:37:50Z</time>
      </trkpt>
      <trkpt lat="45.52459" lon="6.76242">
        <ele>1998.3</ele>
        <time>2021-08-03T09:37:51Z</time>
      </trkpt>
      <trkpt lat="45.52459" lon="6.76242">
        <ele>1998.1</ele>
        <time>2021-08-03T09:37:52Z</time>
      </trkpt>
      <trkpt lat="45.52459" lon="6.76243">
        <ele>1997.8</ele>
        <time>2021-08-03T09:37:53Z</time>
      </trkpt>
      <trkpt lat="45.52459" lon="6.76244">
        <ele>1997.4</ele>
        <time>2021-08-03T09:37:54Z</time>
      </trkpt>
      <trkpt lat="45.52459" lon="6.76245">
        <ele>1997.1</ele>
        <time>2021-08-03T09:37:55Z</time>
      </trkpt>
      <trkpt lat="45.52459" lon="6.76246">
        <ele>1996.7</ele>
        <time>2021-08-03T09:37:56Z</time>
      </trkpt>
      <trkpt lat="45.52459" lon="6.76247">
        <ele>1996.4</ele>
        <time>2021-08-03T09:37:57Z</time>
      </trkpt>
      <trkpt lat="45.5246" lon="6.76248">
        <ele>1996</ele>
        <time>2021-08-03T09:37:58Z</time>
      </trkpt>
      <trkpt lat="45.5246" lon="6.76248">
        <ele>1995.7</ele>
        <time>2021-08-03T09:37:59Z</time>
      </trkpt>
      <trkpt lat="45.5246" lon="6.76249">
        <ele>1995.5</ele>
        <time>2021-08-03T09:38:00Z</time>
      </trkpt>
      <trkpt lat="45.5246" lon="6.76249">
        <ele>1995.3</ele>
        <time>2021-08-03T09:38:01Z</time>
      </trkpt>
      <trkpt lat="45.52459" lon="6.7625">
        <ele>1995.1</ele>
        <time>2021-08-03T09:38:02Z</time>
      </trkpt>
      <trkpt lat="45.52459" lon="6.7625">
        <ele>1995</ele>
        <time>2021-08-03T09:38:03Z</time>
      </trkpt>
      <trkpt lat="45.52459" lon="6.7625">
        <ele>1994.9</ele>
        <time>2021-08-03T09:38:04Z</time>
      </trkpt>
      <trkpt lat="45.52459" lon="6.76251">
        <ele>1994.8</ele>
        <time>2021-08-03T09:38:05Z</time>
      </trkpt>
      <trkpt lat="45.52459" lon="6.76251">
        <ele>1994.8</ele>
        <time>2021-08-03T09:38:06Z</time>
      </trkpt>
      <trkpt lat="45.52459" lon="6.76251">
        <ele>1994.7</ele>
        <time>2021-08-03T09:38:07Z</time>
      </trkpt>
      <trkpt lat="45.5246" lon="6.76251">
        <ele>1994.5</ele>
        <time>2021-08-03T09:38:08Z</time>
      </trkpt>
      <trkpt lat="45.5246" lon="6.76251">
        <ele>1994.5</ele>
        <time>2021-08-03T09:38:09Z</time>
      </trkpt>
      <trkpt lat="45.5246" lon="6.76252">
        <ele>1994.3</ele>
        <time>2021-08-03T09:38:10Z</time>
      </trkpt>
      <trkpt lat="45.5246" lon="6.76252">
        <ele>1994.2</ele>
        <time>2021-08-03T09:38:11Z</time>
      </trkpt>
      <trkpt lat="45.5246" lon="6.76252">
        <ele>1994.1</ele>
        <time>2021-08-03T09:38:12Z</time>
      </trkpt>
      <trkpt lat="45.5246" lon="6.76252">
        <ele>1994</ele>
        <time>2021-08-03T09:38:13Z</time>
      </trkpt>
      <trkpt lat="45.5246" lon="6.76253">
        <ele>1993.9</ele>
        <time>2021-08-03T09:38:14Z</time>
      </trkpt>
      <trkpt lat="45.5246" lon="6.76253">
        <ele>1993.8</ele>
        <time>2021-08-03T09:38:15Z</time>
      </trkpt>
      <trkpt lat="45.5246" lon="6.76253">
        <ele>1993.7</ele>
        <time>2021-08-03T09:38:16Z</time>
      </trkpt>
      <trkpt lat="45.5246" lon="6.76253">
        <ele>1993.7</ele>
        <time>2021-08-03T09:38:17Z</time>
      </trkpt>
      <trkpt lat="45.5246" lon="6.76253">
        <ele>1993.7</ele>
        <time>2021-08-03T09:38:18Z</time>
      </trkpt>
      <trkpt lat="45.5246" lon="6.76253">
        <ele>1993.7</ele>
        <time>2021-08-03T09:38:19Z</time>
      </trkpt>
      <trkpt lat="45.5246" lon="6.76253">
        <ele>1993.7</ele>
        <time>2021-08-03T09:38:20Z</time>
      </trkpt>
      <trkpt lat="45.5246" lon="6.76253">
        <ele>1993.7</ele>
        <time>2021-08-03T09:38:21Z</time>
      </trkpt>
      <trkpt lat="45.5246" lon="6.76253">
        <ele>1993.7</ele>
        <time>2021-08-03T09:38:22Z</time>
      </trkpt>
      <trkpt lat="45.5246" lon="6.76253">
        <ele>1993.7</ele>
        <time>2021-08-03T09:38:23Z</time>
      </trkpt>
      <trkpt lat="45.5246" lon="6.76253">
        <ele>1993.7</ele>
        <time>2021-08-03T09:38:24Z</time>
      </trkpt>
      <trkpt lat="45.5246" lon="6.76253">
        <ele>1993.7</ele>
        <time>2021-08-03T09:38:25Z</time>
      </trkpt>
      <trkpt lat="45.5246" lon="6.76253">
        <ele>1993.7</ele>
        <time>2021-08-03T09:38:26Z</time>
      </trkpt>
      <trkpt lat="45.5246" lon="6.76253">
        <ele>1993.7</ele>
        <time>2021-08-03T09:38:27Z</time>
      </trkpt>
      <trkpt lat="45.5246" lon="6.76253">
        <ele>1993.6</ele>
        <time>2021-08-03T09:38:28Z</time>
      </trkpt>
      <trkpt lat="45.5246" lon="6.76253">
        <ele>1993.5</ele>
        <time>2021-08-03T09:38:29Z</time>
      </trkpt>
      <trkpt lat="45.5246" lon="6.76254">
        <ele>1993.5</ele>
        <time>2021-08-03T09:38:30Z</time>
      </trkpt>
      <trkpt lat="45.5246" lon="6.76254">
        <ele>1993.3</ele>
        <time>2021-08-03T09:38:31Z</time>
      </trkpt>
      <trkpt lat="45.5246" lon="6.76254">
        <ele>1993.2</ele>
        <time>2021-08-03T09:38:32Z</time>
      </trkpt>
      <trkpt lat="45.5246" lon="6.76255">
        <ele>1993</ele>
        <time>2021-08-03T09:38:33Z</time>
      </trkpt>
      <trkpt lat="45.5246" lon="6.76255">
        <ele>1992.8</ele>
        <time>2021-08-03T09:38:34Z</time>
      </trkpt>
      <trkpt lat="45.5246" lon="6.76256">
        <ele>1992.6</ele>
        <time>2021-08-03T09:38:35Z</time>
      </trkpt>
      <trkpt lat="45.52461" lon="6.76256">
        <ele>1992.4</ele>
        <time>2021-08-03T09:38:36Z</time>
      </trkpt>
      <trkpt lat="45.52461" lon="6.76257">
        <ele>1992.1</ele>
        <time>2021-08-03T09:38:37Z</time>
      </trkpt>
      <trkpt lat="45.52461" lon="6.76257">
        <ele>1991.9</ele>
        <time>2021-08-03T09:38:38Z</time>
      </trkpt>
      <trkpt lat="45.52461" lon="6.76258">
        <ele>1991.6</ele>
        <time>2021-08-03T09:38:39Z</time>
      </trkpt>
      <trkpt lat="45.52461" lon="6.76259">
        <ele>1991.3</ele>
        <time>2021-08-03T09:38:40Z</time>
      </trkpt>
      <trkpt lat="45.52461" lon="6.76259">
        <ele>1991.1</ele>
        <time>2021-08-03T09:38:41Z</time>
      </trkpt>
      <trkpt lat="45.52461" lon="6.7626">
        <ele>1990.8</ele>
        <time>2021-08-03T09:38:42Z</time>
      </trkpt>
      <trkpt lat="45.52461" lon="6.76261">
        <ele>1990.5</ele>
        <time>2021-08-03T09:38:43Z</time>
      </trkpt>
      <trkpt lat="45.52461" lon="6.76262">
        <ele>1990.2</ele>
        <time>2021-08-03T09:38:44Z</time>
      </trkpt>
      <trkpt lat="45.52461" lon="6.76262">
        <ele>1989.9</ele>
        <time>2021-08-03T09:38:45Z</time>
      </trkpt>
      <trkpt lat="45.52461" lon="6.76263">
        <ele>1989.7</ele>
        <time>2021-08-03T09:38:46Z</time>
      </trkpt>
      <trkpt lat="45.52462" lon="6.76263">
        <ele>1989.4</ele>
        <time>2021-08-03T09:38:47Z</time>
      </trkpt>
      <trkpt lat="45.52462" lon="6.76264">
        <ele>1989.2</ele>
        <time>2021-08-03T09:38:48Z</time>
      </trkpt>
      <trkpt lat="45.52462" lon="6.76265">
        <ele>1988.9</ele>
        <time>2021-08-03T09:38:49Z</time>
      </trkpt>
      <trkpt lat="45.52462" lon="6.76265">
        <ele>1988.7</ele>
        <time>2021-08-03T09:38:50Z</time>
      </trkpt>
      <trkpt lat="45.52462" lon="6.76266">
        <ele>1988.5</ele>
        <time>2021-08-03T09:38:51Z</time>
      </trkpt>
      <trkpt lat="45.52462" lon="6.76266">
        <ele>1988.3</ele>
        <time>2021-08-03T09:38:52Z</time>
      </trkpt>
      <trkpt lat="45.52462" lon="6.76267">
        <ele>1988.1</ele>
        <time>2021-08-03T09:38:53Z</time>
      </trkpt>
      <trkpt lat="45.52462" lon="6.76267">
        <ele>1987.9</ele>
        <time>2021-08-03T09:38:54Z</time>
      </trkpt>
      <trkpt lat="45.52462" lon="6.76267">
        <ele>1987.8</ele>
        <time>2021-08-03T09:38:55Z</time>
      </trkpt>
      <trkpt lat="45.52462" lon="6.76268">
        <ele>1987.7</ele>
        <time>2021-08-03T09:38:56Z</time>
      </trkpt>
      <trkpt lat="45.52462" lon="6.76268">
        <ele>1987.5</ele>
        <time>2021-08-03T09:38:57Z</time>
      </trkpt>
      <trkpt lat="45.52462" lon="6.76268">
        <ele>1987.4</ele>
        <time>2021-08-03T09:38:58Z</time>
      </trkpt>
      <trkpt lat="45.52462" lon="6.76269">
        <ele>1987.3</ele>
        <time>2021-08-03T09:38:59Z</time>
      </trkpt>
      <trkpt lat="45.52462" lon="6.76269">
        <ele>1987.3</ele>
        <time>2021-08-03T09:39:00Z</time>
      </trkpt>
      <trkpt lat="45.52462" lon="6.76269">
        <ele>1987.2</ele>
        <time>2021-08-03T09:39:01Z</time>
      </trkpt>
      <trkpt lat="45.52462" lon="6.76269">
        <ele>1987.1</ele>
        <time>2021-08-03T09:39:02Z</time>
      </trkpt>
      <trkpt lat="45.52462" lon="6.76269">
        <ele>1987.1</ele>
        <time>2021-08-03T09:39:03Z</time>
      </trkpt>
      <trkpt lat="45.52462" lon="6.76269">
        <ele>1987</ele>
        <time>2021-08-03T09:39:04Z</time>
      </trkpt>
      <trkpt lat="45.52462" lon="6.76269">
        <ele>1987</ele>
        <time>2021-08-03T09:39:05Z</time>
      </trkpt>
      <trkpt lat="45.52462" lon="6.76269">
        <ele>1987</ele>
        <time>2021-08-03T09:39:06Z</time>
      </trkpt>
      <trkpt lat="45.52462" lon="6.76269">
        <ele>1987</ele>
        <time>2021-08-03T09:39:07Z</time>
      </trkpt>
      <trkpt lat="45.52462" lon="6.76269">
        <ele>1987</ele>
        <time>2021-08-03T09:39:08Z</time>
      </trkpt>
      <trkpt lat="45.52462" lon="6.76269">
        <ele>1986.9</ele>
        <time>2021-08-03T09:39:09Z</time>
      </trkpt>
      <trkpt lat="45.52462" lon="6.76269">
        <ele>1986.9</ele>
        <time>2021-08-03T09:39:10Z</time>
      </trkpt>
      <trkpt lat="45.52462" lon="6.76269">
        <ele>1986.9</ele>
        <time>2021-08-03T09:39:11Z</time>
      </trkpt>
      <trkpt lat="45.52462" lon="6.76269">
        <ele>1986.8</ele>
        <time>2021-08-03T09:39:12Z</time>
      </trkpt>
      <trkpt lat="45.52462" lon="6.76269">
        <ele>1986.8</ele>
        <time>2021-08-03T09:39:13Z</time>
      </trkpt>
      <trkpt lat="45.52462" lon="6.76269">
        <ele>1986.8</ele>
        <time>2021-08-03T09:39:14Z</time>
      </trkpt>
      <trkpt lat="45.52462" lon="6.76269">
        <ele>1986.8</ele>
        <time>2021-08-03T09:39:15Z</time>
      </trkpt>
      <trkpt lat="45.52462" lon="6.76269">
        <ele>1986.8</ele>
        <time>2021-08-03T09:39:16Z</time>
      </trkpt>
      <trkpt lat="45.52462" lon="6.76269">
        <ele>1986.8</ele>
        <time>2021-08-03T09:39:17Z</time>
      </trkpt>
      <trkpt lat="45.52462" lon="6.76269">
        <ele>1986.8</ele>
        <time>2021-08-03T09:39:18Z</time>
      </trkpt>
      <trkpt lat="45.52462" lon="6.76269">
        <ele>1986.8</ele>
        <time>2021-08-03T09:39:19Z</time>
      </trkpt>
      <trkpt lat="45.52462" lon="6.76269">
        <ele>1986.7</ele>
        <time>2021-08-03T09:39:20Z</time>
      </trkpt>
      <trkpt lat="45.52462" lon="6.76269">
        <ele>1986.7</ele>
        <time>2021-08-03T09:39:21Z</time>
      </trkpt>
      <trkpt lat="45.52462" lon="6.76269">
        <ele>1986.6</ele>
        <time>2021-08-03T09:39:22Z</time>
      </trkpt>
      <trkpt lat="45.52462" lon="6.76269">
        <ele>1986.6</ele>
        <time>2021-08-03T09:39:23Z</time>
      </trkpt>
      <trkpt lat="45.52462" lon="6.76269">
        <ele>1986.5</ele>
        <time>2021-08-03T09:39:24Z</time>
      </trkpt>
      <trkpt lat="45.52462" lon="6.7627">
        <ele>1986.4</ele>
        <time>2021-08-03T09:39:25Z</time>
      </trkpt>
      <trkpt lat="45.52462" lon="6.7627">
        <ele>1986.3</ele>
        <time>2021-08-03T09:39:26Z</time>
      </trkpt>
      <trkpt lat="45.52462" lon="6.7627">
        <ele>1986.2</ele>
        <time>2021-08-03T09:39:27Z</time>
      </trkpt>
      <trkpt lat="45.52462" lon="6.7627">
        <ele>1986.2</ele>
        <time>2021-08-03T09:39:28Z</time>
      </trkpt>
      <trkpt lat="45.52462" lon="6.7627">
        <ele>1986</ele>
        <time>2021-08-03T09:39:29Z</time>
      </trkpt>
      <trkpt lat="45.52461" lon="6.76271">
        <ele>1985.9</ele>
        <time>2021-08-03T09:39:30Z</time>
      </trkpt>
      <trkpt lat="45.52461" lon="6.76271">
        <ele>1985.9</ele>
        <time>2021-08-03T09:39:31Z</time>
      </trkpt>
      <trkpt lat="45.52461" lon="6.76271">
        <ele>1985.8</ele>
        <time>2021-08-03T09:39:32Z</time>
      </trkpt>
      <trkpt lat="45.52461" lon="6.76271">
        <ele>1985.7</ele>
        <time>2021-08-03T09:39:33Z</time>
      </trkpt>
      <trkpt lat="45.52461" lon="6.76272">
        <ele>1985.6</ele>
        <time>2021-08-03T09:39:34Z</time>
      </trkpt>
      <trkpt lat="45.52461" lon="6.76272">
        <ele>1985.5</ele>
        <time>2021-08-03T09:39:35Z</time>
      </trkpt>
      <trkpt lat="45.52461" lon="6.76272">
        <ele>1985.4</ele>
        <time>2021-08-03T09:39:36Z</time>
      </trkpt>
      <trkpt lat="45.52461" lon="6.76272">
        <ele>1985.3</ele>
        <time>2021-08-03T09:39:37Z</time>
      </trkpt>
      <trkpt lat="45.52461" lon="6.76272">
        <ele>1985.2</ele>
        <time>2021-08-03T09:39:38Z</time>
      </trkpt>
      <trkpt lat="45.52461" lon="6.76273">
        <ele>1985.1</ele>
        <time>2021-08-03T09:39:39Z</time>
      </trkpt>
      <trkpt lat="45.52461" lon="6.76273">
        <ele>1985.1</ele>
        <time>2021-08-03T09:39:40Z</time>
      </trkpt>
      <trkpt lat="45.52461" lon="6.76273">
        <ele>1985</ele>
        <time>2021-08-03T09:39:41Z</time>
      </trkpt>
      <trkpt lat="45.52461" lon="6.76273">
        <ele>1985</ele>
        <time>2021-08-03T09:39:42Z</time>
      </trkpt>
      <trkpt lat="45.52461" lon="6.76273">
        <ele>1984.9</ele>
        <time>2021-08-03T09:39:43Z</time>
      </trkpt>
      <trkpt lat="45.52461" lon="6.76273">
        <ele>1984.9</ele>
        <time>2021-08-03T09:39:44Z</time>
      </trkpt>
      <trkpt lat="45.52461" lon="6.76273">
        <ele>1984.8</ele>
        <time>2021-08-03T09:39:45Z</time>
      </trkpt>
      <trkpt lat="45.52461" lon="6.76273">
        <ele>1984.8</ele>
        <time>2021-08-03T09:39:46Z</time>
      </trkpt>
      <trkpt lat="45.52461" lon="6.76273">
        <ele>1984.8</ele>
        <time>2021-08-03T09:39:47Z</time>
      </trkpt>
      <trkpt lat="45.52461" lon="6.76273">
        <ele>1984.8</ele>
        <time>2021-08-03T09:39:48Z</time>
      </trkpt>
      <trkpt lat="45.52461" lon="6.76273">
        <ele>1984.8</ele>
        <time>2021-08-03T09:39:49Z</time>
      </trkpt>
      <trkpt lat="45.52461" lon="6.76273">
        <ele>1984.7</ele>
        <time>2021-08-03T09:39:50Z</time>
      </trkpt>
      <trkpt lat="45.52461" lon="6.76273">
        <ele>1984.7</ele>
        <time>2021-08-03T09:39:51Z</time>
      </trkpt>
      <trkpt lat="45.52461" lon="6.76273">
        <ele>1984.7</ele>
        <time>2021-08-03T09:39:52Z</time>
      </trkpt>
      <trkpt lat="45.52461" lon="6.76273">
        <ele>1984.6</ele>
        <time>2021-08-03T09:39:53Z</time>
      </trkpt>
      <trkpt lat="45.52461" lon="6.76273">
        <ele>1984.5</ele>
        <time>2021-08-03T09:39:54Z</time>
      </trkpt>
      <trkpt lat="45.52461" lon="6.76273">
        <ele>1984.4</ele>
        <time>2021-08-03T09:39:55Z</time>
      </trkpt>
      <trkpt lat="45.52462" lon="6.76274">
        <ele>1984.3</ele>
        <time>2021-08-03T09:39:56Z</time>
      </trkpt>
      <trkpt lat="45.52462" lon="6.76274">
        <ele>1984</ele>
        <time>2021-08-03T09:39:57Z</time>
      </trkpt>
      <trkpt lat="45.52462" lon="6.76275">
        <ele>1983.7</ele>
        <time>2021-08-03T09:39:58Z</time>
      </trkpt>
      <trkpt lat="45.52462" lon="6.76275">
        <ele>1983.4</ele>
        <time>2021-08-03T09:39:59Z</time>
      </trkpt>
      <trkpt lat="45.52463" lon="6.76276">
        <ele>1983.1</ele>
        <time>2021-08-03T09:40:00Z</time>
      </trkpt>
      <trkpt lat="45.52463" lon="6.76277">
        <ele>1982.8</ele>
        <time>2021-08-03T09:40:01Z</time>
      </trkpt>
      <trkpt lat="45.52463" lon="6.76277">
        <ele>1982.5</ele>
        <time>2021-08-03T09:40:02Z</time>
      </trkpt>
      <trkpt lat="45.52464" lon="6.76278">
        <ele>1982.3</ele>
        <time>2021-08-03T09:40:03Z</time>
      </trkpt>
      <trkpt lat="45.52464" lon="6.76278">
        <ele>1982.1</ele>
        <time>2021-08-03T09:40:04Z</time>
      </trkpt>
      <trkpt lat="45.52464" lon="6.76278">
        <ele>1982</ele>
        <time>2021-08-03T09:40:05Z</time>
      </trkpt>
      <trkpt lat="45.52464" lon="6.76278">
        <ele>1981.8</ele>
        <time>2021-08-03T09:40:06Z</time>
      </trkpt>
      <trkpt lat="45.52465" lon="6.76279">
        <ele>1981.7</ele>
        <time>2021-08-03T09:40:07Z</time>
      </trkpt>
      <trkpt lat="45.52465" lon="6.76279">
        <ele>1981.6</ele>
        <time>2021-08-03T09:40:08Z</time>
      </trkpt>
      <trkpt lat="45.52465" lon="6.76279">
        <ele>1981.4</ele>
        <time>2021-08-03T09:40:09Z</time>
      </trkpt>
      <trkpt lat="45.52465" lon="6.7628">
        <ele>1981.3</ele>
        <time>2021-08-03T09:40:10Z</time>
      </trkpt>
      <trkpt lat="45.52465" lon="6.7628">
        <ele>1981.1</ele>
        <time>2021-08-03T09:40:11Z</time>
      </trkpt>
      <trkpt lat="45.52465" lon="6.76281">
        <ele>1980.9</ele>
        <time>2021-08-03T09:40:12Z</time>
      </trkpt>
      <trkpt lat="45.52465" lon="6.76281">
        <ele>1980.7</ele>
        <time>2021-08-03T09:40:13Z</time>
      </trkpt>
      <trkpt lat="45.52465" lon="6.76282">
        <ele>1980.5</ele>
        <time>2021-08-03T09:40:14Z</time>
      </trkpt>
      <trkpt lat="45.52465" lon="6.76283">
        <ele>1980.2</ele>
        <time>2021-08-03T09:40:15Z</time>
      </trkpt>
      <trkpt lat="45.52465" lon="6.76283">
        <ele>1980</ele>
        <time>2021-08-03T09:40:16Z</time>
      </trkpt>
      <trkpt lat="45.52465" lon="6.76284">
        <ele>1979.7</ele>
        <time>2021-08-03T09:40:17Z</time>
      </trkpt>
      <trkpt lat="45.52465" lon="6.76285">
        <ele>1979.4</ele>
        <time>2021-08-03T09:40:18Z</time>
      </trkpt>
      <trkpt lat="45.52465" lon="6.76286">
        <ele>1979.1</ele>
        <time>2021-08-03T09:40:19Z</time>
      </trkpt>
      <trkpt lat="45.52465" lon="6.76287">
        <ele>1978.7</ele>
        <time>2021-08-03T09:40:20Z</time>
      </trkpt>
      <trkpt lat="45.52466" lon="6.76288">
        <ele>1978.4</ele>
        <time>2021-08-03T09:40:21Z</time>
      </trkpt>
      <trkpt lat="45.52466" lon="6.76289">
        <ele>1977.9</ele>
        <time>2021-08-03T09:40:22Z</time>
      </trkpt>
      <trkpt lat="45.52466" lon="6.7629">
        <ele>1977.5</ele>
        <time>2021-08-03T09:40:23Z</time>
      </trkpt>
      <trkpt lat="45.52467" lon="6.76291">
        <ele>1977.1</ele>
        <time>2021-08-03T09:40:24Z</time>
      </trkpt>
      <trkpt lat="45.52467" lon="6.76292">
        <ele>1976.7</ele>
        <time>2021-08-03T09:40:25Z</time>
      </trkpt>
      <trkpt lat="45.52468" lon="6.76293">
        <ele>1976.3</ele>
        <time>2021-08-03T09:40:26Z</time>
      </trkpt>
      <trkpt lat="45.52468" lon="6.76294">
        <ele>1976</ele>
        <time>2021-08-03T09:40:27Z</time>
      </trkpt>
      <trkpt lat="45.52468" lon="6.76295">
        <ele>1975.7</ele>
        <time>2021-08-03T09:40:28Z</time>
      </trkpt>
      <trkpt lat="45.52469" lon="6.76295">
        <ele>1975.5</ele>
        <time>2021-08-03T09:40:29Z</time>
      </trkpt>
      <trkpt lat="45.52469" lon="6.76296">
        <ele>1975.4</ele>
        <time>2021-08-03T09:40:30Z</time>
      </trkpt>
      <trkpt lat="45.52469" lon="6.76296">
        <ele>1975.3</ele>
        <time>2021-08-03T09:40:31Z</time>
      </trkpt>
      <trkpt lat="45.52469" lon="6.76296">
        <ele>1975.2</ele>
        <time>2021-08-03T09:40:32Z</time>
      </trkpt>
      <trkpt lat="45.52469" lon="6.76297">
        <ele>1975.1</ele>
        <time>2021-08-03T09:40:33Z</time>
      </trkpt>
      <trkpt lat="45.52469" lon="6.76297">
        <ele>1974.9</ele>
        <time>2021-08-03T09:40:34Z</time>
      </trkpt>
      <trkpt lat="45.5247" lon="6.76297">
        <ele>1974.7</ele>
        <time>2021-08-03T09:40:35Z</time>
      </trkpt>
      <trkpt lat="45.5247" lon="6.76297">
        <ele>1974.5</ele>
        <time>2021-08-03T09:40:36Z</time>
      </trkpt>
      <trkpt lat="45.5247" lon="6.76298">
        <ele>1974.4</ele>
        <time>2021-08-03T09:40:37Z</time>
      </trkpt>
      <trkpt lat="45.52471" lon="6.76298">
        <ele>1974.2</ele>
        <time>2021-08-03T09:40:38Z</time>
      </trkpt>
      <trkpt lat="45.52471" lon="6.76298">
        <ele>1974.1</ele>
        <time>2021-08-03T09:40:39Z</time>
      </trkpt>
      <trkpt lat="45.52471" lon="6.76297">
        <ele>1974.1</ele>
        <time>2021-08-03T09:40:40Z</time>
      </trkpt>
      <trkpt lat="45.52471" lon="6.76297">
        <ele>1973.9</ele>
        <time>2021-08-03T09:40:41Z</time>
      </trkpt>
      <trkpt lat="45.52471" lon="6.76296">
        <ele>1973.6</ele>
        <time>2021-08-03T09:40:42Z</time>
      </trkpt>
      <trkpt lat="45.52471" lon="6.76295">
        <ele>1973.3</ele>
        <time>2021-08-03T09:40:43Z</time>
      </trkpt>
      <trkpt lat="45.52471" lon="6.76294">
        <ele>1973</ele>
        <time>2021-08-03T09:40:44Z</time>
      </trkpt>
      <trkpt lat="45.52471" lon="6.76293">
        <ele>1972.8</ele>
        <time>2021-08-03T09:40:45Z</time>
      </trkpt>
      <trkpt lat="45.52471" lon="6.76292">
        <ele>1972.5</ele>
        <time>2021-08-03T09:40:46Z</time>
      </trkpt>
      <trkpt lat="45.52472" lon="6.76292">
        <ele>1972.3</ele>
        <time>2021-08-03T09:40:47Z</time>
      </trkpt>
      <trkpt lat="45.52472" lon="6.76291">
        <ele>1972.1</ele>
        <time>2021-08-03T09:40:48Z</time>
      </trkpt>
      <trkpt lat="45.52472" lon="6.76291">
        <ele>1971.9</ele>
        <time>2021-08-03T09:40:49Z</time>
      </trkpt>
      <trkpt lat="45.52473" lon="6.76291">
        <ele>1971.7</ele>
        <time>2021-08-03T09:40:50Z</time>
      </trkpt>
      <trkpt lat="45.52473" lon="6.76291">
        <ele>1971.5</ele>
        <time>2021-08-03T09:40:51Z</time>
      </trkpt>
      <trkpt lat="45.52474" lon="6.76292">
        <ele>1971.2</ele>
        <time>2021-08-03T09:40:52Z</time>
      </trkpt>
      <trkpt lat="45.52474" lon="6.76292">
        <ele>1971.1</ele>
        <time>2021-08-03T09:40:53Z</time>
      </trkpt>
      <trkpt lat="45.52474" lon="6.76292">
        <ele>1971</ele>
        <time>2021-08-03T09:40:54Z</time>
      </trkpt>
      <trkpt lat="45.52475" lon="6.76292">
        <ele>1971</ele>
        <time>2021-08-03T09:40:55Z</time>
      </trkpt>
      <trkpt lat="45.52475" lon="6.76292">
        <ele>1970.9</ele>
        <time>2021-08-03T09:40:56Z</time>
      </trkpt>
      <trkpt lat="45.52475" lon="6.76292">
        <ele>1970.8</ele>
        <time>2021-08-03T09:40:57Z</time>
      </trkpt>
      <trkpt lat="45.52475" lon="6.76292">
        <ele>1970.7</ele>
        <time>2021-08-03T09:40:58Z</time>
      </trkpt>
      <trkpt lat="45.52475" lon="6.76293">
        <ele>1970.6</ele>
        <time>2021-08-03T09:40:59Z</time>
      </trkpt>
      <trkpt lat="45.52475" lon="6.76293">
        <ele>1970.5</ele>
        <time>2021-08-03T09:41:00Z</time>
      </trkpt>
      <trkpt lat="45.52476" lon="6.76293">
        <ele>1970.4</ele>
        <time>2021-08-03T09:41:01Z</time>
      </trkpt>
      <trkpt lat="45.52476" lon="6.76293">
        <ele>1970.4</ele>
        <time>2021-08-03T09:41:02Z</time>
      </trkpt>
      <trkpt lat="45.52476" lon="6.76293">
        <ele>1970.3</ele>
        <time>2021-08-03T09:41:03Z</time>
      </trkpt>
      <trkpt lat="45.52476" lon="6.76293">
        <ele>1970.2</ele>
        <time>2021-08-03T09:41:04Z</time>
      </trkpt>
      <trkpt lat="45.52476" lon="6.76293">
        <ele>1970.1</ele>
        <time>2021-08-03T09:41:05Z</time>
      </trkpt>
      <trkpt lat="45.52476" lon="6.76293">
        <ele>1970</ele>
        <time>2021-08-03T09:41:06Z</time>
      </trkpt>
      <trkpt lat="45.52477" lon="6.76294">
        <ele>1970</ele>
        <time>2021-08-03T09:41:07Z</time>
      </trkpt>
      <trkpt lat="45.52477" lon="6.76294">
        <ele>1969.8</ele>
        <time>2021-08-03T09:41:08Z</time>
      </trkpt>
      <trkpt lat="45.52477" lon="6.76294">
        <ele>1969.8</ele>
        <time>2021-08-03T09:41:09Z</time>
      </trkpt>
      <trkpt lat="45.52477" lon="6.76294">
        <ele>1969.7</ele>
        <time>2021-08-03T09:41:10Z</time>
      </trkpt>
      <trkpt lat="45.52477" lon="6.76294">
        <ele>1969.6</ele>
        <time>2021-08-03T09:41:11Z</time>
      </trkpt>
      <trkpt lat="45.52478" lon="6.76294">
        <ele>1969.5</ele>
        <time>2021-08-03T09:41:12Z</time>
      </trkpt>
      <trkpt lat="45.52478" lon="6.76294">
        <ele>1969.4</ele>
        <time>2021-08-03T09:41:13Z</time>
      </trkpt>
      <trkpt lat="45.52478" lon="6.76295">
        <ele>1969.4</ele>
        <time>2021-08-03T09:41:14Z</time>
      </trkpt>
      <trkpt lat="45.52478" lon="6.76295">
        <ele>1969.3</ele>
        <time>2021-08-03T09:41:15Z</time>
      </trkpt>
      <trkpt lat="45.52478" lon="6.76295">
        <ele>1969.2</ele>
        <time>2021-08-03T09:41:16Z</time>
      </trkpt>
      <trkpt lat="45.52478" lon="6.76295">
        <ele>1969.1</ele>
        <time>2021-08-03T09:41:17Z</time>
      </trkpt>
      <trkpt lat="45.52479" lon="6.76295">
        <ele>1969</ele>
        <time>2021-08-03T09:41:18Z</time>
      </trkpt>
      <trkpt lat="45.52479" lon="6.76295">
        <ele>1968.9</ele>
        <time>2021-08-03T09:41:19Z</time>
      </trkpt>
      <trkpt lat="45.52479" lon="6.76295">
        <ele>1968.8</ele>
        <time>2021-08-03T09:41:20Z</time>
      </trkpt>
      <trkpt lat="45.52479" lon="6.76295">
        <ele>1968.7</ele>
        <time>2021-08-03T09:41:21Z</time>
      </trkpt>
      <trkpt lat="45.52479" lon="6.76296">
        <ele>1968.6</ele>
        <time>2021-08-03T09:41:22Z</time>
      </trkpt>
      <trkpt lat="45.52479" lon="6.76296">
        <ele>1968.5</ele>
        <time>2021-08-03T09:41:23Z</time>
      </trkpt>
      <trkpt lat="45.5248" lon="6.76296">
        <ele>1968.4</ele>
        <time>2021-08-03T09:41:24Z</time>
      </trkpt>
      <trkpt lat="45.5248" lon="6.76296">
        <ele>1968.3</ele>
        <time>2021-08-03T09:41:25Z</time>
      </trkpt>
      <trkpt lat="45.5248" lon="6.76296">
        <ele>1968.3</ele>
        <time>2021-08-03T09:41:26Z</time>
      </trkpt>
      <trkpt lat="45.5248" lon="6.76296">
        <ele>1968.2</ele>
        <time>2021-08-03T09:41:27Z</time>
      </trkpt>
      <trkpt lat="45.5248" lon="6.76296">
        <ele>1968.1</ele>
        <time>2021-08-03T09:41:28Z</time>
      </trkpt>
      <trkpt lat="45.52481" lon="6.76297">
        <ele>1968</ele>
        <time>2021-08-03T09:41:29Z</time>
      </trkpt>
      <trkpt lat="45.52481" lon="6.76297">
        <ele>1967.9</ele>
        <time>2021-08-03T09:41:30Z</time>
      </trkpt>
      <trkpt lat="45.52481" lon="6.76297">
        <ele>1967.8</ele>
        <time>2021-08-03T09:41:31Z</time>
      </trkpt>
      <trkpt lat="45.52481" lon="6.76297">
        <ele>1967.7</ele>
        <time>2021-08-03T09:41:32Z</time>
      </trkpt>
      <trkpt lat="45.52481" lon="6.76297">
        <ele>1967.6</ele>
        <time>2021-08-03T09:41:33Z</time>
      </trkpt>
      <trkpt lat="45.52481" lon="6.76297">
        <ele>1967.5</ele>
        <time>2021-08-03T09:41:34Z</time>
      </trkpt>
      <trkpt lat="45.52482" lon="6.76297">
        <ele>1967.4</ele>
        <time>2021-08-03T09:41:35Z</time>
      </trkpt>
      <trkpt lat="45.52482" lon="6.76297">
        <ele>1967.3</ele>
        <time>2021-08-03T09:41:36Z</time>
      </trkpt>
      <trkpt lat="45.52482" lon="6.76298">
        <ele>1967.2</ele>
        <time>2021-08-03T09:41:37Z</time>
      </trkpt>
      <trkpt lat="45.52482" lon="6.76298">
        <ele>1967.1</ele>
        <time>2021-08-03T09:41:38Z</time>
      </trkpt>
      <trkpt lat="45.52482" lon="6.76298">
        <ele>1967</ele>
        <time>2021-08-03T09:41:39Z</time>
      </trkpt>
      <trkpt lat="45.52483" lon="6.76297">
        <ele>1966.8</ele>
        <time>2021-08-03T09:41:40Z</time>
      </trkpt>
      <trkpt lat="45.52483" lon="6.76297">
        <ele>1966.8</ele>
        <time>2021-08-03T09:41:41Z</time>
      </trkpt>
      <trkpt lat="45.52483" lon="6.76297">
        <ele>1966.7</ele>
        <time>2021-08-03T09:41:42Z</time>
      </trkpt>
      <trkpt lat="45.52483" lon="6.76297">
        <ele>1966.6</ele>
        <time>2021-08-03T09:41:43Z</time>
      </trkpt>
      <trkpt lat="45.52483" lon="6.76297">
        <ele>1966.6</ele>
        <time>2021-08-03T09:41:44Z</time>
      </trkpt>
      <trkpt lat="45.52483" lon="6.76297">
        <ele>1966.5</ele>
        <time>2021-08-03T09:41:45Z</time>
      </trkpt>
      <trkpt lat="45.52483" lon="6.76297">
        <ele>1966.5</ele>
        <time>2021-08-03T09:41:46Z</time>
      </trkpt>
      <trkpt lat="45.52483" lon="6.76297">
        <ele>1966.4</ele>
        <time>2021-08-03T09:41:47Z</time>
      </trkpt>
      <trkpt lat="45.52484" lon="6.76297">
        <ele>1966.3</ele>
        <time>2021-08-03T09:41:48Z</time>
      </trkpt>
      <trkpt lat="45.52484" lon="6.76297">
        <ele>1966.2</ele>
        <time>2021-08-03T09:41:49Z</time>
      </trkpt>
      <trkpt lat="45.52484" lon="6.76297">
        <ele>1966.2</ele>
        <time>2021-08-03T09:41:50Z</time>
      </trkpt>
      <trkpt lat="45.52484" lon="6.76297">
        <ele>1966.1</ele>
        <time>2021-08-03T09:41:51Z</time>
      </trkpt>
      <trkpt lat="45.52484" lon="6.76296">
        <ele>1966.1</ele>
        <time>2021-08-03T09:41:52Z</time>
      </trkpt>
      <trkpt lat="45.52484" lon="6.76296">
        <ele>1966</ele>
        <time>2021-08-03T09:41:53Z</time>
      </trkpt>
      <trkpt lat="45.52484" lon="6.76296">
        <ele>1965.9</ele>
        <time>2021-08-03T09:41:54Z</time>
      </trkpt>
      <trkpt lat="45.52484" lon="6.76296">
        <ele>1965.8</ele>
        <time>2021-08-03T09:41:55Z</time>
      </trkpt>
      <trkpt lat="45.52484" lon="6.76296">
        <ele>1965.8</ele>
        <time>2021-08-03T09:41:56Z</time>
      </trkpt>
      <trkpt lat="45.52485" lon="6.76296">
        <ele>1965.7</ele>
        <time>2021-08-03T09:41:57Z</time>
      </trkpt>
      <trkpt lat="45.52485" lon="6.76296">
        <ele>1965.7</ele>
        <time>2021-08-03T09:41:58Z</time>
      </trkpt>
      <trkpt lat="45.52485" lon="6.76296">
        <ele>1965.6</ele>
        <time>2021-08-03T09:41:59Z</time>
      </trkpt>
      <trkpt lat="45.52485" lon="6.76296">
        <ele>1965.5</ele>
        <time>2021-08-03T09:42:00Z</time>
      </trkpt>
      <trkpt lat="45.52485" lon="6.76296">
        <ele>1965.5</ele>
        <time>2021-08-03T09:42:01Z</time>
      </trkpt>
      <trkpt lat="45.52485" lon="6.76296">
        <ele>1965.4</ele>
        <time>2021-08-03T09:42:02Z</time>
      </trkpt>
      <trkpt lat="45.52485" lon="6.76296">
        <ele>1965.3</ele>
        <time>2021-08-03T09:42:03Z</time>
      </trkpt>
      <trkpt lat="45.52485" lon="6.76296">
        <ele>1965.3</ele>
        <time>2021-08-03T09:42:04Z</time>
      </trkpt>
      <trkpt lat="45.52485" lon="6.76296">
        <ele>1965.2</ele>
        <time>2021-08-03T09:42:05Z</time>
      </trkpt>
      <trkpt lat="45.52486" lon="6.76295">
        <ele>1965.1</ele>
        <time>2021-08-03T09:42:06Z</time>
      </trkpt>
      <trkpt lat="45.52486" lon="6.76295">
        <ele>1965.1</ele>
        <time>2021-08-03T09:42:07Z</time>
      </trkpt>
      <trkpt lat="45.52486" lon="6.76295">
        <ele>1965</ele>
        <time>2021-08-03T09:42:08Z</time>
      </trkpt>
      <trkpt lat="45.52486" lon="6.76295">
        <ele>1965</ele>
        <time>2021-08-03T09:42:09Z</time>
      </trkpt>
      <trkpt lat="45.52486" lon="6.76295">
        <ele>1964.9</ele>
        <time>2021-08-03T09:42:10Z</time>
      </trkpt>
      <trkpt lat="45.52486" lon="6.76295">
        <ele>1964.9</ele>
        <time>2021-08-03T09:42:11Z</time>
      </trkpt>
      <trkpt lat="45.52486" lon="6.76295">
        <ele>1964.7</ele>
        <time>2021-08-03T09:42:12Z</time>
      </trkpt>
      <trkpt lat="45.52486" lon="6.76295">
        <ele>1964.7</ele>
        <time>2021-08-03T09:42:13Z</time>
      </trkpt>
      <trkpt lat="45.52487" lon="6.76295">
        <ele>1964.6</ele>
        <time>2021-08-03T09:42:14Z</time>
      </trkpt>
      <trkpt lat="45.52487" lon="6.76295">
        <ele>1964.6</ele>
        <time>2021-08-03T09:42:15Z</time>
      </trkpt>
      <trkpt lat="45.52487" lon="6.76295">
        <ele>1964.5</ele>
        <time>2021-08-03T09:42:16Z</time>
      </trkpt>
      <trkpt lat="45.52487" lon="6.76295">
        <ele>1964.5</ele>
        <time>2021-08-03T09:42:17Z</time>
      </trkpt>
      <trkpt lat="45.52487" lon="6.76295">
        <ele>1964.4</ele>
        <time>2021-08-03T09:42:18Z</time>
      </trkpt>
      <trkpt lat="45.52487" lon="6.76295">
        <ele>1964.3</ele>
        <time>2021-08-03T09:42:19Z</time>
      </trkpt>
      <trkpt lat="45.52487" lon="6.76294">
        <ele>1964.2</ele>
        <time>2021-08-03T09:42:20Z</time>
      </trkpt>
      <trkpt lat="45.52488" lon="6.76295">
        <ele>1964</ele>
        <time>2021-08-03T09:42:21Z</time>
      </trkpt>
      <trkpt lat="45.52488" lon="6.76295">
        <ele>1963.9</ele>
        <time>2021-08-03T09:42:22Z</time>
      </trkpt>
      <trkpt lat="45.52488" lon="6.76295">
        <ele>1963.8</ele>
        <time>2021-08-03T09:42:23Z</time>
      </trkpt>
      <trkpt lat="45.52488" lon="6.76295">
        <ele>1963.7</ele>
        <time>2021-08-03T09:42:24Z</time>
      </trkpt>
      <trkpt lat="45.52488" lon="6.76295">
        <ele>1963.6</ele>
        <time>2021-08-03T09:42:25Z</time>
      </trkpt>
      <trkpt lat="45.52489" lon="6.76295">
        <ele>1963.5</ele>
        <time>2021-08-03T09:42:26Z</time>
      </trkpt>
      <trkpt lat="45.52489" lon="6.76294">
        <ele>1963.4</ele>
        <time>2021-08-03T09:42:27Z</time>
      </trkpt>
      <trkpt lat="45.52489" lon="6.76294">
        <ele>1963.2</ele>
        <time>2021-08-03T09:42:28Z</time>
      </trkpt>
      <trkpt lat="45.52489" lon="6.76294">
        <ele>1963.1</ele>
        <time>2021-08-03T09:42:29Z</time>
      </trkpt>
      <trkpt lat="45.5249" lon="6.76294">
        <ele>1963</ele>
        <time>2021-08-03T09:42:30Z</time>
      </trkpt>
      <trkpt lat="45.5249" lon="6.76294">
        <ele>1962.9</ele>
        <time>2021-08-03T09:42:31Z</time>
      </trkpt>
      <trkpt lat="45.5249" lon="6.76294">
        <ele>1962.8</ele>
        <time>2021-08-03T09:42:32Z</time>
      </trkpt>
      <trkpt lat="45.5249" lon="6.76294">
        <ele>1962.7</ele>
        <time>2021-08-03T09:42:33Z</time>
      </trkpt>
      <trkpt lat="45.5249" lon="6.76294">
        <ele>1962.6</ele>
        <time>2021-08-03T09:42:34Z</time>
      </trkpt>
      <trkpt lat="45.52491" lon="6.76294">
        <ele>1962.4</ele>
        <time>2021-08-03T09:42:35Z</time>
      </trkpt>
      <trkpt lat="45.52491" lon="6.76294">
        <ele>1962.3</ele>
        <time>2021-08-03T09:42:36Z</time>
      </trkpt>
      <trkpt lat="45.52491" lon="6.76294">
        <ele>1962.2</ele>
        <time>2021-08-03T09:42:37Z</time>
      </trkpt>
      <trkpt lat="45.52491" lon="6.76294">
        <ele>1962.1</ele>
        <time>2021-08-03T09:42:38Z</time>
      </trkpt>
      <trkpt lat="45.52491" lon="6.76293">
        <ele>1962</ele>
        <time>2021-08-03T09:42:39Z</time>
      </trkpt>
      <trkpt lat="45.52492" lon="6.76293">
        <ele>1961.9</ele>
        <time>2021-08-03T09:42:40Z</time>
      </trkpt>
      <trkpt lat="45.52492" lon="6.76293">
        <ele>1961.8</ele>
        <time>2021-08-03T09:42:41Z</time>
      </trkpt>
      <trkpt lat="45.52492" lon="6.76293">
        <ele>1961.7</ele>
        <time>2021-08-03T09:42:42Z</time>
      </trkpt>
      <trkpt lat="45.52492" lon="6.76293">
        <ele>1961.6</ele>
        <time>2021-08-03T09:42:43Z</time>
      </trkpt>
      <trkpt lat="45.52493" lon="6.76293">
        <ele>1961.3</ele>
        <time>2021-08-03T09:42:44Z</time>
      </trkpt>
      <trkpt lat="45.52494" lon="6.76292">
        <ele>1961</ele>
        <time>2021-08-03T09:42:45Z</time>
      </trkpt>
      <trkpt lat="45.52494" lon="6.76292">
        <ele>1960.7</ele>
        <time>2021-08-03T09:42:46Z</time>
      </trkpt>
      <trkpt lat="45.52495" lon="6.76292">
        <ele>1960.4</ele>
        <time>2021-08-03T09:42:47Z</time>
      </trkpt>
      <trkpt lat="45.52495" lon="6.76292">
        <ele>1960.1</ele>
        <time>2021-08-03T09:42:48Z</time>
      </trkpt>
      <trkpt lat="45.52496" lon="6.76293">
        <ele>1959.9</ele>
        <time>2021-08-03T09:42:49Z</time>
      </trkpt>
      <trkpt lat="45.52496" lon="6.76293">
        <ele>1959.6</ele>
        <time>2021-08-03T09:42:50Z</time>
      </trkpt>
      <trkpt lat="45.52497" lon="6.76294">
        <ele>1959.3</ele>
        <time>2021-08-03T09:42:51Z</time>
      </trkpt>
      <trkpt lat="45.52497" lon="6.76295">
        <ele>1959.1</ele>
        <time>2021-08-03T09:42:52Z</time>
      </trkpt>
      <trkpt lat="45.52497" lon="6.76296">
        <ele>1958.8</ele>
        <time>2021-08-03T09:42:53Z</time>
      </trkpt>
      <trkpt lat="45.52497" lon="6.76297">
        <ele>1958.4</ele>
        <time>2021-08-03T09:42:54Z</time>
      </trkpt>
      <trkpt lat="45.52497" lon="6.76298">
        <ele>1958.1</ele>
        <time>2021-08-03T09:42:55Z</time>
      </trkpt>
      <trkpt lat="45.52497" lon="6.76299">
        <ele>1957.7</ele>
        <time>2021-08-03T09:42:56Z</time>
      </trkpt>
      <trkpt lat="45.52497" lon="6.763">
        <ele>1957.3</ele>
        <time>2021-08-03T09:42:57Z</time>
      </trkpt>
      <trkpt lat="45.52497" lon="6.76302">
        <ele>1957</ele>
        <time>2021-08-03T09:42:58Z</time>
      </trkpt>
      <trkpt lat="45.52497" lon="6.76303">
        <ele>1956.7</ele>
        <time>2021-08-03T09:42:59Z</time>
      </trkpt>
      <trkpt lat="45.52497" lon="6.76304">
        <ele>1956.4</ele>
        <time>2021-08-03T09:43:00Z</time>
      </trkpt>
      <trkpt lat="45.52497" lon="6.76304">
        <ele>1956.2</ele>
        <time>2021-08-03T09:43:01Z</time>
      </trkpt>
      <trkpt lat="45.52497" lon="6.76305">
        <ele>1956</ele>
        <time>2021-08-03T09:43:02Z</time>
      </trkpt>
      <trkpt lat="45.52497" lon="6.76306">
        <ele>1955.8</ele>
        <time>2021-08-03T09:43:03Z</time>
      </trkpt>
      <trkpt lat="45.52497" lon="6.76306">
        <ele>1955.7</ele>
        <time>2021-08-03T09:43:04Z</time>
      </trkpt>
      <trkpt lat="45.52497" lon="6.76307">
        <ele>1955.5</ele>
        <time>2021-08-03T09:43:05Z</time>
      </trkpt>
      <trkpt lat="45.52497" lon="6.76307">
        <ele>1955.5</ele>
        <time>2021-08-03T09:43:06Z</time>
      </trkpt>
      <trkpt lat="45.52497" lon="6.76307">
        <ele>1955.4</ele>
        <time>2021-08-03T09:43:07Z</time>
      </trkpt>
      <trkpt lat="45.52497" lon="6.76307">
        <ele>1955.3</ele>
        <time>2021-08-03T09:43:08Z</time>
      </trkpt>
      <trkpt lat="45.52497" lon="6.76307">
        <ele>1955.3</ele>
        <time>2021-08-03T09:43:09Z</time>
      </trkpt>
      <trkpt lat="45.52497" lon="6.76307">
        <ele>1955.3</ele>
        <time>2021-08-03T09:43:10Z</time>
      </trkpt>
      <trkpt lat="45.52497" lon="6.76307">
        <ele>1955.3</ele>
        <time>2021-08-03T09:43:11Z</time>
      </trkpt>
      <trkpt lat="45.52497" lon="6.76307">
        <ele>1955.3</ele>
        <time>2021-08-03T09:43:12Z</time>
      </trkpt>
      <trkpt lat="45.52497" lon="6.76307">
        <ele>1955.3</ele>
        <time>2021-08-03T09:43:13Z</time>
      </trkpt>
      <trkpt lat="45.52497" lon="6.76307">
        <ele>1955.3</ele>
        <time>2021-08-03T09:43:14Z</time>
      </trkpt>
      <trkpt lat="45.52497" lon="6.76307">
        <ele>1955.3</ele>
        <time>2021-08-03T09:43:15Z</time>
      </trkpt>
      <trkpt lat="45.52497" lon="6.76307">
        <ele>1955.3</ele>
        <time>2021-08-03T09:43:16Z</time>
      </trkpt>
      <trkpt lat="45.52497" lon="6.76307">
        <ele>1955.3</ele>
        <time>2021-08-03T09:43:17Z</time>
      </trkpt>
      <trkpt lat="45.52497" lon="6.76307">
        <ele>1955.2</ele>
        <time>2021-08-03T09:43:18Z</time>
      </trkpt>
      <trkpt lat="45.52497" lon="6.76307">
        <ele>1955.2</ele>
        <time>2021-08-03T09:43:19Z</time>
      </trkpt>
      <trkpt lat="45.52497" lon="6.76307">
        <ele>1955.2</ele>
        <time>2021-08-03T09:43:20Z</time>
      </trkpt>
      <trkpt lat="45.52497" lon="6.76307">
        <ele>1955.2</ele>
        <time>2021-08-03T09:43:21Z</time>
      </trkpt>
      <trkpt lat="45.52497" lon="6.76307">
        <ele>1955.2</ele>
        <time>2021-08-03T09:43:22Z</time>
      </trkpt>
      <trkpt lat="45.52497" lon="6.76307">
        <ele>1955.2</ele>
        <time>2021-08-03T09:43:23Z</time>
      </trkpt>
      <trkpt lat="45.52497" lon="6.76307">
        <ele>1955.2</ele>
        <time>2021-08-03T09:43:24Z</time>
      </trkpt>
      <trkpt lat="45.52497" lon="6.76307">
        <ele>1955.2</ele>
        <time>2021-08-03T09:43:25Z</time>
      </trkpt>
      <trkpt lat="45.52497" lon="6.76307">
        <ele>1955.2</ele>
        <time>2021-08-03T09:43:26Z</time>
      </trkpt>
      <trkpt lat="45.52497" lon="6.76307">
        <ele>1955.2</ele>
        <time>2021-08-03T09:43:27Z</time>
      </trkpt>
      <trkpt lat="45.52497" lon="6.76307">
        <ele>1955.2</ele>
        <time>2021-08-03T09:43:28Z</time>
      </trkpt>
      <trkpt lat="45.52497" lon="6.76307">
        <ele>1955.2</ele>
        <time>2021-08-03T09:43:29Z</time>
      </trkpt>
      <trkpt lat="45.52497" lon="6.76307">
        <ele>1955.2</ele>
        <time>2021-08-03T09:43:30Z</time>
      </trkpt>
      <trkpt lat="45.52497" lon="6.76307">
        <ele>1955.2</ele>
        <time>2021-08-03T09:43:31Z</time>
      </trkpt>
      <trkpt lat="45.52497" lon="6.76307">
        <ele>1955.2</ele>
        <time>2021-08-03T09:43:32Z</time>
      </trkpt>
      <trkpt lat="45.52497" lon="6.76307">
        <ele>1955.2</ele>
        <time>2021-08-03T09:43:33Z</time>
      </trkpt>
      <trkpt lat="45.52497" lon="6.76307">
        <ele>1955.2</ele>
        <time>2021-08-03T09:43:34Z</time>
      </trkpt>
      <trkpt lat="45.52497" lon="6.76307">
        <ele>1955.2</ele>
        <time>2021-08-03T09:43:35Z</time>
      </trkpt>
      <trkpt lat="45.52497" lon="6.76307">
        <ele>1955.2</ele>
        <time>2021-08-03T09:43:36Z</time>
      </trkpt>
      <trkpt lat="45.52497" lon="6.76307">
        <ele>1955.2</ele>
        <time>2021-08-03T09:43:37Z</time>
      </trkpt>
      <trkpt lat="45.52497" lon="6.76307">
        <ele>1955.2</ele>
        <time>2021-08-03T09:43:38Z</time>
      </trkpt>
      <trkpt lat="45.52497" lon="6.76307">
        <ele>1955.2</ele>
        <time>2021-08-03T09:43:39Z</time>
      </trkpt>
      <trkpt lat="45.52497" lon="6.76307">
        <ele>1955.2</ele>
        <time>2021-08-03T09:43:40Z</time>
      </trkpt>
      <trkpt lat="45.52497" lon="6.76307">
        <ele>1955.2</ele>
        <time>2021-08-03T09:43:41Z</time>
      </trkpt>
      <trkpt lat="45.52497" lon="6.76307">
        <ele>1955.2</ele>
        <time>2021-08-03T09:43:42Z</time>
      </trkpt>
      <trkpt lat="45.52497" lon="6.76307">
        <ele>1955.2</ele>
        <time>2021-08-03T09:43:43Z</time>
      </trkpt>
      <trkpt lat="45.52497" lon="6.76307">
        <ele>1955.2</ele>
        <time>2021-08-03T09:43:44Z</time>
      </trkpt>
      <trkpt lat="45.52497" lon="6.76307">
        <ele>1955.2</ele>
        <time>2021-08-03T09:43:45Z</time>
      </trkpt>
      <trkpt lat="45.52497" lon="6.76307">
        <ele>1955.2</ele>
        <time>2021-08-03T09:43:46Z</time>
      </trkpt>
      <trkpt lat="45.52497" lon="6.76307">
        <ele>1955.2</ele>
        <time>2021-08-03T09:43:47Z</time>
      </trkpt>
      <trkpt lat="45.52497" lon="6.76307">
        <ele>1955.2</ele>
        <time>2021-08-03T09:43:48Z</time>
      </trkpt>
      <trkpt lat="45.52497" lon="6.76307">
        <ele>1955.2</ele>
        <time>2021-08-03T09:43:49Z</time>
      </trkpt>
      <trkpt lat="45.52497" lon="6.76307">
        <ele>1955.2</ele>
        <time>2021-08-03T09:43:50Z</time>
      </trkpt>
      <trkpt lat="45.52497" lon="6.76307">
        <ele>1955.2</ele>
        <time>2021-08-03T09:43:51Z</time>
      </trkpt>
      <trkpt lat="45.52497" lon="6.76307">
        <ele>1955.2</ele>
        <time>2021-08-03T09:43:52Z</time>
      </trkpt>
      <trkpt lat="45.52497" lon="6.76307">
        <ele>1955.2</ele>
        <time>2021-08-03T09:43:53Z</time>
      </trkpt>
      <trkpt lat="45.52497" lon="6.76307">
        <ele>1955.2</ele>
        <time>2021-08-03T09:43:54Z</time>
      </trkpt>
      <trkpt lat="45.52497" lon="6.76307">
        <ele>1955.2</ele>
        <time>2021-08-03T09:43:55Z</time>
      </trkpt>
      <trkpt lat="45.52497" lon="6.76307">
        <ele>1955.2</ele>
        <time>2021-08-03T09:43:56Z</time>
      </trkpt>
      <trkpt lat="45.52497" lon="6.76307">
        <ele>1955.2</ele>
        <time>2021-08-03T09:43:57Z</time>
      </trkpt>
      <trkpt lat="45.52497" lon="6.76307">
        <ele>1955.2</ele>
        <time>2021-08-03T09:43:58Z</time>
      </trkpt>
      <trkpt lat="45.52497" lon="6.76307">
        <ele>1955.2</ele>
        <time>2021-08-03T09:43:59Z</time>
      </trkpt>
      <trkpt lat="45.52497" lon="6.76307">
        <ele>1955.2</ele>
        <time>2021-08-03T09:44:00Z</time>
      </trkpt>
      <trkpt lat="45.52497" lon="6.76307">
        <ele>1955.2</ele>
        <time>2021-08-03T09:44:01Z</time>
      </trkpt>
      <trkpt lat="45.52497" lon="6.76307">
        <ele>1955.2</ele>
        <time>2021-08-03T09:44:02Z</time>
      </trkpt>
      <trkpt lat="45.52497" lon="6.76307">
        <ele>1955.2</ele>
        <time>2021-08-03T09:44:03Z</time>
      </trkpt>
      <trkpt lat="45.52497" lon="6.76307">
        <ele>1955.2</ele>
        <time>2021-08-03T09:44:04Z</time>
      </trkpt>
      <trkpt lat="45.52497" lon="6.76307">
        <ele>1955.2</ele>
        <time>2021-08-03T09:44:05Z</time>
      </trkpt>
      <trkpt lat="45.52497" lon="6.76307">
        <ele>1955.2</ele>
        <time>2021-08-03T09:44:06Z</time>
      </trkpt>
      <trkpt lat="45.52497" lon="6.76307">
        <ele>1955.2</ele>
        <time>2021-08-03T09:44:07Z</time>
      </trkpt>
      <trkpt lat="45.52497" lon="6.76307">
        <ele>1955.2</ele>
        <time>2021-08-03T09:44:08Z</time>
      </trkpt>
      <trkpt lat="45.52497" lon="6.76307">
        <ele>1955.2</ele>
        <time>2021-08-03T09:44:09Z</time>
      </trkpt>
      <trkpt lat="45.52497" lon="6.76307">
        <ele>1955.2</ele>
        <time>2021-08-03T09:44:10Z</time>
      </trkpt>
      <trkpt lat="45.52497" lon="6.76307">
        <ele>1955.2</ele>
        <time>2021-08-03T09:44:11Z</time>
      </trkpt>
      <trkpt lat="45.52497" lon="6.76307">
        <ele>1955.2</ele>
        <time>2021-08-03T09:44:12Z</time>
      </trkpt>
      <trkpt lat="45.52497" lon="6.76307">
        <ele>1955.2</ele>
        <time>2021-08-03T09:44:13Z</time>
      </trkpt>
      <trkpt lat="45.52497" lon="6.76307">
        <ele>1955.2</ele>
        <time>2021-08-03T09:44:14Z</time>
      </trkpt>
      <trkpt lat="45.52497" lon="6.76307">
        <ele>1955.2</ele>
        <time>2021-08-03T09:44:15Z</time>
      </trkpt>
      <trkpt lat="45.52497" lon="6.76307">
        <ele>1955.2</ele>
        <time>2021-08-03T09:44:16Z</time>
      </trkpt>
      <trkpt lat="45.52497" lon="6.76307">
        <ele>1955.2</ele>
        <time>2021-08-03T09:44:17Z</time>
      </trkpt>
      <trkpt lat="45.52497" lon="6.76307">
        <ele>1955.2</ele>
        <time>2021-08-03T09:44:18Z</time>
      </trkpt>
      <trkpt lat="45.52497" lon="6.76307">
        <ele>1955.2</ele>
        <time>2021-08-03T09:44:19Z</time>
      </trkpt>
      <trkpt lat="45.52497" lon="6.76307">
        <ele>1955.2</ele>
        <time>2021-08-03T09:44:20Z</time>
      </trkpt>
      <trkpt lat="45.52497" lon="6.76307">
        <ele>1955.2</ele>
        <time>2021-08-03T09:44:21Z</time>
      </trkpt>
      <trkpt lat="45.52497" lon="6.76307">
        <ele>1955.2</ele>
        <time>2021-08-03T09:44:22Z</time>
      </trkpt>
      <trkpt lat="45.52497" lon="6.76307">
        <ele>1955.2</ele>
        <time>2021-08-03T09:44:23Z</time>
      </trkpt>
      <trkpt lat="45.52497" lon="6.76307">
        <ele>1955.2</ele>
        <time>2021-08-03T09:44:24Z</time>
      </trkpt>
      <trkpt lat="45.52497" lon="6.76307">
        <ele>1955.1</ele>
        <time>2021-08-03T09:44:25Z</time>
      </trkpt>
      <trkpt lat="45.52496" lon="6.76307">
        <ele>1955</ele>
        <time>2021-08-03T09:44:26Z</time>
      </trkpt>
      <trkpt lat="45.52496" lon="6.76307">
        <ele>1954.9</ele>
        <time>2021-08-03T09:44:27Z</time>
      </trkpt>
      <trkpt lat="45.52496" lon="6.76307">
        <ele>1954.8</ele>
        <time>2021-08-03T09:44:28Z</time>
      </trkpt>
      <trkpt lat="45.52496" lon="6.76307">
        <ele>1954.8</ele>
        <time>2021-08-03T09:44:29Z</time>
      </trkpt>
      <trkpt lat="45.52496" lon="6.76307">
        <ele>1954.7</ele>
        <time>2021-08-03T09:44:30Z</time>
      </trkpt>
      <trkpt lat="45.52496" lon="6.76307">
        <ele>1954.7</ele>
        <time>2021-08-03T09:44:31Z</time>
      </trkpt>
      <trkpt lat="45.52496" lon="6.76307">
        <ele>1954.6</ele>
        <time>2021-08-03T09:44:32Z</time>
      </trkpt>
      <trkpt lat="45.52497" lon="6.76308">
        <ele>1954.4</ele>
        <time>2021-08-03T09:44:33Z</time>
      </trkpt>
      <trkpt lat="45.52497" lon="6.76308">
        <ele>1954.3</ele>
        <time>2021-08-03T09:44:34Z</time>
      </trkpt>
      <trkpt lat="45.52497" lon="6.76309">
        <ele>1954.2</ele>
        <time>2021-08-03T09:44:35Z</time>
      </trkpt>
      <trkpt lat="45.52497" lon="6.76309">
        <ele>1954</ele>
        <time>2021-08-03T09:44:36Z</time>
      </trkpt>
      <trkpt lat="45.52497" lon="6.7631">
        <ele>1953.8</ele>
        <time>2021-08-03T09:44:37Z</time>
      </trkpt>
      <trkpt lat="45.52497" lon="6.76311">
        <ele>1953.6</ele>
        <time>2021-08-03T09:44:38Z</time>
      </trkpt>
      <trkpt lat="45.52497" lon="6.76311">
        <ele>1953.4</ele>
        <time>2021-08-03T09:44:39Z</time>
      </trkpt>
      <trkpt lat="45.52497" lon="6.76312">
        <ele>1953.2</ele>
        <time>2021-08-03T09:44:40Z</time>
      </trkpt>
      <trkpt lat="45.52498" lon="6.76313">
        <ele>1953</ele>
        <time>2021-08-03T09:44:41Z</time>
      </trkpt>
      <trkpt lat="45.52498" lon="6.76313">
        <ele>1952.8</ele>
        <time>2021-08-03T09:44:42Z</time>
      </trkpt>
      <trkpt lat="45.52498" lon="6.76314">
        <ele>1952.6</ele>
        <time>2021-08-03T09:44:43Z</time>
      </trkpt>
      <trkpt lat="45.52499" lon="6.76314">
        <ele>1952.5</ele>
        <time>2021-08-03T09:44:44Z</time>
      </trkpt>
      <trkpt lat="45.52499" lon="6.76314">
        <ele>1952.3</ele>
        <time>2021-08-03T09:44:45Z</time>
      </trkpt>
      <trkpt lat="45.525" lon="6.76314">
        <ele>1952</ele>
        <time>2021-08-03T09:44:46Z</time>
      </trkpt>
      <trkpt lat="45.525" lon="6.76314">
        <ele>1951.8</ele>
        <time>2021-08-03T09:44:47Z</time>
      </trkpt>
      <trkpt lat="45.52501" lon="6.76314">
        <ele>1951.6</ele>
        <time>2021-08-03T09:44:48Z</time>
      </trkpt>
      <trkpt lat="45.52501" lon="6.76314">
        <ele>1951.4</ele>
        <time>2021-08-03T09:44:49Z</time>
      </trkpt>
      <trkpt lat="45.52502" lon="6.76313">
        <ele>1951.2</ele>
        <time>2021-08-03T09:44:50Z</time>
      </trkpt>
      <trkpt lat="45.52502" lon="6.76313">
        <ele>1951</ele>
        <time>2021-08-03T09:44:51Z</time>
      </trkpt>
      <trkpt lat="45.52502" lon="6.76313">
        <ele>1950.9</ele>
        <time>2021-08-03T09:44:52Z</time>
      </trkpt>
      <trkpt lat="45.52503" lon="6.76312">
        <ele>1950.7</ele>
        <time>2021-08-03T09:44:53Z</time>
      </trkpt>
      <trkpt lat="45.52503" lon="6.76312">
        <ele>1950.6</ele>
        <time>2021-08-03T09:44:54Z</time>
      </trkpt>
      <trkpt lat="45.52503" lon="6.76311">
        <ele>1950.5</ele>
        <time>2021-08-03T09:44:55Z</time>
      </trkpt>
      <trkpt lat="45.52503" lon="6.76311">
        <ele>1950.3</ele>
        <time>2021-08-03T09:44:56Z</time>
      </trkpt>
      <trkpt lat="45.52503" lon="6.7631">
        <ele>1950.2</ele>
        <time>2021-08-03T09:44:57Z</time>
      </trkpt>
      <trkpt lat="45.52504" lon="6.7631">
        <ele>1950</ele>
        <time>2021-08-03T09:44:58Z</time>
      </trkpt>
      <trkpt lat="45.52504" lon="6.7631">
        <ele>1949.9</ele>
        <time>2021-08-03T09:44:59Z</time>
      </trkpt>
      <trkpt lat="45.52504" lon="6.7631">
        <ele>1949.7</ele>
        <time>2021-08-03T09:45:00Z</time>
      </trkpt>
      <trkpt lat="45.52505" lon="6.7631">
        <ele>1949.5</ele>
        <time>2021-08-03T09:45:01Z</time>
      </trkpt>
      <trkpt lat="45.52505" lon="6.7631">
        <ele>1949.3</ele>
        <time>2021-08-03T09:45:02Z</time>
      </trkpt>
      <trkpt lat="45.52506" lon="6.7631">
        <ele>1949.2</ele>
        <time>2021-08-03T09:45:03Z</time>
      </trkpt>
      <trkpt lat="45.52506" lon="6.7631">
        <ele>1949</ele>
        <time>2021-08-03T09:45:04Z</time>
      </trkpt>
      <trkpt lat="45.52507" lon="6.76311">
        <ele>1948.7</ele>
        <time>2021-08-03T09:45:05Z</time>
      </trkpt>
      <trkpt lat="45.52507" lon="6.76311">
        <ele>1948.5</ele>
        <time>2021-08-03T09:45:06Z</time>
      </trkpt>
      <trkpt lat="45.52507" lon="6.76312">
        <ele>1948.3</ele>
        <time>2021-08-03T09:45:07Z</time>
      </trkpt>
      <trkpt lat="45.52508" lon="6.76313">
        <ele>1948</ele>
        <time>2021-08-03T09:45:08Z</time>
      </trkpt>
      <trkpt lat="45.52508" lon="6.76314">
        <ele>1947.7</ele>
        <time>2021-08-03T09:45:09Z</time>
      </trkpt>
      <trkpt lat="45.52508" lon="6.76315">
        <ele>1947.5</ele>
        <time>2021-08-03T09:45:10Z</time>
      </trkpt>
      <trkpt lat="45.52508" lon="6.76316">
        <ele>1947.2</ele>
        <time>2021-08-03T09:45:11Z</time>
      </trkpt>
      <trkpt lat="45.52508" lon="6.76317">
        <ele>1947</ele>
        <time>2021-08-03T09:45:12Z</time>
      </trkpt>
      <trkpt lat="45.52508" lon="6.76317">
        <ele>1947</ele>
        <time>2021-08-03T09:45:13Z</time>
      </trkpt>
      <trkpt lat="45.52508" lon="6.76317">
        <ele>1946.8</ele>
        <time>2021-08-03T09:45:14Z</time>
      </trkpt>
      <trkpt lat="45.52508" lon="6.76316">
        <ele>1946.7</ele>
        <time>2021-08-03T09:45:15Z</time>
      </trkpt>
      <trkpt lat="45.52508" lon="6.76316">
        <ele>1946.6</ele>
        <time>2021-08-03T09:45:16Z</time>
      </trkpt>
      <trkpt lat="45.52508" lon="6.76315">
        <ele>1946.4</ele>
        <time>2021-08-03T09:45:17Z</time>
      </trkpt>
      <trkpt lat="45.52508" lon="6.76315">
        <ele>1946.3</ele>
        <time>2021-08-03T09:45:18Z</time>
      </trkpt>
      <trkpt lat="45.52508" lon="6.76314">
        <ele>1946.2</ele>
        <time>2021-08-03T09:45:19Z</time>
      </trkpt>
      <trkpt lat="45.52508" lon="6.76313">
        <ele>1946</ele>
        <time>2021-08-03T09:45:20Z</time>
      </trkpt>
      <trkpt lat="45.52508" lon="6.76313">
        <ele>1945.9</ele>
        <time>2021-08-03T09:45:21Z</time>
      </trkpt>
      <trkpt lat="45.52508" lon="6.76312">
        <ele>1945.7</ele>
        <time>2021-08-03T09:45:22Z</time>
      </trkpt>
      <trkpt lat="45.52508" lon="6.76312">
        <ele>1945.6</ele>
        <time>2021-08-03T09:45:23Z</time>
      </trkpt>
      <trkpt lat="45.52508" lon="6.76311">
        <ele>1945.5</ele>
        <time>2021-08-03T09:45:24Z</time>
      </trkpt>
      <trkpt lat="45.52508" lon="6.76311">
        <ele>1945.3</ele>
        <time>2021-08-03T09:45:25Z</time>
      </trkpt>
      <trkpt lat="45.52509" lon="6.7631">
        <ele>1945.2</ele>
        <time>2021-08-03T09:45:26Z</time>
      </trkpt>
      <trkpt lat="45.52509" lon="6.7631">
        <ele>1945.1</ele>
        <time>2021-08-03T09:45:27Z</time>
      </trkpt>
      <trkpt lat="45.52509" lon="6.76309">
        <ele>1944.9</ele>
        <time>2021-08-03T09:45:28Z</time>
      </trkpt>
      <trkpt lat="45.52509" lon="6.76309">
        <ele>1944.8</ele>
        <time>2021-08-03T09:45:29Z</time>
      </trkpt>
      <trkpt lat="45.52509" lon="6.76308">
        <ele>1944.6</ele>
        <time>2021-08-03T09:45:30Z</time>
      </trkpt>
      <trkpt lat="45.52509" lon="6.76308">
        <ele>1944.5</ele>
        <time>2021-08-03T09:45:31Z</time>
      </trkpt>
      <trkpt lat="45.52509" lon="6.76307">
        <ele>1944.4</ele>
        <time>2021-08-03T09:45:32Z</time>
      </trkpt>
      <trkpt lat="45.52509" lon="6.76307">
        <ele>1944.2</ele>
        <time>2021-08-03T09:45:33Z</time>
      </trkpt>
      <trkpt lat="45.52509" lon="6.76306">
        <ele>1944</ele>
        <time>2021-08-03T09:45:34Z</time>
      </trkpt>
      <trkpt lat="45.52509" lon="6.76306">
        <ele>1943.9</ele>
        <time>2021-08-03T09:45:35Z</time>
      </trkpt>
      <trkpt lat="45.52509" lon="6.76305">
        <ele>1943.8</ele>
        <time>2021-08-03T09:45:36Z</time>
      </trkpt>
      <trkpt lat="45.52509" lon="6.76305">
        <ele>1943.6</ele>
        <time>2021-08-03T09:45:37Z</time>
      </trkpt>
      <trkpt lat="45.52509" lon="6.76304">
        <ele>1943.5</ele>
        <time>2021-08-03T09:45:38Z</time>
      </trkpt>
      <trkpt lat="45.52509" lon="6.76304">
        <ele>1943.3</ele>
        <time>2021-08-03T09:45:39Z</time>
      </trkpt>
      <trkpt lat="45.52509" lon="6.76303">
        <ele>1943.2</ele>
        <time>2021-08-03T09:45:40Z</time>
      </trkpt>
      <trkpt lat="45.52509" lon="6.76303">
        <ele>1943.1</ele>
        <time>2021-08-03T09:45:41Z</time>
      </trkpt>
      <trkpt lat="45.52509" lon="6.76303">
        <ele>1942.9</ele>
        <time>2021-08-03T09:45:42Z</time>
      </trkpt>
      <trkpt lat="45.5251" lon="6.76302">
        <ele>1942.7</ele>
        <time>2021-08-03T09:45:43Z</time>
      </trkpt>
      <trkpt lat="45.5251" lon="6.76302">
        <ele>1942.5</ele>
        <time>2021-08-03T09:45:44Z</time>
      </trkpt>
      <trkpt lat="45.52511" lon="6.76301">
        <ele>1942.3</ele>
        <time>2021-08-03T09:45:45Z</time>
      </trkpt>
      <trkpt lat="45.52511" lon="6.76301">
        <ele>1942.1</ele>
        <time>2021-08-03T09:45:46Z</time>
      </trkpt>
      <trkpt lat="45.52512" lon="6.76301">
        <ele>1941.9</ele>
        <time>2021-08-03T09:45:47Z</time>
      </trkpt>
      <trkpt lat="45.52512" lon="6.76301">
        <ele>1941.7</ele>
        <time>2021-08-03T09:45:48Z</time>
      </trkpt>
      <trkpt lat="45.52513" lon="6.76301">
        <ele>1941.5</ele>
        <time>2021-08-03T09:45:49Z</time>
      </trkpt>
      <trkpt lat="45.52513" lon="6.76301">
        <ele>1941.4</ele>
        <time>2021-08-03T09:45:50Z</time>
      </trkpt>
      <trkpt lat="45.52513" lon="6.76301">
        <ele>1941.1</ele>
        <time>2021-08-03T09:45:51Z</time>
      </trkpt>
      <trkpt lat="45.52514" lon="6.76302">
        <ele>1941</ele>
        <time>2021-08-03T09:45:52Z</time>
      </trkpt>
      <trkpt lat="45.52514" lon="6.76302">
        <ele>1940.8</ele>
        <time>2021-08-03T09:45:53Z</time>
      </trkpt>
      <trkpt lat="45.52515" lon="6.76302">
        <ele>1940.6</ele>
        <time>2021-08-03T09:45:54Z</time>
      </trkpt>
      <trkpt lat="45.52515" lon="6.76303">
        <ele>1940.4</ele>
        <time>2021-08-03T09:45:55Z</time>
      </trkpt>
      <trkpt lat="45.52515" lon="6.76303">
        <ele>1940.1</ele>
        <time>2021-08-03T09:45:56Z</time>
      </trkpt>
      <trkpt lat="45.52516" lon="6.76304">
        <ele>1939.9</ele>
        <time>2021-08-03T09:45:57Z</time>
      </trkpt>
      <trkpt lat="45.52516" lon="6.76305">
        <ele>1939.6</ele>
        <time>2021-08-03T09:45:58Z</time>
      </trkpt>
      <trkpt lat="45.52516" lon="6.76305">
        <ele>1939.4</ele>
        <time>2021-08-03T09:45:59Z</time>
      </trkpt>
      <trkpt lat="45.52517" lon="6.76306">
        <ele>1939.1</ele>
        <time>2021-08-03T09:46:00Z</time>
      </trkpt>
      <trkpt lat="45.52517" lon="6.76307">
        <ele>1938.8</ele>
        <time>2021-08-03T09:46:01Z</time>
      </trkpt>
      <trkpt lat="45.52517" lon="6.76308">
        <ele>1938.6</ele>
        <time>2021-08-03T09:46:02Z</time>
      </trkpt>
      <trkpt lat="45.52518" lon="6.76309">
        <ele>1938.3</ele>
        <time>2021-08-03T09:46:03Z</time>
      </trkpt>
      <trkpt lat="45.52518" lon="6.7631">
        <ele>1938</ele>
        <time>2021-08-03T09:46:04Z</time>
      </trkpt>
      <trkpt lat="45.52518" lon="6.76311">
        <ele>1937.7</ele>
        <time>2021-08-03T09:46:05Z</time>
      </trkpt>
      <trkpt lat="45.52518" lon="6.76311">
        <ele>1937.4</ele>
        <time>2021-08-03T09:46:06Z</time>
      </trkpt>
      <trkpt lat="45.52518" lon="6.76312">
        <ele>1937.1</ele>
        <time>2021-08-03T09:46:07Z</time>
      </trkpt>
      <trkpt lat="45.52518" lon="6.76313">
        <ele>1936.8</ele>
        <time>2021-08-03T09:46:08Z</time>
      </trkpt>
      <trkpt lat="45.52518" lon="6.76314">
        <ele>1936.6</ele>
        <time>2021-08-03T09:46:09Z</time>
      </trkpt>
      <trkpt lat="45.52518" lon="6.76315">
        <ele>1936.3</ele>
        <time>2021-08-03T09:46:10Z</time>
      </trkpt>
      <trkpt lat="45.52518" lon="6.76316">
        <ele>1936</ele>
        <time>2021-08-03T09:46:11Z</time>
      </trkpt>
      <trkpt lat="45.52518" lon="6.76317">
        <ele>1935.8</ele>
        <time>2021-08-03T09:46:12Z</time>
      </trkpt>
      <trkpt lat="45.52517" lon="6.76317">
        <ele>1935.6</ele>
        <time>2021-08-03T09:46:13Z</time>
      </trkpt>
      <trkpt lat="45.52517" lon="6.76317">
        <ele>1935.5</ele>
        <time>2021-08-03T09:46:14Z</time>
      </trkpt>
      <trkpt lat="45.52517" lon="6.76318">
        <ele>1935.5</ele>
        <time>2021-08-03T09:46:15Z</time>
      </trkpt>
      <trkpt lat="45.52517" lon="6.76317">
        <ele>1935.4</ele>
        <time>2021-08-03T09:46:16Z</time>
      </trkpt>
      <trkpt lat="45.52518" lon="6.76317">
        <ele>1935.2</ele>
        <time>2021-08-03T09:46:17Z</time>
      </trkpt>
      <trkpt lat="45.52518" lon="6.76316">
        <ele>1934.9</ele>
        <time>2021-08-03T09:46:18Z</time>
      </trkpt>
      <trkpt lat="45.52519" lon="6.76315">
        <ele>1934.5</ele>
        <time>2021-08-03T09:46:19Z</time>
      </trkpt>
      <trkpt lat="45.5252" lon="6.76315">
        <ele>1934.2</ele>
        <time>2021-08-03T09:46:20Z</time>
      </trkpt>
      <trkpt lat="45.5252" lon="6.76314">
        <ele>1933.8</ele>
        <time>2021-08-03T09:46:21Z</time>
      </trkpt>
      <trkpt lat="45.52521" lon="6.76314">
        <ele>1933.5</ele>
        <time>2021-08-03T09:46:22Z</time>
      </trkpt>
      <trkpt lat="45.52522" lon="6.76314">
        <ele>1933.1</ele>
        <time>2021-08-03T09:46:23Z</time>
      </trkpt>
      <trkpt lat="45.52522" lon="6.76314">
        <ele>1932.8</ele>
        <time>2021-08-03T09:46:24Z</time>
      </trkpt>
      <trkpt lat="45.52523" lon="6.76314">
        <ele>1932.7</ele>
        <time>2021-08-03T09:46:25Z</time>
      </trkpt>
      <trkpt lat="45.52523" lon="6.76314">
        <ele>1932.6</ele>
        <time>2021-08-03T09:46:26Z</time>
      </trkpt>
      <trkpt lat="45.52523" lon="6.76314">
        <ele>1932.5</ele>
        <time>2021-08-03T09:46:27Z</time>
      </trkpt>
      <trkpt lat="45.52523" lon="6.76313">
        <ele>1932.5</ele>
        <time>2021-08-03T09:46:28Z</time>
      </trkpt>
      <trkpt lat="45.52523" lon="6.76313">
        <ele>1932.4</ele>
        <time>2021-08-03T09:46:29Z</time>
      </trkpt>
      <trkpt lat="45.52523" lon="6.76313">
        <ele>1932.3</ele>
        <time>2021-08-03T09:46:30Z</time>
      </trkpt>
      <trkpt lat="45.52523" lon="6.76313">
        <ele>1932.3</ele>
        <time>2021-08-03T09:46:31Z</time>
      </trkpt>
      <trkpt lat="45.52523" lon="6.76313">
        <ele>1932.2</ele>
        <time>2021-08-03T09:46:32Z</time>
      </trkpt>
      <trkpt lat="45.52523" lon="6.76313">
        <ele>1932</ele>
        <time>2021-08-03T09:46:33Z</time>
      </trkpt>
      <trkpt lat="45.52524" lon="6.76313">
        <ele>1931.7</ele>
        <time>2021-08-03T09:46:34Z</time>
      </trkpt>
      <trkpt lat="45.52525" lon="6.76313">
        <ele>1931.5</ele>
        <time>2021-08-03T09:46:35Z</time>
      </trkpt>
      <trkpt lat="45.52525" lon="6.76313">
        <ele>1931.1</ele>
        <time>2021-08-03T09:46:36Z</time>
      </trkpt>
      <trkpt lat="45.52526" lon="6.76314">
        <ele>1930.8</ele>
        <time>2021-08-03T09:46:37Z</time>
      </trkpt>
      <trkpt lat="45.52526" lon="6.76314">
        <ele>1930.5</ele>
        <time>2021-08-03T09:46:38Z</time>
      </trkpt>
      <trkpt lat="45.52527" lon="6.76315">
        <ele>1930.2</ele>
        <time>2021-08-03T09:46:39Z</time>
      </trkpt>
      <trkpt lat="45.52527" lon="6.76315">
        <ele>1930</ele>
        <time>2021-08-03T09:46:40Z</time>
      </trkpt>
      <trkpt lat="45.52527" lon="6.76316">
        <ele>1929.7</ele>
        <time>2021-08-03T09:46:41Z</time>
      </trkpt>
      <trkpt lat="45.52527" lon="6.76317">
        <ele>1929.4</ele>
        <time>2021-08-03T09:46:42Z</time>
      </trkpt>
      <trkpt lat="45.52527" lon="6.76318">
        <ele>1929.1</ele>
        <time>2021-08-03T09:46:43Z</time>
      </trkpt>
      <trkpt lat="45.52527" lon="6.76319">
        <ele>1928.7</ele>
        <time>2021-08-03T09:46:44Z</time>
      </trkpt>
      <trkpt lat="45.52527" lon="6.7632">
        <ele>1928.3</ele>
        <time>2021-08-03T09:46:45Z</time>
      </trkpt>
      <trkpt lat="45.52527" lon="6.76321">
        <ele>1928</ele>
        <time>2021-08-03T09:46:46Z</time>
      </trkpt>
      <trkpt lat="45.52527" lon="6.76322">
        <ele>1927.6</ele>
        <time>2021-08-03T09:46:47Z</time>
      </trkpt>
      <trkpt lat="45.52526" lon="6.76323">
        <ele>1927.2</ele>
        <time>2021-08-03T09:46:48Z</time>
      </trkpt>
      <trkpt lat="45.52527" lon="6.76324">
        <ele>1926.9</ele>
        <time>2021-08-03T09:46:49Z</time>
      </trkpt>
      <trkpt lat="45.52527" lon="6.76325">
        <ele>1926.6</ele>
        <time>2021-08-03T09:46:50Z</time>
      </trkpt>
      <trkpt lat="45.52527" lon="6.76326">
        <ele>1926.2</ele>
        <time>2021-08-03T09:46:51Z</time>
      </trkpt>
      <trkpt lat="45.52527" lon="6.76327">
        <ele>1925.8</ele>
        <time>2021-08-03T09:46:52Z</time>
      </trkpt>
      <trkpt lat="45.52528" lon="6.76328">
        <ele>1925.5</ele>
        <time>2021-08-03T09:46:53Z</time>
      </trkpt>
      <trkpt lat="45.52528" lon="6.76329">
        <ele>1925.1</ele>
        <time>2021-08-03T09:46:54Z</time>
      </trkpt>
      <trkpt lat="45.52529" lon="6.7633">
        <ele>1924.8</ele>
        <time>2021-08-03T09:46:55Z</time>
      </trkpt>
      <trkpt lat="45.52529" lon="6.76331">
        <ele>1924.4</ele>
        <time>2021-08-03T09:46:56Z</time>
      </trkpt>
      <trkpt lat="45.5253" lon="6.76331">
        <ele>1924</ele>
        <time>2021-08-03T09:46:57Z</time>
      </trkpt>
      <trkpt lat="45.5253" lon="6.76332">
        <ele>1923.8</ele>
        <time>2021-08-03T09:46:58Z</time>
      </trkpt>
      <trkpt lat="45.52531" lon="6.76332">
        <ele>1923.5</ele>
        <time>2021-08-03T09:46:59Z</time>
      </trkpt>
      <trkpt lat="45.52531" lon="6.76333">
        <ele>1923.2</ele>
        <time>2021-08-03T09:47:00Z</time>
      </trkpt>
      <trkpt lat="45.52532" lon="6.76333">
        <ele>1923</ele>
        <time>2021-08-03T09:47:01Z</time>
      </trkpt>
      <trkpt lat="45.52532" lon="6.76334">
        <ele>1922.8</ele>
        <time>2021-08-03T09:47:02Z</time>
      </trkpt>
      <trkpt lat="45.52532" lon="6.76334">
        <ele>1922.6</ele>
        <time>2021-08-03T09:47:03Z</time>
      </trkpt>
      <trkpt lat="45.52532" lon="6.76334">
        <ele>1922.6</ele>
        <time>2021-08-03T09:47:04Z</time>
      </trkpt>
      <trkpt lat="45.52532" lon="6.76334">
        <ele>1922.5</ele>
        <time>2021-08-03T09:47:05Z</time>
      </trkpt>
      <trkpt lat="45.52532" lon="6.76334">
        <ele>1922.5</ele>
        <time>2021-08-03T09:47:06Z</time>
      </trkpt>
      <trkpt lat="45.52532" lon="6.76334">
        <ele>1922.4</ele>
        <time>2021-08-03T09:47:07Z</time>
      </trkpt>
      <trkpt lat="45.52533" lon="6.76334">
        <ele>1922.3</ele>
        <time>2021-08-03T09:47:08Z</time>
      </trkpt>
      <trkpt lat="45.52533" lon="6.76333">
        <ele>1922</ele>
        <time>2021-08-03T09:47:09Z</time>
      </trkpt>
      <trkpt lat="45.52533" lon="6.76332">
        <ele>1921.6</ele>
        <time>2021-08-03T09:47:10Z</time>
      </trkpt>
      <trkpt lat="45.52534" lon="6.76331">
        <ele>1921.2</ele>
        <time>2021-08-03T09:47:11Z</time>
      </trkpt>
      <trkpt lat="45.52534" lon="6.7633">
        <ele>1920.8</ele>
        <time>2021-08-03T09:47:12Z</time>
      </trkpt>
      <trkpt lat="45.52535" lon="6.76329">
        <ele>1920.5</ele>
        <time>2021-08-03T09:47:13Z</time>
      </trkpt>
      <trkpt lat="45.52535" lon="6.76328">
        <ele>1920.1</ele>
        <time>2021-08-03T09:47:14Z</time>
      </trkpt>
      <trkpt lat="45.52535" lon="6.76327">
        <ele>1919.8</ele>
        <time>2021-08-03T09:47:15Z</time>
      </trkpt>
      <trkpt lat="45.52535" lon="6.76326">
        <ele>1919.5</ele>
        <time>2021-08-03T09:47:16Z</time>
      </trkpt>
      <trkpt lat="45.52535" lon="6.76325">
        <ele>1919.2</ele>
        <time>2021-08-03T09:47:17Z</time>
      </trkpt>
      <trkpt lat="45.52535" lon="6.76324">
        <ele>1918.9</ele>
        <time>2021-08-03T09:47:18Z</time>
      </trkpt>
      <trkpt lat="45.52536" lon="6.76323">
        <ele>1918.7</ele>
        <time>2021-08-03T09:47:19Z</time>
      </trkpt>
      <trkpt lat="45.52536" lon="6.76323">
        <ele>1918.6</ele>
        <time>2021-08-03T09:47:20Z</time>
      </trkpt>
      <trkpt lat="45.52536" lon="6.76323">
        <ele>1918.5</ele>
        <time>2021-08-03T09:47:21Z</time>
      </trkpt>
      <trkpt lat="45.52536" lon="6.76322">
        <ele>1918.4</ele>
        <time>2021-08-03T09:47:22Z</time>
      </trkpt>
      <trkpt lat="45.52536" lon="6.76322">
        <ele>1918.3</ele>
        <time>2021-08-03T09:47:23Z</time>
      </trkpt>
      <trkpt lat="45.52536" lon="6.76322">
        <ele>1918.2</ele>
        <time>2021-08-03T09:47:24Z</time>
      </trkpt>
      <trkpt lat="45.52536" lon="6.76323">
        <ele>1918.1</ele>
        <time>2021-08-03T09:47:25Z</time>
      </trkpt>
      <trkpt lat="45.52537" lon="6.76323">
        <ele>1917.9</ele>
        <time>2021-08-03T09:47:26Z</time>
      </trkpt>
      <trkpt lat="45.52537" lon="6.76324">
        <ele>1917.6</ele>
        <time>2021-08-03T09:47:27Z</time>
      </trkpt>
      <trkpt lat="45.52538" lon="6.76325">
        <ele>1917.3</ele>
        <time>2021-08-03T09:47:28Z</time>
      </trkpt>
      <trkpt lat="45.52538" lon="6.76325">
        <ele>1917</ele>
        <time>2021-08-03T09:47:29Z</time>
      </trkpt>
      <trkpt lat="45.52539" lon="6.76326">
        <ele>1916.6</ele>
        <time>2021-08-03T09:47:30Z</time>
      </trkpt>
      <trkpt lat="45.52539" lon="6.76327">
        <ele>1916.2</ele>
        <time>2021-08-03T09:47:31Z</time>
      </trkpt>
      <trkpt lat="45.5254" lon="6.76328">
        <ele>1915.9</ele>
        <time>2021-08-03T09:47:32Z</time>
      </trkpt>
      <trkpt lat="45.5254" lon="6.76329">
        <ele>1915.6</ele>
        <time>2021-08-03T09:47:33Z</time>
      </trkpt>
      <trkpt lat="45.5254" lon="6.7633">
        <ele>1915.3</ele>
        <time>2021-08-03T09:47:34Z</time>
      </trkpt>
      <trkpt lat="45.52541" lon="6.76331">
        <ele>1915</ele>
        <time>2021-08-03T09:47:35Z</time>
      </trkpt>
      <trkpt lat="45.52541" lon="6.76332">
        <ele>1914.7</ele>
        <time>2021-08-03T09:47:36Z</time>
      </trkpt>
      <trkpt lat="45.52541" lon="6.76333">
        <ele>1914.4</ele>
        <time>2021-08-03T09:47:37Z</time>
      </trkpt>
      <trkpt lat="45.52542" lon="6.76334">
        <ele>1914.1</ele>
        <time>2021-08-03T09:47:38Z</time>
      </trkpt>
      <trkpt lat="45.52542" lon="6.76335">
        <ele>1913.9</ele>
        <time>2021-08-03T09:47:39Z</time>
      </trkpt>
      <trkpt lat="45.52542" lon="6.76336">
        <ele>1913.5</ele>
        <time>2021-08-03T09:47:40Z</time>
      </trkpt>
      <trkpt lat="45.52543" lon="6.76336">
        <ele>1913.3</ele>
        <time>2021-08-03T09:47:41Z</time>
      </trkpt>
      <trkpt lat="45.52543" lon="6.76337">
        <ele>1913</ele>
        <time>2021-08-03T09:47:42Z</time>
      </trkpt>
      <trkpt lat="45.52543" lon="6.76338">
        <ele>1912.8</ele>
        <time>2021-08-03T09:47:43Z</time>
      </trkpt>
      <trkpt lat="45.52543" lon="6.76339">
        <ele>1912.5</ele>
        <time>2021-08-03T09:47:44Z</time>
      </trkpt>
      <trkpt lat="45.52544" lon="6.76339">
        <ele>1912.3</ele>
        <time>2021-08-03T09:47:45Z</time>
      </trkpt>
      <trkpt lat="45.52544" lon="6.7634">
        <ele>1912.1</ele>
        <time>2021-08-03T09:47:46Z</time>
      </trkpt>
      <trkpt lat="45.52544" lon="6.7634">
        <ele>1912</ele>
        <time>2021-08-03T09:47:47Z</time>
      </trkpt>
      <trkpt lat="45.52544" lon="6.76341">
        <ele>1911.9</ele>
        <time>2021-08-03T09:47:48Z</time>
      </trkpt>
      <trkpt lat="45.52544" lon="6.76341">
        <ele>1911.8</ele>
        <time>2021-08-03T09:47:49Z</time>
      </trkpt>
      <trkpt lat="45.52545" lon="6.76341">
        <ele>1911.7</ele>
        <time>2021-08-03T09:47:50Z</time>
      </trkpt>
      <trkpt lat="45.52545" lon="6.7634">
        <ele>1911.6</ele>
        <time>2021-08-03T09:47:51Z</time>
      </trkpt>
      <trkpt lat="45.52545" lon="6.7634">
        <ele>1911.4</ele>
        <time>2021-08-03T09:47:52Z</time>
      </trkpt>
      <trkpt lat="45.52545" lon="6.76339">
        <ele>1911.2</ele>
        <time>2021-08-03T09:47:53Z</time>
      </trkpt>
      <trkpt lat="45.52545" lon="6.76338">
        <ele>1910.9</ele>
        <time>2021-08-03T09:47:54Z</time>
      </trkpt>
      <trkpt lat="45.52545" lon="6.76337">
        <ele>1910.6</ele>
        <time>2021-08-03T09:47:55Z</time>
      </trkpt>
      <trkpt lat="45.52546" lon="6.76336">
        <ele>1910.3</ele>
        <time>2021-08-03T09:47:56Z</time>
      </trkpt>
      <trkpt lat="45.52546" lon="6.76335">
        <ele>1910</ele>
        <time>2021-08-03T09:47:57Z</time>
      </trkpt>
      <trkpt lat="45.52546" lon="6.76334">
        <ele>1909.8</ele>
        <time>2021-08-03T09:47:58Z</time>
      </trkpt>
      <trkpt lat="45.52546" lon="6.76334">
        <ele>1909.6</ele>
        <time>2021-08-03T09:47:59Z</time>
      </trkpt>
      <trkpt lat="45.52546" lon="6.76333">
        <ele>1909.5</ele>
        <time>2021-08-03T09:48:00Z</time>
      </trkpt>
      <trkpt lat="45.52546" lon="6.76333">
        <ele>1909.4</ele>
        <time>2021-08-03T09:48:01Z</time>
      </trkpt>
      <trkpt lat="45.52547" lon="6.76333">
        <ele>1909.3</ele>
        <time>2021-08-03T09:48:02Z</time>
      </trkpt>
      <trkpt lat="45.52547" lon="6.76333">
        <ele>1909.2</ele>
        <time>2021-08-03T09:48:03Z</time>
      </trkpt>
      <trkpt lat="45.52547" lon="6.76334">
        <ele>1909.1</ele>
        <time>2021-08-03T09:48:04Z</time>
      </trkpt>
      <trkpt lat="45.52547" lon="6.76334">
        <ele>1908.9</ele>
        <time>2021-08-03T09:48:05Z</time>
      </trkpt>
      <trkpt lat="45.52548" lon="6.76335">
        <ele>1908.7</ele>
        <time>2021-08-03T09:48:06Z</time>
      </trkpt>
      <trkpt lat="45.52548" lon="6.76335">
        <ele>1908.5</ele>
        <time>2021-08-03T09:48:07Z</time>
      </trkpt>
      <trkpt lat="45.52548" lon="6.76336">
        <ele>1908.3</ele>
        <time>2021-08-03T09:48:08Z</time>
      </trkpt>
      <trkpt lat="45.52549" lon="6.76336">
        <ele>1908.1</ele>
        <time>2021-08-03T09:48:09Z</time>
      </trkpt>
      <trkpt lat="45.52549" lon="6.76336">
        <ele>1907.9</ele>
        <time>2021-08-03T09:48:10Z</time>
      </trkpt>
      <trkpt lat="45.5255" lon="6.76337">
        <ele>1907.7</ele>
        <time>2021-08-03T09:48:11Z</time>
      </trkpt>
      <trkpt lat="45.5255" lon="6.76337">
        <ele>1907.5</ele>
        <time>2021-08-03T09:48:12Z</time>
      </trkpt>
      <trkpt lat="45.52551" lon="6.76337">
        <ele>1907.3</ele>
        <time>2021-08-03T09:48:13Z</time>
      </trkpt>
      <trkpt lat="45.52551" lon="6.76337">
        <ele>1907.1</ele>
        <time>2021-08-03T09:48:14Z</time>
      </trkpt>
      <trkpt lat="45.52551" lon="6.76338">
        <ele>1906.9</ele>
        <time>2021-08-03T09:48:15Z</time>
      </trkpt>
      <trkpt lat="45.52552" lon="6.76338">
        <ele>1906.8</ele>
        <time>2021-08-03T09:48:16Z</time>
      </trkpt>
      <trkpt lat="45.52552" lon="6.76338">
        <ele>1906.6</ele>
        <time>2021-08-03T09:48:17Z</time>
      </trkpt>
      <trkpt lat="45.52552" lon="6.76338">
        <ele>1906.5</ele>
        <time>2021-08-03T09:48:18Z</time>
      </trkpt>
      <trkpt lat="45.52553" lon="6.76338">
        <ele>1906.4</ele>
        <time>2021-08-03T09:48:19Z</time>
      </trkpt>
      <trkpt lat="45.52553" lon="6.76338">
        <ele>1906.2</ele>
        <time>2021-08-03T09:48:20Z</time>
      </trkpt>
      <trkpt lat="45.52553" lon="6.76338">
        <ele>1906.2</ele>
        <time>2021-08-03T09:48:21Z</time>
      </trkpt>
      <trkpt lat="45.52553" lon="6.76338">
        <ele>1906.1</ele>
        <time>2021-08-03T09:48:22Z</time>
      </trkpt>
      <trkpt lat="45.52554" lon="6.76337">
        <ele>1906</ele>
        <time>2021-08-03T09:48:23Z</time>
      </trkpt>
      <trkpt lat="45.52554" lon="6.76337">
        <ele>1905.9</ele>
        <time>2021-08-03T09:48:24Z</time>
      </trkpt>
      <trkpt lat="45.52554" lon="6.76337">
        <ele>1905.9</ele>
        <time>2021-08-03T09:48:25Z</time>
      </trkpt>
      <trkpt lat="45.52554" lon="6.76337">
        <ele>1905.8</ele>
        <time>2021-08-03T09:48:26Z</time>
      </trkpt>
      <trkpt lat="45.52554" lon="6.76337">
        <ele>1905.7</ele>
        <time>2021-08-03T09:48:27Z</time>
      </trkpt>
      <trkpt lat="45.52554" lon="6.76337">
        <ele>1905.6</ele>
        <time>2021-08-03T09:48:28Z</time>
      </trkpt>
      <trkpt lat="45.52554" lon="6.76337">
        <ele>1905.6</ele>
        <time>2021-08-03T09:48:29Z</time>
      </trkpt>
      <trkpt lat="45.52555" lon="6.76337">
        <ele>1905.5</ele>
        <time>2021-08-03T09:48:30Z</time>
      </trkpt>
      <trkpt lat="45.52555" lon="6.76337">
        <ele>1905.5</ele>
        <time>2021-08-03T09:48:31Z</time>
      </trkpt>
      <trkpt lat="45.52555" lon="6.76337">
        <ele>1905.5</ele>
        <time>2021-08-03T09:48:32Z</time>
      </trkpt>
      <trkpt lat="45.52555" lon="6.76337">
        <ele>1905.4</ele>
        <time>2021-08-03T09:48:33Z</time>
      </trkpt>
      <trkpt lat="45.52555" lon="6.76337">
        <ele>1905.2</ele>
        <time>2021-08-03T09:48:34Z</time>
      </trkpt>
      <trkpt lat="45.52556" lon="6.76337">
        <ele>1905</ele>
        <time>2021-08-03T09:48:35Z</time>
      </trkpt>
      <trkpt lat="45.52556" lon="6.76338">
        <ele>1904.8</ele>
        <time>2021-08-03T09:48:36Z</time>
      </trkpt>
      <trkpt lat="45.52557" lon="6.76338">
        <ele>1904.5</ele>
        <time>2021-08-03T09:48:37Z</time>
      </trkpt>
      <trkpt lat="45.52557" lon="6.76339">
        <ele>1904.3</ele>
        <time>2021-08-03T09:48:38Z</time>
      </trkpt>
      <trkpt lat="45.52557" lon="6.76339">
        <ele>1904</ele>
        <time>2021-08-03T09:48:39Z</time>
      </trkpt>
      <trkpt lat="45.52558" lon="6.7634">
        <ele>1903.8</ele>
        <time>2021-08-03T09:48:40Z</time>
      </trkpt>
      <trkpt lat="45.52558" lon="6.76341">
        <ele>1903.5</ele>
        <time>2021-08-03T09:48:41Z</time>
      </trkpt>
      <trkpt lat="45.52558" lon="6.76342">
        <ele>1903.3</ele>
        <time>2021-08-03T09:48:42Z</time>
      </trkpt>
      <trkpt lat="45.52558" lon="6.76343">
        <ele>1903</ele>
        <time>2021-08-03T09:48:43Z</time>
      </trkpt>
      <trkpt lat="45.52557" lon="6.76344">
        <ele>1902.8</ele>
        <time>2021-08-03T09:48:44Z</time>
      </trkpt>
      <trkpt lat="45.52557" lon="6.76345">
        <ele>1902.5</ele>
        <time>2021-08-03T09:48:45Z</time>
      </trkpt>
      <trkpt lat="45.52557" lon="6.76345">
        <ele>1902.3</ele>
        <time>2021-08-03T09:48:46Z</time>
      </trkpt>
      <trkpt lat="45.52557" lon="6.76346">
        <ele>1902</ele>
        <time>2021-08-03T09:48:47Z</time>
      </trkpt>
      <trkpt lat="45.52557" lon="6.76347">
        <ele>1901.8</ele>
        <time>2021-08-03T09:48:48Z</time>
      </trkpt>
      <trkpt lat="45.52557" lon="6.76348">
        <ele>1901.6</ele>
        <time>2021-08-03T09:48:49Z</time>
      </trkpt>
      <trkpt lat="45.52557" lon="6.76348">
        <ele>1901.4</ele>
        <time>2021-08-03T09:48:50Z</time>
      </trkpt>
      <trkpt lat="45.52558" lon="6.76349">
        <ele>1901.2</ele>
        <time>2021-08-03T09:48:51Z</time>
      </trkpt>
      <trkpt lat="45.52558" lon="6.7635">
        <ele>1900.9</ele>
        <time>2021-08-03T09:48:52Z</time>
      </trkpt>
      <trkpt lat="45.52558" lon="6.7635">
        <ele>1900.7</ele>
        <time>2021-08-03T09:48:53Z</time>
      </trkpt>
      <trkpt lat="45.52558" lon="6.76351">
        <ele>1900.5</ele>
        <time>2021-08-03T09:48:54Z</time>
      </trkpt>
      <trkpt lat="45.52559" lon="6.76352">
        <ele>1900.3</ele>
        <time>2021-08-03T09:48:55Z</time>
      </trkpt>
      <trkpt lat="45.52559" lon="6.76352">
        <ele>1900.1</ele>
        <time>2021-08-03T09:48:56Z</time>
      </trkpt>
      <trkpt lat="45.52559" lon="6.76353">
        <ele>1899.9</ele>
        <time>2021-08-03T09:48:57Z</time>
      </trkpt>
      <trkpt lat="45.5256" lon="6.76353">
        <ele>1899.7</ele>
        <time>2021-08-03T09:48:58Z</time>
      </trkpt>
      <trkpt lat="45.5256" lon="6.76353">
        <ele>1899.6</ele>
        <time>2021-08-03T09:48:59Z</time>
      </trkpt>
      <trkpt lat="45.5256" lon="6.76354">
        <ele>1899.4</ele>
        <time>2021-08-03T09:49:00Z</time>
      </trkpt>
      <trkpt lat="45.5256" lon="6.76354">
        <ele>1899.3</ele>
        <time>2021-08-03T09:49:01Z</time>
      </trkpt>
      <trkpt lat="45.52561" lon="6.76354">
        <ele>1899.2</ele>
        <time>2021-08-03T09:49:02Z</time>
      </trkpt>
      <trkpt lat="45.52561" lon="6.76354">
        <ele>1899.2</ele>
        <time>2021-08-03T09:49:03Z</time>
      </trkpt>
      <trkpt lat="45.52561" lon="6.76354">
        <ele>1899.1</ele>
        <time>2021-08-03T09:49:04Z</time>
      </trkpt>
      <trkpt lat="45.52561" lon="6.76354">
        <ele>1899.1</ele>
        <time>2021-08-03T09:49:05Z</time>
      </trkpt>
      <trkpt lat="45.52561" lon="6.76354">
        <ele>1899.1</ele>
        <time>2021-08-03T09:49:06Z</time>
      </trkpt>
      <trkpt lat="45.52561" lon="6.76354">
        <ele>1899</ele>
        <time>2021-08-03T09:49:07Z</time>
      </trkpt>
      <trkpt lat="45.52561" lon="6.76354">
        <ele>1899</ele>
        <time>2021-08-03T09:49:08Z</time>
      </trkpt>
      <trkpt lat="45.52561" lon="6.76354">
        <ele>1899</ele>
        <time>2021-08-03T09:49:09Z</time>
      </trkpt>
      <trkpt lat="45.52561" lon="6.76354">
        <ele>1898.9</ele>
        <time>2021-08-03T09:49:10Z</time>
      </trkpt>
      <trkpt lat="45.52561" lon="6.76354">
        <ele>1898.9</ele>
        <time>2021-08-03T09:49:11Z</time>
      </trkpt>
      <trkpt lat="45.52561" lon="6.76354">
        <ele>1898.8</ele>
        <time>2021-08-03T09:49:12Z</time>
      </trkpt>
      <trkpt lat="45.5256" lon="6.76354">
        <ele>1898.8</ele>
        <time>2021-08-03T09:49:13Z</time>
      </trkpt>
      <trkpt lat="45.5256" lon="6.76353">
        <ele>1898.7</ele>
        <time>2021-08-03T09:49:14Z</time>
      </trkpt>
      <trkpt lat="45.5256" lon="6.76353">
        <ele>1898.6</ele>
        <time>2021-08-03T09:49:15Z</time>
      </trkpt>
      <trkpt lat="45.5256" lon="6.76353">
        <ele>1898.6</ele>
        <time>2021-08-03T09:49:16Z</time>
      </trkpt>
      <trkpt lat="45.5256" lon="6.76353">
        <ele>1898.5</ele>
        <time>2021-08-03T09:49:17Z</time>
      </trkpt>
      <trkpt lat="45.5256" lon="6.76353">
        <ele>1898.5</ele>
        <time>2021-08-03T09:49:18Z</time>
      </trkpt>
      <trkpt lat="45.52561" lon="6.76353">
        <ele>1898.4</ele>
        <time>2021-08-03T09:49:19Z</time>
      </trkpt>
      <trkpt lat="45.52561" lon="6.76353">
        <ele>1898.3</ele>
        <time>2021-08-03T09:49:20Z</time>
      </trkpt>
      <trkpt lat="45.52561" lon="6.76353">
        <ele>1898.3</ele>
        <time>2021-08-03T09:49:21Z</time>
      </trkpt>
      <trkpt lat="45.52561" lon="6.76352">
        <ele>1898.2</ele>
        <time>2021-08-03T09:49:22Z</time>
      </trkpt>
      <trkpt lat="45.52561" lon="6.76352">
        <ele>1898.1</ele>
        <time>2021-08-03T09:49:23Z</time>
      </trkpt>
      <trkpt lat="45.52562" lon="6.76352">
        <ele>1898</ele>
        <time>2021-08-03T09:49:24Z</time>
      </trkpt>
      <trkpt lat="45.52562" lon="6.76352">
        <ele>1897.9</ele>
        <time>2021-08-03T09:49:25Z</time>
      </trkpt>
      <trkpt lat="45.52562" lon="6.76352">
        <ele>1897.7</ele>
        <time>2021-08-03T09:49:26Z</time>
      </trkpt>
      <trkpt lat="45.52563" lon="6.76352">
        <ele>1897.6</ele>
        <time>2021-08-03T09:49:27Z</time>
      </trkpt>
      <trkpt lat="45.52563" lon="6.76352">
        <ele>1897.4</ele>
        <time>2021-08-03T09:49:28Z</time>
      </trkpt>
      <trkpt lat="45.52564" lon="6.76352">
        <ele>1897.2</ele>
        <time>2021-08-03T09:49:29Z</time>
      </trkpt>
      <trkpt lat="45.52564" lon="6.76352">
        <ele>1897.1</ele>
        <time>2021-08-03T09:49:30Z</time>
      </trkpt>
      <trkpt lat="45.52564" lon="6.76352">
        <ele>1896.9</ele>
        <time>2021-08-03T09:49:31Z</time>
      </trkpt>
      <trkpt lat="45.52565" lon="6.76352">
        <ele>1896.7</ele>
        <time>2021-08-03T09:49:32Z</time>
      </trkpt>
      <trkpt lat="45.52565" lon="6.76352">
        <ele>1896.6</ele>
        <time>2021-08-03T09:49:33Z</time>
      </trkpt>
      <trkpt lat="45.52566" lon="6.76352">
        <ele>1896.4</ele>
        <time>2021-08-03T09:49:34Z</time>
      </trkpt>
      <trkpt lat="45.52566" lon="6.76353">
        <ele>1896.2</ele>
        <time>2021-08-03T09:49:35Z</time>
      </trkpt>
      <trkpt lat="45.52567" lon="6.76353">
        <ele>1896.1</ele>
        <time>2021-08-03T09:49:36Z</time>
      </trkpt>
      <trkpt lat="45.52567" lon="6.76353">
        <ele>1895.9</ele>
        <time>2021-08-03T09:49:37Z</time>
      </trkpt>
      <trkpt lat="45.52567" lon="6.76353">
        <ele>1895.8</ele>
        <time>2021-08-03T09:49:38Z</time>
      </trkpt>
      <trkpt lat="45.52568" lon="6.76354">
        <ele>1895.6</ele>
        <time>2021-08-03T09:49:39Z</time>
      </trkpt>
      <trkpt lat="45.52568" lon="6.76354">
        <ele>1895.5</ele>
        <time>2021-08-03T09:49:40Z</time>
      </trkpt>
      <trkpt lat="45.52568" lon="6.76355">
        <ele>1895.3</ele>
        <time>2021-08-03T09:49:41Z</time>
      </trkpt>
      <trkpt lat="45.52568" lon="6.76355">
        <ele>1895.1</ele>
        <time>2021-08-03T09:49:42Z</time>
      </trkpt>
      <trkpt lat="45.52569" lon="6.76356">
        <ele>1895</ele>
        <time>2021-08-03T09:49:43Z</time>
      </trkpt>
      <trkpt lat="45.52569" lon="6.76356">
        <ele>1894.8</ele>
        <time>2021-08-03T09:49:44Z</time>
      </trkpt>
      <trkpt lat="45.52569" lon="6.76357">
        <ele>1894.6</ele>
        <time>2021-08-03T09:49:45Z</time>
      </trkpt>
      <trkpt lat="45.52569" lon="6.76357">
        <ele>1894.5</ele>
        <time>2021-08-03T09:49:46Z</time>
      </trkpt>
      <trkpt lat="45.52569" lon="6.76358">
        <ele>1894.3</ele>
        <time>2021-08-03T09:49:47Z</time>
      </trkpt>
      <trkpt lat="45.52569" lon="6.76359">
        <ele>1894.2</ele>
        <time>2021-08-03T09:49:48Z</time>
      </trkpt>
      <trkpt lat="45.5257" lon="6.76359">
        <ele>1894</ele>
        <time>2021-08-03T09:49:49Z</time>
      </trkpt>
      <trkpt lat="45.5257" lon="6.7636">
        <ele>1893.9</ele>
        <time>2021-08-03T09:49:50Z</time>
      </trkpt>
      <trkpt lat="45.5257" lon="6.7636">
        <ele>1893.7</ele>
        <time>2021-08-03T09:49:51Z</time>
      </trkpt>
      <trkpt lat="45.5257" lon="6.76361">
        <ele>1893.6</ele>
        <time>2021-08-03T09:49:52Z</time>
      </trkpt>
      <trkpt lat="45.5257" lon="6.76361">
        <ele>1893.5</ele>
        <time>2021-08-03T09:49:53Z</time>
      </trkpt>
      <trkpt lat="45.5257" lon="6.76362">
        <ele>1893.3</ele>
        <time>2021-08-03T09:49:54Z</time>
      </trkpt>
      <trkpt lat="45.5257" lon="6.76362">
        <ele>1893.2</ele>
        <time>2021-08-03T09:49:55Z</time>
      </trkpt>
      <trkpt lat="45.52571" lon="6.76363">
        <ele>1893.1</ele>
        <time>2021-08-03T09:49:56Z</time>
      </trkpt>
      <trkpt lat="45.52571" lon="6.76363">
        <ele>1893</ele>
        <time>2021-08-03T09:49:57Z</time>
      </trkpt>
      <trkpt lat="45.52571" lon="6.76363">
        <ele>1892.9</ele>
        <time>2021-08-03T09:49:58Z</time>
      </trkpt>
      <trkpt lat="45.52571" lon="6.76364">
        <ele>1892.8</ele>
        <time>2021-08-03T09:49:59Z</time>
      </trkpt>
      <trkpt lat="45.52571" lon="6.76364">
        <ele>1892.7</ele>
        <time>2021-08-03T09:50:00Z</time>
      </trkpt>
      <trkpt lat="45.52571" lon="6.76364">
        <ele>1892.6</ele>
        <time>2021-08-03T09:50:01Z</time>
      </trkpt>
      <trkpt lat="45.52571" lon="6.76365">
        <ele>1892.5</ele>
        <time>2021-08-03T09:50:02Z</time>
      </trkpt>
      <trkpt lat="45.52571" lon="6.76365">
        <ele>1892.5</ele>
        <time>2021-08-03T09:50:03Z</time>
      </trkpt>
      <trkpt lat="45.52571" lon="6.76365">
        <ele>1892.4</ele>
        <time>2021-08-03T09:50:04Z</time>
      </trkpt>
      <trkpt lat="45.52571" lon="6.76365">
        <ele>1892.3</ele>
        <time>2021-08-03T09:50:05Z</time>
      </trkpt>
      <trkpt lat="45.52571" lon="6.76365">
        <ele>1892.3</ele>
        <time>2021-08-03T09:50:06Z</time>
      </trkpt>
      <trkpt lat="45.52571" lon="6.76366">
        <ele>1892.2</ele>
        <time>2021-08-03T09:50:07Z</time>
      </trkpt>
      <trkpt lat="45.52571" lon="6.76366">
        <ele>1892</ele>
        <time>2021-08-03T09:50:08Z</time>
      </trkpt>
      <trkpt lat="45.52571" lon="6.76366">
        <ele>1892</ele>
        <time>2021-08-03T09:50:09Z</time>
      </trkpt>
      <trkpt lat="45.52571" lon="6.76366">
        <ele>1891.9</ele>
        <time>2021-08-03T09:50:10Z</time>
      </trkpt>
      <trkpt lat="45.52571" lon="6.76366">
        <ele>1891.8</ele>
        <time>2021-08-03T09:50:11Z</time>
      </trkpt>
      <trkpt lat="45.52571" lon="6.76366">
        <ele>1891.7</ele>
        <time>2021-08-03T09:50:12Z</time>
      </trkpt>
      <trkpt lat="45.52571" lon="6.76366">
        <ele>1891.6</ele>
        <time>2021-08-03T09:50:13Z</time>
      </trkpt>
      <trkpt lat="45.52571" lon="6.76366">
        <ele>1891.5</ele>
        <time>2021-08-03T09:50:14Z</time>
      </trkpt>
      <trkpt lat="45.52571" lon="6.76366">
        <ele>1891.5</ele>
        <time>2021-08-03T09:50:15Z</time>
      </trkpt>
      <trkpt lat="45.52571" lon="6.76366">
        <ele>1891.4</ele>
        <time>2021-08-03T09:50:16Z</time>
      </trkpt>
      <trkpt lat="45.52572" lon="6.76366">
        <ele>1891.2</ele>
        <time>2021-08-03T09:50:17Z</time>
      </trkpt>
      <trkpt lat="45.52572" lon="6.76366">
        <ele>1891.1</ele>
        <time>2021-08-03T09:50:18Z</time>
      </trkpt>
      <trkpt lat="45.52572" lon="6.76366">
        <ele>1891</ele>
        <time>2021-08-03T09:50:19Z</time>
      </trkpt>
      <trkpt lat="45.52572" lon="6.76365">
        <ele>1891</ele>
        <time>2021-08-03T09:50:20Z</time>
      </trkpt>
      <trkpt lat="45.52572" lon="6.76365">
        <ele>1890.9</ele>
        <time>2021-08-03T09:50:21Z</time>
      </trkpt>
      <trkpt lat="45.52572" lon="6.76365">
        <ele>1890.7</ele>
        <time>2021-08-03T09:50:22Z</time>
      </trkpt>
      <trkpt lat="45.52572" lon="6.76365">
        <ele>1890.6</ele>
        <time>2021-08-03T09:50:23Z</time>
      </trkpt>
      <trkpt lat="45.52572" lon="6.76365">
        <ele>1890.5</ele>
        <time>2021-08-03T09:50:24Z</time>
      </trkpt>
      <trkpt lat="45.52572" lon="6.76365">
        <ele>1890.4</ele>
        <time>2021-08-03T09:50:25Z</time>
      </trkpt>
      <trkpt lat="45.52572" lon="6.76365">
        <ele>1890.3</ele>
        <time>2021-08-03T09:50:26Z</time>
      </trkpt>
      <trkpt lat="45.52572" lon="6.76366">
        <ele>1890.2</ele>
        <time>2021-08-03T09:50:27Z</time>
      </trkpt>
      <trkpt lat="45.52572" lon="6.76366">
        <ele>1890.1</ele>
        <time>2021-08-03T09:50:28Z</time>
      </trkpt>
      <trkpt lat="45.52572" lon="6.76366">
        <ele>1889.9</ele>
        <time>2021-08-03T09:50:29Z</time>
      </trkpt>
      <trkpt lat="45.52572" lon="6.76366">
        <ele>1889.8</ele>
        <time>2021-08-03T09:50:30Z</time>
      </trkpt>
      <trkpt lat="45.52572" lon="6.76366">
        <ele>1889.7</ele>
        <time>2021-08-03T09:50:31Z</time>
      </trkpt>
      <trkpt lat="45.52573" lon="6.76366">
        <ele>1889.6</ele>
        <time>2021-08-03T09:50:32Z</time>
      </trkpt>
      <trkpt lat="45.52573" lon="6.76366">
        <ele>1889.4</ele>
        <time>2021-08-03T09:50:33Z</time>
      </trkpt>
      <trkpt lat="45.52573" lon="6.76366">
        <ele>1889.3</ele>
        <time>2021-08-03T09:50:34Z</time>
      </trkpt>
      <trkpt lat="45.52573" lon="6.76367">
        <ele>1889.2</ele>
        <time>2021-08-03T09:50:35Z</time>
      </trkpt>
      <trkpt lat="45.52573" lon="6.76367">
        <ele>1889</ele>
        <time>2021-08-03T09:50:36Z</time>
      </trkpt>
      <trkpt lat="45.52573" lon="6.76367">
        <ele>1888.9</ele>
        <time>2021-08-03T09:50:37Z</time>
      </trkpt>
      <trkpt lat="45.52573" lon="6.76367">
        <ele>1888.7</ele>
        <time>2021-08-03T09:50:38Z</time>
      </trkpt>
      <trkpt lat="45.52573" lon="6.76368">
        <ele>1888.5</ele>
        <time>2021-08-03T09:50:39Z</time>
      </trkpt>
      <trkpt lat="45.52572" lon="6.76368">
        <ele>1888.3</ele>
        <time>2021-08-03T09:50:40Z</time>
      </trkpt>
      <trkpt lat="45.52572" lon="6.76369">
        <ele>1888.2</ele>
        <time>2021-08-03T09:50:41Z</time>
      </trkpt>
      <trkpt lat="45.52572" lon="6.76369">
        <ele>1888</ele>
        <time>2021-08-03T09:50:42Z</time>
      </trkpt>
      <trkpt lat="45.52572" lon="6.76369">
        <ele>1887.9</ele>
        <time>2021-08-03T09:50:43Z</time>
      </trkpt>
      <trkpt lat="45.52572" lon="6.7637">
        <ele>1887.7</ele>
        <time>2021-08-03T09:50:44Z</time>
      </trkpt>
      <trkpt lat="45.52572" lon="6.7637">
        <ele>1887.5</ele>
        <time>2021-08-03T09:50:45Z</time>
      </trkpt>
      <trkpt lat="45.52572" lon="6.7637">
        <ele>1887.4</ele>
        <time>2021-08-03T09:50:46Z</time>
      </trkpt>
      <trkpt lat="45.52572" lon="6.7637">
        <ele>1887.3</ele>
        <time>2021-08-03T09:50:47Z</time>
      </trkpt>
      <trkpt lat="45.52572" lon="6.76371">
        <ele>1887.1</ele>
        <time>2021-08-03T09:50:48Z</time>
      </trkpt>
      <trkpt lat="45.52573" lon="6.76371">
        <ele>1887</ele>
        <time>2021-08-03T09:50:49Z</time>
      </trkpt>
      <trkpt lat="45.52573" lon="6.76371">
        <ele>1886.8</ele>
        <time>2021-08-03T09:50:50Z</time>
      </trkpt>
      <trkpt lat="45.52573" lon="6.76371">
        <ele>1886.7</ele>
        <time>2021-08-03T09:50:51Z</time>
      </trkpt>
      <trkpt lat="45.52573" lon="6.76371">
        <ele>1886.5</ele>
        <time>2021-08-03T09:50:52Z</time>
      </trkpt>
      <trkpt lat="45.52574" lon="6.76371">
        <ele>1886.3</ele>
        <time>2021-08-03T09:50:53Z</time>
      </trkpt>
      <trkpt lat="45.52574" lon="6.76371">
        <ele>1886.1</ele>
        <time>2021-08-03T09:50:54Z</time>
      </trkpt>
      <trkpt lat="45.52574" lon="6.7637">
        <ele>1885.8</ele>
        <time>2021-08-03T09:50:55Z</time>
      </trkpt>
      <trkpt lat="45.52575" lon="6.7637">
        <ele>1885.6</ele>
        <time>2021-08-03T09:50:56Z</time>
      </trkpt>
      <trkpt lat="45.52575" lon="6.7637">
        <ele>1885.3</ele>
        <time>2021-08-03T09:50:57Z</time>
      </trkpt>
      <trkpt lat="45.52576" lon="6.76369">
        <ele>1885</ele>
        <time>2021-08-03T09:50:58Z</time>
      </trkpt>
      <trkpt lat="45.52577" lon="6.76368">
        <ele>1884.6</ele>
        <time>2021-08-03T09:50:59Z</time>
      </trkpt>
      <trkpt lat="45.52577" lon="6.76368">
        <ele>1884.4</ele>
        <time>2021-08-03T09:51:00Z</time>
      </trkpt>
      <trkpt lat="45.52577" lon="6.76367">
        <ele>1884.1</ele>
        <time>2021-08-03T09:51:01Z</time>
      </trkpt>
      <trkpt lat="45.52578" lon="6.76367">
        <ele>1883.9</ele>
        <time>2021-08-03T09:51:02Z</time>
      </trkpt>
      <trkpt lat="45.52578" lon="6.76367">
        <ele>1883.7</ele>
        <time>2021-08-03T09:51:03Z</time>
      </trkpt>
      <trkpt lat="45.52578" lon="6.76366">
        <ele>1883.4</ele>
        <time>2021-08-03T09:51:04Z</time>
      </trkpt>
      <trkpt lat="45.52579" lon="6.76366">
        <ele>1883.2</ele>
        <time>2021-08-03T09:51:05Z</time>
      </trkpt>
      <trkpt lat="45.52579" lon="6.76366">
        <ele>1883</ele>
        <time>2021-08-03T09:51:06Z</time>
      </trkpt>
      <trkpt lat="45.5258" lon="6.76365">
        <ele>1882.7</ele>
        <time>2021-08-03T09:51:07Z</time>
      </trkpt>
      <trkpt lat="45.5258" lon="6.76365">
        <ele>1882.5</ele>
        <time>2021-08-03T09:51:08Z</time>
      </trkpt>
      <trkpt lat="45.5258" lon="6.76364">
        <ele>1882.3</ele>
        <time>2021-08-03T09:51:09Z</time>
      </trkpt>
      <trkpt lat="45.52581" lon="6.76364">
        <ele>1882</ele>
        <time>2021-08-03T09:51:10Z</time>
      </trkpt>
      <trkpt lat="45.52581" lon="6.76364">
        <ele>1881.7</ele>
        <time>2021-08-03T09:51:11Z</time>
      </trkpt>
      <trkpt lat="45.52581" lon="6.76363">
        <ele>1881.6</ele>
        <time>2021-08-03T09:51:12Z</time>
      </trkpt>
      <trkpt lat="45.52582" lon="6.76363">
        <ele>1881.3</ele>
        <time>2021-08-03T09:51:13Z</time>
      </trkpt>
      <trkpt lat="45.52582" lon="6.76363">
        <ele>1881</ele>
        <time>2021-08-03T09:51:14Z</time>
      </trkpt>
      <trkpt lat="45.52583" lon="6.76363">
        <ele>1880.5</ele>
        <time>2021-08-03T09:51:15Z</time>
      </trkpt>
      <trkpt lat="45.52584" lon="6.76363">
        <ele>1880.3</ele>
        <time>2021-08-03T09:51:16Z</time>
      </trkpt>
      <trkpt lat="45.52584" lon="6.76364">
        <ele>1880</ele>
        <time>2021-08-03T09:51:17Z</time>
      </trkpt>
      <trkpt lat="45.52585" lon="6.76364">
        <ele>1879.7</ele>
        <time>2021-08-03T09:51:18Z</time>
      </trkpt>
      <trkpt lat="45.52585" lon="6.76364">
        <ele>1879.4</ele>
        <time>2021-08-03T09:51:19Z</time>
      </trkpt>
      <trkpt lat="45.52586" lon="6.76365">
        <ele>1879.2</ele>
        <time>2021-08-03T09:51:20Z</time>
      </trkpt>
      <trkpt lat="45.52586" lon="6.76365">
        <ele>1878.9</ele>
        <time>2021-08-03T09:51:21Z</time>
      </trkpt>
      <trkpt lat="45.52586" lon="6.76365">
        <ele>1878.7</ele>
        <time>2021-08-03T09:51:22Z</time>
      </trkpt>
      <trkpt lat="45.52587" lon="6.76365">
        <ele>1878.4</ele>
        <time>2021-08-03T09:51:23Z</time>
      </trkpt>
      <trkpt lat="45.52587" lon="6.76365">
        <ele>1878.2</ele>
        <time>2021-08-03T09:51:24Z</time>
      </trkpt>
      <trkpt lat="45.52587" lon="6.76365">
        <ele>1878</ele>
        <time>2021-08-03T09:51:25Z</time>
      </trkpt>
      <trkpt lat="45.52587" lon="6.76366">
        <ele>1877.8</ele>
        <time>2021-08-03T09:51:26Z</time>
      </trkpt>
      <trkpt lat="45.52588" lon="6.76366">
        <ele>1877.6</ele>
        <time>2021-08-03T09:51:27Z</time>
      </trkpt>
      <trkpt lat="45.52588" lon="6.76366">
        <ele>1877.4</ele>
        <time>2021-08-03T09:51:28Z</time>
      </trkpt>
      <trkpt lat="45.52588" lon="6.76367">
        <ele>1877.2</ele>
        <time>2021-08-03T09:51:29Z</time>
      </trkpt>
      <trkpt lat="45.52588" lon="6.76367">
        <ele>1877</ele>
        <time>2021-08-03T09:51:30Z</time>
      </trkpt>
      <trkpt lat="45.52588" lon="6.76368">
        <ele>1876.8</ele>
        <time>2021-08-03T09:51:31Z</time>
      </trkpt>
      <trkpt lat="45.52588" lon="6.76368">
        <ele>1876.6</ele>
        <time>2021-08-03T09:51:32Z</time>
      </trkpt>
      <trkpt lat="45.52588" lon="6.76369">
        <ele>1876.3</ele>
        <time>2021-08-03T09:51:33Z</time>
      </trkpt>
      <trkpt lat="45.52588" lon="6.76369">
        <ele>1876.1</ele>
        <time>2021-08-03T09:51:34Z</time>
      </trkpt>
      <trkpt lat="45.52588" lon="6.76369">
        <ele>1875.8</ele>
        <time>2021-08-03T09:51:35Z</time>
      </trkpt>
      <trkpt lat="45.52588" lon="6.7637">
        <ele>1875.6</ele>
        <time>2021-08-03T09:51:36Z</time>
      </trkpt>
      <trkpt lat="45.52588" lon="6.7637">
        <ele>1875.4</ele>
        <time>2021-08-03T09:51:37Z</time>
      </trkpt>
      <trkpt lat="45.52588" lon="6.76371">
        <ele>1875.2</ele>
        <time>2021-08-03T09:51:38Z</time>
      </trkpt>
      <trkpt lat="45.52588" lon="6.76371">
        <ele>1874.9</ele>
        <time>2021-08-03T09:51:39Z</time>
      </trkpt>
      <trkpt lat="45.52588" lon="6.76372">
        <ele>1874.7</ele>
        <time>2021-08-03T09:51:40Z</time>
      </trkpt>
      <trkpt lat="45.52589" lon="6.76372">
        <ele>1874.4</ele>
        <time>2021-08-03T09:51:41Z</time>
      </trkpt>
      <trkpt lat="45.52589" lon="6.76373">
        <ele>1874.1</ele>
        <time>2021-08-03T09:51:42Z</time>
      </trkpt>
      <trkpt lat="45.52589" lon="6.76373">
        <ele>1873.9</ele>
        <time>2021-08-03T09:51:43Z</time>
      </trkpt>
      <trkpt lat="45.52589" lon="6.76373">
        <ele>1873.6</ele>
        <time>2021-08-03T09:51:44Z</time>
      </trkpt>
      <trkpt lat="45.5259" lon="6.76374">
        <ele>1873.4</ele>
        <time>2021-08-03T09:51:45Z</time>
      </trkpt>
      <trkpt lat="45.5259" lon="6.76374">
        <ele>1873.1</ele>
        <time>2021-08-03T09:51:46Z</time>
      </trkpt>
      <trkpt lat="45.5259" lon="6.76374">
        <ele>1872.9</ele>
        <time>2021-08-03T09:51:47Z</time>
      </trkpt>
      <trkpt lat="45.52591" lon="6.76374">
        <ele>1872.6</ele>
        <time>2021-08-03T09:51:48Z</time>
      </trkpt>
      <trkpt lat="45.52591" lon="6.76374">
        <ele>1872.4</ele>
        <time>2021-08-03T09:51:49Z</time>
      </trkpt>
      <trkpt lat="45.52592" lon="6.76374">
        <ele>1872.1</ele>
        <time>2021-08-03T09:51:50Z</time>
      </trkpt>
      <trkpt lat="45.52593" lon="6.76374">
        <ele>1871.8</ele>
        <time>2021-08-03T09:51:51Z</time>
      </trkpt>
      <trkpt lat="45.52593" lon="6.76374">
        <ele>1871.5</ele>
        <time>2021-08-03T09:51:52Z</time>
      </trkpt>
      <trkpt lat="45.52594" lon="6.76374">
        <ele>1871.2</ele>
        <time>2021-08-03T09:51:53Z</time>
      </trkpt>
      <trkpt lat="45.52595" lon="6.76374">
        <ele>1870.9</ele>
        <time>2021-08-03T09:51:54Z</time>
      </trkpt>
      <trkpt lat="45.52595" lon="6.76373">
        <ele>1870.6</ele>
        <time>2021-08-03T09:51:55Z</time>
      </trkpt>
      <trkpt lat="45.52596" lon="6.76373">
        <ele>1870.3</ele>
        <time>2021-08-03T09:51:56Z</time>
      </trkpt>
      <trkpt lat="45.52596" lon="6.76373">
        <ele>1870.1</ele>
        <time>2021-08-03T09:51:57Z</time>
      </trkpt>
      <trkpt lat="45.52597" lon="6.76373">
        <ele>1870</ele>
        <time>2021-08-03T09:51:58Z</time>
      </trkpt>
      <trkpt lat="45.52597" lon="6.76373">
        <ele>1869.8</ele>
        <time>2021-08-03T09:51:59Z</time>
      </trkpt>
      <trkpt lat="45.52597" lon="6.76373">
        <ele>1869.7</ele>
        <time>2021-08-03T09:52:00Z</time>
      </trkpt>
      <trkpt lat="45.52597" lon="6.76373">
        <ele>1869.6</ele>
        <time>2021-08-03T09:52:01Z</time>
      </trkpt>
      <trkpt lat="45.52597" lon="6.76374">
        <ele>1869.5</ele>
        <time>2021-08-03T09:52:02Z</time>
      </trkpt>
      <trkpt lat="45.52598" lon="6.76374">
        <ele>1869.4</ele>
        <time>2021-08-03T09:52:03Z</time>
      </trkpt>
      <trkpt lat="45.52598" lon="6.76374">
        <ele>1869.4</ele>
        <time>2021-08-03T09:52:04Z</time>
      </trkpt>
      <trkpt lat="45.52598" lon="6.76374">
        <ele>1869.3</ele>
        <time>2021-08-03T09:52:05Z</time>
      </trkpt>
      <trkpt lat="45.52598" lon="6.76375">
        <ele>1869.2</ele>
        <time>2021-08-03T09:52:06Z</time>
      </trkpt>
      <trkpt lat="45.52598" lon="6.76375">
        <ele>1869</ele>
        <time>2021-08-03T09:52:07Z</time>
      </trkpt>
      <trkpt lat="45.52598" lon="6.76375">
        <ele>1868.9</ele>
        <time>2021-08-03T09:52:08Z</time>
      </trkpt>
      <trkpt lat="45.52597" lon="6.76376">
        <ele>1868.8</ele>
        <time>2021-08-03T09:52:09Z</time>
      </trkpt>
      <trkpt lat="45.52597" lon="6.76376">
        <ele>1868.6</ele>
        <time>2021-08-03T09:52:10Z</time>
      </trkpt>
      <trkpt lat="45.52597" lon="6.76377">
        <ele>1868.4</ele>
        <time>2021-08-03T09:52:11Z</time>
      </trkpt>
      <trkpt lat="45.52597" lon="6.76377">
        <ele>1868.3</ele>
        <time>2021-08-03T09:52:12Z</time>
      </trkpt>
      <trkpt lat="45.52597" lon="6.76378">
        <ele>1868.1</ele>
        <time>2021-08-03T09:52:13Z</time>
      </trkpt>
      <trkpt lat="45.52597" lon="6.76378">
        <ele>1868</ele>
        <time>2021-08-03T09:52:14Z</time>
      </trkpt>
      <trkpt lat="45.52597" lon="6.76379">
        <ele>1867.8</ele>
        <time>2021-08-03T09:52:15Z</time>
      </trkpt>
      <trkpt lat="45.52597" lon="6.76379">
        <ele>1867.6</ele>
        <time>2021-08-03T09:52:16Z</time>
      </trkpt>
      <trkpt lat="45.52597" lon="6.7638">
        <ele>1867.4</ele>
        <time>2021-08-03T09:52:17Z</time>
      </trkpt>
      <trkpt lat="45.52597" lon="6.7638">
        <ele>1867.3</ele>
        <time>2021-08-03T09:52:18Z</time>
      </trkpt>
      <trkpt lat="45.52597" lon="6.76381">
        <ele>1867.2</ele>
        <time>2021-08-03T09:52:19Z</time>
      </trkpt>
      <trkpt lat="45.52597" lon="6.76381">
        <ele>1867</ele>
        <time>2021-08-03T09:52:20Z</time>
      </trkpt>
      <trkpt lat="45.52597" lon="6.76382">
        <ele>1866.9</ele>
        <time>2021-08-03T09:52:21Z</time>
      </trkpt>
      <trkpt lat="45.52597" lon="6.76382">
        <ele>1866.8</ele>
        <time>2021-08-03T09:52:22Z</time>
      </trkpt>
      <trkpt lat="45.52597" lon="6.76382">
        <ele>1866.8</ele>
        <time>2021-08-03T09:52:23Z</time>
      </trkpt>
      <trkpt lat="45.52597" lon="6.76382">
        <ele>1866.7</ele>
        <time>2021-08-03T09:52:24Z</time>
      </trkpt>
      <trkpt lat="45.52597" lon="6.76382">
        <ele>1866.7</ele>
        <time>2021-08-03T09:52:25Z</time>
      </trkpt>
      <trkpt lat="45.52597" lon="6.76382">
        <ele>1866.6</ele>
        <time>2021-08-03T09:52:26Z</time>
      </trkpt>
      <trkpt lat="45.52597" lon="6.76382">
        <ele>1866.6</ele>
        <time>2021-08-03T09:52:27Z</time>
      </trkpt>
      <trkpt lat="45.52597" lon="6.76382">
        <ele>1866.5</ele>
        <time>2021-08-03T09:52:28Z</time>
      </trkpt>
      <trkpt lat="45.52597" lon="6.76381">
        <ele>1866.3</ele>
        <time>2021-08-03T09:52:29Z</time>
      </trkpt>
      <trkpt lat="45.52597" lon="6.76381">
        <ele>1866.2</ele>
        <time>2021-08-03T09:52:30Z</time>
      </trkpt>
      <trkpt lat="45.52598" lon="6.7638">
        <ele>1866.1</ele>
        <time>2021-08-03T09:52:31Z</time>
      </trkpt>
      <trkpt lat="45.52598" lon="6.7638">
        <ele>1866</ele>
        <time>2021-08-03T09:52:32Z</time>
      </trkpt>
      <trkpt lat="45.52598" lon="6.7638">
        <ele>1865.8</ele>
        <time>2021-08-03T09:52:33Z</time>
      </trkpt>
      <trkpt lat="45.52598" lon="6.7638">
        <ele>1865.7</ele>
        <time>2021-08-03T09:52:34Z</time>
      </trkpt>
      <trkpt lat="45.52598" lon="6.7638">
        <ele>1865.6</ele>
        <time>2021-08-03T09:52:35Z</time>
      </trkpt>
      <trkpt lat="45.52599" lon="6.7638">
        <ele>1865.5</ele>
        <time>2021-08-03T09:52:36Z</time>
      </trkpt>
      <trkpt lat="45.52599" lon="6.7638">
        <ele>1865.3</ele>
        <time>2021-08-03T09:52:37Z</time>
      </trkpt>
      <trkpt lat="45.52599" lon="6.76381">
        <ele>1865.1</ele>
        <time>2021-08-03T09:52:38Z</time>
      </trkpt>
      <trkpt lat="45.526" lon="6.76382">
        <ele>1864.9</ele>
        <time>2021-08-03T09:52:39Z</time>
      </trkpt>
      <trkpt lat="45.526" lon="6.76382">
        <ele>1864.7</ele>
        <time>2021-08-03T09:52:40Z</time>
      </trkpt>
      <trkpt lat="45.526" lon="6.76383">
        <ele>1864.5</ele>
        <time>2021-08-03T09:52:41Z</time>
      </trkpt>
      <trkpt lat="45.526" lon="6.76384">
        <ele>1864.3</ele>
        <time>2021-08-03T09:52:42Z</time>
      </trkpt>
      <trkpt lat="45.526" lon="6.76385">
        <ele>1864.1</ele>
        <time>2021-08-03T09:52:43Z</time>
      </trkpt>
      <trkpt lat="45.52601" lon="6.76385">
        <ele>1863.9</ele>
        <time>2021-08-03T09:52:44Z</time>
      </trkpt>
      <trkpt lat="45.52601" lon="6.76386">
        <ele>1863.7</ele>
        <time>2021-08-03T09:52:45Z</time>
      </trkpt>
      <trkpt lat="45.52601" lon="6.76386">
        <ele>1863.6</ele>
        <time>2021-08-03T09:52:46Z</time>
      </trkpt>
      <trkpt lat="45.52601" lon="6.76387">
        <ele>1863.4</ele>
        <time>2021-08-03T09:52:47Z</time>
      </trkpt>
      <trkpt lat="45.52601" lon="6.76387">
        <ele>1863.3</ele>
        <time>2021-08-03T09:52:48Z</time>
      </trkpt>
      <trkpt lat="45.52601" lon="6.76388">
        <ele>1863.2</ele>
        <time>2021-08-03T09:52:49Z</time>
      </trkpt>
      <trkpt lat="45.52601" lon="6.76388">
        <ele>1863</ele>
        <time>2021-08-03T09:52:50Z</time>
      </trkpt>
      <trkpt lat="45.52601" lon="6.76389">
        <ele>1862.9</ele>
        <time>2021-08-03T09:52:51Z</time>
      </trkpt>
      <trkpt lat="45.52602" lon="6.7639">
        <ele>1862.7</ele>
        <time>2021-08-03T09:52:52Z</time>
      </trkpt>
      <trkpt lat="45.52602" lon="6.76391">
        <ele>1862.5</ele>
        <time>2021-08-03T09:52:53Z</time>
      </trkpt>
      <trkpt lat="45.52602" lon="6.76392">
        <ele>1862.2</ele>
        <time>2021-08-03T09:52:54Z</time>
      </trkpt>
      <trkpt lat="45.52602" lon="6.76393">
        <ele>1862</ele>
        <time>2021-08-03T09:52:55Z</time>
      </trkpt>
      <trkpt lat="45.52602" lon="6.76394">
        <ele>1861.8</ele>
        <time>2021-08-03T09:52:56Z</time>
      </trkpt>
      <trkpt lat="45.52603" lon="6.76395">
        <ele>1861.5</ele>
        <time>2021-08-03T09:52:57Z</time>
      </trkpt>
      <trkpt lat="45.52603" lon="6.76396">
        <ele>1861.3</ele>
        <time>2021-08-03T09:52:58Z</time>
      </trkpt>
      <trkpt lat="45.52603" lon="6.76397">
        <ele>1861</ele>
        <time>2021-08-03T09:52:59Z</time>
      </trkpt>
      <trkpt lat="45.52603" lon="6.76398">
        <ele>1860.8</ele>
        <time>2021-08-03T09:53:00Z</time>
      </trkpt>
      <trkpt lat="45.52604" lon="6.76398">
        <ele>1860.6</ele>
        <time>2021-08-03T09:53:01Z</time>
      </trkpt>
      <trkpt lat="45.52604" lon="6.76399">
        <ele>1860.4</ele>
        <time>2021-08-03T09:53:02Z</time>
      </trkpt>
      <trkpt lat="45.52604" lon="6.764">
        <ele>1860.2</ele>
        <time>2021-08-03T09:53:03Z</time>
      </trkpt>
      <trkpt lat="45.52604" lon="6.76401">
        <ele>1860</ele>
        <time>2021-08-03T09:53:04Z</time>
      </trkpt>
      <trkpt lat="45.52604" lon="6.76402">
        <ele>1859.8</ele>
        <time>2021-08-03T09:53:05Z</time>
      </trkpt>
      <trkpt lat="45.52605" lon="6.76403">
        <ele>1859.6</ele>
        <time>2021-08-03T09:53:06Z</time>
      </trkpt>
      <trkpt lat="45.52605" lon="6.76403">
        <ele>1859.4</ele>
        <time>2021-08-03T09:53:07Z</time>
      </trkpt>
      <trkpt lat="45.52605" lon="6.76404">
        <ele>1859.3</ele>
        <time>2021-08-03T09:53:08Z</time>
      </trkpt>
      <trkpt lat="45.52605" lon="6.76405">
        <ele>1859.1</ele>
        <time>2021-08-03T09:53:09Z</time>
      </trkpt>
      <trkpt lat="45.52605" lon="6.76406">
        <ele>1858.9</ele>
        <time>2021-08-03T09:53:10Z</time>
      </trkpt>
      <trkpt lat="45.52604" lon="6.76407">
        <ele>1858.7</ele>
        <time>2021-08-03T09:53:11Z</time>
      </trkpt>
      <trkpt lat="45.52604" lon="6.76407">
        <ele>1858.5</ele>
        <time>2021-08-03T09:53:12Z</time>
      </trkpt>
      <trkpt lat="45.52604" lon="6.76408">
        <ele>1858.3</ele>
        <time>2021-08-03T09:53:13Z</time>
      </trkpt>
      <trkpt lat="45.52603" lon="6.76409">
        <ele>1858.1</ele>
        <time>2021-08-03T09:53:14Z</time>
      </trkpt>
      <trkpt lat="45.52603" lon="6.7641">
        <ele>1857.9</ele>
        <time>2021-08-03T09:53:15Z</time>
      </trkpt>
      <trkpt lat="45.52602" lon="6.76411">
        <ele>1857.6</ele>
        <time>2021-08-03T09:53:16Z</time>
      </trkpt>
      <trkpt lat="45.52602" lon="6.76411">
        <ele>1857.3</ele>
        <time>2021-08-03T09:53:17Z</time>
      </trkpt>
      <trkpt lat="45.52601" lon="6.76412">
        <ele>1857</ele>
        <time>2021-08-03T09:53:18Z</time>
      </trkpt>
      <trkpt lat="45.526" lon="6.76413">
        <ele>1856.7</ele>
        <time>2021-08-03T09:53:19Z</time>
      </trkpt>
      <trkpt lat="45.52599" lon="6.76414">
        <ele>1856.4</ele>
        <time>2021-08-03T09:53:20Z</time>
      </trkpt>
      <trkpt lat="45.52598" lon="6.76415">
        <ele>1856.1</ele>
        <time>2021-08-03T09:53:21Z</time>
      </trkpt>
      <trkpt lat="45.52598" lon="6.76415">
        <ele>1855.8</ele>
        <time>2021-08-03T09:53:22Z</time>
      </trkpt>
      <trkpt lat="45.52597" lon="6.76416">
        <ele>1855.6</ele>
        <time>2021-08-03T09:53:23Z</time>
      </trkpt>
      <trkpt lat="45.52597" lon="6.76416">
        <ele>1855.4</ele>
        <time>2021-08-03T09:53:24Z</time>
      </trkpt>
      <trkpt lat="45.52596" lon="6.76417">
        <ele>1855.3</ele>
        <time>2021-08-03T09:53:25Z</time>
      </trkpt>
      <trkpt lat="45.52596" lon="6.76417">
        <ele>1855.2</ele>
        <time>2021-08-03T09:53:26Z</time>
      </trkpt>
      <trkpt lat="45.52596" lon="6.76418">
        <ele>1855.1</ele>
        <time>2021-08-03T09:53:27Z</time>
      </trkpt>
      <trkpt lat="45.52596" lon="6.76418">
        <ele>1855</ele>
        <time>2021-08-03T09:53:28Z</time>
      </trkpt>
      <trkpt lat="45.52596" lon="6.76419">
        <ele>1854.9</ele>
        <time>2021-08-03T09:53:29Z</time>
      </trkpt>
      <trkpt lat="45.52596" lon="6.76419">
        <ele>1854.8</ele>
        <time>2021-08-03T09:53:30Z</time>
      </trkpt>
      <trkpt lat="45.52596" lon="6.76419">
        <ele>1854.8</ele>
        <time>2021-08-03T09:53:31Z</time>
      </trkpt>
      <trkpt lat="45.52596" lon="6.76419">
        <ele>1854.7</ele>
        <time>2021-08-03T09:53:32Z</time>
      </trkpt>
      <trkpt lat="45.52596" lon="6.7642">
        <ele>1854.6</ele>
        <time>2021-08-03T09:53:33Z</time>
      </trkpt>
      <trkpt lat="45.52596" lon="6.7642">
        <ele>1854.6</ele>
        <time>2021-08-03T09:53:34Z</time>
      </trkpt>
      <trkpt lat="45.52596" lon="6.7642">
        <ele>1854.5</ele>
        <time>2021-08-03T09:53:35Z</time>
      </trkpt>
      <trkpt lat="45.52596" lon="6.7642">
        <ele>1854.5</ele>
        <time>2021-08-03T09:53:36Z</time>
      </trkpt>
      <trkpt lat="45.52596" lon="6.7642">
        <ele>1854.5</ele>
        <time>2021-08-03T09:53:37Z</time>
      </trkpt>
      <trkpt lat="45.52596" lon="6.76421">
        <ele>1854.4</ele>
        <time>2021-08-03T09:53:38Z</time>
      </trkpt>
      <trkpt lat="45.52596" lon="6.76421">
        <ele>1854.4</ele>
        <time>2021-08-03T09:53:39Z</time>
      </trkpt>
      <trkpt lat="45.52597" lon="6.76421">
        <ele>1854.4</ele>
        <time>2021-08-03T09:53:40Z</time>
      </trkpt>
      <trkpt lat="45.52597" lon="6.76421">
        <ele>1854.3</ele>
        <time>2021-08-03T09:53:41Z</time>
      </trkpt>
      <trkpt lat="45.52597" lon="6.76421">
        <ele>1854.3</ele>
        <time>2021-08-03T09:53:42Z</time>
      </trkpt>
      <trkpt lat="45.52597" lon="6.76421">
        <ele>1854.3</ele>
        <time>2021-08-03T09:53:43Z</time>
      </trkpt>
      <trkpt lat="45.52597" lon="6.76421">
        <ele>1854.3</ele>
        <time>2021-08-03T09:53:44Z</time>
      </trkpt>
      <trkpt lat="45.52597" lon="6.76421">
        <ele>1854.3</ele>
        <time>2021-08-03T09:53:45Z</time>
      </trkpt>
      <trkpt lat="45.52597" lon="6.76421">
        <ele>1854.3</ele>
        <time>2021-08-03T09:53:46Z</time>
      </trkpt>
      <trkpt lat="45.52597" lon="6.76421">
        <ele>1854.3</ele>
        <time>2021-08-03T09:53:47Z</time>
      </trkpt>
      <trkpt lat="45.52597" lon="6.76421">
        <ele>1854.3</ele>
        <time>2021-08-03T09:53:48Z</time>
      </trkpt>
      <trkpt lat="45.52597" lon="6.76421">
        <ele>1854.3</ele>
        <time>2021-08-03T09:53:49Z</time>
      </trkpt>
      <trkpt lat="45.52597" lon="6.76421">
        <ele>1854.3</ele>
        <time>2021-08-03T09:53:50Z</time>
      </trkpt>
      <trkpt lat="45.52597" lon="6.76421">
        <ele>1854.3</ele>
        <time>2021-08-03T09:53:51Z</time>
      </trkpt>
      <trkpt lat="45.52597" lon="6.76421">
        <ele>1854.3</ele>
        <time>2021-08-03T09:53:52Z</time>
      </trkpt>
      <trkpt lat="45.52597" lon="6.76421">
        <ele>1854.3</ele>
        <time>2021-08-03T09:53:53Z</time>
      </trkpt>
      <trkpt lat="45.52597" lon="6.76421">
        <ele>1854.3</ele>
        <time>2021-08-03T09:53:54Z</time>
      </trkpt>
      <trkpt lat="45.52597" lon="6.76421">
        <ele>1854.2</ele>
        <time>2021-08-03T09:53:55Z</time>
      </trkpt>
      <trkpt lat="45.52597" lon="6.76421">
        <ele>1854.2</ele>
        <time>2021-08-03T09:53:56Z</time>
      </trkpt>
      <trkpt lat="45.52597" lon="6.76421">
        <ele>1854.2</ele>
        <time>2021-08-03T09:53:57Z</time>
      </trkpt>
      <trkpt lat="45.52597" lon="6.76421">
        <ele>1854.2</ele>
        <time>2021-08-03T09:53:58Z</time>
      </trkpt>
      <trkpt lat="45.52596" lon="6.76421">
        <ele>1854.2</ele>
        <time>2021-08-03T09:53:59Z</time>
      </trkpt>
      <trkpt lat="45.52596" lon="6.76421">
        <ele>1854.2</ele>
        <time>2021-08-03T09:54:00Z</time>
      </trkpt>
      <trkpt lat="45.52596" lon="6.76421">
        <ele>1854.2</ele>
        <time>2021-08-03T09:54:01Z</time>
      </trkpt>
      <trkpt lat="45.52596" lon="6.76421">
        <ele>1854.2</ele>
        <time>2021-08-03T09:54:02Z</time>
      </trkpt>
      <trkpt lat="45.52596" lon="6.76421">
        <ele>1854.2</ele>
        <time>2021-08-03T09:54:03Z</time>
      </trkpt>
      <trkpt lat="45.52596" lon="6.76421">
        <ele>1854.2</ele>
        <time>2021-08-03T09:54:04Z</time>
      </trkpt>
      <trkpt lat="45.52596" lon="6.76421">
        <ele>1854.2</ele>
        <time>2021-08-03T09:54:05Z</time>
      </trkpt>
      <trkpt lat="45.52596" lon="6.76421">
        <ele>1854.2</ele>
        <time>2021-08-03T09:54:06Z</time>
      </trkpt>
      <trkpt lat="45.52596" lon="6.76421">
        <ele>1854.2</ele>
        <time>2021-08-03T09:54:07Z</time>
      </trkpt>
      <trkpt lat="45.52596" lon="6.76421">
        <ele>1854.2</ele>
        <time>2021-08-03T09:54:08Z</time>
      </trkpt>
      <trkpt lat="45.52596" lon="6.76421">
        <ele>1854.2</ele>
        <time>2021-08-03T09:54:09Z</time>
      </trkpt>
      <trkpt lat="45.52596" lon="6.76421">
        <ele>1854.2</ele>
        <time>2021-08-03T09:54:10Z</time>
      </trkpt>
      <trkpt lat="45.52596" lon="6.76421">
        <ele>1854.2</ele>
        <time>2021-08-03T09:54:11Z</time>
      </trkpt>
      <trkpt lat="45.52596" lon="6.76421">
        <ele>1854.2</ele>
        <time>2021-08-03T09:54:12Z</time>
      </trkpt>
      <trkpt lat="45.52596" lon="6.76421">
        <ele>1854.2</ele>
        <time>2021-08-03T09:54:13Z</time>
      </trkpt>
      <trkpt lat="45.52596" lon="6.76421">
        <ele>1854.2</ele>
        <time>2021-08-03T09:54:14Z</time>
      </trkpt>
      <trkpt lat="45.52596" lon="6.76421">
        <ele>1854.2</ele>
        <time>2021-08-03T09:54:15Z</time>
      </trkpt>
      <trkpt lat="45.52596" lon="6.76421">
        <ele>1854.2</ele>
        <time>2021-08-03T09:54:16Z</time>
      </trkpt>
      <trkpt lat="45.52596" lon="6.76421">
        <ele>1854.2</ele>
        <time>2021-08-03T09:54:17Z</time>
      </trkpt>
      <trkpt lat="45.52596" lon="6.76421">
        <ele>1854.2</ele>
        <time>2021-08-03T09:54:18Z</time>
      </trkpt>
      <trkpt lat="45.52596" lon="6.76421">
        <ele>1854.2</ele>
        <time>2021-08-03T09:54:19Z</time>
      </trkpt>
      <trkpt lat="45.52596" lon="6.76421">
        <ele>1854.2</ele>
        <time>2021-08-03T09:54:20Z</time>
      </trkpt>
      <trkpt lat="45.52596" lon="6.76421">
        <ele>1854.2</ele>
        <time>2021-08-03T09:54:21Z</time>
      </trkpt>
      <trkpt lat="45.52596" lon="6.76421">
        <ele>1854.2</ele>
        <time>2021-08-03T09:54:22Z</time>
      </trkpt>
      <trkpt lat="45.52596" lon="6.76421">
        <ele>1854.2</ele>
        <time>2021-08-03T09:54:23Z</time>
      </trkpt>
      <trkpt lat="45.52596" lon="6.76421">
        <ele>1854.2</ele>
        <time>2021-08-03T09:54:24Z</time>
      </trkpt>
      <trkpt lat="45.52596" lon="6.76421">
        <ele>1854.2</ele>
        <time>2021-08-03T09:54:25Z</time>
      </trkpt>
      <trkpt lat="45.52596" lon="6.76421">
        <ele>1854.2</ele>
        <time>2021-08-03T09:54:26Z</time>
      </trkpt>
      <trkpt lat="45.52596" lon="6.76421">
        <ele>1854.2</ele>
        <time>2021-08-03T09:54:27Z</time>
      </trkpt>
      <trkpt lat="45.52596" lon="6.76421">
        <ele>1854.2</ele>
        <time>2021-08-03T09:54:28Z</time>
      </trkpt>
      <trkpt lat="45.52596" lon="6.76421">
        <ele>1854.2</ele>
        <time>2021-08-03T09:54:29Z</time>
      </trkpt>
      <trkpt lat="45.52596" lon="6.76421">
        <ele>1854.2</ele>
        <time>2021-08-03T09:54:30Z</time>
      </trkpt>
      <trkpt lat="45.52596" lon="6.76421">
        <ele>1854.2</ele>
        <time>2021-08-03T09:54:31Z</time>
      </trkpt>
      <trkpt lat="45.52596" lon="6.76421">
        <ele>1854.2</ele>
        <time>2021-08-03T09:54:32Z</time>
      </trkpt>
      <trkpt lat="45.52596" lon="6.76421">
        <ele>1854.1</ele>
        <time>2021-08-03T09:54:33Z</time>
      </trkpt>
      <trkpt lat="45.52596" lon="6.76421">
        <ele>1854.1</ele>
        <time>2021-08-03T09:54:34Z</time>
      </trkpt>
      <trkpt lat="45.52596" lon="6.76421">
        <ele>1854.1</ele>
        <time>2021-08-03T09:54:35Z</time>
      </trkpt>
      <trkpt lat="45.52596" lon="6.76421">
        <ele>1854.1</ele>
        <time>2021-08-03T09:54:36Z</time>
      </trkpt>
      <trkpt lat="45.52596" lon="6.76421">
        <ele>1854.1</ele>
        <time>2021-08-03T09:54:37Z</time>
      </trkpt>
      <trkpt lat="45.52596" lon="6.76421">
        <ele>1854.1</ele>
        <time>2021-08-03T09:54:38Z</time>
      </trkpt>
      <trkpt lat="45.52596" lon="6.76421">
        <ele>1854.1</ele>
        <time>2021-08-03T09:54:39Z</time>
      </trkpt>
      <trkpt lat="45.52596" lon="6.76421">
        <ele>1854.1</ele>
        <time>2021-08-03T09:54:40Z</time>
      </trkpt>
      <trkpt lat="45.52596" lon="6.76421">
        <ele>1854</ele>
        <time>2021-08-03T09:54:41Z</time>
      </trkpt>
      <trkpt lat="45.52596" lon="6.76422">
        <ele>1853.9</ele>
        <time>2021-08-03T09:54:42Z</time>
      </trkpt>
      <trkpt lat="45.52596" lon="6.76422">
        <ele>1853.9</ele>
        <time>2021-08-03T09:54:43Z</time>
      </trkpt>
      <trkpt lat="45.52596" lon="6.76422">
        <ele>1853.8</ele>
        <time>2021-08-03T09:54:44Z</time>
      </trkpt>
      <trkpt lat="45.52596" lon="6.76423">
        <ele>1853.7</ele>
        <time>2021-08-03T09:54:45Z</time>
      </trkpt>
      <trkpt lat="45.52596" lon="6.76423">
        <ele>1853.6</ele>
        <time>2021-08-03T09:54:46Z</time>
      </trkpt>
      <trkpt lat="45.52596" lon="6.76423">
        <ele>1853.6</ele>
        <time>2021-08-03T09:54:47Z</time>
      </trkpt>
      <trkpt lat="45.52596" lon="6.76423">
        <ele>1853.5</ele>
        <time>2021-08-03T09:54:48Z</time>
      </trkpt>
      <trkpt lat="45.52595" lon="6.76424">
        <ele>1853.5</ele>
        <time>2021-08-03T09:54:49Z</time>
      </trkpt>
      <trkpt lat="45.52595" lon="6.76424">
        <ele>1853.4</ele>
        <time>2021-08-03T09:54:50Z</time>
      </trkpt>
      <trkpt lat="45.52595" lon="6.76424">
        <ele>1853.4</ele>
        <time>2021-08-03T09:54:51Z</time>
      </trkpt>
      <trkpt lat="45.52595" lon="6.76424">
        <ele>1853.4</ele>
        <time>2021-08-03T09:54:52Z</time>
      </trkpt>
      <trkpt lat="45.52595" lon="6.76424">
        <ele>1853.4</ele>
        <time>2021-08-03T09:54:53Z</time>
      </trkpt>
      <trkpt lat="45.52595" lon="6.76424">
        <ele>1853.4</ele>
        <time>2021-08-03T09:54:54Z</time>
      </trkpt>
      <trkpt lat="45.52595" lon="6.76424">
        <ele>1853.4</ele>
        <time>2021-08-03T09:54:55Z</time>
      </trkpt>
      <trkpt lat="45.52595" lon="6.76424">
        <ele>1853.4</ele>
        <time>2021-08-03T09:54:56Z</time>
      </trkpt>
      <trkpt lat="45.52595" lon="6.76424">
        <ele>1853.4</ele>
        <time>2021-08-03T09:54:57Z</time>
      </trkpt>
      <trkpt lat="45.52595" lon="6.76424">
        <ele>1853.3</ele>
        <time>2021-08-03T09:54:58Z</time>
      </trkpt>
      <trkpt lat="45.52595" lon="6.76424">
        <ele>1853.2</ele>
        <time>2021-08-03T09:54:59Z</time>
      </trkpt>
      <trkpt lat="45.52595" lon="6.76425">
        <ele>1853.1</ele>
        <time>2021-08-03T09:55:00Z</time>
      </trkpt>
      <trkpt lat="45.52595" lon="6.76426">
        <ele>1852.8</ele>
        <time>2021-08-03T09:55:01Z</time>
      </trkpt>
      <trkpt lat="45.52595" lon="6.76427">
        <ele>1852.6</ele>
        <time>2021-08-03T09:55:02Z</time>
      </trkpt>
      <trkpt lat="45.52595" lon="6.76428">
        <ele>1852.3</ele>
        <time>2021-08-03T09:55:03Z</time>
      </trkpt>
      <trkpt lat="45.52595" lon="6.76429">
        <ele>1852.1</ele>
        <time>2021-08-03T09:55:04Z</time>
      </trkpt>
      <trkpt lat="45.52595" lon="6.7643">
        <ele>1851.9</ele>
        <time>2021-08-03T09:55:05Z</time>
      </trkpt>
      <trkpt lat="45.52595" lon="6.76432">
        <ele>1851.6</ele>
        <time>2021-08-03T09:55:06Z</time>
      </trkpt>
      <trkpt lat="45.52594" lon="6.76433">
        <ele>1851.3</ele>
        <time>2021-08-03T09:55:07Z</time>
      </trkpt>
      <trkpt lat="45.52594" lon="6.76434">
        <ele>1851.1</ele>
        <time>2021-08-03T09:55:08Z</time>
      </trkpt>
      <trkpt lat="45.52594" lon="6.76435">
        <ele>1850.8</ele>
        <time>2021-08-03T09:55:09Z</time>
      </trkpt>
      <trkpt lat="45.52594" lon="6.76436">
        <ele>1850.6</ele>
        <time>2021-08-03T09:55:10Z</time>
      </trkpt>
      <trkpt lat="45.52594" lon="6.76437">
        <ele>1850.3</ele>
        <time>2021-08-03T09:55:11Z</time>
      </trkpt>
      <trkpt lat="45.52593" lon="6.76438">
        <ele>1850.1</ele>
        <time>2021-08-03T09:55:12Z</time>
      </trkpt>
      <trkpt lat="45.52594" lon="6.76438">
        <ele>1850</ele>
        <time>2021-08-03T09:55:13Z</time>
      </trkpt>
      <trkpt lat="45.52594" lon="6.76439">
        <ele>1849.8</ele>
        <time>2021-08-03T09:55:14Z</time>
      </trkpt>
      <trkpt lat="45.52594" lon="6.7644">
        <ele>1849.6</ele>
        <time>2021-08-03T09:55:15Z</time>
      </trkpt>
      <trkpt lat="45.52595" lon="6.7644">
        <ele>1849.4</ele>
        <time>2021-08-03T09:55:16Z</time>
      </trkpt>
      <trkpt lat="45.52596" lon="6.7644">
        <ele>1849.2</ele>
        <time>2021-08-03T09:55:17Z</time>
      </trkpt>
      <trkpt lat="45.52596" lon="6.76441">
        <ele>1848.9</ele>
        <time>2021-08-03T09:55:18Z</time>
      </trkpt>
      <trkpt lat="45.52597" lon="6.76441">
        <ele>1848.7</ele>
        <time>2021-08-03T09:55:19Z</time>
      </trkpt>
      <trkpt lat="45.52598" lon="6.76441">
        <ele>1848.4</ele>
        <time>2021-08-03T09:55:20Z</time>
      </trkpt>
      <trkpt lat="45.52599" lon="6.76441">
        <ele>1848.1</ele>
        <time>2021-08-03T09:55:21Z</time>
      </trkpt>
      <trkpt lat="45.52599" lon="6.76441">
        <ele>1847.9</ele>
        <time>2021-08-03T09:55:22Z</time>
      </trkpt>
      <trkpt lat="45.526" lon="6.76442">
        <ele>1847.6</ele>
        <time>2021-08-03T09:55:23Z</time>
      </trkpt>
      <trkpt lat="45.52601" lon="6.76442">
        <ele>1847.4</ele>
        <time>2021-08-03T09:55:24Z</time>
      </trkpt>
      <trkpt lat="45.52602" lon="6.76442">
        <ele>1847.1</ele>
        <time>2021-08-03T09:55:25Z</time>
      </trkpt>
      <trkpt lat="45.52602" lon="6.76442">
        <ele>1846.9</ele>
        <time>2021-08-03T09:55:26Z</time>
      </trkpt>
      <trkpt lat="45.52603" lon="6.76442">
        <ele>1846.7</ele>
        <time>2021-08-03T09:55:27Z</time>
      </trkpt>
      <trkpt lat="45.52603" lon="6.76443">
        <ele>1846.5</ele>
        <time>2021-08-03T09:55:28Z</time>
      </trkpt>
      <trkpt lat="45.52604" lon="6.76443">
        <ele>1846.3</ele>
        <time>2021-08-03T09:55:29Z</time>
      </trkpt>
      <trkpt lat="45.52605" lon="6.76443">
        <ele>1846</ele>
        <time>2021-08-03T09:55:30Z</time>
      </trkpt>
      <trkpt lat="45.52605" lon="6.76443">
        <ele>1845.8</ele>
        <time>2021-08-03T09:55:31Z</time>
      </trkpt>
      <trkpt lat="45.52606" lon="6.76444">
        <ele>1845.7</ele>
        <time>2021-08-03T09:55:32Z</time>
      </trkpt>
      <trkpt lat="45.52606" lon="6.76444">
        <ele>1845.5</ele>
        <time>2021-08-03T09:55:33Z</time>
      </trkpt>
      <trkpt lat="45.52607" lon="6.76444">
        <ele>1845.3</ele>
        <time>2021-08-03T09:55:34Z</time>
      </trkpt>
      <trkpt lat="45.52607" lon="6.76444">
        <ele>1845.1</ele>
        <time>2021-08-03T09:55:35Z</time>
      </trkpt>
      <trkpt lat="45.52608" lon="6.76445">
        <ele>1844.9</ele>
        <time>2021-08-03T09:55:36Z</time>
      </trkpt>
      <trkpt lat="45.52608" lon="6.76445">
        <ele>1844.7</ele>
        <time>2021-08-03T09:55:37Z</time>
      </trkpt>
      <trkpt lat="45.52609" lon="6.76446">
        <ele>1844.5</ele>
        <time>2021-08-03T09:55:38Z</time>
      </trkpt>
      <trkpt lat="45.52609" lon="6.76446">
        <ele>1844.3</ele>
        <time>2021-08-03T09:55:39Z</time>
      </trkpt>
      <trkpt lat="45.5261" lon="6.76447">
        <ele>1844.1</ele>
        <time>2021-08-03T09:55:40Z</time>
      </trkpt>
      <trkpt lat="45.5261" lon="6.76447">
        <ele>1843.9</ele>
        <time>2021-08-03T09:55:41Z</time>
      </trkpt>
      <trkpt lat="45.52611" lon="6.76448">
        <ele>1843.7</ele>
        <time>2021-08-03T09:55:42Z</time>
      </trkpt>
      <trkpt lat="45.52611" lon="6.76448">
        <ele>1843.6</ele>
        <time>2021-08-03T09:55:43Z</time>
      </trkpt>
      <trkpt lat="45.52611" lon="6.76449">
        <ele>1843.4</ele>
        <time>2021-08-03T09:55:44Z</time>
      </trkpt>
      <trkpt lat="45.52612" lon="6.76449">
        <ele>1843.3</ele>
        <time>2021-08-03T09:55:45Z</time>
      </trkpt>
      <trkpt lat="45.52612" lon="6.76449">
        <ele>1843.2</ele>
        <time>2021-08-03T09:55:46Z</time>
      </trkpt>
      <trkpt lat="45.52612" lon="6.76449">
        <ele>1843.1</ele>
        <time>2021-08-03T09:55:47Z</time>
      </trkpt>
      <trkpt lat="45.52612" lon="6.76449">
        <ele>1843.1</ele>
        <time>2021-08-03T09:55:48Z</time>
      </trkpt>
      <trkpt lat="45.52612" lon="6.7645">
        <ele>1843</ele>
        <time>2021-08-03T09:55:49Z</time>
      </trkpt>
      <trkpt lat="45.52613" lon="6.7645">
        <ele>1842.9</ele>
        <time>2021-08-03T09:55:50Z</time>
      </trkpt>
      <trkpt lat="45.52613" lon="6.7645">
        <ele>1842.8</ele>
        <time>2021-08-03T09:55:51Z</time>
      </trkpt>
      <trkpt lat="45.52613" lon="6.7645">
        <ele>1842.6</ele>
        <time>2021-08-03T09:55:52Z</time>
      </trkpt>
      <trkpt lat="45.52614" lon="6.7645">
        <ele>1842.5</ele>
        <time>2021-08-03T09:55:53Z</time>
      </trkpt>
      <trkpt lat="45.52614" lon="6.7645">
        <ele>1842.3</ele>
        <time>2021-08-03T09:55:54Z</time>
      </trkpt>
      <trkpt lat="45.52615" lon="6.7645">
        <ele>1842.1</ele>
        <time>2021-08-03T09:55:55Z</time>
      </trkpt>
      <trkpt lat="45.52616" lon="6.76451">
        <ele>1841.9</ele>
        <time>2021-08-03T09:55:56Z</time>
      </trkpt>
      <trkpt lat="45.52616" lon="6.76451">
        <ele>1841.7</ele>
        <time>2021-08-03T09:55:57Z</time>
      </trkpt>
      <trkpt lat="45.52617" lon="6.76451">
        <ele>1841.5</ele>
        <time>2021-08-03T09:55:58Z</time>
      </trkpt>
      <trkpt lat="45.52618" lon="6.76451">
        <ele>1841.2</ele>
        <time>2021-08-03T09:55:59Z</time>
      </trkpt>
      <trkpt lat="45.52618" lon="6.76452">
        <ele>1840.9</ele>
        <time>2021-08-03T09:56:00Z</time>
      </trkpt>
      <trkpt lat="45.52619" lon="6.76452">
        <ele>1840.7</ele>
        <time>2021-08-03T09:56:01Z</time>
      </trkpt>
      <trkpt lat="45.5262" lon="6.76452">
        <ele>1840.5</ele>
        <time>2021-08-03T09:56:02Z</time>
      </trkpt>
      <trkpt lat="45.52621" lon="6.76452">
        <ele>1840.2</ele>
        <time>2021-08-03T09:56:03Z</time>
      </trkpt>
      <trkpt lat="45.52621" lon="6.76452">
        <ele>1840</ele>
        <time>2021-08-03T09:56:04Z</time>
      </trkpt>
      <trkpt lat="45.52622" lon="6.76453">
        <ele>1839.8</ele>
        <time>2021-08-03T09:56:05Z</time>
      </trkpt>
      <trkpt lat="45.52623" lon="6.76453">
        <ele>1839.6</ele>
        <time>2021-08-03T09:56:06Z</time>
      </trkpt>
      <trkpt lat="45.52623" lon="6.76453">
        <ele>1839.4</ele>
        <time>2021-08-03T09:56:07Z</time>
      </trkpt>
      <trkpt lat="45.52624" lon="6.76453">
        <ele>1839.2</ele>
        <time>2021-08-03T09:56:08Z</time>
      </trkpt>
      <trkpt lat="45.52624" lon="6.76453">
        <ele>1839</ele>
        <time>2021-08-03T09:56:09Z</time>
      </trkpt>
      <trkpt lat="45.52625" lon="6.76454">
        <ele>1838.9</ele>
        <time>2021-08-03T09:56:10Z</time>
      </trkpt>
      <trkpt lat="45.52625" lon="6.76454">
        <ele>1838.8</ele>
        <time>2021-08-03T09:56:11Z</time>
      </trkpt>
      <trkpt lat="45.52626" lon="6.76454">
        <ele>1838.6</ele>
        <time>2021-08-03T09:56:12Z</time>
      </trkpt>
      <trkpt lat="45.52626" lon="6.76454">
        <ele>1838.5</ele>
        <time>2021-08-03T09:56:13Z</time>
      </trkpt>
      <trkpt lat="45.52626" lon="6.76454">
        <ele>1838.4</ele>
        <time>2021-08-03T09:56:14Z</time>
      </trkpt>
      <trkpt lat="45.52627" lon="6.76454">
        <ele>1838.3</ele>
        <time>2021-08-03T09:56:15Z</time>
      </trkpt>
      <trkpt lat="45.52627" lon="6.76454">
        <ele>1838.2</ele>
        <time>2021-08-03T09:56:16Z</time>
      </trkpt>
      <trkpt lat="45.52627" lon="6.76455">
        <ele>1838.1</ele>
        <time>2021-08-03T09:56:17Z</time>
      </trkpt>
      <trkpt lat="45.52628" lon="6.76455">
        <ele>1838</ele>
        <time>2021-08-03T09:56:18Z</time>
      </trkpt>
      <trkpt lat="45.52628" lon="6.76455">
        <ele>1837.9</ele>
        <time>2021-08-03T09:56:19Z</time>
      </trkpt>
      <trkpt lat="45.52628" lon="6.76455">
        <ele>1837.8</ele>
        <time>2021-08-03T09:56:20Z</time>
      </trkpt>
      <trkpt lat="45.52628" lon="6.76456">
        <ele>1837.7</ele>
        <time>2021-08-03T09:56:21Z</time>
      </trkpt>
      <trkpt lat="45.52629" lon="6.76456">
        <ele>1837.5</ele>
        <time>2021-08-03T09:56:22Z</time>
      </trkpt>
      <trkpt lat="45.52629" lon="6.76456">
        <ele>1837.4</ele>
        <time>2021-08-03T09:56:23Z</time>
      </trkpt>
      <trkpt lat="45.5263" lon="6.76457">
        <ele>1837.2</ele>
        <time>2021-08-03T09:56:24Z</time>
      </trkpt>
      <trkpt lat="45.5263" lon="6.76457">
        <ele>1837</ele>
        <time>2021-08-03T09:56:25Z</time>
      </trkpt>
      <trkpt lat="45.52631" lon="6.76458">
        <ele>1836.9</ele>
        <time>2021-08-03T09:56:26Z</time>
      </trkpt>
      <trkpt lat="45.52631" lon="6.76458">
        <ele>1836.6</ele>
        <time>2021-08-03T09:56:27Z</time>
      </trkpt>
      <trkpt lat="45.52632" lon="6.76459">
        <ele>1836.5</ele>
        <time>2021-08-03T09:56:28Z</time>
      </trkpt>
      <trkpt lat="45.52632" lon="6.76459">
        <ele>1836.3</ele>
        <time>2021-08-03T09:56:29Z</time>
      </trkpt>
      <trkpt lat="45.52633" lon="6.7646">
        <ele>1836.1</ele>
        <time>2021-08-03T09:56:30Z</time>
      </trkpt>
      <trkpt lat="45.52633" lon="6.7646">
        <ele>1836</ele>
        <time>2021-08-03T09:56:31Z</time>
      </trkpt>
      <trkpt lat="45.52633" lon="6.7646">
        <ele>1835.9</ele>
        <time>2021-08-03T09:56:32Z</time>
      </trkpt>
      <trkpt lat="45.52634" lon="6.7646">
        <ele>1835.9</ele>
        <time>2021-08-03T09:56:33Z</time>
      </trkpt>
      <trkpt lat="45.52634" lon="6.7646">
        <ele>1835.9</ele>
        <time>2021-08-03T09:56:34Z</time>
      </trkpt>
      <trkpt lat="45.52634" lon="6.7646">
        <ele>1835.9</ele>
        <time>2021-08-03T09:56:35Z</time>
      </trkpt>
      <trkpt lat="45.52634" lon="6.7646">
        <ele>1835.9</ele>
        <time>2021-08-03T09:56:36Z</time>
      </trkpt>
      <trkpt lat="45.52634" lon="6.76461">
        <ele>1835.8</ele>
        <time>2021-08-03T09:56:37Z</time>
      </trkpt>
      <trkpt lat="45.52634" lon="6.76461">
        <ele>1835.8</ele>
        <time>2021-08-03T09:56:38Z</time>
      </trkpt>
      <trkpt lat="45.52634" lon="6.76461">
        <ele>1835.7</ele>
        <time>2021-08-03T09:56:39Z</time>
      </trkpt>
      <trkpt lat="45.52634" lon="6.76462">
        <ele>1835.5</ele>
        <time>2021-08-03T09:56:40Z</time>
      </trkpt>
      <trkpt lat="45.52635" lon="6.76463">
        <ele>1835.3</ele>
        <time>2021-08-03T09:56:41Z</time>
      </trkpt>
      <trkpt lat="45.52635" lon="6.76463">
        <ele>1835.1</ele>
        <time>2021-08-03T09:56:42Z</time>
      </trkpt>
      <trkpt lat="45.52636" lon="6.76464">
        <ele>1834.8</ele>
        <time>2021-08-03T09:56:43Z</time>
      </trkpt>
      <trkpt lat="45.52637" lon="6.76465">
        <ele>1834.5</ele>
        <time>2021-08-03T09:56:44Z</time>
      </trkpt>
      <trkpt lat="45.52638" lon="6.76465">
        <ele>1834.2</ele>
        <time>2021-08-03T09:56:45Z</time>
      </trkpt>
      <trkpt lat="45.52639" lon="6.76465">
        <ele>1833.9</ele>
        <time>2021-08-03T09:56:46Z</time>
      </trkpt>
      <trkpt lat="45.5264" lon="6.76466">
        <ele>1833.6</ele>
        <time>2021-08-03T09:56:47Z</time>
      </trkpt>
      <trkpt lat="45.52641" lon="6.76466">
        <ele>1833.3</ele>
        <time>2021-08-03T09:56:48Z</time>
      </trkpt>
      <trkpt lat="45.52642" lon="6.76467">
        <ele>1833</ele>
        <time>2021-08-03T09:56:49Z</time>
      </trkpt>
      <trkpt lat="45.52642" lon="6.76468">
        <ele>1832.7</ele>
        <time>2021-08-03T09:56:50Z</time>
      </trkpt>
      <trkpt lat="45.52643" lon="6.76468">
        <ele>1832.4</ele>
        <time>2021-08-03T09:56:51Z</time>
      </trkpt>
      <trkpt lat="45.52644" lon="6.76469">
        <ele>1832.1</ele>
        <time>2021-08-03T09:56:52Z</time>
      </trkpt>
      <trkpt lat="45.52644" lon="6.7647">
        <ele>1831.9</ele>
        <time>2021-08-03T09:56:53Z</time>
      </trkpt>
      <trkpt lat="45.52645" lon="6.76471">
        <ele>1831.6</ele>
        <time>2021-08-03T09:56:54Z</time>
      </trkpt>
      <trkpt lat="45.52645" lon="6.76472">
        <ele>1831.3</ele>
        <time>2021-08-03T09:56:55Z</time>
      </trkpt>
      <trkpt lat="45.52645" lon="6.76473">
        <ele>1831.1</ele>
        <time>2021-08-03T09:56:56Z</time>
      </trkpt>
      <trkpt lat="45.52646" lon="6.76474">
        <ele>1830.8</ele>
        <time>2021-08-03T09:56:57Z</time>
      </trkpt>
      <trkpt lat="45.52646" lon="6.76475">
        <ele>1830.5</ele>
        <time>2021-08-03T09:56:58Z</time>
      </trkpt>
      <trkpt lat="45.52646" lon="6.76476">
        <ele>1830.2</ele>
        <time>2021-08-03T09:56:59Z</time>
      </trkpt>
      <trkpt lat="45.52647" lon="6.76477">
        <ele>1830</ele>
        <time>2021-08-03T09:57:00Z</time>
      </trkpt>
      <trkpt lat="45.52647" lon="6.76478">
        <ele>1829.7</ele>
        <time>2021-08-03T09:57:01Z</time>
      </trkpt>
      <trkpt lat="45.52647" lon="6.76479">
        <ele>1829.4</ele>
        <time>2021-08-03T09:57:02Z</time>
      </trkpt>
      <trkpt lat="45.52648" lon="6.7648">
        <ele>1829.1</ele>
        <time>2021-08-03T09:57:03Z</time>
      </trkpt>
      <trkpt lat="45.52648" lon="6.76481">
        <ele>1828.8</ele>
        <time>2021-08-03T09:57:04Z</time>
      </trkpt>
      <trkpt lat="45.52648" lon="6.76482">
        <ele>1828.5</ele>
        <time>2021-08-03T09:57:05Z</time>
      </trkpt>
      <trkpt lat="45.52649" lon="6.76483">
        <ele>1828.2</ele>
        <time>2021-08-03T09:57:06Z</time>
      </trkpt>
      <trkpt lat="45.52649" lon="6.76483">
        <ele>1828</ele>
        <time>2021-08-03T09:57:07Z</time>
      </trkpt>
      <trkpt lat="45.5265" lon="6.76484">
        <ele>1827.7</ele>
        <time>2021-08-03T09:57:08Z</time>
      </trkpt>
      <trkpt lat="45.5265" lon="6.76485">
        <ele>1827.4</ele>
        <time>2021-08-03T09:57:09Z</time>
      </trkpt>
      <trkpt lat="45.5265" lon="6.76486">
        <ele>1827.1</ele>
        <time>2021-08-03T09:57:10Z</time>
      </trkpt>
      <trkpt lat="45.52651" lon="6.76487">
        <ele>1826.8</ele>
        <time>2021-08-03T09:57:11Z</time>
      </trkpt>
      <trkpt lat="45.52651" lon="6.76488">
        <ele>1826.5</ele>
        <time>2021-08-03T09:57:12Z</time>
      </trkpt>
      <trkpt lat="45.52652" lon="6.76488">
        <ele>1826.2</ele>
        <time>2021-08-03T09:57:13Z</time>
      </trkpt>
      <trkpt lat="45.52652" lon="6.76489">
        <ele>1826</ele>
        <time>2021-08-03T09:57:14Z</time>
      </trkpt>
      <trkpt lat="45.52652" lon="6.7649">
        <ele>1825.7</ele>
        <time>2021-08-03T09:57:15Z</time>
      </trkpt>
      <trkpt lat="45.52653" lon="6.76491">
        <ele>1825.4</ele>
        <time>2021-08-03T09:57:16Z</time>
      </trkpt>
      <trkpt lat="45.52653" lon="6.76492">
        <ele>1825.1</ele>
        <time>2021-08-03T09:57:17Z</time>
      </trkpt>
      <trkpt lat="45.52653" lon="6.76492">
        <ele>1824.8</ele>
        <time>2021-08-03T09:57:18Z</time>
      </trkpt>
      <trkpt lat="45.52654" lon="6.76493">
        <ele>1824.6</ele>
        <time>2021-08-03T09:57:19Z</time>
      </trkpt>
      <trkpt lat="45.52654" lon="6.76494">
        <ele>1824.3</ele>
        <time>2021-08-03T09:57:20Z</time>
      </trkpt>
      <trkpt lat="45.52654" lon="6.76495">
        <ele>1824</ele>
        <time>2021-08-03T09:57:21Z</time>
      </trkpt>
      <trkpt lat="45.52654" lon="6.76496">
        <ele>1823.8</ele>
        <time>2021-08-03T09:57:22Z</time>
      </trkpt>
      <trkpt lat="45.52654" lon="6.76496">
        <ele>1823.5</ele>
        <time>2021-08-03T09:57:23Z</time>
      </trkpt>
      <trkpt lat="45.52655" lon="6.76497">
        <ele>1823.3</ele>
        <time>2021-08-03T09:57:24Z</time>
      </trkpt>
      <trkpt lat="45.52655" lon="6.76498">
        <ele>1823</ele>
        <time>2021-08-03T09:57:25Z</time>
      </trkpt>
      <trkpt lat="45.52655" lon="6.76499">
        <ele>1822.7</ele>
        <time>2021-08-03T09:57:26Z</time>
      </trkpt>
      <trkpt lat="45.52655" lon="6.765">
        <ele>1822.5</ele>
        <time>2021-08-03T09:57:27Z</time>
      </trkpt>
      <trkpt lat="45.52655" lon="6.76501">
        <ele>1822.2</ele>
        <time>2021-08-03T09:57:28Z</time>
      </trkpt>
      <trkpt lat="45.52655" lon="6.76501">
        <ele>1822</ele>
        <time>2021-08-03T09:57:29Z</time>
      </trkpt>
      <trkpt lat="45.52654" lon="6.76502">
        <ele>1821.7</ele>
        <time>2021-08-03T09:57:30Z</time>
      </trkpt>
      <trkpt lat="45.52654" lon="6.76503">
        <ele>1821.4</ele>
        <time>2021-08-03T09:57:31Z</time>
      </trkpt>
      <trkpt lat="45.52654" lon="6.76504">
        <ele>1821.2</ele>
        <time>2021-08-03T09:57:32Z</time>
      </trkpt>
      <trkpt lat="45.52654" lon="6.76505">
        <ele>1820.9</ele>
        <time>2021-08-03T09:57:33Z</time>
      </trkpt>
      <trkpt lat="45.52654" lon="6.76506">
        <ele>1820.7</ele>
        <time>2021-08-03T09:57:34Z</time>
      </trkpt>
      <trkpt lat="45.52654" lon="6.76506">
        <ele>1820.5</ele>
        <time>2021-08-03T09:57:35Z</time>
      </trkpt>
      <trkpt lat="45.52654" lon="6.76507">
        <ele>1820.2</ele>
        <time>2021-08-03T09:57:36Z</time>
      </trkpt>
      <trkpt lat="45.52654" lon="6.76508">
        <ele>1820</ele>
        <time>2021-08-03T09:57:37Z</time>
      </trkpt>
      <trkpt lat="45.52654" lon="6.76508">
        <ele>1819.8</ele>
        <time>2021-08-03T09:57:38Z</time>
      </trkpt>
      <trkpt lat="45.52654" lon="6.76509">
        <ele>1819.6</ele>
        <time>2021-08-03T09:57:39Z</time>
      </trkpt>
      <trkpt lat="45.52655" lon="6.7651">
        <ele>1819.4</ele>
        <time>2021-08-03T09:57:40Z</time>
      </trkpt>
      <trkpt lat="45.52655" lon="6.7651">
        <ele>1819.2</ele>
        <time>2021-08-03T09:57:41Z</time>
      </trkpt>
      <trkpt lat="45.52655" lon="6.76511">
        <ele>1819.1</ele>
        <time>2021-08-03T09:57:42Z</time>
      </trkpt>
      <trkpt lat="45.52655" lon="6.76511">
        <ele>1818.9</ele>
        <time>2021-08-03T09:57:43Z</time>
      </trkpt>
      <trkpt lat="45.52655" lon="6.76511">
        <ele>1818.8</ele>
        <time>2021-08-03T09:57:44Z</time>
      </trkpt>
      <trkpt lat="45.52655" lon="6.76512">
        <ele>1818.7</ele>
        <time>2021-08-03T09:57:45Z</time>
      </trkpt>
      <trkpt lat="45.52655" lon="6.76512">
        <ele>1818.6</ele>
        <time>2021-08-03T09:57:46Z</time>
      </trkpt>
      <trkpt lat="45.52656" lon="6.76512">
        <ele>1818.5</ele>
        <time>2021-08-03T09:57:47Z</time>
      </trkpt>
      <trkpt lat="45.52656" lon="6.76512">
        <ele>1818.4</ele>
        <time>2021-08-03T09:57:48Z</time>
      </trkpt>
      <trkpt lat="45.52656" lon="6.76513">
        <ele>1818.4</ele>
        <time>2021-08-03T09:57:49Z</time>
      </trkpt>
      <trkpt lat="45.52656" lon="6.76513">
        <ele>1818.4</ele>
        <time>2021-08-03T09:57:50Z</time>
      </trkpt>
      <trkpt lat="45.52656" lon="6.76513">
        <ele>1818.4</ele>
        <time>2021-08-03T09:57:51Z</time>
      </trkpt>
      <trkpt lat="45.52656" lon="6.76513">
        <ele>1818.3</ele>
        <time>2021-08-03T09:57:52Z</time>
      </trkpt>
      <trkpt lat="45.52655" lon="6.76513">
        <ele>1818.3</ele>
        <time>2021-08-03T09:57:53Z</time>
      </trkpt>
      <trkpt lat="45.52655" lon="6.76513">
        <ele>1818.3</ele>
        <time>2021-08-03T09:57:54Z</time>
      </trkpt>
      <trkpt lat="45.52655" lon="6.76513">
        <ele>1818.3</ele>
        <time>2021-08-03T09:57:55Z</time>
      </trkpt>
      <trkpt lat="45.52655" lon="6.76513">
        <ele>1818.3</ele>
        <time>2021-08-03T09:57:56Z</time>
      </trkpt>
      <trkpt lat="45.52655" lon="6.76513">
        <ele>1818.2</ele>
        <time>2021-08-03T09:57:57Z</time>
      </trkpt>
      <trkpt lat="45.52655" lon="6.76513">
        <ele>1818.2</ele>
        <time>2021-08-03T09:57:58Z</time>
      </trkpt>
      <trkpt lat="45.52655" lon="6.76513">
        <ele>1818.2</ele>
        <time>2021-08-03T09:57:59Z</time>
      </trkpt>
      <trkpt lat="45.52655" lon="6.76513">
        <ele>1818.2</ele>
        <time>2021-08-03T09:58:00Z</time>
      </trkpt>
      <trkpt lat="45.52655" lon="6.76513">
        <ele>1818.2</ele>
        <time>2021-08-03T09:58:01Z</time>
      </trkpt>
      <trkpt lat="45.52655" lon="6.76513">
        <ele>1818.2</ele>
        <time>2021-08-03T09:58:02Z</time>
      </trkpt>
      <trkpt lat="45.52655" lon="6.76513">
        <ele>1818.2</ele>
        <time>2021-08-03T09:58:03Z</time>
      </trkpt>
      <trkpt lat="45.52655" lon="6.76513">
        <ele>1818.1</ele>
        <time>2021-08-03T09:58:04Z</time>
      </trkpt>
      <trkpt lat="45.52655" lon="6.76514">
        <ele>1818</ele>
        <time>2021-08-03T09:58:05Z</time>
      </trkpt>
      <trkpt lat="45.52655" lon="6.76514">
        <ele>1817.9</ele>
        <time>2021-08-03T09:58:06Z</time>
      </trkpt>
      <trkpt lat="45.52656" lon="6.76514">
        <ele>1817.7</ele>
        <time>2021-08-03T09:58:07Z</time>
      </trkpt>
      <trkpt lat="45.52656" lon="6.76515">
        <ele>1817.6</ele>
        <time>2021-08-03T09:58:08Z</time>
      </trkpt>
      <trkpt lat="45.52656" lon="6.76516">
        <ele>1817.4</ele>
        <time>2021-08-03T09:58:09Z</time>
      </trkpt>
      <trkpt lat="45.52656" lon="6.76516">
        <ele>1817.2</ele>
        <time>2021-08-03T09:58:10Z</time>
      </trkpt>
      <trkpt lat="45.52656" lon="6.76517">
        <ele>1817</ele>
        <time>2021-08-03T09:58:11Z</time>
      </trkpt>
      <trkpt lat="45.52656" lon="6.76517">
        <ele>1816.8</ele>
        <time>2021-08-03T09:58:12Z</time>
      </trkpt>
      <trkpt lat="45.52656" lon="6.76518">
        <ele>1816.6</ele>
        <time>2021-08-03T09:58:13Z</time>
      </trkpt>
      <trkpt lat="45.52656" lon="6.76519">
        <ele>1816.5</ele>
        <time>2021-08-03T09:58:14Z</time>
      </trkpt>
      <trkpt lat="45.52656" lon="6.76519">
        <ele>1816.3</ele>
        <time>2021-08-03T09:58:15Z</time>
      </trkpt>
      <trkpt lat="45.52656" lon="6.7652">
        <ele>1816.1</ele>
        <time>2021-08-03T09:58:16Z</time>
      </trkpt>
      <trkpt lat="45.52656" lon="6.7652">
        <ele>1815.9</ele>
        <time>2021-08-03T09:58:17Z</time>
      </trkpt>
      <trkpt lat="45.52656" lon="6.76521">
        <ele>1815.8</ele>
        <time>2021-08-03T09:58:18Z</time>
      </trkpt>
      <trkpt lat="45.52656" lon="6.76521">
        <ele>1815.7</ele>
        <time>2021-08-03T09:58:19Z</time>
      </trkpt>
      <trkpt lat="45.52657" lon="6.76521">
        <ele>1815.5</ele>
        <time>2021-08-03T09:58:20Z</time>
      </trkpt>
      <trkpt lat="45.52657" lon="6.76522">
        <ele>1815.4</ele>
        <time>2021-08-03T09:58:21Z</time>
      </trkpt>
      <trkpt lat="45.52657" lon="6.76522">
        <ele>1815.3</ele>
        <time>2021-08-03T09:58:22Z</time>
      </trkpt>
      <trkpt lat="45.52657" lon="6.76522">
        <ele>1815.2</ele>
        <time>2021-08-03T09:58:23Z</time>
      </trkpt>
      <trkpt lat="45.52657" lon="6.76523">
        <ele>1815.1</ele>
        <time>2021-08-03T09:58:24Z</time>
      </trkpt>
      <trkpt lat="45.52657" lon="6.76523">
        <ele>1815</ele>
        <time>2021-08-03T09:58:25Z</time>
      </trkpt>
      <trkpt lat="45.52657" lon="6.76523">
        <ele>1814.9</ele>
        <time>2021-08-03T09:58:26Z</time>
      </trkpt>
      <trkpt lat="45.52658" lon="6.76523">
        <ele>1814.8</ele>
        <time>2021-08-03T09:58:27Z</time>
      </trkpt>
      <trkpt lat="45.52658" lon="6.76524">
        <ele>1814.7</ele>
        <time>2021-08-03T09:58:28Z</time>
      </trkpt>
      <trkpt lat="45.52658" lon="6.76524">
        <ele>1814.6</ele>
        <time>2021-08-03T09:58:29Z</time>
      </trkpt>
      <trkpt lat="45.52658" lon="6.76524">
        <ele>1814.4</ele>
        <time>2021-08-03T09:58:30Z</time>
      </trkpt>
      <trkpt lat="45.52659" lon="6.76524">
        <ele>1814.3</ele>
        <time>2021-08-03T09:58:31Z</time>
      </trkpt>
      <trkpt lat="45.52659" lon="6.76524">
        <ele>1814.1</ele>
        <time>2021-08-03T09:58:32Z</time>
      </trkpt>
      <trkpt lat="45.5266" lon="6.76524">
        <ele>1814</ele>
        <time>2021-08-03T09:58:33Z</time>
      </trkpt>
      <trkpt lat="45.5266" lon="6.76524">
        <ele>1813.8</ele>
        <time>2021-08-03T09:58:34Z</time>
      </trkpt>
      <trkpt lat="45.5266" lon="6.76524">
        <ele>1813.6</ele>
        <time>2021-08-03T09:58:35Z</time>
      </trkpt>
      <trkpt lat="45.52661" lon="6.76524">
        <ele>1813.4</ele>
        <time>2021-08-03T09:58:36Z</time>
      </trkpt>
      <trkpt lat="45.52661" lon="6.76524">
        <ele>1813.3</ele>
        <time>2021-08-03T09:58:37Z</time>
      </trkpt>
      <trkpt lat="45.52662" lon="6.76525">
        <ele>1813.1</ele>
        <time>2021-08-03T09:58:38Z</time>
      </trkpt>
      <trkpt lat="45.52662" lon="6.76525">
        <ele>1812.9</ele>
        <time>2021-08-03T09:58:39Z</time>
      </trkpt>
      <trkpt lat="45.52662" lon="6.76526">
        <ele>1812.6</ele>
        <time>2021-08-03T09:58:40Z</time>
      </trkpt>
      <trkpt lat="45.52662" lon="6.76527">
        <ele>1812.4</ele>
        <time>2021-08-03T09:58:41Z</time>
      </trkpt>
      <trkpt lat="45.52663" lon="6.76527">
        <ele>1812.1</ele>
        <time>2021-08-03T09:58:42Z</time>
      </trkpt>
      <trkpt lat="45.52663" lon="6.76528">
        <ele>1811.8</ele>
        <time>2021-08-03T09:58:43Z</time>
      </trkpt>
      <trkpt lat="45.52663" lon="6.76529">
        <ele>1811.5</ele>
        <time>2021-08-03T09:58:44Z</time>
      </trkpt>
      <trkpt lat="45.52663" lon="6.7653">
        <ele>1811.3</ele>
        <time>2021-08-03T09:58:45Z</time>
      </trkpt>
      <trkpt lat="45.52663" lon="6.76531">
        <ele>1811</ele>
        <time>2021-08-03T09:58:46Z</time>
      </trkpt>
      <trkpt lat="45.52663" lon="6.76532">
        <ele>1810.8</ele>
        <time>2021-08-03T09:58:47Z</time>
      </trkpt>
      <trkpt lat="45.52663" lon="6.76533">
        <ele>1810.6</ele>
        <time>2021-08-03T09:58:48Z</time>
      </trkpt>
      <trkpt lat="45.52663" lon="6.76534">
        <ele>1810.4</ele>
        <time>2021-08-03T09:58:49Z</time>
      </trkpt>
      <trkpt lat="45.52663" lon="6.76534">
        <ele>1810.3</ele>
        <time>2021-08-03T09:58:50Z</time>
      </trkpt>
      <trkpt lat="45.52664" lon="6.76534">
        <ele>1810.1</ele>
        <time>2021-08-03T09:58:51Z</time>
      </trkpt>
      <trkpt lat="45.52664" lon="6.76535">
        <ele>1810</ele>
        <time>2021-08-03T09:58:52Z</time>
      </trkpt>
      <trkpt lat="45.52664" lon="6.76535">
        <ele>1809.9</ele>
        <time>2021-08-03T09:58:53Z</time>
      </trkpt>
      <trkpt lat="45.52665" lon="6.76535">
        <ele>1809.7</ele>
        <time>2021-08-03T09:58:54Z</time>
      </trkpt>
      <trkpt lat="45.52665" lon="6.76536">
        <ele>1809.5</ele>
        <time>2021-08-03T09:58:55Z</time>
      </trkpt>
      <trkpt lat="45.52665" lon="6.76536">
        <ele>1809.4</ele>
        <time>2021-08-03T09:58:56Z</time>
      </trkpt>
      <trkpt lat="45.52666" lon="6.76537">
        <ele>1809.2</ele>
        <time>2021-08-03T09:58:57Z</time>
      </trkpt>
      <trkpt lat="45.52666" lon="6.76537">
        <ele>1809</ele>
        <time>2021-08-03T09:58:58Z</time>
      </trkpt>
      <trkpt lat="45.52666" lon="6.76538">
        <ele>1808.8</ele>
        <time>2021-08-03T09:58:59Z</time>
      </trkpt>
      <trkpt lat="45.52667" lon="6.76538">
        <ele>1808.6</ele>
        <time>2021-08-03T09:59:00Z</time>
      </trkpt>
      <trkpt lat="45.52667" lon="6.76539">
        <ele>1808.4</ele>
        <time>2021-08-03T09:59:01Z</time>
      </trkpt>
      <trkpt lat="45.52667" lon="6.76539">
        <ele>1808.3</ele>
        <time>2021-08-03T09:59:02Z</time>
      </trkpt>
      <trkpt lat="45.52667" lon="6.7654">
        <ele>1808.2</ele>
        <time>2021-08-03T09:59:03Z</time>
      </trkpt>
      <trkpt lat="45.52668" lon="6.7654">
        <ele>1808</ele>
        <time>2021-08-03T09:59:04Z</time>
      </trkpt>
      <trkpt lat="45.52668" lon="6.76541">
        <ele>1807.9</ele>
        <time>2021-08-03T09:59:05Z</time>
      </trkpt>
      <trkpt lat="45.52668" lon="6.76541">
        <ele>1807.8</ele>
        <time>2021-08-03T09:59:06Z</time>
      </trkpt>
      <trkpt lat="45.52668" lon="6.76541">
        <ele>1807.7</ele>
        <time>2021-08-03T09:59:07Z</time>
      </trkpt>
      <trkpt lat="45.52668" lon="6.76541">
        <ele>1807.6</ele>
        <time>2021-08-03T09:59:08Z</time>
      </trkpt>
      <trkpt lat="45.52668" lon="6.76542">
        <ele>1807.6</ele>
        <time>2021-08-03T09:59:09Z</time>
      </trkpt>
      <trkpt lat="45.52669" lon="6.76542">
        <ele>1807.5</ele>
        <time>2021-08-03T09:59:10Z</time>
      </trkpt>
      <trkpt lat="45.52669" lon="6.76542">
        <ele>1807.4</ele>
        <time>2021-08-03T09:59:11Z</time>
      </trkpt>
      <trkpt lat="45.52669" lon="6.76543">
        <ele>1807.4</ele>
        <time>2021-08-03T09:59:12Z</time>
      </trkpt>
      <trkpt lat="45.52669" lon="6.76543">
        <ele>1807.3</ele>
        <time>2021-08-03T09:59:13Z</time>
      </trkpt>
      <trkpt lat="45.52669" lon="6.76543">
        <ele>1807.2</ele>
        <time>2021-08-03T09:59:14Z</time>
      </trkpt>
      <trkpt lat="45.52669" lon="6.76543">
        <ele>1807.1</ele>
        <time>2021-08-03T09:59:15Z</time>
      </trkpt>
      <trkpt lat="45.52669" lon="6.76544">
        <ele>1807.1</ele>
        <time>2021-08-03T09:59:16Z</time>
      </trkpt>
      <trkpt lat="45.52669" lon="6.76544">
        <ele>1807</ele>
        <time>2021-08-03T09:59:17Z</time>
      </trkpt>
      <trkpt lat="45.52669" lon="6.76544">
        <ele>1806.9</ele>
        <time>2021-08-03T09:59:18Z</time>
      </trkpt>
      <trkpt lat="45.5267" lon="6.76544">
        <ele>1806.9</ele>
        <time>2021-08-03T09:59:19Z</time>
      </trkpt>
      <trkpt lat="45.5267" lon="6.76544">
        <ele>1806.9</ele>
        <time>2021-08-03T09:59:20Z</time>
      </trkpt>
      <trkpt lat="45.5267" lon="6.76545">
        <ele>1806.8</ele>
        <time>2021-08-03T09:59:21Z</time>
      </trkpt>
      <trkpt lat="45.5267" lon="6.76545">
        <ele>1806.8</ele>
        <time>2021-08-03T09:59:22Z</time>
      </trkpt>
      <trkpt lat="45.5267" lon="6.76545">
        <ele>1806.8</ele>
        <time>2021-08-03T09:59:23Z</time>
      </trkpt>
      <trkpt lat="45.5267" lon="6.76545">
        <ele>1806.8</ele>
        <time>2021-08-03T09:59:24Z</time>
      </trkpt>
      <trkpt lat="45.5267" lon="6.76545">
        <ele>1806.8</ele>
        <time>2021-08-03T09:59:25Z</time>
      </trkpt>
      <trkpt lat="45.5267" lon="6.76545">
        <ele>1806.8</ele>
        <time>2021-08-03T09:59:26Z</time>
      </trkpt>
      <trkpt lat="45.5267" lon="6.76545">
        <ele>1806.8</ele>
        <time>2021-08-03T09:59:27Z</time>
      </trkpt>
      <trkpt lat="45.5267" lon="6.76545">
        <ele>1806.8</ele>
        <time>2021-08-03T09:59:28Z</time>
      </trkpt>
      <trkpt lat="45.5267" lon="6.76545">
        <ele>1806.8</ele>
        <time>2021-08-03T09:59:29Z</time>
      </trkpt>
      <trkpt lat="45.5267" lon="6.76545">
        <ele>1806.8</ele>
        <time>2021-08-03T09:59:30Z</time>
      </trkpt>
      <trkpt lat="45.5267" lon="6.76545">
        <ele>1806.8</ele>
        <time>2021-08-03T09:59:31Z</time>
      </trkpt>
      <trkpt lat="45.5267" lon="6.76545">
        <ele>1806.8</ele>
        <time>2021-08-03T09:59:32Z</time>
      </trkpt>
      <trkpt lat="45.5267" lon="6.76545">
        <ele>1806.8</ele>
        <time>2021-08-03T09:59:33Z</time>
      </trkpt>
      <trkpt lat="45.5267" lon="6.76545">
        <ele>1806.7</ele>
        <time>2021-08-03T09:59:34Z</time>
      </trkpt>
      <trkpt lat="45.5267" lon="6.76545">
        <ele>1806.7</ele>
        <time>2021-08-03T09:59:35Z</time>
      </trkpt>
      <trkpt lat="45.5267" lon="6.76545">
        <ele>1806.7</ele>
        <time>2021-08-03T09:59:36Z</time>
      </trkpt>
      <trkpt lat="45.5267" lon="6.76545">
        <ele>1806.7</ele>
        <time>2021-08-03T09:59:37Z</time>
      </trkpt>
      <trkpt lat="45.5267" lon="6.76545">
        <ele>1806.7</ele>
        <time>2021-08-03T09:59:38Z</time>
      </trkpt>
      <trkpt lat="45.5267" lon="6.76545">
        <ele>1806.7</ele>
        <time>2021-08-03T09:59:39Z</time>
      </trkpt>
      <trkpt lat="45.5267" lon="6.76545">
        <ele>1806.7</ele>
        <time>2021-08-03T09:59:40Z</time>
      </trkpt>
      <trkpt lat="45.5267" lon="6.76545">
        <ele>1806.6</ele>
        <time>2021-08-03T09:59:41Z</time>
      </trkpt>
      <trkpt lat="45.5267" lon="6.76544">
        <ele>1806.6</ele>
        <time>2021-08-03T09:59:42Z</time>
      </trkpt>
      <trkpt lat="45.5267" lon="6.76544">
        <ele>1806.6</ele>
        <time>2021-08-03T09:59:43Z</time>
      </trkpt>
      <trkpt lat="45.5267" lon="6.76544">
        <ele>1806.5</ele>
        <time>2021-08-03T09:59:44Z</time>
      </trkpt>
      <trkpt lat="45.5267" lon="6.76544">
        <ele>1806.4</ele>
        <time>2021-08-03T09:59:45Z</time>
      </trkpt>
      <trkpt lat="45.5267" lon="6.76544">
        <ele>1806.4</ele>
        <time>2021-08-03T09:59:46Z</time>
      </trkpt>
      <trkpt lat="45.5267" lon="6.76544">
        <ele>1806.4</ele>
        <time>2021-08-03T09:59:47Z</time>
      </trkpt>
      <trkpt lat="45.5267" lon="6.76544">
        <ele>1806.4</ele>
        <time>2021-08-03T09:59:48Z</time>
      </trkpt>
      <trkpt lat="45.5267" lon="6.76544">
        <ele>1806.3</ele>
        <time>2021-08-03T09:59:49Z</time>
      </trkpt>
      <trkpt lat="45.5267" lon="6.76544">
        <ele>1806.3</ele>
        <time>2021-08-03T09:59:50Z</time>
      </trkpt>
      <trkpt lat="45.52669" lon="6.76544">
        <ele>1806.2</ele>
        <time>2021-08-03T09:59:51Z</time>
      </trkpt>
      <trkpt lat="45.52669" lon="6.76545">
        <ele>1806.1</ele>
        <time>2021-08-03T09:59:52Z</time>
      </trkpt>
      <trkpt lat="45.52669" lon="6.76546">
        <ele>1805.9</ele>
        <time>2021-08-03T09:59:53Z</time>
      </trkpt>
      <trkpt lat="45.52669" lon="6.76546">
        <ele>1805.8</ele>
        <time>2021-08-03T09:59:54Z</time>
      </trkpt>
      <trkpt lat="45.52669" lon="6.76547">
        <ele>1805.6</ele>
        <time>2021-08-03T09:59:55Z</time>
      </trkpt>
      <trkpt lat="45.52669" lon="6.76548">
        <ele>1805.4</ele>
        <time>2021-08-03T09:59:56Z</time>
      </trkpt>
      <trkpt lat="45.52668" lon="6.76549">
        <ele>1805.2</ele>
        <time>2021-08-03T09:59:57Z</time>
      </trkpt>
      <trkpt lat="45.52668" lon="6.7655">
        <ele>1805</ele>
        <time>2021-08-03T09:59:58Z</time>
      </trkpt>
      <trkpt lat="45.52668" lon="6.76551">
        <ele>1804.7</ele>
        <time>2021-08-03T09:59:59Z</time>
      </trkpt>
      <trkpt lat="45.52668" lon="6.76552">
        <ele>1804.5</ele>
        <time>2021-08-03T10:00:00Z</time>
      </trkpt>
      <trkpt lat="45.52667" lon="6.76553">
        <ele>1804.3</ele>
        <time>2021-08-03T10:00:01Z</time>
      </trkpt>
      <trkpt lat="45.52667" lon="6.76554">
        <ele>1804.1</ele>
        <time>2021-08-03T10:00:02Z</time>
      </trkpt>
      <trkpt lat="45.52667" lon="6.76555">
        <ele>1803.9</ele>
        <time>2021-08-03T10:00:03Z</time>
      </trkpt>
      <trkpt lat="45.52667" lon="6.76556">
        <ele>1803.7</ele>
        <time>2021-08-03T10:00:04Z</time>
      </trkpt>
      <trkpt lat="45.52666" lon="6.76556">
        <ele>1803.6</ele>
        <time>2021-08-03T10:00:05Z</time>
      </trkpt>
      <trkpt lat="45.52666" lon="6.76557">
        <ele>1803.4</ele>
        <time>2021-08-03T10:00:06Z</time>
      </trkpt>
      <trkpt lat="45.52666" lon="6.76558">
        <ele>1803.2</ele>
        <time>2021-08-03T10:00:07Z</time>
      </trkpt>
      <trkpt lat="45.52665" lon="6.76559">
        <ele>1803</ele>
        <time>2021-08-03T10:00:08Z</time>
      </trkpt>
      <trkpt lat="45.52665" lon="6.76559">
        <ele>1802.9</ele>
        <time>2021-08-03T10:00:09Z</time>
      </trkpt>
      <trkpt lat="45.52665" lon="6.7656">
        <ele>1802.8</ele>
        <time>2021-08-03T10:00:10Z</time>
      </trkpt>
      <trkpt lat="45.52665" lon="6.76561">
        <ele>1802.7</ele>
        <time>2021-08-03T10:00:11Z</time>
      </trkpt>
      <trkpt lat="45.52665" lon="6.76561">
        <ele>1802.5</ele>
        <time>2021-08-03T10:00:12Z</time>
      </trkpt>
      <trkpt lat="45.52664" lon="6.76562">
        <ele>1802.4</ele>
        <time>2021-08-03T10:00:13Z</time>
      </trkpt>
      <trkpt lat="45.52664" lon="6.76562">
        <ele>1802.3</ele>
        <time>2021-08-03T10:00:14Z</time>
      </trkpt>
      <trkpt lat="45.52664" lon="6.76563">
        <ele>1802.2</ele>
        <time>2021-08-03T10:00:15Z</time>
      </trkpt>
      <trkpt lat="45.52664" lon="6.76563">
        <ele>1802.1</ele>
        <time>2021-08-03T10:00:16Z</time>
      </trkpt>
      <trkpt lat="45.52664" lon="6.76564">
        <ele>1802</ele>
        <time>2021-08-03T10:00:17Z</time>
      </trkpt>
      <trkpt lat="45.52664" lon="6.76564">
        <ele>1801.8</ele>
        <time>2021-08-03T10:00:18Z</time>
      </trkpt>
      <trkpt lat="45.52663" lon="6.76565">
        <ele>1801.7</ele>
        <time>2021-08-03T10:00:19Z</time>
      </trkpt>
      <trkpt lat="45.52663" lon="6.76566">
        <ele>1801.6</ele>
        <time>2021-08-03T10:00:20Z</time>
      </trkpt>
      <trkpt lat="45.52663" lon="6.76566">
        <ele>1801.5</ele>
        <time>2021-08-03T10:00:21Z</time>
      </trkpt>
      <trkpt lat="45.52663" lon="6.76567">
        <ele>1801.4</ele>
        <time>2021-08-03T10:00:22Z</time>
      </trkpt>
      <trkpt lat="45.52663" lon="6.76567">
        <ele>1801.3</ele>
        <time>2021-08-03T10:00:23Z</time>
      </trkpt>
      <trkpt lat="45.52663" lon="6.76568">
        <ele>1801.1</ele>
        <time>2021-08-03T10:00:24Z</time>
      </trkpt>
      <trkpt lat="45.52662" lon="6.76568">
        <ele>1801</ele>
        <time>2021-08-03T10:00:25Z</time>
      </trkpt>
      <trkpt lat="45.52662" lon="6.76569">
        <ele>1800.9</ele>
        <time>2021-08-03T10:00:26Z</time>
      </trkpt>
      <trkpt lat="45.52662" lon="6.76569">
        <ele>1800.8</ele>
        <time>2021-08-03T10:00:27Z</time>
      </trkpt>
      <trkpt lat="45.52662" lon="6.7657">
        <ele>1800.7</ele>
        <time>2021-08-03T10:00:28Z</time>
      </trkpt>
      <trkpt lat="45.52662" lon="6.7657">
        <ele>1800.6</ele>
        <time>2021-08-03T10:00:29Z</time>
      </trkpt>
      <trkpt lat="45.52662" lon="6.76571">
        <ele>1800.4</ele>
        <time>2021-08-03T10:00:30Z</time>
      </trkpt>
      <trkpt lat="45.52661" lon="6.76572">
        <ele>1800.3</ele>
        <time>2021-08-03T10:00:31Z</time>
      </trkpt>
      <trkpt lat="45.52661" lon="6.76572">
        <ele>1800.2</ele>
        <time>2021-08-03T10:00:32Z</time>
      </trkpt>
      <trkpt lat="45.52661" lon="6.76573">
        <ele>1800.1</ele>
        <time>2021-08-03T10:00:33Z</time>
      </trkpt>
      <trkpt lat="45.52661" lon="6.76573">
        <ele>1800</ele>
        <time>2021-08-03T10:00:34Z</time>
      </trkpt>
      <trkpt lat="45.52661" lon="6.76574">
        <ele>1799.9</ele>
        <time>2021-08-03T10:00:35Z</time>
      </trkpt>
      <trkpt lat="45.5266" lon="6.76574">
        <ele>1799.8</ele>
        <time>2021-08-03T10:00:36Z</time>
      </trkpt>
      <trkpt lat="45.5266" lon="6.76575">
        <ele>1799.7</ele>
        <time>2021-08-03T10:00:37Z</time>
      </trkpt>
      <trkpt lat="45.5266" lon="6.76575">
        <ele>1799.5</ele>
        <time>2021-08-03T10:00:38Z</time>
      </trkpt>
      <trkpt lat="45.5266" lon="6.76576">
        <ele>1799.4</ele>
        <time>2021-08-03T10:00:39Z</time>
      </trkpt>
      <trkpt lat="45.5266" lon="6.76577">
        <ele>1799.3</ele>
        <time>2021-08-03T10:00:40Z</time>
      </trkpt>
      <trkpt lat="45.5266" lon="6.76577">
        <ele>1799.2</ele>
        <time>2021-08-03T10:00:41Z</time>
      </trkpt>
      <trkpt lat="45.52659" lon="6.76578">
        <ele>1799.1</ele>
        <time>2021-08-03T10:00:42Z</time>
      </trkpt>
      <trkpt lat="45.52659" lon="6.76579">
        <ele>1798.9</ele>
        <time>2021-08-03T10:00:43Z</time>
      </trkpt>
      <trkpt lat="45.52659" lon="6.76579">
        <ele>1798.7</ele>
        <time>2021-08-03T10:00:44Z</time>
      </trkpt>
      <trkpt lat="45.52658" lon="6.76579">
        <ele>1798.6</ele>
        <time>2021-08-03T10:00:45Z</time>
      </trkpt>
      <trkpt lat="45.52658" lon="6.76579">
        <ele>1798.5</ele>
        <time>2021-08-03T10:00:46Z</time>
      </trkpt>
      <trkpt lat="45.52657" lon="6.76579">
        <ele>1798.3</ele>
        <time>2021-08-03T10:00:47Z</time>
      </trkpt>
      <trkpt lat="45.52657" lon="6.76579">
        <ele>1798.2</ele>
        <time>2021-08-03T10:00:48Z</time>
      </trkpt>
      <trkpt lat="45.52656" lon="6.76579">
        <ele>1798</ele>
        <time>2021-08-03T10:00:49Z</time>
      </trkpt>
      <trkpt lat="45.52656" lon="6.76579">
        <ele>1797.9</ele>
        <time>2021-08-03T10:00:50Z</time>
      </trkpt>
      <trkpt lat="45.52655" lon="6.76579">
        <ele>1797.7</ele>
        <time>2021-08-03T10:00:51Z</time>
      </trkpt>
      <trkpt lat="45.52655" lon="6.76579">
        <ele>1797.6</ele>
        <time>2021-08-03T10:00:52Z</time>
      </trkpt>
      <trkpt lat="45.52654" lon="6.76579">
        <ele>1797.5</ele>
        <time>2021-08-03T10:00:53Z</time>
      </trkpt>
      <trkpt lat="45.52654" lon="6.76579">
        <ele>1797.3</ele>
        <time>2021-08-03T10:00:54Z</time>
      </trkpt>
      <trkpt lat="45.52653" lon="6.76579">
        <ele>1797.2</ele>
        <time>2021-08-03T10:00:55Z</time>
      </trkpt>
      <trkpt lat="45.52652" lon="6.76579">
        <ele>1797</ele>
        <time>2021-08-03T10:00:56Z</time>
      </trkpt>
      <trkpt lat="45.52652" lon="6.76579">
        <ele>1796.9</ele>
        <time>2021-08-03T10:00:57Z</time>
      </trkpt>
      <trkpt lat="45.52651" lon="6.76579">
        <ele>1796.7</ele>
        <time>2021-08-03T10:00:58Z</time>
      </trkpt>
      <trkpt lat="45.52651" lon="6.76579">
        <ele>1796.6</ele>
        <time>2021-08-03T10:00:59Z</time>
      </trkpt>
      <trkpt lat="45.5265" lon="6.76579">
        <ele>1796.4</ele>
        <time>2021-08-03T10:01:00Z</time>
      </trkpt>
      <trkpt lat="45.5265" lon="6.76579">
        <ele>1796.3</ele>
        <time>2021-08-03T10:01:01Z</time>
      </trkpt>
      <trkpt lat="45.52649" lon="6.76579">
        <ele>1796.1</ele>
        <time>2021-08-03T10:01:02Z</time>
      </trkpt>
      <trkpt lat="45.52649" lon="6.76579">
        <ele>1796</ele>
        <time>2021-08-03T10:01:03Z</time>
      </trkpt>
      <trkpt lat="45.52648" lon="6.76578">
        <ele>1795.8</ele>
        <time>2021-08-03T10:01:04Z</time>
      </trkpt>
      <trkpt lat="45.52648" lon="6.76578">
        <ele>1795.7</ele>
        <time>2021-08-03T10:01:05Z</time>
      </trkpt>
      <trkpt lat="45.52647" lon="6.76579">
        <ele>1795.5</ele>
        <time>2021-08-03T10:01:06Z</time>
      </trkpt>
      <trkpt lat="45.52647" lon="6.76579">
        <ele>1795.4</ele>
        <time>2021-08-03T10:01:07Z</time>
      </trkpt>
      <trkpt lat="45.52646" lon="6.76579">
        <ele>1795.2</ele>
        <time>2021-08-03T10:01:08Z</time>
      </trkpt>
      <trkpt lat="45.52646" lon="6.76579">
        <ele>1795.1</ele>
        <time>2021-08-03T10:01:09Z</time>
      </trkpt>
      <trkpt lat="45.52645" lon="6.76579">
        <ele>1795</ele>
        <time>2021-08-03T10:01:10Z</time>
      </trkpt>
      <trkpt lat="45.52645" lon="6.76579">
        <ele>1794.9</ele>
        <time>2021-08-03T10:01:11Z</time>
      </trkpt>
      <trkpt lat="45.52645" lon="6.76579">
        <ele>1794.8</ele>
        <time>2021-08-03T10:01:12Z</time>
      </trkpt>
      <trkpt lat="45.52645" lon="6.7658">
        <ele>1794.8</ele>
        <time>2021-08-03T10:01:13Z</time>
      </trkpt>
      <trkpt lat="45.52645" lon="6.7658">
        <ele>1794.7</ele>
        <time>2021-08-03T10:01:14Z</time>
      </trkpt>
      <trkpt lat="45.52645" lon="6.76581">
        <ele>1794.6</ele>
        <time>2021-08-03T10:01:15Z</time>
      </trkpt>
      <trkpt lat="45.52645" lon="6.76581">
        <ele>1794.5</ele>
        <time>2021-08-03T10:01:16Z</time>
      </trkpt>
      <trkpt lat="45.52645" lon="6.76581">
        <ele>1794.4</ele>
        <time>2021-08-03T10:01:17Z</time>
      </trkpt>
      <trkpt lat="45.52645" lon="6.76582">
        <ele>1794.3</ele>
        <time>2021-08-03T10:01:18Z</time>
      </trkpt>
      <trkpt lat="45.52645" lon="6.76582">
        <ele>1794.2</ele>
        <time>2021-08-03T10:01:19Z</time>
      </trkpt>
      <trkpt lat="45.52646" lon="6.76583">
        <ele>1794</ele>
        <time>2021-08-03T10:01:20Z</time>
      </trkpt>
      <trkpt lat="45.52646" lon="6.76583">
        <ele>1793.9</ele>
        <time>2021-08-03T10:01:21Z</time>
      </trkpt>
      <trkpt lat="45.52646" lon="6.76584">
        <ele>1793.8</ele>
        <time>2021-08-03T10:01:22Z</time>
      </trkpt>
      <trkpt lat="45.52646" lon="6.76584">
        <ele>1793.6</ele>
        <time>2021-08-03T10:01:23Z</time>
      </trkpt>
      <trkpt lat="45.52646" lon="6.76585">
        <ele>1793.5</ele>
        <time>2021-08-03T10:01:24Z</time>
      </trkpt>
      <trkpt lat="45.52647" lon="6.76585">
        <ele>1793.4</ele>
        <time>2021-08-03T10:01:25Z</time>
      </trkpt>
      <trkpt lat="45.52647" lon="6.76586">
        <ele>1793.2</ele>
        <time>2021-08-03T10:01:26Z</time>
      </trkpt>
      <trkpt lat="45.52647" lon="6.76586">
        <ele>1793.1</ele>
        <time>2021-08-03T10:01:27Z</time>
      </trkpt>
      <trkpt lat="45.52647" lon="6.76587">
        <ele>1793</ele>
        <time>2021-08-03T10:01:28Z</time>
      </trkpt>
      <trkpt lat="45.52647" lon="6.76587">
        <ele>1792.8</ele>
        <time>2021-08-03T10:01:29Z</time>
      </trkpt>
      <trkpt lat="45.52648" lon="6.76588">
        <ele>1792.7</ele>
        <time>2021-08-03T10:01:30Z</time>
      </trkpt>
      <trkpt lat="45.52648" lon="6.76588">
        <ele>1792.6</ele>
        <time>2021-08-03T10:01:31Z</time>
      </trkpt>
      <trkpt lat="45.52648" lon="6.76588">
        <ele>1792.5</ele>
        <time>2021-08-03T10:01:32Z</time>
      </trkpt>
      <trkpt lat="45.52648" lon="6.76589">
        <ele>1792.4</ele>
        <time>2021-08-03T10:01:33Z</time>
      </trkpt>
      <trkpt lat="45.52648" lon="6.76589">
        <ele>1792.3</ele>
        <time>2021-08-03T10:01:34Z</time>
      </trkpt>
      <trkpt lat="45.52648" lon="6.7659">
        <ele>1792.2</ele>
        <time>2021-08-03T10:01:35Z</time>
      </trkpt>
      <trkpt lat="45.52648" lon="6.7659">
        <ele>1792.1</ele>
        <time>2021-08-03T10:01:36Z</time>
      </trkpt>
      <trkpt lat="45.52648" lon="6.7659">
        <ele>1792</ele>
        <time>2021-08-03T10:01:37Z</time>
      </trkpt>
      <trkpt lat="45.52648" lon="6.76591">
        <ele>1791.9</ele>
        <time>2021-08-03T10:01:38Z</time>
      </trkpt>
      <trkpt lat="45.52649" lon="6.76591">
        <ele>1791.8</ele>
        <time>2021-08-03T10:01:39Z</time>
      </trkpt>
      <trkpt lat="45.52649" lon="6.76591">
        <ele>1791.7</ele>
        <time>2021-08-03T10:01:40Z</time>
      </trkpt>
      <trkpt lat="45.52649" lon="6.76592">
        <ele>1791.7</ele>
        <time>2021-08-03T10:01:41Z</time>
      </trkpt>
      <trkpt lat="45.52649" lon="6.76592">
        <ele>1791.6</ele>
        <time>2021-08-03T10:01:42Z</time>
      </trkpt>
      <trkpt lat="45.52649" lon="6.76592">
        <ele>1791.5</ele>
        <time>2021-08-03T10:01:43Z</time>
      </trkpt>
      <trkpt lat="45.52649" lon="6.76593">
        <ele>1791.4</ele>
        <time>2021-08-03T10:01:44Z</time>
      </trkpt>
      <trkpt lat="45.52649" lon="6.76593">
        <ele>1791.4</ele>
        <time>2021-08-03T10:01:45Z</time>
      </trkpt>
      <trkpt lat="45.52649" lon="6.76593">
        <ele>1791.3</ele>
        <time>2021-08-03T10:01:46Z</time>
      </trkpt>
      <trkpt lat="45.52649" lon="6.76593">
        <ele>1791.2</ele>
        <time>2021-08-03T10:01:47Z</time>
      </trkpt>
      <trkpt lat="45.52649" lon="6.76594">
        <ele>1791.2</ele>
        <time>2021-08-03T10:01:48Z</time>
      </trkpt>
      <trkpt lat="45.52649" lon="6.76594">
        <ele>1791.1</ele>
        <time>2021-08-03T10:01:49Z</time>
      </trkpt>
      <trkpt lat="45.52649" lon="6.76594">
        <ele>1791.1</ele>
        <time>2021-08-03T10:01:50Z</time>
      </trkpt>
      <trkpt lat="45.52649" lon="6.76594">
        <ele>1791</ele>
        <time>2021-08-03T10:01:51Z</time>
      </trkpt>
      <trkpt lat="45.52649" lon="6.76594">
        <ele>1791</ele>
        <time>2021-08-03T10:01:52Z</time>
      </trkpt>
      <trkpt lat="45.52649" lon="6.76595">
        <ele>1790.9</ele>
        <time>2021-08-03T10:01:53Z</time>
      </trkpt>
      <trkpt lat="45.52649" lon="6.76595">
        <ele>1790.9</ele>
        <time>2021-08-03T10:01:54Z</time>
      </trkpt>
      <trkpt lat="45.52649" lon="6.76595">
        <ele>1790.8</ele>
        <time>2021-08-03T10:01:55Z</time>
      </trkpt>
      <trkpt lat="45.52649" lon="6.76595">
        <ele>1790.8</ele>
        <time>2021-08-03T10:01:56Z</time>
      </trkpt>
      <trkpt lat="45.52649" lon="6.76595">
        <ele>1790.8</ele>
        <time>2021-08-03T10:01:57Z</time>
      </trkpt>
      <trkpt lat="45.52649" lon="6.76595">
        <ele>1790.7</ele>
        <time>2021-08-03T10:01:58Z</time>
      </trkpt>
      <trkpt lat="45.52649" lon="6.76595">
        <ele>1790.7</ele>
        <time>2021-08-03T10:01:59Z</time>
      </trkpt>
      <trkpt lat="45.52649" lon="6.76595">
        <ele>1790.7</ele>
        <time>2021-08-03T10:02:00Z</time>
      </trkpt>
      <trkpt lat="45.52649" lon="6.76596">
        <ele>1790.7</ele>
        <time>2021-08-03T10:02:01Z</time>
      </trkpt>
      <trkpt lat="45.52649" lon="6.76596">
        <ele>1790.6</ele>
        <time>2021-08-03T10:02:02Z</time>
      </trkpt>
      <trkpt lat="45.52649" lon="6.76596">
        <ele>1790.6</ele>
        <time>2021-08-03T10:02:03Z</time>
      </trkpt>
      <trkpt lat="45.52649" lon="6.76596">
        <ele>1790.6</ele>
        <time>2021-08-03T10:02:04Z</time>
      </trkpt>
      <trkpt lat="45.52649" lon="6.76596">
        <ele>1790.6</ele>
        <time>2021-08-03T10:02:05Z</time>
      </trkpt>
      <trkpt lat="45.52649" lon="6.76596">
        <ele>1790.6</ele>
        <time>2021-08-03T10:02:06Z</time>
      </trkpt>
      <trkpt lat="45.52649" lon="6.76596">
        <ele>1790.5</ele>
        <time>2021-08-03T10:02:07Z</time>
      </trkpt>
      <trkpt lat="45.52649" lon="6.76596">
        <ele>1790.5</ele>
        <time>2021-08-03T10:02:08Z</time>
      </trkpt>
      <trkpt lat="45.52649" lon="6.76596">
        <ele>1790.5</ele>
        <time>2021-08-03T10:02:09Z</time>
      </trkpt>
      <trkpt lat="45.52649" lon="6.76596">
        <ele>1790.5</ele>
        <time>2021-08-03T10:02:10Z</time>
      </trkpt>
      <trkpt lat="45.52649" lon="6.76596">
        <ele>1790.5</ele>
        <time>2021-08-03T10:02:11Z</time>
      </trkpt>
      <trkpt lat="45.52649" lon="6.76596">
        <ele>1790.5</ele>
        <time>2021-08-03T10:02:12Z</time>
      </trkpt>
      <trkpt lat="45.52649" lon="6.76596">
        <ele>1790.5</ele>
        <time>2021-08-03T10:02:13Z</time>
      </trkpt>
      <trkpt lat="45.52649" lon="6.76596">
        <ele>1790.5</ele>
        <time>2021-08-03T10:02:14Z</time>
      </trkpt>
      <trkpt lat="45.52649" lon="6.76596">
        <ele>1790.5</ele>
        <time>2021-08-03T10:02:15Z</time>
      </trkpt>
      <trkpt lat="45.52649" lon="6.76596">
        <ele>1790.5</ele>
        <time>2021-08-03T10:02:16Z</time>
      </trkpt>
      <trkpt lat="45.52649" lon="6.76596">
        <ele>1790.5</ele>
        <time>2021-08-03T10:02:17Z</time>
      </trkpt>
      <trkpt lat="45.52649" lon="6.76596">
        <ele>1790.5</ele>
        <time>2021-08-03T10:02:18Z</time>
      </trkpt>
      <trkpt lat="45.52649" lon="6.76596">
        <ele>1790.5</ele>
        <time>2021-08-03T10:02:19Z</time>
      </trkpt>
      <trkpt lat="45.52649" lon="6.76596">
        <ele>1790.5</ele>
        <time>2021-08-03T10:02:20Z</time>
      </trkpt>
      <trkpt lat="45.52649" lon="6.76596">
        <ele>1790.4</ele>
        <time>2021-08-03T10:02:21Z</time>
      </trkpt>
      <trkpt lat="45.52649" lon="6.76596">
        <ele>1790.4</ele>
        <time>2021-08-03T10:02:22Z</time>
      </trkpt>
      <trkpt lat="45.52649" lon="6.76596">
        <ele>1790.4</ele>
        <time>2021-08-03T10:02:23Z</time>
      </trkpt>
      <trkpt lat="45.52649" lon="6.76596">
        <ele>1790.4</ele>
        <time>2021-08-03T10:02:24Z</time>
      </trkpt>
      <trkpt lat="45.52649" lon="6.76596">
        <ele>1790.4</ele>
        <time>2021-08-03T10:02:25Z</time>
      </trkpt>
      <trkpt lat="45.52649" lon="6.76596">
        <ele>1790.4</ele>
        <time>2021-08-03T10:02:26Z</time>
      </trkpt>
      <trkpt lat="45.52649" lon="6.76596">
        <ele>1790.4</ele>
        <time>2021-08-03T10:02:27Z</time>
      </trkpt>
      <trkpt lat="45.52649" lon="6.76596">
        <ele>1790.4</ele>
        <time>2021-08-03T10:02:28Z</time>
      </trkpt>
      <trkpt lat="45.52649" lon="6.76596">
        <ele>1790.4</ele>
        <time>2021-08-03T10:02:29Z</time>
      </trkpt>
      <trkpt lat="45.52649" lon="6.76596">
        <ele>1790.4</ele>
        <time>2021-08-03T10:02:30Z</time>
      </trkpt>
      <trkpt lat="45.52649" lon="6.76596">
        <ele>1790.4</ele>
        <time>2021-08-03T10:02:31Z</time>
      </trkpt>
      <trkpt lat="45.52649" lon="6.76596">
        <ele>1790.4</ele>
        <time>2021-08-03T10:02:32Z</time>
      </trkpt>
      <trkpt lat="45.52649" lon="6.76596">
        <ele>1790.4</ele>
        <time>2021-08-03T10:02:33Z</time>
      </trkpt>
      <trkpt lat="45.52649" lon="6.76596">
        <ele>1790.4</ele>
        <time>2021-08-03T10:02:34Z</time>
      </trkpt>
      <trkpt lat="45.52649" lon="6.76596">
        <ele>1790.4</ele>
        <time>2021-08-03T10:02:35Z</time>
      </trkpt>
      <trkpt lat="45.52649" lon="6.76596">
        <ele>1790.4</ele>
        <time>2021-08-03T10:02:36Z</time>
      </trkpt>
      <trkpt lat="45.52649" lon="6.76596">
        <ele>1790.4</ele>
        <time>2021-08-03T10:02:37Z</time>
      </trkpt>
      <trkpt lat="45.52649" lon="6.76596">
        <ele>1790.4</ele>
        <time>2021-08-03T10:02:38Z</time>
      </trkpt>
      <trkpt lat="45.52649" lon="6.76596">
        <ele>1790.4</ele>
        <time>2021-08-03T10:02:39Z</time>
      </trkpt>
      <trkpt lat="45.52649" lon="6.76596">
        <ele>1790.4</ele>
        <time>2021-08-03T10:02:40Z</time>
      </trkpt>
      <trkpt lat="45.52649" lon="6.76596">
        <ele>1790.4</ele>
        <time>2021-08-03T10:02:41Z</time>
      </trkpt>
      <trkpt lat="45.52649" lon="6.76596">
        <ele>1790.4</ele>
        <time>2021-08-03T10:02:42Z</time>
      </trkpt>
      <trkpt lat="45.52649" lon="6.76596">
        <ele>1790.4</ele>
        <time>2021-08-03T10:02:43Z</time>
      </trkpt>
      <trkpt lat="45.52649" lon="6.76596">
        <ele>1790.4</ele>
        <time>2021-08-03T10:02:44Z</time>
      </trkpt>
      <trkpt lat="45.52649" lon="6.76596">
        <ele>1790.4</ele>
        <time>2021-08-03T10:02:45Z</time>
      </trkpt>
      <trkpt lat="45.52649" lon="6.76596">
        <ele>1790.4</ele>
        <time>2021-08-03T10:02:46Z</time>
      </trkpt>
      <trkpt lat="45.52649" lon="6.76596">
        <ele>1790.3</ele>
        <time>2021-08-03T10:02:47Z</time>
      </trkpt>
      <trkpt lat="45.52649" lon="6.76596">
        <ele>1790.3</ele>
        <time>2021-08-03T10:02:48Z</time>
      </trkpt>
      <trkpt lat="45.52649" lon="6.76596">
        <ele>1790.3</ele>
        <time>2021-08-03T10:02:49Z</time>
      </trkpt>
      <trkpt lat="45.52649" lon="6.76596">
        <ele>1790.3</ele>
        <time>2021-08-03T10:02:50Z</time>
      </trkpt>
      <trkpt lat="45.52649" lon="6.76596">
        <ele>1790.3</ele>
        <time>2021-08-03T10:02:51Z</time>
      </trkpt>
      <trkpt lat="45.52649" lon="6.76596">
        <ele>1790.3</ele>
        <time>2021-08-03T10:02:52Z</time>
      </trkpt>
      <trkpt lat="45.52649" lon="6.76596">
        <ele>1790.3</ele>
        <time>2021-08-03T10:02:53Z</time>
      </trkpt>
      <trkpt lat="45.52649" lon="6.76596">
        <ele>1790.3</ele>
        <time>2021-08-03T10:02:54Z</time>
      </trkpt>
      <trkpt lat="45.52649" lon="6.76596">
        <ele>1790.2</ele>
        <time>2021-08-03T10:02:55Z</time>
      </trkpt>
      <trkpt lat="45.52649" lon="6.76596">
        <ele>1790.2</ele>
        <time>2021-08-03T10:02:56Z</time>
      </trkpt>
      <trkpt lat="45.52649" lon="6.76596">
        <ele>1790.2</ele>
        <time>2021-08-03T10:02:57Z</time>
      </trkpt>
      <trkpt lat="45.52649" lon="6.76596">
        <ele>1790.2</ele>
        <time>2021-08-03T10:02:58Z</time>
      </trkpt>
      <trkpt lat="45.52649" lon="6.76597">
        <ele>1790.2</ele>
        <time>2021-08-03T10:02:59Z</time>
      </trkpt>
      <trkpt lat="45.52649" lon="6.76597">
        <ele>1790.1</ele>
        <time>2021-08-03T10:03:00Z</time>
      </trkpt>
      <trkpt lat="45.52649" lon="6.76597">
        <ele>1790.1</ele>
        <time>2021-08-03T10:03:01Z</time>
      </trkpt>
      <trkpt lat="45.52649" lon="6.76597">
        <ele>1790</ele>
        <time>2021-08-03T10:03:02Z</time>
      </trkpt>
      <trkpt lat="45.52649" lon="6.76597">
        <ele>1790</ele>
        <time>2021-08-03T10:03:03Z</time>
      </trkpt>
      <trkpt lat="45.52649" lon="6.76597">
        <ele>1790</ele>
        <time>2021-08-03T10:03:04Z</time>
      </trkpt>
      <trkpt lat="45.52649" lon="6.76597">
        <ele>1789.9</ele>
        <time>2021-08-03T10:03:05Z</time>
      </trkpt>
      <trkpt lat="45.5265" lon="6.76598">
        <ele>1789.8</ele>
        <time>2021-08-03T10:03:06Z</time>
      </trkpt>
      <trkpt lat="45.5265" lon="6.76598">
        <ele>1789.8</ele>
        <time>2021-08-03T10:03:07Z</time>
      </trkpt>
      <trkpt lat="45.5265" lon="6.76598">
        <ele>1789.7</ele>
        <time>2021-08-03T10:03:08Z</time>
      </trkpt>
      <trkpt lat="45.5265" lon="6.76599">
        <ele>1789.6</ele>
        <time>2021-08-03T10:03:09Z</time>
      </trkpt>
      <trkpt lat="45.5265" lon="6.76599">
        <ele>1789.5</ele>
        <time>2021-08-03T10:03:10Z</time>
      </trkpt>
      <trkpt lat="45.5265" lon="6.76599">
        <ele>1789.4</ele>
        <time>2021-08-03T10:03:11Z</time>
      </trkpt>
      <trkpt lat="45.5265" lon="6.766">
        <ele>1789.2</ele>
        <time>2021-08-03T10:03:12Z</time>
      </trkpt>
      <trkpt lat="45.5265" lon="6.766">
        <ele>1789.1</ele>
        <time>2021-08-03T10:03:13Z</time>
      </trkpt>
      <trkpt lat="45.52651" lon="6.76601">
        <ele>1788.9</ele>
        <time>2021-08-03T10:03:14Z</time>
      </trkpt>
      <trkpt lat="45.52651" lon="6.76602">
        <ele>1788.8</ele>
        <time>2021-08-03T10:03:15Z</time>
      </trkpt>
      <trkpt lat="45.52651" lon="6.76602">
        <ele>1788.6</ele>
        <time>2021-08-03T10:03:16Z</time>
      </trkpt>
      <trkpt lat="45.52651" lon="6.76603">
        <ele>1788.3</ele>
        <time>2021-08-03T10:03:17Z</time>
      </trkpt>
      <trkpt lat="45.52652" lon="6.76604">
        <ele>1788.1</ele>
        <time>2021-08-03T10:03:18Z</time>
      </trkpt>
      <trkpt lat="45.52652" lon="6.76605">
        <ele>1787.9</ele>
        <time>2021-08-03T10:03:19Z</time>
      </trkpt>
      <trkpt lat="45.52652" lon="6.76605">
        <ele>1787.6</ele>
        <time>2021-08-03T10:03:20Z</time>
      </trkpt>
      <trkpt lat="45.52653" lon="6.76606">
        <ele>1787.4</ele>
        <time>2021-08-03T10:03:21Z</time>
      </trkpt>
      <trkpt lat="45.52653" lon="6.76607">
        <ele>1787.2</ele>
        <time>2021-08-03T10:03:22Z</time>
      </trkpt>
      <trkpt lat="45.52653" lon="6.76608">
        <ele>1786.9</ele>
        <time>2021-08-03T10:03:23Z</time>
      </trkpt>
      <trkpt lat="45.52654" lon="6.76609">
        <ele>1786.6</ele>
        <time>2021-08-03T10:03:24Z</time>
      </trkpt>
      <trkpt lat="45.52654" lon="6.76609">
        <ele>1786.4</ele>
        <time>2021-08-03T10:03:25Z</time>
      </trkpt>
      <trkpt lat="45.52654" lon="6.7661">
        <ele>1786.1</ele>
        <time>2021-08-03T10:03:26Z</time>
      </trkpt>
      <trkpt lat="45.52655" lon="6.76611">
        <ele>1785.9</ele>
        <time>2021-08-03T10:03:27Z</time>
      </trkpt>
      <trkpt lat="45.52655" lon="6.76612">
        <ele>1785.7</ele>
        <time>2021-08-03T10:03:28Z</time>
      </trkpt>
      <trkpt lat="45.52655" lon="6.76612">
        <ele>1785.5</ele>
        <time>2021-08-03T10:03:29Z</time>
      </trkpt>
      <trkpt lat="45.52655" lon="6.76613">
        <ele>1785.3</ele>
        <time>2021-08-03T10:03:30Z</time>
      </trkpt>
      <trkpt lat="45.52656" lon="6.76613">
        <ele>1785.1</ele>
        <time>2021-08-03T10:03:31Z</time>
      </trkpt>
      <trkpt lat="45.52656" lon="6.76614">
        <ele>1785</ele>
        <time>2021-08-03T10:03:32Z</time>
      </trkpt>
      <trkpt lat="45.52656" lon="6.76614">
        <ele>1784.9</ele>
        <time>2021-08-03T10:03:33Z</time>
      </trkpt>
      <trkpt lat="45.52656" lon="6.76614">
        <ele>1784.8</ele>
        <time>2021-08-03T10:03:34Z</time>
      </trkpt>
      <trkpt lat="45.52656" lon="6.76615">
        <ele>1784.7</ele>
        <time>2021-08-03T10:03:35Z</time>
      </trkpt>
      <trkpt lat="45.52656" lon="6.76615">
        <ele>1784.6</ele>
        <time>2021-08-03T10:03:36Z</time>
      </trkpt>
      <trkpt lat="45.52656" lon="6.76615">
        <ele>1784.5</ele>
        <time>2021-08-03T10:03:37Z</time>
      </trkpt>
      <trkpt lat="45.52657" lon="6.76615">
        <ele>1784.5</ele>
        <time>2021-08-03T10:03:38Z</time>
      </trkpt>
      <trkpt lat="45.52657" lon="6.76615">
        <ele>1784.4</ele>
        <time>2021-08-03T10:03:39Z</time>
      </trkpt>
      <trkpt lat="45.52657" lon="6.76615">
        <ele>1784.4</ele>
        <time>2021-08-03T10:03:40Z</time>
      </trkpt>
      <trkpt lat="45.52657" lon="6.76615">
        <ele>1784.4</ele>
        <time>2021-08-03T10:03:41Z</time>
      </trkpt>
      <trkpt lat="45.52657" lon="6.76615">
        <ele>1784.4</ele>
        <time>2021-08-03T10:03:42Z</time>
      </trkpt>
      <trkpt lat="45.52657" lon="6.76615">
        <ele>1784.4</ele>
        <time>2021-08-03T10:03:43Z</time>
      </trkpt>
      <trkpt lat="45.52657" lon="6.76615">
        <ele>1784.3</ele>
        <time>2021-08-03T10:03:44Z</time>
      </trkpt>
      <trkpt lat="45.52657" lon="6.76615">
        <ele>1784.3</ele>
        <time>2021-08-03T10:03:45Z</time>
      </trkpt>
      <trkpt lat="45.52657" lon="6.76615">
        <ele>1784.3</ele>
        <time>2021-08-03T10:03:46Z</time>
      </trkpt>
      <trkpt lat="45.52657" lon="6.76615">
        <ele>1784.2</ele>
        <time>2021-08-03T10:03:47Z</time>
      </trkpt>
      <trkpt lat="45.52657" lon="6.76615">
        <ele>1784.2</ele>
        <time>2021-08-03T10:03:48Z</time>
      </trkpt>
      <trkpt lat="45.52657" lon="6.76615">
        <ele>1784.2</ele>
        <time>2021-08-03T10:03:49Z</time>
      </trkpt>
      <trkpt lat="45.52657" lon="6.76615">
        <ele>1784.2</ele>
        <time>2021-08-03T10:03:50Z</time>
      </trkpt>
      <trkpt lat="45.52657" lon="6.76615">
        <ele>1784.2</ele>
        <time>2021-08-03T10:03:51Z</time>
      </trkpt>
      <trkpt lat="45.52657" lon="6.76615">
        <ele>1784.2</ele>
        <time>2021-08-03T10:03:52Z</time>
      </trkpt>
      <trkpt lat="45.52657" lon="6.76615">
        <ele>1784.1</ele>
        <time>2021-08-03T10:03:53Z</time>
      </trkpt>
      <trkpt lat="45.52657" lon="6.76615">
        <ele>1784.1</ele>
        <time>2021-08-03T10:03:54Z</time>
      </trkpt>
      <trkpt lat="45.52657" lon="6.76615">
        <ele>1784.1</ele>
        <time>2021-08-03T10:03:55Z</time>
      </trkpt>
      <trkpt lat="45.52657" lon="6.76615">
        <ele>1784.1</ele>
        <time>2021-08-03T10:03:56Z</time>
      </trkpt>
      <trkpt lat="45.52657" lon="6.76615">
        <ele>1784</ele>
        <time>2021-08-03T10:03:57Z</time>
      </trkpt>
      <trkpt lat="45.52657" lon="6.76615">
        <ele>1784</ele>
        <time>2021-08-03T10:03:58Z</time>
      </trkpt>
      <trkpt lat="45.52657" lon="6.76616">
        <ele>1784</ele>
        <time>2021-08-03T10:03:59Z</time>
      </trkpt>
      <trkpt lat="45.52657" lon="6.76616">
        <ele>1783.9</ele>
        <time>2021-08-03T10:04:00Z</time>
      </trkpt>
      <trkpt lat="45.52657" lon="6.76616">
        <ele>1783.8</ele>
        <time>2021-08-03T10:04:01Z</time>
      </trkpt>
      <trkpt lat="45.52657" lon="6.76616">
        <ele>1783.7</ele>
        <time>2021-08-03T10:04:02Z</time>
      </trkpt>
      <trkpt lat="45.52657" lon="6.76616">
        <ele>1783.7</ele>
        <time>2021-08-03T10:04:03Z</time>
      </trkpt>
      <trkpt lat="45.52657" lon="6.76617">
        <ele>1783.5</ele>
        <time>2021-08-03T10:04:04Z</time>
      </trkpt>
      <trkpt lat="45.52658" lon="6.76617">
        <ele>1783.4</ele>
        <time>2021-08-03T10:04:05Z</time>
      </trkpt>
      <trkpt lat="45.52658" lon="6.76617">
        <ele>1783.3</ele>
        <time>2021-08-03T10:04:06Z</time>
      </trkpt>
      <trkpt lat="45.52658" lon="6.76618">
        <ele>1783.2</ele>
        <time>2021-08-03T10:04:07Z</time>
      </trkpt>
      <trkpt lat="45.52658" lon="6.76618">
        <ele>1783</ele>
        <time>2021-08-03T10:04:08Z</time>
      </trkpt>
      <trkpt lat="45.52658" lon="6.76618">
        <ele>1782.8</ele>
        <time>2021-08-03T10:04:09Z</time>
      </trkpt>
      <trkpt lat="45.52659" lon="6.76619">
        <ele>1782.7</ele>
        <time>2021-08-03T10:04:10Z</time>
      </trkpt>
      <trkpt lat="45.52659" lon="6.7662">
        <ele>1782.5</ele>
        <time>2021-08-03T10:04:11Z</time>
      </trkpt>
      <trkpt lat="45.52659" lon="6.7662">
        <ele>1782.3</ele>
        <time>2021-08-03T10:04:12Z</time>
      </trkpt>
      <trkpt lat="45.52659" lon="6.76621">
        <ele>1782</ele>
        <time>2021-08-03T10:04:13Z</time>
      </trkpt>
      <trkpt lat="45.5266" lon="6.76621">
        <ele>1781.8</ele>
        <time>2021-08-03T10:04:14Z</time>
      </trkpt>
      <trkpt lat="45.5266" lon="6.76622">
        <ele>1781.6</ele>
        <time>2021-08-03T10:04:15Z</time>
      </trkpt>
      <trkpt lat="45.5266" lon="6.76623">
        <ele>1781.3</ele>
        <time>2021-08-03T10:04:16Z</time>
      </trkpt>
      <trkpt lat="45.5266" lon="6.76624">
        <ele>1781</ele>
        <time>2021-08-03T10:04:17Z</time>
      </trkpt>
      <trkpt lat="45.5266" lon="6.76625">
        <ele>1780.7</ele>
        <time>2021-08-03T10:04:18Z</time>
      </trkpt>
      <trkpt lat="45.52661" lon="6.76626">
        <ele>1780.4</ele>
        <time>2021-08-03T10:04:19Z</time>
      </trkpt>
      <trkpt lat="45.52661" lon="6.76627">
        <ele>1780.1</ele>
        <time>2021-08-03T10:04:20Z</time>
      </trkpt>
      <trkpt lat="45.52661" lon="6.76628">
        <ele>1779.7</ele>
        <time>2021-08-03T10:04:21Z</time>
      </trkpt>
      <trkpt lat="45.52661" lon="6.76629">
        <ele>1779.4</ele>
        <time>2021-08-03T10:04:22Z</time>
      </trkpt>
      <trkpt lat="45.52661" lon="6.7663">
        <ele>1779</ele>
        <time>2021-08-03T10:04:23Z</time>
      </trkpt>
      <trkpt lat="45.52661" lon="6.76631">
        <ele>1778.6</ele>
        <time>2021-08-03T10:04:24Z</time>
      </trkpt>
      <trkpt lat="45.52662" lon="6.76633">
        <ele>1778.2</ele>
        <time>2021-08-03T10:04:25Z</time>
      </trkpt>
      <trkpt lat="45.52662" lon="6.76634">
        <ele>1777.7</ele>
        <time>2021-08-03T10:04:26Z</time>
      </trkpt>
      <trkpt lat="45.52662" lon="6.76635">
        <ele>1777.3</ele>
        <time>2021-08-03T10:04:27Z</time>
      </trkpt>
      <trkpt lat="45.52662" lon="6.76637">
        <ele>1776.9</ele>
        <time>2021-08-03T10:04:28Z</time>
      </trkpt>
      <trkpt lat="45.52662" lon="6.76638">
        <ele>1776.4</ele>
        <time>2021-08-03T10:04:29Z</time>
      </trkpt>
      <trkpt lat="45.52662" lon="6.7664">
        <ele>1776</ele>
        <time>2021-08-03T10:04:30Z</time>
      </trkpt>
      <trkpt lat="45.52663" lon="6.76641">
        <ele>1775.6</ele>
        <time>2021-08-03T10:04:31Z</time>
      </trkpt>
      <trkpt lat="45.52663" lon="6.76642">
        <ele>1775.2</ele>
        <time>2021-08-03T10:04:32Z</time>
      </trkpt>
      <trkpt lat="45.52663" lon="6.76644">
        <ele>1774.9</ele>
        <time>2021-08-03T10:04:33Z</time>
      </trkpt>
      <trkpt lat="45.52663" lon="6.76645">
        <ele>1774.5</ele>
        <time>2021-08-03T10:04:34Z</time>
      </trkpt>
      <trkpt lat="45.52663" lon="6.76646">
        <ele>1774.3</ele>
        <time>2021-08-03T10:04:35Z</time>
      </trkpt>
      <trkpt lat="45.52663" lon="6.76647">
        <ele>1774.1</ele>
        <time>2021-08-03T10:04:36Z</time>
      </trkpt>
      <trkpt lat="45.52663" lon="6.76647">
        <ele>1773.8</ele>
        <time>2021-08-03T10:04:37Z</time>
      </trkpt>
      <trkpt lat="45.52663" lon="6.76648">
        <ele>1773.6</ele>
        <time>2021-08-03T10:04:38Z</time>
      </trkpt>
      <trkpt lat="45.52663" lon="6.76649">
        <ele>1773.5</ele>
        <time>2021-08-03T10:04:39Z</time>
      </trkpt>
      <trkpt lat="45.52663" lon="6.76649">
        <ele>1773.3</ele>
        <time>2021-08-03T10:04:40Z</time>
      </trkpt>
      <trkpt lat="45.52663" lon="6.7665">
        <ele>1773.1</ele>
        <time>2021-08-03T10:04:41Z</time>
      </trkpt>
      <trkpt lat="45.52664" lon="6.76651">
        <ele>1773</ele>
        <time>2021-08-03T10:04:42Z</time>
      </trkpt>
      <trkpt lat="45.52664" lon="6.76651">
        <ele>1772.9</ele>
        <time>2021-08-03T10:04:43Z</time>
      </trkpt>
      <trkpt lat="45.52664" lon="6.76652">
        <ele>1772.7</ele>
        <time>2021-08-03T10:04:44Z</time>
      </trkpt>
      <trkpt lat="45.52664" lon="6.76652">
        <ele>1772.6</ele>
        <time>2021-08-03T10:04:45Z</time>
      </trkpt>
      <trkpt lat="45.52664" lon="6.76653">
        <ele>1772.4</ele>
        <time>2021-08-03T10:04:46Z</time>
      </trkpt>
      <trkpt lat="45.52665" lon="6.76653">
        <ele>1772.2</ele>
        <time>2021-08-03T10:04:47Z</time>
      </trkpt>
      <trkpt lat="45.52665" lon="6.76654">
        <ele>1772</ele>
        <time>2021-08-03T10:04:48Z</time>
      </trkpt>
      <trkpt lat="45.52666" lon="6.76654">
        <ele>1771.8</ele>
        <time>2021-08-03T10:04:49Z</time>
      </trkpt>
      <trkpt lat="45.52666" lon="6.76655">
        <ele>1771.5</ele>
        <time>2021-08-03T10:04:50Z</time>
      </trkpt>
      <trkpt lat="45.52667" lon="6.76656">
        <ele>1771.3</ele>
        <time>2021-08-03T10:04:51Z</time>
      </trkpt>
      <trkpt lat="45.52668" lon="6.76656">
        <ele>1771</ele>
        <time>2021-08-03T10:04:52Z</time>
      </trkpt>
      <trkpt lat="45.52668" lon="6.76657">
        <ele>1770.7</ele>
        <time>2021-08-03T10:04:53Z</time>
      </trkpt>
      <trkpt lat="45.52669" lon="6.76658">
        <ele>1770.3</ele>
        <time>2021-08-03T10:04:54Z</time>
      </trkpt>
      <trkpt lat="45.5267" lon="6.76659">
        <ele>1770</ele>
        <time>2021-08-03T10:04:55Z</time>
      </trkpt>
      <trkpt lat="45.52671" lon="6.76659">
        <ele>1769.7</ele>
        <time>2021-08-03T10:04:56Z</time>
      </trkpt>
      <trkpt lat="45.52671" lon="6.7666">
        <ele>1769.3</ele>
        <time>2021-08-03T10:04:57Z</time>
      </trkpt>
      <trkpt lat="45.52672" lon="6.76661">
        <ele>1769</ele>
        <time>2021-08-03T10:04:58Z</time>
      </trkpt>
      <trkpt lat="45.52673" lon="6.76662">
        <ele>1768.7</ele>
        <time>2021-08-03T10:04:59Z</time>
      </trkpt>
      <trkpt lat="45.52674" lon="6.76663">
        <ele>1768.3</ele>
        <time>2021-08-03T10:05:00Z</time>
      </trkpt>
      <trkpt lat="45.52674" lon="6.76664">
        <ele>1768</ele>
        <time>2021-08-03T10:05:01Z</time>
      </trkpt>
      <trkpt lat="45.52675" lon="6.76665">
        <ele>1767.7</ele>
        <time>2021-08-03T10:05:02Z</time>
      </trkpt>
      <trkpt lat="45.52676" lon="6.76665">
        <ele>1767.4</ele>
        <time>2021-08-03T10:05:03Z</time>
      </trkpt>
      <trkpt lat="45.52676" lon="6.76666">
        <ele>1767.1</ele>
        <time>2021-08-03T10:05:04Z</time>
      </trkpt>
      <trkpt lat="45.52677" lon="6.76667">
        <ele>1766.8</ele>
        <time>2021-08-03T10:05:05Z</time>
      </trkpt>
      <trkpt lat="45.52677" lon="6.76667">
        <ele>1766.6</ele>
        <time>2021-08-03T10:05:06Z</time>
      </trkpt>
      <trkpt lat="45.52677" lon="6.76668">
        <ele>1766.4</ele>
        <time>2021-08-03T10:05:07Z</time>
      </trkpt>
      <trkpt lat="45.52678" lon="6.76669">
        <ele>1766.2</ele>
        <time>2021-08-03T10:05:08Z</time>
      </trkpt>
      <trkpt lat="45.52678" lon="6.76669">
        <ele>1766</ele>
        <time>2021-08-03T10:05:09Z</time>
      </trkpt>
      <trkpt lat="45.52678" lon="6.7667">
        <ele>1765.9</ele>
        <time>2021-08-03T10:05:10Z</time>
      </trkpt>
      <trkpt lat="45.52678" lon="6.7667">
        <ele>1765.7</ele>
        <time>2021-08-03T10:05:11Z</time>
      </trkpt>
      <trkpt lat="45.52678" lon="6.76671">
        <ele>1765.6</ele>
        <time>2021-08-03T10:05:12Z</time>
      </trkpt>
      <trkpt lat="45.52678" lon="6.76671">
        <ele>1765.4</ele>
        <time>2021-08-03T10:05:13Z</time>
      </trkpt>
      <trkpt lat="45.52678" lon="6.76672">
        <ele>1765.3</ele>
        <time>2021-08-03T10:05:14Z</time>
      </trkpt>
      <trkpt lat="45.52678" lon="6.76672">
        <ele>1765.2</ele>
        <time>2021-08-03T10:05:15Z</time>
      </trkpt>
      <trkpt lat="45.52678" lon="6.76672">
        <ele>1765.2</ele>
        <time>2021-08-03T10:05:16Z</time>
      </trkpt>
      <trkpt lat="45.52678" lon="6.76672">
        <ele>1765.1</ele>
        <time>2021-08-03T10:05:17Z</time>
      </trkpt>
      <trkpt lat="45.52678" lon="6.76672">
        <ele>1765</ele>
        <time>2021-08-03T10:05:18Z</time>
      </trkpt>
      <trkpt lat="45.52678" lon="6.76673">
        <ele>1765</ele>
        <time>2021-08-03T10:05:19Z</time>
      </trkpt>
      <trkpt lat="45.52678" lon="6.76673">
        <ele>1765</ele>
        <time>2021-08-03T10:05:20Z</time>
      </trkpt>
      <trkpt lat="45.52678" lon="6.76673">
        <ele>1765</ele>
        <time>2021-08-03T10:05:21Z</time>
      </trkpt>
      <trkpt lat="45.52678" lon="6.76673">
        <ele>1765</ele>
        <time>2021-08-03T10:05:22Z</time>
      </trkpt>
      <trkpt lat="45.52678" lon="6.76673">
        <ele>1765</ele>
        <time>2021-08-03T10:05:23Z</time>
      </trkpt>
      <trkpt lat="45.52678" lon="6.76672">
        <ele>1764.9</ele>
        <time>2021-08-03T10:05:24Z</time>
      </trkpt>
      <trkpt lat="45.52678" lon="6.76672">
        <ele>1764.9</ele>
        <time>2021-08-03T10:05:25Z</time>
      </trkpt>
      <trkpt lat="45.52678" lon="6.76672">
        <ele>1764.9</ele>
        <time>2021-08-03T10:05:26Z</time>
      </trkpt>
      <trkpt lat="45.52678" lon="6.76672">
        <ele>1764.8</ele>
        <time>2021-08-03T10:05:27Z</time>
      </trkpt>
      <trkpt lat="45.52678" lon="6.76672">
        <ele>1764.8</ele>
        <time>2021-08-03T10:05:28Z</time>
      </trkpt>
      <trkpt lat="45.52678" lon="6.76673">
        <ele>1764.7</ele>
        <time>2021-08-03T10:05:29Z</time>
      </trkpt>
      <trkpt lat="45.52679" lon="6.76673">
        <ele>1764.6</ele>
        <time>2021-08-03T10:05:30Z</time>
      </trkpt>
      <trkpt lat="45.52679" lon="6.76673">
        <ele>1764.5</ele>
        <time>2021-08-03T10:05:31Z</time>
      </trkpt>
      <trkpt lat="45.52679" lon="6.76674">
        <ele>1764.4</ele>
        <time>2021-08-03T10:05:32Z</time>
      </trkpt>
      <trkpt lat="45.52679" lon="6.76674">
        <ele>1764.2</ele>
        <time>2021-08-03T10:05:33Z</time>
      </trkpt>
      <trkpt lat="45.5268" lon="6.76675">
        <ele>1764</ele>
        <time>2021-08-03T10:05:34Z</time>
      </trkpt>
      <trkpt lat="45.5268" lon="6.76675">
        <ele>1763.7</ele>
        <time>2021-08-03T10:05:35Z</time>
      </trkpt>
      <trkpt lat="45.5268" lon="6.76676">
        <ele>1763.4</ele>
        <time>2021-08-03T10:05:36Z</time>
      </trkpt>
      <trkpt lat="45.52681" lon="6.76676">
        <ele>1763.2</ele>
        <time>2021-08-03T10:05:37Z</time>
      </trkpt>
      <trkpt lat="45.52681" lon="6.76677">
        <ele>1763</ele>
        <time>2021-08-03T10:05:38Z</time>
      </trkpt>
      <trkpt lat="45.52681" lon="6.76677">
        <ele>1762.8</ele>
        <time>2021-08-03T10:05:39Z</time>
      </trkpt>
      <trkpt lat="45.52682" lon="6.76677">
        <ele>1762.6</ele>
        <time>2021-08-03T10:05:40Z</time>
      </trkpt>
      <trkpt lat="45.52682" lon="6.76678">
        <ele>1762.4</ele>
        <time>2021-08-03T10:05:41Z</time>
      </trkpt>
      <trkpt lat="45.52682" lon="6.76678">
        <ele>1762.3</ele>
        <time>2021-08-03T10:05:42Z</time>
      </trkpt>
      <trkpt lat="45.52683" lon="6.76678">
        <ele>1762.1</ele>
        <time>2021-08-03T10:05:43Z</time>
      </trkpt>
      <trkpt lat="45.52683" lon="6.76678">
        <ele>1762.1</ele>
        <time>2021-08-03T10:05:44Z</time>
      </trkpt>
      <trkpt lat="45.52683" lon="6.76679">
        <ele>1761.9</ele>
        <time>2021-08-03T10:05:45Z</time>
      </trkpt>
      <trkpt lat="45.52683" lon="6.76679">
        <ele>1761.8</ele>
        <time>2021-08-03T10:05:46Z</time>
      </trkpt>
      <trkpt lat="45.52683" lon="6.76679">
        <ele>1761.7</ele>
        <time>2021-08-03T10:05:47Z</time>
      </trkpt>
      <trkpt lat="45.52683" lon="6.7668">
        <ele>1761.5</ele>
        <time>2021-08-03T10:05:48Z</time>
      </trkpt>
      <trkpt lat="45.52683" lon="6.7668">
        <ele>1761.3</ele>
        <time>2021-08-03T10:05:49Z</time>
      </trkpt>
      <trkpt lat="45.52684" lon="6.76681">
        <ele>1761.1</ele>
        <time>2021-08-03T10:05:50Z</time>
      </trkpt>
      <trkpt lat="45.52684" lon="6.76682">
        <ele>1760.9</ele>
        <time>2021-08-03T10:05:51Z</time>
      </trkpt>
      <trkpt lat="45.52684" lon="6.76682">
        <ele>1760.6</ele>
        <time>2021-08-03T10:05:52Z</time>
      </trkpt>
      <trkpt lat="45.52684" lon="6.76683">
        <ele>1760.2</ele>
        <time>2021-08-03T10:05:53Z</time>
      </trkpt>
      <trkpt lat="45.52684" lon="6.76684">
        <ele>1759.8</ele>
        <time>2021-08-03T10:05:54Z</time>
      </trkpt>
      <trkpt lat="45.52685" lon="6.76685">
        <ele>1759.4</ele>
        <time>2021-08-03T10:05:55Z</time>
      </trkpt>
      <trkpt lat="45.52685" lon="6.76687">
        <ele>1759</ele>
        <time>2021-08-03T10:05:56Z</time>
      </trkpt>
      <trkpt lat="45.52685" lon="6.76688">
        <ele>1758.5</ele>
        <time>2021-08-03T10:05:57Z</time>
      </trkpt>
      <trkpt lat="45.52686" lon="6.76689">
        <ele>1758.1</ele>
        <time>2021-08-03T10:05:58Z</time>
      </trkpt>
      <trkpt lat="45.52686" lon="6.7669">
        <ele>1757.7</ele>
        <time>2021-08-03T10:05:59Z</time>
      </trkpt>
      <trkpt lat="45.52687" lon="6.7669">
        <ele>1757.4</ele>
        <time>2021-08-03T10:06:00Z</time>
      </trkpt>
      <trkpt lat="45.52687" lon="6.76691">
        <ele>1757.1</ele>
        <time>2021-08-03T10:06:01Z</time>
      </trkpt>
      <trkpt lat="45.52687" lon="6.76692">
        <ele>1756.8</ele>
        <time>2021-08-03T10:06:02Z</time>
      </trkpt>
      <trkpt lat="45.52688" lon="6.76692">
        <ele>1756.6</ele>
        <time>2021-08-03T10:06:03Z</time>
      </trkpt>
      <trkpt lat="45.52688" lon="6.76692">
        <ele>1756.3</ele>
        <time>2021-08-03T10:06:04Z</time>
      </trkpt>
      <trkpt lat="45.52688" lon="6.76693">
        <ele>1756.2</ele>
        <time>2021-08-03T10:06:05Z</time>
      </trkpt>
      <trkpt lat="45.52689" lon="6.76693">
        <ele>1752.2</ele>
        <time>2021-08-03T10:06:06Z</time>
      </trkpt>
      <trkpt lat="45.52689" lon="6.76694">
        <ele>1752.1</ele>
        <time>2021-08-03T10:06:07Z</time>
      </trkpt>
      <trkpt lat="45.52689" lon="6.76694">
        <ele>1751.9</ele>
        <time>2021-08-03T10:06:08Z</time>
      </trkpt>
      <trkpt lat="45.5269" lon="6.76695">
        <ele>1751.7</ele>
        <time>2021-08-03T10:06:09Z</time>
      </trkpt>
      <trkpt lat="45.5269" lon="6.76695">
        <ele>1751.5</ele>
        <time>2021-08-03T10:06:10Z</time>
      </trkpt>
      <trkpt lat="45.5269" lon="6.76696">
        <ele>1751.3</ele>
        <time>2021-08-03T10:06:11Z</time>
      </trkpt>
      <trkpt lat="45.5269" lon="6.76697">
        <ele>1751.1</ele>
        <time>2021-08-03T10:06:12Z</time>
      </trkpt>
      <trkpt lat="45.52691" lon="6.76698">
        <ele>1750.9</ele>
        <time>2021-08-03T10:06:13Z</time>
      </trkpt>
      <trkpt lat="45.52691" lon="6.76698">
        <ele>1750.7</ele>
        <time>2021-08-03T10:06:14Z</time>
      </trkpt>
      <trkpt lat="45.52691" lon="6.76699">
        <ele>1750.5</ele>
        <time>2021-08-03T10:06:15Z</time>
      </trkpt>
      <trkpt lat="45.52691" lon="6.767">
        <ele>1750.3</ele>
        <time>2021-08-03T10:06:16Z</time>
      </trkpt>
      <trkpt lat="45.52692" lon="6.76701">
        <ele>1750.1</ele>
        <time>2021-08-03T10:06:17Z</time>
      </trkpt>
      <trkpt lat="45.52692" lon="6.76701">
        <ele>1750</ele>
        <time>2021-08-03T10:06:18Z</time>
      </trkpt>
      <trkpt lat="45.52692" lon="6.76702">
        <ele>1749.8</ele>
        <time>2021-08-03T10:06:19Z</time>
      </trkpt>
      <trkpt lat="45.52692" lon="6.76703">
        <ele>1749.6</ele>
        <time>2021-08-03T10:06:20Z</time>
      </trkpt>
      <trkpt lat="45.52693" lon="6.76703">
        <ele>1749.4</ele>
        <time>2021-08-03T10:06:21Z</time>
      </trkpt>
      <trkpt lat="45.52693" lon="6.76704">
        <ele>1749.2</ele>
        <time>2021-08-03T10:06:22Z</time>
      </trkpt>
      <trkpt lat="45.52693" lon="6.76704">
        <ele>1749</ele>
        <time>2021-08-03T10:06:23Z</time>
      </trkpt>
      <trkpt lat="45.52694" lon="6.76705">
        <ele>1748.8</ele>
        <time>2021-08-03T10:06:24Z</time>
      </trkpt>
      <trkpt lat="45.52694" lon="6.76706">
        <ele>1748.6</ele>
        <time>2021-08-03T10:06:25Z</time>
      </trkpt>
      <trkpt lat="45.52695" lon="6.76706">
        <ele>1748.4</ele>
        <time>2021-08-03T10:06:26Z</time>
      </trkpt>
      <trkpt lat="45.52695" lon="6.76707">
        <ele>1748.2</ele>
        <time>2021-08-03T10:06:27Z</time>
      </trkpt>
      <trkpt lat="45.52696" lon="6.76707">
        <ele>1747.9</ele>
        <time>2021-08-03T10:06:28Z</time>
      </trkpt>
      <trkpt lat="45.52696" lon="6.76708">
        <ele>1747.7</ele>
        <time>2021-08-03T10:06:29Z</time>
      </trkpt>
      <trkpt lat="45.52697" lon="6.76708">
        <ele>1747.5</ele>
        <time>2021-08-03T10:06:30Z</time>
      </trkpt>
      <trkpt lat="45.52697" lon="6.76709">
        <ele>1747.3</ele>
        <time>2021-08-03T10:06:31Z</time>
      </trkpt>
      <trkpt lat="45.52698" lon="6.76709">
        <ele>1747.1</ele>
        <time>2021-08-03T10:06:32Z</time>
      </trkpt>
      <trkpt lat="45.52698" lon="6.76709">
        <ele>1746.9</ele>
        <time>2021-08-03T10:06:33Z</time>
      </trkpt>
      <trkpt lat="45.52699" lon="6.7671">
        <ele>1746.7</ele>
        <time>2021-08-03T10:06:34Z</time>
      </trkpt>
      <trkpt lat="45.52699" lon="6.7671">
        <ele>1746.6</ele>
        <time>2021-08-03T10:06:35Z</time>
      </trkpt>
      <trkpt lat="45.527" lon="6.7671">
        <ele>1746.4</ele>
        <time>2021-08-03T10:06:36Z</time>
      </trkpt>
      <trkpt lat="45.527" lon="6.76711">
        <ele>1746.2</ele>
        <time>2021-08-03T10:06:37Z</time>
      </trkpt>
      <trkpt lat="45.527" lon="6.76711">
        <ele>1746.1</ele>
        <time>2021-08-03T10:06:38Z</time>
      </trkpt>
      <trkpt lat="45.52701" lon="6.76711">
        <ele>1746</ele>
        <time>2021-08-03T10:06:39Z</time>
      </trkpt>
      <trkpt lat="45.52701" lon="6.76711">
        <ele>1745.9</ele>
        <time>2021-08-03T10:06:40Z</time>
      </trkpt>
      <trkpt lat="45.52701" lon="6.76711">
        <ele>1745.9</ele>
        <time>2021-08-03T10:06:41Z</time>
      </trkpt>
      <trkpt lat="45.52701" lon="6.76711">
        <ele>1745.8</ele>
        <time>2021-08-03T10:06:42Z</time>
      </trkpt>
      <trkpt lat="45.52701" lon="6.76712">
        <ele>1745.7</ele>
        <time>2021-08-03T10:06:43Z</time>
      </trkpt>
      <trkpt lat="45.52701" lon="6.76712">
        <ele>1745.7</ele>
        <time>2021-08-03T10:06:44Z</time>
      </trkpt>
      <trkpt lat="45.52701" lon="6.76712">
        <ele>1745.7</ele>
        <time>2021-08-03T10:06:45Z</time>
      </trkpt>
      <trkpt lat="45.52701" lon="6.76712">
        <ele>1745.7</ele>
        <time>2021-08-03T10:06:46Z</time>
      </trkpt>
      <trkpt lat="45.52701" lon="6.76712">
        <ele>1745.7</ele>
        <time>2021-08-03T10:06:47Z</time>
      </trkpt>
      <trkpt lat="45.52701" lon="6.76712">
        <ele>1745.7</ele>
        <time>2021-08-03T10:06:48Z</time>
      </trkpt>
      <trkpt lat="45.52701" lon="6.76712">
        <ele>1745.7</ele>
        <time>2021-08-03T10:06:49Z</time>
      </trkpt>
      <trkpt lat="45.52701" lon="6.76712">
        <ele>1745.6</ele>
        <time>2021-08-03T10:06:50Z</time>
      </trkpt>
      <trkpt lat="45.52701" lon="6.76712">
        <ele>1745.6</ele>
        <time>2021-08-03T10:06:51Z</time>
      </trkpt>
      <trkpt lat="45.52701" lon="6.76711">
        <ele>1745.6</ele>
        <time>2021-08-03T10:06:52Z</time>
      </trkpt>
      <trkpt lat="45.52701" lon="6.76711">
        <ele>1745.5</ele>
        <time>2021-08-03T10:06:53Z</time>
      </trkpt>
      <trkpt lat="45.52701" lon="6.76711">
        <ele>1745.5</ele>
        <time>2021-08-03T10:06:54Z</time>
      </trkpt>
      <trkpt lat="45.52701" lon="6.76711">
        <ele>1745.5</ele>
        <time>2021-08-03T10:06:55Z</time>
      </trkpt>
      <trkpt lat="45.52701" lon="6.76711">
        <ele>1745.5</ele>
        <time>2021-08-03T10:06:56Z</time>
      </trkpt>
      <trkpt lat="45.52701" lon="6.76711">
        <ele>1745.5</ele>
        <time>2021-08-03T10:06:57Z</time>
      </trkpt>
      <trkpt lat="45.52701" lon="6.76711">
        <ele>1745.5</ele>
        <time>2021-08-03T10:06:58Z</time>
      </trkpt>
      <trkpt lat="45.52701" lon="6.76711">
        <ele>1745.4</ele>
        <time>2021-08-03T10:06:59Z</time>
      </trkpt>
      <trkpt lat="45.52701" lon="6.76711">
        <ele>1745.4</ele>
        <time>2021-08-03T10:07:00Z</time>
      </trkpt>
      <trkpt lat="45.52701" lon="6.76712">
        <ele>1745.4</ele>
        <time>2021-08-03T10:07:01Z</time>
      </trkpt>
      <trkpt lat="45.52701" lon="6.76712">
        <ele>1745.3</ele>
        <time>2021-08-03T10:07:02Z</time>
      </trkpt>
      <trkpt lat="45.52701" lon="6.76712">
        <ele>1745.3</ele>
        <time>2021-08-03T10:07:03Z</time>
      </trkpt>
      <trkpt lat="45.52701" lon="6.76712">
        <ele>1745.2</ele>
        <time>2021-08-03T10:07:04Z</time>
      </trkpt>
      <trkpt lat="45.52701" lon="6.76713">
        <ele>1745</ele>
        <time>2021-08-03T10:07:05Z</time>
      </trkpt>
      <trkpt lat="45.52701" lon="6.76713">
        <ele>1744.9</ele>
        <time>2021-08-03T10:07:06Z</time>
      </trkpt>
      <trkpt lat="45.52701" lon="6.76714">
        <ele>1744.8</ele>
        <time>2021-08-03T10:07:07Z</time>
      </trkpt>
      <trkpt lat="45.52701" lon="6.76715">
        <ele>1744.6</ele>
        <time>2021-08-03T10:07:08Z</time>
      </trkpt>
      <trkpt lat="45.52701" lon="6.76715">
        <ele>1744.5</ele>
        <time>2021-08-03T10:07:09Z</time>
      </trkpt>
      <trkpt lat="45.52702" lon="6.76716">
        <ele>1744.3</ele>
        <time>2021-08-03T10:07:10Z</time>
      </trkpt>
      <trkpt lat="45.52702" lon="6.76716">
        <ele>1744.2</ele>
        <time>2021-08-03T10:07:11Z</time>
      </trkpt>
      <trkpt lat="45.52702" lon="6.76717">
        <ele>1744</ele>
        <time>2021-08-03T10:07:12Z</time>
      </trkpt>
      <trkpt lat="45.52702" lon="6.76717">
        <ele>1743.9</ele>
        <time>2021-08-03T10:07:13Z</time>
      </trkpt>
      <trkpt lat="45.52703" lon="6.76717">
        <ele>1743.7</ele>
        <time>2021-08-03T10:07:14Z</time>
      </trkpt>
      <trkpt lat="45.52703" lon="6.76718">
        <ele>1743.5</ele>
        <time>2021-08-03T10:07:15Z</time>
      </trkpt>
      <trkpt lat="45.52704" lon="6.76718">
        <ele>1743.3</ele>
        <time>2021-08-03T10:07:16Z</time>
      </trkpt>
      <trkpt lat="45.52705" lon="6.76718">
        <ele>1743.1</ele>
        <time>2021-08-03T10:07:17Z</time>
      </trkpt>
      <trkpt lat="45.52705" lon="6.76718">
        <ele>1742.9</ele>
        <time>2021-08-03T10:07:18Z</time>
      </trkpt>
      <trkpt lat="45.52706" lon="6.76719">
        <ele>1742.6</ele>
        <time>2021-08-03T10:07:19Z</time>
      </trkpt>
      <trkpt lat="45.52706" lon="6.76719">
        <ele>1742.4</ele>
        <time>2021-08-03T10:07:20Z</time>
      </trkpt>
      <trkpt lat="45.52707" lon="6.76719">
        <ele>1742.2</ele>
        <time>2021-08-03T10:07:21Z</time>
      </trkpt>
      <trkpt lat="45.52708" lon="6.76719">
        <ele>1741.9</ele>
        <time>2021-08-03T10:07:22Z</time>
      </trkpt>
      <trkpt lat="45.52708" lon="6.7672">
        <ele>1741.7</ele>
        <time>2021-08-03T10:07:23Z</time>
      </trkpt>
      <trkpt lat="45.52709" lon="6.7672">
        <ele>1741.4</ele>
        <time>2021-08-03T10:07:24Z</time>
      </trkpt>
      <trkpt lat="45.5271" lon="6.7672">
        <ele>1741.2</ele>
        <time>2021-08-03T10:07:25Z</time>
      </trkpt>
      <trkpt lat="45.5271" lon="6.7672">
        <ele>1741</ele>
        <time>2021-08-03T10:07:26Z</time>
      </trkpt>
      <trkpt lat="45.52711" lon="6.7672">
        <ele>1740.8</ele>
        <time>2021-08-03T10:07:27Z</time>
      </trkpt>
      <trkpt lat="45.52712" lon="6.76721">
        <ele>1740.6</ele>
        <time>2021-08-03T10:07:28Z</time>
      </trkpt>
      <trkpt lat="45.52712" lon="6.76721">
        <ele>1740.4</ele>
        <time>2021-08-03T10:07:29Z</time>
      </trkpt>
      <trkpt lat="45.52713" lon="6.76721">
        <ele>1740.2</ele>
        <time>2021-08-03T10:07:30Z</time>
      </trkpt>
      <trkpt lat="45.52713" lon="6.76722">
        <ele>1739.9</ele>
        <time>2021-08-03T10:07:31Z</time>
      </trkpt>
      <trkpt lat="45.52714" lon="6.76722">
        <ele>1739.8</ele>
        <time>2021-08-03T10:07:32Z</time>
      </trkpt>
      <trkpt lat="45.52714" lon="6.76722">
        <ele>1739.6</ele>
        <time>2021-08-03T10:07:33Z</time>
      </trkpt>
      <trkpt lat="45.52715" lon="6.76722">
        <ele>1739.4</ele>
        <time>2021-08-03T10:07:34Z</time>
      </trkpt>
      <trkpt lat="45.52716" lon="6.76723">
        <ele>1739.2</ele>
        <time>2021-08-03T10:07:35Z</time>
      </trkpt>
      <trkpt lat="45.52716" lon="6.76723">
        <ele>1739.1</ele>
        <time>2021-08-03T10:07:36Z</time>
      </trkpt>
      <trkpt lat="45.52717" lon="6.76723">
        <ele>1738.9</ele>
        <time>2021-08-03T10:07:37Z</time>
      </trkpt>
      <trkpt lat="45.52717" lon="6.76724">
        <ele>1738.7</ele>
        <time>2021-08-03T10:07:38Z</time>
      </trkpt>
      <trkpt lat="45.52718" lon="6.76724">
        <ele>1738.5</ele>
        <time>2021-08-03T10:07:39Z</time>
      </trkpt>
      <trkpt lat="45.52718" lon="6.76724">
        <ele>1738.3</ele>
        <time>2021-08-03T10:07:40Z</time>
      </trkpt>
      <trkpt lat="45.52719" lon="6.76725">
        <ele>1738.2</ele>
        <time>2021-08-03T10:07:41Z</time>
      </trkpt>
      <trkpt lat="45.52719" lon="6.76725">
        <ele>1738</ele>
        <time>2021-08-03T10:07:42Z</time>
      </trkpt>
      <trkpt lat="45.5272" lon="6.76725">
        <ele>1737.8</ele>
        <time>2021-08-03T10:07:43Z</time>
      </trkpt>
      <trkpt lat="45.52721" lon="6.76726">
        <ele>1737.7</ele>
        <time>2021-08-03T10:07:44Z</time>
      </trkpt>
      <trkpt lat="45.52721" lon="6.76726">
        <ele>1737.5</ele>
        <time>2021-08-03T10:07:45Z</time>
      </trkpt>
      <trkpt lat="45.52722" lon="6.76726">
        <ele>1737.3</ele>
        <time>2021-08-03T10:07:46Z</time>
      </trkpt>
      <trkpt lat="45.52723" lon="6.76726">
        <ele>1737.1</ele>
        <time>2021-08-03T10:07:47Z</time>
      </trkpt>
      <trkpt lat="45.52723" lon="6.76727">
        <ele>1737</ele>
        <time>2021-08-03T10:07:48Z</time>
      </trkpt>
      <trkpt lat="45.52724" lon="6.76727">
        <ele>1736.8</ele>
        <time>2021-08-03T10:07:49Z</time>
      </trkpt>
      <trkpt lat="45.52724" lon="6.76727">
        <ele>1736.7</ele>
        <time>2021-08-03T10:07:50Z</time>
      </trkpt>
      <trkpt lat="45.52725" lon="6.76727">
        <ele>1736.5</ele>
        <time>2021-08-03T10:07:51Z</time>
      </trkpt>
      <trkpt lat="45.52726" lon="6.76727">
        <ele>1736.3</ele>
        <time>2021-08-03T10:07:52Z</time>
      </trkpt>
      <trkpt lat="45.52726" lon="6.76727">
        <ele>1736.2</ele>
        <time>2021-08-03T10:07:53Z</time>
      </trkpt>
      <trkpt lat="45.52727" lon="6.76727">
        <ele>1736</ele>
        <time>2021-08-03T10:07:54Z</time>
      </trkpt>
      <trkpt lat="45.52728" lon="6.76727">
        <ele>1735.9</ele>
        <time>2021-08-03T10:07:55Z</time>
      </trkpt>
      <trkpt lat="45.52728" lon="6.76727">
        <ele>1735.7</ele>
        <time>2021-08-03T10:07:56Z</time>
      </trkpt>
      <trkpt lat="45.52729" lon="6.76727">
        <ele>1735.6</ele>
        <time>2021-08-03T10:07:57Z</time>
      </trkpt>
      <trkpt lat="45.5273" lon="6.76727">
        <ele>1735.4</ele>
        <time>2021-08-03T10:07:58Z</time>
      </trkpt>
      <trkpt lat="45.5273" lon="6.76727">
        <ele>1735.3</ele>
        <time>2021-08-03T10:07:59Z</time>
      </trkpt>
      <trkpt lat="45.52731" lon="6.76727">
        <ele>1735.1</ele>
        <time>2021-08-03T10:08:00Z</time>
      </trkpt>
      <trkpt lat="45.52731" lon="6.76726">
        <ele>1735</ele>
        <time>2021-08-03T10:08:01Z</time>
      </trkpt>
      <trkpt lat="45.52732" lon="6.76726">
        <ele>1734.8</ele>
        <time>2021-08-03T10:08:02Z</time>
      </trkpt>
      <trkpt lat="45.52733" lon="6.76726">
        <ele>1734.6</ele>
        <time>2021-08-03T10:08:03Z</time>
      </trkpt>
      <trkpt lat="45.52733" lon="6.76726">
        <ele>1734.5</ele>
        <time>2021-08-03T10:08:04Z</time>
      </trkpt>
      <trkpt lat="45.52734" lon="6.76726">
        <ele>1734.3</ele>
        <time>2021-08-03T10:08:05Z</time>
      </trkpt>
      <trkpt lat="45.52735" lon="6.76726">
        <ele>1734.1</ele>
        <time>2021-08-03T10:08:06Z</time>
      </trkpt>
      <trkpt lat="45.52735" lon="6.76726">
        <ele>1733.9</ele>
        <time>2021-08-03T10:08:07Z</time>
      </trkpt>
      <trkpt lat="45.52736" lon="6.76726">
        <ele>1733.6</ele>
        <time>2021-08-03T10:08:08Z</time>
      </trkpt>
      <trkpt lat="45.52737" lon="6.76726">
        <ele>1733.4</ele>
        <time>2021-08-03T10:08:09Z</time>
      </trkpt>
      <trkpt lat="45.52738" lon="6.76727">
        <ele>1733.1</ele>
        <time>2021-08-03T10:08:10Z</time>
      </trkpt>
      <trkpt lat="45.52739" lon="6.76727">
        <ele>1732.8</ele>
        <time>2021-08-03T10:08:11Z</time>
      </trkpt>
      <trkpt lat="45.5274" lon="6.76727">
        <ele>1732.5</ele>
        <time>2021-08-03T10:08:12Z</time>
      </trkpt>
      <trkpt lat="45.52741" lon="6.76728">
        <ele>1732.3</ele>
        <time>2021-08-03T10:08:13Z</time>
      </trkpt>
      <trkpt lat="45.52741" lon="6.76728">
        <ele>1732</ele>
        <time>2021-08-03T10:08:14Z</time>
      </trkpt>
      <trkpt lat="45.52742" lon="6.76728">
        <ele>1731.7</ele>
        <time>2021-08-03T10:08:15Z</time>
      </trkpt>
      <trkpt lat="45.52743" lon="6.76729">
        <ele>1731.5</ele>
        <time>2021-08-03T10:08:16Z</time>
      </trkpt>
      <trkpt lat="45.52743" lon="6.76729">
        <ele>1731.3</ele>
        <time>2021-08-03T10:08:17Z</time>
      </trkpt>
      <trkpt lat="45.52744" lon="6.76729">
        <ele>1731.1</ele>
        <time>2021-08-03T10:08:18Z</time>
      </trkpt>
      <trkpt lat="45.52745" lon="6.76729">
        <ele>1730.9</ele>
        <time>2021-08-03T10:08:19Z</time>
      </trkpt>
      <trkpt lat="45.52745" lon="6.76729">
        <ele>1730.7</ele>
        <time>2021-08-03T10:08:20Z</time>
      </trkpt>
      <trkpt lat="45.52746" lon="6.7673">
        <ele>1730.5</ele>
        <time>2021-08-03T10:08:21Z</time>
      </trkpt>
      <trkpt lat="45.52746" lon="6.7673">
        <ele>1730.3</ele>
        <time>2021-08-03T10:08:22Z</time>
      </trkpt>
      <trkpt lat="45.52747" lon="6.7673">
        <ele>1730.2</ele>
        <time>2021-08-03T10:08:23Z</time>
      </trkpt>
      <trkpt lat="45.52747" lon="6.7673">
        <ele>1730</ele>
        <time>2021-08-03T10:08:24Z</time>
      </trkpt>
      <trkpt lat="45.52748" lon="6.7673">
        <ele>1729.8</ele>
        <time>2021-08-03T10:08:25Z</time>
      </trkpt>
      <trkpt lat="45.52748" lon="6.7673">
        <ele>1729.7</ele>
        <time>2021-08-03T10:08:26Z</time>
      </trkpt>
      <trkpt lat="45.52748" lon="6.7673">
        <ele>1729.5</ele>
        <time>2021-08-03T10:08:27Z</time>
      </trkpt>
      <trkpt lat="45.52749" lon="6.76731">
        <ele>1729.4</ele>
        <time>2021-08-03T10:08:28Z</time>
      </trkpt>
      <trkpt lat="45.52749" lon="6.76731">
        <ele>1729.2</ele>
        <time>2021-08-03T10:08:29Z</time>
      </trkpt>
      <trkpt lat="45.5275" lon="6.76731">
        <ele>1729.1</ele>
        <time>2021-08-03T10:08:30Z</time>
      </trkpt>
      <trkpt lat="45.5275" lon="6.76731">
        <ele>1728.9</ele>
        <time>2021-08-03T10:08:31Z</time>
      </trkpt>
      <trkpt lat="45.5275" lon="6.76731">
        <ele>1728.8</ele>
        <time>2021-08-03T10:08:32Z</time>
      </trkpt>
      <trkpt lat="45.52751" lon="6.76732">
        <ele>1728.6</ele>
        <time>2021-08-03T10:08:33Z</time>
      </trkpt>
      <trkpt lat="45.52751" lon="6.76732">
        <ele>1728.4</ele>
        <time>2021-08-03T10:08:34Z</time>
      </trkpt>
      <trkpt lat="45.52752" lon="6.76732">
        <ele>1728.3</ele>
        <time>2021-08-03T10:08:35Z</time>
      </trkpt>
      <trkpt lat="45.52752" lon="6.76732">
        <ele>1728.1</ele>
        <time>2021-08-03T10:08:36Z</time>
      </trkpt>
      <trkpt lat="45.52753" lon="6.76732">
        <ele>1728</ele>
        <time>2021-08-03T10:08:37Z</time>
      </trkpt>
      <trkpt lat="45.52753" lon="6.76733">
        <ele>1727.8</ele>
        <time>2021-08-03T10:08:38Z</time>
      </trkpt>
      <trkpt lat="45.52754" lon="6.76733">
        <ele>1727.6</ele>
        <time>2021-08-03T10:08:39Z</time>
      </trkpt>
      <trkpt lat="45.52754" lon="6.76733">
        <ele>1727.4</ele>
        <time>2021-08-03T10:08:40Z</time>
      </trkpt>
      <trkpt lat="45.52755" lon="6.76733">
        <ele>1727.2</ele>
        <time>2021-08-03T10:08:41Z</time>
      </trkpt>
      <trkpt lat="45.52755" lon="6.76733">
        <ele>1727</ele>
        <time>2021-08-03T10:08:42Z</time>
      </trkpt>
      <trkpt lat="45.52756" lon="6.76733">
        <ele>1726.9</ele>
        <time>2021-08-03T10:08:43Z</time>
      </trkpt>
      <trkpt lat="45.52756" lon="6.76734">
        <ele>1726.7</ele>
        <time>2021-08-03T10:08:44Z</time>
      </trkpt>
      <trkpt lat="45.52757" lon="6.76734">
        <ele>1726.5</ele>
        <time>2021-08-03T10:08:45Z</time>
      </trkpt>
      <trkpt lat="45.52757" lon="6.76734">
        <ele>1726.4</ele>
        <time>2021-08-03T10:08:46Z</time>
      </trkpt>
      <trkpt lat="45.52757" lon="6.76734">
        <ele>1726.2</ele>
        <time>2021-08-03T10:08:47Z</time>
      </trkpt>
      <trkpt lat="45.52758" lon="6.76734">
        <ele>1726.1</ele>
        <time>2021-08-03T10:08:48Z</time>
      </trkpt>
      <trkpt lat="45.52758" lon="6.76735">
        <ele>1725.9</ele>
        <time>2021-08-03T10:08:49Z</time>
      </trkpt>
      <trkpt lat="45.52758" lon="6.76735">
        <ele>1725.8</ele>
        <time>2021-08-03T10:08:50Z</time>
      </trkpt>
      <trkpt lat="45.52759" lon="6.76735">
        <ele>1725.7</ele>
        <time>2021-08-03T10:08:51Z</time>
      </trkpt>
      <trkpt lat="45.52759" lon="6.76736">
        <ele>1725.5</ele>
        <time>2021-08-03T10:08:52Z</time>
      </trkpt>
      <trkpt lat="45.52759" lon="6.76736">
        <ele>1725.4</ele>
        <time>2021-08-03T10:08:53Z</time>
      </trkpt>
      <trkpt lat="45.5276" lon="6.76736">
        <ele>1725.3</ele>
        <time>2021-08-03T10:08:54Z</time>
      </trkpt>
      <trkpt lat="45.5276" lon="6.76737">
        <ele>1725.1</ele>
        <time>2021-08-03T10:08:55Z</time>
      </trkpt>
      <trkpt lat="45.5276" lon="6.76737">
        <ele>1725</ele>
        <time>2021-08-03T10:08:56Z</time>
      </trkpt>
      <trkpt lat="45.52761" lon="6.76737">
        <ele>1724.9</ele>
        <time>2021-08-03T10:08:57Z</time>
      </trkpt>
      <trkpt lat="45.52761" lon="6.76737">
        <ele>1724.7</ele>
        <time>2021-08-03T10:08:58Z</time>
      </trkpt>
      <trkpt lat="45.52761" lon="6.76738">
        <ele>1724.6</ele>
        <time>2021-08-03T10:08:59Z</time>
      </trkpt>
      <trkpt lat="45.52762" lon="6.76738">
        <ele>1724.4</ele>
        <time>2021-08-03T10:09:00Z</time>
      </trkpt>
      <trkpt lat="45.52762" lon="6.76738">
        <ele>1724.3</ele>
        <time>2021-08-03T10:09:01Z</time>
      </trkpt>
      <trkpt lat="45.52763" lon="6.76738">
        <ele>1724.1</ele>
        <time>2021-08-03T10:09:02Z</time>
      </trkpt>
      <trkpt lat="45.52763" lon="6.76739">
        <ele>1724</ele>
        <time>2021-08-03T10:09:03Z</time>
      </trkpt>
      <trkpt lat="45.52763" lon="6.76739">
        <ele>1723.8</ele>
        <time>2021-08-03T10:09:04Z</time>
      </trkpt>
      <trkpt lat="45.52764" lon="6.76739">
        <ele>1723.6</ele>
        <time>2021-08-03T10:09:05Z</time>
      </trkpt>
      <trkpt lat="45.52764" lon="6.76739">
        <ele>1723.4</ele>
        <time>2021-08-03T10:09:06Z</time>
      </trkpt>
      <trkpt lat="45.52765" lon="6.76739">
        <ele>1723.3</ele>
        <time>2021-08-03T10:09:07Z</time>
      </trkpt>
      <trkpt lat="45.52765" lon="6.76739">
        <ele>1723.1</ele>
        <time>2021-08-03T10:09:08Z</time>
      </trkpt>
      <trkpt lat="45.52766" lon="6.76739">
        <ele>1722.8</ele>
        <time>2021-08-03T10:09:09Z</time>
      </trkpt>
      <trkpt lat="45.52766" lon="6.76739">
        <ele>1722.7</ele>
        <time>2021-08-03T10:09:10Z</time>
      </trkpt>
      <trkpt lat="45.52767" lon="6.7674">
        <ele>1722.5</ele>
        <time>2021-08-03T10:09:11Z</time>
      </trkpt>
      <trkpt lat="45.52768" lon="6.7674">
        <ele>1722.2</ele>
        <time>2021-08-03T10:09:12Z</time>
      </trkpt>
      <trkpt lat="45.52768" lon="6.7674">
        <ele>1722.1</ele>
        <time>2021-08-03T10:09:13Z</time>
      </trkpt>
      <trkpt lat="45.52769" lon="6.7674">
        <ele>1721.9</ele>
        <time>2021-08-03T10:09:14Z</time>
      </trkpt>
      <trkpt lat="45.52769" lon="6.7674">
        <ele>1721.6</ele>
        <time>2021-08-03T10:09:15Z</time>
      </trkpt>
      <trkpt lat="45.5277" lon="6.7674">
        <ele>1721.4</ele>
        <time>2021-08-03T10:09:16Z</time>
      </trkpt>
      <trkpt lat="45.5277" lon="6.76741">
        <ele>1721.3</ele>
        <time>2021-08-03T10:09:17Z</time>
      </trkpt>
      <trkpt lat="45.52771" lon="6.76741">
        <ele>1721.1</ele>
        <time>2021-08-03T10:09:18Z</time>
      </trkpt>
      <trkpt lat="45.52771" lon="6.76741">
        <ele>1720.9</ele>
        <time>2021-08-03T10:09:19Z</time>
      </trkpt>
      <trkpt lat="45.52772" lon="6.76741">
        <ele>1720.7</ele>
        <time>2021-08-03T10:09:20Z</time>
      </trkpt>
      <trkpt lat="45.52772" lon="6.76742">
        <ele>1720.5</ele>
        <time>2021-08-03T10:09:21Z</time>
      </trkpt>
      <trkpt lat="45.52773" lon="6.76742">
        <ele>1720.3</ele>
        <time>2021-08-03T10:09:22Z</time>
      </trkpt>
      <trkpt lat="45.52773" lon="6.76742">
        <ele>1720.1</ele>
        <time>2021-08-03T10:09:23Z</time>
      </trkpt>
      <trkpt lat="45.52773" lon="6.76743">
        <ele>1719.9</ele>
        <time>2021-08-03T10:09:24Z</time>
      </trkpt>
      <trkpt lat="45.52774" lon="6.76743">
        <ele>1719.7</ele>
        <time>2021-08-03T10:09:25Z</time>
      </trkpt>
      <trkpt lat="45.52774" lon="6.76743">
        <ele>1719.5</ele>
        <time>2021-08-03T10:09:26Z</time>
      </trkpt>
      <trkpt lat="45.52775" lon="6.76744">
        <ele>1719.3</ele>
        <time>2021-08-03T10:09:27Z</time>
      </trkpt>
      <trkpt lat="45.52775" lon="6.76744">
        <ele>1719.1</ele>
        <time>2021-08-03T10:09:28Z</time>
      </trkpt>
      <trkpt lat="45.52776" lon="6.76745">
        <ele>1718.9</ele>
        <time>2021-08-03T10:09:29Z</time>
      </trkpt>
      <trkpt lat="45.52776" lon="6.76745">
        <ele>1718.7</ele>
        <time>2021-08-03T10:09:30Z</time>
      </trkpt>
      <trkpt lat="45.52776" lon="6.76745">
        <ele>1718.5</ele>
        <time>2021-08-03T10:09:31Z</time>
      </trkpt>
      <trkpt lat="45.52777" lon="6.76746">
        <ele>1718.3</ele>
        <time>2021-08-03T10:09:32Z</time>
      </trkpt>
      <trkpt lat="45.52777" lon="6.76746">
        <ele>1718.1</ele>
        <time>2021-08-03T10:09:33Z</time>
      </trkpt>
      <trkpt lat="45.52778" lon="6.76747">
        <ele>1717.9</ele>
        <time>2021-08-03T10:09:34Z</time>
      </trkpt>
      <trkpt lat="45.52778" lon="6.76747">
        <ele>1717.8</ele>
        <time>2021-08-03T10:09:35Z</time>
      </trkpt>
      <trkpt lat="45.52778" lon="6.76747">
        <ele>1717.6</ele>
        <time>2021-08-03T10:09:36Z</time>
      </trkpt>
      <trkpt lat="45.52779" lon="6.76748">
        <ele>1717.4</ele>
        <time>2021-08-03T10:09:37Z</time>
      </trkpt>
      <trkpt lat="45.52779" lon="6.76748">
        <ele>1717.2</ele>
        <time>2021-08-03T10:09:38Z</time>
      </trkpt>
      <trkpt lat="45.52779" lon="6.76748">
        <ele>1717</ele>
        <time>2021-08-03T10:09:39Z</time>
      </trkpt>
      <trkpt lat="45.5278" lon="6.76749">
        <ele>1716.9</ele>
        <time>2021-08-03T10:09:40Z</time>
      </trkpt>
      <trkpt lat="45.5278" lon="6.76749">
        <ele>1716.7</ele>
        <time>2021-08-03T10:09:41Z</time>
      </trkpt>
      <trkpt lat="45.5278" lon="6.76749">
        <ele>1716.5</ele>
        <time>2021-08-03T10:09:42Z</time>
      </trkpt>
      <trkpt lat="45.52781" lon="6.7675">
        <ele>1716.4</ele>
        <time>2021-08-03T10:09:43Z</time>
      </trkpt>
      <trkpt lat="45.52781" lon="6.7675">
        <ele>1716.2</ele>
        <time>2021-08-03T10:09:44Z</time>
      </trkpt>
      <trkpt lat="45.52781" lon="6.7675">
        <ele>1716.1</ele>
        <time>2021-08-03T10:09:45Z</time>
      </trkpt>
      <trkpt lat="45.52781" lon="6.76751">
        <ele>1716</ele>
        <time>2021-08-03T10:09:46Z</time>
      </trkpt>
      <trkpt lat="45.52782" lon="6.76751">
        <ele>1715.9</ele>
        <time>2021-08-03T10:09:47Z</time>
      </trkpt>
      <trkpt lat="45.52782" lon="6.76751">
        <ele>1715.7</ele>
        <time>2021-08-03T10:09:48Z</time>
      </trkpt>
      <trkpt lat="45.52782" lon="6.76751">
        <ele>1715.6</ele>
        <time>2021-08-03T10:09:49Z</time>
      </trkpt>
      <trkpt lat="45.52782" lon="6.76751">
        <ele>1715.5</ele>
        <time>2021-08-03T10:09:50Z</time>
      </trkpt>
      <trkpt lat="45.52783" lon="6.76751">
        <ele>1715.4</ele>
        <time>2021-08-03T10:09:51Z</time>
      </trkpt>
      <trkpt lat="45.52783" lon="6.76752">
        <ele>1715.3</ele>
        <time>2021-08-03T10:09:52Z</time>
      </trkpt>
      <trkpt lat="45.52783" lon="6.76752">
        <ele>1715.2</ele>
        <time>2021-08-03T10:09:53Z</time>
      </trkpt>
      <trkpt lat="45.52783" lon="6.76752">
        <ele>1715.1</ele>
        <time>2021-08-03T10:09:54Z</time>
      </trkpt>
      <trkpt lat="45.52784" lon="6.76752">
        <ele>1714.9</ele>
        <time>2021-08-03T10:09:55Z</time>
      </trkpt>
      <trkpt lat="45.52784" lon="6.76752">
        <ele>1714.9</ele>
        <time>2021-08-03T10:09:56Z</time>
      </trkpt>
      <trkpt lat="45.52784" lon="6.76752">
        <ele>1714.7</ele>
        <time>2021-08-03T10:09:57Z</time>
      </trkpt>
      <trkpt lat="45.52784" lon="6.76752">
        <ele>1714.7</ele>
        <time>2021-08-03T10:09:58Z</time>
      </trkpt>
      <trkpt lat="45.52785" lon="6.76752">
        <ele>1714.5</ele>
        <time>2021-08-03T10:09:59Z</time>
      </trkpt>
      <trkpt lat="45.52785" lon="6.76752">
        <ele>1714.4</ele>
        <time>2021-08-03T10:10:00Z</time>
      </trkpt>
      <trkpt lat="45.52785" lon="6.76752">
        <ele>1714.3</ele>
        <time>2021-08-03T10:10:01Z</time>
      </trkpt>
      <trkpt lat="45.52786" lon="6.76752">
        <ele>1714.2</ele>
        <time>2021-08-03T10:10:02Z</time>
      </trkpt>
      <trkpt lat="45.52786" lon="6.76752">
        <ele>1714</ele>
        <time>2021-08-03T10:10:03Z</time>
      </trkpt>
      <trkpt lat="45.52786" lon="6.76752">
        <ele>1713.9</ele>
        <time>2021-08-03T10:10:04Z</time>
      </trkpt>
      <trkpt lat="45.52787" lon="6.76752">
        <ele>1713.7</ele>
        <time>2021-08-03T10:10:05Z</time>
      </trkpt>
      <trkpt lat="45.52787" lon="6.76752">
        <ele>1713.6</ele>
        <time>2021-08-03T10:10:06Z</time>
      </trkpt>
      <trkpt lat="45.52787" lon="6.76752">
        <ele>1713.4</ele>
        <time>2021-08-03T10:10:07Z</time>
      </trkpt>
      <trkpt lat="45.52788" lon="6.76752">
        <ele>1713.3</ele>
        <time>2021-08-03T10:10:08Z</time>
      </trkpt>
      <trkpt lat="45.52788" lon="6.76752">
        <ele>1713.1</ele>
        <time>2021-08-03T10:10:09Z</time>
      </trkpt>
      <trkpt lat="45.52789" lon="6.76752">
        <ele>1712.9</ele>
        <time>2021-08-03T10:10:10Z</time>
      </trkpt>
      <trkpt lat="45.52789" lon="6.76752">
        <ele>1712.8</ele>
        <time>2021-08-03T10:10:11Z</time>
      </trkpt>
      <trkpt lat="45.52789" lon="6.76753">
        <ele>1712.6</ele>
        <time>2021-08-03T10:10:12Z</time>
      </trkpt>
      <trkpt lat="45.5279" lon="6.76753">
        <ele>1712.4</ele>
        <time>2021-08-03T10:10:13Z</time>
      </trkpt>
      <trkpt lat="45.5279" lon="6.76753">
        <ele>1712.3</ele>
        <time>2021-08-03T10:10:14Z</time>
      </trkpt>
      <trkpt lat="45.52791" lon="6.76753">
        <ele>1712.1</ele>
        <time>2021-08-03T10:10:15Z</time>
      </trkpt>
      <trkpt lat="45.52791" lon="6.76753">
        <ele>1711.9</ele>
        <time>2021-08-03T10:10:16Z</time>
      </trkpt>
      <trkpt lat="45.52791" lon="6.76753">
        <ele>1711.8</ele>
        <time>2021-08-03T10:10:17Z</time>
      </trkpt>
      <trkpt lat="45.52792" lon="6.76753">
        <ele>1711.6</ele>
        <time>2021-08-03T10:10:18Z</time>
      </trkpt>
      <trkpt lat="45.52792" lon="6.76753">
        <ele>1711.5</ele>
        <time>2021-08-03T10:10:19Z</time>
      </trkpt>
      <trkpt lat="45.52792" lon="6.76753">
        <ele>1711.4</ele>
        <time>2021-08-03T10:10:20Z</time>
      </trkpt>
      <trkpt lat="45.52793" lon="6.76753">
        <ele>1711.2</ele>
        <time>2021-08-03T10:10:21Z</time>
      </trkpt>
      <trkpt lat="45.52793" lon="6.76753">
        <ele>1711.1</ele>
        <time>2021-08-03T10:10:22Z</time>
      </trkpt>
      <trkpt lat="45.52793" lon="6.76753">
        <ele>1711</ele>
        <time>2021-08-03T10:10:23Z</time>
      </trkpt>
      <trkpt lat="45.52793" lon="6.76753">
        <ele>1710.9</ele>
        <time>2021-08-03T10:10:24Z</time>
      </trkpt>
      <trkpt lat="45.52794" lon="6.76753">
        <ele>1710.8</ele>
        <time>2021-08-03T10:10:25Z</time>
      </trkpt>
      <trkpt lat="45.52794" lon="6.76753">
        <ele>1710.7</ele>
        <time>2021-08-03T10:10:26Z</time>
      </trkpt>
      <trkpt lat="45.52794" lon="6.76754">
        <ele>1710.6</ele>
        <time>2021-08-03T10:10:27Z</time>
      </trkpt>
      <trkpt lat="45.52794" lon="6.76754">
        <ele>1710.5</ele>
        <time>2021-08-03T10:10:28Z</time>
      </trkpt>
      <trkpt lat="45.52795" lon="6.76754">
        <ele>1710.4</ele>
        <time>2021-08-03T10:10:29Z</time>
      </trkpt>
      <trkpt lat="45.52795" lon="6.76754">
        <ele>1710.3</ele>
        <time>2021-08-03T10:10:30Z</time>
      </trkpt>
      <trkpt lat="45.52795" lon="6.76754">
        <ele>1710.2</ele>
        <time>2021-08-03T10:10:31Z</time>
      </trkpt>
      <trkpt lat="45.52795" lon="6.76754">
        <ele>1710.1</ele>
        <time>2021-08-03T10:10:32Z</time>
      </trkpt>
      <trkpt lat="45.52796" lon="6.76754">
        <ele>1709.9</ele>
        <time>2021-08-03T10:10:33Z</time>
      </trkpt>
      <trkpt lat="45.52796" lon="6.76754">
        <ele>1709.8</ele>
        <time>2021-08-03T10:10:34Z</time>
      </trkpt>
      <trkpt lat="45.52796" lon="6.76754">
        <ele>1709.7</ele>
        <time>2021-08-03T10:10:35Z</time>
      </trkpt>
      <trkpt lat="45.52797" lon="6.76754">
        <ele>1709.5</ele>
        <time>2021-08-03T10:10:36Z</time>
      </trkpt>
      <trkpt lat="45.52797" lon="6.76754">
        <ele>1709.3</ele>
        <time>2021-08-03T10:10:37Z</time>
      </trkpt>
      <trkpt lat="45.52798" lon="6.76754">
        <ele>1709.1</ele>
        <time>2021-08-03T10:10:38Z</time>
      </trkpt>
      <trkpt lat="45.52798" lon="6.76754">
        <ele>1708.9</ele>
        <time>2021-08-03T10:10:39Z</time>
      </trkpt>
      <trkpt lat="45.52799" lon="6.76753">
        <ele>1708.7</ele>
        <time>2021-08-03T10:10:40Z</time>
      </trkpt>
      <trkpt lat="45.52799" lon="6.76753">
        <ele>1708.5</ele>
        <time>2021-08-03T10:10:41Z</time>
      </trkpt>
      <trkpt lat="45.528" lon="6.76753">
        <ele>1708.2</ele>
        <time>2021-08-03T10:10:42Z</time>
      </trkpt>
      <trkpt lat="45.528" lon="6.76753">
        <ele>1708</ele>
        <time>2021-08-03T10:10:43Z</time>
      </trkpt>
      <trkpt lat="45.52801" lon="6.76753">
        <ele>1707.8</ele>
        <time>2021-08-03T10:10:44Z</time>
      </trkpt>
      <trkpt lat="45.52801" lon="6.76753">
        <ele>1707.5</ele>
        <time>2021-08-03T10:10:45Z</time>
      </trkpt>
      <trkpt lat="45.52802" lon="6.76753">
        <ele>1707.1</ele>
        <time>2021-08-03T10:10:46Z</time>
      </trkpt>
      <trkpt lat="45.52803" lon="6.76753">
        <ele>1707</ele>
        <time>2021-08-03T10:10:47Z</time>
      </trkpt>
      <trkpt lat="45.52803" lon="6.76753">
        <ele>1706.9</ele>
        <time>2021-08-03T10:10:48Z</time>
      </trkpt>
      <trkpt lat="45.52803" lon="6.76753">
        <ele>1706.8</ele>
        <time>2021-08-03T10:10:49Z</time>
      </trkpt>
      <trkpt lat="45.52803" lon="6.76753">
        <ele>1706.8</ele>
        <time>2021-08-03T10:10:50Z</time>
      </trkpt>
      <trkpt lat="45.52804" lon="6.76753">
        <ele>1706.6</ele>
        <time>2021-08-03T10:10:51Z</time>
      </trkpt>
      <trkpt lat="45.52804" lon="6.76753">
        <ele>1706.6</ele>
        <time>2021-08-03T10:10:52Z</time>
      </trkpt>
      <trkpt lat="45.52804" lon="6.76753">
        <ele>1706.4</ele>
        <time>2021-08-03T10:10:53Z</time>
      </trkpt>
      <trkpt lat="45.52805" lon="6.76753">
        <ele>1706.4</ele>
        <time>2021-08-03T10:10:54Z</time>
      </trkpt>
      <trkpt lat="45.52805" lon="6.76753">
        <ele>1706.3</ele>
        <time>2021-08-03T10:10:55Z</time>
      </trkpt>
      <trkpt lat="45.52805" lon="6.76753">
        <ele>1706.2</ele>
        <time>2021-08-03T10:10:56Z</time>
      </trkpt>
      <trkpt lat="45.52805" lon="6.76753">
        <ele>1706.2</ele>
        <time>2021-08-03T10:10:57Z</time>
      </trkpt>
      <trkpt lat="45.52806" lon="6.76754">
        <ele>1706.1</ele>
        <time>2021-08-03T10:10:58Z</time>
      </trkpt>
      <trkpt lat="45.52806" lon="6.76754">
        <ele>1705.9</ele>
        <time>2021-08-03T10:10:59Z</time>
      </trkpt>
      <trkpt lat="45.52806" lon="6.76754">
        <ele>1705.8</ele>
        <time>2021-08-03T10:11:00Z</time>
      </trkpt>
      <trkpt lat="45.52806" lon="6.76754">
        <ele>1705.8</ele>
        <time>2021-08-03T10:11:01Z</time>
      </trkpt>
      <trkpt lat="45.52807" lon="6.76754">
        <ele>1705.7</ele>
        <time>2021-08-03T10:11:02Z</time>
      </trkpt>
      <trkpt lat="45.52807" lon="6.76754">
        <ele>1705.6</ele>
        <time>2021-08-03T10:11:03Z</time>
      </trkpt>
      <trkpt lat="45.52807" lon="6.76754">
        <ele>1705.5</ele>
        <time>2021-08-03T10:11:04Z</time>
      </trkpt>
      <trkpt lat="45.52808" lon="6.76754">
        <ele>1705.4</ele>
        <time>2021-08-03T10:11:05Z</time>
      </trkpt>
      <trkpt lat="45.52808" lon="6.76754">
        <ele>1705.4</ele>
        <time>2021-08-03T10:11:06Z</time>
      </trkpt>
      <trkpt lat="45.52808" lon="6.76754">
        <ele>1705.3</ele>
        <time>2021-08-03T10:11:07Z</time>
      </trkpt>
      <trkpt lat="45.52808" lon="6.76754">
        <ele>1705.2</ele>
        <time>2021-08-03T10:11:08Z</time>
      </trkpt>
      <trkpt lat="45.52809" lon="6.76754">
        <ele>1705.1</ele>
        <time>2021-08-03T10:11:09Z</time>
      </trkpt>
      <trkpt lat="45.52809" lon="6.76754">
        <ele>1705</ele>
        <time>2021-08-03T10:11:10Z</time>
      </trkpt>
      <trkpt lat="45.52809" lon="6.76755">
        <ele>1705</ele>
        <time>2021-08-03T10:11:11Z</time>
      </trkpt>
      <trkpt lat="45.5281" lon="6.76755">
        <ele>1704.9</ele>
        <time>2021-08-03T10:11:12Z</time>
      </trkpt>
      <trkpt lat="45.5281" lon="6.76755">
        <ele>1704.8</ele>
        <time>2021-08-03T10:11:13Z</time>
      </trkpt>
      <trkpt lat="45.5281" lon="6.76755">
        <ele>1704.7</ele>
        <time>2021-08-03T10:11:14Z</time>
      </trkpt>
      <trkpt lat="45.5281" lon="6.76755">
        <ele>1704.7</ele>
        <time>2021-08-03T10:11:15Z</time>
      </trkpt>
      <trkpt lat="45.52811" lon="6.76755">
        <ele>1704.5</ele>
        <time>2021-08-03T10:11:16Z</time>
      </trkpt>
      <trkpt lat="45.52811" lon="6.76755">
        <ele>1704.4</ele>
        <time>2021-08-03T10:11:17Z</time>
      </trkpt>
      <trkpt lat="45.52811" lon="6.76755">
        <ele>1704.4</ele>
        <time>2021-08-03T10:11:18Z</time>
      </trkpt>
      <trkpt lat="45.52811" lon="6.76755">
        <ele>1704.3</ele>
        <time>2021-08-03T10:11:19Z</time>
      </trkpt>
      <trkpt lat="45.52812" lon="6.76755">
        <ele>1704.2</ele>
        <time>2021-08-03T10:11:20Z</time>
      </trkpt>
      <trkpt lat="45.52812" lon="6.76755">
        <ele>1704.1</ele>
        <time>2021-08-03T10:11:21Z</time>
      </trkpt>
      <trkpt lat="45.52812" lon="6.76755">
        <ele>1704.1</ele>
        <time>2021-08-03T10:11:22Z</time>
      </trkpt>
      <trkpt lat="45.52813" lon="6.76755">
        <ele>1704</ele>
        <time>2021-08-03T10:11:23Z</time>
      </trkpt>
      <trkpt lat="45.52813" lon="6.76756">
        <ele>1703.9</ele>
        <time>2021-08-03T10:11:24Z</time>
      </trkpt>
      <trkpt lat="45.52813" lon="6.76756">
        <ele>1703.8</ele>
        <time>2021-08-03T10:11:25Z</time>
      </trkpt>
      <trkpt lat="45.52813" lon="6.76756">
        <ele>1703.8</ele>
        <time>2021-08-03T10:11:26Z</time>
      </trkpt>
      <trkpt lat="45.52814" lon="6.76756">
        <ele>1703.7</ele>
        <time>2021-08-03T10:11:27Z</time>
      </trkpt>
      <trkpt lat="45.52814" lon="6.76756">
        <ele>1703.6</ele>
        <time>2021-08-03T10:11:28Z</time>
      </trkpt>
      <trkpt lat="45.52814" lon="6.76756">
        <ele>1703.5</ele>
        <time>2021-08-03T10:11:29Z</time>
      </trkpt>
      <trkpt lat="45.52815" lon="6.76756">
        <ele>1703.5</ele>
        <time>2021-08-03T10:11:30Z</time>
      </trkpt>
      <trkpt lat="45.52815" lon="6.76756">
        <ele>1703.4</ele>
        <time>2021-08-03T10:11:31Z</time>
      </trkpt>
      <trkpt lat="45.52815" lon="6.76756">
        <ele>1703.3</ele>
        <time>2021-08-03T10:11:32Z</time>
      </trkpt>
      <trkpt lat="45.52815" lon="6.76756">
        <ele>1703.2</ele>
        <time>2021-08-03T10:11:33Z</time>
      </trkpt>
      <trkpt lat="45.52816" lon="6.76756">
        <ele>1703.1</ele>
        <time>2021-08-03T10:11:34Z</time>
      </trkpt>
      <trkpt lat="45.52816" lon="6.76756">
        <ele>1703</ele>
        <time>2021-08-03T10:11:35Z</time>
      </trkpt>
      <trkpt lat="45.52816" lon="6.76756">
        <ele>1702.9</ele>
        <time>2021-08-03T10:11:36Z</time>
      </trkpt>
      <trkpt lat="45.52816" lon="6.76757">
        <ele>1702.9</ele>
        <time>2021-08-03T10:11:37Z</time>
      </trkpt>
      <trkpt lat="45.52817" lon="6.76757">
        <ele>1702.9</ele>
        <time>2021-08-03T10:11:38Z</time>
      </trkpt>
      <trkpt lat="45.52817" lon="6.76757">
        <ele>1702.7</ele>
        <time>2021-08-03T10:11:39Z</time>
      </trkpt>
      <trkpt lat="45.52817" lon="6.76757">
        <ele>1702.7</ele>
        <time>2021-08-03T10:11:40Z</time>
      </trkpt>
      <trkpt lat="45.52818" lon="6.76757">
        <ele>1702.6</ele>
        <time>2021-08-03T10:11:41Z</time>
      </trkpt>
      <trkpt lat="45.52818" lon="6.76757">
        <ele>1702.6</ele>
        <time>2021-08-03T10:11:42Z</time>
      </trkpt>
      <trkpt lat="45.52818" lon="6.76757">
        <ele>1702.4</ele>
        <time>2021-08-03T10:11:43Z</time>
      </trkpt>
      <trkpt lat="45.52818" lon="6.76757">
        <ele>1702.4</ele>
        <time>2021-08-03T10:11:44Z</time>
      </trkpt>
      <trkpt lat="45.52819" lon="6.76757">
        <ele>1702.3</ele>
        <time>2021-08-03T10:11:45Z</time>
      </trkpt>
      <trkpt lat="45.52819" lon="6.76757">
        <ele>1702.3</ele>
        <time>2021-08-03T10:11:46Z</time>
      </trkpt>
      <trkpt lat="45.52819" lon="6.76757">
        <ele>1702.2</ele>
        <time>2021-08-03T10:11:47Z</time>
      </trkpt>
      <trkpt lat="45.5282" lon="6.76757">
        <ele>1702.1</ele>
        <time>2021-08-03T10:11:48Z</time>
      </trkpt>
      <trkpt lat="45.5282" lon="6.76757">
        <ele>1702</ele>
        <time>2021-08-03T10:11:49Z</time>
      </trkpt>
      <trkpt lat="45.5282" lon="6.76758">
        <ele>1702</ele>
        <time>2021-08-03T10:11:50Z</time>
      </trkpt>
      <trkpt lat="45.5282" lon="6.76758">
        <ele>1701.9</ele>
        <time>2021-08-03T10:11:51Z</time>
      </trkpt>
      <trkpt lat="45.52821" lon="6.76758">
        <ele>1701.8</ele>
        <time>2021-08-03T10:11:52Z</time>
      </trkpt>
      <trkpt lat="45.52821" lon="6.76758">
        <ele>1701.7</ele>
        <time>2021-08-03T10:11:53Z</time>
      </trkpt>
      <trkpt lat="45.52821" lon="6.76758">
        <ele>1701.7</ele>
        <time>2021-08-03T10:11:54Z</time>
      </trkpt>
      <trkpt lat="45.52821" lon="6.76758">
        <ele>1701.6</ele>
        <time>2021-08-03T10:11:55Z</time>
      </trkpt>
      <trkpt lat="45.52822" lon="6.76758">
        <ele>1701.5</ele>
        <time>2021-08-03T10:11:56Z</time>
      </trkpt>
      <trkpt lat="45.52822" lon="6.76758">
        <ele>1701.5</ele>
        <time>2021-08-03T10:11:57Z</time>
      </trkpt>
      <trkpt lat="45.52822" lon="6.76758">
        <ele>1701.3</ele>
        <time>2021-08-03T10:11:58Z</time>
      </trkpt>
      <trkpt lat="45.52823" lon="6.76758">
        <ele>1701.3</ele>
        <time>2021-08-03T10:11:59Z</time>
      </trkpt>
      <trkpt lat="45.52823" lon="6.76758">
        <ele>1701.2</ele>
        <time>2021-08-03T10:12:00Z</time>
      </trkpt>
      <trkpt lat="45.52823" lon="6.76758">
        <ele>1701.2</ele>
        <time>2021-08-03T10:12:01Z</time>
      </trkpt>
      <trkpt lat="45.52823" lon="6.76758">
        <ele>1701</ele>
        <time>2021-08-03T10:12:02Z</time>
      </trkpt>
      <trkpt lat="45.52824" lon="6.76759">
        <ele>1701</ele>
        <time>2021-08-03T10:12:03Z</time>
      </trkpt>
      <trkpt lat="45.52824" lon="6.76759">
        <ele>1701</ele>
        <time>2021-08-03T10:12:04Z</time>
      </trkpt>
      <trkpt lat="45.52824" lon="6.76759">
        <ele>1700.9</ele>
        <time>2021-08-03T10:12:05Z</time>
      </trkpt>
      <trkpt lat="45.52825" lon="6.76759">
        <ele>1700.8</ele>
        <time>2021-08-03T10:12:06Z</time>
      </trkpt>
      <trkpt lat="45.52825" lon="6.76759">
        <ele>1700.7</ele>
        <time>2021-08-03T10:12:07Z</time>
      </trkpt>
      <trkpt lat="45.52825" lon="6.76759">
        <ele>1700.7</ele>
        <time>2021-08-03T10:12:08Z</time>
      </trkpt>
      <trkpt lat="45.52825" lon="6.76759">
        <ele>1700.6</ele>
        <time>2021-08-03T10:12:09Z</time>
      </trkpt>
      <trkpt lat="45.52826" lon="6.76759">
        <ele>1700.5</ele>
        <time>2021-08-03T10:12:10Z</time>
      </trkpt>
      <trkpt lat="45.52826" lon="6.76759">
        <ele>1700.5</ele>
        <time>2021-08-03T10:12:11Z</time>
      </trkpt>
      <trkpt lat="45.52826" lon="6.76759">
        <ele>1700.4</ele>
        <time>2021-08-03T10:12:12Z</time>
      </trkpt>
      <trkpt lat="45.52826" lon="6.76759">
        <ele>1700.3</ele>
        <time>2021-08-03T10:12:13Z</time>
      </trkpt>
      <trkpt lat="45.52827" lon="6.76759">
        <ele>1700.2</ele>
        <time>2021-08-03T10:12:14Z</time>
      </trkpt>
      <trkpt lat="45.52828" lon="6.76759">
        <ele>1700</ele>
        <time>2021-08-03T10:12:15Z</time>
      </trkpt>
      <trkpt lat="45.52828" lon="6.7676">
        <ele>1699.8</ele>
        <time>2021-08-03T10:12:16Z</time>
      </trkpt>
      <trkpt lat="45.52829" lon="6.7676">
        <ele>1699.5</ele>
        <time>2021-08-03T10:12:17Z</time>
      </trkpt>
      <trkpt lat="45.5283" lon="6.7676">
        <ele>1699.2</ele>
        <time>2021-08-03T10:12:18Z</time>
      </trkpt>
      <trkpt lat="45.52831" lon="6.7676">
        <ele>1699</ele>
        <time>2021-08-03T10:12:19Z</time>
      </trkpt>
      <trkpt lat="45.52832" lon="6.7676">
        <ele>1698.8</ele>
        <time>2021-08-03T10:12:20Z</time>
      </trkpt>
      <trkpt lat="45.52833" lon="6.7676">
        <ele>1698.5</ele>
        <time>2021-08-03T10:12:21Z</time>
      </trkpt>
      <trkpt lat="45.52833" lon="6.76759">
        <ele>1698.3</ele>
        <time>2021-08-03T10:12:22Z</time>
      </trkpt>
      <trkpt lat="45.52834" lon="6.76759">
        <ele>1698.1</ele>
        <time>2021-08-03T10:12:23Z</time>
      </trkpt>
      <trkpt lat="45.52835" lon="6.76759">
        <ele>1697.8</ele>
        <time>2021-08-03T10:12:24Z</time>
      </trkpt>
      <trkpt lat="45.52836" lon="6.76759">
        <ele>1697.6</ele>
        <time>2021-08-03T10:12:25Z</time>
      </trkpt>
      <trkpt lat="45.52837" lon="6.76759">
        <ele>1697.4</ele>
        <time>2021-08-03T10:12:26Z</time>
      </trkpt>
      <trkpt lat="45.52837" lon="6.76759">
        <ele>1697.3</ele>
        <time>2021-08-03T10:12:27Z</time>
      </trkpt>
      <trkpt lat="45.52838" lon="6.76759">
        <ele>1697</ele>
        <time>2021-08-03T10:12:28Z</time>
      </trkpt>
      <trkpt lat="45.52839" lon="6.76758">
        <ele>1696.8</ele>
        <time>2021-08-03T10:12:29Z</time>
      </trkpt>
      <trkpt lat="45.52839" lon="6.76758">
        <ele>1696.6</ele>
        <time>2021-08-03T10:12:30Z</time>
      </trkpt>
      <trkpt lat="45.5284" lon="6.76758">
        <ele>1696.5</ele>
        <time>2021-08-03T10:12:31Z</time>
      </trkpt>
      <trkpt lat="45.5284" lon="6.76758">
        <ele>1696.3</ele>
        <time>2021-08-03T10:12:32Z</time>
      </trkpt>
      <trkpt lat="45.52841" lon="6.76757">
        <ele>1696.1</ele>
        <time>2021-08-03T10:12:33Z</time>
      </trkpt>
      <trkpt lat="45.52842" lon="6.76757">
        <ele>1695.9</ele>
        <time>2021-08-03T10:12:34Z</time>
      </trkpt>
      <trkpt lat="45.52842" lon="6.76757">
        <ele>1695.7</ele>
        <time>2021-08-03T10:12:35Z</time>
      </trkpt>
      <trkpt lat="45.52843" lon="6.76757">
        <ele>1695.5</ele>
        <time>2021-08-03T10:12:36Z</time>
      </trkpt>
      <trkpt lat="45.52843" lon="6.76757">
        <ele>1695.4</ele>
        <time>2021-08-03T10:12:37Z</time>
      </trkpt>
      <trkpt lat="45.52844" lon="6.76757">
        <ele>1695.2</ele>
        <time>2021-08-03T10:12:38Z</time>
      </trkpt>
      <trkpt lat="45.52844" lon="6.76757">
        <ele>1695.1</ele>
        <time>2021-08-03T10:12:39Z</time>
      </trkpt>
      <trkpt lat="45.52845" lon="6.76757">
        <ele>1694.9</ele>
        <time>2021-08-03T10:12:40Z</time>
      </trkpt>
      <trkpt lat="45.52845" lon="6.76757">
        <ele>1694.7</ele>
        <time>2021-08-03T10:12:41Z</time>
      </trkpt>
      <trkpt lat="45.52846" lon="6.76757">
        <ele>1694.5</ele>
        <time>2021-08-03T10:12:42Z</time>
      </trkpt>
      <trkpt lat="45.52847" lon="6.76757">
        <ele>1694.4</ele>
        <time>2021-08-03T10:12:43Z</time>
      </trkpt>
      <trkpt lat="45.52847" lon="6.76757">
        <ele>1694.2</ele>
        <time>2021-08-03T10:12:44Z</time>
      </trkpt>
      <trkpt lat="45.52848" lon="6.76758">
        <ele>1694</ele>
        <time>2021-08-03T10:12:45Z</time>
      </trkpt>
      <trkpt lat="45.52848" lon="6.76758">
        <ele>1693.8</ele>
        <time>2021-08-03T10:12:46Z</time>
      </trkpt>
      <trkpt lat="45.52849" lon="6.76758">
        <ele>1693.7</ele>
        <time>2021-08-03T10:12:47Z</time>
      </trkpt>
      <trkpt lat="45.52849" lon="6.76759">
        <ele>1693.5</ele>
        <time>2021-08-03T10:12:48Z</time>
      </trkpt>
      <trkpt lat="45.52849" lon="6.76759">
        <ele>1693.4</ele>
        <time>2021-08-03T10:12:49Z</time>
      </trkpt>
      <trkpt lat="45.5285" lon="6.76759">
        <ele>1693.3</ele>
        <time>2021-08-03T10:12:50Z</time>
      </trkpt>
      <trkpt lat="45.5285" lon="6.7676">
        <ele>1693.2</ele>
        <time>2021-08-03T10:12:51Z</time>
      </trkpt>
      <trkpt lat="45.5285" lon="6.7676">
        <ele>1693.1</ele>
        <time>2021-08-03T10:12:52Z</time>
      </trkpt>
      <trkpt lat="45.5285" lon="6.7676">
        <ele>1693</ele>
        <time>2021-08-03T10:12:53Z</time>
      </trkpt>
      <trkpt lat="45.5285" lon="6.76761">
        <ele>1692.9</ele>
        <time>2021-08-03T10:12:54Z</time>
      </trkpt>
      <trkpt lat="45.5285" lon="6.76761">
        <ele>1692.8</ele>
        <time>2021-08-03T10:12:55Z</time>
      </trkpt>
      <trkpt lat="45.5285" lon="6.76762">
        <ele>1692.7</ele>
        <time>2021-08-03T10:12:56Z</time>
      </trkpt>
      <trkpt lat="45.5285" lon="6.76762">
        <ele>1692.6</ele>
        <time>2021-08-03T10:12:57Z</time>
      </trkpt>
      <trkpt lat="45.52851" lon="6.76763">
        <ele>1692.4</ele>
        <time>2021-08-03T10:12:58Z</time>
      </trkpt>
      <trkpt lat="45.52851" lon="6.76763">
        <ele>1692.3</ele>
        <time>2021-08-03T10:12:59Z</time>
      </trkpt>
      <trkpt lat="45.52851" lon="6.76764">
        <ele>1692.2</ele>
        <time>2021-08-03T10:13:00Z</time>
      </trkpt>
      <trkpt lat="45.52851" lon="6.76764">
        <ele>1692.1</ele>
        <time>2021-08-03T10:13:01Z</time>
      </trkpt>
      <trkpt lat="45.52851" lon="6.76765">
        <ele>1691.9</ele>
        <time>2021-08-03T10:13:02Z</time>
      </trkpt>
      <trkpt lat="45.52852" lon="6.76765">
        <ele>1691.8</ele>
        <time>2021-08-03T10:13:03Z</time>
      </trkpt>
      <trkpt lat="45.52852" lon="6.76766">
        <ele>1691.6</ele>
        <time>2021-08-03T10:13:04Z</time>
      </trkpt>
      <trkpt lat="45.52852" lon="6.76766">
        <ele>1691.5</ele>
        <time>2021-08-03T10:13:05Z</time>
      </trkpt>
      <trkpt lat="45.52852" lon="6.76767">
        <ele>1691.3</ele>
        <time>2021-08-03T10:13:06Z</time>
      </trkpt>
      <trkpt lat="45.52853" lon="6.76767">
        <ele>1691.2</ele>
        <time>2021-08-03T10:13:07Z</time>
      </trkpt>
      <trkpt lat="45.52853" lon="6.76768">
        <ele>1691.1</ele>
        <time>2021-08-03T10:13:08Z</time>
      </trkpt>
      <trkpt lat="45.52853" lon="6.76768">
        <ele>1690.9</ele>
        <time>2021-08-03T10:13:09Z</time>
      </trkpt>
      <trkpt lat="45.52853" lon="6.76769">
        <ele>1690.8</ele>
        <time>2021-08-03T10:13:10Z</time>
      </trkpt>
      <trkpt lat="45.52854" lon="6.76769">
        <ele>1690.6</ele>
        <time>2021-08-03T10:13:11Z</time>
      </trkpt>
      <trkpt lat="45.52854" lon="6.7677">
        <ele>1690.5</ele>
        <time>2021-08-03T10:13:12Z</time>
      </trkpt>
      <trkpt lat="45.52854" lon="6.7677">
        <ele>1690.4</ele>
        <time>2021-08-03T10:13:13Z</time>
      </trkpt>
      <trkpt lat="45.52854" lon="6.7677">
        <ele>1690.3</ele>
        <time>2021-08-03T10:13:14Z</time>
      </trkpt>
      <trkpt lat="45.52854" lon="6.76771">
        <ele>1690.2</ele>
        <time>2021-08-03T10:13:15Z</time>
      </trkpt>
      <trkpt lat="45.52855" lon="6.76771">
        <ele>1690</ele>
        <time>2021-08-03T10:13:16Z</time>
      </trkpt>
      <trkpt lat="45.52855" lon="6.76772">
        <ele>1690</ele>
        <time>2021-08-03T10:13:17Z</time>
      </trkpt>
      <trkpt lat="45.52855" lon="6.76772">
        <ele>1689.9</ele>
        <time>2021-08-03T10:13:18Z</time>
      </trkpt>
      <trkpt lat="45.52855" lon="6.76772">
        <ele>1689.8</ele>
        <time>2021-08-03T10:13:19Z</time>
      </trkpt>
      <trkpt lat="45.52855" lon="6.76772">
        <ele>1689.7</ele>
        <time>2021-08-03T10:13:20Z</time>
      </trkpt>
      <trkpt lat="45.52855" lon="6.76773">
        <ele>1689.7</ele>
        <time>2021-08-03T10:13:21Z</time>
      </trkpt>
      <trkpt lat="45.52855" lon="6.76773">
        <ele>1689.6</ele>
        <time>2021-08-03T10:13:22Z</time>
      </trkpt>
      <trkpt lat="45.52855" lon="6.76773">
        <ele>1689.5</ele>
        <time>2021-08-03T10:13:23Z</time>
      </trkpt>
      <trkpt lat="45.52855" lon="6.76773">
        <ele>1689.5</ele>
        <time>2021-08-03T10:13:24Z</time>
      </trkpt>
      <trkpt lat="45.52855" lon="6.76773">
        <ele>1689.5</ele>
        <time>2021-08-03T10:13:25Z</time>
      </trkpt>
      <trkpt lat="45.52855" lon="6.76774">
        <ele>1689.4</ele>
        <time>2021-08-03T10:13:26Z</time>
      </trkpt>
      <trkpt lat="45.52855" lon="6.76774">
        <ele>1689.4</ele>
        <time>2021-08-03T10:13:27Z</time>
      </trkpt>
      <trkpt lat="45.52855" lon="6.76774">
        <ele>1689.3</ele>
        <time>2021-08-03T10:13:28Z</time>
      </trkpt>
      <trkpt lat="45.52855" lon="6.76774">
        <ele>1689.3</ele>
        <time>2021-08-03T10:13:29Z</time>
      </trkpt>
      <trkpt lat="45.52855" lon="6.76774">
        <ele>1689.3</ele>
        <time>2021-08-03T10:13:30Z</time>
      </trkpt>
      <trkpt lat="45.52855" lon="6.76774">
        <ele>1689.3</ele>
        <time>2021-08-03T10:13:31Z</time>
      </trkpt>
      <trkpt lat="45.52855" lon="6.76774">
        <ele>1689.2</ele>
        <time>2021-08-03T10:13:32Z</time>
      </trkpt>
      <trkpt lat="45.52855" lon="6.76774">
        <ele>1689.2</ele>
        <time>2021-08-03T10:13:33Z</time>
      </trkpt>
      <trkpt lat="45.52855" lon="6.76774">
        <ele>1689.2</ele>
        <time>2021-08-03T10:13:34Z</time>
      </trkpt>
      <trkpt lat="45.52855" lon="6.76774">
        <ele>1689.2</ele>
        <time>2021-08-03T10:13:35Z</time>
      </trkpt>
      <trkpt lat="45.52855" lon="6.76774">
        <ele>1689.2</ele>
        <time>2021-08-03T10:13:36Z</time>
      </trkpt>
      <trkpt lat="45.52855" lon="6.76774">
        <ele>1689.2</ele>
        <time>2021-08-03T10:13:37Z</time>
      </trkpt>
      <trkpt lat="45.52855" lon="6.76775">
        <ele>1689.1</ele>
        <time>2021-08-03T10:13:38Z</time>
      </trkpt>
      <trkpt lat="45.52855" lon="6.76775">
        <ele>1689.1</ele>
        <time>2021-08-03T10:13:39Z</time>
      </trkpt>
      <trkpt lat="45.52855" lon="6.76775">
        <ele>1689.1</ele>
        <time>2021-08-03T10:13:40Z</time>
      </trkpt>
      <trkpt lat="45.52855" lon="6.76775">
        <ele>1689.1</ele>
        <time>2021-08-03T10:13:41Z</time>
      </trkpt>
      <trkpt lat="45.52855" lon="6.76775">
        <ele>1689.1</ele>
        <time>2021-08-03T10:13:42Z</time>
      </trkpt>
      <trkpt lat="45.52855" lon="6.76775">
        <ele>1689.1</ele>
        <time>2021-08-03T10:13:43Z</time>
      </trkpt>
      <trkpt lat="45.52855" lon="6.76775">
        <ele>1689.1</ele>
        <time>2021-08-03T10:13:44Z</time>
      </trkpt>
      <trkpt lat="45.52855" lon="6.76775">
        <ele>1689.1</ele>
        <time>2021-08-03T10:13:45Z</time>
      </trkpt>
      <trkpt lat="45.52855" lon="6.76774">
        <ele>1689.1</ele>
        <time>2021-08-03T10:13:46Z</time>
      </trkpt>
      <trkpt lat="45.52855" lon="6.76774">
        <ele>1689.1</ele>
        <time>2021-08-03T10:13:47Z</time>
      </trkpt>
      <trkpt lat="45.52855" lon="6.76774">
        <ele>1689.1</ele>
        <time>2021-08-03T10:13:48Z</time>
      </trkpt>
      <trkpt lat="45.52855" lon="6.76774">
        <ele>1689.1</ele>
        <time>2021-08-03T10:13:49Z</time>
      </trkpt>
      <trkpt lat="45.52855" lon="6.76774">
        <ele>1689.1</ele>
        <time>2021-08-03T10:13:50Z</time>
      </trkpt>
      <trkpt lat="45.52855" lon="6.76774">
        <ele>1689</ele>
        <time>2021-08-03T10:13:51Z</time>
      </trkpt>
      <trkpt lat="45.52855" lon="6.76774">
        <ele>1689</ele>
        <time>2021-08-03T10:13:52Z</time>
      </trkpt>
      <trkpt lat="45.52855" lon="6.76774">
        <ele>1689</ele>
        <time>2021-08-03T10:13:53Z</time>
      </trkpt>
      <trkpt lat="45.52855" lon="6.76774">
        <ele>1688.9</ele>
        <time>2021-08-03T10:13:54Z</time>
      </trkpt>
      <trkpt lat="45.52855" lon="6.76774">
        <ele>1688.9</ele>
        <time>2021-08-03T10:13:55Z</time>
      </trkpt>
      <trkpt lat="45.52856" lon="6.76774">
        <ele>1688.9</ele>
        <time>2021-08-03T10:13:56Z</time>
      </trkpt>
      <trkpt lat="45.52856" lon="6.76774">
        <ele>1688.9</ele>
        <time>2021-08-03T10:13:57Z</time>
      </trkpt>
      <trkpt lat="45.52856" lon="6.76774">
        <ele>1688.8</ele>
        <time>2021-08-03T10:13:58Z</time>
      </trkpt>
      <trkpt lat="45.52856" lon="6.76774">
        <ele>1688.8</ele>
        <time>2021-08-03T10:13:59Z</time>
      </trkpt>
      <trkpt lat="45.52856" lon="6.76774">
        <ele>1688.7</ele>
        <time>2021-08-03T10:14:00Z</time>
      </trkpt>
      <trkpt lat="45.52856" lon="6.76774">
        <ele>1688.7</ele>
        <time>2021-08-03T10:14:01Z</time>
      </trkpt>
      <trkpt lat="45.52856" lon="6.76774">
        <ele>1688.6</ele>
        <time>2021-08-03T10:14:02Z</time>
      </trkpt>
      <trkpt lat="45.52857" lon="6.76774">
        <ele>1688.5</ele>
        <time>2021-08-03T10:14:03Z</time>
      </trkpt>
      <trkpt lat="45.52857" lon="6.76774">
        <ele>1688.4</ele>
        <time>2021-08-03T10:14:04Z</time>
      </trkpt>
      <trkpt lat="45.52857" lon="6.76774">
        <ele>1688.3</ele>
        <time>2021-08-03T10:14:05Z</time>
      </trkpt>
      <trkpt lat="45.52858" lon="6.76774">
        <ele>1688.1</ele>
        <time>2021-08-03T10:14:06Z</time>
      </trkpt>
      <trkpt lat="45.52858" lon="6.76774">
        <ele>1688</ele>
        <time>2021-08-03T10:14:07Z</time>
      </trkpt>
      <trkpt lat="45.52859" lon="6.76775">
        <ele>1687.7</ele>
        <time>2021-08-03T10:14:08Z</time>
      </trkpt>
      <trkpt lat="45.52859" lon="6.76775">
        <ele>1687.5</ele>
        <time>2021-08-03T10:14:09Z</time>
      </trkpt>
      <trkpt lat="45.5286" lon="6.76775">
        <ele>1687.2</ele>
        <time>2021-08-03T10:14:10Z</time>
      </trkpt>
      <trkpt lat="45.52861" lon="6.76776">
        <ele>1687</ele>
        <time>2021-08-03T10:14:11Z</time>
      </trkpt>
      <trkpt lat="45.52862" lon="6.76776">
        <ele>1686.7</ele>
        <time>2021-08-03T10:14:12Z</time>
      </trkpt>
      <trkpt lat="45.52863" lon="6.76777">
        <ele>1686.4</ele>
        <time>2021-08-03T10:14:13Z</time>
      </trkpt>
      <trkpt lat="45.52863" lon="6.76778">
        <ele>1686.1</ele>
        <time>2021-08-03T10:14:14Z</time>
      </trkpt>
      <trkpt lat="45.52864" lon="6.76778">
        <ele>1685.8</ele>
        <time>2021-08-03T10:14:15Z</time>
      </trkpt>
      <trkpt lat="45.52865" lon="6.76779">
        <ele>1685.5</ele>
        <time>2021-08-03T10:14:16Z</time>
      </trkpt>
      <trkpt lat="45.52865" lon="6.7678">
        <ele>1685.2</ele>
        <time>2021-08-03T10:14:17Z</time>
      </trkpt>
      <trkpt lat="45.52865" lon="6.76781">
        <ele>1685</ele>
        <time>2021-08-03T10:14:18Z</time>
      </trkpt>
      <trkpt lat="45.52866" lon="6.76781">
        <ele>1684.8</ele>
        <time>2021-08-03T10:14:19Z</time>
      </trkpt>
      <trkpt lat="45.52866" lon="6.76782">
        <ele>1684.6</ele>
        <time>2021-08-03T10:14:20Z</time>
      </trkpt>
      <trkpt lat="45.52866" lon="6.76783">
        <ele>1684.4</ele>
        <time>2021-08-03T10:14:21Z</time>
      </trkpt>
      <trkpt lat="45.52866" lon="6.76784">
        <ele>1684.2</ele>
        <time>2021-08-03T10:14:22Z</time>
      </trkpt>
      <trkpt lat="45.52866" lon="6.76784">
        <ele>1684.1</ele>
        <time>2021-08-03T10:14:23Z</time>
      </trkpt>
      <trkpt lat="45.52867" lon="6.76785">
        <ele>1684</ele>
        <time>2021-08-03T10:14:24Z</time>
      </trkpt>
      <trkpt lat="45.52867" lon="6.76785">
        <ele>1683.8</ele>
        <time>2021-08-03T10:14:25Z</time>
      </trkpt>
      <trkpt lat="45.52867" lon="6.76785">
        <ele>1683.7</ele>
        <time>2021-08-03T10:14:26Z</time>
      </trkpt>
      <trkpt lat="45.52867" lon="6.76786">
        <ele>1683.6</ele>
        <time>2021-08-03T10:14:27Z</time>
      </trkpt>
      <trkpt lat="45.52868" lon="6.76786">
        <ele>1683.5</ele>
        <time>2021-08-03T10:14:28Z</time>
      </trkpt>
      <trkpt lat="45.52868" lon="6.76786">
        <ele>1683.4</ele>
        <time>2021-08-03T10:14:29Z</time>
      </trkpt>
      <trkpt lat="45.52868" lon="6.76786">
        <ele>1683.3</ele>
        <time>2021-08-03T10:14:30Z</time>
      </trkpt>
      <trkpt lat="45.52868" lon="6.76786">
        <ele>1683.2</ele>
        <time>2021-08-03T10:14:31Z</time>
      </trkpt>
      <trkpt lat="45.52869" lon="6.76786">
        <ele>1683.1</ele>
        <time>2021-08-03T10:14:32Z</time>
      </trkpt>
      <trkpt lat="45.52869" lon="6.76786">
        <ele>1683.1</ele>
        <time>2021-08-03T10:14:33Z</time>
      </trkpt>
      <trkpt lat="45.52869" lon="6.76786">
        <ele>1682.9</ele>
        <time>2021-08-03T10:14:34Z</time>
      </trkpt>
      <trkpt lat="45.52869" lon="6.76787">
        <ele>1682.9</ele>
        <time>2021-08-03T10:14:35Z</time>
      </trkpt>
      <trkpt lat="45.5287" lon="6.76787">
        <ele>1682.8</ele>
        <time>2021-08-03T10:14:36Z</time>
      </trkpt>
      <trkpt lat="45.5287" lon="6.76787">
        <ele>1682.7</ele>
        <time>2021-08-03T10:14:37Z</time>
      </trkpt>
      <trkpt lat="45.5287" lon="6.76787">
        <ele>1682.6</ele>
        <time>2021-08-03T10:14:38Z</time>
      </trkpt>
      <trkpt lat="45.5287" lon="6.76787">
        <ele>1682.5</ele>
        <time>2021-08-03T10:14:39Z</time>
      </trkpt>
      <trkpt lat="45.52871" lon="6.76787">
        <ele>1682.4</ele>
        <time>2021-08-03T10:14:40Z</time>
      </trkpt>
      <trkpt lat="45.52871" lon="6.76787">
        <ele>1682.3</ele>
        <time>2021-08-03T10:14:41Z</time>
      </trkpt>
      <trkpt lat="45.52871" lon="6.76787">
        <ele>1682.2</ele>
        <time>2021-08-03T10:14:42Z</time>
      </trkpt>
      <trkpt lat="45.52871" lon="6.76787">
        <ele>1682.2</ele>
        <time>2021-08-03T10:14:43Z</time>
      </trkpt>
      <trkpt lat="45.52871" lon="6.76788">
        <ele>1682.1</ele>
        <time>2021-08-03T10:14:44Z</time>
      </trkpt>
      <trkpt lat="45.52872" lon="6.76788">
        <ele>1682</ele>
        <time>2021-08-03T10:14:45Z</time>
      </trkpt>
      <trkpt lat="45.52872" lon="6.76788">
        <ele>1681.9</ele>
        <time>2021-08-03T10:14:46Z</time>
      </trkpt>
      <trkpt lat="45.52872" lon="6.76788">
        <ele>1681.8</ele>
        <time>2021-08-03T10:14:47Z</time>
      </trkpt>
      <trkpt lat="45.52872" lon="6.76788">
        <ele>1681.7</ele>
        <time>2021-08-03T10:14:48Z</time>
      </trkpt>
      <trkpt lat="45.52873" lon="6.76788">
        <ele>1681.6</ele>
        <time>2021-08-03T10:14:49Z</time>
      </trkpt>
      <trkpt lat="45.52873" lon="6.76788">
        <ele>1681.5</ele>
        <time>2021-08-03T10:14:50Z</time>
      </trkpt>
      <trkpt lat="45.52873" lon="6.76788">
        <ele>1681.5</ele>
        <time>2021-08-03T10:14:51Z</time>
      </trkpt>
      <trkpt lat="45.52873" lon="6.76788">
        <ele>1681.3</ele>
        <time>2021-08-03T10:14:52Z</time>
      </trkpt>
      <trkpt lat="45.52874" lon="6.76789">
        <ele>1681.3</ele>
        <time>2021-08-03T10:14:53Z</time>
      </trkpt>
      <trkpt lat="45.52874" lon="6.76789">
        <ele>1681.2</ele>
        <time>2021-08-03T10:14:54Z</time>
      </trkpt>
      <trkpt lat="45.52874" lon="6.76789">
        <ele>1681.1</ele>
        <time>2021-08-03T10:14:55Z</time>
      </trkpt>
      <trkpt lat="45.52874" lon="6.76789">
        <ele>1681</ele>
        <time>2021-08-03T10:14:56Z</time>
      </trkpt>
      <trkpt lat="45.52875" lon="6.76789">
        <ele>1680.9</ele>
        <time>2021-08-03T10:14:57Z</time>
      </trkpt>
      <trkpt lat="45.52875" lon="6.76789">
        <ele>1680.8</ele>
        <time>2021-08-03T10:14:58Z</time>
      </trkpt>
      <trkpt lat="45.52875" lon="6.76789">
        <ele>1680.7</ele>
        <time>2021-08-03T10:14:59Z</time>
      </trkpt>
      <trkpt lat="45.52875" lon="6.76789">
        <ele>1680.6</ele>
        <time>2021-08-03T10:15:00Z</time>
      </trkpt>
      <trkpt lat="45.52876" lon="6.7679">
        <ele>1680.5</ele>
        <time>2021-08-03T10:15:01Z</time>
      </trkpt>
      <trkpt lat="45.52876" lon="6.7679">
        <ele>1680.4</ele>
        <time>2021-08-03T10:15:02Z</time>
      </trkpt>
      <trkpt lat="45.52876" lon="6.7679">
        <ele>1680.4</ele>
        <time>2021-08-03T10:15:03Z</time>
      </trkpt>
      <trkpt lat="45.52876" lon="6.7679">
        <ele>1680.3</ele>
        <time>2021-08-03T10:15:04Z</time>
      </trkpt>
      <trkpt lat="45.52877" lon="6.7679">
        <ele>1680.2</ele>
        <time>2021-08-03T10:15:05Z</time>
      </trkpt>
      <trkpt lat="45.52877" lon="6.7679">
        <ele>1680.1</ele>
        <time>2021-08-03T10:15:06Z</time>
      </trkpt>
      <trkpt lat="45.52877" lon="6.7679">
        <ele>1680</ele>
        <time>2021-08-03T10:15:07Z</time>
      </trkpt>
      <trkpt lat="45.52877" lon="6.7679">
        <ele>1679.9</ele>
        <time>2021-08-03T10:15:08Z</time>
      </trkpt>
      <trkpt lat="45.52877" lon="6.7679">
        <ele>1679.8</ele>
        <time>2021-08-03T10:15:09Z</time>
      </trkpt>
      <trkpt lat="45.52878" lon="6.76791">
        <ele>1679.7</ele>
        <time>2021-08-03T10:15:10Z</time>
      </trkpt>
      <trkpt lat="45.52878" lon="6.76791">
        <ele>1679.6</ele>
        <time>2021-08-03T10:15:11Z</time>
      </trkpt>
      <trkpt lat="45.52878" lon="6.76791">
        <ele>1679.6</ele>
        <time>2021-08-03T10:15:12Z</time>
      </trkpt>
      <trkpt lat="45.52878" lon="6.76791">
        <ele>1679.4</ele>
        <time>2021-08-03T10:15:13Z</time>
      </trkpt>
      <trkpt lat="45.52879" lon="6.76791">
        <ele>1679.4</ele>
        <time>2021-08-03T10:15:14Z</time>
      </trkpt>
      <trkpt lat="45.52879" lon="6.76791">
        <ele>1679.3</ele>
        <time>2021-08-03T10:15:15Z</time>
      </trkpt>
      <trkpt lat="45.52879" lon="6.76791">
        <ele>1679.2</ele>
        <time>2021-08-03T10:15:16Z</time>
      </trkpt>
      <trkpt lat="45.5288" lon="6.76792">
        <ele>1678.9</ele>
        <time>2021-08-03T10:15:17Z</time>
      </trkpt>
      <trkpt lat="45.5288" lon="6.76792">
        <ele>1678.6</ele>
        <time>2021-08-03T10:15:18Z</time>
      </trkpt>
      <trkpt lat="45.52881" lon="6.76793">
        <ele>1678.4</ele>
        <time>2021-08-03T10:15:19Z</time>
      </trkpt>
      <trkpt lat="45.52881" lon="6.76793">
        <ele>1678.3</ele>
        <time>2021-08-03T10:15:20Z</time>
      </trkpt>
      <trkpt lat="45.52882" lon="6.76793">
        <ele>1678.1</ele>
        <time>2021-08-03T10:15:21Z</time>
      </trkpt>
      <trkpt lat="45.52882" lon="6.76794">
        <ele>1678</ele>
        <time>2021-08-03T10:15:22Z</time>
      </trkpt>
      <trkpt lat="45.52882" lon="6.76794">
        <ele>1678</ele>
        <time>2021-08-03T10:15:23Z</time>
      </trkpt>
      <trkpt lat="45.52882" lon="6.76794">
        <ele>1677.9</ele>
        <time>2021-08-03T10:15:24Z</time>
      </trkpt>
      <trkpt lat="45.52882" lon="6.76794">
        <ele>1677.8</ele>
        <time>2021-08-03T10:15:25Z</time>
      </trkpt>
      <trkpt lat="45.52883" lon="6.76794">
        <ele>1677.7</ele>
        <time>2021-08-03T10:15:26Z</time>
      </trkpt>
      <trkpt lat="45.52883" lon="6.76794">
        <ele>1677.6</ele>
        <time>2021-08-03T10:15:27Z</time>
      </trkpt>
      <trkpt lat="45.52884" lon="6.76794">
        <ele>1677.4</ele>
        <time>2021-08-03T10:15:28Z</time>
      </trkpt>
      <trkpt lat="45.52884" lon="6.76794">
        <ele>1677.2</ele>
        <time>2021-08-03T10:15:29Z</time>
      </trkpt>
      <trkpt lat="45.52885" lon="6.76794">
        <ele>1676.9</ele>
        <time>2021-08-03T10:15:30Z</time>
      </trkpt>
      <trkpt lat="45.52885" lon="6.76794">
        <ele>1676.7</ele>
        <time>2021-08-03T10:15:31Z</time>
      </trkpt>
      <trkpt lat="45.52886" lon="6.76793">
        <ele>1676.5</ele>
        <time>2021-08-03T10:15:32Z</time>
      </trkpt>
      <trkpt lat="45.52887" lon="6.76793">
        <ele>1676.3</ele>
        <time>2021-08-03T10:15:33Z</time>
      </trkpt>
      <trkpt lat="45.52887" lon="6.76793">
        <ele>1676.1</ele>
        <time>2021-08-03T10:15:34Z</time>
      </trkpt>
      <trkpt lat="45.52887" lon="6.76793">
        <ele>1675.9</ele>
        <time>2021-08-03T10:15:35Z</time>
      </trkpt>
      <trkpt lat="45.52888" lon="6.76793">
        <ele>1675.8</ele>
        <time>2021-08-03T10:15:36Z</time>
      </trkpt>
      <trkpt lat="45.52888" lon="6.76793">
        <ele>1675.8</ele>
        <time>2021-08-03T10:15:37Z</time>
      </trkpt>
      <trkpt lat="45.52888" lon="6.76793">
        <ele>1675.8</ele>
        <time>2021-08-03T10:15:38Z</time>
      </trkpt>
      <trkpt lat="45.52888" lon="6.76793">
        <ele>1675.8</ele>
        <time>2021-08-03T10:15:39Z</time>
      </trkpt>
      <trkpt lat="45.52888" lon="6.76793">
        <ele>1675.8</ele>
        <time>2021-08-03T10:15:40Z</time>
      </trkpt>
      <trkpt lat="45.52888" lon="6.76793">
        <ele>1675.8</ele>
        <time>2021-08-03T10:15:41Z</time>
      </trkpt>
      <trkpt lat="45.52888" lon="6.76793">
        <ele>1675.7</ele>
        <time>2021-08-03T10:15:42Z</time>
      </trkpt>
      <trkpt lat="45.52888" lon="6.76793">
        <ele>1675.7</ele>
        <time>2021-08-03T10:15:43Z</time>
      </trkpt>
      <trkpt lat="45.52888" lon="6.76793">
        <ele>1675.5</ele>
        <time>2021-08-03T10:15:44Z</time>
      </trkpt>
      <trkpt lat="45.52889" lon="6.76793">
        <ele>1675.3</ele>
        <time>2021-08-03T10:15:45Z</time>
      </trkpt>
      <trkpt lat="45.5289" lon="6.76793">
        <ele>1674.9</ele>
        <time>2021-08-03T10:15:46Z</time>
      </trkpt>
      <trkpt lat="45.52891" lon="6.76794">
        <ele>1674.6</ele>
        <time>2021-08-03T10:15:47Z</time>
      </trkpt>
      <trkpt lat="45.52891" lon="6.76794">
        <ele>1674.4</ele>
        <time>2021-08-03T10:15:48Z</time>
      </trkpt>
      <trkpt lat="45.52892" lon="6.76793">
        <ele>1674.2</ele>
        <time>2021-08-03T10:15:49Z</time>
      </trkpt>
      <trkpt lat="45.52892" lon="6.76793">
        <ele>1674.1</ele>
        <time>2021-08-03T10:15:50Z</time>
      </trkpt>
      <trkpt lat="45.52892" lon="6.76793">
        <ele>1674.1</ele>
        <time>2021-08-03T10:15:51Z</time>
      </trkpt>
      <trkpt lat="45.52892" lon="6.76794">
        <ele>1674</ele>
        <time>2021-08-03T10:15:52Z</time>
      </trkpt>
      <trkpt lat="45.52893" lon="6.76794">
        <ele>1673.9</ele>
        <time>2021-08-03T10:15:53Z</time>
      </trkpt>
      <trkpt lat="45.52893" lon="6.76794">
        <ele>1673.8</ele>
        <time>2021-08-03T10:15:54Z</time>
      </trkpt>
      <trkpt lat="45.52894" lon="6.76794">
        <ele>1673.5</ele>
        <time>2021-08-03T10:15:55Z</time>
      </trkpt>
      <trkpt lat="45.52894" lon="6.76795">
        <ele>1673.2</ele>
        <time>2021-08-03T10:15:56Z</time>
      </trkpt>
      <trkpt lat="45.52895" lon="6.76795">
        <ele>1672.9</ele>
        <time>2021-08-03T10:15:57Z</time>
      </trkpt>
      <trkpt lat="45.52896" lon="6.76796">
        <ele>1672.6</ele>
        <time>2021-08-03T10:15:58Z</time>
      </trkpt>
      <trkpt lat="45.52896" lon="6.76796">
        <ele>1672.3</ele>
        <time>2021-08-03T10:15:59Z</time>
      </trkpt>
      <trkpt lat="45.52897" lon="6.76796">
        <ele>1672</ele>
        <time>2021-08-03T10:16:00Z</time>
      </trkpt>
      <trkpt lat="45.52898" lon="6.76796">
        <ele>1671.8</ele>
        <time>2021-08-03T10:16:01Z</time>
      </trkpt>
      <trkpt lat="45.52898" lon="6.76797">
        <ele>1671.5</ele>
        <time>2021-08-03T10:16:02Z</time>
      </trkpt>
      <trkpt lat="45.52899" lon="6.76797">
        <ele>1671.3</ele>
        <time>2021-08-03T10:16:03Z</time>
      </trkpt>
      <trkpt lat="45.529" lon="6.76797">
        <ele>1671.1</ele>
        <time>2021-08-03T10:16:04Z</time>
      </trkpt>
      <trkpt lat="45.529" lon="6.76797">
        <ele>1670.9</ele>
        <time>2021-08-03T10:16:05Z</time>
      </trkpt>
      <trkpt lat="45.52901" lon="6.76797">
        <ele>1670.7</ele>
        <time>2021-08-03T10:16:06Z</time>
      </trkpt>
      <trkpt lat="45.52901" lon="6.76797">
        <ele>1670.6</ele>
        <time>2021-08-03T10:16:07Z</time>
      </trkpt>
      <trkpt lat="45.52901" lon="6.76797">
        <ele>1670.5</ele>
        <time>2021-08-03T10:16:08Z</time>
      </trkpt>
      <trkpt lat="45.52901" lon="6.76797">
        <ele>1670.3</ele>
        <time>2021-08-03T10:16:09Z</time>
      </trkpt>
      <trkpt lat="45.52902" lon="6.76797">
        <ele>1670.3</ele>
        <time>2021-08-03T10:16:10Z</time>
      </trkpt>
      <trkpt lat="45.52902" lon="6.76797">
        <ele>1670.3</ele>
        <time>2021-08-03T10:16:11Z</time>
      </trkpt>
      <trkpt lat="45.52902" lon="6.76797">
        <ele>1670.2</ele>
        <time>2021-08-03T10:16:12Z</time>
      </trkpt>
      <trkpt lat="45.52902" lon="6.76797">
        <ele>1670.2</ele>
        <time>2021-08-03T10:16:13Z</time>
      </trkpt>
      <trkpt lat="45.52902" lon="6.76797">
        <ele>1670.2</ele>
        <time>2021-08-03T10:16:14Z</time>
      </trkpt>
      <trkpt lat="45.52902" lon="6.76797">
        <ele>1670.2</ele>
        <time>2021-08-03T10:16:15Z</time>
      </trkpt>
      <trkpt lat="45.52902" lon="6.76797">
        <ele>1670.2</ele>
        <time>2021-08-03T10:16:16Z</time>
      </trkpt>
      <trkpt lat="45.52902" lon="6.76797">
        <ele>1670.2</ele>
        <time>2021-08-03T10:16:17Z</time>
      </trkpt>
      <trkpt lat="45.52902" lon="6.76797">
        <ele>1670.2</ele>
        <time>2021-08-03T10:16:18Z</time>
      </trkpt>
      <trkpt lat="45.52902" lon="6.76797">
        <ele>1670.1</ele>
        <time>2021-08-03T10:16:19Z</time>
      </trkpt>
      <trkpt lat="45.52902" lon="6.76797">
        <ele>1670.1</ele>
        <time>2021-08-03T10:16:20Z</time>
      </trkpt>
      <trkpt lat="45.52902" lon="6.76797">
        <ele>1670.1</ele>
        <time>2021-08-03T10:16:21Z</time>
      </trkpt>
      <trkpt lat="45.52902" lon="6.76797">
        <ele>1670.1</ele>
        <time>2021-08-03T10:16:22Z</time>
      </trkpt>
      <trkpt lat="45.52902" lon="6.76797">
        <ele>1670.1</ele>
        <time>2021-08-03T10:16:23Z</time>
      </trkpt>
      <trkpt lat="45.52902" lon="6.76797">
        <ele>1670</ele>
        <time>2021-08-03T10:16:24Z</time>
      </trkpt>
      <trkpt lat="45.52902" lon="6.76797">
        <ele>1670</ele>
        <time>2021-08-03T10:16:25Z</time>
      </trkpt>
      <trkpt lat="45.52902" lon="6.76797">
        <ele>1669.9</ele>
        <time>2021-08-03T10:16:26Z</time>
      </trkpt>
      <trkpt lat="45.52902" lon="6.76797">
        <ele>1669.8</ele>
        <time>2021-08-03T10:16:27Z</time>
      </trkpt>
      <trkpt lat="45.52902" lon="6.76797">
        <ele>1669.8</ele>
        <time>2021-08-03T10:16:28Z</time>
      </trkpt>
      <trkpt lat="45.52903" lon="6.76797">
        <ele>1669.6</ele>
        <time>2021-08-03T10:16:29Z</time>
      </trkpt>
      <trkpt lat="45.52903" lon="6.76797">
        <ele>1669.6</ele>
        <time>2021-08-03T10:16:30Z</time>
      </trkpt>
      <trkpt lat="45.52903" lon="6.76797">
        <ele>1669.5</ele>
        <time>2021-08-03T10:16:31Z</time>
      </trkpt>
      <trkpt lat="45.52903" lon="6.76796">
        <ele>1669.3</ele>
        <time>2021-08-03T10:16:32Z</time>
      </trkpt>
      <trkpt lat="45.52904" lon="6.76796">
        <ele>1669.2</ele>
        <time>2021-08-03T10:16:33Z</time>
      </trkpt>
      <trkpt lat="45.52904" lon="6.76796">
        <ele>1669.1</ele>
        <time>2021-08-03T10:16:34Z</time>
      </trkpt>
      <trkpt lat="45.52904" lon="6.76796">
        <ele>1669</ele>
        <time>2021-08-03T10:16:35Z</time>
      </trkpt>
      <trkpt lat="45.52904" lon="6.76796">
        <ele>1668.9</ele>
        <time>2021-08-03T10:16:36Z</time>
      </trkpt>
      <trkpt lat="45.52905" lon="6.76796">
        <ele>1668.8</ele>
        <time>2021-08-03T10:16:37Z</time>
      </trkpt>
      <trkpt lat="45.52905" lon="6.76796">
        <ele>1668.7</ele>
        <time>2021-08-03T10:16:38Z</time>
      </trkpt>
      <trkpt lat="45.52905" lon="6.76796">
        <ele>1668.6</ele>
        <time>2021-08-03T10:16:39Z</time>
      </trkpt>
      <trkpt lat="45.52905" lon="6.76797">
        <ele>1668.4</ele>
        <time>2021-08-03T10:16:40Z</time>
      </trkpt>
      <trkpt lat="45.52905" lon="6.76797">
        <ele>1668.3</ele>
        <time>2021-08-03T10:16:41Z</time>
      </trkpt>
      <trkpt lat="45.52906" lon="6.76798">
        <ele>1668.1</ele>
        <time>2021-08-03T10:16:42Z</time>
      </trkpt>
      <trkpt lat="45.52906" lon="6.76798">
        <ele>1667.9</ele>
        <time>2021-08-03T10:16:43Z</time>
      </trkpt>
      <trkpt lat="45.52906" lon="6.76799">
        <ele>1667.6</ele>
        <time>2021-08-03T10:16:44Z</time>
      </trkpt>
      <trkpt lat="45.52906" lon="6.768">
        <ele>1667.4</ele>
        <time>2021-08-03T10:16:45Z</time>
      </trkpt>
      <trkpt lat="45.52907" lon="6.768">
        <ele>1667.3</ele>
        <time>2021-08-03T10:16:46Z</time>
      </trkpt>
      <trkpt lat="45.52907" lon="6.768">
        <ele>1667.1</ele>
        <time>2021-08-03T10:16:47Z</time>
      </trkpt>
      <trkpt lat="45.52908" lon="6.76801">
        <ele>1666.9</ele>
        <time>2021-08-03T10:16:48Z</time>
      </trkpt>
      <trkpt lat="45.52908" lon="6.76801">
        <ele>1666.7</ele>
        <time>2021-08-03T10:16:49Z</time>
      </trkpt>
      <trkpt lat="45.52909" lon="6.76801">
        <ele>1666.5</ele>
        <time>2021-08-03T10:16:50Z</time>
      </trkpt>
      <trkpt lat="45.52909" lon="6.76801">
        <ele>1666.4</ele>
        <time>2021-08-03T10:16:51Z</time>
      </trkpt>
      <trkpt lat="45.52909" lon="6.768">
        <ele>1666.2</ele>
        <time>2021-08-03T10:16:52Z</time>
      </trkpt>
      <trkpt lat="45.5291" lon="6.768">
        <ele>1666</ele>
        <time>2021-08-03T10:16:53Z</time>
      </trkpt>
      <trkpt lat="45.5291" lon="6.768">
        <ele>1665.8</ele>
        <time>2021-08-03T10:16:54Z</time>
      </trkpt>
      <trkpt lat="45.5291" lon="6.768">
        <ele>1665.7</ele>
        <time>2021-08-03T10:16:55Z</time>
      </trkpt>
      <trkpt lat="45.52911" lon="6.768">
        <ele>1665.6</ele>
        <time>2021-08-03T10:16:56Z</time>
      </trkpt>
      <trkpt lat="45.52911" lon="6.768">
        <ele>1665.5</ele>
        <time>2021-08-03T10:16:57Z</time>
      </trkpt>
      <trkpt lat="45.52911" lon="6.768">
        <ele>1665.4</ele>
        <time>2021-08-03T10:16:58Z</time>
      </trkpt>
      <trkpt lat="45.52911" lon="6.76799">
        <ele>1665.4</ele>
        <time>2021-08-03T10:16:59Z</time>
      </trkpt>
      <trkpt lat="45.52911" lon="6.76799">
        <ele>1665.4</ele>
        <time>2021-08-03T10:17:00Z</time>
      </trkpt>
      <trkpt lat="45.52911" lon="6.76799">
        <ele>1665.3</ele>
        <time>2021-08-03T10:17:01Z</time>
      </trkpt>
      <trkpt lat="45.52911" lon="6.76799">
        <ele>1665.3</ele>
        <time>2021-08-03T10:17:02Z</time>
      </trkpt>
      <trkpt lat="45.52911" lon="6.76799">
        <ele>1665.3</ele>
        <time>2021-08-03T10:17:03Z</time>
      </trkpt>
      <trkpt lat="45.52911" lon="6.76799">
        <ele>1665.3</ele>
        <time>2021-08-03T10:17:04Z</time>
      </trkpt>
      <trkpt lat="45.52911" lon="6.76799">
        <ele>1665.2</ele>
        <time>2021-08-03T10:17:05Z</time>
      </trkpt>
      <trkpt lat="45.52911" lon="6.76799">
        <ele>1665.1</ele>
        <time>2021-08-03T10:17:06Z</time>
      </trkpt>
      <trkpt lat="45.52912" lon="6.76799">
        <ele>1665</ele>
        <time>2021-08-03T10:17:07Z</time>
      </trkpt>
      <trkpt lat="45.52912" lon="6.76799">
        <ele>1664.8</ele>
        <time>2021-08-03T10:17:08Z</time>
      </trkpt>
      <trkpt lat="45.52913" lon="6.76799">
        <ele>1664.6</ele>
        <time>2021-08-03T10:17:09Z</time>
      </trkpt>
      <trkpt lat="45.52913" lon="6.768">
        <ele>1664.3</ele>
        <time>2021-08-03T10:17:10Z</time>
      </trkpt>
      <trkpt lat="45.52914" lon="6.76801">
        <ele>1664</ele>
        <time>2021-08-03T10:17:11Z</time>
      </trkpt>
      <trkpt lat="45.52914" lon="6.76801">
        <ele>1663.8</ele>
        <time>2021-08-03T10:17:12Z</time>
      </trkpt>
      <trkpt lat="45.52915" lon="6.76802">
        <ele>1663.5</ele>
        <time>2021-08-03T10:17:13Z</time>
      </trkpt>
      <trkpt lat="45.52915" lon="6.76802">
        <ele>1663.2</ele>
        <time>2021-08-03T10:17:14Z</time>
      </trkpt>
      <trkpt lat="45.52916" lon="6.76802">
        <ele>1663</ele>
        <time>2021-08-03T10:17:15Z</time>
      </trkpt>
      <trkpt lat="45.52916" lon="6.76803">
        <ele>1662.8</ele>
        <time>2021-08-03T10:17:16Z</time>
      </trkpt>
      <trkpt lat="45.52917" lon="6.76803">
        <ele>1662.5</ele>
        <time>2021-08-03T10:17:17Z</time>
      </trkpt>
      <trkpt lat="45.52917" lon="6.76804">
        <ele>1662.3</ele>
        <time>2021-08-03T10:17:18Z</time>
      </trkpt>
      <trkpt lat="45.52918" lon="6.76804">
        <ele>1662.1</ele>
        <time>2021-08-03T10:17:19Z</time>
      </trkpt>
      <trkpt lat="45.52918" lon="6.76805">
        <ele>1662</ele>
        <time>2021-08-03T10:17:20Z</time>
      </trkpt>
      <trkpt lat="45.52918" lon="6.76805">
        <ele>1661.8</ele>
        <time>2021-08-03T10:17:21Z</time>
      </trkpt>
      <trkpt lat="45.52918" lon="6.76805">
        <ele>1661.7</ele>
        <time>2021-08-03T10:17:22Z</time>
      </trkpt>
      <trkpt lat="45.52919" lon="6.76806">
        <ele>1661.6</ele>
        <time>2021-08-03T10:17:23Z</time>
      </trkpt>
      <trkpt lat="45.52919" lon="6.76806">
        <ele>1661.5</ele>
        <time>2021-08-03T10:17:24Z</time>
      </trkpt>
      <trkpt lat="45.52919" lon="6.76806">
        <ele>1661.5</ele>
        <time>2021-08-03T10:17:25Z</time>
      </trkpt>
      <trkpt lat="45.52918" lon="6.76806">
        <ele>1661.5</ele>
        <time>2021-08-03T10:17:26Z</time>
      </trkpt>
      <trkpt lat="45.52918" lon="6.76805">
        <ele>1661.4</ele>
        <time>2021-08-03T10:17:27Z</time>
      </trkpt>
      <trkpt lat="45.52918" lon="6.76805">
        <ele>1661.2</ele>
        <time>2021-08-03T10:17:28Z</time>
      </trkpt>
      <trkpt lat="45.52918" lon="6.76804">
        <ele>1661.1</ele>
        <time>2021-08-03T10:17:29Z</time>
      </trkpt>
      <trkpt lat="45.52918" lon="6.76804">
        <ele>1660.9</ele>
        <time>2021-08-03T10:17:30Z</time>
      </trkpt>
      <trkpt lat="45.52917" lon="6.76803">
        <ele>1660.5</ele>
        <time>2021-08-03T10:17:31Z</time>
      </trkpt>
      <trkpt lat="45.52916" lon="6.76798">
        <ele>1659.1</ele>
        <time>2021-08-03T10:17:32Z</time>
      </trkpt>
      <trkpt lat="45.52915" lon="6.76795">
        <ele>1658.1</ele>
        <time>2021-08-03T10:17:33Z</time>
      </trkpt>
      <trkpt lat="45.52914" lon="6.76793">
        <ele>1657.6</ele>
        <time>2021-08-03T10:17:34Z</time>
      </trkpt>
      <trkpt lat="45.52914" lon="6.76792">
        <ele>1657.3</ele>
        <time>2021-08-03T10:17:35Z</time>
      </trkpt>
      <trkpt lat="45.52914" lon="6.76791">
        <ele>1657.1</ele>
        <time>2021-08-03T10:17:36Z</time>
      </trkpt>
      <trkpt lat="45.52914" lon="6.7679">
        <ele>1656.9</ele>
        <time>2021-08-03T10:17:37Z</time>
      </trkpt>
      <trkpt lat="45.52914" lon="6.7679">
        <ele>1656.9</ele>
        <time>2021-08-03T10:17:38Z</time>
      </trkpt>
      <trkpt lat="45.52914" lon="6.7679">
        <ele>1656.8</ele>
        <time>2021-08-03T10:17:39Z</time>
      </trkpt>
      <trkpt lat="45.52914" lon="6.76789">
        <ele>1656.8</ele>
        <time>2021-08-03T10:17:40Z</time>
      </trkpt>
      <trkpt lat="45.52914" lon="6.76789">
        <ele>1656.8</ele>
        <time>2021-08-03T10:17:41Z</time>
      </trkpt>
      <trkpt lat="45.52914" lon="6.76789">
        <ele>1656.8</ele>
        <time>2021-08-03T10:17:42Z</time>
      </trkpt>
      <trkpt lat="45.52914" lon="6.76789">
        <ele>1656.8</ele>
        <time>2021-08-03T10:17:43Z</time>
      </trkpt>
      <trkpt lat="45.52914" lon="6.76789">
        <ele>1656.8</ele>
        <time>2021-08-03T10:17:44Z</time>
      </trkpt>
      <trkpt lat="45.52914" lon="6.76789">
        <ele>1656.8</ele>
        <time>2021-08-03T10:17:45Z</time>
      </trkpt>
      <trkpt lat="45.52914" lon="6.76789">
        <ele>1656.8</ele>
        <time>2021-08-03T10:17:46Z</time>
      </trkpt>
      <trkpt lat="45.52914" lon="6.76789">
        <ele>1656.8</ele>
        <time>2021-08-03T10:17:47Z</time>
      </trkpt>
      <trkpt lat="45.52914" lon="6.76789">
        <ele>1656.8</ele>
        <time>2021-08-03T10:17:48Z</time>
      </trkpt>
      <trkpt lat="45.52914" lon="6.76789">
        <ele>1656.8</ele>
        <time>2021-08-03T10:17:49Z</time>
      </trkpt>
      <trkpt lat="45.52914" lon="6.76789">
        <ele>1656.8</ele>
        <time>2021-08-03T10:17:50Z</time>
      </trkpt>
      <trkpt lat="45.52914" lon="6.76789">
        <ele>1656.7</ele>
        <time>2021-08-03T10:17:51Z</time>
      </trkpt>
      <trkpt lat="45.52914" lon="6.76789">
        <ele>1656.5</ele>
        <time>2021-08-03T10:17:52Z</time>
      </trkpt>
      <trkpt lat="45.52914" lon="6.76787">
        <ele>1656.3</ele>
        <time>2021-08-03T10:17:53Z</time>
      </trkpt>
      <trkpt lat="45.52914" lon="6.76785">
        <ele>1655.8</ele>
        <time>2021-08-03T10:17:54Z</time>
      </trkpt>
      <trkpt lat="45.52914" lon="6.76784">
        <ele>1655.4</ele>
        <time>2021-08-03T10:17:55Z</time>
      </trkpt>
      <trkpt lat="45.52915" lon="6.76782">
        <ele>1655</ele>
        <time>2021-08-03T10:17:56Z</time>
      </trkpt>
      <trkpt lat="45.52916" lon="6.76781">
        <ele>1654.7</ele>
        <time>2021-08-03T10:17:57Z</time>
      </trkpt>
      <trkpt lat="45.52916" lon="6.7678">
        <ele>1654.4</ele>
        <time>2021-08-03T10:17:58Z</time>
      </trkpt>
      <trkpt lat="45.52917" lon="6.76779">
        <ele>1654.2</ele>
        <time>2021-08-03T10:17:59Z</time>
      </trkpt>
      <trkpt lat="45.52917" lon="6.76779">
        <ele>1653.9</ele>
        <time>2021-08-03T10:18:00Z</time>
      </trkpt>
      <trkpt lat="45.52917" lon="6.76778">
        <ele>1653.7</ele>
        <time>2021-08-03T10:18:01Z</time>
      </trkpt>
      <trkpt lat="45.52918" lon="6.76777">
        <ele>1653.5</ele>
        <time>2021-08-03T10:18:02Z</time>
      </trkpt>
      <trkpt lat="45.52918" lon="6.76776">
        <ele>1653.3</ele>
        <time>2021-08-03T10:18:03Z</time>
      </trkpt>
      <trkpt lat="45.52918" lon="6.76776">
        <ele>1653.1</ele>
        <time>2021-08-03T10:18:04Z</time>
      </trkpt>
      <trkpt lat="45.52919" lon="6.76775">
        <ele>1652.9</ele>
        <time>2021-08-03T10:18:05Z</time>
      </trkpt>
      <trkpt lat="45.52919" lon="6.76774">
        <ele>1652.8</ele>
        <time>2021-08-03T10:18:06Z</time>
      </trkpt>
      <trkpt lat="45.52919" lon="6.76774">
        <ele>1652.6</ele>
        <time>2021-08-03T10:18:07Z</time>
      </trkpt>
      <trkpt lat="45.5292" lon="6.76773">
        <ele>1652.4</ele>
        <time>2021-08-03T10:18:08Z</time>
      </trkpt>
      <trkpt lat="45.5292" lon="6.76772">
        <ele>1652.3</ele>
        <time>2021-08-03T10:18:09Z</time>
      </trkpt>
      <trkpt lat="45.5292" lon="6.76772">
        <ele>1652.1</ele>
        <time>2021-08-03T10:18:10Z</time>
      </trkpt>
      <trkpt lat="45.52921" lon="6.76771">
        <ele>1651.9</ele>
        <time>2021-08-03T10:18:11Z</time>
      </trkpt>
      <trkpt lat="45.52921" lon="6.76771">
        <ele>1651.8</ele>
        <time>2021-08-03T10:18:12Z</time>
      </trkpt>
      <trkpt lat="45.52922" lon="6.7677">
        <ele>1651.6</ele>
        <time>2021-08-03T10:18:13Z</time>
      </trkpt>
      <trkpt lat="45.52922" lon="6.7677">
        <ele>1651.4</ele>
        <time>2021-08-03T10:18:14Z</time>
      </trkpt>
      <trkpt lat="45.52923" lon="6.7677">
        <ele>1651.2</ele>
        <time>2021-08-03T10:18:15Z</time>
      </trkpt>
      <trkpt lat="45.52923" lon="6.76769">
        <ele>1651.1</ele>
        <time>2021-08-03T10:18:16Z</time>
      </trkpt>
      <trkpt lat="45.52924" lon="6.76769">
        <ele>1650.8</ele>
        <time>2021-08-03T10:18:17Z</time>
      </trkpt>
      <trkpt lat="45.52924" lon="6.76769">
        <ele>1650.7</ele>
        <time>2021-08-03T10:18:18Z</time>
      </trkpt>
      <trkpt lat="45.52925" lon="6.76768">
        <ele>1650.5</ele>
        <time>2021-08-03T10:18:19Z</time>
      </trkpt>
      <trkpt lat="45.52925" lon="6.76768">
        <ele>1650.4</ele>
        <time>2021-08-03T10:18:20Z</time>
      </trkpt>
      <trkpt lat="45.52925" lon="6.76768">
        <ele>1650.3</ele>
        <time>2021-08-03T10:18:21Z</time>
      </trkpt>
      <trkpt lat="45.52926" lon="6.76768">
        <ele>1650.2</ele>
        <time>2021-08-03T10:18:22Z</time>
      </trkpt>
      <trkpt lat="45.52926" lon="6.76767">
        <ele>1650.2</ele>
        <time>2021-08-03T10:18:23Z</time>
      </trkpt>
      <trkpt lat="45.52926" lon="6.76767">
        <ele>1650.1</ele>
        <time>2021-08-03T10:18:24Z</time>
      </trkpt>
      <trkpt lat="45.52926" lon="6.76767">
        <ele>1650.1</ele>
        <time>2021-08-03T10:18:25Z</time>
      </trkpt>
      <trkpt lat="45.52926" lon="6.76767">
        <ele>1650.1</ele>
        <time>2021-08-03T10:18:26Z</time>
      </trkpt>
      <trkpt lat="45.52926" lon="6.76767">
        <ele>1650.1</ele>
        <time>2021-08-03T10:18:27Z</time>
      </trkpt>
      <trkpt lat="45.52926" lon="6.76767">
        <ele>1650</ele>
        <time>2021-08-03T10:18:28Z</time>
      </trkpt>
      <trkpt lat="45.52926" lon="6.76767">
        <ele>1649.9</ele>
        <time>2021-08-03T10:18:29Z</time>
      </trkpt>
      <trkpt lat="45.52927" lon="6.76767">
        <ele>1649.7</ele>
        <time>2021-08-03T10:18:30Z</time>
      </trkpt>
      <trkpt lat="45.52928" lon="6.76766">
        <ele>1649.4</ele>
        <time>2021-08-03T10:18:31Z</time>
      </trkpt>
      <trkpt lat="45.52928" lon="6.76767">
        <ele>1649.2</ele>
        <time>2021-08-03T10:18:32Z</time>
      </trkpt>
      <trkpt lat="45.52929" lon="6.76767">
        <ele>1649.1</ele>
        <time>2021-08-03T10:18:33Z</time>
      </trkpt>
      <trkpt lat="45.5293" lon="6.76768">
        <ele>1648.8</ele>
        <time>2021-08-03T10:18:34Z</time>
      </trkpt>
      <trkpt lat="45.5293" lon="6.76768">
        <ele>1648.7</ele>
        <time>2021-08-03T10:18:35Z</time>
      </trkpt>
      <trkpt lat="45.52931" lon="6.76768">
        <ele>1648.5</ele>
        <time>2021-08-03T10:18:36Z</time>
      </trkpt>
      <trkpt lat="45.52931" lon="6.76768">
        <ele>1648.3</ele>
        <time>2021-08-03T10:18:37Z</time>
      </trkpt>
      <trkpt lat="45.52932" lon="6.76768">
        <ele>1648.1</ele>
        <time>2021-08-03T10:18:38Z</time>
      </trkpt>
      <trkpt lat="45.52932" lon="6.76767">
        <ele>1647.9</ele>
        <time>2021-08-03T10:18:39Z</time>
      </trkpt>
      <trkpt lat="45.52933" lon="6.76767">
        <ele>1647.6</ele>
        <time>2021-08-03T10:18:40Z</time>
      </trkpt>
      <trkpt lat="45.52933" lon="6.76765">
        <ele>1647.3</ele>
        <time>2021-08-03T10:18:41Z</time>
      </trkpt>
      <trkpt lat="45.52934" lon="6.76764">
        <ele>1647</ele>
        <time>2021-08-03T10:18:42Z</time>
      </trkpt>
      <trkpt lat="45.52934" lon="6.76763">
        <ele>1646.7</ele>
        <time>2021-08-03T10:18:43Z</time>
      </trkpt>
      <trkpt lat="45.52935" lon="6.76762">
        <ele>1646.4</ele>
        <time>2021-08-03T10:18:44Z</time>
      </trkpt>
      <trkpt lat="45.52935" lon="6.7676">
        <ele>1646</ele>
        <time>2021-08-03T10:18:45Z</time>
      </trkpt>
      <trkpt lat="45.52935" lon="6.76759">
        <ele>1645.7</ele>
        <time>2021-08-03T10:18:46Z</time>
      </trkpt>
      <trkpt lat="45.52935" lon="6.76757">
        <ele>1645.4</ele>
        <time>2021-08-03T10:18:47Z</time>
      </trkpt>
      <trkpt lat="45.52935" lon="6.76756">
        <ele>1645.1</ele>
        <time>2021-08-03T10:18:48Z</time>
      </trkpt>
      <trkpt lat="45.52935" lon="6.76755">
        <ele>1644.8</ele>
        <time>2021-08-03T10:18:49Z</time>
      </trkpt>
      <trkpt lat="45.52935" lon="6.76754">
        <ele>1644.4</ele>
        <time>2021-08-03T10:18:50Z</time>
      </trkpt>
      <trkpt lat="45.52935" lon="6.76752">
        <ele>1644.2</ele>
        <time>2021-08-03T10:18:51Z</time>
      </trkpt>
      <trkpt lat="45.52935" lon="6.76752">
        <ele>1644.2</ele>
        <time>2021-08-03T10:18:52Z</time>
      </trkpt>
      <trkpt lat="45.52935" lon="6.76752">
        <ele>1644.1</ele>
        <time>2021-08-03T10:18:53Z</time>
      </trkpt>
      <trkpt lat="45.52936" lon="6.76752">
        <ele>1644</ele>
        <time>2021-08-03T10:18:54Z</time>
      </trkpt>
      <trkpt lat="45.52936" lon="6.76752">
        <ele>1643.9</ele>
        <time>2021-08-03T10:18:55Z</time>
      </trkpt>
      <trkpt lat="45.52936" lon="6.76752">
        <ele>1643.9</ele>
        <time>2021-08-03T10:18:56Z</time>
      </trkpt>
      <trkpt lat="45.52936" lon="6.76752">
        <ele>1643.8</ele>
        <time>2021-08-03T10:18:57Z</time>
      </trkpt>
      <trkpt lat="45.52936" lon="6.76752">
        <ele>1643.8</ele>
        <time>2021-08-03T10:18:58Z</time>
      </trkpt>
      <trkpt lat="45.52936" lon="6.76752">
        <ele>1643.7</ele>
        <time>2021-08-03T10:18:59Z</time>
      </trkpt>
      <trkpt lat="45.52937" lon="6.76752">
        <ele>1643.7</ele>
        <time>2021-08-03T10:19:00Z</time>
      </trkpt>
      <trkpt lat="45.52937" lon="6.76752">
        <ele>1643.6</ele>
        <time>2021-08-03T10:19:01Z</time>
      </trkpt>
      <trkpt lat="45.52937" lon="6.76752">
        <ele>1643.5</ele>
        <time>2021-08-03T10:19:02Z</time>
      </trkpt>
      <trkpt lat="45.52937" lon="6.76752">
        <ele>1643.5</ele>
        <time>2021-08-03T10:19:03Z</time>
      </trkpt>
      <trkpt lat="45.52937" lon="6.76752">
        <ele>1643.4</ele>
        <time>2021-08-03T10:19:04Z</time>
      </trkpt>
      <trkpt lat="45.52937" lon="6.76752">
        <ele>1643.4</ele>
        <time>2021-08-03T10:19:05Z</time>
      </trkpt>
      <trkpt lat="45.52938" lon="6.76752">
        <ele>1643.3</ele>
        <time>2021-08-03T10:19:06Z</time>
      </trkpt>
      <trkpt lat="45.52938" lon="6.76752">
        <ele>1643.3</ele>
        <time>2021-08-03T10:19:07Z</time>
      </trkpt>
      <trkpt lat="45.52938" lon="6.76752">
        <ele>1643.2</ele>
        <time>2021-08-03T10:19:08Z</time>
      </trkpt>
      <trkpt lat="45.52938" lon="6.76752">
        <ele>1643.1</ele>
        <time>2021-08-03T10:19:09Z</time>
      </trkpt>
      <trkpt lat="45.52938" lon="6.76752">
        <ele>1643.1</ele>
        <time>2021-08-03T10:19:10Z</time>
      </trkpt>
      <trkpt lat="45.52938" lon="6.76752">
        <ele>1643</ele>
        <time>2021-08-03T10:19:11Z</time>
      </trkpt>
      <trkpt lat="45.52939" lon="6.76752">
        <ele>1642.9</ele>
        <time>2021-08-03T10:19:12Z</time>
      </trkpt>
      <trkpt lat="45.52939" lon="6.76752">
        <ele>1642.9</ele>
        <time>2021-08-03T10:19:13Z</time>
      </trkpt>
      <trkpt lat="45.52939" lon="6.76752">
        <ele>1642.8</ele>
        <time>2021-08-03T10:19:14Z</time>
      </trkpt>
      <trkpt lat="45.52939" lon="6.76752">
        <ele>1642.8</ele>
        <time>2021-08-03T10:19:15Z</time>
      </trkpt>
      <trkpt lat="45.52939" lon="6.76752">
        <ele>1642.7</ele>
        <time>2021-08-03T10:19:16Z</time>
      </trkpt>
      <trkpt lat="45.5294" lon="6.76752">
        <ele>1642.6</ele>
        <time>2021-08-03T10:19:17Z</time>
      </trkpt>
      <trkpt lat="45.5294" lon="6.76752">
        <ele>1642.6</ele>
        <time>2021-08-03T10:19:18Z</time>
      </trkpt>
      <trkpt lat="45.5294" lon="6.76752">
        <ele>1642.5</ele>
        <time>2021-08-03T10:19:19Z</time>
      </trkpt>
      <trkpt lat="45.52941" lon="6.76754">
        <ele>1642.1</ele>
        <time>2021-08-03T10:19:20Z</time>
      </trkpt>
      <trkpt lat="45.52941" lon="6.76755">
        <ele>1641.7</ele>
        <time>2021-08-03T10:19:21Z</time>
      </trkpt>
      <trkpt lat="45.52942" lon="6.76756">
        <ele>1641.3</ele>
        <time>2021-08-03T10:19:22Z</time>
      </trkpt>
      <trkpt lat="45.52943" lon="6.76757">
        <ele>1640.9</ele>
        <time>2021-08-03T10:19:23Z</time>
      </trkpt>
      <trkpt lat="45.52943" lon="6.76758">
        <ele>1640.6</ele>
        <time>2021-08-03T10:19:24Z</time>
      </trkpt>
      <trkpt lat="45.52944" lon="6.76759">
        <ele>1640.3</ele>
        <time>2021-08-03T10:19:25Z</time>
      </trkpt>
      <trkpt lat="45.52945" lon="6.7676">
        <ele>1640</ele>
        <time>2021-08-03T10:19:26Z</time>
      </trkpt>
      <trkpt lat="45.52945" lon="6.76761">
        <ele>1639.7</ele>
        <time>2021-08-03T10:19:27Z</time>
      </trkpt>
      <trkpt lat="45.52945" lon="6.76762">
        <ele>1639.5</ele>
        <time>2021-08-03T10:19:28Z</time>
      </trkpt>
      <trkpt lat="45.52946" lon="6.76762">
        <ele>1639.3</ele>
        <time>2021-08-03T10:19:29Z</time>
      </trkpt>
      <trkpt lat="45.52946" lon="6.76763">
        <ele>1639.1</ele>
        <time>2021-08-03T10:19:30Z</time>
      </trkpt>
      <trkpt lat="45.52947" lon="6.76764">
        <ele>1638.9</ele>
        <time>2021-08-03T10:19:31Z</time>
      </trkpt>
      <trkpt lat="45.52947" lon="6.76764">
        <ele>1638.7</ele>
        <time>2021-08-03T10:19:32Z</time>
      </trkpt>
      <trkpt lat="45.52948" lon="6.76765">
        <ele>1638.5</ele>
        <time>2021-08-03T10:19:33Z</time>
      </trkpt>
      <trkpt lat="45.52948" lon="6.76766">
        <ele>1638.3</ele>
        <time>2021-08-03T10:19:34Z</time>
      </trkpt>
      <trkpt lat="45.52948" lon="6.76767">
        <ele>1638</ele>
        <time>2021-08-03T10:19:35Z</time>
      </trkpt>
      <trkpt lat="45.52949" lon="6.76768">
        <ele>1637.8</ele>
        <time>2021-08-03T10:19:36Z</time>
      </trkpt>
      <trkpt lat="45.52949" lon="6.76769">
        <ele>1637.5</ele>
        <time>2021-08-03T10:19:37Z</time>
      </trkpt>
      <trkpt lat="45.5295" lon="6.7677">
        <ele>1637.3</ele>
        <time>2021-08-03T10:19:38Z</time>
      </trkpt>
      <trkpt lat="45.5295" lon="6.76771">
        <ele>1637.1</ele>
        <time>2021-08-03T10:19:39Z</time>
      </trkpt>
      <trkpt lat="45.52951" lon="6.76772">
        <ele>1636.8</ele>
        <time>2021-08-03T10:19:40Z</time>
      </trkpt>
      <trkpt lat="45.52951" lon="6.76773">
        <ele>1636.6</ele>
        <time>2021-08-03T10:19:41Z</time>
      </trkpt>
      <trkpt lat="45.52951" lon="6.76774">
        <ele>1636.4</ele>
        <time>2021-08-03T10:19:42Z</time>
      </trkpt>
      <trkpt lat="45.52952" lon="6.76774">
        <ele>1636.2</ele>
        <time>2021-08-03T10:19:43Z</time>
      </trkpt>
      <trkpt lat="45.52952" lon="6.76775">
        <ele>1636</ele>
        <time>2021-08-03T10:19:44Z</time>
      </trkpt>
      <trkpt lat="45.52952" lon="6.76776">
        <ele>1635.8</ele>
        <time>2021-08-03T10:19:45Z</time>
      </trkpt>
      <trkpt lat="45.52953" lon="6.76777">
        <ele>1635.6</ele>
        <time>2021-08-03T10:19:46Z</time>
      </trkpt>
      <trkpt lat="45.52953" lon="6.76777">
        <ele>1635.5</ele>
        <time>2021-08-03T10:19:47Z</time>
      </trkpt>
      <trkpt lat="45.52953" lon="6.76778">
        <ele>1635.3</ele>
        <time>2021-08-03T10:19:48Z</time>
      </trkpt>
      <trkpt lat="45.52954" lon="6.76779">
        <ele>1635.2</ele>
        <time>2021-08-03T10:19:49Z</time>
      </trkpt>
      <trkpt lat="45.52954" lon="6.76779">
        <ele>1635.1</ele>
        <time>2021-08-03T10:19:50Z</time>
      </trkpt>
      <trkpt lat="45.52954" lon="6.76779">
        <ele>1635</ele>
        <time>2021-08-03T10:19:51Z</time>
      </trkpt>
      <trkpt lat="45.52954" lon="6.76779">
        <ele>1635</ele>
        <time>2021-08-03T10:19:52Z</time>
      </trkpt>
      <trkpt lat="45.52955" lon="6.76779">
        <ele>1634.9</ele>
        <time>2021-08-03T10:19:53Z</time>
      </trkpt>
      <trkpt lat="45.52955" lon="6.76779">
        <ele>1634.8</ele>
        <time>2021-08-03T10:19:54Z</time>
      </trkpt>
      <trkpt lat="45.52955" lon="6.76778">
        <ele>1634.7</ele>
        <time>2021-08-03T10:19:55Z</time>
      </trkpt>
      <trkpt lat="45.52955" lon="6.76777">
        <ele>1634.5</ele>
        <time>2021-08-03T10:19:56Z</time>
      </trkpt>
      <trkpt lat="45.52956" lon="6.76776">
        <ele>1634.3</ele>
        <time>2021-08-03T10:19:57Z</time>
      </trkpt>
      <trkpt lat="45.52956" lon="6.76775">
        <ele>1634</ele>
        <time>2021-08-03T10:19:58Z</time>
      </trkpt>
      <trkpt lat="45.52956" lon="6.76773">
        <ele>1633.8</ele>
        <time>2021-08-03T10:19:59Z</time>
      </trkpt>
      <trkpt lat="45.52956" lon="6.76772">
        <ele>1633.5</ele>
        <time>2021-08-03T10:20:00Z</time>
      </trkpt>
      <trkpt lat="45.52957" lon="6.76771">
        <ele>1633.3</ele>
        <time>2021-08-03T10:20:01Z</time>
      </trkpt>
      <trkpt lat="45.52957" lon="6.76769">
        <ele>1633</ele>
        <time>2021-08-03T10:20:02Z</time>
      </trkpt>
      <trkpt lat="45.52957" lon="6.76768">
        <ele>1632.8</ele>
        <time>2021-08-03T10:20:03Z</time>
      </trkpt>
      <trkpt lat="45.52957" lon="6.76767">
        <ele>1632.6</ele>
        <time>2021-08-03T10:20:04Z</time>
      </trkpt>
      <trkpt lat="45.52957" lon="6.76766">
        <ele>1632.5</ele>
        <time>2021-08-03T10:20:05Z</time>
      </trkpt>
      <trkpt lat="45.52957" lon="6.76765">
        <ele>1632.3</ele>
        <time>2021-08-03T10:20:06Z</time>
      </trkpt>
      <trkpt lat="45.52957" lon="6.76765">
        <ele>1632.2</ele>
        <time>2021-08-03T10:20:07Z</time>
      </trkpt>
      <trkpt lat="45.52957" lon="6.76764">
        <ele>1632.1</ele>
        <time>2021-08-03T10:20:08Z</time>
      </trkpt>
      <trkpt lat="45.52957" lon="6.76764">
        <ele>1632</ele>
        <time>2021-08-03T10:20:09Z</time>
      </trkpt>
      <trkpt lat="45.52957" lon="6.76763">
        <ele>1631.8</ele>
        <time>2021-08-03T10:20:10Z</time>
      </trkpt>
      <trkpt lat="45.52957" lon="6.76762">
        <ele>1631.7</ele>
        <time>2021-08-03T10:20:11Z</time>
      </trkpt>
      <trkpt lat="45.52957" lon="6.76762">
        <ele>1631.6</ele>
        <time>2021-08-03T10:20:12Z</time>
      </trkpt>
      <trkpt lat="45.52957" lon="6.76761">
        <ele>1631.5</ele>
        <time>2021-08-03T10:20:13Z</time>
      </trkpt>
      <trkpt lat="45.52957" lon="6.7676">
        <ele>1631.3</ele>
        <time>2021-08-03T10:20:14Z</time>
      </trkpt>
      <trkpt lat="45.52957" lon="6.76759">
        <ele>1631.2</ele>
        <time>2021-08-03T10:20:15Z</time>
      </trkpt>
      <trkpt lat="45.52958" lon="6.76759">
        <ele>1631</ele>
        <time>2021-08-03T10:20:16Z</time>
      </trkpt>
      <trkpt lat="45.52958" lon="6.76758">
        <ele>1630.9</ele>
        <time>2021-08-03T10:20:17Z</time>
      </trkpt>
      <trkpt lat="45.52958" lon="6.76758">
        <ele>1630.8</ele>
        <time>2021-08-03T10:20:18Z</time>
      </trkpt>
      <trkpt lat="45.52958" lon="6.76757">
        <ele>1630.7</ele>
        <time>2021-08-03T10:20:19Z</time>
      </trkpt>
      <trkpt lat="45.52958" lon="6.76757">
        <ele>1630.6</ele>
        <time>2021-08-03T10:20:20Z</time>
      </trkpt>
      <trkpt lat="45.52959" lon="6.76757">
        <ele>1630.6</ele>
        <time>2021-08-03T10:20:21Z</time>
      </trkpt>
      <trkpt lat="45.52959" lon="6.76757">
        <ele>1630.5</ele>
        <time>2021-08-03T10:20:22Z</time>
      </trkpt>
      <trkpt lat="45.52959" lon="6.76757">
        <ele>1630.5</ele>
        <time>2021-08-03T10:20:23Z</time>
      </trkpt>
      <trkpt lat="45.52959" lon="6.76757">
        <ele>1630.4</ele>
        <time>2021-08-03T10:20:24Z</time>
      </trkpt>
      <trkpt lat="45.5296" lon="6.76756">
        <ele>1630.3</ele>
        <time>2021-08-03T10:20:25Z</time>
      </trkpt>
      <trkpt lat="45.5296" lon="6.76756">
        <ele>1630.2</ele>
        <time>2021-08-03T10:20:26Z</time>
      </trkpt>
      <trkpt lat="45.5296" lon="6.76756">
        <ele>1630.1</ele>
        <time>2021-08-03T10:20:27Z</time>
      </trkpt>
      <trkpt lat="45.52961" lon="6.76755">
        <ele>1629.9</ele>
        <time>2021-08-03T10:20:28Z</time>
      </trkpt>
      <trkpt lat="45.52961" lon="6.76754">
        <ele>1629.7</ele>
        <time>2021-08-03T10:20:29Z</time>
      </trkpt>
      <trkpt lat="45.52961" lon="6.76753">
        <ele>1629.4</ele>
        <time>2021-08-03T10:20:30Z</time>
      </trkpt>
      <trkpt lat="45.52962" lon="6.76751">
        <ele>1629.2</ele>
        <time>2021-08-03T10:20:31Z</time>
      </trkpt>
      <trkpt lat="45.52962" lon="6.7675">
        <ele>1628.9</ele>
        <time>2021-08-03T10:20:32Z</time>
      </trkpt>
      <trkpt lat="45.52963" lon="6.76749">
        <ele>1628.6</ele>
        <time>2021-08-03T10:20:33Z</time>
      </trkpt>
      <trkpt lat="45.52963" lon="6.76747">
        <ele>1628.4</ele>
        <time>2021-08-03T10:20:34Z</time>
      </trkpt>
      <trkpt lat="45.52963" lon="6.76746">
        <ele>1628.1</ele>
        <time>2021-08-03T10:20:35Z</time>
      </trkpt>
      <trkpt lat="45.52963" lon="6.76745">
        <ele>1627.8</ele>
        <time>2021-08-03T10:20:36Z</time>
      </trkpt>
      <trkpt lat="45.52963" lon="6.76743">
        <ele>1627.6</ele>
        <time>2021-08-03T10:20:37Z</time>
      </trkpt>
      <trkpt lat="45.52963" lon="6.76742">
        <ele>1627.4</ele>
        <time>2021-08-03T10:20:38Z</time>
      </trkpt>
      <trkpt lat="45.52963" lon="6.76741">
        <ele>1627.1</ele>
        <time>2021-08-03T10:20:39Z</time>
      </trkpt>
      <trkpt lat="45.52963" lon="6.7674">
        <ele>1627</ele>
        <time>2021-08-03T10:20:40Z</time>
      </trkpt>
      <trkpt lat="45.52963" lon="6.7674">
        <ele>1626.8</ele>
        <time>2021-08-03T10:20:41Z</time>
      </trkpt>
      <trkpt lat="45.52964" lon="6.76739">
        <ele>1626.5</ele>
        <time>2021-08-03T10:20:42Z</time>
      </trkpt>
      <trkpt lat="45.52964" lon="6.7674">
        <ele>1626.4</ele>
        <time>2021-08-03T10:20:43Z</time>
      </trkpt>
      <trkpt lat="45.52965" lon="6.7674">
        <ele>1626.2</ele>
        <time>2021-08-03T10:20:44Z</time>
      </trkpt>
      <trkpt lat="45.52965" lon="6.76741">
        <ele>1626</ele>
        <time>2021-08-03T10:20:45Z</time>
      </trkpt>
      <trkpt lat="45.52966" lon="6.76741">
        <ele>1625.9</ele>
        <time>2021-08-03T10:20:46Z</time>
      </trkpt>
      <trkpt lat="45.52966" lon="6.76742">
        <ele>1625.7</ele>
        <time>2021-08-03T10:20:47Z</time>
      </trkpt>
      <trkpt lat="45.52967" lon="6.76742">
        <ele>1625.5</ele>
        <time>2021-08-03T10:20:48Z</time>
      </trkpt>
      <trkpt lat="45.52967" lon="6.76743">
        <ele>1625.4</ele>
        <time>2021-08-03T10:20:49Z</time>
      </trkpt>
      <trkpt lat="45.52967" lon="6.76743">
        <ele>1625.2</ele>
        <time>2021-08-03T10:20:50Z</time>
      </trkpt>
      <trkpt lat="45.52968" lon="6.76743">
        <ele>1625</ele>
        <time>2021-08-03T10:20:51Z</time>
      </trkpt>
      <trkpt lat="45.52968" lon="6.76744">
        <ele>1624.8</ele>
        <time>2021-08-03T10:20:52Z</time>
      </trkpt>
      <trkpt lat="45.52969" lon="6.76744">
        <ele>1624.6</ele>
        <time>2021-08-03T10:20:53Z</time>
      </trkpt>
      <trkpt lat="45.52969" lon="6.76745">
        <ele>1624.5</ele>
        <time>2021-08-03T10:20:54Z</time>
      </trkpt>
      <trkpt lat="45.5297" lon="6.76745">
        <ele>1624.3</ele>
        <time>2021-08-03T10:20:55Z</time>
      </trkpt>
      <trkpt lat="45.5297" lon="6.76746">
        <ele>1624.1</ele>
        <time>2021-08-03T10:20:56Z</time>
      </trkpt>
      <trkpt lat="45.5297" lon="6.76747">
        <ele>1623.9</ele>
        <time>2021-08-03T10:20:57Z</time>
      </trkpt>
      <trkpt lat="45.52971" lon="6.76748">
        <ele>1623.6</ele>
        <time>2021-08-03T10:20:58Z</time>
      </trkpt>
      <trkpt lat="45.52971" lon="6.76748">
        <ele>1623.4</ele>
        <time>2021-08-03T10:20:59Z</time>
      </trkpt>
      <trkpt lat="45.52972" lon="6.76749">
        <ele>1623.1</ele>
        <time>2021-08-03T10:21:00Z</time>
      </trkpt>
      <trkpt lat="45.52972" lon="6.76749">
        <ele>1622.9</ele>
        <time>2021-08-03T10:21:01Z</time>
      </trkpt>
      <trkpt lat="45.52973" lon="6.7675">
        <ele>1622.7</ele>
        <time>2021-08-03T10:21:02Z</time>
      </trkpt>
      <trkpt lat="45.52973" lon="6.7675">
        <ele>1622.4</ele>
        <time>2021-08-03T10:21:03Z</time>
      </trkpt>
      <trkpt lat="45.52974" lon="6.76751">
        <ele>1622.2</ele>
        <time>2021-08-03T10:21:04Z</time>
      </trkpt>
      <trkpt lat="45.52974" lon="6.76751">
        <ele>1622</ele>
        <time>2021-08-03T10:21:05Z</time>
      </trkpt>
      <trkpt lat="45.52975" lon="6.76751">
        <ele>1621.8</ele>
        <time>2021-08-03T10:21:06Z</time>
      </trkpt>
      <trkpt lat="45.52976" lon="6.76752">
        <ele>1621.5</ele>
        <time>2021-08-03T10:21:07Z</time>
      </trkpt>
      <trkpt lat="45.52976" lon="6.76752">
        <ele>1621.4</ele>
        <time>2021-08-03T10:21:08Z</time>
      </trkpt>
      <trkpt lat="45.52977" lon="6.76752">
        <ele>1621.2</ele>
        <time>2021-08-03T10:21:09Z</time>
      </trkpt>
      <trkpt lat="45.52977" lon="6.76752">
        <ele>1621</ele>
        <time>2021-08-03T10:21:10Z</time>
      </trkpt>
      <trkpt lat="45.52978" lon="6.76752">
        <ele>1620.8</ele>
        <time>2021-08-03T10:21:11Z</time>
      </trkpt>
      <trkpt lat="45.52978" lon="6.76751">
        <ele>1620.7</ele>
        <time>2021-08-03T10:21:12Z</time>
      </trkpt>
      <trkpt lat="45.52978" lon="6.76751">
        <ele>1620.5</ele>
        <time>2021-08-03T10:21:13Z</time>
      </trkpt>
      <trkpt lat="45.52979" lon="6.7675">
        <ele>1620.4</ele>
        <time>2021-08-03T10:21:14Z</time>
      </trkpt>
      <trkpt lat="45.52979" lon="6.7675">
        <ele>1620.2</ele>
        <time>2021-08-03T10:21:15Z</time>
      </trkpt>
      <trkpt lat="45.52979" lon="6.76749">
        <ele>1620</ele>
        <time>2021-08-03T10:21:16Z</time>
      </trkpt>
      <trkpt lat="45.52979" lon="6.76748">
        <ele>1619.9</ele>
        <time>2021-08-03T10:21:17Z</time>
      </trkpt>
      <trkpt lat="45.52979" lon="6.76748">
        <ele>1619.7</ele>
        <time>2021-08-03T10:21:18Z</time>
      </trkpt>
      <trkpt lat="45.52979" lon="6.76747">
        <ele>1619.5</ele>
        <time>2021-08-03T10:21:19Z</time>
      </trkpt>
      <trkpt lat="45.52979" lon="6.76746">
        <ele>1619.3</ele>
        <time>2021-08-03T10:21:20Z</time>
      </trkpt>
      <trkpt lat="45.52979" lon="6.76746">
        <ele>1619.1</ele>
        <time>2021-08-03T10:21:21Z</time>
      </trkpt>
      <trkpt lat="45.52979" lon="6.76745">
        <ele>1619</ele>
        <time>2021-08-03T10:21:22Z</time>
      </trkpt>
      <trkpt lat="45.52979" lon="6.76745">
        <ele>1618.9</ele>
        <time>2021-08-03T10:21:23Z</time>
      </trkpt>
      <trkpt lat="45.52979" lon="6.76744">
        <ele>1618.8</ele>
        <time>2021-08-03T10:21:24Z</time>
      </trkpt>
      <trkpt lat="45.52979" lon="6.76744">
        <ele>1618.7</ele>
        <time>2021-08-03T10:21:25Z</time>
      </trkpt>
      <trkpt lat="45.52979" lon="6.76744">
        <ele>1618.6</ele>
        <time>2021-08-03T10:21:26Z</time>
      </trkpt>
      <trkpt lat="45.5298" lon="6.76744">
        <ele>1618.5</ele>
        <time>2021-08-03T10:21:27Z</time>
      </trkpt>
      <trkpt lat="45.5298" lon="6.76744">
        <ele>1618.4</ele>
        <time>2021-08-03T10:21:28Z</time>
      </trkpt>
      <trkpt lat="45.5298" lon="6.76744">
        <ele>1618.3</ele>
        <time>2021-08-03T10:21:29Z</time>
      </trkpt>
      <trkpt lat="45.5298" lon="6.76743">
        <ele>1618.2</ele>
        <time>2021-08-03T10:21:30Z</time>
      </trkpt>
      <trkpt lat="45.52981" lon="6.76743">
        <ele>1618.1</ele>
        <time>2021-08-03T10:21:31Z</time>
      </trkpt>
      <trkpt lat="45.52981" lon="6.76743">
        <ele>1617.9</ele>
        <time>2021-08-03T10:21:32Z</time>
      </trkpt>
      <trkpt lat="45.52982" lon="6.76742">
        <ele>1617.7</ele>
        <time>2021-08-03T10:21:33Z</time>
      </trkpt>
      <trkpt lat="45.52982" lon="6.76742">
        <ele>1617.6</ele>
        <time>2021-08-03T10:21:34Z</time>
      </trkpt>
      <trkpt lat="45.52982" lon="6.76742">
        <ele>1617.4</ele>
        <time>2021-08-03T10:21:35Z</time>
      </trkpt>
      <trkpt lat="45.52983" lon="6.76741">
        <ele>1617.3</ele>
        <time>2021-08-03T10:21:36Z</time>
      </trkpt>
      <trkpt lat="45.52983" lon="6.76741">
        <ele>1617.1</ele>
        <time>2021-08-03T10:21:37Z</time>
      </trkpt>
      <trkpt lat="45.52983" lon="6.76741">
        <ele>1617</ele>
        <time>2021-08-03T10:21:38Z</time>
      </trkpt>
      <trkpt lat="45.52984" lon="6.76741">
        <ele>1616.9</ele>
        <time>2021-08-03T10:21:39Z</time>
      </trkpt>
      <trkpt lat="45.52984" lon="6.76741">
        <ele>1616.7</ele>
        <time>2021-08-03T10:21:40Z</time>
      </trkpt>
      <trkpt lat="45.52985" lon="6.76741">
        <ele>1616.6</ele>
        <time>2021-08-03T10:21:41Z</time>
      </trkpt>
      <trkpt lat="45.52985" lon="6.76741">
        <ele>1616.5</ele>
        <time>2021-08-03T10:21:42Z</time>
      </trkpt>
      <trkpt lat="45.52985" lon="6.76741">
        <ele>1616.3</ele>
        <time>2021-08-03T10:21:43Z</time>
      </trkpt>
      <trkpt lat="45.52986" lon="6.76742">
        <ele>1616.2</ele>
        <time>2021-08-03T10:21:44Z</time>
      </trkpt>
      <trkpt lat="45.52986" lon="6.76742">
        <ele>1616</ele>
        <time>2021-08-03T10:21:45Z</time>
      </trkpt>
      <trkpt lat="45.52987" lon="6.76743">
        <ele>1615.8</ele>
        <time>2021-08-03T10:21:46Z</time>
      </trkpt>
      <trkpt lat="45.52987" lon="6.76743">
        <ele>1615.6</ele>
        <time>2021-08-03T10:21:47Z</time>
      </trkpt>
      <trkpt lat="45.52987" lon="6.76744">
        <ele>1615.4</ele>
        <time>2021-08-03T10:21:48Z</time>
      </trkpt>
      <trkpt lat="45.52988" lon="6.76745">
        <ele>1615.2</ele>
        <time>2021-08-03T10:21:49Z</time>
      </trkpt>
      <trkpt lat="45.52988" lon="6.76746">
        <ele>1615</ele>
        <time>2021-08-03T10:21:50Z</time>
      </trkpt>
      <trkpt lat="45.52988" lon="6.76747">
        <ele>1614.8</ele>
        <time>2021-08-03T10:21:51Z</time>
      </trkpt>
      <trkpt lat="45.52989" lon="6.76748">
        <ele>1614.6</ele>
        <time>2021-08-03T10:21:52Z</time>
      </trkpt>
      <trkpt lat="45.52989" lon="6.76748">
        <ele>1614.4</ele>
        <time>2021-08-03T10:21:53Z</time>
      </trkpt>
      <trkpt lat="45.52989" lon="6.76749">
        <ele>1614.2</ele>
        <time>2021-08-03T10:21:54Z</time>
      </trkpt>
      <trkpt lat="45.5299" lon="6.7675">
        <ele>1614.1</ele>
        <time>2021-08-03T10:21:55Z</time>
      </trkpt>
      <trkpt lat="45.5299" lon="6.7675">
        <ele>1613.9</ele>
        <time>2021-08-03T10:21:56Z</time>
      </trkpt>
      <trkpt lat="45.5299" lon="6.76751">
        <ele>1613.8</ele>
        <time>2021-08-03T10:21:57Z</time>
      </trkpt>
      <trkpt lat="45.5299" lon="6.76751">
        <ele>1613.7</ele>
        <time>2021-08-03T10:21:58Z</time>
      </trkpt>
      <trkpt lat="45.52991" lon="6.76752">
        <ele>1613.6</ele>
        <time>2021-08-03T10:21:59Z</time>
      </trkpt>
      <trkpt lat="45.52991" lon="6.76752">
        <ele>1613.5</ele>
        <time>2021-08-03T10:22:00Z</time>
      </trkpt>
      <trkpt lat="45.52991" lon="6.76753">
        <ele>1613.4</ele>
        <time>2021-08-03T10:22:01Z</time>
      </trkpt>
      <trkpt lat="45.52991" lon="6.76753">
        <ele>1613.3</ele>
        <time>2021-08-03T10:22:02Z</time>
      </trkpt>
      <trkpt lat="45.52991" lon="6.76753">
        <ele>1613.3</ele>
        <time>2021-08-03T10:22:03Z</time>
      </trkpt>
      <trkpt lat="45.52991" lon="6.76753">
        <ele>1613.2</ele>
        <time>2021-08-03T10:22:04Z</time>
      </trkpt>
      <trkpt lat="45.52991" lon="6.76754">
        <ele>1613.2</ele>
        <time>2021-08-03T10:22:05Z</time>
      </trkpt>
      <trkpt lat="45.52991" lon="6.76754">
        <ele>1613.1</ele>
        <time>2021-08-03T10:22:06Z</time>
      </trkpt>
      <trkpt lat="45.52992" lon="6.76754">
        <ele>1613.1</ele>
        <time>2021-08-03T10:22:07Z</time>
      </trkpt>
      <trkpt lat="45.52992" lon="6.76754">
        <ele>1613.1</ele>
        <time>2021-08-03T10:22:08Z</time>
      </trkpt>
      <trkpt lat="45.52992" lon="6.76754">
        <ele>1613.1</ele>
        <time>2021-08-03T10:22:09Z</time>
      </trkpt>
      <trkpt lat="45.52992" lon="6.76754">
        <ele>1613</ele>
        <time>2021-08-03T10:22:10Z</time>
      </trkpt>
      <trkpt lat="45.52992" lon="6.76754">
        <ele>1613</ele>
        <time>2021-08-03T10:22:11Z</time>
      </trkpt>
      <trkpt lat="45.52992" lon="6.76754">
        <ele>1613</ele>
        <time>2021-08-03T10:22:12Z</time>
      </trkpt>
      <trkpt lat="45.52992" lon="6.76754">
        <ele>1613</ele>
        <time>2021-08-03T10:22:13Z</time>
      </trkpt>
      <trkpt lat="45.52992" lon="6.76754">
        <ele>1613</ele>
        <time>2021-08-03T10:22:14Z</time>
      </trkpt>
      <trkpt lat="45.52992" lon="6.76754">
        <ele>1613</ele>
        <time>2021-08-03T10:22:15Z</time>
      </trkpt>
      <trkpt lat="45.52992" lon="6.76754">
        <ele>1613</ele>
        <time>2021-08-03T10:22:16Z</time>
      </trkpt>
      <trkpt lat="45.52992" lon="6.76754">
        <ele>1613</ele>
        <time>2021-08-03T10:22:17Z</time>
      </trkpt>
      <trkpt lat="45.52992" lon="6.76754">
        <ele>1613</ele>
        <time>2021-08-03T10:22:18Z</time>
      </trkpt>
      <trkpt lat="45.52992" lon="6.76754">
        <ele>1613</ele>
        <time>2021-08-03T10:22:19Z</time>
      </trkpt>
      <trkpt lat="45.52992" lon="6.76754">
        <ele>1613</ele>
        <time>2021-08-03T10:22:20Z</time>
      </trkpt>
      <trkpt lat="45.52992" lon="6.76754">
        <ele>1612.9</ele>
        <time>2021-08-03T10:22:21Z</time>
      </trkpt>
      <trkpt lat="45.52992" lon="6.76754">
        <ele>1612.9</ele>
        <time>2021-08-03T10:22:22Z</time>
      </trkpt>
      <trkpt lat="45.52992" lon="6.76754">
        <ele>1612.9</ele>
        <time>2021-08-03T10:22:23Z</time>
      </trkpt>
      <trkpt lat="45.52992" lon="6.76754">
        <ele>1612.9</ele>
        <time>2021-08-03T10:22:24Z</time>
      </trkpt>
      <trkpt lat="45.52992" lon="6.76754">
        <ele>1612.9</ele>
        <time>2021-08-03T10:22:25Z</time>
      </trkpt>
      <trkpt lat="45.52992" lon="6.76754">
        <ele>1612.9</ele>
        <time>2021-08-03T10:22:26Z</time>
      </trkpt>
      <trkpt lat="45.52992" lon="6.76754">
        <ele>1612.9</ele>
        <time>2021-08-03T10:22:27Z</time>
      </trkpt>
      <trkpt lat="45.52992" lon="6.76754">
        <ele>1612.9</ele>
        <time>2021-08-03T10:22:28Z</time>
      </trkpt>
      <trkpt lat="45.52992" lon="6.76754">
        <ele>1612.9</ele>
        <time>2021-08-03T10:22:29Z</time>
      </trkpt>
      <trkpt lat="45.52992" lon="6.76754">
        <ele>1612.8</ele>
        <time>2021-08-03T10:22:30Z</time>
      </trkpt>
      <trkpt lat="45.52992" lon="6.76754">
        <ele>1612.8</ele>
        <time>2021-08-03T10:22:31Z</time>
      </trkpt>
      <trkpt lat="45.52992" lon="6.76754">
        <ele>1612.8</ele>
        <time>2021-08-03T10:22:32Z</time>
      </trkpt>
      <trkpt lat="45.52992" lon="6.76754">
        <ele>1612.8</ele>
        <time>2021-08-03T10:22:33Z</time>
      </trkpt>
      <trkpt lat="45.52992" lon="6.76754">
        <ele>1612.8</ele>
        <time>2021-08-03T10:22:34Z</time>
      </trkpt>
      <trkpt lat="45.52992" lon="6.76754">
        <ele>1612.8</ele>
        <time>2021-08-03T10:22:35Z</time>
      </trkpt>
      <trkpt lat="45.52992" lon="6.76754">
        <ele>1612.8</ele>
        <time>2021-08-03T10:22:36Z</time>
      </trkpt>
      <trkpt lat="45.52992" lon="6.76754">
        <ele>1612.8</ele>
        <time>2021-08-03T10:22:37Z</time>
      </trkpt>
      <trkpt lat="45.52992" lon="6.76754">
        <ele>1612.8</ele>
        <time>2021-08-03T10:22:38Z</time>
      </trkpt>
      <trkpt lat="45.52993" lon="6.76754">
        <ele>1612.7</ele>
        <time>2021-08-03T10:22:39Z</time>
      </trkpt>
      <trkpt lat="45.52993" lon="6.76754">
        <ele>1612.5</ele>
        <time>2021-08-03T10:22:40Z</time>
      </trkpt>
      <trkpt lat="45.52994" lon="6.76755">
        <ele>1612.3</ele>
        <time>2021-08-03T10:22:41Z</time>
      </trkpt>
      <trkpt lat="45.52994" lon="6.76755">
        <ele>1612.3</ele>
        <time>2021-08-03T10:22:42Z</time>
      </trkpt>
      <trkpt lat="45.52994" lon="6.76755">
        <ele>1612.2</ele>
        <time>2021-08-03T10:22:43Z</time>
      </trkpt>
      <trkpt lat="45.52994" lon="6.76755">
        <ele>1612.2</ele>
        <time>2021-08-03T10:22:44Z</time>
      </trkpt>
      <trkpt lat="45.52994" lon="6.76755">
        <ele>1612.2</ele>
        <time>2021-08-03T10:22:45Z</time>
      </trkpt>
      <trkpt lat="45.52994" lon="6.76755">
        <ele>1612.2</ele>
        <time>2021-08-03T10:22:46Z</time>
      </trkpt>
      <trkpt lat="45.52994" lon="6.76755">
        <ele>1612.2</ele>
        <time>2021-08-03T10:22:47Z</time>
      </trkpt>
      <trkpt lat="45.52994" lon="6.76755">
        <ele>1612.2</ele>
        <time>2021-08-03T10:22:48Z</time>
      </trkpt>
      <trkpt lat="45.52994" lon="6.76755">
        <ele>1612.1</ele>
        <time>2021-08-03T10:22:49Z</time>
      </trkpt>
      <trkpt lat="45.52994" lon="6.76755">
        <ele>1612.1</ele>
        <time>2021-08-03T10:22:50Z</time>
      </trkpt>
      <trkpt lat="45.52994" lon="6.76755">
        <ele>1612.1</ele>
        <time>2021-08-03T10:22:51Z</time>
      </trkpt>
      <trkpt lat="45.52995" lon="6.76756">
        <ele>1611.9</ele>
        <time>2021-08-03T10:22:52Z</time>
      </trkpt>
      <trkpt lat="45.52995" lon="6.76757">
        <ele>1611.8</ele>
        <time>2021-08-03T10:22:53Z</time>
      </trkpt>
      <trkpt lat="45.52995" lon="6.76757">
        <ele>1611.7</ele>
        <time>2021-08-03T10:22:54Z</time>
      </trkpt>
      <trkpt lat="45.52995" lon="6.76758">
        <ele>1611.6</ele>
        <time>2021-08-03T10:22:55Z</time>
      </trkpt>
      <trkpt lat="45.52995" lon="6.76758">
        <ele>1611.6</ele>
        <time>2021-08-03T10:22:56Z</time>
      </trkpt>
      <trkpt lat="45.52995" lon="6.76758">
        <ele>1611.6</ele>
        <time>2021-08-03T10:22:57Z</time>
      </trkpt>
      <trkpt lat="45.52995" lon="6.76758">
        <ele>1611.6</ele>
        <time>2021-08-03T10:22:58Z</time>
      </trkpt>
      <trkpt lat="45.52995" lon="6.76758">
        <ele>1611.6</ele>
        <time>2021-08-03T10:22:59Z</time>
      </trkpt>
      <trkpt lat="45.52995" lon="6.76758">
        <ele>1611.5</ele>
        <time>2021-08-03T10:23:00Z</time>
      </trkpt>
      <trkpt lat="45.52995" lon="6.76758">
        <ele>1611.5</ele>
        <time>2021-08-03T10:23:01Z</time>
      </trkpt>
      <trkpt lat="45.52995" lon="6.76758">
        <ele>1611.5</ele>
        <time>2021-08-03T10:23:02Z</time>
      </trkpt>
      <trkpt lat="45.52995" lon="6.76758">
        <ele>1611.5</ele>
        <time>2021-08-03T10:23:03Z</time>
      </trkpt>
      <trkpt lat="45.52995" lon="6.76758">
        <ele>1611.5</ele>
        <time>2021-08-03T10:23:04Z</time>
      </trkpt>
      <trkpt lat="45.52995" lon="6.76758">
        <ele>1611.5</ele>
        <time>2021-08-03T10:23:05Z</time>
      </trkpt>
      <trkpt lat="45.52995" lon="6.76758">
        <ele>1611.5</ele>
        <time>2021-08-03T10:23:06Z</time>
      </trkpt>
      <trkpt lat="45.52995" lon="6.76758">
        <ele>1611.5</ele>
        <time>2021-08-03T10:23:07Z</time>
      </trkpt>
      <trkpt lat="45.52995" lon="6.76758">
        <ele>1611.5</ele>
        <time>2021-08-03T10:23:08Z</time>
      </trkpt>
      <trkpt lat="45.52995" lon="6.76758">
        <ele>1611.5</ele>
        <time>2021-08-03T10:23:09Z</time>
      </trkpt>
      <trkpt lat="45.52995" lon="6.76758">
        <ele>1611.5</ele>
        <time>2021-08-03T10:23:10Z</time>
      </trkpt>
      <trkpt lat="45.52995" lon="6.76758">
        <ele>1611.5</ele>
        <time>2021-08-03T10:23:11Z</time>
      </trkpt>
      <trkpt lat="45.52995" lon="6.76758">
        <ele>1611.5</ele>
        <time>2021-08-03T10:23:12Z</time>
      </trkpt>
      <trkpt lat="45.52995" lon="6.76758">
        <ele>1611.5</ele>
        <time>2021-08-03T10:23:13Z</time>
      </trkpt>
      <trkpt lat="45.52995" lon="6.76758">
        <ele>1611.5</ele>
        <time>2021-08-03T10:23:14Z</time>
      </trkpt>
      <trkpt lat="45.52995" lon="6.76758">
        <ele>1611.5</ele>
        <time>2021-08-03T10:23:15Z</time>
      </trkpt>
      <trkpt lat="45.52995" lon="6.76758">
        <ele>1611.5</ele>
        <time>2021-08-03T10:23:16Z</time>
      </trkpt>
      <trkpt lat="45.52995" lon="6.76758">
        <ele>1611.5</ele>
        <time>2021-08-03T10:23:17Z</time>
      </trkpt>
      <trkpt lat="45.52995" lon="6.76758">
        <ele>1611.5</ele>
        <time>2021-08-03T10:23:18Z</time>
      </trkpt>
      <trkpt lat="45.52995" lon="6.76758">
        <ele>1611.5</ele>
        <time>2021-08-03T10:23:19Z</time>
      </trkpt>
      <trkpt lat="45.52995" lon="6.76758">
        <ele>1611.5</ele>
        <time>2021-08-03T10:23:20Z</time>
      </trkpt>
      <trkpt lat="45.52995" lon="6.76758">
        <ele>1611.5</ele>
        <time>2021-08-03T10:23:21Z</time>
      </trkpt>
      <trkpt lat="45.52995" lon="6.76758">
        <ele>1611.5</ele>
        <time>2021-08-03T10:23:22Z</time>
      </trkpt>
      <trkpt lat="45.52995" lon="6.76758">
        <ele>1611.5</ele>
        <time>2021-08-03T10:23:23Z</time>
      </trkpt>
      <trkpt lat="45.52995" lon="6.76758">
        <ele>1611.5</ele>
        <time>2021-08-03T10:23:24Z</time>
      </trkpt>
      <trkpt lat="45.52995" lon="6.76758">
        <ele>1611.5</ele>
        <time>2021-08-03T10:23:25Z</time>
      </trkpt>
      <trkpt lat="45.52995" lon="6.76758">
        <ele>1611.5</ele>
        <time>2021-08-03T10:23:26Z</time>
      </trkpt>
      <trkpt lat="45.52995" lon="6.76758">
        <ele>1611.5</ele>
        <time>2021-08-03T10:23:27Z</time>
      </trkpt>
      <trkpt lat="45.52995" lon="6.76758">
        <ele>1611.5</ele>
        <time>2021-08-03T10:23:28Z</time>
      </trkpt>
      <trkpt lat="45.52995" lon="6.76758">
        <ele>1611.5</ele>
        <time>2021-08-03T10:23:29Z</time>
      </trkpt>
      <trkpt lat="45.52995" lon="6.76758">
        <ele>1611.5</ele>
        <time>2021-08-03T10:23:30Z</time>
      </trkpt>
      <trkpt lat="45.52995" lon="6.76758">
        <ele>1611.5</ele>
        <time>2021-08-03T10:23:31Z</time>
      </trkpt>
      <trkpt lat="45.52995" lon="6.76758">
        <ele>1611.5</ele>
        <time>2021-08-03T10:23:32Z</time>
      </trkpt>
      <trkpt lat="45.52995" lon="6.76758">
        <ele>1611.5</ele>
        <time>2021-08-03T10:23:33Z</time>
      </trkpt>
      <trkpt lat="45.52995" lon="6.76758">
        <ele>1611.5</ele>
        <time>2021-08-03T10:23:34Z</time>
      </trkpt>
      <trkpt lat="45.52995" lon="6.76758">
        <ele>1611.5</ele>
        <time>2021-08-03T10:23:35Z</time>
      </trkpt>
      <trkpt lat="45.52995" lon="6.76758">
        <ele>1611.4</ele>
        <time>2021-08-03T10:23:36Z</time>
      </trkpt>
      <trkpt lat="45.52995" lon="6.76759">
        <ele>1611.3</ele>
        <time>2021-08-03T10:23:37Z</time>
      </trkpt>
      <trkpt lat="45.52995" lon="6.76759">
        <ele>1611.3</ele>
        <time>2021-08-03T10:23:38Z</time>
      </trkpt>
      <trkpt lat="45.52995" lon="6.76759">
        <ele>1611.2</ele>
        <time>2021-08-03T10:23:39Z</time>
      </trkpt>
      <trkpt lat="45.52995" lon="6.76759">
        <ele>1611.2</ele>
        <time>2021-08-03T10:23:40Z</time>
      </trkpt>
      <trkpt lat="45.52995" lon="6.7676">
        <ele>1611.2</ele>
        <time>2021-08-03T10:23:41Z</time>
      </trkpt>
      <trkpt lat="45.52994" lon="6.7676">
        <ele>1611.1</ele>
        <time>2021-08-03T10:23:42Z</time>
      </trkpt>
      <trkpt lat="45.52994" lon="6.7676">
        <ele>1611.1</ele>
        <time>2021-08-03T10:23:43Z</time>
      </trkpt>
      <trkpt lat="45.52994" lon="6.7676">
        <ele>1611.1</ele>
        <time>2021-08-03T10:23:44Z</time>
      </trkpt>
      <trkpt lat="45.52994" lon="6.7676">
        <ele>1611</ele>
        <time>2021-08-03T10:23:45Z</time>
      </trkpt>
      <trkpt lat="45.52994" lon="6.76761">
        <ele>1610.9</ele>
        <time>2021-08-03T10:23:46Z</time>
      </trkpt>
      <trkpt lat="45.52994" lon="6.76761">
        <ele>1610.8</ele>
        <time>2021-08-03T10:23:47Z</time>
      </trkpt>
      <trkpt lat="45.52995" lon="6.76762">
        <ele>1610.6</ele>
        <time>2021-08-03T10:23:48Z</time>
      </trkpt>
      <trkpt lat="45.52995" lon="6.76763">
        <ele>1610.4</ele>
        <time>2021-08-03T10:23:49Z</time>
      </trkpt>
      <trkpt lat="45.52995" lon="6.76764">
        <ele>1610.2</ele>
        <time>2021-08-03T10:23:50Z</time>
      </trkpt>
      <trkpt lat="45.52995" lon="6.76765">
        <ele>1610</ele>
        <time>2021-08-03T10:23:51Z</time>
      </trkpt>
      <trkpt lat="45.52996" lon="6.76766">
        <ele>1609.8</ele>
        <time>2021-08-03T10:23:52Z</time>
      </trkpt>
      <trkpt lat="45.52996" lon="6.76767">
        <ele>1609.6</ele>
        <time>2021-08-03T10:23:53Z</time>
      </trkpt>
      <trkpt lat="45.52997" lon="6.76768">
        <ele>1609.4</ele>
        <time>2021-08-03T10:23:54Z</time>
      </trkpt>
      <trkpt lat="45.52997" lon="6.76769">
        <ele>1609.2</ele>
        <time>2021-08-03T10:23:55Z</time>
      </trkpt>
      <trkpt lat="45.52998" lon="6.7677">
        <ele>1609</ele>
        <time>2021-08-03T10:23:56Z</time>
      </trkpt>
      <trkpt lat="45.52998" lon="6.76771">
        <ele>1608.8</ele>
        <time>2021-08-03T10:23:57Z</time>
      </trkpt>
      <trkpt lat="45.52999" lon="6.76772">
        <ele>1608.6</ele>
        <time>2021-08-03T10:23:58Z</time>
      </trkpt>
      <trkpt lat="45.52999" lon="6.76772">
        <ele>1608.4</ele>
        <time>2021-08-03T10:23:59Z</time>
      </trkpt>
      <trkpt lat="45.53" lon="6.76773">
        <ele>1608.2</ele>
        <time>2021-08-03T10:24:00Z</time>
      </trkpt>
      <trkpt lat="45.53" lon="6.76774">
        <ele>1608</ele>
        <time>2021-08-03T10:24:01Z</time>
      </trkpt>
      <trkpt lat="45.53001" lon="6.76775">
        <ele>1607.7</ele>
        <time>2021-08-03T10:24:02Z</time>
      </trkpt>
      <trkpt lat="45.53001" lon="6.76776">
        <ele>1607.5</ele>
        <time>2021-08-03T10:24:03Z</time>
      </trkpt>
      <trkpt lat="45.53002" lon="6.76777">
        <ele>1607.3</ele>
        <time>2021-08-03T10:24:04Z</time>
      </trkpt>
      <trkpt lat="45.53003" lon="6.76778">
        <ele>1607</ele>
        <time>2021-08-03T10:24:05Z</time>
      </trkpt>
      <trkpt lat="45.53003" lon="6.76779">
        <ele>1606.8</ele>
        <time>2021-08-03T10:24:06Z</time>
      </trkpt>
      <trkpt lat="45.53004" lon="6.7678">
        <ele>1606.5</ele>
        <time>2021-08-03T10:24:07Z</time>
      </trkpt>
      <trkpt lat="45.53004" lon="6.76781">
        <ele>1606.3</ele>
        <time>2021-08-03T10:24:08Z</time>
      </trkpt>
      <trkpt lat="45.53005" lon="6.76782">
        <ele>1606</ele>
        <time>2021-08-03T10:24:09Z</time>
      </trkpt>
      <trkpt lat="45.53006" lon="6.76783">
        <ele>1605.8</ele>
        <time>2021-08-03T10:24:10Z</time>
      </trkpt>
      <trkpt lat="45.53006" lon="6.76784">
        <ele>1605.6</ele>
        <time>2021-08-03T10:24:11Z</time>
      </trkpt>
      <trkpt lat="45.53007" lon="6.76785">
        <ele>1605.3</ele>
        <time>2021-08-03T10:24:12Z</time>
      </trkpt>
      <trkpt lat="45.53008" lon="6.76785">
        <ele>1605.1</ele>
        <time>2021-08-03T10:24:13Z</time>
      </trkpt>
      <trkpt lat="45.53008" lon="6.76786">
        <ele>1604.9</ele>
        <time>2021-08-03T10:24:14Z</time>
      </trkpt>
      <trkpt lat="45.53009" lon="6.76787">
        <ele>1604.7</ele>
        <time>2021-08-03T10:24:15Z</time>
      </trkpt>
      <trkpt lat="45.53009" lon="6.76788">
        <ele>1604.5</ele>
        <time>2021-08-03T10:24:16Z</time>
      </trkpt>
      <trkpt lat="45.5301" lon="6.76789">
        <ele>1604.3</ele>
        <time>2021-08-03T10:24:17Z</time>
      </trkpt>
      <trkpt lat="45.5301" lon="6.76789">
        <ele>1604.2</ele>
        <time>2021-08-03T10:24:18Z</time>
      </trkpt>
      <trkpt lat="45.5301" lon="6.7679">
        <ele>1604</ele>
        <time>2021-08-03T10:24:19Z</time>
      </trkpt>
      <trkpt lat="45.53011" lon="6.76791">
        <ele>1603.8</ele>
        <time>2021-08-03T10:24:20Z</time>
      </trkpt>
      <trkpt lat="45.53011" lon="6.76791">
        <ele>1603.7</ele>
        <time>2021-08-03T10:24:21Z</time>
      </trkpt>
      <trkpt lat="45.53012" lon="6.76792">
        <ele>1603.5</ele>
        <time>2021-08-03T10:24:22Z</time>
      </trkpt>
      <trkpt lat="45.53012" lon="6.76792">
        <ele>1603.4</ele>
        <time>2021-08-03T10:24:23Z</time>
      </trkpt>
      <trkpt lat="45.53012" lon="6.76793">
        <ele>1603.3</ele>
        <time>2021-08-03T10:24:24Z</time>
      </trkpt>
      <trkpt lat="45.53013" lon="6.76793">
        <ele>1603.1</ele>
        <time>2021-08-03T10:24:25Z</time>
      </trkpt>
      <trkpt lat="45.53013" lon="6.76794">
        <ele>1603</ele>
        <time>2021-08-03T10:24:26Z</time>
      </trkpt>
      <trkpt lat="45.53013" lon="6.76794">
        <ele>1602.9</ele>
        <time>2021-08-03T10:24:27Z</time>
      </trkpt>
      <trkpt lat="45.53014" lon="6.76795">
        <ele>1602.7</ele>
        <time>2021-08-03T10:24:28Z</time>
      </trkpt>
      <trkpt lat="45.53014" lon="6.76795">
        <ele>1602.6</ele>
        <time>2021-08-03T10:24:29Z</time>
      </trkpt>
      <trkpt lat="45.53014" lon="6.76796">
        <ele>1602.5</ele>
        <time>2021-08-03T10:24:30Z</time>
      </trkpt>
      <trkpt lat="45.53015" lon="6.76797">
        <ele>1602.3</ele>
        <time>2021-08-03T10:24:31Z</time>
      </trkpt>
      <trkpt lat="45.53015" lon="6.76797">
        <ele>1602.2</ele>
        <time>2021-08-03T10:24:32Z</time>
      </trkpt>
      <trkpt lat="45.53015" lon="6.76798">
        <ele>1602</ele>
        <time>2021-08-03T10:24:33Z</time>
      </trkpt>
      <trkpt lat="45.53016" lon="6.76799">
        <ele>1601.8</ele>
        <time>2021-08-03T10:24:34Z</time>
      </trkpt>
      <trkpt lat="45.53016" lon="6.76799">
        <ele>1601.7</ele>
        <time>2021-08-03T10:24:35Z</time>
      </trkpt>
      <trkpt lat="45.53017" lon="6.768">
        <ele>1601.5</ele>
        <time>2021-08-03T10:24:36Z</time>
      </trkpt>
      <trkpt lat="45.53017" lon="6.76801">
        <ele>1601.3</ele>
        <time>2021-08-03T10:24:37Z</time>
      </trkpt>
      <trkpt lat="45.53018" lon="6.76802">
        <ele>1601</ele>
        <time>2021-08-03T10:24:38Z</time>
      </trkpt>
      <trkpt lat="45.53018" lon="6.76803">
        <ele>1600.8</ele>
        <time>2021-08-03T10:24:39Z</time>
      </trkpt>
      <trkpt lat="45.53018" lon="6.76805">
        <ele>1600.5</ele>
        <time>2021-08-03T10:24:40Z</time>
      </trkpt>
      <trkpt lat="45.53019" lon="6.76806">
        <ele>1600.2</ele>
        <time>2021-08-03T10:24:41Z</time>
      </trkpt>
      <trkpt lat="45.53019" lon="6.76808">
        <ele>1599.9</ele>
        <time>2021-08-03T10:24:42Z</time>
      </trkpt>
      <trkpt lat="45.53019" lon="6.7681">
        <ele>1599.5</ele>
        <time>2021-08-03T10:24:43Z</time>
      </trkpt>
      <trkpt lat="45.5302" lon="6.76812">
        <ele>1599.2</ele>
        <time>2021-08-03T10:24:44Z</time>
      </trkpt>
      <trkpt lat="45.5302" lon="6.76813">
        <ele>1598.8</ele>
        <time>2021-08-03T10:24:45Z</time>
      </trkpt>
      <trkpt lat="45.5302" lon="6.76815">
        <ele>1598.5</ele>
        <time>2021-08-03T10:24:46Z</time>
      </trkpt>
      <trkpt lat="45.53021" lon="6.76817">
        <ele>1598.1</ele>
        <time>2021-08-03T10:24:47Z</time>
      </trkpt>
      <trkpt lat="45.53021" lon="6.76818">
        <ele>1597.8</ele>
        <time>2021-08-03T10:24:48Z</time>
      </trkpt>
      <trkpt lat="45.53021" lon="6.76819">
        <ele>1597.6</ele>
        <time>2021-08-03T10:24:49Z</time>
      </trkpt>
      <trkpt lat="45.53022" lon="6.7682">
        <ele>1597.4</ele>
        <time>2021-08-03T10:24:50Z</time>
      </trkpt>
      <trkpt lat="45.53022" lon="6.76821">
        <ele>1597.2</ele>
        <time>2021-08-03T10:24:51Z</time>
      </trkpt>
      <trkpt lat="45.53022" lon="6.76821">
        <ele>1597.1</ele>
        <time>2021-08-03T10:24:52Z</time>
      </trkpt>
      <trkpt lat="45.53022" lon="6.76821">
        <ele>1597.1</ele>
        <time>2021-08-03T10:24:53Z</time>
      </trkpt>
      <trkpt lat="45.53022" lon="6.76821">
        <ele>1597</ele>
        <time>2021-08-03T10:24:54Z</time>
      </trkpt>
      <trkpt lat="45.53022" lon="6.76822">
        <ele>1597</ele>
        <time>2021-08-03T10:24:55Z</time>
      </trkpt>
      <trkpt lat="45.53022" lon="6.76822">
        <ele>1597</ele>
        <time>2021-08-03T10:24:56Z</time>
      </trkpt>
      <trkpt lat="45.53022" lon="6.76822">
        <ele>1596.9</ele>
        <time>2021-08-03T10:24:57Z</time>
      </trkpt>
      <trkpt lat="45.53022" lon="6.76823">
        <ele>1596.7</ele>
        <time>2021-08-03T10:24:58Z</time>
      </trkpt>
      <trkpt lat="45.53023" lon="6.76824">
        <ele>1596.5</ele>
        <time>2021-08-03T10:24:59Z</time>
      </trkpt>
      <trkpt lat="45.53023" lon="6.76825">
        <ele>1596.3</ele>
        <time>2021-08-03T10:25:00Z</time>
      </trkpt>
      <trkpt lat="45.53023" lon="6.76826">
        <ele>1596</ele>
        <time>2021-08-03T10:25:01Z</time>
      </trkpt>
      <trkpt lat="45.53024" lon="6.76827">
        <ele>1595.8</ele>
        <time>2021-08-03T10:25:02Z</time>
      </trkpt>
      <trkpt lat="45.53024" lon="6.76828">
        <ele>1595.5</ele>
        <time>2021-08-03T10:25:03Z</time>
      </trkpt>
      <trkpt lat="45.53024" lon="6.76829">
        <ele>1595.2</ele>
        <time>2021-08-03T10:25:04Z</time>
      </trkpt>
      <trkpt lat="45.53024" lon="6.76831">
        <ele>1595</ele>
        <time>2021-08-03T10:25:05Z</time>
      </trkpt>
      <trkpt lat="45.53024" lon="6.76832">
        <ele>1594.7</ele>
        <time>2021-08-03T10:25:06Z</time>
      </trkpt>
      <trkpt lat="45.53024" lon="6.76833">
        <ele>1594.4</ele>
        <time>2021-08-03T10:25:07Z</time>
      </trkpt>
      <trkpt lat="45.53024" lon="6.76834">
        <ele>1594.2</ele>
        <time>2021-08-03T10:25:08Z</time>
      </trkpt>
      <trkpt lat="45.53024" lon="6.76835">
        <ele>1593.9</ele>
        <time>2021-08-03T10:25:09Z</time>
      </trkpt>
      <trkpt lat="45.53024" lon="6.76836">
        <ele>1593.7</ele>
        <time>2021-08-03T10:25:10Z</time>
      </trkpt>
      <trkpt lat="45.53024" lon="6.76837">
        <ele>1593.5</ele>
        <time>2021-08-03T10:25:11Z</time>
      </trkpt>
      <trkpt lat="45.53024" lon="6.76838">
        <ele>1593.3</ele>
        <time>2021-08-03T10:25:12Z</time>
      </trkpt>
      <trkpt lat="45.53024" lon="6.76839">
        <ele>1593.1</ele>
        <time>2021-08-03T10:25:13Z</time>
      </trkpt>
      <trkpt lat="45.53025" lon="6.7684">
        <ele>1592.9</ele>
        <time>2021-08-03T10:25:14Z</time>
      </trkpt>
      <trkpt lat="45.53025" lon="6.76841">
        <ele>1592.7</ele>
        <time>2021-08-03T10:25:15Z</time>
      </trkpt>
      <trkpt lat="45.53025" lon="6.76842">
        <ele>1592.5</ele>
        <time>2021-08-03T10:25:16Z</time>
      </trkpt>
      <trkpt lat="45.53025" lon="6.76843">
        <ele>1592.3</ele>
        <time>2021-08-03T10:25:17Z</time>
      </trkpt>
      <trkpt lat="45.53025" lon="6.76843">
        <ele>1592.1</ele>
        <time>2021-08-03T10:25:18Z</time>
      </trkpt>
      <trkpt lat="45.53026" lon="6.76844">
        <ele>1591.9</ele>
        <time>2021-08-03T10:25:19Z</time>
      </trkpt>
      <trkpt lat="45.53026" lon="6.76845">
        <ele>1591.7</ele>
        <time>2021-08-03T10:25:20Z</time>
      </trkpt>
      <trkpt lat="45.53026" lon="6.76846">
        <ele>1591.5</ele>
        <time>2021-08-03T10:25:21Z</time>
      </trkpt>
      <trkpt lat="45.53026" lon="6.76847">
        <ele>1591.3</ele>
        <time>2021-08-03T10:25:22Z</time>
      </trkpt>
      <trkpt lat="45.53026" lon="6.76847">
        <ele>1591.1</ele>
        <time>2021-08-03T10:25:23Z</time>
      </trkpt>
      <trkpt lat="45.53026" lon="6.76848">
        <ele>1591</ele>
        <time>2021-08-03T10:25:24Z</time>
      </trkpt>
      <trkpt lat="45.53026" lon="6.76848">
        <ele>1590.9</ele>
        <time>2021-08-03T10:25:25Z</time>
      </trkpt>
      <trkpt lat="45.53026" lon="6.76849">
        <ele>1590.8</ele>
        <time>2021-08-03T10:25:26Z</time>
      </trkpt>
      <trkpt lat="45.53026" lon="6.76849">
        <ele>1590.7</ele>
        <time>2021-08-03T10:25:27Z</time>
      </trkpt>
      <trkpt lat="45.53026" lon="6.7685">
        <ele>1590.6</ele>
        <time>2021-08-03T10:25:28Z</time>
      </trkpt>
      <trkpt lat="45.53026" lon="6.76851">
        <ele>1590.4</ele>
        <time>2021-08-03T10:25:29Z</time>
      </trkpt>
      <trkpt lat="45.53026" lon="6.76851">
        <ele>1590.3</ele>
        <time>2021-08-03T10:25:30Z</time>
      </trkpt>
      <trkpt lat="45.53027" lon="6.76852">
        <ele>1590.1</ele>
        <time>2021-08-03T10:25:31Z</time>
      </trkpt>
      <trkpt lat="45.53027" lon="6.76852">
        <ele>1589.9</ele>
        <time>2021-08-03T10:25:32Z</time>
      </trkpt>
      <trkpt lat="45.53028" lon="6.76852">
        <ele>1589.6</ele>
        <time>2021-08-03T10:25:33Z</time>
      </trkpt>
      <trkpt lat="45.53029" lon="6.76852">
        <ele>1589.4</ele>
        <time>2021-08-03T10:25:34Z</time>
      </trkpt>
      <trkpt lat="45.53029" lon="6.76853">
        <ele>1589.1</ele>
        <time>2021-08-03T10:25:35Z</time>
      </trkpt>
      <trkpt lat="45.5303" lon="6.76853">
        <ele>1588.9</ele>
        <time>2021-08-03T10:25:36Z</time>
      </trkpt>
      <trkpt lat="45.5303" lon="6.76854">
        <ele>1588.7</ele>
        <time>2021-08-03T10:25:37Z</time>
      </trkpt>
      <trkpt lat="45.53031" lon="6.76855">
        <ele>1588.5</ele>
        <time>2021-08-03T10:25:38Z</time>
      </trkpt>
      <trkpt lat="45.53031" lon="6.76855">
        <ele>1588.3</ele>
        <time>2021-08-03T10:25:39Z</time>
      </trkpt>
      <trkpt lat="45.53031" lon="6.76856">
        <ele>1588.1</ele>
        <time>2021-08-03T10:25:40Z</time>
      </trkpt>
      <trkpt lat="45.53032" lon="6.76856">
        <ele>1587.9</ele>
        <time>2021-08-03T10:25:41Z</time>
      </trkpt>
      <trkpt lat="45.53032" lon="6.76857">
        <ele>1587.8</ele>
        <time>2021-08-03T10:25:42Z</time>
      </trkpt>
      <trkpt lat="45.53032" lon="6.76857">
        <ele>1587.7</ele>
        <time>2021-08-03T10:25:43Z</time>
      </trkpt>
      <trkpt lat="45.53032" lon="6.76857">
        <ele>1587.6</ele>
        <time>2021-08-03T10:25:44Z</time>
      </trkpt>
      <trkpt lat="45.53033" lon="6.76857">
        <ele>1587.5</ele>
        <time>2021-08-03T10:25:45Z</time>
      </trkpt>
      <trkpt lat="45.53033" lon="6.76857">
        <ele>1587.5</ele>
        <time>2021-08-03T10:25:46Z</time>
      </trkpt>
      <trkpt lat="45.53033" lon="6.76857">
        <ele>1587.5</ele>
        <time>2021-08-03T10:25:47Z</time>
      </trkpt>
      <trkpt lat="45.53033" lon="6.76857">
        <ele>1587.5</ele>
        <time>2021-08-03T10:25:48Z</time>
      </trkpt>
      <trkpt lat="45.53033" lon="6.76857">
        <ele>1587.4</ele>
        <time>2021-08-03T10:25:49Z</time>
      </trkpt>
      <trkpt lat="45.53033" lon="6.76857">
        <ele>1587.4</ele>
        <time>2021-08-03T10:25:50Z</time>
      </trkpt>
      <trkpt lat="45.53033" lon="6.76857">
        <ele>1587.4</ele>
        <time>2021-08-03T10:25:51Z</time>
      </trkpt>
      <trkpt lat="45.53033" lon="6.76857">
        <ele>1587.4</ele>
        <time>2021-08-03T10:25:52Z</time>
      </trkpt>
      <trkpt lat="45.53033" lon="6.76857">
        <ele>1587.4</ele>
        <time>2021-08-03T10:25:53Z</time>
      </trkpt>
      <trkpt lat="45.53033" lon="6.76857">
        <ele>1587.4</ele>
        <time>2021-08-03T10:25:54Z</time>
      </trkpt>
      <trkpt lat="45.53033" lon="6.76857">
        <ele>1587.4</ele>
        <time>2021-08-03T10:25:55Z</time>
      </trkpt>
      <trkpt lat="45.53033" lon="6.76857">
        <ele>1587.4</ele>
        <time>2021-08-03T10:25:56Z</time>
      </trkpt>
      <trkpt lat="45.53033" lon="6.76857">
        <ele>1587.4</ele>
        <time>2021-08-03T10:25:57Z</time>
      </trkpt>
      <trkpt lat="45.53033" lon="6.76857">
        <ele>1587.4</ele>
        <time>2021-08-03T10:25:58Z</time>
      </trkpt>
      <trkpt lat="45.53033" lon="6.76857">
        <ele>1587.4</ele>
        <time>2021-08-03T10:25:59Z</time>
      </trkpt>
      <trkpt lat="45.53033" lon="6.76857">
        <ele>1587.4</ele>
        <time>2021-08-03T10:26:00Z</time>
      </trkpt>
      <trkpt lat="45.53033" lon="6.76857">
        <ele>1587.4</ele>
        <time>2021-08-03T10:26:01Z</time>
      </trkpt>
      <trkpt lat="45.53033" lon="6.76857">
        <ele>1587.4</ele>
        <time>2021-08-03T10:26:02Z</time>
      </trkpt>
      <trkpt lat="45.53033" lon="6.76857">
        <ele>1587.3</ele>
        <time>2021-08-03T10:26:03Z</time>
      </trkpt>
      <trkpt lat="45.53033" lon="6.76857">
        <ele>1587.2</ele>
        <time>2021-08-03T10:26:04Z</time>
      </trkpt>
      <trkpt lat="45.53033" lon="6.76856">
        <ele>1587.1</ele>
        <time>2021-08-03T10:26:05Z</time>
      </trkpt>
      <trkpt lat="45.53034" lon="6.76856">
        <ele>1587</ele>
        <time>2021-08-03T10:26:06Z</time>
      </trkpt>
      <trkpt lat="45.53034" lon="6.76855">
        <ele>1586.7</ele>
        <time>2021-08-03T10:26:07Z</time>
      </trkpt>
      <trkpt lat="45.53035" lon="6.76855">
        <ele>1586.5</ele>
        <time>2021-08-03T10:26:08Z</time>
      </trkpt>
      <trkpt lat="45.53036" lon="6.76854">
        <ele>1586.2</ele>
        <time>2021-08-03T10:26:09Z</time>
      </trkpt>
      <trkpt lat="45.53036" lon="6.76853">
        <ele>1585.9</ele>
        <time>2021-08-03T10:26:10Z</time>
      </trkpt>
      <trkpt lat="45.53037" lon="6.76852">
        <ele>1585.6</ele>
        <time>2021-08-03T10:26:11Z</time>
      </trkpt>
      <trkpt lat="45.53038" lon="6.76852">
        <ele>1585.3</ele>
        <time>2021-08-03T10:26:12Z</time>
      </trkpt>
      <trkpt lat="45.53038" lon="6.76851">
        <ele>1585</ele>
        <time>2021-08-03T10:26:13Z</time>
      </trkpt>
      <trkpt lat="45.53039" lon="6.7685">
        <ele>1584.8</ele>
        <time>2021-08-03T10:26:14Z</time>
      </trkpt>
      <trkpt lat="45.53039" lon="6.7685">
        <ele>1584.5</ele>
        <time>2021-08-03T10:26:15Z</time>
      </trkpt>
      <trkpt lat="45.5304" lon="6.76849">
        <ele>1584.3</ele>
        <time>2021-08-03T10:26:16Z</time>
      </trkpt>
      <trkpt lat="45.53041" lon="6.76849">
        <ele>1584.1</ele>
        <time>2021-08-03T10:26:17Z</time>
      </trkpt>
      <trkpt lat="45.53041" lon="6.76849">
        <ele>1583.9</ele>
        <time>2021-08-03T10:26:18Z</time>
      </trkpt>
      <trkpt lat="45.53042" lon="6.76849">
        <ele>1583.8</ele>
        <time>2021-08-03T10:26:19Z</time>
      </trkpt>
      <trkpt lat="45.53042" lon="6.76849">
        <ele>1583.6</ele>
        <time>2021-08-03T10:26:20Z</time>
      </trkpt>
      <trkpt lat="45.53042" lon="6.76849">
        <ele>1583.5</ele>
        <time>2021-08-03T10:26:21Z</time>
      </trkpt>
      <trkpt lat="45.53043" lon="6.76849">
        <ele>1583.4</ele>
        <time>2021-08-03T10:26:22Z</time>
      </trkpt>
      <trkpt lat="45.53043" lon="6.7685">
        <ele>1583.2</ele>
        <time>2021-08-03T10:26:23Z</time>
      </trkpt>
      <trkpt lat="45.53043" lon="6.7685">
        <ele>1583.1</ele>
        <time>2021-08-03T10:26:24Z</time>
      </trkpt>
      <trkpt lat="45.53043" lon="6.76851">
        <ele>1583</ele>
        <time>2021-08-03T10:26:25Z</time>
      </trkpt>
      <trkpt lat="45.53043" lon="6.76851">
        <ele>1582.9</ele>
        <time>2021-08-03T10:26:26Z</time>
      </trkpt>
      <trkpt lat="45.53043" lon="6.76852">
        <ele>1582.8</ele>
        <time>2021-08-03T10:26:27Z</time>
      </trkpt>
      <trkpt lat="45.53043" lon="6.76852">
        <ele>1582.7</ele>
        <time>2021-08-03T10:26:28Z</time>
      </trkpt>
      <trkpt lat="45.53043" lon="6.76852">
        <ele>1582.7</ele>
        <time>2021-08-03T10:26:29Z</time>
      </trkpt>
      <trkpt lat="45.53043" lon="6.76852">
        <ele>1582.6</ele>
        <time>2021-08-03T10:26:30Z</time>
      </trkpt>
      <trkpt lat="45.53043" lon="6.76851">
        <ele>1582.5</ele>
        <time>2021-08-03T10:26:31Z</time>
      </trkpt>
      <trkpt lat="45.53043" lon="6.7685">
        <ele>1582.4</ele>
        <time>2021-08-03T10:26:32Z</time>
      </trkpt>
      <trkpt lat="45.53044" lon="6.7685">
        <ele>1582.1</ele>
        <time>2021-08-03T10:26:33Z</time>
      </trkpt>
      <trkpt lat="45.53044" lon="6.76848">
        <ele>1581.9</ele>
        <time>2021-08-03T10:26:34Z</time>
      </trkpt>
      <trkpt lat="45.53044" lon="6.76847">
        <ele>1581.6</ele>
        <time>2021-08-03T10:26:35Z</time>
      </trkpt>
      <trkpt lat="45.53044" lon="6.76846">
        <ele>1581.3</ele>
        <time>2021-08-03T10:26:36Z</time>
      </trkpt>
      <trkpt lat="45.53044" lon="6.76845">
        <ele>1581.1</ele>
        <time>2021-08-03T10:26:37Z</time>
      </trkpt>
      <trkpt lat="45.53044" lon="6.76844">
        <ele>1580.8</ele>
        <time>2021-08-03T10:26:38Z</time>
      </trkpt>
      <trkpt lat="45.53044" lon="6.76843">
        <ele>1580.6</ele>
        <time>2021-08-03T10:26:39Z</time>
      </trkpt>
      <trkpt lat="45.53044" lon="6.76842">
        <ele>1580.4</ele>
        <time>2021-08-03T10:26:40Z</time>
      </trkpt>
      <trkpt lat="45.53045" lon="6.76841">
        <ele>1580.2</ele>
        <time>2021-08-03T10:26:41Z</time>
      </trkpt>
      <trkpt lat="45.53045" lon="6.7684">
        <ele>1580</ele>
        <time>2021-08-03T10:26:42Z</time>
      </trkpt>
      <trkpt lat="45.53045" lon="6.76839">
        <ele>1579.9</ele>
        <time>2021-08-03T10:26:43Z</time>
      </trkpt>
      <trkpt lat="45.53045" lon="6.76839">
        <ele>1579.7</ele>
        <time>2021-08-03T10:26:44Z</time>
      </trkpt>
      <trkpt lat="45.53045" lon="6.76838">
        <ele>1579.6</ele>
        <time>2021-08-03T10:26:45Z</time>
      </trkpt>
      <trkpt lat="45.53045" lon="6.76837">
        <ele>1579.4</ele>
        <time>2021-08-03T10:26:46Z</time>
      </trkpt>
      <trkpt lat="45.53046" lon="6.76837">
        <ele>1579.3</ele>
        <time>2021-08-03T10:26:47Z</time>
      </trkpt>
      <trkpt lat="45.53046" lon="6.76836">
        <ele>1579.1</ele>
        <time>2021-08-03T10:26:48Z</time>
      </trkpt>
      <trkpt lat="45.53046" lon="6.76835">
        <ele>1579</ele>
        <time>2021-08-03T10:26:49Z</time>
      </trkpt>
      <trkpt lat="45.53046" lon="6.76835">
        <ele>1578.8</ele>
        <time>2021-08-03T10:26:50Z</time>
      </trkpt>
      <trkpt lat="45.53046" lon="6.76834">
        <ele>1578.6</ele>
        <time>2021-08-03T10:26:51Z</time>
      </trkpt>
      <trkpt lat="45.53047" lon="6.76833">
        <ele>1578.5</ele>
        <time>2021-08-03T10:26:52Z</time>
      </trkpt>
      <trkpt lat="45.53047" lon="6.76833">
        <ele>1578.3</ele>
        <time>2021-08-03T10:26:53Z</time>
      </trkpt>
      <trkpt lat="45.53047" lon="6.76832">
        <ele>1578.1</ele>
        <time>2021-08-03T10:26:54Z</time>
      </trkpt>
      <trkpt lat="45.53047" lon="6.76831">
        <ele>1577.9</ele>
        <time>2021-08-03T10:26:55Z</time>
      </trkpt>
      <trkpt lat="45.53048" lon="6.7683">
        <ele>1577.8</ele>
        <time>2021-08-03T10:26:56Z</time>
      </trkpt>
      <trkpt lat="45.53048" lon="6.76829">
        <ele>1577.5</ele>
        <time>2021-08-03T10:26:57Z</time>
      </trkpt>
      <trkpt lat="45.53048" lon="6.76828">
        <ele>1577.3</ele>
        <time>2021-08-03T10:26:58Z</time>
      </trkpt>
      <trkpt lat="45.53049" lon="6.76828">
        <ele>1577.1</ele>
        <time>2021-08-03T10:26:59Z</time>
      </trkpt>
      <trkpt lat="45.53049" lon="6.76827">
        <ele>1576.8</ele>
        <time>2021-08-03T10:27:00Z</time>
      </trkpt>
      <trkpt lat="45.5305" lon="6.76826">
        <ele>1576.6</ele>
        <time>2021-08-03T10:27:01Z</time>
      </trkpt>
      <trkpt lat="45.5305" lon="6.76824">
        <ele>1576.3</ele>
        <time>2021-08-03T10:27:02Z</time>
      </trkpt>
      <trkpt lat="45.53051" lon="6.76823">
        <ele>1575.9</ele>
        <time>2021-08-03T10:27:03Z</time>
      </trkpt>
      <trkpt lat="45.53052" lon="6.76822">
        <ele>1575.6</ele>
        <time>2021-08-03T10:27:04Z</time>
      </trkpt>
      <trkpt lat="45.53052" lon="6.76821">
        <ele>1575.3</ele>
        <time>2021-08-03T10:27:05Z</time>
      </trkpt>
      <trkpt lat="45.53053" lon="6.76821">
        <ele>1575.1</ele>
        <time>2021-08-03T10:27:06Z</time>
      </trkpt>
      <trkpt lat="45.53053" lon="6.7682">
        <ele>1575</ele>
        <time>2021-08-03T10:27:07Z</time>
      </trkpt>
      <trkpt lat="45.53054" lon="6.7682">
        <ele>1574.9</ele>
        <time>2021-08-03T10:27:08Z</time>
      </trkpt>
      <trkpt lat="45.53054" lon="6.7682">
        <ele>1574.8</ele>
        <time>2021-08-03T10:27:09Z</time>
      </trkpt>
      <trkpt lat="45.53054" lon="6.7682">
        <ele>1574.6</ele>
        <time>2021-08-03T10:27:10Z</time>
      </trkpt>
      <trkpt lat="45.53055" lon="6.7682">
        <ele>1574.5</ele>
        <time>2021-08-03T10:27:11Z</time>
      </trkpt>
      <trkpt lat="45.53055" lon="6.7682">
        <ele>1574.3</ele>
        <time>2021-08-03T10:27:12Z</time>
      </trkpt>
      <trkpt lat="45.53056" lon="6.7682">
        <ele>1574.1</ele>
        <time>2021-08-03T10:27:13Z</time>
      </trkpt>
      <trkpt lat="45.53057" lon="6.7682">
        <ele>1573.9</ele>
        <time>2021-08-03T10:27:14Z</time>
      </trkpt>
      <trkpt lat="45.53057" lon="6.7682">
        <ele>1573.7</ele>
        <time>2021-08-03T10:27:15Z</time>
      </trkpt>
      <trkpt lat="45.53058" lon="6.76819">
        <ele>1573.5</ele>
        <time>2021-08-03T10:27:16Z</time>
      </trkpt>
      <trkpt lat="45.53059" lon="6.76819">
        <ele>1573.4</ele>
        <time>2021-08-03T10:27:17Z</time>
      </trkpt>
      <trkpt lat="45.5306" lon="6.7682">
        <ele>1573</ele>
        <time>2021-08-03T10:27:18Z</time>
      </trkpt>
      <trkpt lat="45.5306" lon="6.7682">
        <ele>1572.8</ele>
        <time>2021-08-03T10:27:19Z</time>
      </trkpt>
      <trkpt lat="45.53061" lon="6.76821">
        <ele>1572.6</ele>
        <time>2021-08-03T10:27:20Z</time>
      </trkpt>
      <trkpt lat="45.53061" lon="6.76821">
        <ele>1572.5</ele>
        <time>2021-08-03T10:27:21Z</time>
      </trkpt>
      <trkpt lat="45.53062" lon="6.76822">
        <ele>1572.3</ele>
        <time>2021-08-03T10:27:22Z</time>
      </trkpt>
      <trkpt lat="45.53062" lon="6.76823">
        <ele>1572.1</ele>
        <time>2021-08-03T10:27:23Z</time>
      </trkpt>
      <trkpt lat="45.53063" lon="6.76823">
        <ele>1571.9</ele>
        <time>2021-08-03T10:27:24Z</time>
      </trkpt>
      <trkpt lat="45.53063" lon="6.76824">
        <ele>1571.7</ele>
        <time>2021-08-03T10:27:25Z</time>
      </trkpt>
      <trkpt lat="45.53064" lon="6.76824">
        <ele>1571.5</ele>
        <time>2021-08-03T10:27:26Z</time>
      </trkpt>
      <trkpt lat="45.53064" lon="6.76825">
        <ele>1571.3</ele>
        <time>2021-08-03T10:27:27Z</time>
      </trkpt>
      <trkpt lat="45.53065" lon="6.76825">
        <ele>1571.1</ele>
        <time>2021-08-03T10:27:28Z</time>
      </trkpt>
      <trkpt lat="45.53065" lon="6.76826">
        <ele>1570.9</ele>
        <time>2021-08-03T10:27:29Z</time>
      </trkpt>
      <trkpt lat="45.53066" lon="6.76827">
        <ele>1570.8</ele>
        <time>2021-08-03T10:27:30Z</time>
      </trkpt>
      <trkpt lat="45.53067" lon="6.76827">
        <ele>1570.6</ele>
        <time>2021-08-03T10:27:31Z</time>
      </trkpt>
      <trkpt lat="45.53067" lon="6.76828">
        <ele>1570.4</ele>
        <time>2021-08-03T10:27:32Z</time>
      </trkpt>
      <trkpt lat="45.53068" lon="6.76828">
        <ele>1570.2</ele>
        <time>2021-08-03T10:27:33Z</time>
      </trkpt>
      <trkpt lat="45.53068" lon="6.76829">
        <ele>1570</ele>
        <time>2021-08-03T10:27:34Z</time>
      </trkpt>
      <trkpt lat="45.53069" lon="6.76829">
        <ele>1569.8</ele>
        <time>2021-08-03T10:27:35Z</time>
      </trkpt>
      <trkpt lat="45.53069" lon="6.7683">
        <ele>1569.6</ele>
        <time>2021-08-03T10:27:36Z</time>
      </trkpt>
      <trkpt lat="45.5307" lon="6.76831">
        <ele>1569.4</ele>
        <time>2021-08-03T10:27:37Z</time>
      </trkpt>
      <trkpt lat="45.5307" lon="6.76831">
        <ele>1569.2</ele>
        <time>2021-08-03T10:27:38Z</time>
      </trkpt>
      <trkpt lat="45.53071" lon="6.76832">
        <ele>1569</ele>
        <time>2021-08-03T10:27:39Z</time>
      </trkpt>
      <trkpt lat="45.53071" lon="6.76832">
        <ele>1568.8</ele>
        <time>2021-08-03T10:27:40Z</time>
      </trkpt>
      <trkpt lat="45.53072" lon="6.76835">
        <ele>1568.3</ele>
        <time>2021-08-03T10:27:41Z</time>
      </trkpt>
      <trkpt lat="45.53072" lon="6.76835">
        <ele>1568.1</ele>
        <time>2021-08-03T10:27:42Z</time>
      </trkpt>
      <trkpt lat="45.53073" lon="6.76836">
        <ele>1567.8</ele>
        <time>2021-08-03T10:27:43Z</time>
      </trkpt>
      <trkpt lat="45.53073" lon="6.76838">
        <ele>1567.5</ele>
        <time>2021-08-03T10:27:44Z</time>
      </trkpt>
      <trkpt lat="45.53073" lon="6.76839">
        <ele>1567.3</ele>
        <time>2021-08-03T10:27:45Z</time>
      </trkpt>
      <trkpt lat="45.53073" lon="6.7684">
        <ele>1567</ele>
        <time>2021-08-03T10:27:46Z</time>
      </trkpt>
      <trkpt lat="45.53073" lon="6.76841">
        <ele>1566.7</ele>
        <time>2021-08-03T10:27:47Z</time>
      </trkpt>
      <trkpt lat="45.53073" lon="6.76843">
        <ele>1566.4</ele>
        <time>2021-08-03T10:27:48Z</time>
      </trkpt>
      <trkpt lat="45.53073" lon="6.76844">
        <ele>1566.1</ele>
        <time>2021-08-03T10:27:49Z</time>
      </trkpt>
      <trkpt lat="45.53073" lon="6.76845">
        <ele>1565.8</ele>
        <time>2021-08-03T10:27:50Z</time>
      </trkpt>
      <trkpt lat="45.53073" lon="6.76846">
        <ele>1565.6</ele>
        <time>2021-08-03T10:27:51Z</time>
      </trkpt>
      <trkpt lat="45.53073" lon="6.76847">
        <ele>1565.3</ele>
        <time>2021-08-03T10:27:52Z</time>
      </trkpt>
      <trkpt lat="45.53073" lon="6.76848">
        <ele>1565.1</ele>
        <time>2021-08-03T10:27:53Z</time>
      </trkpt>
      <trkpt lat="45.53073" lon="6.76849">
        <ele>1564.8</ele>
        <time>2021-08-03T10:27:54Z</time>
      </trkpt>
      <trkpt lat="45.53073" lon="6.7685">
        <ele>1564.6</ele>
        <time>2021-08-03T10:27:55Z</time>
      </trkpt>
      <trkpt lat="45.53073" lon="6.76851">
        <ele>1564.3</ele>
        <time>2021-08-03T10:27:56Z</time>
      </trkpt>
      <trkpt lat="45.53073" lon="6.76852">
        <ele>1564.1</ele>
        <time>2021-08-03T10:27:57Z</time>
      </trkpt>
      <trkpt lat="45.53073" lon="6.76853">
        <ele>1563.9</ele>
        <time>2021-08-03T10:27:58Z</time>
      </trkpt>
      <trkpt lat="45.53073" lon="6.76854">
        <ele>1563.6</ele>
        <time>2021-08-03T10:27:59Z</time>
      </trkpt>
      <trkpt lat="45.53073" lon="6.76854">
        <ele>1563.4</ele>
        <time>2021-08-03T10:28:00Z</time>
      </trkpt>
      <trkpt lat="45.53073" lon="6.76855">
        <ele>1563.3</ele>
        <time>2021-08-03T10:28:01Z</time>
      </trkpt>
      <trkpt lat="45.53073" lon="6.76856">
        <ele>1563.1</ele>
        <time>2021-08-03T10:28:02Z</time>
      </trkpt>
      <trkpt lat="45.53073" lon="6.76857">
        <ele>1562.9</ele>
        <time>2021-08-03T10:28:03Z</time>
      </trkpt>
      <trkpt lat="45.53073" lon="6.76857">
        <ele>1562.7</ele>
        <time>2021-08-03T10:28:04Z</time>
      </trkpt>
      <trkpt lat="45.53073" lon="6.76858">
        <ele>1562.6</ele>
        <time>2021-08-03T10:28:05Z</time>
      </trkpt>
      <trkpt lat="45.53074" lon="6.76858">
        <ele>1562.4</ele>
        <time>2021-08-03T10:28:06Z</time>
      </trkpt>
      <trkpt lat="45.53074" lon="6.76859">
        <ele>1562.3</ele>
        <time>2021-08-03T10:28:07Z</time>
      </trkpt>
      <trkpt lat="45.53074" lon="6.76859">
        <ele>1562.1</ele>
        <time>2021-08-03T10:28:08Z</time>
      </trkpt>
      <trkpt lat="45.53074" lon="6.7686">
        <ele>1562</ele>
        <time>2021-08-03T10:28:09Z</time>
      </trkpt>
      <trkpt lat="45.53074" lon="6.7686">
        <ele>1561.8</ele>
        <time>2021-08-03T10:28:10Z</time>
      </trkpt>
      <trkpt lat="45.53075" lon="6.76861">
        <ele>1561.6</ele>
        <time>2021-08-03T10:28:11Z</time>
      </trkpt>
      <trkpt lat="45.53075" lon="6.76862">
        <ele>1561.4</ele>
        <time>2021-08-03T10:28:12Z</time>
      </trkpt>
      <trkpt lat="45.53075" lon="6.76863">
        <ele>1561.1</ele>
        <time>2021-08-03T10:28:13Z</time>
      </trkpt>
      <trkpt lat="45.53075" lon="6.76864">
        <ele>1560.9</ele>
        <time>2021-08-03T10:28:14Z</time>
      </trkpt>
      <trkpt lat="45.53075" lon="6.76865">
        <ele>1560.6</ele>
        <time>2021-08-03T10:28:15Z</time>
      </trkpt>
      <trkpt lat="45.53075" lon="6.76866">
        <ele>1560.3</ele>
        <time>2021-08-03T10:28:16Z</time>
      </trkpt>
      <trkpt lat="45.53075" lon="6.76867">
        <ele>1560.1</ele>
        <time>2021-08-03T10:28:17Z</time>
      </trkpt>
      <trkpt lat="45.53076" lon="6.76868">
        <ele>1559.8</ele>
        <time>2021-08-03T10:28:18Z</time>
      </trkpt>
      <trkpt lat="45.53076" lon="6.76869">
        <ele>1559.6</ele>
        <time>2021-08-03T10:28:19Z</time>
      </trkpt>
      <trkpt lat="45.53076" lon="6.7687">
        <ele>1559.4</ele>
        <time>2021-08-03T10:28:20Z</time>
      </trkpt>
      <trkpt lat="45.53076" lon="6.7687">
        <ele>1559.3</ele>
        <time>2021-08-03T10:28:21Z</time>
      </trkpt>
      <trkpt lat="45.53076" lon="6.7687">
        <ele>1559.2</ele>
        <time>2021-08-03T10:28:22Z</time>
      </trkpt>
      <trkpt lat="45.53075" lon="6.76871">
        <ele>1559.1</ele>
        <time>2021-08-03T10:28:23Z</time>
      </trkpt>
      <trkpt lat="45.53075" lon="6.76871">
        <ele>1559.1</ele>
        <time>2021-08-03T10:28:24Z</time>
      </trkpt>
      <trkpt lat="45.53075" lon="6.76871">
        <ele>1559</ele>
        <time>2021-08-03T10:28:25Z</time>
      </trkpt>
      <trkpt lat="45.53075" lon="6.76872">
        <ele>1558.9</ele>
        <time>2021-08-03T10:28:26Z</time>
      </trkpt>
      <trkpt lat="45.53075" lon="6.76872">
        <ele>1558.7</ele>
        <time>2021-08-03T10:28:27Z</time>
      </trkpt>
      <trkpt lat="45.53075" lon="6.76873">
        <ele>1558.6</ele>
        <time>2021-08-03T10:28:28Z</time>
      </trkpt>
      <trkpt lat="45.53075" lon="6.76874">
        <ele>1558.4</ele>
        <time>2021-08-03T10:28:29Z</time>
      </trkpt>
      <trkpt lat="45.53075" lon="6.76874">
        <ele>1558.3</ele>
        <time>2021-08-03T10:28:30Z</time>
      </trkpt>
      <trkpt lat="45.53075" lon="6.76875">
        <ele>1558.1</ele>
        <time>2021-08-03T10:28:31Z</time>
      </trkpt>
      <trkpt lat="45.53075" lon="6.76876">
        <ele>1557.9</ele>
        <time>2021-08-03T10:28:32Z</time>
      </trkpt>
      <trkpt lat="45.53076" lon="6.76876">
        <ele>1557.8</ele>
        <time>2021-08-03T10:28:33Z</time>
      </trkpt>
      <trkpt lat="45.53076" lon="6.76877">
        <ele>1557.6</ele>
        <time>2021-08-03T10:28:34Z</time>
      </trkpt>
      <trkpt lat="45.53076" lon="6.76878">
        <ele>1557.4</ele>
        <time>2021-08-03T10:28:35Z</time>
      </trkpt>
      <trkpt lat="45.53076" lon="6.76879">
        <ele>1557.2</ele>
        <time>2021-08-03T10:28:36Z</time>
      </trkpt>
      <trkpt lat="45.53076" lon="6.76879">
        <ele>1557</ele>
        <time>2021-08-03T10:28:37Z</time>
      </trkpt>
      <trkpt lat="45.53076" lon="6.76881">
        <ele>1556.7</ele>
        <time>2021-08-03T10:28:38Z</time>
      </trkpt>
      <trkpt lat="45.53076" lon="6.76881">
        <ele>1556.6</ele>
        <time>2021-08-03T10:28:39Z</time>
      </trkpt>
      <trkpt lat="45.53076" lon="6.76882">
        <ele>1556.4</ele>
        <time>2021-08-03T10:28:40Z</time>
      </trkpt>
      <trkpt lat="45.53076" lon="6.76882">
        <ele>1556.3</ele>
        <time>2021-08-03T10:28:41Z</time>
      </trkpt>
      <trkpt lat="45.53077" lon="6.76883">
        <ele>1556.2</ele>
        <time>2021-08-03T10:28:42Z</time>
      </trkpt>
      <trkpt lat="45.53077" lon="6.76884">
        <ele>1556</ele>
        <time>2021-08-03T10:28:43Z</time>
      </trkpt>
      <trkpt lat="45.53077" lon="6.76884">
        <ele>1555.9</ele>
        <time>2021-08-03T10:28:44Z</time>
      </trkpt>
      <trkpt lat="45.53077" lon="6.76885">
        <ele>1555.8</ele>
        <time>2021-08-03T10:28:45Z</time>
      </trkpt>
      <trkpt lat="45.53077" lon="6.76885">
        <ele>1555.7</ele>
        <time>2021-08-03T10:28:46Z</time>
      </trkpt>
      <trkpt lat="45.53077" lon="6.76886">
        <ele>1555.6</ele>
        <time>2021-08-03T10:28:47Z</time>
      </trkpt>
      <trkpt lat="45.53077" lon="6.76886">
        <ele>1555.4</ele>
        <time>2021-08-03T10:28:48Z</time>
      </trkpt>
      <trkpt lat="45.53077" lon="6.76887">
        <ele>1555.4</ele>
        <time>2021-08-03T10:28:49Z</time>
      </trkpt>
      <trkpt lat="45.53076" lon="6.76887">
        <ele>1555.3</ele>
        <time>2021-08-03T10:28:50Z</time>
      </trkpt>
      <trkpt lat="45.53076" lon="6.76888">
        <ele>1555.2</ele>
        <time>2021-08-03T10:28:51Z</time>
      </trkpt>
      <trkpt lat="45.53076" lon="6.76888">
        <ele>1555.1</ele>
        <time>2021-08-03T10:28:52Z</time>
      </trkpt>
      <trkpt lat="45.53076" lon="6.76888">
        <ele>1555</ele>
        <time>2021-08-03T10:28:53Z</time>
      </trkpt>
      <trkpt lat="45.53076" lon="6.76888">
        <ele>1555</ele>
        <time>2021-08-03T10:28:54Z</time>
      </trkpt>
      <trkpt lat="45.53076" lon="6.76889">
        <ele>1554.9</ele>
        <time>2021-08-03T10:28:55Z</time>
      </trkpt>
      <trkpt lat="45.53076" lon="6.76889">
        <ele>1554.9</ele>
        <time>2021-08-03T10:28:56Z</time>
      </trkpt>
      <trkpt lat="45.53076" lon="6.76889">
        <ele>1554.8</ele>
        <time>2021-08-03T10:28:57Z</time>
      </trkpt>
      <trkpt lat="45.53076" lon="6.76889">
        <ele>1554.8</ele>
        <time>2021-08-03T10:28:58Z</time>
      </trkpt>
      <trkpt lat="45.53076" lon="6.76889">
        <ele>1554.8</ele>
        <time>2021-08-03T10:28:59Z</time>
      </trkpt>
      <trkpt lat="45.53076" lon="6.76889">
        <ele>1554.8</ele>
        <time>2021-08-03T10:29:00Z</time>
      </trkpt>
      <trkpt lat="45.53076" lon="6.76889">
        <ele>1554.8</ele>
        <time>2021-08-03T10:29:01Z</time>
      </trkpt>
      <trkpt lat="45.53076" lon="6.76889">
        <ele>1554.8</ele>
        <time>2021-08-03T10:29:02Z</time>
      </trkpt>
      <trkpt lat="45.53076" lon="6.76889">
        <ele>1554.7</ele>
        <time>2021-08-03T10:29:03Z</time>
      </trkpt>
      <trkpt lat="45.53075" lon="6.76889">
        <ele>1554.7</ele>
        <time>2021-08-03T10:29:04Z</time>
      </trkpt>
      <trkpt lat="45.53075" lon="6.76888">
        <ele>1554.6</ele>
        <time>2021-08-03T10:29:05Z</time>
      </trkpt>
      <trkpt lat="45.53075" lon="6.76888">
        <ele>1554.5</ele>
        <time>2021-08-03T10:29:06Z</time>
      </trkpt>
      <trkpt lat="45.53074" lon="6.76888">
        <ele>1554.3</ele>
        <time>2021-08-03T10:29:07Z</time>
      </trkpt>
      <trkpt lat="45.53074" lon="6.76888">
        <ele>1554.1</ele>
        <time>2021-08-03T10:29:08Z</time>
      </trkpt>
      <trkpt lat="45.53073" lon="6.76888">
        <ele>1553.8</ele>
        <time>2021-08-03T10:29:09Z</time>
      </trkpt>
      <trkpt lat="45.53071" lon="6.76887">
        <ele>1553.5</ele>
        <time>2021-08-03T10:29:10Z</time>
      </trkpt>
      <trkpt lat="45.53071" lon="6.76887">
        <ele>1553.3</ele>
        <time>2021-08-03T10:29:11Z</time>
      </trkpt>
      <trkpt lat="45.53071" lon="6.76887">
        <ele>1553.3</ele>
        <time>2021-08-03T10:29:12Z</time>
      </trkpt>
      <trkpt lat="45.53071" lon="6.76887">
        <ele>1553.3</ele>
        <time>2021-08-03T10:29:13Z</time>
      </trkpt>
      <trkpt lat="45.53071" lon="6.76887">
        <ele>1553.2</ele>
        <time>2021-08-03T10:29:14Z</time>
      </trkpt>
      <trkpt lat="45.53071" lon="6.76887">
        <ele>1553.2</ele>
        <time>2021-08-03T10:29:15Z</time>
      </trkpt>
      <trkpt lat="45.53071" lon="6.76887">
        <ele>1553.2</ele>
        <time>2021-08-03T10:29:16Z</time>
      </trkpt>
      <trkpt lat="45.53071" lon="6.76887">
        <ele>1553.2</ele>
        <time>2021-08-03T10:29:17Z</time>
      </trkpt>
      <trkpt lat="45.53071" lon="6.76887">
        <ele>1553.2</ele>
        <time>2021-08-03T10:29:18Z</time>
      </trkpt>
      <trkpt lat="45.5307" lon="6.76887">
        <ele>1553.2</ele>
        <time>2021-08-03T10:29:19Z</time>
      </trkpt>
      <trkpt lat="45.5307" lon="6.76887">
        <ele>1553.1</ele>
        <time>2021-08-03T10:29:20Z</time>
      </trkpt>
      <trkpt lat="45.5307" lon="6.76888">
        <ele>1553.1</ele>
        <time>2021-08-03T10:29:21Z</time>
      </trkpt>
      <trkpt lat="45.5307" lon="6.76888">
        <ele>1553</ele>
        <time>2021-08-03T10:29:22Z</time>
      </trkpt>
      <trkpt lat="45.5307" lon="6.76889">
        <ele>1552.8</ele>
        <time>2021-08-03T10:29:23Z</time>
      </trkpt>
      <trkpt lat="45.5307" lon="6.7689">
        <ele>1552.7</ele>
        <time>2021-08-03T10:29:24Z</time>
      </trkpt>
      <trkpt lat="45.5307" lon="6.7689">
        <ele>1552.5</ele>
        <time>2021-08-03T10:29:25Z</time>
      </trkpt>
      <trkpt lat="45.53071" lon="6.76892">
        <ele>1552.3</ele>
        <time>2021-08-03T10:29:26Z</time>
      </trkpt>
      <trkpt lat="45.53071" lon="6.76893">
        <ele>1552</ele>
        <time>2021-08-03T10:29:27Z</time>
      </trkpt>
      <trkpt lat="45.53071" lon="6.76894">
        <ele>1551.8</ele>
        <time>2021-08-03T10:29:28Z</time>
      </trkpt>
      <trkpt lat="45.53071" lon="6.76895">
        <ele>1551.6</ele>
        <time>2021-08-03T10:29:29Z</time>
      </trkpt>
      <trkpt lat="45.53071" lon="6.76896">
        <ele>1551.3</ele>
        <time>2021-08-03T10:29:30Z</time>
      </trkpt>
      <trkpt lat="45.53072" lon="6.76897">
        <ele>1551.2</ele>
        <time>2021-08-03T10:29:31Z</time>
      </trkpt>
      <trkpt lat="45.53072" lon="6.76898">
        <ele>1551</ele>
        <time>2021-08-03T10:29:32Z</time>
      </trkpt>
      <trkpt lat="45.53072" lon="6.76898">
        <ele>1550.8</ele>
        <time>2021-08-03T10:29:33Z</time>
      </trkpt>
      <trkpt lat="45.53072" lon="6.76899">
        <ele>1550.7</ele>
        <time>2021-08-03T10:29:34Z</time>
      </trkpt>
      <trkpt lat="45.53072" lon="6.769">
        <ele>1550.6</ele>
        <time>2021-08-03T10:29:35Z</time>
      </trkpt>
      <trkpt lat="45.53072" lon="6.769">
        <ele>1550.4</ele>
        <time>2021-08-03T10:29:36Z</time>
      </trkpt>
      <trkpt lat="45.53072" lon="6.76901">
        <ele>1550.3</ele>
        <time>2021-08-03T10:29:37Z</time>
      </trkpt>
      <trkpt lat="45.53072" lon="6.76902">
        <ele>1550.2</ele>
        <time>2021-08-03T10:29:38Z</time>
      </trkpt>
      <trkpt lat="45.53073" lon="6.76902">
        <ele>1550</ele>
        <time>2021-08-03T10:29:39Z</time>
      </trkpt>
      <trkpt lat="45.53073" lon="6.76903">
        <ele>1549.8</ele>
        <time>2021-08-03T10:29:40Z</time>
      </trkpt>
      <trkpt lat="45.53073" lon="6.76904">
        <ele>1549.6</ele>
        <time>2021-08-03T10:29:41Z</time>
      </trkpt>
      <trkpt lat="45.53073" lon="6.76905">
        <ele>1549.3</ele>
        <time>2021-08-03T10:29:42Z</time>
      </trkpt>
      <trkpt lat="45.53073" lon="6.76906">
        <ele>1549.1</ele>
        <time>2021-08-03T10:29:43Z</time>
      </trkpt>
      <trkpt lat="45.53074" lon="6.76908">
        <ele>1548.8</ele>
        <time>2021-08-03T10:29:44Z</time>
      </trkpt>
      <trkpt lat="45.53074" lon="6.76909">
        <ele>1548.6</ele>
        <time>2021-08-03T10:29:45Z</time>
      </trkpt>
      <trkpt lat="45.53074" lon="6.7691">
        <ele>1548.3</ele>
        <time>2021-08-03T10:29:46Z</time>
      </trkpt>
      <trkpt lat="45.53074" lon="6.76911">
        <ele>1548.1</ele>
        <time>2021-08-03T10:29:47Z</time>
      </trkpt>
      <trkpt lat="45.53074" lon="6.76913">
        <ele>1547.8</ele>
        <time>2021-08-03T10:29:48Z</time>
      </trkpt>
      <trkpt lat="45.53074" lon="6.76914">
        <ele>1547.6</ele>
        <time>2021-08-03T10:29:49Z</time>
      </trkpt>
      <trkpt lat="45.53074" lon="6.76915">
        <ele>1547.3</ele>
        <time>2021-08-03T10:29:50Z</time>
      </trkpt>
      <trkpt lat="45.53074" lon="6.76916">
        <ele>1547.1</ele>
        <time>2021-08-03T10:29:51Z</time>
      </trkpt>
      <trkpt lat="45.53074" lon="6.76917">
        <ele>1546.9</ele>
        <time>2021-08-03T10:29:52Z</time>
      </trkpt>
      <trkpt lat="45.53074" lon="6.76918">
        <ele>1546.7</ele>
        <time>2021-08-03T10:29:53Z</time>
      </trkpt>
      <trkpt lat="45.53074" lon="6.76919">
        <ele>1546.4</ele>
        <time>2021-08-03T10:29:54Z</time>
      </trkpt>
      <trkpt lat="45.53074" lon="6.7692">
        <ele>1546.2</ele>
        <time>2021-08-03T10:29:55Z</time>
      </trkpt>
      <trkpt lat="45.53074" lon="6.76921">
        <ele>1546</ele>
        <time>2021-08-03T10:29:56Z</time>
      </trkpt>
      <trkpt lat="45.53074" lon="6.76922">
        <ele>1545.8</ele>
        <time>2021-08-03T10:29:57Z</time>
      </trkpt>
      <trkpt lat="45.53074" lon="6.76923">
        <ele>1545.6</ele>
        <time>2021-08-03T10:29:58Z</time>
      </trkpt>
      <trkpt lat="45.53074" lon="6.76924">
        <ele>1545.4</ele>
        <time>2021-08-03T10:29:59Z</time>
      </trkpt>
      <trkpt lat="45.53074" lon="6.76925">
        <ele>1545.3</ele>
        <time>2021-08-03T10:30:00Z</time>
      </trkpt>
      <trkpt lat="45.53074" lon="6.76926">
        <ele>1545.1</ele>
        <time>2021-08-03T10:30:01Z</time>
      </trkpt>
      <trkpt lat="45.53074" lon="6.76927">
        <ele>1544.9</ele>
        <time>2021-08-03T10:30:02Z</time>
      </trkpt>
      <trkpt lat="45.53074" lon="6.76927">
        <ele>1544.8</ele>
        <time>2021-08-03T10:30:03Z</time>
      </trkpt>
      <trkpt lat="45.53074" lon="6.76928">
        <ele>1544.6</ele>
        <time>2021-08-03T10:30:04Z</time>
      </trkpt>
      <trkpt lat="45.53075" lon="6.76929">
        <ele>1544.5</ele>
        <time>2021-08-03T10:30:05Z</time>
      </trkpt>
      <trkpt lat="45.53075" lon="6.7693">
        <ele>1544.3</ele>
        <time>2021-08-03T10:30:06Z</time>
      </trkpt>
      <trkpt lat="45.53075" lon="6.7693">
        <ele>1544.1</ele>
        <time>2021-08-03T10:30:07Z</time>
      </trkpt>
      <trkpt lat="45.53076" lon="6.76931">
        <ele>1544</ele>
        <time>2021-08-03T10:30:08Z</time>
      </trkpt>
      <trkpt lat="45.53076" lon="6.76932">
        <ele>1543.8</ele>
        <time>2021-08-03T10:30:09Z</time>
      </trkpt>
      <trkpt lat="45.53076" lon="6.76932">
        <ele>1543.6</ele>
        <time>2021-08-03T10:30:10Z</time>
      </trkpt>
      <trkpt lat="45.53077" lon="6.76933">
        <ele>1543.5</ele>
        <time>2021-08-03T10:30:11Z</time>
      </trkpt>
      <trkpt lat="45.53077" lon="6.76934">
        <ele>1543.3</ele>
        <time>2021-08-03T10:30:12Z</time>
      </trkpt>
      <trkpt lat="45.53077" lon="6.76935">
        <ele>1543.2</ele>
        <time>2021-08-03T10:30:13Z</time>
      </trkpt>
      <trkpt lat="45.53077" lon="6.76935">
        <ele>1543</ele>
        <time>2021-08-03T10:30:14Z</time>
      </trkpt>
      <trkpt lat="45.53077" lon="6.76936">
        <ele>1542.9</ele>
        <time>2021-08-03T10:30:15Z</time>
      </trkpt>
      <trkpt lat="45.53077" lon="6.76937">
        <ele>1542.7</ele>
        <time>2021-08-03T10:30:16Z</time>
      </trkpt>
      <trkpt lat="45.53077" lon="6.76938">
        <ele>1542.5</ele>
        <time>2021-08-03T10:30:17Z</time>
      </trkpt>
      <trkpt lat="45.53078" lon="6.76939">
        <ele>1542.4</ele>
        <time>2021-08-03T10:30:18Z</time>
      </trkpt>
      <trkpt lat="45.53078" lon="6.7694">
        <ele>1542.2</ele>
        <time>2021-08-03T10:30:19Z</time>
      </trkpt>
      <trkpt lat="45.53078" lon="6.7694">
        <ele>1542</ele>
        <time>2021-08-03T10:30:20Z</time>
      </trkpt>
      <trkpt lat="45.53078" lon="6.76941">
        <ele>1541.8</ele>
        <time>2021-08-03T10:30:21Z</time>
      </trkpt>
      <trkpt lat="45.53079" lon="6.76942">
        <ele>1541.6</ele>
        <time>2021-08-03T10:30:22Z</time>
      </trkpt>
      <trkpt lat="45.53079" lon="6.76943">
        <ele>1541.4</ele>
        <time>2021-08-03T10:30:23Z</time>
      </trkpt>
      <trkpt lat="45.53079" lon="6.76944">
        <ele>1541.3</ele>
        <time>2021-08-03T10:30:24Z</time>
      </trkpt>
      <trkpt lat="45.53079" lon="6.76945">
        <ele>1541.1</ele>
        <time>2021-08-03T10:30:25Z</time>
      </trkpt>
      <trkpt lat="45.5308" lon="6.76946">
        <ele>1540.9</ele>
        <time>2021-08-03T10:30:26Z</time>
      </trkpt>
      <trkpt lat="45.5308" lon="6.76947">
        <ele>1540.7</ele>
        <time>2021-08-03T10:30:27Z</time>
      </trkpt>
      <trkpt lat="45.53079" lon="6.76948">
        <ele>1540.5</ele>
        <time>2021-08-03T10:30:28Z</time>
      </trkpt>
      <trkpt lat="45.53079" lon="6.76949">
        <ele>1540.3</ele>
        <time>2021-08-03T10:30:29Z</time>
      </trkpt>
      <trkpt lat="45.53079" lon="6.7695">
        <ele>1540.1</ele>
        <time>2021-08-03T10:30:30Z</time>
      </trkpt>
      <trkpt lat="45.53079" lon="6.76951">
        <ele>1539.9</ele>
        <time>2021-08-03T10:30:31Z</time>
      </trkpt>
      <trkpt lat="45.53079" lon="6.76952">
        <ele>1539.6</ele>
        <time>2021-08-03T10:30:32Z</time>
      </trkpt>
      <trkpt lat="45.53078" lon="6.76953">
        <ele>1539.4</ele>
        <time>2021-08-03T10:30:33Z</time>
      </trkpt>
      <trkpt lat="45.53078" lon="6.76954">
        <ele>1539.2</ele>
        <time>2021-08-03T10:30:34Z</time>
      </trkpt>
      <trkpt lat="45.53078" lon="6.76955">
        <ele>1539</ele>
        <time>2021-08-03T10:30:35Z</time>
      </trkpt>
      <trkpt lat="45.53078" lon="6.76956">
        <ele>1538.8</ele>
        <time>2021-08-03T10:30:36Z</time>
      </trkpt>
      <trkpt lat="45.53078" lon="6.76957">
        <ele>1538.6</ele>
        <time>2021-08-03T10:30:37Z</time>
      </trkpt>
      <trkpt lat="45.53078" lon="6.76958">
        <ele>1538.4</ele>
        <time>2021-08-03T10:30:38Z</time>
      </trkpt>
      <trkpt lat="45.53078" lon="6.76959">
        <ele>1538.2</ele>
        <time>2021-08-03T10:30:39Z</time>
      </trkpt>
      <trkpt lat="45.53078" lon="6.7696">
        <ele>1538</ele>
        <time>2021-08-03T10:30:40Z</time>
      </trkpt>
      <trkpt lat="45.53078" lon="6.76961">
        <ele>1537.8</ele>
        <time>2021-08-03T10:30:41Z</time>
      </trkpt>
      <trkpt lat="45.53078" lon="6.76962">
        <ele>1537.6</ele>
        <time>2021-08-03T10:30:42Z</time>
      </trkpt>
      <trkpt lat="45.53078" lon="6.76963">
        <ele>1537.5</ele>
        <time>2021-08-03T10:30:43Z</time>
      </trkpt>
      <trkpt lat="45.53077" lon="6.76964">
        <ele>1537.3</ele>
        <time>2021-08-03T10:30:44Z</time>
      </trkpt>
      <trkpt lat="45.53077" lon="6.76964">
        <ele>1537.1</ele>
        <time>2021-08-03T10:30:45Z</time>
      </trkpt>
      <trkpt lat="45.53077" lon="6.76965">
        <ele>1536.9</ele>
        <time>2021-08-03T10:30:46Z</time>
      </trkpt>
      <trkpt lat="45.53077" lon="6.76966">
        <ele>1536.7</ele>
        <time>2021-08-03T10:30:47Z</time>
      </trkpt>
      <trkpt lat="45.53076" lon="6.76967">
        <ele>1536.5</ele>
        <time>2021-08-03T10:30:48Z</time>
      </trkpt>
      <trkpt lat="45.53076" lon="6.76968">
        <ele>1536.3</ele>
        <time>2021-08-03T10:30:49Z</time>
      </trkpt>
      <trkpt lat="45.53076" lon="6.76968">
        <ele>1536.1</ele>
        <time>2021-08-03T10:30:50Z</time>
      </trkpt>
      <trkpt lat="45.53076" lon="6.7697">
        <ele>1535.9</ele>
        <time>2021-08-03T10:30:51Z</time>
      </trkpt>
      <trkpt lat="45.53076" lon="6.76971">
        <ele>1535.6</ele>
        <time>2021-08-03T10:30:52Z</time>
      </trkpt>
      <trkpt lat="45.53076" lon="6.76972">
        <ele>1535.4</ele>
        <time>2021-08-03T10:30:53Z</time>
      </trkpt>
      <trkpt lat="45.53076" lon="6.76973">
        <ele>1535.1</ele>
        <time>2021-08-03T10:30:54Z</time>
      </trkpt>
      <trkpt lat="45.53076" lon="6.76974">
        <ele>1534.9</ele>
        <time>2021-08-03T10:30:55Z</time>
      </trkpt>
      <trkpt lat="45.53076" lon="6.76975">
        <ele>1534.6</ele>
        <time>2021-08-03T10:30:56Z</time>
      </trkpt>
      <trkpt lat="45.53076" lon="6.76976">
        <ele>1534.3</ele>
        <time>2021-08-03T10:30:57Z</time>
      </trkpt>
      <trkpt lat="45.53076" lon="6.76977">
        <ele>1534.1</ele>
        <time>2021-08-03T10:30:58Z</time>
      </trkpt>
      <trkpt lat="45.53076" lon="6.76978">
        <ele>1533.9</ele>
        <time>2021-08-03T10:30:59Z</time>
      </trkpt>
      <trkpt lat="45.53076" lon="6.76979">
        <ele>1533.7</ele>
        <time>2021-08-03T10:31:00Z</time>
      </trkpt>
      <trkpt lat="45.53076" lon="6.7698">
        <ele>1533.5</ele>
        <time>2021-08-03T10:31:01Z</time>
      </trkpt>
      <trkpt lat="45.53076" lon="6.7698">
        <ele>1533.3</ele>
        <time>2021-08-03T10:31:02Z</time>
      </trkpt>
      <trkpt lat="45.53077" lon="6.7698">
        <ele>1533.2</ele>
        <time>2021-08-03T10:31:03Z</time>
      </trkpt>
      <trkpt lat="45.53077" lon="6.7698">
        <ele>1533.1</ele>
        <time>2021-08-03T10:31:04Z</time>
      </trkpt>
      <trkpt lat="45.53077" lon="6.7698">
        <ele>1533</ele>
        <time>2021-08-03T10:31:05Z</time>
      </trkpt>
      <trkpt lat="45.53078" lon="6.76979">
        <ele>1532.8</ele>
        <time>2021-08-03T10:31:06Z</time>
      </trkpt>
      <trkpt lat="45.53078" lon="6.76979">
        <ele>1532.7</ele>
        <time>2021-08-03T10:31:07Z</time>
      </trkpt>
      <trkpt lat="45.53079" lon="6.76979">
        <ele>1532.5</ele>
        <time>2021-08-03T10:31:08Z</time>
      </trkpt>
      <trkpt lat="45.53079" lon="6.76979">
        <ele>1532.4</ele>
        <time>2021-08-03T10:31:09Z</time>
      </trkpt>
      <trkpt lat="45.53079" lon="6.76978">
        <ele>1532.3</ele>
        <time>2021-08-03T10:31:10Z</time>
      </trkpt>
      <trkpt lat="45.5308" lon="6.76978">
        <ele>1532.2</ele>
        <time>2021-08-03T10:31:11Z</time>
      </trkpt>
      <trkpt lat="45.5308" lon="6.76978">
        <ele>1532</ele>
        <time>2021-08-03T10:31:12Z</time>
      </trkpt>
      <trkpt lat="45.5308" lon="6.76978">
        <ele>1531.9</ele>
        <time>2021-08-03T10:31:13Z</time>
      </trkpt>
      <trkpt lat="45.53081" lon="6.76977">
        <ele>1531.7</ele>
        <time>2021-08-03T10:31:14Z</time>
      </trkpt>
      <trkpt lat="45.53081" lon="6.76977">
        <ele>1531.6</ele>
        <time>2021-08-03T10:31:15Z</time>
      </trkpt>
      <trkpt lat="45.53081" lon="6.76977">
        <ele>1531.5</ele>
        <time>2021-08-03T10:31:16Z</time>
      </trkpt>
      <trkpt lat="45.53082" lon="6.76976">
        <ele>1531.4</ele>
        <time>2021-08-03T10:31:17Z</time>
      </trkpt>
      <trkpt lat="45.53082" lon="6.76976">
        <ele>1531.2</ele>
        <time>2021-08-03T10:31:18Z</time>
      </trkpt>
      <trkpt lat="45.53082" lon="6.76976">
        <ele>1531.1</ele>
        <time>2021-08-03T10:31:19Z</time>
      </trkpt>
      <trkpt lat="45.53083" lon="6.76976">
        <ele>1530.9</ele>
        <time>2021-08-03T10:31:20Z</time>
      </trkpt>
      <trkpt lat="45.53083" lon="6.76976">
        <ele>1530.8</ele>
        <time>2021-08-03T10:31:21Z</time>
      </trkpt>
      <trkpt lat="45.53084" lon="6.76976">
        <ele>1530.6</ele>
        <time>2021-08-03T10:31:22Z</time>
      </trkpt>
      <trkpt lat="45.53084" lon="6.76977">
        <ele>1530.5</ele>
        <time>2021-08-03T10:31:23Z</time>
      </trkpt>
      <trkpt lat="45.53084" lon="6.76977">
        <ele>1530.4</ele>
        <time>2021-08-03T10:31:24Z</time>
      </trkpt>
      <trkpt lat="45.53084" lon="6.76978">
        <ele>1530.2</ele>
        <time>2021-08-03T10:31:25Z</time>
      </trkpt>
      <trkpt lat="45.53084" lon="6.76979">
        <ele>1530</ele>
        <time>2021-08-03T10:31:26Z</time>
      </trkpt>
      <trkpt lat="45.53084" lon="6.7698">
        <ele>1529.8</ele>
        <time>2021-08-03T10:31:27Z</time>
      </trkpt>
      <trkpt lat="45.53084" lon="6.76981">
        <ele>1529.6</ele>
        <time>2021-08-03T10:31:28Z</time>
      </trkpt>
      <trkpt lat="45.53084" lon="6.76981">
        <ele>1529.4</ele>
        <time>2021-08-03T10:31:29Z</time>
      </trkpt>
      <trkpt lat="45.53084" lon="6.76982">
        <ele>1529.2</ele>
        <time>2021-08-03T10:31:30Z</time>
      </trkpt>
      <trkpt lat="45.53085" lon="6.76983">
        <ele>1528.9</ele>
        <time>2021-08-03T10:31:31Z</time>
      </trkpt>
      <trkpt lat="45.53085" lon="6.76984">
        <ele>1528.8</ele>
        <time>2021-08-03T10:31:32Z</time>
      </trkpt>
      <trkpt lat="45.53085" lon="6.76984">
        <ele>1528.6</ele>
        <time>2021-08-03T10:31:33Z</time>
      </trkpt>
      <trkpt lat="45.53086" lon="6.76985">
        <ele>1528.5</ele>
        <time>2021-08-03T10:31:34Z</time>
      </trkpt>
      <trkpt lat="45.53086" lon="6.76985">
        <ele>1528.3</ele>
        <time>2021-08-03T10:31:35Z</time>
      </trkpt>
      <trkpt lat="45.53087" lon="6.76986">
        <ele>1528.3</ele>
        <time>2021-08-03T10:31:36Z</time>
      </trkpt>
      <trkpt lat="45.53087" lon="6.76986">
        <ele>1528.2</ele>
        <time>2021-08-03T10:31:37Z</time>
      </trkpt>
      <trkpt lat="45.53087" lon="6.76986">
        <ele>1528.1</ele>
        <time>2021-08-03T10:31:38Z</time>
      </trkpt>
      <trkpt lat="45.53088" lon="6.76986">
        <ele>1528.1</ele>
        <time>2021-08-03T10:31:39Z</time>
      </trkpt>
      <trkpt lat="45.53088" lon="6.76985">
        <ele>1528.1</ele>
        <time>2021-08-03T10:31:40Z</time>
      </trkpt>
      <trkpt lat="45.53088" lon="6.76985">
        <ele>1528</ele>
        <time>2021-08-03T10:31:41Z</time>
      </trkpt>
      <trkpt lat="45.53088" lon="6.76985">
        <ele>1528</ele>
        <time>2021-08-03T10:31:42Z</time>
      </trkpt>
      <trkpt lat="45.53089" lon="6.76985">
        <ele>1527.8</ele>
        <time>2021-08-03T10:31:43Z</time>
      </trkpt>
      <trkpt lat="45.53089" lon="6.76985">
        <ele>1527.7</ele>
        <time>2021-08-03T10:31:44Z</time>
      </trkpt>
      <trkpt lat="45.5309" lon="6.76986">
        <ele>1527.5</ele>
        <time>2021-08-03T10:31:45Z</time>
      </trkpt>
      <trkpt lat="45.5309" lon="6.76986">
        <ele>1527.4</ele>
        <time>2021-08-03T10:31:46Z</time>
      </trkpt>
      <trkpt lat="45.53091" lon="6.76987">
        <ele>1527.2</ele>
        <time>2021-08-03T10:31:47Z</time>
      </trkpt>
      <trkpt lat="45.53091" lon="6.76987">
        <ele>1527.2</ele>
        <time>2021-08-03T10:31:48Z</time>
      </trkpt>
      <trkpt lat="45.53091" lon="6.76987">
        <ele>1527</ele>
        <time>2021-08-03T10:31:49Z</time>
      </trkpt>
      <trkpt lat="45.53092" lon="6.76987">
        <ele>1527</ele>
        <time>2021-08-03T10:31:50Z</time>
      </trkpt>
      <trkpt lat="45.53093" lon="6.76986">
        <ele>1526.7</ele>
        <time>2021-08-03T10:31:51Z</time>
      </trkpt>
      <trkpt lat="45.53093" lon="6.76986">
        <ele>1526.6</ele>
        <time>2021-08-03T10:31:52Z</time>
      </trkpt>
      <trkpt lat="45.53094" lon="6.76986">
        <ele>1526.3</ele>
        <time>2021-08-03T10:31:53Z</time>
      </trkpt>
      <trkpt lat="45.53095" lon="6.76986">
        <ele>1526.1</ele>
        <time>2021-08-03T10:31:54Z</time>
      </trkpt>
      <trkpt lat="45.53095" lon="6.76986">
        <ele>1525.9</ele>
        <time>2021-08-03T10:31:55Z</time>
      </trkpt>
      <trkpt lat="45.53096" lon="6.76986">
        <ele>1525.8</ele>
        <time>2021-08-03T10:31:56Z</time>
      </trkpt>
      <trkpt lat="45.53096" lon="6.76986">
        <ele>1525.7</ele>
        <time>2021-08-03T10:31:57Z</time>
      </trkpt>
      <trkpt lat="45.53097" lon="6.76986">
        <ele>1525.6</ele>
        <time>2021-08-03T10:31:58Z</time>
      </trkpt>
      <trkpt lat="45.53097" lon="6.76986">
        <ele>1525.6</ele>
        <time>2021-08-03T10:31:59Z</time>
      </trkpt>
      <trkpt lat="45.53098" lon="6.76986">
        <ele>1525.4</ele>
        <time>2021-08-03T10:32:00Z</time>
      </trkpt>
      <trkpt lat="45.53098" lon="6.76987">
        <ele>1525.3</ele>
        <time>2021-08-03T10:32:01Z</time>
      </trkpt>
      <trkpt lat="45.53099" lon="6.76987">
        <ele>1525.1</ele>
        <time>2021-08-03T10:32:02Z</time>
      </trkpt>
      <trkpt lat="45.53099" lon="6.76988">
        <ele>1525.1</ele>
        <time>2021-08-03T10:32:03Z</time>
      </trkpt>
      <trkpt lat="45.53099" lon="6.76988">
        <ele>1525</ele>
        <time>2021-08-03T10:32:04Z</time>
      </trkpt>
      <trkpt lat="45.53099" lon="6.76988">
        <ele>1524.9</ele>
        <time>2021-08-03T10:32:05Z</time>
      </trkpt>
      <trkpt lat="45.531" lon="6.76989">
        <ele>1524.9</ele>
        <time>2021-08-03T10:32:06Z</time>
      </trkpt>
      <trkpt lat="45.531" lon="6.76989">
        <ele>1524.7</ele>
        <time>2021-08-03T10:32:07Z</time>
      </trkpt>
      <trkpt lat="45.531" lon="6.76989">
        <ele>1524.6</ele>
        <time>2021-08-03T10:32:08Z</time>
      </trkpt>
      <trkpt lat="45.53101" lon="6.7699">
        <ele>1524.6</ele>
        <time>2021-08-03T10:32:09Z</time>
      </trkpt>
      <trkpt lat="45.53101" lon="6.7699">
        <ele>1524.5</ele>
        <time>2021-08-03T10:32:10Z</time>
      </trkpt>
      <trkpt lat="45.53101" lon="6.7699">
        <ele>1524.4</ele>
        <time>2021-08-03T10:32:11Z</time>
      </trkpt>
      <trkpt lat="45.53101" lon="6.76991">
        <ele>1524.4</ele>
        <time>2021-08-03T10:32:12Z</time>
      </trkpt>
      <trkpt lat="45.53102" lon="6.76991">
        <ele>1524.3</ele>
        <time>2021-08-03T10:32:13Z</time>
      </trkpt>
      <trkpt lat="45.53102" lon="6.76991">
        <ele>1524.2</ele>
        <time>2021-08-03T10:32:14Z</time>
      </trkpt>
      <trkpt lat="45.53102" lon="6.76992">
        <ele>1524.1</ele>
        <time>2021-08-03T10:32:15Z</time>
      </trkpt>
      <trkpt lat="45.53102" lon="6.76993">
        <ele>1523.9</ele>
        <time>2021-08-03T10:32:16Z</time>
      </trkpt>
      <trkpt lat="45.53102" lon="6.76994">
        <ele>1523.7</ele>
        <time>2021-08-03T10:32:17Z</time>
      </trkpt>
      <trkpt lat="45.53102" lon="6.76995">
        <ele>1523.5</ele>
        <time>2021-08-03T10:32:18Z</time>
      </trkpt>
      <trkpt lat="45.53102" lon="6.76996">
        <ele>1523.3</ele>
        <time>2021-08-03T10:32:19Z</time>
      </trkpt>
      <trkpt lat="45.53102" lon="6.76997">
        <ele>1523.1</ele>
        <time>2021-08-03T10:32:20Z</time>
      </trkpt>
      <trkpt lat="45.53102" lon="6.76998">
        <ele>1522.9</ele>
        <time>2021-08-03T10:32:21Z</time>
      </trkpt>
      <trkpt lat="45.53102" lon="6.76999">
        <ele>1522.7</ele>
        <time>2021-08-03T10:32:22Z</time>
      </trkpt>
      <trkpt lat="45.53102" lon="6.77">
        <ele>1522.5</ele>
        <time>2021-08-03T10:32:23Z</time>
      </trkpt>
      <trkpt lat="45.53102" lon="6.77001">
        <ele>1522.4</ele>
        <time>2021-08-03T10:32:24Z</time>
      </trkpt>
      <trkpt lat="45.53102" lon="6.77002">
        <ele>1522.2</ele>
        <time>2021-08-03T10:32:25Z</time>
      </trkpt>
      <trkpt lat="45.53102" lon="6.77003">
        <ele>1522.1</ele>
        <time>2021-08-03T10:32:26Z</time>
      </trkpt>
      <trkpt lat="45.53102" lon="6.77004">
        <ele>1521.9</ele>
        <time>2021-08-03T10:32:27Z</time>
      </trkpt>
      <trkpt lat="45.53102" lon="6.77004">
        <ele>1521.8</ele>
        <time>2021-08-03T10:32:28Z</time>
      </trkpt>
      <trkpt lat="45.53103" lon="6.77005">
        <ele>1521.7</ele>
        <time>2021-08-03T10:32:29Z</time>
      </trkpt>
      <trkpt lat="45.53103" lon="6.77006">
        <ele>1521.6</ele>
        <time>2021-08-03T10:32:30Z</time>
      </trkpt>
      <trkpt lat="45.53103" lon="6.77007">
        <ele>1521.4</ele>
        <time>2021-08-03T10:32:31Z</time>
      </trkpt>
      <trkpt lat="45.53103" lon="6.77007">
        <ele>1521.3</ele>
        <time>2021-08-03T10:32:32Z</time>
      </trkpt>
      <trkpt lat="45.53103" lon="6.77008">
        <ele>1521.1</ele>
        <time>2021-08-03T10:32:33Z</time>
      </trkpt>
      <trkpt lat="45.53103" lon="6.77009">
        <ele>1521</ele>
        <time>2021-08-03T10:32:34Z</time>
      </trkpt>
      <trkpt lat="45.53103" lon="6.7701">
        <ele>1520.7</ele>
        <time>2021-08-03T10:32:35Z</time>
      </trkpt>
      <trkpt lat="45.53102" lon="6.77011">
        <ele>1520.6</ele>
        <time>2021-08-03T10:32:36Z</time>
      </trkpt>
      <trkpt lat="45.53102" lon="6.77012">
        <ele>1520.3</ele>
        <time>2021-08-03T10:32:37Z</time>
      </trkpt>
      <trkpt lat="45.53101" lon="6.77013">
        <ele>1520.2</ele>
        <time>2021-08-03T10:32:38Z</time>
      </trkpt>
      <trkpt lat="45.53101" lon="6.77015">
        <ele>1519.9</ele>
        <time>2021-08-03T10:32:39Z</time>
      </trkpt>
      <trkpt lat="45.53101" lon="6.77015">
        <ele>1519.7</ele>
        <time>2021-08-03T10:32:40Z</time>
      </trkpt>
      <trkpt lat="45.531" lon="6.77016">
        <ele>1519.6</ele>
        <time>2021-08-03T10:32:41Z</time>
      </trkpt>
      <trkpt lat="45.531" lon="6.77017">
        <ele>1519.4</ele>
        <time>2021-08-03T10:32:42Z</time>
      </trkpt>
      <trkpt lat="45.53099" lon="6.77018">
        <ele>1519.3</ele>
        <time>2021-08-03T10:32:43Z</time>
      </trkpt>
      <trkpt lat="45.53099" lon="6.77018">
        <ele>1519.1</ele>
        <time>2021-08-03T10:32:44Z</time>
      </trkpt>
      <trkpt lat="45.53099" lon="6.77019">
        <ele>1519.1</ele>
        <time>2021-08-03T10:32:45Z</time>
      </trkpt>
      <trkpt lat="45.53098" lon="6.77019">
        <ele>1519</ele>
        <time>2021-08-03T10:32:46Z</time>
      </trkpt>
      <trkpt lat="45.53098" lon="6.77019">
        <ele>1518.9</ele>
        <time>2021-08-03T10:32:47Z</time>
      </trkpt>
      <trkpt lat="45.53098" lon="6.7702">
        <ele>1518.8</ele>
        <time>2021-08-03T10:32:48Z</time>
      </trkpt>
      <trkpt lat="45.53098" lon="6.7702">
        <ele>1518.7</ele>
        <time>2021-08-03T10:32:49Z</time>
      </trkpt>
      <trkpt lat="45.53097" lon="6.77021">
        <ele>1518.7</ele>
        <time>2021-08-03T10:32:50Z</time>
      </trkpt>
      <trkpt lat="45.53097" lon="6.77021">
        <ele>1518.6</ele>
        <time>2021-08-03T10:32:51Z</time>
      </trkpt>
      <trkpt lat="45.53097" lon="6.77022">
        <ele>1518.5</ele>
        <time>2021-08-03T10:32:52Z</time>
      </trkpt>
      <trkpt lat="45.53097" lon="6.77022">
        <ele>1518.5</ele>
        <time>2021-08-03T10:32:53Z</time>
      </trkpt>
      <trkpt lat="45.53097" lon="6.77023">
        <ele>1518.3</ele>
        <time>2021-08-03T10:32:54Z</time>
      </trkpt>
      <trkpt lat="45.53097" lon="6.77024">
        <ele>1518.2</ele>
        <time>2021-08-03T10:32:55Z</time>
      </trkpt>
      <trkpt lat="45.53097" lon="6.77024">
        <ele>1518.1</ele>
        <time>2021-08-03T10:32:56Z</time>
      </trkpt>
      <trkpt lat="45.53096" lon="6.77025">
        <ele>1518</ele>
        <time>2021-08-03T10:32:57Z</time>
      </trkpt>
      <trkpt lat="45.53096" lon="6.77026">
        <ele>1517.9</ele>
        <time>2021-08-03T10:32:58Z</time>
      </trkpt>
      <trkpt lat="45.53096" lon="6.77027">
        <ele>1517.7</ele>
        <time>2021-08-03T10:32:59Z</time>
      </trkpt>
      <trkpt lat="45.53096" lon="6.77027">
        <ele>1517.6</ele>
        <time>2021-08-03T10:33:00Z</time>
      </trkpt>
      <trkpt lat="45.53096" lon="6.77028">
        <ele>1517.5</ele>
        <time>2021-08-03T10:33:01Z</time>
      </trkpt>
      <trkpt lat="45.53095" lon="6.77029">
        <ele>1517.3</ele>
        <time>2021-08-03T10:33:02Z</time>
      </trkpt>
      <trkpt lat="45.53095" lon="6.7703">
        <ele>1517.2</ele>
        <time>2021-08-03T10:33:03Z</time>
      </trkpt>
      <trkpt lat="45.53095" lon="6.77031">
        <ele>1517</ele>
        <time>2021-08-03T10:33:04Z</time>
      </trkpt>
      <trkpt lat="45.53095" lon="6.77032">
        <ele>1516.8</ele>
        <time>2021-08-03T10:33:05Z</time>
      </trkpt>
      <trkpt lat="45.53094" lon="6.77033">
        <ele>1516.7</ele>
        <time>2021-08-03T10:33:06Z</time>
      </trkpt>
      <trkpt lat="45.53094" lon="6.77033">
        <ele>1516.5</ele>
        <time>2021-08-03T10:33:07Z</time>
      </trkpt>
      <trkpt lat="45.53094" lon="6.77034">
        <ele>1516.4</ele>
        <time>2021-08-03T10:33:08Z</time>
      </trkpt>
      <trkpt lat="45.53093" lon="6.77035">
        <ele>1516.3</ele>
        <time>2021-08-03T10:33:09Z</time>
      </trkpt>
      <trkpt lat="45.53093" lon="6.77036">
        <ele>1516.1</ele>
        <time>2021-08-03T10:33:10Z</time>
      </trkpt>
      <trkpt lat="45.53093" lon="6.77036">
        <ele>1516</ele>
        <time>2021-08-03T10:33:11Z</time>
      </trkpt>
      <trkpt lat="45.53093" lon="6.77037">
        <ele>1515.8</ele>
        <time>2021-08-03T10:33:12Z</time>
      </trkpt>
      <trkpt lat="45.53092" lon="6.77038">
        <ele>1515.7</ele>
        <time>2021-08-03T10:33:13Z</time>
      </trkpt>
      <trkpt lat="45.53092" lon="6.77038">
        <ele>1515.5</ele>
        <time>2021-08-03T10:33:14Z</time>
      </trkpt>
      <trkpt lat="45.53092" lon="6.77039">
        <ele>1515.4</ele>
        <time>2021-08-03T10:33:15Z</time>
      </trkpt>
      <trkpt lat="45.53092" lon="6.77039">
        <ele>1515.3</ele>
        <time>2021-08-03T10:33:16Z</time>
      </trkpt>
      <trkpt lat="45.53091" lon="6.7704">
        <ele>1515.2</ele>
        <time>2021-08-03T10:33:17Z</time>
      </trkpt>
      <trkpt lat="45.53091" lon="6.7704">
        <ele>1515.1</ele>
        <time>2021-08-03T10:33:18Z</time>
      </trkpt>
      <trkpt lat="45.53091" lon="6.77041">
        <ele>1515</ele>
        <time>2021-08-03T10:33:19Z</time>
      </trkpt>
      <trkpt lat="45.53091" lon="6.77041">
        <ele>1514.9</ele>
        <time>2021-08-03T10:33:20Z</time>
      </trkpt>
      <trkpt lat="45.53091" lon="6.77042">
        <ele>1514.7</ele>
        <time>2021-08-03T10:33:21Z</time>
      </trkpt>
      <trkpt lat="45.53091" lon="6.77043">
        <ele>1514.6</ele>
        <time>2021-08-03T10:33:22Z</time>
      </trkpt>
      <trkpt lat="45.5309" lon="6.77044">
        <ele>1514.4</ele>
        <time>2021-08-03T10:33:23Z</time>
      </trkpt>
      <trkpt lat="45.5309" lon="6.77044">
        <ele>1514.3</ele>
        <time>2021-08-03T10:33:24Z</time>
      </trkpt>
      <trkpt lat="45.5309" lon="6.77045">
        <ele>1514.1</ele>
        <time>2021-08-03T10:33:25Z</time>
      </trkpt>
      <trkpt lat="45.5309" lon="6.77046">
        <ele>1513.9</ele>
        <time>2021-08-03T10:33:26Z</time>
      </trkpt>
      <trkpt lat="45.5309" lon="6.77047">
        <ele>1513.8</ele>
        <time>2021-08-03T10:33:27Z</time>
      </trkpt>
      <trkpt lat="45.5309" lon="6.77048">
        <ele>1513.6</ele>
        <time>2021-08-03T10:33:28Z</time>
      </trkpt>
      <trkpt lat="45.5309" lon="6.77049">
        <ele>1513.4</ele>
        <time>2021-08-03T10:33:29Z</time>
      </trkpt>
      <trkpt lat="45.53089" lon="6.7705">
        <ele>1513.3</ele>
        <time>2021-08-03T10:33:30Z</time>
      </trkpt>
      <trkpt lat="45.53089" lon="6.77051">
        <ele>1513.1</ele>
        <time>2021-08-03T10:33:31Z</time>
      </trkpt>
      <trkpt lat="45.53089" lon="6.77051">
        <ele>1512.9</ele>
        <time>2021-08-03T10:33:32Z</time>
      </trkpt>
      <trkpt lat="45.53089" lon="6.77052">
        <ele>1512.8</ele>
        <time>2021-08-03T10:33:33Z</time>
      </trkpt>
      <trkpt lat="45.53089" lon="6.77053">
        <ele>1512.7</ele>
        <time>2021-08-03T10:33:34Z</time>
      </trkpt>
      <trkpt lat="45.53088" lon="6.77053">
        <ele>1512.6</ele>
        <time>2021-08-03T10:33:35Z</time>
      </trkpt>
      <trkpt lat="45.53089" lon="6.77054">
        <ele>1512.5</ele>
        <time>2021-08-03T10:33:36Z</time>
      </trkpt>
      <trkpt lat="45.53089" lon="6.77054">
        <ele>1512.4</ele>
        <time>2021-08-03T10:33:37Z</time>
      </trkpt>
      <trkpt lat="45.53089" lon="6.77055">
        <ele>1512.3</ele>
        <time>2021-08-03T10:33:38Z</time>
      </trkpt>
      <trkpt lat="45.53089" lon="6.77055">
        <ele>1512.2</ele>
        <time>2021-08-03T10:33:39Z</time>
      </trkpt>
      <trkpt lat="45.5309" lon="6.77055">
        <ele>1512.1</ele>
        <time>2021-08-03T10:33:40Z</time>
      </trkpt>
      <trkpt lat="45.5309" lon="6.77056">
        <ele>1512</ele>
        <time>2021-08-03T10:33:41Z</time>
      </trkpt>
      <trkpt lat="45.53091" lon="6.77056">
        <ele>1511.8</ele>
        <time>2021-08-03T10:33:42Z</time>
      </trkpt>
      <trkpt lat="45.53091" lon="6.77057">
        <ele>1511.7</ele>
        <time>2021-08-03T10:33:43Z</time>
      </trkpt>
      <trkpt lat="45.53092" lon="6.77057">
        <ele>1511.5</ele>
        <time>2021-08-03T10:33:44Z</time>
      </trkpt>
      <trkpt lat="45.53092" lon="6.77058">
        <ele>1511.3</ele>
        <time>2021-08-03T10:33:45Z</time>
      </trkpt>
      <trkpt lat="45.53093" lon="6.77059">
        <ele>1511.2</ele>
        <time>2021-08-03T10:33:46Z</time>
      </trkpt>
      <trkpt lat="45.53093" lon="6.7706">
        <ele>1511</ele>
        <time>2021-08-03T10:33:47Z</time>
      </trkpt>
      <trkpt lat="45.53094" lon="6.77061">
        <ele>1510.7</ele>
        <time>2021-08-03T10:33:48Z</time>
      </trkpt>
      <trkpt lat="45.53094" lon="6.77062">
        <ele>1510.5</ele>
        <time>2021-08-03T10:33:49Z</time>
      </trkpt>
      <trkpt lat="45.53095" lon="6.77063">
        <ele>1510.3</ele>
        <time>2021-08-03T10:33:50Z</time>
      </trkpt>
      <trkpt lat="45.53095" lon="6.77064">
        <ele>1510.1</ele>
        <time>2021-08-03T10:33:51Z</time>
      </trkpt>
      <trkpt lat="45.53096" lon="6.77065">
        <ele>1509.8</ele>
        <time>2021-08-03T10:33:52Z</time>
      </trkpt>
      <trkpt lat="45.53096" lon="6.77067">
        <ele>1509.6</ele>
        <time>2021-08-03T10:33:53Z</time>
      </trkpt>
      <trkpt lat="45.53097" lon="6.77068">
        <ele>1509.4</ele>
        <time>2021-08-03T10:33:54Z</time>
      </trkpt>
      <trkpt lat="45.53097" lon="6.77069">
        <ele>1509.2</ele>
        <time>2021-08-03T10:33:55Z</time>
      </trkpt>
      <trkpt lat="45.53098" lon="6.7707">
        <ele>1508.9</ele>
        <time>2021-08-03T10:33:56Z</time>
      </trkpt>
      <trkpt lat="45.53098" lon="6.77072">
        <ele>1508.7</ele>
        <time>2021-08-03T10:33:57Z</time>
      </trkpt>
      <trkpt lat="45.53099" lon="6.77074">
        <ele>1508.3</ele>
        <time>2021-08-03T10:33:58Z</time>
      </trkpt>
      <trkpt lat="45.53099" lon="6.77074">
        <ele>1508.2</ele>
        <time>2021-08-03T10:33:59Z</time>
      </trkpt>
      <trkpt lat="45.53099" lon="6.77075">
        <ele>1508.1</ele>
        <time>2021-08-03T10:34:00Z</time>
      </trkpt>
      <trkpt lat="45.53099" lon="6.77076">
        <ele>1507.9</ele>
        <time>2021-08-03T10:34:01Z</time>
      </trkpt>
      <trkpt lat="45.531" lon="6.77077">
        <ele>1507.8</ele>
        <time>2021-08-03T10:34:02Z</time>
      </trkpt>
      <trkpt lat="45.531" lon="6.77078">
        <ele>1507.6</ele>
        <time>2021-08-03T10:34:03Z</time>
      </trkpt>
      <trkpt lat="45.531" lon="6.77079">
        <ele>1507.5</ele>
        <time>2021-08-03T10:34:04Z</time>
      </trkpt>
      <trkpt lat="45.531" lon="6.7708">
        <ele>1507.3</ele>
        <time>2021-08-03T10:34:05Z</time>
      </trkpt>
      <trkpt lat="45.531" lon="6.77081">
        <ele>1507.2</ele>
        <time>2021-08-03T10:34:06Z</time>
      </trkpt>
      <trkpt lat="45.531" lon="6.77082">
        <ele>1507</ele>
        <time>2021-08-03T10:34:07Z</time>
      </trkpt>
      <trkpt lat="45.531" lon="6.77083">
        <ele>1506.9</ele>
        <time>2021-08-03T10:34:08Z</time>
      </trkpt>
      <trkpt lat="45.531" lon="6.77083">
        <ele>1506.8</ele>
        <time>2021-08-03T10:34:09Z</time>
      </trkpt>
      <trkpt lat="45.531" lon="6.77084">
        <ele>1506.6</ele>
        <time>2021-08-03T10:34:10Z</time>
      </trkpt>
      <trkpt lat="45.53101" lon="6.77085">
        <ele>1506.5</ele>
        <time>2021-08-03T10:34:11Z</time>
      </trkpt>
      <trkpt lat="45.53101" lon="6.77086">
        <ele>1506.3</ele>
        <time>2021-08-03T10:34:12Z</time>
      </trkpt>
      <trkpt lat="45.53101" lon="6.77087">
        <ele>1506.2</ele>
        <time>2021-08-03T10:34:13Z</time>
      </trkpt>
      <trkpt lat="45.53101" lon="6.77088">
        <ele>1506</ele>
        <time>2021-08-03T10:34:14Z</time>
      </trkpt>
      <trkpt lat="45.53101" lon="6.77089">
        <ele>1505.9</ele>
        <time>2021-08-03T10:34:15Z</time>
      </trkpt>
      <trkpt lat="45.53101" lon="6.7709">
        <ele>1505.7</ele>
        <time>2021-08-03T10:34:16Z</time>
      </trkpt>
      <trkpt lat="45.53101" lon="6.77091">
        <ele>1505.6</ele>
        <time>2021-08-03T10:34:17Z</time>
      </trkpt>
      <trkpt lat="45.53101" lon="6.77092">
        <ele>1505.4</ele>
        <time>2021-08-03T10:34:18Z</time>
      </trkpt>
      <trkpt lat="45.53102" lon="6.77093">
        <ele>1505.3</ele>
        <time>2021-08-03T10:34:19Z</time>
      </trkpt>
      <trkpt lat="45.53102" lon="6.77093">
        <ele>1505.1</ele>
        <time>2021-08-03T10:34:20Z</time>
      </trkpt>
      <trkpt lat="45.53102" lon="6.77094">
        <ele>1504.9</ele>
        <time>2021-08-03T10:34:21Z</time>
      </trkpt>
      <trkpt lat="45.53102" lon="6.77095">
        <ele>1504.8</ele>
        <time>2021-08-03T10:34:22Z</time>
      </trkpt>
      <trkpt lat="45.53102" lon="6.77096">
        <ele>1504.6</ele>
        <time>2021-08-03T10:34:23Z</time>
      </trkpt>
      <trkpt lat="45.53102" lon="6.77097">
        <ele>1504.5</ele>
        <time>2021-08-03T10:34:24Z</time>
      </trkpt>
      <trkpt lat="45.53102" lon="6.77098">
        <ele>1504.3</ele>
        <time>2021-08-03T10:34:25Z</time>
      </trkpt>
      <trkpt lat="45.53102" lon="6.77099">
        <ele>1504.2</ele>
        <time>2021-08-03T10:34:26Z</time>
      </trkpt>
      <trkpt lat="45.53102" lon="6.771">
        <ele>1504</ele>
        <time>2021-08-03T10:34:27Z</time>
      </trkpt>
      <trkpt lat="45.53103" lon="6.77101">
        <ele>1503.9</ele>
        <time>2021-08-03T10:34:28Z</time>
      </trkpt>
      <trkpt lat="45.53103" lon="6.77102">
        <ele>1503.7</ele>
        <time>2021-08-03T10:34:29Z</time>
      </trkpt>
      <trkpt lat="45.53103" lon="6.77102">
        <ele>1503.5</ele>
        <time>2021-08-03T10:34:30Z</time>
      </trkpt>
      <trkpt lat="45.53103" lon="6.77103">
        <ele>1503.4</ele>
        <time>2021-08-03T10:34:31Z</time>
      </trkpt>
      <trkpt lat="45.53103" lon="6.77104">
        <ele>1503.2</ele>
        <time>2021-08-03T10:34:32Z</time>
      </trkpt>
      <trkpt lat="45.53103" lon="6.77105">
        <ele>1503</ele>
        <time>2021-08-03T10:34:33Z</time>
      </trkpt>
      <trkpt lat="45.53103" lon="6.77106">
        <ele>1502.9</ele>
        <time>2021-08-03T10:34:34Z</time>
      </trkpt>
      <trkpt lat="45.53103" lon="6.77107">
        <ele>1502.7</ele>
        <time>2021-08-03T10:34:35Z</time>
      </trkpt>
      <trkpt lat="45.53103" lon="6.77108">
        <ele>1502.6</ele>
        <time>2021-08-03T10:34:36Z</time>
      </trkpt>
      <trkpt lat="45.53104" lon="6.77109">
        <ele>1502.4</ele>
        <time>2021-08-03T10:34:37Z</time>
      </trkpt>
      <trkpt lat="45.53104" lon="6.7711">
        <ele>1502.2</ele>
        <time>2021-08-03T10:34:38Z</time>
      </trkpt>
      <trkpt lat="45.53104" lon="6.77111">
        <ele>1502.1</ele>
        <time>2021-08-03T10:34:39Z</time>
      </trkpt>
      <trkpt lat="45.53104" lon="6.77111">
        <ele>1501.9</ele>
        <time>2021-08-03T10:34:40Z</time>
      </trkpt>
      <trkpt lat="45.53104" lon="6.77112">
        <ele>1501.7</ele>
        <time>2021-08-03T10:34:41Z</time>
      </trkpt>
      <trkpt lat="45.53104" lon="6.77113">
        <ele>1501.6</ele>
        <time>2021-08-03T10:34:42Z</time>
      </trkpt>
      <trkpt lat="45.53104" lon="6.77114">
        <ele>1501.4</ele>
        <time>2021-08-03T10:34:43Z</time>
      </trkpt>
      <trkpt lat="45.53104" lon="6.77115">
        <ele>1501.2</ele>
        <time>2021-08-03T10:34:44Z</time>
      </trkpt>
      <trkpt lat="45.53104" lon="6.77116">
        <ele>1501</ele>
        <time>2021-08-03T10:34:45Z</time>
      </trkpt>
      <trkpt lat="45.53104" lon="6.77117">
        <ele>1500.9</ele>
        <time>2021-08-03T10:34:46Z</time>
      </trkpt>
      <trkpt lat="45.53104" lon="6.77118">
        <ele>1500.7</ele>
        <time>2021-08-03T10:34:47Z</time>
      </trkpt>
      <trkpt lat="45.53104" lon="6.77119">
        <ele>1500.5</ele>
        <time>2021-08-03T10:34:48Z</time>
      </trkpt>
      <trkpt lat="45.53104" lon="6.77119">
        <ele>1500.4</ele>
        <time>2021-08-03T10:34:49Z</time>
      </trkpt>
      <trkpt lat="45.53105" lon="6.7712">
        <ele>1500.3</ele>
        <time>2021-08-03T10:34:50Z</time>
      </trkpt>
      <trkpt lat="45.53105" lon="6.77121">
        <ele>1500.1</ele>
        <time>2021-08-03T10:34:51Z</time>
      </trkpt>
      <trkpt lat="45.53105" lon="6.77121">
        <ele>1500</ele>
        <time>2021-08-03T10:34:52Z</time>
      </trkpt>
      <trkpt lat="45.53105" lon="6.77122">
        <ele>1499.9</ele>
        <time>2021-08-03T10:34:53Z</time>
      </trkpt>
      <trkpt lat="45.53105" lon="6.77122">
        <ele>1499.8</ele>
        <time>2021-08-03T10:34:54Z</time>
      </trkpt>
      <trkpt lat="45.53106" lon="6.77123">
        <ele>1499.7</ele>
        <time>2021-08-03T10:34:55Z</time>
      </trkpt>
      <trkpt lat="45.53106" lon="6.77123">
        <ele>1499.5</ele>
        <time>2021-08-03T10:34:56Z</time>
      </trkpt>
      <trkpt lat="45.53107" lon="6.77124">
        <ele>1499.4</ele>
        <time>2021-08-03T10:34:57Z</time>
      </trkpt>
      <trkpt lat="45.53107" lon="6.77124">
        <ele>1499.2</ele>
        <time>2021-08-03T10:34:58Z</time>
      </trkpt>
      <trkpt lat="45.53107" lon="6.77125">
        <ele>1499.1</ele>
        <time>2021-08-03T10:34:59Z</time>
      </trkpt>
      <trkpt lat="45.53108" lon="6.77125">
        <ele>1498.9</ele>
        <time>2021-08-03T10:35:00Z</time>
      </trkpt>
      <trkpt lat="45.53108" lon="6.77126">
        <ele>1498.8</ele>
        <time>2021-08-03T10:35:01Z</time>
      </trkpt>
      <trkpt lat="45.53109" lon="6.77126">
        <ele>1498.6</ele>
        <time>2021-08-03T10:35:02Z</time>
      </trkpt>
      <trkpt lat="45.53109" lon="6.77127">
        <ele>1498.5</ele>
        <time>2021-08-03T10:35:03Z</time>
      </trkpt>
      <trkpt lat="45.53109" lon="6.77127">
        <ele>1498.3</ele>
        <time>2021-08-03T10:35:04Z</time>
      </trkpt>
      <trkpt lat="45.5311" lon="6.77128">
        <ele>1498.2</ele>
        <time>2021-08-03T10:35:05Z</time>
      </trkpt>
      <trkpt lat="45.5311" lon="6.77129">
        <ele>1498</ele>
        <time>2021-08-03T10:35:06Z</time>
      </trkpt>
      <trkpt lat="45.53111" lon="6.77129">
        <ele>1497.8</ele>
        <time>2021-08-03T10:35:07Z</time>
      </trkpt>
      <trkpt lat="45.53111" lon="6.7713">
        <ele>1497.7</ele>
        <time>2021-08-03T10:35:08Z</time>
      </trkpt>
      <trkpt lat="45.53111" lon="6.77131">
        <ele>1497.5</ele>
        <time>2021-08-03T10:35:09Z</time>
      </trkpt>
      <trkpt lat="45.53111" lon="6.77131">
        <ele>1497.3</ele>
        <time>2021-08-03T10:35:10Z</time>
      </trkpt>
      <trkpt lat="45.53112" lon="6.77132">
        <ele>1497.2</ele>
        <time>2021-08-03T10:35:11Z</time>
      </trkpt>
      <trkpt lat="45.53112" lon="6.77133">
        <ele>1497</ele>
        <time>2021-08-03T10:35:12Z</time>
      </trkpt>
      <trkpt lat="45.53112" lon="6.77133">
        <ele>1496.8</ele>
        <time>2021-08-03T10:35:13Z</time>
      </trkpt>
      <trkpt lat="45.53113" lon="6.77134">
        <ele>1496.7</ele>
        <time>2021-08-03T10:35:14Z</time>
      </trkpt>
      <trkpt lat="45.53113" lon="6.77135">
        <ele>1496.5</ele>
        <time>2021-08-03T10:35:15Z</time>
      </trkpt>
      <trkpt lat="45.53113" lon="6.77135">
        <ele>1496.4</ele>
        <time>2021-08-03T10:35:16Z</time>
      </trkpt>
      <trkpt lat="45.53114" lon="6.77136">
        <ele>1496.2</ele>
        <time>2021-08-03T10:35:17Z</time>
      </trkpt>
      <trkpt lat="45.53114" lon="6.77137">
        <ele>1496.1</ele>
        <time>2021-08-03T10:35:18Z</time>
      </trkpt>
      <trkpt lat="45.53114" lon="6.77137">
        <ele>1496</ele>
        <time>2021-08-03T10:35:19Z</time>
      </trkpt>
      <trkpt lat="45.53114" lon="6.77138">
        <ele>1495.9</ele>
        <time>2021-08-03T10:35:20Z</time>
      </trkpt>
      <trkpt lat="45.53115" lon="6.77138">
        <ele>1495.7</ele>
        <time>2021-08-03T10:35:21Z</time>
      </trkpt>
      <trkpt lat="45.53115" lon="6.77139">
        <ele>1495.6</ele>
        <time>2021-08-03T10:35:22Z</time>
      </trkpt>
      <trkpt lat="45.53115" lon="6.77139">
        <ele>1495.5</ele>
        <time>2021-08-03T10:35:23Z</time>
      </trkpt>
      <trkpt lat="45.53115" lon="6.7714">
        <ele>1495.3</ele>
        <time>2021-08-03T10:35:24Z</time>
      </trkpt>
      <trkpt lat="45.53115" lon="6.77141">
        <ele>1495.2</ele>
        <time>2021-08-03T10:35:25Z</time>
      </trkpt>
      <trkpt lat="45.53116" lon="6.77141">
        <ele>1495</ele>
        <time>2021-08-03T10:35:26Z</time>
      </trkpt>
      <trkpt lat="45.53116" lon="6.77142">
        <ele>1494.8</ele>
        <time>2021-08-03T10:35:27Z</time>
      </trkpt>
      <trkpt lat="45.53116" lon="6.77143">
        <ele>1494.6</ele>
        <time>2021-08-03T10:35:28Z</time>
      </trkpt>
      <trkpt lat="45.53116" lon="6.77144">
        <ele>1494.4</ele>
        <time>2021-08-03T10:35:29Z</time>
      </trkpt>
      <trkpt lat="45.53116" lon="6.77146">
        <ele>1494.1</ele>
        <time>2021-08-03T10:35:30Z</time>
      </trkpt>
      <trkpt lat="45.53116" lon="6.77147">
        <ele>1493.9</ele>
        <time>2021-08-03T10:35:31Z</time>
      </trkpt>
      <trkpt lat="45.53116" lon="6.77148">
        <ele>1493.7</ele>
        <time>2021-08-03T10:35:32Z</time>
      </trkpt>
      <trkpt lat="45.53116" lon="6.77149">
        <ele>1493.5</ele>
        <time>2021-08-03T10:35:33Z</time>
      </trkpt>
      <trkpt lat="45.53116" lon="6.77149">
        <ele>1493.3</ele>
        <time>2021-08-03T10:35:34Z</time>
      </trkpt>
      <trkpt lat="45.53116" lon="6.7715">
        <ele>1493.2</ele>
        <time>2021-08-03T10:35:35Z</time>
      </trkpt>
      <trkpt lat="45.53116" lon="6.7715">
        <ele>1493.1</ele>
        <time>2021-08-03T10:35:36Z</time>
      </trkpt>
      <trkpt lat="45.53116" lon="6.77151">
        <ele>1493.1</ele>
        <time>2021-08-03T10:35:37Z</time>
      </trkpt>
      <trkpt lat="45.53116" lon="6.77151">
        <ele>1493</ele>
        <time>2021-08-03T10:35:38Z</time>
      </trkpt>
      <trkpt lat="45.53116" lon="6.77151">
        <ele>1493</ele>
        <time>2021-08-03T10:35:39Z</time>
      </trkpt>
      <trkpt lat="45.53116" lon="6.77151">
        <ele>1493</ele>
        <time>2021-08-03T10:35:40Z</time>
      </trkpt>
      <trkpt lat="45.53116" lon="6.77151">
        <ele>1492.9</ele>
        <time>2021-08-03T10:35:41Z</time>
      </trkpt>
      <trkpt lat="45.53116" lon="6.77151">
        <ele>1492.9</ele>
        <time>2021-08-03T10:35:42Z</time>
      </trkpt>
      <trkpt lat="45.53116" lon="6.77152">
        <ele>1492.9</ele>
        <time>2021-08-03T10:35:43Z</time>
      </trkpt>
      <trkpt lat="45.53116" lon="6.77152">
        <ele>1492.8</ele>
        <time>2021-08-03T10:35:44Z</time>
      </trkpt>
      <trkpt lat="45.53116" lon="6.77152">
        <ele>1492.7</ele>
        <time>2021-08-03T10:35:45Z</time>
      </trkpt>
      <trkpt lat="45.53116" lon="6.77153">
        <ele>1492.6</ele>
        <time>2021-08-03T10:35:46Z</time>
      </trkpt>
      <trkpt lat="45.53116" lon="6.77153">
        <ele>1492.5</ele>
        <time>2021-08-03T10:35:47Z</time>
      </trkpt>
      <trkpt lat="45.53116" lon="6.77154">
        <ele>1492.4</ele>
        <time>2021-08-03T10:35:48Z</time>
      </trkpt>
      <trkpt lat="45.53116" lon="6.77154">
        <ele>1492.4</ele>
        <time>2021-08-03T10:35:49Z</time>
      </trkpt>
      <trkpt lat="45.53116" lon="6.77154">
        <ele>1492.4</ele>
        <time>2021-08-03T10:35:50Z</time>
      </trkpt>
      <trkpt lat="45.53116" lon="6.77154">
        <ele>1492.4</ele>
        <time>2021-08-03T10:35:51Z</time>
      </trkpt>
      <trkpt lat="45.53116" lon="6.77154">
        <ele>1492.3</ele>
        <time>2021-08-03T10:35:52Z</time>
      </trkpt>
      <trkpt lat="45.53116" lon="6.77154">
        <ele>1492.3</ele>
        <time>2021-08-03T10:35:53Z</time>
      </trkpt>
      <trkpt lat="45.53116" lon="6.77154">
        <ele>1492.3</ele>
        <time>2021-08-03T10:35:54Z</time>
      </trkpt>
      <trkpt lat="45.53116" lon="6.77154">
        <ele>1492.3</ele>
        <time>2021-08-03T10:35:55Z</time>
      </trkpt>
      <trkpt lat="45.53116" lon="6.77154">
        <ele>1492.3</ele>
        <time>2021-08-03T10:35:56Z</time>
      </trkpt>
      <trkpt lat="45.53116" lon="6.77154">
        <ele>1492.2</ele>
        <time>2021-08-03T10:35:57Z</time>
      </trkpt>
      <trkpt lat="45.53117" lon="6.77153">
        <ele>1492.1</ele>
        <time>2021-08-03T10:35:58Z</time>
      </trkpt>
      <trkpt lat="45.53117" lon="6.77153">
        <ele>1492</ele>
        <time>2021-08-03T10:35:59Z</time>
      </trkpt>
      <trkpt lat="45.53117" lon="6.77152">
        <ele>1491.8</ele>
        <time>2021-08-03T10:36:00Z</time>
      </trkpt>
      <trkpt lat="45.53117" lon="6.77152">
        <ele>1491.7</ele>
        <time>2021-08-03T10:36:01Z</time>
      </trkpt>
      <trkpt lat="45.53116" lon="6.77151">
        <ele>1491.6</ele>
        <time>2021-08-03T10:36:02Z</time>
      </trkpt>
      <trkpt lat="45.53116" lon="6.77151">
        <ele>1491.5</ele>
        <time>2021-08-03T10:36:03Z</time>
      </trkpt>
      <trkpt lat="45.53116" lon="6.77151">
        <ele>1491.3</ele>
        <time>2021-08-03T10:36:04Z</time>
      </trkpt>
      <trkpt lat="45.53115" lon="6.7715">
        <ele>1491.3</ele>
        <time>2021-08-03T10:36:05Z</time>
      </trkpt>
      <trkpt lat="45.53115" lon="6.7715">
        <ele>1491.2</ele>
        <time>2021-08-03T10:36:06Z</time>
      </trkpt>
      <trkpt lat="45.53115" lon="6.7715">
        <ele>1491.1</ele>
        <time>2021-08-03T10:36:07Z</time>
      </trkpt>
      <trkpt lat="45.53115" lon="6.7715">
        <ele>1491</ele>
        <time>2021-08-03T10:36:08Z</time>
      </trkpt>
      <trkpt lat="45.53114" lon="6.7715">
        <ele>1490.9</ele>
        <time>2021-08-03T10:36:09Z</time>
      </trkpt>
      <trkpt lat="45.53114" lon="6.7715">
        <ele>1490.9</ele>
        <time>2021-08-03T10:36:10Z</time>
      </trkpt>
      <trkpt lat="45.53114" lon="6.7715">
        <ele>1490.8</ele>
        <time>2021-08-03T10:36:11Z</time>
      </trkpt>
      <trkpt lat="45.53114" lon="6.7715">
        <ele>1490.8</ele>
        <time>2021-08-03T10:36:12Z</time>
      </trkpt>
      <trkpt lat="45.53114" lon="6.77149">
        <ele>1490.7</ele>
        <time>2021-08-03T10:36:13Z</time>
      </trkpt>
      <trkpt lat="45.53114" lon="6.77149">
        <ele>1490.7</ele>
        <time>2021-08-03T10:36:14Z</time>
      </trkpt>
      <trkpt lat="45.53114" lon="6.77149">
        <ele>1490.7</ele>
        <time>2021-08-03T10:36:15Z</time>
      </trkpt>
      <trkpt lat="45.53113" lon="6.77149">
        <ele>1490.6</ele>
        <time>2021-08-03T10:36:16Z</time>
      </trkpt>
      <trkpt lat="45.53113" lon="6.77149">
        <ele>1490.6</ele>
        <time>2021-08-03T10:36:17Z</time>
      </trkpt>
      <trkpt lat="45.53113" lon="6.77149">
        <ele>1490.6</ele>
        <time>2021-08-03T10:36:18Z</time>
      </trkpt>
      <trkpt lat="45.53113" lon="6.77149">
        <ele>1490.5</ele>
        <time>2021-08-03T10:36:19Z</time>
      </trkpt>
      <trkpt lat="45.53113" lon="6.77149">
        <ele>1490.5</ele>
        <time>2021-08-03T10:36:20Z</time>
      </trkpt>
      <trkpt lat="45.53113" lon="6.77149">
        <ele>1490.5</ele>
        <time>2021-08-03T10:36:21Z</time>
      </trkpt>
      <trkpt lat="45.53113" lon="6.77149">
        <ele>1490.5</ele>
        <time>2021-08-03T10:36:22Z</time>
      </trkpt>
      <trkpt lat="45.53113" lon="6.77149">
        <ele>1490.5</ele>
        <time>2021-08-03T10:36:23Z</time>
      </trkpt>
      <trkpt lat="45.53113" lon="6.77149">
        <ele>1490.5</ele>
        <time>2021-08-03T10:36:24Z</time>
      </trkpt>
      <trkpt lat="45.53113" lon="6.77149">
        <ele>1490.5</ele>
        <time>2021-08-03T10:36:25Z</time>
      </trkpt>
      <trkpt lat="45.53113" lon="6.77149">
        <ele>1490.5</ele>
        <time>2021-08-03T10:36:26Z</time>
      </trkpt>
      <trkpt lat="45.53113" lon="6.77149">
        <ele>1490.5</ele>
        <time>2021-08-03T10:36:27Z</time>
      </trkpt>
      <trkpt lat="45.53113" lon="6.77149">
        <ele>1490.5</ele>
        <time>2021-08-03T10:36:28Z</time>
      </trkpt>
      <trkpt lat="45.53113" lon="6.77149">
        <ele>1490.5</ele>
        <time>2021-08-03T10:36:29Z</time>
      </trkpt>
      <trkpt lat="45.53113" lon="6.77149">
        <ele>1490.5</ele>
        <time>2021-08-03T10:36:30Z</time>
      </trkpt>
      <trkpt lat="45.53113" lon="6.77149">
        <ele>1490.5</ele>
        <time>2021-08-03T10:36:31Z</time>
      </trkpt>
      <trkpt lat="45.53113" lon="6.77149">
        <ele>1490.5</ele>
        <time>2021-08-03T10:36:32Z</time>
      </trkpt>
      <trkpt lat="45.53113" lon="6.77149">
        <ele>1490.5</ele>
        <time>2021-08-03T10:36:33Z</time>
      </trkpt>
      <trkpt lat="45.53113" lon="6.77149">
        <ele>1490.5</ele>
        <time>2021-08-03T10:36:34Z</time>
      </trkpt>
      <trkpt lat="45.53113" lon="6.77149">
        <ele>1490.5</ele>
        <time>2021-08-03T10:36:35Z</time>
      </trkpt>
      <trkpt lat="45.53113" lon="6.77149">
        <ele>1490.5</ele>
        <time>2021-08-03T10:36:36Z</time>
      </trkpt>
      <trkpt lat="45.53113" lon="6.77149">
        <ele>1490.5</ele>
        <time>2021-08-03T10:36:37Z</time>
      </trkpt>
      <trkpt lat="45.53113" lon="6.77149">
        <ele>1490.5</ele>
        <time>2021-08-03T10:36:38Z</time>
      </trkpt>
      <trkpt lat="45.53113" lon="6.77149">
        <ele>1490.5</ele>
        <time>2021-08-03T10:36:39Z</time>
      </trkpt>
      <trkpt lat="45.53113" lon="6.77149">
        <ele>1490.5</ele>
        <time>2021-08-03T10:36:40Z</time>
      </trkpt>
      <trkpt lat="45.53113" lon="6.77149">
        <ele>1490.5</ele>
        <time>2021-08-03T10:36:41Z</time>
      </trkpt>
      <trkpt lat="45.53113" lon="6.77149">
        <ele>1490.5</ele>
        <time>2021-08-03T10:36:42Z</time>
      </trkpt>
      <trkpt lat="45.53113" lon="6.77149">
        <ele>1490.5</ele>
        <time>2021-08-03T10:36:43Z</time>
      </trkpt>
      <trkpt lat="45.53113" lon="6.77149">
        <ele>1490.5</ele>
        <time>2021-08-03T10:36:44Z</time>
      </trkpt>
      <trkpt lat="45.53113" lon="6.77149">
        <ele>1490.5</ele>
        <time>2021-08-03T10:36:45Z</time>
      </trkpt>
      <trkpt lat="45.53113" lon="6.77149">
        <ele>1490.4</ele>
        <time>2021-08-03T10:36:46Z</time>
      </trkpt>
      <trkpt lat="45.53113" lon="6.77149">
        <ele>1490.4</ele>
        <time>2021-08-03T10:36:47Z</time>
      </trkpt>
      <trkpt lat="45.53113" lon="6.77149">
        <ele>1490.4</ele>
        <time>2021-08-03T10:36:48Z</time>
      </trkpt>
      <trkpt lat="45.53113" lon="6.77149">
        <ele>1490.4</ele>
        <time>2021-08-03T10:36:49Z</time>
      </trkpt>
      <trkpt lat="45.53113" lon="6.77149">
        <ele>1490.4</ele>
        <time>2021-08-03T10:36:50Z</time>
      </trkpt>
      <trkpt lat="45.53113" lon="6.77149">
        <ele>1490.4</ele>
        <time>2021-08-03T10:36:51Z</time>
      </trkpt>
      <trkpt lat="45.53113" lon="6.77149">
        <ele>1490.4</ele>
        <time>2021-08-03T10:36:52Z</time>
      </trkpt>
      <trkpt lat="45.53113" lon="6.77149">
        <ele>1490.4</ele>
        <time>2021-08-03T10:36:53Z</time>
      </trkpt>
      <trkpt lat="45.53113" lon="6.77149">
        <ele>1490.4</ele>
        <time>2021-08-03T10:36:54Z</time>
      </trkpt>
      <trkpt lat="45.53113" lon="6.77149">
        <ele>1490.3</ele>
        <time>2021-08-03T10:36:55Z</time>
      </trkpt>
      <trkpt lat="45.53113" lon="6.77148">
        <ele>1490.2</ele>
        <time>2021-08-03T10:36:56Z</time>
      </trkpt>
      <trkpt lat="45.53113" lon="6.77147">
        <ele>1490</ele>
        <time>2021-08-03T10:36:57Z</time>
      </trkpt>
      <trkpt lat="45.53114" lon="6.77146">
        <ele>1489.7</ele>
        <time>2021-08-03T10:36:58Z</time>
      </trkpt>
      <trkpt lat="45.53114" lon="6.77145">
        <ele>1489.5</ele>
        <time>2021-08-03T10:36:59Z</time>
      </trkpt>
      <trkpt lat="45.53115" lon="6.77144">
        <ele>1489.2</ele>
        <time>2021-08-03T10:37:00Z</time>
      </trkpt>
      <trkpt lat="45.53116" lon="6.77143">
        <ele>1488.9</ele>
        <time>2021-08-03T10:37:01Z</time>
      </trkpt>
      <trkpt lat="45.53116" lon="6.77142">
        <ele>1488.6</ele>
        <time>2021-08-03T10:37:02Z</time>
      </trkpt>
      <trkpt lat="45.53117" lon="6.7714">
        <ele>1488.3</ele>
        <time>2021-08-03T10:37:03Z</time>
      </trkpt>
      <trkpt lat="45.53118" lon="6.77139">
        <ele>1487.9</ele>
        <time>2021-08-03T10:37:04Z</time>
      </trkpt>
      <trkpt lat="45.53119" lon="6.77139">
        <ele>1487.6</ele>
        <time>2021-08-03T10:37:05Z</time>
      </trkpt>
      <trkpt lat="45.5312" lon="6.77138">
        <ele>1487.3</ele>
        <time>2021-08-03T10:37:06Z</time>
      </trkpt>
      <trkpt lat="45.53121" lon="6.77137">
        <ele>1487.1</ele>
        <time>2021-08-03T10:37:07Z</time>
      </trkpt>
      <trkpt lat="45.53122" lon="6.77137">
        <ele>1486.9</ele>
        <time>2021-08-03T10:37:08Z</time>
      </trkpt>
      <trkpt lat="45.53122" lon="6.77136">
        <ele>1486.6</ele>
        <time>2021-08-03T10:37:09Z</time>
      </trkpt>
      <trkpt lat="45.53123" lon="6.77135">
        <ele>1486.4</ele>
        <time>2021-08-03T10:37:10Z</time>
      </trkpt>
      <trkpt lat="45.53124" lon="6.77135">
        <ele>1486.1</ele>
        <time>2021-08-03T10:37:11Z</time>
      </trkpt>
      <trkpt lat="45.53124" lon="6.77134">
        <ele>1485.9</ele>
        <time>2021-08-03T10:37:12Z</time>
      </trkpt>
      <trkpt lat="45.53125" lon="6.77133">
        <ele>1485.6</ele>
        <time>2021-08-03T10:37:13Z</time>
      </trkpt>
      <trkpt lat="45.53126" lon="6.77131">
        <ele>1485.3</ele>
        <time>2021-08-03T10:37:14Z</time>
      </trkpt>
      <trkpt lat="45.53126" lon="6.7713">
        <ele>1485</ele>
        <time>2021-08-03T10:37:15Z</time>
      </trkpt>
      <trkpt lat="45.53127" lon="6.77129">
        <ele>1484.8</ele>
        <time>2021-08-03T10:37:16Z</time>
      </trkpt>
      <trkpt lat="45.53127" lon="6.77128">
        <ele>1484.5</ele>
        <time>2021-08-03T10:37:17Z</time>
      </trkpt>
      <trkpt lat="45.53128" lon="6.77127">
        <ele>1484.2</ele>
        <time>2021-08-03T10:37:18Z</time>
      </trkpt>
      <trkpt lat="45.53129" lon="6.77126">
        <ele>1483.9</ele>
        <time>2021-08-03T10:37:19Z</time>
      </trkpt>
      <trkpt lat="45.53129" lon="6.77125">
        <ele>1483.7</ele>
        <time>2021-08-03T10:37:20Z</time>
      </trkpt>
      <trkpt lat="45.5313" lon="6.77124">
        <ele>1483.4</ele>
        <time>2021-08-03T10:37:21Z</time>
      </trkpt>
      <trkpt lat="45.5313" lon="6.77123">
        <ele>1483.2</ele>
        <time>2021-08-03T10:37:22Z</time>
      </trkpt>
      <trkpt lat="45.53131" lon="6.77122">
        <ele>1483</ele>
        <time>2021-08-03T10:37:23Z</time>
      </trkpt>
      <trkpt lat="45.53131" lon="6.77121">
        <ele>1482.8</ele>
        <time>2021-08-03T10:37:24Z</time>
      </trkpt>
      <trkpt lat="45.53131" lon="6.77121">
        <ele>1482.6</ele>
        <time>2021-08-03T10:37:25Z</time>
      </trkpt>
      <trkpt lat="45.53132" lon="6.7712">
        <ele>1482.5</ele>
        <time>2021-08-03T10:37:26Z</time>
      </trkpt>
      <trkpt lat="45.53132" lon="6.7712">
        <ele>1482.4</ele>
        <time>2021-08-03T10:37:27Z</time>
      </trkpt>
      <trkpt lat="45.53132" lon="6.77119">
        <ele>1482.3</ele>
        <time>2021-08-03T10:37:28Z</time>
      </trkpt>
      <trkpt lat="45.53132" lon="6.77119">
        <ele>1482.2</ele>
        <time>2021-08-03T10:37:29Z</time>
      </trkpt>
      <trkpt lat="45.53132" lon="6.77118">
        <ele>1482.1</ele>
        <time>2021-08-03T10:37:30Z</time>
      </trkpt>
      <trkpt lat="45.53132" lon="6.77118">
        <ele>1482</ele>
        <time>2021-08-03T10:37:31Z</time>
      </trkpt>
      <trkpt lat="45.53132" lon="6.77118">
        <ele>1482</ele>
        <time>2021-08-03T10:37:32Z</time>
      </trkpt>
      <trkpt lat="45.53132" lon="6.77117">
        <ele>1481.9</ele>
        <time>2021-08-03T10:37:33Z</time>
      </trkpt>
      <trkpt lat="45.53132" lon="6.77117">
        <ele>1481.8</ele>
        <time>2021-08-03T10:37:34Z</time>
      </trkpt>
      <trkpt lat="45.53132" lon="6.77116">
        <ele>1481.7</ele>
        <time>2021-08-03T10:37:35Z</time>
      </trkpt>
      <trkpt lat="45.53133" lon="6.77116">
        <ele>1481.6</ele>
        <time>2021-08-03T10:37:36Z</time>
      </trkpt>
      <trkpt lat="45.53133" lon="6.77116">
        <ele>1481.5</ele>
        <time>2021-08-03T10:37:37Z</time>
      </trkpt>
      <trkpt lat="45.53133" lon="6.77115">
        <ele>1481.5</ele>
        <time>2021-08-03T10:37:38Z</time>
      </trkpt>
      <trkpt lat="45.53133" lon="6.77115">
        <ele>1481.4</ele>
        <time>2021-08-03T10:37:39Z</time>
      </trkpt>
      <trkpt lat="45.53133" lon="6.77115">
        <ele>1481.3</ele>
        <time>2021-08-03T10:37:40Z</time>
      </trkpt>
      <trkpt lat="45.53133" lon="6.77115">
        <ele>1481.3</ele>
        <time>2021-08-03T10:37:41Z</time>
      </trkpt>
      <trkpt lat="45.53133" lon="6.77115">
        <ele>1481.3</ele>
        <time>2021-08-03T10:37:42Z</time>
      </trkpt>
      <trkpt lat="45.53133" lon="6.77115">
        <ele>1481.3</ele>
        <time>2021-08-03T10:37:43Z</time>
      </trkpt>
      <trkpt lat="45.53133" lon="6.77115">
        <ele>1481.3</ele>
        <time>2021-08-03T10:37:44Z</time>
      </trkpt>
      <trkpt lat="45.53133" lon="6.77115">
        <ele>1481.3</ele>
        <time>2021-08-03T10:37:45Z</time>
      </trkpt>
      <trkpt lat="45.53133" lon="6.77115">
        <ele>1481.3</ele>
        <time>2021-08-03T10:37:46Z</time>
      </trkpt>
      <trkpt lat="45.53133" lon="6.77115">
        <ele>1481.3</ele>
        <time>2021-08-03T10:37:47Z</time>
      </trkpt>
      <trkpt lat="45.53133" lon="6.77114">
        <ele>1481.2</ele>
        <time>2021-08-03T10:37:48Z</time>
      </trkpt>
      <trkpt lat="45.53133" lon="6.77114">
        <ele>1481.2</ele>
        <time>2021-08-03T10:37:49Z</time>
      </trkpt>
      <trkpt lat="45.53133" lon="6.77114">
        <ele>1481.2</ele>
        <time>2021-08-03T10:37:50Z</time>
      </trkpt>
      <trkpt lat="45.53133" lon="6.77114">
        <ele>1481.2</ele>
        <time>2021-08-03T10:37:51Z</time>
      </trkpt>
      <trkpt lat="45.53133" lon="6.77114">
        <ele>1481.2</ele>
        <time>2021-08-03T10:37:52Z</time>
      </trkpt>
      <trkpt lat="45.53134" lon="6.77114">
        <ele>1481</ele>
        <time>2021-08-03T10:37:53Z</time>
      </trkpt>
      <trkpt lat="45.53135" lon="6.77114">
        <ele>1480.8</ele>
        <time>2021-08-03T10:37:54Z</time>
      </trkpt>
      <trkpt lat="45.53136" lon="6.77113">
        <ele>1480.5</ele>
        <time>2021-08-03T10:37:55Z</time>
      </trkpt>
      <trkpt lat="45.53137" lon="6.77113">
        <ele>1480.1</ele>
        <time>2021-08-03T10:37:56Z</time>
      </trkpt>
      <trkpt lat="45.53138" lon="6.77112">
        <ele>1479.8</ele>
        <time>2021-08-03T10:37:57Z</time>
      </trkpt>
      <trkpt lat="45.53139" lon="6.77112">
        <ele>1479.5</ele>
        <time>2021-08-03T10:37:58Z</time>
      </trkpt>
      <trkpt lat="45.5314" lon="6.77111">
        <ele>1479.3</ele>
        <time>2021-08-03T10:37:59Z</time>
      </trkpt>
      <trkpt lat="45.5314" lon="6.77111">
        <ele>1479.1</ele>
        <time>2021-08-03T10:38:00Z</time>
      </trkpt>
      <trkpt lat="45.5314" lon="6.77111">
        <ele>1479</ele>
        <time>2021-08-03T10:38:01Z</time>
      </trkpt>
      <trkpt lat="45.53141" lon="6.77111">
        <ele>1479</ele>
        <time>2021-08-03T10:38:02Z</time>
      </trkpt>
      <trkpt lat="45.53141" lon="6.77111">
        <ele>1479</ele>
        <time>2021-08-03T10:38:03Z</time>
      </trkpt>
      <trkpt lat="45.53141" lon="6.77111">
        <ele>1479</ele>
        <time>2021-08-03T10:38:04Z</time>
      </trkpt>
      <trkpt lat="45.53141" lon="6.77111">
        <ele>1479</ele>
        <time>2021-08-03T10:38:05Z</time>
      </trkpt>
      <trkpt lat="45.53141" lon="6.77111">
        <ele>1478.9</ele>
        <time>2021-08-03T10:38:06Z</time>
      </trkpt>
      <trkpt lat="45.53142" lon="6.77111">
        <ele>1478.7</ele>
        <time>2021-08-03T10:38:07Z</time>
      </trkpt>
      <trkpt lat="45.53142" lon="6.77111">
        <ele>1478.5</ele>
        <time>2021-08-03T10:38:08Z</time>
      </trkpt>
      <trkpt lat="45.53143" lon="6.77111">
        <ele>1478.4</ele>
        <time>2021-08-03T10:38:09Z</time>
      </trkpt>
      <trkpt lat="45.53143" lon="6.77111">
        <ele>1478.3</ele>
        <time>2021-08-03T10:38:10Z</time>
      </trkpt>
      <trkpt lat="45.53143" lon="6.77111">
        <ele>1478.2</ele>
        <time>2021-08-03T10:38:11Z</time>
      </trkpt>
      <trkpt lat="45.53144" lon="6.77111">
        <ele>1478</ele>
        <time>2021-08-03T10:38:12Z</time>
      </trkpt>
      <trkpt lat="45.53144" lon="6.77111">
        <ele>1477.9</ele>
        <time>2021-08-03T10:38:13Z</time>
      </trkpt>
      <trkpt lat="45.53145" lon="6.77111">
        <ele>1477.8</ele>
        <time>2021-08-03T10:38:14Z</time>
      </trkpt>
      <trkpt lat="45.53145" lon="6.77111">
        <ele>1477.6</ele>
        <time>2021-08-03T10:38:15Z</time>
      </trkpt>
      <trkpt lat="45.53146" lon="6.77111">
        <ele>1477.5</ele>
        <time>2021-08-03T10:38:16Z</time>
      </trkpt>
      <trkpt lat="45.53146" lon="6.77112">
        <ele>1477.3</ele>
        <time>2021-08-03T10:38:17Z</time>
      </trkpt>
      <trkpt lat="45.53147" lon="6.77112">
        <ele>1477.2</ele>
        <time>2021-08-03T10:38:18Z</time>
      </trkpt>
      <trkpt lat="45.53147" lon="6.77112">
        <ele>1477</ele>
        <time>2021-08-03T10:38:19Z</time>
      </trkpt>
      <trkpt lat="45.53148" lon="6.77113">
        <ele>1476.9</ele>
        <time>2021-08-03T10:38:20Z</time>
      </trkpt>
      <trkpt lat="45.53148" lon="6.77113">
        <ele>1476.8</ele>
        <time>2021-08-03T10:38:21Z</time>
      </trkpt>
      <trkpt lat="45.53148" lon="6.77113">
        <ele>1476.7</ele>
        <time>2021-08-03T10:38:22Z</time>
      </trkpt>
      <trkpt lat="45.53148" lon="6.77114">
        <ele>1476.5</ele>
        <time>2021-08-03T10:38:23Z</time>
      </trkpt>
      <trkpt lat="45.53149" lon="6.77114">
        <ele>1476.4</ele>
        <time>2021-08-03T10:38:24Z</time>
      </trkpt>
      <trkpt lat="45.53149" lon="6.77114">
        <ele>1476.3</ele>
        <time>2021-08-03T10:38:25Z</time>
      </trkpt>
      <trkpt lat="45.5315" lon="6.77114">
        <ele>1476.2</ele>
        <time>2021-08-03T10:38:26Z</time>
      </trkpt>
      <trkpt lat="45.5315" lon="6.77114">
        <ele>1476</ele>
        <time>2021-08-03T10:38:27Z</time>
      </trkpt>
      <trkpt lat="45.53151" lon="6.77113">
        <ele>1475.9</ele>
        <time>2021-08-03T10:38:28Z</time>
      </trkpt>
      <trkpt lat="45.53151" lon="6.77112">
        <ele>1475.7</ele>
        <time>2021-08-03T10:38:29Z</time>
      </trkpt>
      <trkpt lat="45.53151" lon="6.77111">
        <ele>1475.5</ele>
        <time>2021-08-03T10:38:30Z</time>
      </trkpt>
      <trkpt lat="45.53152" lon="6.7711">
        <ele>1475.2</ele>
        <time>2021-08-03T10:38:31Z</time>
      </trkpt>
      <trkpt lat="45.53152" lon="6.77109">
        <ele>1475</ele>
        <time>2021-08-03T10:38:32Z</time>
      </trkpt>
      <trkpt lat="45.53152" lon="6.77108">
        <ele>1474.7</ele>
        <time>2021-08-03T10:38:33Z</time>
      </trkpt>
      <trkpt lat="45.53152" lon="6.77107">
        <ele>1474.5</ele>
        <time>2021-08-03T10:38:34Z</time>
      </trkpt>
      <trkpt lat="45.53153" lon="6.77106">
        <ele>1474.3</ele>
        <time>2021-08-03T10:38:35Z</time>
      </trkpt>
      <trkpt lat="45.53153" lon="6.77105">
        <ele>1474</ele>
        <time>2021-08-03T10:38:36Z</time>
      </trkpt>
      <trkpt lat="45.53154" lon="6.77104">
        <ele>1473.8</ele>
        <time>2021-08-03T10:38:37Z</time>
      </trkpt>
      <trkpt lat="45.53154" lon="6.77103">
        <ele>1473.6</ele>
        <time>2021-08-03T10:38:38Z</time>
      </trkpt>
      <trkpt lat="45.53155" lon="6.77102">
        <ele>1473.4</ele>
        <time>2021-08-03T10:38:39Z</time>
      </trkpt>
      <trkpt lat="45.53156" lon="6.77102">
        <ele>1473.1</ele>
        <time>2021-08-03T10:38:40Z</time>
      </trkpt>
      <trkpt lat="45.53156" lon="6.77101">
        <ele>1472.9</ele>
        <time>2021-08-03T10:38:41Z</time>
      </trkpt>
      <trkpt lat="45.53157" lon="6.771">
        <ele>1472.6</ele>
        <time>2021-08-03T10:38:42Z</time>
      </trkpt>
      <trkpt lat="45.53158" lon="6.77099">
        <ele>1472.3</ele>
        <time>2021-08-03T10:38:43Z</time>
      </trkpt>
      <trkpt lat="45.53159" lon="6.77098">
        <ele>1472</ele>
        <time>2021-08-03T10:38:44Z</time>
      </trkpt>
      <trkpt lat="45.5316" lon="6.77097">
        <ele>1471.7</ele>
        <time>2021-08-03T10:38:45Z</time>
      </trkpt>
      <trkpt lat="45.5316" lon="6.77095">
        <ele>1471.4</ele>
        <time>2021-08-03T10:38:46Z</time>
      </trkpt>
      <trkpt lat="45.53161" lon="6.77094">
        <ele>1471</ele>
        <time>2021-08-03T10:38:47Z</time>
      </trkpt>
      <trkpt lat="45.53162" lon="6.77093">
        <ele>1470.7</ele>
        <time>2021-08-03T10:38:48Z</time>
      </trkpt>
      <trkpt lat="45.53163" lon="6.77092">
        <ele>1470.4</ele>
        <time>2021-08-03T10:38:49Z</time>
      </trkpt>
      <trkpt lat="45.53164" lon="6.77091">
        <ele>1470.1</ele>
        <time>2021-08-03T10:38:50Z</time>
      </trkpt>
      <trkpt lat="45.53164" lon="6.7709">
        <ele>1469.9</ele>
        <time>2021-08-03T10:38:51Z</time>
      </trkpt>
      <trkpt lat="45.53165" lon="6.7709">
        <ele>1469.7</ele>
        <time>2021-08-03T10:38:52Z</time>
      </trkpt>
      <trkpt lat="45.53166" lon="6.7709">
        <ele>1469.5</ele>
        <time>2021-08-03T10:38:53Z</time>
      </trkpt>
      <trkpt lat="45.53166" lon="6.7709">
        <ele>1469.3</ele>
        <time>2021-08-03T10:38:54Z</time>
      </trkpt>
      <trkpt lat="45.53167" lon="6.7709">
        <ele>1469.1</ele>
        <time>2021-08-03T10:38:55Z</time>
      </trkpt>
      <trkpt lat="45.53168" lon="6.7709">
        <ele>1468.9</ele>
        <time>2021-08-03T10:38:56Z</time>
      </trkpt>
      <trkpt lat="45.53168" lon="6.77091">
        <ele>1468.8</ele>
        <time>2021-08-03T10:38:57Z</time>
      </trkpt>
      <trkpt lat="45.53169" lon="6.77091">
        <ele>1468.6</ele>
        <time>2021-08-03T10:38:58Z</time>
      </trkpt>
      <trkpt lat="45.53169" lon="6.77092">
        <ele>1468.4</ele>
        <time>2021-08-03T10:38:59Z</time>
      </trkpt>
      <trkpt lat="45.5317" lon="6.77092">
        <ele>1468.2</ele>
        <time>2021-08-03T10:39:00Z</time>
      </trkpt>
      <trkpt lat="45.5317" lon="6.77093">
        <ele>1468.1</ele>
        <time>2021-08-03T10:39:01Z</time>
      </trkpt>
      <trkpt lat="45.53171" lon="6.77093">
        <ele>1467.9</ele>
        <time>2021-08-03T10:39:02Z</time>
      </trkpt>
      <trkpt lat="45.53171" lon="6.77093">
        <ele>1467.8</ele>
        <time>2021-08-03T10:39:03Z</time>
      </trkpt>
      <trkpt lat="45.53172" lon="6.77094">
        <ele>1467.7</ele>
        <time>2021-08-03T10:39:04Z</time>
      </trkpt>
      <trkpt lat="45.53172" lon="6.77094">
        <ele>1467.5</ele>
        <time>2021-08-03T10:39:05Z</time>
      </trkpt>
      <trkpt lat="45.53173" lon="6.77094">
        <ele>1467.4</ele>
        <time>2021-08-03T10:39:06Z</time>
      </trkpt>
      <trkpt lat="45.53173" lon="6.77095">
        <ele>1467.1</ele>
        <time>2021-08-03T10:39:07Z</time>
      </trkpt>
      <trkpt lat="45.53174" lon="6.77095">
        <ele>1467</ele>
        <time>2021-08-03T10:39:08Z</time>
      </trkpt>
      <trkpt lat="45.53174" lon="6.77095">
        <ele>1466.8</ele>
        <time>2021-08-03T10:39:09Z</time>
      </trkpt>
      <trkpt lat="45.53175" lon="6.77096">
        <ele>1466.6</ele>
        <time>2021-08-03T10:39:10Z</time>
      </trkpt>
      <trkpt lat="45.53175" lon="6.77096">
        <ele>1466.4</ele>
        <time>2021-08-03T10:39:11Z</time>
      </trkpt>
      <trkpt lat="45.53176" lon="6.77096">
        <ele>1466.2</ele>
        <time>2021-08-03T10:39:12Z</time>
      </trkpt>
      <trkpt lat="45.53176" lon="6.77097">
        <ele>1466</ele>
        <time>2021-08-03T10:39:13Z</time>
      </trkpt>
      <trkpt lat="45.53177" lon="6.77097">
        <ele>1465.9</ele>
        <time>2021-08-03T10:39:14Z</time>
      </trkpt>
      <trkpt lat="45.53177" lon="6.77097">
        <ele>1465.8</ele>
        <time>2021-08-03T10:39:15Z</time>
      </trkpt>
      <trkpt lat="45.53178" lon="6.77097">
        <ele>1465.7</ele>
        <time>2021-08-03T10:39:16Z</time>
      </trkpt>
      <trkpt lat="45.53178" lon="6.77098">
        <ele>1465.6</ele>
        <time>2021-08-03T10:39:17Z</time>
      </trkpt>
      <trkpt lat="45.53178" lon="6.77098">
        <ele>1465.6</ele>
        <time>2021-08-03T10:39:18Z</time>
      </trkpt>
      <trkpt lat="45.53178" lon="6.77098">
        <ele>1465.5</ele>
        <time>2021-08-03T10:39:19Z</time>
      </trkpt>
      <trkpt lat="45.53178" lon="6.77098">
        <ele>1465.5</ele>
        <time>2021-08-03T10:39:20Z</time>
      </trkpt>
      <trkpt lat="45.53178" lon="6.77098">
        <ele>1465.5</ele>
        <time>2021-08-03T10:39:21Z</time>
      </trkpt>
      <trkpt lat="45.53178" lon="6.77098">
        <ele>1465.5</ele>
        <time>2021-08-03T10:39:22Z</time>
      </trkpt>
      <trkpt lat="45.53178" lon="6.77098">
        <ele>1465.5</ele>
        <time>2021-08-03T10:39:23Z</time>
      </trkpt>
      <trkpt lat="45.53178" lon="6.77098">
        <ele>1465.5</ele>
        <time>2021-08-03T10:39:24Z</time>
      </trkpt>
      <trkpt lat="45.53178" lon="6.77098">
        <ele>1465.5</ele>
        <time>2021-08-03T10:39:25Z</time>
      </trkpt>
      <trkpt lat="45.53178" lon="6.77098">
        <ele>1465.4</ele>
        <time>2021-08-03T10:39:26Z</time>
      </trkpt>
      <trkpt lat="45.53178" lon="6.77098">
        <ele>1465.3</ele>
        <time>2021-08-03T10:39:27Z</time>
      </trkpt>
      <trkpt lat="45.53179" lon="6.77099">
        <ele>1465.2</ele>
        <time>2021-08-03T10:39:28Z</time>
      </trkpt>
      <trkpt lat="45.53179" lon="6.77099">
        <ele>1465</ele>
        <time>2021-08-03T10:39:29Z</time>
      </trkpt>
      <trkpt lat="45.5318" lon="6.771">
        <ele>1464.7</ele>
        <time>2021-08-03T10:39:30Z</time>
      </trkpt>
      <trkpt lat="45.5318" lon="6.77101">
        <ele>1464.5</ele>
        <time>2021-08-03T10:39:31Z</time>
      </trkpt>
      <trkpt lat="45.53181" lon="6.77102">
        <ele>1464.2</ele>
        <time>2021-08-03T10:39:32Z</time>
      </trkpt>
      <trkpt lat="45.53181" lon="6.77104">
        <ele>1463.9</ele>
        <time>2021-08-03T10:39:33Z</time>
      </trkpt>
      <trkpt lat="45.53181" lon="6.77105">
        <ele>1463.5</ele>
        <time>2021-08-03T10:39:34Z</time>
      </trkpt>
      <trkpt lat="45.53181" lon="6.77107">
        <ele>1463.2</ele>
        <time>2021-08-03T10:39:35Z</time>
      </trkpt>
      <trkpt lat="45.53181" lon="6.77108">
        <ele>1462.8</ele>
        <time>2021-08-03T10:39:36Z</time>
      </trkpt>
      <trkpt lat="45.53181" lon="6.7711">
        <ele>1462.4</ele>
        <time>2021-08-03T10:39:37Z</time>
      </trkpt>
      <trkpt lat="45.53181" lon="6.77111">
        <ele>1462.1</ele>
        <time>2021-08-03T10:39:38Z</time>
      </trkpt>
      <trkpt lat="45.53181" lon="6.77113">
        <ele>1461.8</ele>
        <time>2021-08-03T10:39:39Z</time>
      </trkpt>
      <trkpt lat="45.5318" lon="6.77114">
        <ele>1461.5</ele>
        <time>2021-08-03T10:39:40Z</time>
      </trkpt>
      <trkpt lat="45.5318" lon="6.77115">
        <ele>1461.2</ele>
        <time>2021-08-03T10:39:41Z</time>
      </trkpt>
      <trkpt lat="45.5318" lon="6.77116">
        <ele>1461</ele>
        <time>2021-08-03T10:39:42Z</time>
      </trkpt>
      <trkpt lat="45.5318" lon="6.77117">
        <ele>1460.7</ele>
        <time>2021-08-03T10:39:43Z</time>
      </trkpt>
      <trkpt lat="45.5318" lon="6.77118">
        <ele>1460.5</ele>
        <time>2021-08-03T10:39:44Z</time>
      </trkpt>
      <trkpt lat="45.53179" lon="6.77119">
        <ele>1460.2</ele>
        <time>2021-08-03T10:39:45Z</time>
      </trkpt>
      <trkpt lat="45.53179" lon="6.7712">
        <ele>1460</ele>
        <time>2021-08-03T10:39:46Z</time>
      </trkpt>
      <trkpt lat="45.53179" lon="6.77121">
        <ele>1459.8</ele>
        <time>2021-08-03T10:39:47Z</time>
      </trkpt>
      <trkpt lat="45.53178" lon="6.77122">
        <ele>1459.7</ele>
        <time>2021-08-03T10:39:48Z</time>
      </trkpt>
      <trkpt lat="45.53178" lon="6.77123">
        <ele>1459.6</ele>
        <time>2021-08-03T10:39:49Z</time>
      </trkpt>
      <trkpt lat="45.53178" lon="6.77125">
        <ele>1459.5</ele>
        <time>2021-08-03T10:39:50Z</time>
      </trkpt>
      <trkpt lat="45.53178" lon="6.77126">
        <ele>1459.4</ele>
        <time>2021-08-03T10:39:51Z</time>
      </trkpt>
      <trkpt lat="45.53178" lon="6.77127">
        <ele>1459.3</ele>
        <time>2021-08-03T10:39:52Z</time>
      </trkpt>
      <trkpt lat="45.53178" lon="6.77128">
        <ele>1459.1</ele>
        <time>2021-08-03T10:39:53Z</time>
      </trkpt>
      <trkpt lat="45.53179" lon="6.77129">
        <ele>1459</ele>
        <time>2021-08-03T10:39:54Z</time>
      </trkpt>
      <trkpt lat="45.53179" lon="6.7713">
        <ele>1458.9</ele>
        <time>2021-08-03T10:39:55Z</time>
      </trkpt>
      <trkpt lat="45.53179" lon="6.77131">
        <ele>1458.8</ele>
        <time>2021-08-03T10:39:56Z</time>
      </trkpt>
      <trkpt lat="45.53179" lon="6.77132">
        <ele>1458.7</ele>
        <time>2021-08-03T10:39:57Z</time>
      </trkpt>
      <trkpt lat="45.53179" lon="6.77133">
        <ele>1458.6</ele>
        <time>2021-08-03T10:39:58Z</time>
      </trkpt>
      <trkpt lat="45.53179" lon="6.77134">
        <ele>1458.5</ele>
        <time>2021-08-03T10:39:59Z</time>
      </trkpt>
      <trkpt lat="45.53179" lon="6.77136">
        <ele>1458.4</ele>
        <time>2021-08-03T10:40:00Z</time>
      </trkpt>
      <trkpt lat="45.53179" lon="6.77137">
        <ele>1458.3</ele>
        <time>2021-08-03T10:40:01Z</time>
      </trkpt>
      <trkpt lat="45.53179" lon="6.77138">
        <ele>1458.2</ele>
        <time>2021-08-03T10:40:02Z</time>
      </trkpt>
      <trkpt lat="45.53179" lon="6.7714">
        <ele>1458.1</ele>
        <time>2021-08-03T10:40:03Z</time>
      </trkpt>
      <trkpt lat="45.53179" lon="6.77141">
        <ele>1458</ele>
        <time>2021-08-03T10:40:04Z</time>
      </trkpt>
      <trkpt lat="45.53179" lon="6.77143">
        <ele>1457.9</ele>
        <time>2021-08-03T10:40:05Z</time>
      </trkpt>
      <trkpt lat="45.53179" lon="6.77144">
        <ele>1457.7</ele>
        <time>2021-08-03T10:40:06Z</time>
      </trkpt>
      <trkpt lat="45.53179" lon="6.77145">
        <ele>1457.6</ele>
        <time>2021-08-03T10:40:07Z</time>
      </trkpt>
      <trkpt lat="45.53179" lon="6.77147">
        <ele>1457.5</ele>
        <time>2021-08-03T10:40:08Z</time>
      </trkpt>
      <trkpt lat="45.53179" lon="6.77148">
        <ele>1457.4</ele>
        <time>2021-08-03T10:40:09Z</time>
      </trkpt>
      <trkpt lat="45.53179" lon="6.77149">
        <ele>1457.3</ele>
        <time>2021-08-03T10:40:10Z</time>
      </trkpt>
      <trkpt lat="45.53179" lon="6.77151">
        <ele>1457.2</ele>
        <time>2021-08-03T10:40:11Z</time>
      </trkpt>
      <trkpt lat="45.53179" lon="6.77152">
        <ele>1457.2</ele>
        <time>2021-08-03T10:40:12Z</time>
      </trkpt>
      <trkpt lat="45.53179" lon="6.77153">
        <ele>1457.1</ele>
        <time>2021-08-03T10:40:13Z</time>
      </trkpt>
      <trkpt lat="45.53179" lon="6.77155">
        <ele>1456.9</ele>
        <time>2021-08-03T10:40:14Z</time>
      </trkpt>
      <trkpt lat="45.53179" lon="6.77157">
        <ele>1456.8</ele>
        <time>2021-08-03T10:40:15Z</time>
      </trkpt>
      <trkpt lat="45.5318" lon="6.77158">
        <ele>1456.7</ele>
        <time>2021-08-03T10:40:16Z</time>
      </trkpt>
      <trkpt lat="45.5318" lon="6.7716">
        <ele>1456.6</ele>
        <time>2021-08-03T10:40:17Z</time>
      </trkpt>
      <trkpt lat="45.5318" lon="6.77162">
        <ele>1456.4</ele>
        <time>2021-08-03T10:40:18Z</time>
      </trkpt>
      <trkpt lat="45.5318" lon="6.77163">
        <ele>1456.3</ele>
        <time>2021-08-03T10:40:19Z</time>
      </trkpt>
      <trkpt lat="45.5318" lon="6.77165">
        <ele>1456.2</ele>
        <time>2021-08-03T10:40:20Z</time>
      </trkpt>
      <trkpt lat="45.53179" lon="6.77166">
        <ele>1456.1</ele>
        <time>2021-08-03T10:40:21Z</time>
      </trkpt>
      <trkpt lat="45.53179" lon="6.77168">
        <ele>1456</ele>
        <time>2021-08-03T10:40:22Z</time>
      </trkpt>
      <trkpt lat="45.53178" lon="6.77169">
        <ele>1455.9</ele>
        <time>2021-08-03T10:40:23Z</time>
      </trkpt>
      <trkpt lat="45.53178" lon="6.7717">
        <ele>1455.8</ele>
        <time>2021-08-03T10:40:24Z</time>
      </trkpt>
      <trkpt lat="45.53177" lon="6.77171">
        <ele>1455.7</ele>
        <time>2021-08-03T10:40:25Z</time>
      </trkpt>
      <trkpt lat="45.53177" lon="6.77172">
        <ele>1455.6</ele>
        <time>2021-08-03T10:40:26Z</time>
      </trkpt>
      <trkpt lat="45.53177" lon="6.77173">
        <ele>1455.5</ele>
        <time>2021-08-03T10:40:27Z</time>
      </trkpt>
      <trkpt lat="45.53176" lon="6.77174">
        <ele>1455.4</ele>
        <time>2021-08-03T10:40:28Z</time>
      </trkpt>
      <trkpt lat="45.53176" lon="6.77175">
        <ele>1455.3</ele>
        <time>2021-08-03T10:40:29Z</time>
      </trkpt>
      <trkpt lat="45.53176" lon="6.77176">
        <ele>1455.3</ele>
        <time>2021-08-03T10:40:30Z</time>
      </trkpt>
      <trkpt lat="45.53176" lon="6.77177">
        <ele>1455.2</ele>
        <time>2021-08-03T10:40:31Z</time>
      </trkpt>
      <trkpt lat="45.53176" lon="6.77178">
        <ele>1455.1</ele>
        <time>2021-08-03T10:40:32Z</time>
      </trkpt>
      <trkpt lat="45.53177" lon="6.7718">
        <ele>1455</ele>
        <time>2021-08-03T10:40:33Z</time>
      </trkpt>
      <trkpt lat="45.53177" lon="6.77181">
        <ele>1454.9</ele>
        <time>2021-08-03T10:40:34Z</time>
      </trkpt>
      <trkpt lat="45.53177" lon="6.77182">
        <ele>1454.8</ele>
        <time>2021-08-03T10:40:35Z</time>
      </trkpt>
      <trkpt lat="45.53177" lon="6.77183">
        <ele>1454.7</ele>
        <time>2021-08-03T10:40:36Z</time>
      </trkpt>
      <trkpt lat="45.53177" lon="6.77185">
        <ele>1454.6</ele>
        <time>2021-08-03T10:40:37Z</time>
      </trkpt>
      <trkpt lat="45.53177" lon="6.77186">
        <ele>1454.4</ele>
        <time>2021-08-03T10:40:38Z</time>
      </trkpt>
      <trkpt lat="45.53178" lon="6.77187">
        <ele>1454.3</ele>
        <time>2021-08-03T10:40:39Z</time>
      </trkpt>
      <trkpt lat="45.53178" lon="6.77188">
        <ele>1454.2</ele>
        <time>2021-08-03T10:40:40Z</time>
      </trkpt>
      <trkpt lat="45.53178" lon="6.77189">
        <ele>1454.1</ele>
        <time>2021-08-03T10:40:41Z</time>
      </trkpt>
      <trkpt lat="45.53178" lon="6.77191">
        <ele>1454</ele>
        <time>2021-08-03T10:40:42Z</time>
      </trkpt>
      <trkpt lat="45.53178" lon="6.77191">
        <ele>1453.9</ele>
        <time>2021-08-03T10:40:43Z</time>
      </trkpt>
      <trkpt lat="45.53178" lon="6.77192">
        <ele>1453.8</ele>
        <time>2021-08-03T10:40:44Z</time>
      </trkpt>
      <trkpt lat="45.53178" lon="6.77193">
        <ele>1453.7</ele>
        <time>2021-08-03T10:40:45Z</time>
      </trkpt>
      <trkpt lat="45.53177" lon="6.77194">
        <ele>1453.6</ele>
        <time>2021-08-03T10:40:46Z</time>
      </trkpt>
      <trkpt lat="45.53177" lon="6.77194">
        <ele>1453.6</ele>
        <time>2021-08-03T10:40:47Z</time>
      </trkpt>
      <trkpt lat="45.53177" lon="6.77195">
        <ele>1453.5</ele>
        <time>2021-08-03T10:40:48Z</time>
      </trkpt>
      <trkpt lat="45.53177" lon="6.77195">
        <ele>1453.5</ele>
        <time>2021-08-03T10:40:49Z</time>
      </trkpt>
      <trkpt lat="45.53177" lon="6.77195">
        <ele>1453.4</ele>
        <time>2021-08-03T10:40:50Z</time>
      </trkpt>
      <trkpt lat="45.53177" lon="6.77195">
        <ele>1453.4</ele>
        <time>2021-08-03T10:40:51Z</time>
      </trkpt>
      <trkpt lat="45.53177" lon="6.77196">
        <ele>1453.4</ele>
        <time>2021-08-03T10:40:52Z</time>
      </trkpt>
      <trkpt lat="45.53177" lon="6.77196">
        <ele>1453.4</ele>
        <time>2021-08-03T10:40:53Z</time>
      </trkpt>
      <trkpt lat="45.53177" lon="6.77196">
        <ele>1453.4</ele>
        <time>2021-08-03T10:40:54Z</time>
      </trkpt>
      <trkpt lat="45.53177" lon="6.77196">
        <ele>1453.4</ele>
        <time>2021-08-03T10:40:55Z</time>
      </trkpt>
      <trkpt lat="45.53177" lon="6.77196">
        <ele>1453.4</ele>
        <time>2021-08-03T10:40:56Z</time>
      </trkpt>
      <trkpt lat="45.53177" lon="6.77196">
        <ele>1453.3</ele>
        <time>2021-08-03T10:40:57Z</time>
      </trkpt>
      <trkpt lat="45.53177" lon="6.77196">
        <ele>1453.3</ele>
        <time>2021-08-03T10:40:58Z</time>
      </trkpt>
      <trkpt lat="45.53177" lon="6.77196">
        <ele>1453.3</ele>
        <time>2021-08-03T10:40:59Z</time>
      </trkpt>
      <trkpt lat="45.53177" lon="6.77196">
        <ele>1453.3</ele>
        <time>2021-08-03T10:41:00Z</time>
      </trkpt>
      <trkpt lat="45.53177" lon="6.77195">
        <ele>1453.3</ele>
        <time>2021-08-03T10:41:01Z</time>
      </trkpt>
      <trkpt lat="45.53177" lon="6.77195">
        <ele>1453.3</ele>
        <time>2021-08-03T10:41:02Z</time>
      </trkpt>
      <trkpt lat="45.53177" lon="6.77195">
        <ele>1453.3</ele>
        <time>2021-08-03T10:41:03Z</time>
      </trkpt>
      <trkpt lat="45.53177" lon="6.77195">
        <ele>1453.3</ele>
        <time>2021-08-03T10:41:04Z</time>
      </trkpt>
      <trkpt lat="45.53177" lon="6.77195">
        <ele>1453.3</ele>
        <time>2021-08-03T10:41:05Z</time>
      </trkpt>
      <trkpt lat="45.53177" lon="6.77195">
        <ele>1453.3</ele>
        <time>2021-08-03T10:41:06Z</time>
      </trkpt>
      <trkpt lat="45.53177" lon="6.77195">
        <ele>1453.3</ele>
        <time>2021-08-03T10:41:07Z</time>
      </trkpt>
      <trkpt lat="45.53177" lon="6.77195">
        <ele>1453.3</ele>
        <time>2021-08-03T10:41:08Z</time>
      </trkpt>
      <trkpt lat="45.53177" lon="6.77195">
        <ele>1453.2</ele>
        <time>2021-08-03T10:41:09Z</time>
      </trkpt>
      <trkpt lat="45.53177" lon="6.77195">
        <ele>1453.2</ele>
        <time>2021-08-03T10:41:10Z</time>
      </trkpt>
      <trkpt lat="45.53177" lon="6.77194">
        <ele>1453.1</ele>
        <time>2021-08-03T10:41:11Z</time>
      </trkpt>
      <trkpt lat="45.53177" lon="6.77193">
        <ele>1453</ele>
        <time>2021-08-03T10:41:12Z</time>
      </trkpt>
      <trkpt lat="45.53178" lon="6.77193">
        <ele>1452.9</ele>
        <time>2021-08-03T10:41:13Z</time>
      </trkpt>
      <trkpt lat="45.53178" lon="6.77192">
        <ele>1452.8</ele>
        <time>2021-08-03T10:41:14Z</time>
      </trkpt>
      <trkpt lat="45.53179" lon="6.77191">
        <ele>1452.7</ele>
        <time>2021-08-03T10:41:15Z</time>
      </trkpt>
      <trkpt lat="45.53179" lon="6.7719">
        <ele>1452.6</ele>
        <time>2021-08-03T10:41:16Z</time>
      </trkpt>
      <trkpt lat="45.5318" lon="6.7719">
        <ele>1452.4</ele>
        <time>2021-08-03T10:41:17Z</time>
      </trkpt>
      <trkpt lat="45.5318" lon="6.77189">
        <ele>1452.3</ele>
        <time>2021-08-03T10:41:18Z</time>
      </trkpt>
      <trkpt lat="45.53181" lon="6.77188">
        <ele>1452.1</ele>
        <time>2021-08-03T10:41:19Z</time>
      </trkpt>
      <trkpt lat="45.53181" lon="6.77187">
        <ele>1451.9</ele>
        <time>2021-08-03T10:41:20Z</time>
      </trkpt>
      <trkpt lat="45.53182" lon="6.77187">
        <ele>1451.8</ele>
        <time>2021-08-03T10:41:21Z</time>
      </trkpt>
      <trkpt lat="45.53183" lon="6.77186">
        <ele>1451.6</ele>
        <time>2021-08-03T10:41:22Z</time>
      </trkpt>
      <trkpt lat="45.53183" lon="6.77185">
        <ele>1451.5</ele>
        <time>2021-08-03T10:41:23Z</time>
      </trkpt>
      <trkpt lat="45.53184" lon="6.77185">
        <ele>1451.4</ele>
        <time>2021-08-03T10:41:24Z</time>
      </trkpt>
      <trkpt lat="45.53184" lon="6.77184">
        <ele>1451.2</ele>
        <time>2021-08-03T10:41:25Z</time>
      </trkpt>
      <trkpt lat="45.53184" lon="6.77184">
        <ele>1451.1</ele>
        <time>2021-08-03T10:41:26Z</time>
      </trkpt>
      <trkpt lat="45.53185" lon="6.77183">
        <ele>1451</ele>
        <time>2021-08-03T10:41:27Z</time>
      </trkpt>
      <trkpt lat="45.53185" lon="6.77183">
        <ele>1450.9</ele>
        <time>2021-08-03T10:41:28Z</time>
      </trkpt>
      <trkpt lat="45.53186" lon="6.77182">
        <ele>1450.7</ele>
        <time>2021-08-03T10:41:29Z</time>
      </trkpt>
      <trkpt lat="45.53186" lon="6.77182">
        <ele>1450.6</ele>
        <time>2021-08-03T10:41:30Z</time>
      </trkpt>
      <trkpt lat="45.53186" lon="6.77181">
        <ele>1450.5</ele>
        <time>2021-08-03T10:41:31Z</time>
      </trkpt>
      <trkpt lat="45.53187" lon="6.7718">
        <ele>1450.4</ele>
        <time>2021-08-03T10:41:32Z</time>
      </trkpt>
      <trkpt lat="45.53187" lon="6.7718">
        <ele>1450.2</ele>
        <time>2021-08-03T10:41:33Z</time>
      </trkpt>
      <trkpt lat="45.53188" lon="6.77179">
        <ele>1450.1</ele>
        <time>2021-08-03T10:41:34Z</time>
      </trkpt>
      <trkpt lat="45.53188" lon="6.77179">
        <ele>1449.9</ele>
        <time>2021-08-03T10:41:35Z</time>
      </trkpt>
      <trkpt lat="45.53189" lon="6.77179">
        <ele>1449.8</ele>
        <time>2021-08-03T10:41:36Z</time>
      </trkpt>
      <trkpt lat="45.53189" lon="6.77178">
        <ele>1449.6</ele>
        <time>2021-08-03T10:41:37Z</time>
      </trkpt>
      <trkpt lat="45.5319" lon="6.77178">
        <ele>1449.5</ele>
        <time>2021-08-03T10:41:38Z</time>
      </trkpt>
      <trkpt lat="45.5319" lon="6.77178">
        <ele>1449.4</ele>
        <time>2021-08-03T10:41:39Z</time>
      </trkpt>
      <trkpt lat="45.53191" lon="6.77178">
        <ele>1449.3</ele>
        <time>2021-08-03T10:41:40Z</time>
      </trkpt>
      <trkpt lat="45.53191" lon="6.77179">
        <ele>1449.2</ele>
        <time>2021-08-03T10:41:41Z</time>
      </trkpt>
      <trkpt lat="45.53191" lon="6.77179">
        <ele>1449</ele>
        <time>2021-08-03T10:41:42Z</time>
      </trkpt>
      <trkpt lat="45.53191" lon="6.7718">
        <ele>1448.9</ele>
        <time>2021-08-03T10:41:43Z</time>
      </trkpt>
      <trkpt lat="45.53191" lon="6.77181">
        <ele>1448.8</ele>
        <time>2021-08-03T10:41:44Z</time>
      </trkpt>
      <trkpt lat="45.53191" lon="6.77181">
        <ele>1448.7</ele>
        <time>2021-08-03T10:41:45Z</time>
      </trkpt>
      <trkpt lat="45.53192" lon="6.77181">
        <ele>1448.6</ele>
        <time>2021-08-03T10:41:46Z</time>
      </trkpt>
      <trkpt lat="45.53192" lon="6.77181">
        <ele>1448.6</ele>
        <time>2021-08-03T10:41:47Z</time>
      </trkpt>
      <trkpt lat="45.53192" lon="6.77181">
        <ele>1448.5</ele>
        <time>2021-08-03T10:41:48Z</time>
      </trkpt>
      <trkpt lat="45.53192" lon="6.7718">
        <ele>1448.4</ele>
        <time>2021-08-03T10:41:49Z</time>
      </trkpt>
      <trkpt lat="45.53192" lon="6.7718">
        <ele>1448.4</ele>
        <time>2021-08-03T10:41:50Z</time>
      </trkpt>
      <trkpt lat="45.53192" lon="6.7718">
        <ele>1448.3</ele>
        <time>2021-08-03T10:41:51Z</time>
      </trkpt>
      <trkpt lat="45.53193" lon="6.7718">
        <ele>1448.3</ele>
        <time>2021-08-03T10:41:52Z</time>
      </trkpt>
      <trkpt lat="45.53193" lon="6.7718">
        <ele>1448.3</ele>
        <time>2021-08-03T10:41:53Z</time>
      </trkpt>
      <trkpt lat="45.53193" lon="6.7718">
        <ele>1448.2</ele>
        <time>2021-08-03T10:41:54Z</time>
      </trkpt>
      <trkpt lat="45.53194" lon="6.7718">
        <ele>1448.1</ele>
        <time>2021-08-03T10:41:55Z</time>
      </trkpt>
      <trkpt lat="45.53194" lon="6.7718">
        <ele>1447.9</ele>
        <time>2021-08-03T10:41:56Z</time>
      </trkpt>
      <trkpt lat="45.53195" lon="6.77179">
        <ele>1447.8</ele>
        <time>2021-08-03T10:41:57Z</time>
      </trkpt>
      <trkpt lat="45.53195" lon="6.77179">
        <ele>1447.6</ele>
        <time>2021-08-03T10:41:58Z</time>
      </trkpt>
      <trkpt lat="45.53196" lon="6.77178">
        <ele>1447.5</ele>
        <time>2021-08-03T10:41:59Z</time>
      </trkpt>
      <trkpt lat="45.53196" lon="6.77178">
        <ele>1447.3</ele>
        <time>2021-08-03T10:42:00Z</time>
      </trkpt>
      <trkpt lat="45.53197" lon="6.77177">
        <ele>1447.1</ele>
        <time>2021-08-03T10:42:01Z</time>
      </trkpt>
      <trkpt lat="45.53197" lon="6.77176">
        <ele>1446.9</ele>
        <time>2021-08-03T10:42:02Z</time>
      </trkpt>
      <trkpt lat="45.53198" lon="6.77176">
        <ele>1446.8</ele>
        <time>2021-08-03T10:42:03Z</time>
      </trkpt>
      <trkpt lat="45.53198" lon="6.77175">
        <ele>1446.6</ele>
        <time>2021-08-03T10:42:04Z</time>
      </trkpt>
      <trkpt lat="45.53199" lon="6.77174">
        <ele>1446.5</ele>
        <time>2021-08-03T10:42:05Z</time>
      </trkpt>
      <trkpt lat="45.53199" lon="6.77174">
        <ele>1446.3</ele>
        <time>2021-08-03T10:42:06Z</time>
      </trkpt>
      <trkpt lat="45.532" lon="6.77173">
        <ele>1446.1</ele>
        <time>2021-08-03T10:42:07Z</time>
      </trkpt>
      <trkpt lat="45.532" lon="6.77172">
        <ele>1446</ele>
        <time>2021-08-03T10:42:08Z</time>
      </trkpt>
      <trkpt lat="45.53201" lon="6.77172">
        <ele>1445.8</ele>
        <time>2021-08-03T10:42:09Z</time>
      </trkpt>
      <trkpt lat="45.53202" lon="6.77171">
        <ele>1445.6</ele>
        <time>2021-08-03T10:42:10Z</time>
      </trkpt>
      <trkpt lat="45.53202" lon="6.77171">
        <ele>1445.4</ele>
        <time>2021-08-03T10:42:11Z</time>
      </trkpt>
      <trkpt lat="45.53203" lon="6.7717">
        <ele>1445.3</ele>
        <time>2021-08-03T10:42:12Z</time>
      </trkpt>
      <trkpt lat="45.53204" lon="6.7717">
        <ele>1445.1</ele>
        <time>2021-08-03T10:42:13Z</time>
      </trkpt>
      <trkpt lat="45.53204" lon="6.77169">
        <ele>1444.9</ele>
        <time>2021-08-03T10:42:14Z</time>
      </trkpt>
      <trkpt lat="45.53205" lon="6.77169">
        <ele>1444.8</ele>
        <time>2021-08-03T10:42:15Z</time>
      </trkpt>
      <trkpt lat="45.53205" lon="6.77168">
        <ele>1444.7</ele>
        <time>2021-08-03T10:42:16Z</time>
      </trkpt>
      <trkpt lat="45.53206" lon="6.77168">
        <ele>1444.5</ele>
        <time>2021-08-03T10:42:17Z</time>
      </trkpt>
      <trkpt lat="45.53206" lon="6.77167">
        <ele>1444.4</ele>
        <time>2021-08-03T10:42:18Z</time>
      </trkpt>
      <trkpt lat="45.53207" lon="6.77166">
        <ele>1444.3</ele>
        <time>2021-08-03T10:42:19Z</time>
      </trkpt>
      <trkpt lat="45.53207" lon="6.77166">
        <ele>1444.2</ele>
        <time>2021-08-03T10:42:20Z</time>
      </trkpt>
      <trkpt lat="45.53207" lon="6.77165">
        <ele>1444.1</ele>
        <time>2021-08-03T10:42:21Z</time>
      </trkpt>
      <trkpt lat="45.53208" lon="6.77165">
        <ele>1444</ele>
        <time>2021-08-03T10:42:22Z</time>
      </trkpt>
      <trkpt lat="45.53208" lon="6.77164">
        <ele>1443.9</ele>
        <time>2021-08-03T10:42:23Z</time>
      </trkpt>
      <trkpt lat="45.53208" lon="6.77164">
        <ele>1443.8</ele>
        <time>2021-08-03T10:42:24Z</time>
      </trkpt>
      <trkpt lat="45.53208" lon="6.77163">
        <ele>1443.8</ele>
        <time>2021-08-03T10:42:25Z</time>
      </trkpt>
      <trkpt lat="45.53209" lon="6.77163">
        <ele>1443.7</ele>
        <time>2021-08-03T10:42:26Z</time>
      </trkpt>
      <trkpt lat="45.53209" lon="6.77163">
        <ele>1439.3</ele>
        <time>2021-08-03T10:42:27Z</time>
      </trkpt>
      <trkpt lat="45.53209" lon="6.77163">
        <ele>1439.2</ele>
        <time>2021-08-03T10:42:28Z</time>
      </trkpt>
      <trkpt lat="45.5321" lon="6.77164">
        <ele>1439.1</ele>
        <time>2021-08-03T10:42:29Z</time>
      </trkpt>
      <trkpt lat="45.5321" lon="6.77165">
        <ele>1439</ele>
        <time>2021-08-03T10:42:30Z</time>
      </trkpt>
      <trkpt lat="45.53211" lon="6.77166">
        <ele>1438.8</ele>
        <time>2021-08-03T10:42:31Z</time>
      </trkpt>
      <trkpt lat="45.53211" lon="6.77168">
        <ele>1438.7</ele>
        <time>2021-08-03T10:42:32Z</time>
      </trkpt>
      <trkpt lat="45.5321" lon="6.7717">
        <ele>1438.5</ele>
        <time>2021-08-03T10:42:33Z</time>
      </trkpt>
      <trkpt lat="45.5321" lon="6.7717">
        <ele>1438.4</ele>
        <time>2021-08-03T10:42:34Z</time>
      </trkpt>
      <trkpt lat="45.53211" lon="6.77171">
        <ele>1438.4</ele>
        <time>2021-08-03T10:42:35Z</time>
      </trkpt>
      <trkpt lat="45.53211" lon="6.77171">
        <ele>1438.3</ele>
        <time>2021-08-03T10:42:36Z</time>
      </trkpt>
      <trkpt lat="45.53211" lon="6.77171">
        <ele>1438.3</ele>
        <time>2021-08-03T10:42:37Z</time>
      </trkpt>
      <trkpt lat="45.53211" lon="6.77172">
        <ele>1438.2</ele>
        <time>2021-08-03T10:42:38Z</time>
      </trkpt>
      <trkpt lat="45.53211" lon="6.77172">
        <ele>1438.2</ele>
        <time>2021-08-03T10:42:39Z</time>
      </trkpt>
      <trkpt lat="45.53211" lon="6.77172">
        <ele>1438.2</ele>
        <time>2021-08-03T10:42:40Z</time>
      </trkpt>
      <trkpt lat="45.53211" lon="6.77173">
        <ele>1438.1</ele>
        <time>2021-08-03T10:42:41Z</time>
      </trkpt>
      <trkpt lat="45.53211" lon="6.77173">
        <ele>1438.1</ele>
        <time>2021-08-03T10:42:42Z</time>
      </trkpt>
      <trkpt lat="45.53211" lon="6.77174">
        <ele>1438</ele>
        <time>2021-08-03T10:42:43Z</time>
      </trkpt>
      <trkpt lat="45.53211" lon="6.77174">
        <ele>1438</ele>
        <time>2021-08-03T10:42:44Z</time>
      </trkpt>
      <trkpt lat="45.53211" lon="6.77174">
        <ele>1438</ele>
        <time>2021-08-03T10:42:45Z</time>
      </trkpt>
      <trkpt lat="45.53211" lon="6.77175">
        <ele>1437.9</ele>
        <time>2021-08-03T10:42:46Z</time>
      </trkpt>
      <trkpt lat="45.53211" lon="6.77175">
        <ele>1437.9</ele>
        <time>2021-08-03T10:42:47Z</time>
      </trkpt>
      <trkpt lat="45.53211" lon="6.77176">
        <ele>1437.8</ele>
        <time>2021-08-03T10:42:48Z</time>
      </trkpt>
      <trkpt lat="45.53211" lon="6.77176">
        <ele>1437.8</ele>
        <time>2021-08-03T10:42:49Z</time>
      </trkpt>
      <trkpt lat="45.53211" lon="6.77176">
        <ele>1437.7</ele>
        <time>2021-08-03T10:42:50Z</time>
      </trkpt>
      <trkpt lat="45.53212" lon="6.77177">
        <ele>1437.7</ele>
        <time>2021-08-03T10:42:51Z</time>
      </trkpt>
      <trkpt lat="45.53212" lon="6.77177">
        <ele>1437.7</ele>
        <time>2021-08-03T10:42:52Z</time>
      </trkpt>
      <trkpt lat="45.53212" lon="6.77177">
        <ele>1437.6</ele>
        <time>2021-08-03T10:42:53Z</time>
      </trkpt>
      <trkpt lat="45.53212" lon="6.77178">
        <ele>1437.6</ele>
        <time>2021-08-03T10:42:54Z</time>
      </trkpt>
      <trkpt lat="45.53212" lon="6.77178">
        <ele>1437.5</ele>
        <time>2021-08-03T10:42:55Z</time>
      </trkpt>
      <trkpt lat="45.53212" lon="6.77179">
        <ele>1437.5</ele>
        <time>2021-08-03T10:42:56Z</time>
      </trkpt>
      <trkpt lat="45.53212" lon="6.77179">
        <ele>1437.5</ele>
        <time>2021-08-03T10:42:57Z</time>
      </trkpt>
      <trkpt lat="45.53212" lon="6.77179">
        <ele>1437.4</ele>
        <time>2021-08-03T10:42:58Z</time>
      </trkpt>
      <trkpt lat="45.53212" lon="6.7718">
        <ele>1437.4</ele>
        <time>2021-08-03T10:42:59Z</time>
      </trkpt>
      <trkpt lat="45.53212" lon="6.7718">
        <ele>1437.3</ele>
        <time>2021-08-03T10:43:00Z</time>
      </trkpt>
      <trkpt lat="45.53212" lon="6.7718">
        <ele>1437.3</ele>
        <time>2021-08-03T10:43:01Z</time>
      </trkpt>
      <trkpt lat="45.53212" lon="6.77181">
        <ele>1437.3</ele>
        <time>2021-08-03T10:43:02Z</time>
      </trkpt>
      <trkpt lat="45.53212" lon="6.77181">
        <ele>1437.2</ele>
        <time>2021-08-03T10:43:03Z</time>
      </trkpt>
      <trkpt lat="45.53212" lon="6.77182">
        <ele>1437.2</ele>
        <time>2021-08-03T10:43:04Z</time>
      </trkpt>
      <trkpt lat="45.53212" lon="6.77182">
        <ele>1437.1</ele>
        <time>2021-08-03T10:43:05Z</time>
      </trkpt>
      <trkpt lat="45.53212" lon="6.77182">
        <ele>1437.1</ele>
        <time>2021-08-03T10:43:06Z</time>
      </trkpt>
      <trkpt lat="45.53213" lon="6.77183">
        <ele>1437.1</ele>
        <time>2021-08-03T10:43:07Z</time>
      </trkpt>
      <trkpt lat="45.53213" lon="6.77183">
        <ele>1437</ele>
        <time>2021-08-03T10:43:08Z</time>
      </trkpt>
      <trkpt lat="45.53213" lon="6.77184">
        <ele>1437</ele>
        <time>2021-08-03T10:43:09Z</time>
      </trkpt>
      <trkpt lat="45.53213" lon="6.77184">
        <ele>1436.9</ele>
        <time>2021-08-03T10:43:10Z</time>
      </trkpt>
      <trkpt lat="45.53213" lon="6.77184">
        <ele>1436.9</ele>
        <time>2021-08-03T10:43:11Z</time>
      </trkpt>
      <trkpt lat="45.53213" lon="6.77185">
        <ele>1436.8</ele>
        <time>2021-08-03T10:43:12Z</time>
      </trkpt>
      <trkpt lat="45.53213" lon="6.77185">
        <ele>1436.8</ele>
        <time>2021-08-03T10:43:13Z</time>
      </trkpt>
      <trkpt lat="45.53213" lon="6.77185">
        <ele>1436.8</ele>
        <time>2021-08-03T10:43:14Z</time>
      </trkpt>
      <trkpt lat="45.53213" lon="6.77186">
        <ele>1436.7</ele>
        <time>2021-08-03T10:43:15Z</time>
      </trkpt>
      <trkpt lat="45.53213" lon="6.77186">
        <ele>1436.7</ele>
        <time>2021-08-03T10:43:16Z</time>
      </trkpt>
      <trkpt lat="45.53213" lon="6.77187">
        <ele>1436.6</ele>
        <time>2021-08-03T10:43:17Z</time>
      </trkpt>
      <trkpt lat="45.53213" lon="6.77187">
        <ele>1436.6</ele>
        <time>2021-08-03T10:43:18Z</time>
      </trkpt>
      <trkpt lat="45.53213" lon="6.77187">
        <ele>1436.6</ele>
        <time>2021-08-03T10:43:19Z</time>
      </trkpt>
      <trkpt lat="45.53213" lon="6.77188">
        <ele>1435.7</ele>
        <time>2021-08-03T10:43:20Z</time>
      </trkpt>
      <trkpt lat="45.53213" lon="6.77188">
        <ele>1435.7</ele>
        <time>2021-08-03T10:43:21Z</time>
      </trkpt>
      <trkpt lat="45.53213" lon="6.77188">
        <ele>1435.7</ele>
        <time>2021-08-03T10:43:22Z</time>
      </trkpt>
      <trkpt lat="45.53214" lon="6.77189">
        <ele>1435.7</ele>
        <time>2021-08-03T10:43:23Z</time>
      </trkpt>
      <trkpt lat="45.53214" lon="6.77189">
        <ele>1435.7</ele>
        <time>2021-08-03T10:43:24Z</time>
      </trkpt>
      <trkpt lat="45.53214" lon="6.7719">
        <ele>1435.7</ele>
        <time>2021-08-03T10:43:25Z</time>
      </trkpt>
      <trkpt lat="45.53214" lon="6.7719">
        <ele>1435.7</ele>
        <time>2021-08-03T10:43:26Z</time>
      </trkpt>
      <trkpt lat="45.53214" lon="6.7719">
        <ele>1435.7</ele>
        <time>2021-08-03T10:43:27Z</time>
      </trkpt>
      <trkpt lat="45.53214" lon="6.77191">
        <ele>1435.7</ele>
        <time>2021-08-03T10:43:28Z</time>
      </trkpt>
      <trkpt lat="45.53214" lon="6.77191">
        <ele>1435.6</ele>
        <time>2021-08-03T10:43:29Z</time>
      </trkpt>
      <trkpt lat="45.53214" lon="6.77192">
        <ele>1435.6</ele>
        <time>2021-08-03T10:43:30Z</time>
      </trkpt>
      <trkpt lat="45.53214" lon="6.77192">
        <ele>1435.6</ele>
        <time>2021-08-03T10:43:31Z</time>
      </trkpt>
      <trkpt lat="45.53214" lon="6.77192">
        <ele>1435.6</ele>
        <time>2021-08-03T10:43:32Z</time>
      </trkpt>
      <trkpt lat="45.53214" lon="6.77193">
        <ele>1435.6</ele>
        <time>2021-08-03T10:43:33Z</time>
      </trkpt>
      <trkpt lat="45.53214" lon="6.77193">
        <ele>1435.6</ele>
        <time>2021-08-03T10:43:34Z</time>
      </trkpt>
      <trkpt lat="45.53214" lon="6.77193">
        <ele>1435.6</ele>
        <time>2021-08-03T10:43:35Z</time>
      </trkpt>
      <trkpt lat="45.53214" lon="6.77194">
        <ele>1435.6</ele>
        <time>2021-08-03T10:43:36Z</time>
      </trkpt>
      <trkpt lat="45.53214" lon="6.77194">
        <ele>1435.6</ele>
        <time>2021-08-03T10:43:37Z</time>
      </trkpt>
      <trkpt lat="45.53214" lon="6.77195">
        <ele>1435.6</ele>
        <time>2021-08-03T10:43:38Z</time>
      </trkpt>
      <trkpt lat="45.53214" lon="6.77195">
        <ele>1435.6</ele>
        <time>2021-08-03T10:43:39Z</time>
      </trkpt>
      <trkpt lat="45.53215" lon="6.77195">
        <ele>1435.6</ele>
        <time>2021-08-03T10:43:40Z</time>
      </trkpt>
      <trkpt lat="45.53215" lon="6.77196">
        <ele>1435.6</ele>
        <time>2021-08-03T10:43:41Z</time>
      </trkpt>
      <trkpt lat="45.53215" lon="6.77196">
        <ele>1435.6</ele>
        <time>2021-08-03T10:43:42Z</time>
      </trkpt>
      <trkpt lat="45.53215" lon="6.77196">
        <ele>1435.6</ele>
        <time>2021-08-03T10:43:43Z</time>
      </trkpt>
      <trkpt lat="45.53215" lon="6.77197">
        <ele>1435.6</ele>
        <time>2021-08-03T10:43:44Z</time>
      </trkpt>
      <trkpt lat="45.53215" lon="6.77197">
        <ele>1435.6</ele>
        <time>2021-08-03T10:43:45Z</time>
      </trkpt>
      <trkpt lat="45.53215" lon="6.77198">
        <ele>1435.6</ele>
        <time>2021-08-03T10:43:46Z</time>
      </trkpt>
      <trkpt lat="45.53215" lon="6.77198">
        <ele>1435.6</ele>
        <time>2021-08-03T10:43:47Z</time>
      </trkpt>
      <trkpt lat="45.53215" lon="6.77198">
        <ele>1435.6</ele>
        <time>2021-08-03T10:43:48Z</time>
      </trkpt>
      <trkpt lat="45.53215" lon="6.77199">
        <ele>1435.6</ele>
        <time>2021-08-03T10:43:49Z</time>
      </trkpt>
      <trkpt lat="45.53215" lon="6.77199">
        <ele>1435.6</ele>
        <time>2021-08-03T10:43:50Z</time>
      </trkpt>
      <trkpt lat="45.53215" lon="6.772">
        <ele>1435.6</ele>
        <time>2021-08-03T10:43:51Z</time>
      </trkpt>
      <trkpt lat="45.53215" lon="6.772">
        <ele>1435.6</ele>
        <time>2021-08-03T10:43:52Z</time>
      </trkpt>
      <trkpt lat="45.53215" lon="6.772">
        <ele>1435.6</ele>
        <time>2021-08-03T10:43:53Z</time>
      </trkpt>
      <trkpt lat="45.53215" lon="6.77201">
        <ele>1435.6</ele>
        <time>2021-08-03T10:43:54Z</time>
      </trkpt>
      <trkpt lat="45.53215" lon="6.77201">
        <ele>1435.6</ele>
        <time>2021-08-03T10:43:55Z</time>
      </trkpt>
      <trkpt lat="45.53216" lon="6.77201">
        <ele>1435.6</ele>
        <time>2021-08-03T10:43:56Z</time>
      </trkpt>
      <trkpt lat="45.53216" lon="6.77202">
        <ele>1435.6</ele>
        <time>2021-08-03T10:43:57Z</time>
      </trkpt>
      <trkpt lat="45.53216" lon="6.77202">
        <ele>1435.6</ele>
        <time>2021-08-03T10:43:58Z</time>
      </trkpt>
      <trkpt lat="45.53216" lon="6.77203">
        <ele>1435.6</ele>
        <time>2021-08-03T10:43:59Z</time>
      </trkpt>
      <trkpt lat="45.53216" lon="6.77203">
        <ele>1435.6</ele>
        <time>2021-08-03T10:44:00Z</time>
      </trkpt>
      <trkpt lat="45.53216" lon="6.77203">
        <ele>1435.6</ele>
        <time>2021-08-03T10:44:01Z</time>
      </trkpt>
      <trkpt lat="45.53216" lon="6.77204">
        <ele>1435.6</ele>
        <time>2021-08-03T10:44:02Z</time>
      </trkpt>
      <trkpt lat="45.53216" lon="6.77204">
        <ele>1435.6</ele>
        <time>2021-08-03T10:44:03Z</time>
      </trkpt>
      <trkpt lat="45.53216" lon="6.77204">
        <ele>1435.6</ele>
        <time>2021-08-03T10:44:04Z</time>
      </trkpt>
      <trkpt lat="45.53216" lon="6.77205">
        <ele>1435.6</ele>
        <time>2021-08-03T10:44:05Z</time>
      </trkpt>
      <trkpt lat="45.53216" lon="6.77205">
        <ele>1435.6</ele>
        <time>2021-08-03T10:44:06Z</time>
      </trkpt>
      <trkpt lat="45.53216" lon="6.77206">
        <ele>1435.6</ele>
        <time>2021-08-03T10:44:07Z</time>
      </trkpt>
      <trkpt lat="45.53216" lon="6.77206">
        <ele>1435.6</ele>
        <time>2021-08-03T10:44:08Z</time>
      </trkpt>
      <trkpt lat="45.53216" lon="6.77206">
        <ele>1435.6</ele>
        <time>2021-08-03T10:44:09Z</time>
      </trkpt>
      <trkpt lat="45.53216" lon="6.77207">
        <ele>1435.6</ele>
        <time>2021-08-03T10:44:10Z</time>
      </trkpt>
      <trkpt lat="45.53216" lon="6.77207">
        <ele>1435.6</ele>
        <time>2021-08-03T10:44:11Z</time>
      </trkpt>
      <trkpt lat="45.53217" lon="6.77207">
        <ele>1435.6</ele>
        <time>2021-08-03T10:44:12Z</time>
      </trkpt>
      <trkpt lat="45.53217" lon="6.77208">
        <ele>1435.6</ele>
        <time>2021-08-03T10:44:13Z</time>
      </trkpt>
      <trkpt lat="45.53217" lon="6.77208">
        <ele>1435.6</ele>
        <time>2021-08-03T10:44:14Z</time>
      </trkpt>
      <trkpt lat="45.53217" lon="6.77209">
        <ele>1435.6</ele>
        <time>2021-08-03T10:44:15Z</time>
      </trkpt>
      <trkpt lat="45.53217" lon="6.77209">
        <ele>1435.6</ele>
        <time>2021-08-03T10:44:16Z</time>
      </trkpt>
      <trkpt lat="45.53217" lon="6.77209">
        <ele>1435.6</ele>
        <time>2021-08-03T10:44:17Z</time>
      </trkpt>
      <trkpt lat="45.53217" lon="6.7721">
        <ele>1435.6</ele>
        <time>2021-08-03T10:44:18Z</time>
      </trkpt>
      <trkpt lat="45.53217" lon="6.7721">
        <ele>1435.6</ele>
        <time>2021-08-03T10:44:19Z</time>
      </trkpt>
      <trkpt lat="45.53217" lon="6.77211">
        <ele>1435.6</ele>
        <time>2021-08-03T10:44:20Z</time>
      </trkpt>
      <trkpt lat="45.53217" lon="6.77211">
        <ele>1435.6</ele>
        <time>2021-08-03T10:44:21Z</time>
      </trkpt>
      <trkpt lat="45.53217" lon="6.77211">
        <ele>1435.6</ele>
        <time>2021-08-03T10:44:22Z</time>
      </trkpt>
      <trkpt lat="45.53217" lon="6.77212">
        <ele>1435.6</ele>
        <time>2021-08-03T10:44:23Z</time>
      </trkpt>
      <trkpt lat="45.53217" lon="6.77212">
        <ele>1435.6</ele>
        <time>2021-08-03T10:44:24Z</time>
      </trkpt>
      <trkpt lat="45.53217" lon="6.77212">
        <ele>1435.6</ele>
        <time>2021-08-03T10:44:25Z</time>
      </trkpt>
      <trkpt lat="45.53217" lon="6.77213">
        <ele>1435.6</ele>
        <time>2021-08-03T10:44:26Z</time>
      </trkpt>
      <trkpt lat="45.53217" lon="6.77213">
        <ele>1435.6</ele>
        <time>2021-08-03T10:44:27Z</time>
      </trkpt>
      <trkpt lat="45.53218" lon="6.77214">
        <ele>1435.6</ele>
        <time>2021-08-03T10:44:28Z</time>
      </trkpt>
      <trkpt lat="45.53218" lon="6.77214">
        <ele>1435.6</ele>
        <time>2021-08-03T10:44:29Z</time>
      </trkpt>
      <trkpt lat="45.53218" lon="6.77214">
        <ele>1435.6</ele>
        <time>2021-08-03T10:44:30Z</time>
      </trkpt>
      <trkpt lat="45.53218" lon="6.77215">
        <ele>1435.6</ele>
        <time>2021-08-03T10:44:31Z</time>
      </trkpt>
      <trkpt lat="45.53218" lon="6.77215">
        <ele>1435.6</ele>
        <time>2021-08-03T10:44:32Z</time>
      </trkpt>
      <trkpt lat="45.53218" lon="6.77215">
        <ele>1435.6</ele>
        <time>2021-08-03T10:44:33Z</time>
      </trkpt>
      <trkpt lat="45.53218" lon="6.77216">
        <ele>1435.6</ele>
        <time>2021-08-03T10:44:34Z</time>
      </trkpt>
      <trkpt lat="45.53218" lon="6.77216">
        <ele>1435.6</ele>
        <time>2021-08-03T10:44:35Z</time>
      </trkpt>
      <trkpt lat="45.53219" lon="6.77217">
        <ele>1435.6</ele>
        <time>2021-08-03T10:44:36Z</time>
      </trkpt>
      <trkpt lat="45.5322" lon="6.77218">
        <ele>1435.6</ele>
        <time>2021-08-03T10:44:37Z</time>
      </trkpt>
      <trkpt lat="45.53221" lon="6.77219">
        <ele>1435.6</ele>
        <time>2021-08-03T10:44:38Z</time>
      </trkpt>
      <trkpt lat="45.53221" lon="6.77219">
        <ele>1435.6</ele>
        <time>2021-08-03T10:44:39Z</time>
      </trkpt>
      <trkpt lat="45.53222" lon="6.7722">
        <ele>1435.6</ele>
        <time>2021-08-03T10:44:40Z</time>
      </trkpt>
      <trkpt lat="45.53223" lon="6.7722">
        <ele>1435.6</ele>
        <time>2021-08-03T10:44:41Z</time>
      </trkpt>
      <trkpt lat="45.53223" lon="6.77221">
        <ele>1435.6</ele>
        <time>2021-08-03T10:44:42Z</time>
      </trkpt>
      <trkpt lat="45.53224" lon="6.77221">
        <ele>1435.6</ele>
        <time>2021-08-03T10:44:43Z</time>
      </trkpt>
      <trkpt lat="45.53224" lon="6.77221">
        <ele>1435.6</ele>
        <time>2021-08-03T10:44:44Z</time>
      </trkpt>
      <trkpt lat="45.53224" lon="6.77221">
        <ele>1435.6</ele>
        <time>2021-08-03T10:44:45Z</time>
      </trkpt>
      <trkpt lat="45.53224" lon="6.77221">
        <ele>1435.6</ele>
        <time>2021-08-03T10:44:46Z</time>
      </trkpt>
      <trkpt lat="45.53224" lon="6.77221">
        <ele>1435.6</ele>
        <time>2021-08-03T10:44:47Z</time>
      </trkpt>
      <trkpt lat="45.53224" lon="6.77221">
        <ele>1435.6</ele>
        <time>2021-08-03T10:44:48Z</time>
      </trkpt>
      <trkpt lat="45.53224" lon="6.77221">
        <ele>1435.6</ele>
        <time>2021-08-03T10:44:49Z</time>
      </trkpt>
      <trkpt lat="45.53224" lon="6.77221">
        <ele>1435.6</ele>
        <time>2021-08-03T10:44:50Z</time>
      </trkpt>
      <trkpt lat="45.53224" lon="6.77221">
        <ele>1435.6</ele>
        <time>2021-08-03T10:44:51Z</time>
      </trkpt>
      <trkpt lat="45.53224" lon="6.77221">
        <ele>1435.6</ele>
        <time>2021-08-03T10:44:52Z</time>
      </trkpt>
      <trkpt lat="45.53224" lon="6.77221">
        <ele>1435.6</ele>
        <time>2021-08-03T10:44:53Z</time>
      </trkpt>
      <trkpt lat="45.53224" lon="6.77221">
        <ele>1435.6</ele>
        <time>2021-08-03T10:44:54Z</time>
      </trkpt>
      <trkpt lat="45.53224" lon="6.77221">
        <ele>1435.6</ele>
        <time>2021-08-03T10:44:55Z</time>
      </trkpt>
      <trkpt lat="45.53224" lon="6.77221">
        <ele>1435.6</ele>
        <time>2021-08-03T10:44:56Z</time>
      </trkpt>
      <trkpt lat="45.53224" lon="6.77221">
        <ele>1435.6</ele>
        <time>2021-08-03T10:44:57Z</time>
      </trkpt>
      <trkpt lat="45.53224" lon="6.77221">
        <ele>1435.6</ele>
        <time>2021-08-03T10:44:58Z</time>
      </trkpt>
      <trkpt lat="45.53224" lon="6.77221">
        <ele>1435.6</ele>
        <time>2021-08-03T10:44:59Z</time>
      </trkpt>
      <trkpt lat="45.53224" lon="6.77221">
        <ele>1435.6</ele>
        <time>2021-08-03T10:45:00Z</time>
      </trkpt>
      <trkpt lat="45.53224" lon="6.77221">
        <ele>1435.6</ele>
        <time>2021-08-03T10:45:01Z</time>
      </trkpt>
      <trkpt lat="45.53224" lon="6.77221">
        <ele>1435.6</ele>
        <time>2021-08-03T10:45:02Z</time>
      </trkpt>
      <trkpt lat="45.53224" lon="6.77221">
        <ele>1435.6</ele>
        <time>2021-08-03T10:45:03Z</time>
      </trkpt>
      <trkpt lat="45.53224" lon="6.77221">
        <ele>1435.6</ele>
        <time>2021-08-03T10:45:04Z</time>
      </trkpt>
      <trkpt lat="45.53224" lon="6.77221">
        <ele>1435.6</ele>
        <time>2021-08-03T10:45:05Z</time>
      </trkpt>
      <trkpt lat="45.53224" lon="6.77221">
        <ele>1435.6</ele>
        <time>2021-08-03T10:45:06Z</time>
      </trkpt>
      <trkpt lat="45.53224" lon="6.77221">
        <ele>1435.6</ele>
        <time>2021-08-03T10:45:07Z</time>
      </trkpt>
      <trkpt lat="45.53224" lon="6.77221">
        <ele>1435.6</ele>
        <time>2021-08-03T10:45:08Z</time>
      </trkpt>
      <trkpt lat="45.53224" lon="6.77221">
        <ele>1435.6</ele>
        <time>2021-08-03T10:45:09Z</time>
      </trkpt>
      <trkpt lat="45.53224" lon="6.77221">
        <ele>1435.6</ele>
        <time>2021-08-03T10:45:10Z</time>
      </trkpt>
      <trkpt lat="45.53224" lon="6.77221">
        <ele>1435.6</ele>
        <time>2021-08-03T10:45:11Z</time>
      </trkpt>
      <trkpt lat="45.53224" lon="6.77221">
        <ele>1435.6</ele>
        <time>2021-08-03T10:45:12Z</time>
      </trkpt>
      <trkpt lat="45.53224" lon="6.77221">
        <ele>1435.6</ele>
        <time>2021-08-03T10:45:13Z</time>
      </trkpt>
      <trkpt lat="45.53224" lon="6.77221">
        <ele>1435.6</ele>
        <time>2021-08-03T10:45:14Z</time>
      </trkpt>
      <trkpt lat="45.53224" lon="6.77221">
        <ele>1435.6</ele>
        <time>2021-08-03T10:45:15Z</time>
      </trkpt>
      <trkpt lat="45.53224" lon="6.77221">
        <ele>1435.6</ele>
        <time>2021-08-03T10:45:16Z</time>
      </trkpt>
      <trkpt lat="45.53224" lon="6.77221">
        <ele>1435.6</ele>
        <time>2021-08-03T10:45:17Z</time>
      </trkpt>
      <trkpt lat="45.53224" lon="6.77221">
        <ele>1435.6</ele>
        <time>2021-08-03T10:45:18Z</time>
      </trkpt>
      <trkpt lat="45.53224" lon="6.77221">
        <ele>1435.6</ele>
        <time>2021-08-03T10:45:19Z</time>
      </trkpt>
      <trkpt lat="45.53224" lon="6.77221">
        <ele>1435.6</ele>
        <time>2021-08-03T10:45:20Z</time>
      </trkpt>
      <trkpt lat="45.53224" lon="6.77221">
        <ele>1435.6</ele>
        <time>2021-08-03T10:45:21Z</time>
      </trkpt>
      <trkpt lat="45.53224" lon="6.77221">
        <ele>1435.6</ele>
        <time>2021-08-03T10:45:22Z</time>
      </trkpt>
      <trkpt lat="45.53224" lon="6.77221">
        <ele>1435.6</ele>
        <time>2021-08-03T10:45:23Z</time>
      </trkpt>
      <trkpt lat="45.53224" lon="6.77221">
        <ele>1435.6</ele>
        <time>2021-08-03T10:45:24Z</time>
      </trkpt>
      <trkpt lat="45.53224" lon="6.77221">
        <ele>1435.6</ele>
        <time>2021-08-03T10:45:25Z</time>
      </trkpt>
      <trkpt lat="45.53224" lon="6.77221">
        <ele>1435.6</ele>
        <time>2021-08-03T10:45:26Z</time>
      </trkpt>
      <trkpt lat="45.53224" lon="6.77221">
        <ele>1435.6</ele>
        <time>2021-08-03T10:45:27Z</time>
      </trkpt>
      <trkpt lat="45.53224" lon="6.77221">
        <ele>1435.6</ele>
        <time>2021-08-03T10:45:28Z</time>
      </trkpt>
      <trkpt lat="45.53224" lon="6.77221">
        <ele>1435.6</ele>
        <time>2021-08-03T10:45:29Z</time>
      </trkpt>
      <trkpt lat="45.53224" lon="6.77221">
        <ele>1435.6</ele>
        <time>2021-08-03T10:45:30Z</time>
      </trkpt>
      <trkpt lat="45.53224" lon="6.77221">
        <ele>1435.6</ele>
        <time>2021-08-03T10:45:31Z</time>
      </trkpt>
      <trkpt lat="45.53224" lon="6.77221">
        <ele>1435.6</ele>
        <time>2021-08-03T10:45:32Z</time>
      </trkpt>
      <trkpt lat="45.53224" lon="6.77221">
        <ele>1435.6</ele>
        <time>2021-08-03T10:45:33Z</time>
      </trkpt>
      <trkpt lat="45.53224" lon="6.77221">
        <ele>1435.6</ele>
        <time>2021-08-03T10:45:34Z</time>
      </trkpt>
      <trkpt lat="45.53224" lon="6.77221">
        <ele>1435.6</ele>
        <time>2021-08-03T10:45:35Z</time>
      </trkpt>
      <trkpt lat="45.53224" lon="6.77221">
        <ele>1435.6</ele>
        <time>2021-08-03T10:45:36Z</time>
      </trkpt>
      <trkpt lat="45.53224" lon="6.77221">
        <ele>1435.6</ele>
        <time>2021-08-03T10:45:37Z</time>
      </trkpt>
      <trkpt lat="45.53224" lon="6.77221">
        <ele>1435.6</ele>
        <time>2021-08-03T10:45:38Z</time>
      </trkpt>
      <trkpt lat="45.53224" lon="6.77221">
        <ele>1435.6</ele>
        <time>2021-08-03T10:45:39Z</time>
      </trkpt>
      <trkpt lat="45.53224" lon="6.77221">
        <ele>1435.6</ele>
        <time>2021-08-03T10:45:40Z</time>
      </trkpt>
      <trkpt lat="45.53224" lon="6.77221">
        <ele>1435.6</ele>
        <time>2021-08-03T10:45:41Z</time>
      </trkpt>
      <trkpt lat="45.53224" lon="6.77221">
        <ele>1435.6</ele>
        <time>2021-08-03T10:45:42Z</time>
      </trkpt>
      <trkpt lat="45.53224" lon="6.77221">
        <ele>1435.6</ele>
        <time>2021-08-03T10:45:43Z</time>
      </trkpt>
      <trkpt lat="45.53224" lon="6.77221">
        <ele>1435.6</ele>
        <time>2021-08-03T10:45:44Z</time>
      </trkpt>
      <trkpt lat="45.53224" lon="6.77221">
        <ele>1435.6</ele>
        <time>2021-08-03T10:45:45Z</time>
      </trkpt>
      <trkpt lat="45.53224" lon="6.77221">
        <ele>1435.6</ele>
        <time>2021-08-03T10:45:46Z</time>
      </trkpt>
      <trkpt lat="45.53224" lon="6.77221">
        <ele>1435.6</ele>
        <time>2021-08-03T10:45:47Z</time>
      </trkpt>
      <trkpt lat="45.53224" lon="6.77221">
        <ele>1435.6</ele>
        <time>2021-08-03T10:45:48Z</time>
      </trkpt>
      <trkpt lat="45.53224" lon="6.77221">
        <ele>1435.6</ele>
        <time>2021-08-03T10:45:49Z</time>
      </trkpt>
      <trkpt lat="45.53224" lon="6.77221">
        <ele>1435.6</ele>
        <time>2021-08-03T10:45:50Z</time>
      </trkpt>
      <trkpt lat="45.53224" lon="6.77221">
        <ele>1435.6</ele>
        <time>2021-08-03T10:45:51Z</time>
      </trkpt>
      <trkpt lat="45.53224" lon="6.77221">
        <ele>1435.6</ele>
        <time>2021-08-03T10:45:52Z</time>
      </trkpt>
      <trkpt lat="45.53224" lon="6.77221">
        <ele>1435.6</ele>
        <time>2021-08-03T10:45:53Z</time>
      </trkpt>
      <trkpt lat="45.53224" lon="6.77221">
        <ele>1435.6</ele>
        <time>2021-08-03T10:45:54Z</time>
      </trkpt>
      <trkpt lat="45.53224" lon="6.77221">
        <ele>1435.6</ele>
        <time>2021-08-03T10:45:55Z</time>
      </trkpt>
      <trkpt lat="45.53224" lon="6.77221">
        <ele>1435.6</ele>
        <time>2021-08-03T10:45:56Z</time>
      </trkpt>
      <trkpt lat="45.53224" lon="6.77221">
        <ele>1435.6</ele>
        <time>2021-08-03T10:45:57Z</time>
      </trkpt>
      <trkpt lat="45.53224" lon="6.77221">
        <ele>1435.6</ele>
        <time>2021-08-03T10:45:58Z</time>
      </trkpt>
      <trkpt lat="45.53224" lon="6.77221">
        <ele>1435.6</ele>
        <time>2021-08-03T10:45:59Z</time>
      </trkpt>
      <trkpt lat="45.53224" lon="6.77221">
        <ele>1435.6</ele>
        <time>2021-08-03T10:46:00Z</time>
      </trkpt>
      <trkpt lat="45.53224" lon="6.77221">
        <ele>1435.6</ele>
        <time>2021-08-03T10:46:01Z</time>
      </trkpt>
      <trkpt lat="45.53224" lon="6.77221">
        <ele>1435.6</ele>
        <time>2021-08-03T10:46:02Z</time>
      </trkpt>
      <trkpt lat="45.53224" lon="6.77221">
        <ele>1435.6</ele>
        <time>2021-08-03T10:46:03Z</time>
      </trkpt>
      <trkpt lat="45.53224" lon="6.77221">
        <ele>1435.6</ele>
        <time>2021-08-03T10:46:04Z</time>
      </trkpt>
      <trkpt lat="45.53224" lon="6.77221">
        <ele>1435.6</ele>
        <time>2021-08-03T10:46:05Z</time>
      </trkpt>
      <trkpt lat="45.53224" lon="6.77221">
        <ele>1435.6</ele>
        <time>2021-08-03T10:46:06Z</time>
      </trkpt>
      <trkpt lat="45.53224" lon="6.77221">
        <ele>1435.6</ele>
        <time>2021-08-03T10:46:07Z</time>
      </trkpt>
      <trkpt lat="45.53224" lon="6.77221">
        <ele>1435.6</ele>
        <time>2021-08-03T10:46:08Z</time>
      </trkpt>
      <trkpt lat="45.53224" lon="6.77221">
        <ele>1435.6</ele>
        <time>2021-08-03T10:46:09Z</time>
      </trkpt>
      <trkpt lat="45.53224" lon="6.77221">
        <ele>1435.6</ele>
        <time>2021-08-03T10:46:10Z</time>
      </trkpt>
      <trkpt lat="45.53224" lon="6.77221">
        <ele>1435.6</ele>
        <time>2021-08-03T10:46:11Z</time>
      </trkpt>
      <trkpt lat="45.53224" lon="6.77221">
        <ele>1435.6</ele>
        <time>2021-08-03T10:46:12Z</time>
      </trkpt>
      <trkpt lat="45.53224" lon="6.77221">
        <ele>1435.6</ele>
        <time>2021-08-03T10:46:13Z</time>
      </trkpt>
      <trkpt lat="45.53224" lon="6.77221">
        <ele>1435.6</ele>
        <time>2021-08-03T10:46:14Z</time>
      </trkpt>
      <trkpt lat="45.53224" lon="6.77221">
        <ele>1435.6</ele>
        <time>2021-08-03T10:46:15Z</time>
      </trkpt>
      <trkpt lat="45.53224" lon="6.77221">
        <ele>1435.6</ele>
        <time>2021-08-03T10:46:16Z</time>
      </trkpt>
      <trkpt lat="45.53224" lon="6.77221">
        <ele>1435.6</ele>
        <time>2021-08-03T10:46:17Z</time>
      </trkpt>
      <trkpt lat="45.53224" lon="6.77221">
        <ele>1435.6</ele>
        <time>2021-08-03T10:46:18Z</time>
      </trkpt>
      <trkpt lat="45.53224" lon="6.77221">
        <ele>1435.6</ele>
        <time>2021-08-03T10:46:19Z</time>
      </trkpt>
      <trkpt lat="45.53224" lon="6.77221">
        <ele>1435.6</ele>
        <time>2021-08-03T10:46:20Z</time>
      </trkpt>
      <trkpt lat="45.53224" lon="6.77221">
        <ele>1435.6</ele>
        <time>2021-08-03T10:46:21Z</time>
      </trkpt>
      <trkpt lat="45.53224" lon="6.77221">
        <ele>1435.6</ele>
        <time>2021-08-03T10:46:22Z</time>
      </trkpt>
      <trkpt lat="45.53224" lon="6.77221">
        <ele>1435.6</ele>
        <time>2021-08-03T10:46:23Z</time>
      </trkpt>
      <trkpt lat="45.53224" lon="6.77221">
        <ele>1435.6</ele>
        <time>2021-08-03T10:46:24Z</time>
      </trkpt>
      <trkpt lat="45.53224" lon="6.77221">
        <ele>1435.6</ele>
        <time>2021-08-03T10:46:25Z</time>
      </trkpt>
      <trkpt lat="45.53224" lon="6.77221">
        <ele>1435.6</ele>
        <time>2021-08-03T10:46:26Z</time>
      </trkpt>
      <trkpt lat="45.53224" lon="6.77221">
        <ele>1435.6</ele>
        <time>2021-08-03T10:46:27Z</time>
      </trkpt>
      <trkpt lat="45.53224" lon="6.77221">
        <ele>1435.6</ele>
        <time>2021-08-03T10:46:28Z</time>
      </trkpt>
      <trkpt lat="45.53224" lon="6.77221">
        <ele>1435.6</ele>
        <time>2021-08-03T10:46:29Z</time>
      </trkpt>
      <trkpt lat="45.53224" lon="6.77221">
        <ele>1435.6</ele>
        <time>2021-08-03T10:46:30Z</time>
      </trkpt>
      <trkpt lat="45.53224" lon="6.77221">
        <ele>1435.6</ele>
        <time>2021-08-03T10:46:31Z</time>
      </trkpt>
      <trkpt lat="45.53224" lon="6.77221">
        <ele>1435.6</ele>
        <time>2021-08-03T10:46:32Z</time>
      </trkpt>
      <trkpt lat="45.53224" lon="6.77221">
        <ele>1435.6</ele>
        <time>2021-08-03T10:46:33Z</time>
      </trkpt>
      <trkpt lat="45.53224" lon="6.77221">
        <ele>1435.6</ele>
        <time>2021-08-03T10:46:34Z</time>
      </trkpt>
      <trkpt lat="45.53224" lon="6.77221">
        <ele>1435.6</ele>
        <time>2021-08-03T10:46:35Z</time>
      </trkpt>
      <trkpt lat="45.53224" lon="6.77221">
        <ele>1435.6</ele>
        <time>2021-08-03T10:46:36Z</time>
      </trkpt>
      <trkpt lat="45.53224" lon="6.77221">
        <ele>1435.6</ele>
        <time>2021-08-03T10:46:37Z</time>
      </trkpt>
      <trkpt lat="45.53224" lon="6.77221">
        <ele>1435.6</ele>
        <time>2021-08-03T10:46:38Z</time>
      </trkpt>
      <trkpt lat="45.53224" lon="6.77221">
        <ele>1435.6</ele>
        <time>2021-08-03T10:46:39Z</time>
      </trkpt>
      <trkpt lat="45.53224" lon="6.77221">
        <ele>1435.6</ele>
        <time>2021-08-03T10:46:40Z</time>
      </trkpt>
      <trkpt lat="45.53224" lon="6.77221">
        <ele>1435.6</ele>
        <time>2021-08-03T10:46:41Z</time>
      </trkpt>
      <trkpt lat="45.53224" lon="6.77221">
        <ele>1435.6</ele>
        <time>2021-08-03T10:46:42Z</time>
      </trkpt>
      <trkpt lat="45.53224" lon="6.77221">
        <ele>1435.6</ele>
        <time>2021-08-03T10:46:43Z</time>
      </trkpt>
      <trkpt lat="45.53224" lon="6.77221">
        <ele>1435.6</ele>
        <time>2021-08-03T10:46:44Z</time>
      </trkpt>
      <trkpt lat="45.53224" lon="6.77221">
        <ele>1435.6</ele>
        <time>2021-08-03T10:46:45Z</time>
      </trkpt>
      <trkpt lat="45.53224" lon="6.77221">
        <ele>1435.6</ele>
        <time>2021-08-03T10:46:46Z</time>
      </trkpt>
      <trkpt lat="45.53224" lon="6.77221">
        <ele>1435.6</ele>
        <time>2021-08-03T10:46:47Z</time>
      </trkpt>
      <trkpt lat="45.53224" lon="6.77221">
        <ele>1435.6</ele>
        <time>2021-08-03T10:46:48Z</time>
      </trkpt>
      <trkpt lat="45.53224" lon="6.77221">
        <ele>1435.6</ele>
        <time>2021-08-03T10:46:49Z</time>
      </trkpt>
      <trkpt lat="45.53224" lon="6.77221">
        <ele>1435.6</ele>
        <time>2021-08-03T10:46:50Z</time>
      </trkpt>
      <trkpt lat="45.53224" lon="6.77221">
        <ele>1435.6</ele>
        <time>2021-08-03T10:46:51Z</time>
      </trkpt>
      <trkpt lat="45.53224" lon="6.77221">
        <ele>1435.6</ele>
        <time>2021-08-03T10:46:52Z</time>
      </trkpt>
      <trkpt lat="45.53224" lon="6.77221">
        <ele>1435.6</ele>
        <time>2021-08-03T10:46:53Z</time>
      </trkpt>
      <trkpt lat="45.53224" lon="6.77221">
        <ele>1435.6</ele>
        <time>2021-08-03T10:46:54Z</time>
      </trkpt>
      <trkpt lat="45.53224" lon="6.77221">
        <ele>1435.6</ele>
        <time>2021-08-03T10:46:55Z</time>
      </trkpt>
      <trkpt lat="45.53224" lon="6.77221">
        <ele>1435.6</ele>
        <time>2021-08-03T10:46:56Z</time>
      </trkpt>
      <trkpt lat="45.53224" lon="6.77221">
        <ele>1435.6</ele>
        <time>2021-08-03T10:46:57Z</time>
      </trkpt>
      <trkpt lat="45.53224" lon="6.77221">
        <ele>1435.6</ele>
        <time>2021-08-03T10:46:58Z</time>
      </trkpt>
      <trkpt lat="45.53224" lon="6.77221">
        <ele>1435.6</ele>
        <time>2021-08-03T10:46:59Z</time>
      </trkpt>
      <trkpt lat="45.53224" lon="6.77221">
        <ele>1435.6</ele>
        <time>2021-08-03T10:47:00Z</time>
      </trkpt>
      <trkpt lat="45.53224" lon="6.77221">
        <ele>1435.6</ele>
        <time>2021-08-03T10:47:01Z</time>
      </trkpt>
      <trkpt lat="45.53224" lon="6.77221">
        <ele>1435.6</ele>
        <time>2021-08-03T10:47:02Z</time>
      </trkpt>
      <trkpt lat="45.53224" lon="6.77221">
        <ele>1435.6</ele>
        <time>2021-08-03T10:47:03Z</time>
      </trkpt>
      <trkpt lat="45.53224" lon="6.77221">
        <ele>1435.6</ele>
        <time>2021-08-03T10:47:04Z</time>
      </trkpt>
      <trkpt lat="45.53224" lon="6.77221">
        <ele>1435.6</ele>
        <time>2021-08-03T10:47:05Z</time>
      </trkpt>
      <trkpt lat="45.53224" lon="6.77221">
        <ele>1435.6</ele>
        <time>2021-08-03T10:47:06Z</time>
      </trkpt>
      <trkpt lat="45.53224" lon="6.77221">
        <ele>1435.6</ele>
        <time>2021-08-03T10:47:07Z</time>
      </trkpt>
      <trkpt lat="45.53224" lon="6.77221">
        <ele>1435.6</ele>
        <time>2021-08-03T10:47:08Z</time>
      </trkpt>
      <trkpt lat="45.53224" lon="6.77221">
        <ele>1435.6</ele>
        <time>2021-08-03T10:47:09Z</time>
      </trkpt>
      <trkpt lat="45.53224" lon="6.77221">
        <ele>1435.6</ele>
        <time>2021-08-03T10:47:10Z</time>
      </trkpt>
      <trkpt lat="45.53224" lon="6.77221">
        <ele>1435.6</ele>
        <time>2021-08-03T10:47:11Z</time>
      </trkpt>
      <trkpt lat="45.53224" lon="6.77221">
        <ele>1435.6</ele>
        <time>2021-08-03T10:47:12Z</time>
      </trkpt>
      <trkpt lat="45.53224" lon="6.77221">
        <ele>1435.6</ele>
        <time>2021-08-03T10:47:13Z</time>
      </trkpt>
      <trkpt lat="45.53224" lon="6.77221">
        <ele>1435.6</ele>
        <time>2021-08-03T10:47:14Z</time>
      </trkpt>
      <trkpt lat="45.53224" lon="6.77221">
        <ele>1435.6</ele>
        <time>2021-08-03T10:47:15Z</time>
      </trkpt>
      <trkpt lat="45.53224" lon="6.77221">
        <ele>1435.6</ele>
        <time>2021-08-03T10:47:16Z</time>
      </trkpt>
      <trkpt lat="45.53224" lon="6.77221">
        <ele>1435.6</ele>
        <time>2021-08-03T10:47:17Z</time>
      </trkpt>
      <trkpt lat="45.53224" lon="6.77221">
        <ele>1435.6</ele>
        <time>2021-08-03T10:47:18Z</time>
      </trkpt>
      <trkpt lat="45.53224" lon="6.77221">
        <ele>1435.6</ele>
        <time>2021-08-03T10:47:19Z</time>
      </trkpt>
      <trkpt lat="45.53224" lon="6.77221">
        <ele>1435.6</ele>
        <time>2021-08-03T10:47:20Z</time>
      </trkpt>
      <trkpt lat="45.53224" lon="6.77221">
        <ele>1435.6</ele>
        <time>2021-08-03T10:47:21Z</time>
      </trkpt>
      <trkpt lat="45.53224" lon="6.77221">
        <ele>1435.6</ele>
        <time>2021-08-03T10:47:22Z</time>
      </trkpt>
      <trkpt lat="45.53224" lon="6.77221">
        <ele>1435.6</ele>
        <time>2021-08-03T10:47:23Z</time>
      </trkpt>
      <trkpt lat="45.53224" lon="6.77221">
        <ele>1435.6</ele>
        <time>2021-08-03T10:47:24Z</time>
      </trkpt>
      <trkpt lat="45.53224" lon="6.77221">
        <ele>1435.6</ele>
        <time>2021-08-03T10:47:25Z</time>
      </trkpt>
      <trkpt lat="45.53224" lon="6.77221">
        <ele>1435.6</ele>
        <time>2021-08-03T10:47:26Z</time>
      </trkpt>
      <trkpt lat="45.53224" lon="6.77221">
        <ele>1435.6</ele>
        <time>2021-08-03T10:47:27Z</time>
      </trkpt>
      <trkpt lat="45.53224" lon="6.77221">
        <ele>1435.6</ele>
        <time>2021-08-03T10:47:28Z</time>
      </trkpt>
      <trkpt lat="45.53224" lon="6.77221">
        <ele>1435.6</ele>
        <time>2021-08-03T10:47:29Z</time>
      </trkpt>
      <trkpt lat="45.53224" lon="6.77221">
        <ele>1435.6</ele>
        <time>2021-08-03T10:47:30Z</time>
      </trkpt>
      <trkpt lat="45.53224" lon="6.77221">
        <ele>1435.6</ele>
        <time>2021-08-03T10:47:31Z</time>
      </trkpt>
      <trkpt lat="45.53224" lon="6.77221">
        <ele>1435.6</ele>
        <time>2021-08-03T10:47:32Z</time>
      </trkpt>
      <trkpt lat="45.53224" lon="6.77221">
        <ele>1435.6</ele>
        <time>2021-08-03T10:47:33Z</time>
      </trkpt>
      <trkpt lat="45.53224" lon="6.77221">
        <ele>1435.6</ele>
        <time>2021-08-03T10:47:34Z</time>
      </trkpt>
      <trkpt lat="45.53224" lon="6.77221">
        <ele>1435.6</ele>
        <time>2021-08-03T10:47:35Z</time>
      </trkpt>
      <trkpt lat="45.53224" lon="6.77221">
        <ele>1435.6</ele>
        <time>2021-08-03T10:47:36Z</time>
      </trkpt>
      <trkpt lat="45.53224" lon="6.77221">
        <ele>1435.6</ele>
        <time>2021-08-03T10:47:37Z</time>
      </trkpt>
      <trkpt lat="45.53224" lon="6.77221">
        <ele>1435.6</ele>
        <time>2021-08-03T10:47:38Z</time>
      </trkpt>
      <trkpt lat="45.53224" lon="6.77221">
        <ele>1435.6</ele>
        <time>2021-08-03T10:47:39Z</time>
      </trkpt>
      <trkpt lat="45.53224" lon="6.77221">
        <ele>1435.6</ele>
        <time>2021-08-03T10:47:40Z</time>
      </trkpt>
      <trkpt lat="45.53224" lon="6.77221">
        <ele>1435.6</ele>
        <time>2021-08-03T10:47:41Z</time>
      </trkpt>
      <trkpt lat="45.53224" lon="6.77221">
        <ele>1435.6</ele>
        <time>2021-08-03T10:47:42Z</time>
      </trkpt>
      <trkpt lat="45.53224" lon="6.77221">
        <ele>1435.6</ele>
        <time>2021-08-03T10:47:43Z</time>
      </trkpt>
      <trkpt lat="45.53224" lon="6.77221">
        <ele>1435.6</ele>
        <time>2021-08-03T10:47:44Z</time>
      </trkpt>
      <trkpt lat="45.53224" lon="6.77221">
        <ele>1435.6</ele>
        <time>2021-08-03T10:47:45Z</time>
      </trkpt>
      <trkpt lat="45.53224" lon="6.77221">
        <ele>1435.6</ele>
        <time>2021-08-03T10:47:46Z</time>
      </trkpt>
      <trkpt lat="45.53224" lon="6.77221">
        <ele>1435.6</ele>
        <time>2021-08-03T10:47:47Z</time>
      </trkpt>
      <trkpt lat="45.53224" lon="6.77221">
        <ele>1435.6</ele>
        <time>2021-08-03T10:47:48Z</time>
      </trkpt>
      <trkpt lat="45.53224" lon="6.77221">
        <ele>1435.6</ele>
        <time>2021-08-03T10:47:49Z</time>
      </trkpt>
      <trkpt lat="45.53224" lon="6.77221">
        <ele>1435.6</ele>
        <time>2021-08-03T10:47:50Z</time>
      </trkpt>
      <trkpt lat="45.53224" lon="6.77221">
        <ele>1435.6</ele>
        <time>2021-08-03T10:47:51Z</time>
      </trkpt>
      <trkpt lat="45.53224" lon="6.77221">
        <ele>1435.6</ele>
        <time>2021-08-03T10:47:52Z</time>
      </trkpt>
      <trkpt lat="45.53224" lon="6.77221">
        <ele>1435.6</ele>
        <time>2021-08-03T10:47:53Z</time>
      </trkpt>
      <trkpt lat="45.53224" lon="6.77221">
        <ele>1435.6</ele>
        <time>2021-08-03T10:47:54Z</time>
      </trkpt>
      <trkpt lat="45.53224" lon="6.77221">
        <ele>1435.6</ele>
        <time>2021-08-03T10:47:55Z</time>
      </trkpt>
      <trkpt lat="45.53224" lon="6.77221">
        <ele>1435.6</ele>
        <time>2021-08-03T10:47:56Z</time>
      </trkpt>
      <trkpt lat="45.53224" lon="6.77221">
        <ele>1435.6</ele>
        <time>2021-08-03T10:47:57Z</time>
      </trkpt>
      <trkpt lat="45.53224" lon="6.77221">
        <ele>1435.6</ele>
        <time>2021-08-03T10:47:58Z</time>
      </trkpt>
      <trkpt lat="45.53224" lon="6.77221">
        <ele>1435.6</ele>
        <time>2021-08-03T10:47:59Z</time>
      </trkpt>
      <trkpt lat="45.53224" lon="6.77221">
        <ele>1435.6</ele>
        <time>2021-08-03T10:48:00Z</time>
      </trkpt>
      <trkpt lat="45.53224" lon="6.77221">
        <ele>1435.6</ele>
        <time>2021-08-03T10:48:01Z</time>
      </trkpt>
      <trkpt lat="45.53224" lon="6.77221">
        <ele>1435.6</ele>
        <time>2021-08-03T10:48:02Z</time>
      </trkpt>
      <trkpt lat="45.53224" lon="6.77221">
        <ele>1435.6</ele>
        <time>2021-08-03T10:48:03Z</time>
      </trkpt>
      <trkpt lat="45.53224" lon="6.77221">
        <ele>1435.6</ele>
        <time>2021-08-03T10:48:04Z</time>
      </trkpt>
      <trkpt lat="45.53224" lon="6.77221">
        <ele>1435.6</ele>
        <time>2021-08-03T10:48:05Z</time>
      </trkpt>
      <trkpt lat="45.53224" lon="6.77221">
        <ele>1435.6</ele>
        <time>2021-08-03T10:48:06Z</time>
      </trkpt>
      <trkpt lat="45.53224" lon="6.77221">
        <ele>1435.6</ele>
        <time>2021-08-03T10:48:07Z</time>
      </trkpt>
      <trkpt lat="45.53224" lon="6.77221">
        <ele>1435.6</ele>
        <time>2021-08-03T10:48:08Z</time>
      </trkpt>
      <trkpt lat="45.53224" lon="6.77221">
        <ele>1435.6</ele>
        <time>2021-08-03T10:48:09Z</time>
      </trkpt>
      <trkpt lat="45.53224" lon="6.77221">
        <ele>1435.6</ele>
        <time>2021-08-03T10:48:10Z</time>
      </trkpt>
      <trkpt lat="45.53224" lon="6.77221">
        <ele>1435.6</ele>
        <time>2021-08-03T10:48:11Z</time>
      </trkpt>
      <trkpt lat="45.53224" lon="6.77221">
        <ele>1435.6</ele>
        <time>2021-08-03T10:48:12Z</time>
      </trkpt>
      <trkpt lat="45.53224" lon="6.77221">
        <ele>1435.6</ele>
        <time>2021-08-03T10:48:13Z</time>
      </trkpt>
      <trkpt lat="45.53224" lon="6.77221">
        <ele>1435.6</ele>
        <time>2021-08-03T10:48:14Z</time>
      </trkpt>
      <trkpt lat="45.53224" lon="6.77221">
        <ele>1435.6</ele>
        <time>2021-08-03T10:48:15Z</time>
      </trkpt>
      <trkpt lat="45.53224" lon="6.77221">
        <ele>1435.6</ele>
        <time>2021-08-03T10:48:16Z</time>
      </trkpt>
      <trkpt lat="45.53224" lon="6.77221">
        <ele>1435.6</ele>
        <time>2021-08-03T10:48:17Z</time>
      </trkpt>
      <trkpt lat="45.53224" lon="6.77221">
        <ele>1435.6</ele>
        <time>2021-08-03T10:48:18Z</time>
      </trkpt>
      <trkpt lat="45.53224" lon="6.77221">
        <ele>1435.6</ele>
        <time>2021-08-03T10:48:19Z</time>
      </trkpt>
      <trkpt lat="45.53224" lon="6.77221">
        <ele>1435.6</ele>
        <time>2021-08-03T10:48:20Z</time>
      </trkpt>
      <trkpt lat="45.53224" lon="6.77221">
        <ele>1435.6</ele>
        <time>2021-08-03T10:48:21Z</time>
      </trkpt>
      <trkpt lat="45.53224" lon="6.77221">
        <ele>1435.6</ele>
        <time>2021-08-03T10:48:22Z</time>
      </trkpt>
      <trkpt lat="45.53224" lon="6.77221">
        <ele>1435.6</ele>
        <time>2021-08-03T10:48:23Z</time>
      </trkpt>
      <trkpt lat="45.53224" lon="6.77221">
        <ele>1435.6</ele>
        <time>2021-08-03T10:48:24Z</time>
      </trkpt>
      <trkpt lat="45.53224" lon="6.77221">
        <ele>1435.6</ele>
        <time>2021-08-03T10:48:25Z</time>
      </trkpt>
      <trkpt lat="45.53224" lon="6.77221">
        <ele>1435.6</ele>
        <time>2021-08-03T10:48:26Z</time>
      </trkpt>
      <trkpt lat="45.53224" lon="6.77221">
        <ele>1435.6</ele>
        <time>2021-08-03T10:48:27Z</time>
      </trkpt>
      <trkpt lat="45.53224" lon="6.77221">
        <ele>1435.6</ele>
        <time>2021-08-03T10:48:28Z</time>
      </trkpt>
      <trkpt lat="45.53224" lon="6.77221">
        <ele>1435.6</ele>
        <time>2021-08-03T10:48:29Z</time>
      </trkpt>
      <trkpt lat="45.53224" lon="6.77221">
        <ele>1435.6</ele>
        <time>2021-08-03T10:48:30Z</time>
      </trkpt>
      <trkpt lat="45.53224" lon="6.77221">
        <ele>1435.6</ele>
        <time>2021-08-03T10:48:31Z</time>
      </trkpt>
      <trkpt lat="45.53224" lon="6.77221">
        <ele>1435.6</ele>
        <time>2021-08-03T10:48:32Z</time>
      </trkpt>
      <trkpt lat="45.53224" lon="6.77221">
        <ele>1435.6</ele>
        <time>2021-08-03T10:48:33Z</time>
      </trkpt>
      <trkpt lat="45.53224" lon="6.77221">
        <ele>1435.6</ele>
        <time>2021-08-03T10:48:34Z</time>
      </trkpt>
      <trkpt lat="45.53224" lon="6.77221">
        <ele>1435.6</ele>
        <time>2021-08-03T10:48:35Z</time>
      </trkpt>
      <trkpt lat="45.53224" lon="6.77221">
        <ele>1435.6</ele>
        <time>2021-08-03T10:48:36Z</time>
      </trkpt>
      <trkpt lat="45.53224" lon="6.77221">
        <ele>1435.6</ele>
        <time>2021-08-03T10:48:37Z</time>
      </trkpt>
      <trkpt lat="45.53224" lon="6.77221">
        <ele>1435.6</ele>
        <time>2021-08-03T10:48:38Z</time>
      </trkpt>
      <trkpt lat="45.53224" lon="6.77221">
        <ele>1435.6</ele>
        <time>2021-08-03T10:48:39Z</time>
      </trkpt>
      <trkpt lat="45.53224" lon="6.77221">
        <ele>1435.6</ele>
        <time>2021-08-03T10:48:40Z</time>
      </trkpt>
      <trkpt lat="45.53224" lon="6.77221">
        <ele>1435.6</ele>
        <time>2021-08-03T10:48:41Z</time>
      </trkpt>
      <trkpt lat="45.53224" lon="6.77221">
        <ele>1435.6</ele>
        <time>2021-08-03T10:48:42Z</time>
      </trkpt>
      <trkpt lat="45.53224" lon="6.77221">
        <ele>1435.6</ele>
        <time>2021-08-03T10:48:43Z</time>
      </trkpt>
      <trkpt lat="45.53224" lon="6.77221">
        <ele>1435.6</ele>
        <time>2021-08-03T10:48:44Z</time>
      </trkpt>
      <trkpt lat="45.53224" lon="6.77221">
        <ele>1435.6</ele>
        <time>2021-08-03T10:48:45Z</time>
      </trkpt>
      <trkpt lat="45.53224" lon="6.77221">
        <ele>1435.6</ele>
        <time>2021-08-03T10:48:46Z</time>
      </trkpt>
      <trkpt lat="45.53224" lon="6.77221">
        <ele>1435.6</ele>
        <time>2021-08-03T10:48:47Z</time>
      </trkpt>
      <trkpt lat="45.53224" lon="6.77221">
        <ele>1435.6</ele>
        <time>2021-08-03T10:48:48Z</time>
      </trkpt>
      <trkpt lat="45.53224" lon="6.77221">
        <ele>1435.6</ele>
        <time>2021-08-03T10:48:49Z</time>
      </trkpt>
      <trkpt lat="45.53224" lon="6.77221">
        <ele>1435.6</ele>
        <time>2021-08-03T10:48:50Z</time>
      </trkpt>
      <trkpt lat="45.53224" lon="6.77221">
        <ele>1435.6</ele>
        <time>2021-08-03T10:48:51Z</time>
      </trkpt>
      <trkpt lat="45.53224" lon="6.77221">
        <ele>1435.6</ele>
        <time>2021-08-03T10:48:52Z</time>
      </trkpt>
      <trkpt lat="45.53224" lon="6.77221">
        <ele>1435.6</ele>
        <time>2021-08-03T10:48:53Z</time>
      </trkpt>
      <trkpt lat="45.53224" lon="6.77221">
        <ele>1435.6</ele>
        <time>2021-08-03T10:48:54Z</time>
      </trkpt>
      <trkpt lat="45.53224" lon="6.77221">
        <ele>1435.6</ele>
        <time>2021-08-03T10:48:55Z</time>
      </trkpt>
      <trkpt lat="45.53224" lon="6.77221">
        <ele>1435.6</ele>
        <time>2021-08-03T10:48:56Z</time>
      </trkpt>
      <trkpt lat="45.53224" lon="6.77221">
        <ele>1435.6</ele>
        <time>2021-08-03T10:48:57Z</time>
      </trkpt>
      <trkpt lat="45.53224" lon="6.77221">
        <ele>1435.6</ele>
        <time>2021-08-03T10:48:58Z</time>
      </trkpt>
      <trkpt lat="45.53224" lon="6.77221">
        <ele>1435.6</ele>
        <time>2021-08-03T10:48:59Z</time>
      </trkpt>
      <trkpt lat="45.53224" lon="6.77221">
        <ele>1435.6</ele>
        <time>2021-08-03T10:49:00Z</time>
      </trkpt>
      <trkpt lat="45.53224" lon="6.77221">
        <ele>1435.6</ele>
        <time>2021-08-03T10:49:01Z</time>
      </trkpt>
      <trkpt lat="45.53224" lon="6.77221">
        <ele>1435.6</ele>
        <time>2021-08-03T10:49:02Z</time>
      </trkpt>
      <trkpt lat="45.53224" lon="6.77221">
        <ele>1435.6</ele>
        <time>2021-08-03T10:49:03Z</time>
      </trkpt>
      <trkpt lat="45.53224" lon="6.77221">
        <ele>1435.6</ele>
        <time>2021-08-03T10:49:04Z</time>
      </trkpt>
      <trkpt lat="45.53224" lon="6.77221">
        <ele>1435.6</ele>
        <time>2021-08-03T10:49:05Z</time>
      </trkpt>
      <trkpt lat="45.53224" lon="6.77221">
        <ele>1435.6</ele>
        <time>2021-08-03T10:49:06Z</time>
      </trkpt>
      <trkpt lat="45.53224" lon="6.77221">
        <ele>1435.6</ele>
        <time>2021-08-03T10:49:07Z</time>
      </trkpt>
      <trkpt lat="45.53224" lon="6.77221">
        <ele>1435.6</ele>
        <time>2021-08-03T10:49:08Z</time>
      </trkpt>
      <trkpt lat="45.53224" lon="6.77221">
        <ele>1435.6</ele>
        <time>2021-08-03T10:49:09Z</time>
      </trkpt>
      <trkpt lat="45.53224" lon="6.77221">
        <ele>1435.6</ele>
        <time>2021-08-03T10:49:10Z</time>
      </trkpt>
      <trkpt lat="45.53224" lon="6.77221">
        <ele>1435.6</ele>
        <time>2021-08-03T10:49:11Z</time>
      </trkpt>
      <trkpt lat="45.53224" lon="6.77221">
        <ele>1435.6</ele>
        <time>2021-08-03T10:49:12Z</time>
      </trkpt>
      <trkpt lat="45.53224" lon="6.77221">
        <ele>1435.6</ele>
        <time>2021-08-03T10:49:13Z</time>
      </trkpt>
      <trkpt lat="45.53224" lon="6.77221">
        <ele>1435.6</ele>
        <time>2021-08-03T10:49:14Z</time>
      </trkpt>
      <trkpt lat="45.53224" lon="6.77221">
        <ele>1435.6</ele>
        <time>2021-08-03T10:49:15Z</time>
      </trkpt>
      <trkpt lat="45.53224" lon="6.77221">
        <ele>1435.6</ele>
        <time>2021-08-03T10:49:16Z</time>
      </trkpt>
      <trkpt lat="45.53224" lon="6.77221">
        <ele>1435.6</ele>
        <time>2021-08-03T10:49:17Z</time>
      </trkpt>
      <trkpt lat="45.53224" lon="6.77221">
        <ele>1435.6</ele>
        <time>2021-08-03T10:49:18Z</time>
      </trkpt>
      <trkpt lat="45.53224" lon="6.77221">
        <ele>1435.6</ele>
        <time>2021-08-03T10:49:19Z</time>
      </trkpt>
      <trkpt lat="45.53224" lon="6.77221">
        <ele>1435.6</ele>
        <time>2021-08-03T10:49:20Z</time>
      </trkpt>
      <trkpt lat="45.53224" lon="6.77221">
        <ele>1435.6</ele>
        <time>2021-08-03T10:49:21Z</time>
      </trkpt>
      <trkpt lat="45.53224" lon="6.77221">
        <ele>1435.6</ele>
        <time>2021-08-03T10:49:22Z</time>
      </trkpt>
      <trkpt lat="45.53224" lon="6.77221">
        <ele>1435.6</ele>
        <time>2021-08-03T10:49:23Z</time>
      </trkpt>
      <trkpt lat="45.53224" lon="6.77221">
        <ele>1435.6</ele>
        <time>2021-08-03T10:49:24Z</time>
      </trkpt>
      <trkpt lat="45.53224" lon="6.77221">
        <ele>1435.6</ele>
        <time>2021-08-03T10:49:25Z</time>
      </trkpt>
      <trkpt lat="45.53224" lon="6.77221">
        <ele>1435.6</ele>
        <time>2021-08-03T10:49:26Z</time>
      </trkpt>
      <trkpt lat="45.53224" lon="6.77221">
        <ele>1435.6</ele>
        <time>2021-08-03T10:49:27Z</time>
      </trkpt>
      <trkpt lat="45.53224" lon="6.77221">
        <ele>1435.6</ele>
        <time>2021-08-03T10:49:28Z</time>
      </trkpt>
      <trkpt lat="45.53224" lon="6.77221">
        <ele>1435.6</ele>
        <time>2021-08-03T10:49:29Z</time>
      </trkpt>
      <trkpt lat="45.53224" lon="6.77221">
        <ele>1435.6</ele>
        <time>2021-08-03T10:49:30Z</time>
      </trkpt>
      <trkpt lat="45.53224" lon="6.77221">
        <ele>1435.6</ele>
        <time>2021-08-03T10:49:31Z</time>
      </trkpt>
      <trkpt lat="45.53224" lon="6.77221">
        <ele>1435.6</ele>
        <time>2021-08-03T10:49:32Z</time>
      </trkpt>
      <trkpt lat="45.53224" lon="6.77221">
        <ele>1435.6</ele>
        <time>2021-08-03T10:49:33Z</time>
      </trkpt>
      <trkpt lat="45.53224" lon="6.77221">
        <ele>1435.6</ele>
        <time>2021-08-03T10:49:34Z</time>
      </trkpt>
      <trkpt lat="45.53224" lon="6.77221">
        <ele>1435.6</ele>
        <time>2021-08-03T10:49:35Z</time>
      </trkpt>
      <trkpt lat="45.53224" lon="6.77221">
        <ele>1435.6</ele>
        <time>2021-08-03T10:49:36Z</time>
      </trkpt>
      <trkpt lat="45.53224" lon="6.77221">
        <ele>1435.6</ele>
        <time>2021-08-03T10:49:37Z</time>
      </trkpt>
      <trkpt lat="45.53224" lon="6.77221">
        <ele>1435.6</ele>
        <time>2021-08-03T10:49:38Z</time>
      </trkpt>
      <trkpt lat="45.53224" lon="6.77221">
        <ele>1435.6</ele>
        <time>2021-08-03T10:49:39Z</time>
      </trkpt>
      <trkpt lat="45.53224" lon="6.77221">
        <ele>1435.6</ele>
        <time>2021-08-03T10:49:40Z</time>
      </trkpt>
      <trkpt lat="45.53224" lon="6.77221">
        <ele>1435.6</ele>
        <time>2021-08-03T10:49:41Z</time>
      </trkpt>
      <trkpt lat="45.53224" lon="6.77221">
        <ele>1435.6</ele>
        <time>2021-08-03T10:49:42Z</time>
      </trkpt>
      <trkpt lat="45.53224" lon="6.77221">
        <ele>1435.6</ele>
        <time>2021-08-03T10:49:43Z</time>
      </trkpt>
      <trkpt lat="45.53224" lon="6.77221">
        <ele>1435.6</ele>
        <time>2021-08-03T10:49:44Z</time>
      </trkpt>
      <trkpt lat="45.53224" lon="6.77221">
        <ele>1435.6</ele>
        <time>2021-08-03T10:49:45Z</time>
      </trkpt>
      <trkpt lat="45.53224" lon="6.77221">
        <ele>1435.6</ele>
        <time>2021-08-03T10:49:46Z</time>
      </trkpt>
      <trkpt lat="45.53224" lon="6.77221">
        <ele>1435.6</ele>
        <time>2021-08-03T10:49:47Z</time>
      </trkpt>
      <trkpt lat="45.53224" lon="6.77221">
        <ele>1435.6</ele>
        <time>2021-08-03T10:49:48Z</time>
      </trkpt>
      <trkpt lat="45.53224" lon="6.77221">
        <ele>1435.6</ele>
        <time>2021-08-03T10:49:49Z</time>
      </trkpt>
      <trkpt lat="45.53224" lon="6.77221">
        <ele>1435.6</ele>
        <time>2021-08-03T10:49:50Z</time>
      </trkpt>
      <trkpt lat="45.53224" lon="6.77221">
        <ele>1435.6</ele>
        <time>2021-08-03T10:49:51Z</time>
      </trkpt>
      <trkpt lat="45.53224" lon="6.77221">
        <ele>1435.6</ele>
        <time>2021-08-03T10:49:52Z</time>
      </trkpt>
      <trkpt lat="45.53224" lon="6.77221">
        <ele>1435.6</ele>
        <time>2021-08-03T10:49:53Z</time>
      </trkpt>
      <trkpt lat="45.53224" lon="6.77221">
        <ele>1435.6</ele>
        <time>2021-08-03T10:49:54Z</time>
      </trkpt>
      <trkpt lat="45.53224" lon="6.77221">
        <ele>1435.6</ele>
        <time>2021-08-03T10:49:55Z</time>
      </trkpt>
      <trkpt lat="45.53224" lon="6.77221">
        <ele>1435.6</ele>
        <time>2021-08-03T10:49:56Z</time>
      </trkpt>
      <trkpt lat="45.53224" lon="6.77221">
        <ele>1435.6</ele>
        <time>2021-08-03T10:49:57Z</time>
      </trkpt>
      <trkpt lat="45.53224" lon="6.77221">
        <ele>1435.6</ele>
        <time>2021-08-03T10:49:58Z</time>
      </trkpt>
      <trkpt lat="45.53224" lon="6.77221">
        <ele>1435.6</ele>
        <time>2021-08-03T10:49:59Z</time>
      </trkpt>
      <trkpt lat="45.53224" lon="6.77221">
        <ele>1435.6</ele>
        <time>2021-08-03T10:50:00Z</time>
      </trkpt>
      <trkpt lat="45.53224" lon="6.77221">
        <ele>1435.6</ele>
        <time>2021-08-03T10:50:01Z</time>
      </trkpt>
      <trkpt lat="45.53224" lon="6.77221">
        <ele>1435.6</ele>
        <time>2021-08-03T10:50:02Z</time>
      </trkpt>
      <trkpt lat="45.53224" lon="6.77221">
        <ele>1435.6</ele>
        <time>2021-08-03T10:50:03Z</time>
      </trkpt>
      <trkpt lat="45.53224" lon="6.77221">
        <ele>1435.6</ele>
        <time>2021-08-03T10:50:04Z</time>
      </trkpt>
      <trkpt lat="45.53224" lon="6.77221">
        <ele>1435.6</ele>
        <time>2021-08-03T10:50:05Z</time>
      </trkpt>
      <trkpt lat="45.53224" lon="6.77221">
        <ele>1435.6</ele>
        <time>2021-08-03T10:50:06Z</time>
      </trkpt>
      <trkpt lat="45.53224" lon="6.77221">
        <ele>1435.6</ele>
        <time>2021-08-03T10:50:07Z</time>
      </trkpt>
      <trkpt lat="45.53224" lon="6.77221">
        <ele>1435.6</ele>
        <time>2021-08-03T10:50:08Z</time>
      </trkpt>
      <trkpt lat="45.53224" lon="6.77221">
        <ele>1435.6</ele>
        <time>2021-08-03T10:50:09Z</time>
      </trkpt>
      <trkpt lat="45.53224" lon="6.77221">
        <ele>1435.6</ele>
        <time>2021-08-03T10:50:10Z</time>
      </trkpt>
      <trkpt lat="45.53224" lon="6.77221">
        <ele>1435.6</ele>
        <time>2021-08-03T10:50:11Z</time>
      </trkpt>
      <trkpt lat="45.53224" lon="6.77221">
        <ele>1435.6</ele>
        <time>2021-08-03T10:50:12Z</time>
      </trkpt>
      <trkpt lat="45.53224" lon="6.77221">
        <ele>1435.6</ele>
        <time>2021-08-03T10:50:13Z</time>
      </trkpt>
      <trkpt lat="45.53224" lon="6.77221">
        <ele>1435.6</ele>
        <time>2021-08-03T10:50:14Z</time>
      </trkpt>
      <trkpt lat="45.53224" lon="6.77221">
        <ele>1435.6</ele>
        <time>2021-08-03T10:50:15Z</time>
      </trkpt>
      <trkpt lat="45.53224" lon="6.77221">
        <ele>1435.6</ele>
        <time>2021-08-03T10:50:16Z</time>
      </trkpt>
      <trkpt lat="45.53224" lon="6.77221">
        <ele>1435.6</ele>
        <time>2021-08-03T10:50:17Z</time>
      </trkpt>
      <trkpt lat="45.53224" lon="6.77221">
        <ele>1435.6</ele>
        <time>2021-08-03T10:50:18Z</time>
      </trkpt>
      <trkpt lat="45.53224" lon="6.77221">
        <ele>1435.6</ele>
        <time>2021-08-03T10:50:19Z</time>
      </trkpt>
      <trkpt lat="45.53224" lon="6.77221">
        <ele>1435.6</ele>
        <time>2021-08-03T10:50:20Z</time>
      </trkpt>
      <trkpt lat="45.53224" lon="6.77221">
        <ele>1435.6</ele>
        <time>2021-08-03T10:50:21Z</time>
      </trkpt>
      <trkpt lat="45.53224" lon="6.77221">
        <ele>1435.6</ele>
        <time>2021-08-03T10:50:22Z</time>
      </trkpt>
      <trkpt lat="45.53224" lon="6.77221">
        <ele>1435.6</ele>
        <time>2021-08-03T10:50:23Z</time>
      </trkpt>
      <trkpt lat="45.53224" lon="6.77221">
        <ele>1435.6</ele>
        <time>2021-08-03T10:50:24Z</time>
      </trkpt>
      <trkpt lat="45.53224" lon="6.77221">
        <ele>1435.6</ele>
        <time>2021-08-03T10:50:25Z</time>
      </trkpt>
      <trkpt lat="45.53224" lon="6.77221">
        <ele>1435.6</ele>
        <time>2021-08-03T10:50:26Z</time>
      </trkpt>
      <trkpt lat="45.53224" lon="6.77221">
        <ele>1435.6</ele>
        <time>2021-08-03T10:50:27Z</time>
      </trkpt>
      <trkpt lat="45.53224" lon="6.77221">
        <ele>1435.6</ele>
        <time>2021-08-03T10:50:28Z</time>
      </trkpt>
      <trkpt lat="45.53224" lon="6.77221">
        <ele>1435.6</ele>
        <time>2021-08-03T10:50:29Z</time>
      </trkpt>
      <trkpt lat="45.53224" lon="6.77221">
        <ele>1435.6</ele>
        <time>2021-08-03T10:50:30Z</time>
      </trkpt>
      <trkpt lat="45.53224" lon="6.77221">
        <ele>1435.6</ele>
        <time>2021-08-03T10:50:31Z</time>
      </trkpt>
      <trkpt lat="45.53224" lon="6.77221">
        <ele>1435.6</ele>
        <time>2021-08-03T10:50:32Z</time>
      </trkpt>
      <trkpt lat="45.53224" lon="6.77221">
        <ele>1435.6</ele>
        <time>2021-08-03T10:50:33Z</time>
      </trkpt>
      <trkpt lat="45.53224" lon="6.77221">
        <ele>1435.6</ele>
        <time>2021-08-03T10:50:34Z</time>
      </trkpt>
      <trkpt lat="45.53224" lon="6.77221">
        <ele>1435.6</ele>
        <time>2021-08-03T10:50:35Z</time>
      </trkpt>
      <trkpt lat="45.53224" lon="6.77221">
        <ele>1435.6</ele>
        <time>2021-08-03T10:50:36Z</time>
      </trkpt>
      <trkpt lat="45.53224" lon="6.77221">
        <ele>1435.6</ele>
        <time>2021-08-03T10:50:37Z</time>
      </trkpt>
      <trkpt lat="45.53224" lon="6.77221">
        <ele>1435.6</ele>
        <time>2021-08-03T10:50:38Z</time>
      </trkpt>
      <trkpt lat="45.53224" lon="6.77221">
        <ele>1435.6</ele>
        <time>2021-08-03T10:50:39Z</time>
      </trkpt>
      <trkpt lat="45.53224" lon="6.77221">
        <ele>1435.6</ele>
        <time>2021-08-03T10:50:40Z</time>
      </trkpt>
      <trkpt lat="45.53224" lon="6.77221">
        <ele>1435.6</ele>
        <time>2021-08-03T10:50:41Z</time>
      </trkpt>
      <trkpt lat="45.53224" lon="6.77221">
        <ele>1435.6</ele>
        <time>2021-08-03T10:50:42Z</time>
      </trkpt>
      <trkpt lat="45.53224" lon="6.77221">
        <ele>1435.6</ele>
        <time>2021-08-03T10:50:43Z</time>
      </trkpt>
      <trkpt lat="45.53224" lon="6.77221">
        <ele>1435.6</ele>
        <time>2021-08-03T10:50:44Z</time>
      </trkpt>
      <trkpt lat="45.53224" lon="6.77221">
        <ele>1435.6</ele>
        <time>2021-08-03T10:50:45Z</time>
      </trkpt>
      <trkpt lat="45.53224" lon="6.77221">
        <ele>1435.6</ele>
        <time>2021-08-03T10:50:46Z</time>
      </trkpt>
      <trkpt lat="45.53223" lon="6.77221">
        <ele>1435.6</ele>
        <time>2021-08-03T10:50:47Z</time>
      </trkpt>
      <trkpt lat="45.53222" lon="6.7722">
        <ele>1435.6</ele>
        <time>2021-08-03T10:50:48Z</time>
      </trkpt>
      <trkpt lat="45.5322" lon="6.77219">
        <ele>1435.6</ele>
        <time>2021-08-03T10:50:49Z</time>
      </trkpt>
      <trkpt lat="45.53219" lon="6.77218">
        <ele>1435.6</ele>
        <time>2021-08-03T10:50:50Z</time>
      </trkpt>
      <trkpt lat="45.53218" lon="6.77218">
        <ele>1435.6</ele>
        <time>2021-08-03T10:50:51Z</time>
      </trkpt>
      <trkpt lat="45.53218" lon="6.77217">
        <ele>1435.6</ele>
        <time>2021-08-03T10:50:52Z</time>
      </trkpt>
      <trkpt lat="45.53217" lon="6.77217">
        <ele>1435.6</ele>
        <time>2021-08-03T10:50:53Z</time>
      </trkpt>
      <trkpt lat="45.53217" lon="6.77217">
        <ele>1435.6</ele>
        <time>2021-08-03T10:50:54Z</time>
      </trkpt>
      <trkpt lat="45.53217" lon="6.77217">
        <ele>1435.6</ele>
        <time>2021-08-03T10:50:55Z</time>
      </trkpt>
      <trkpt lat="45.53217" lon="6.77217">
        <ele>1435.6</ele>
        <time>2021-08-03T10:50:56Z</time>
      </trkpt>
      <trkpt lat="45.53217" lon="6.77217">
        <ele>1435.6</ele>
        <time>2021-08-03T10:50:57Z</time>
      </trkpt>
      <trkpt lat="45.53217" lon="6.77217">
        <ele>1435.6</ele>
        <time>2021-08-03T10:50:58Z</time>
      </trkpt>
      <trkpt lat="45.53217" lon="6.77217">
        <ele>1435.6</ele>
        <time>2021-08-03T10:50:59Z</time>
      </trkpt>
      <trkpt lat="45.53217" lon="6.77217">
        <ele>1435.6</ele>
        <time>2021-08-03T10:51:00Z</time>
      </trkpt>
      <trkpt lat="45.53217" lon="6.77217">
        <ele>1435.6</ele>
        <time>2021-08-03T10:51:01Z</time>
      </trkpt>
      <trkpt lat="45.53217" lon="6.77217">
        <ele>1435.6</ele>
        <time>2021-08-03T10:51:02Z</time>
      </trkpt>
      <trkpt lat="45.53217" lon="6.77217">
        <ele>1435.6</ele>
        <time>2021-08-03T10:51:03Z</time>
      </trkpt>
      <trkpt lat="45.53217" lon="6.77217">
        <ele>1435.6</ele>
        <time>2021-08-03T10:51:04Z</time>
      </trkpt>
      <trkpt lat="45.53217" lon="6.77216">
        <ele>1435.6</ele>
        <time>2021-08-03T10:51:05Z</time>
      </trkpt>
      <trkpt lat="45.53217" lon="6.77216">
        <ele>1435.6</ele>
        <time>2021-08-03T10:51:06Z</time>
      </trkpt>
      <trkpt lat="45.53217" lon="6.77216">
        <ele>1435.6</ele>
        <time>2021-08-03T10:51:07Z</time>
      </trkpt>
      <trkpt lat="45.53217" lon="6.77216">
        <ele>1435.6</ele>
        <time>2021-08-03T10:51:08Z</time>
      </trkpt>
      <trkpt lat="45.53217" lon="6.77216">
        <ele>1435.6</ele>
        <time>2021-08-03T10:51:09Z</time>
      </trkpt>
      <trkpt lat="45.53217" lon="6.77216">
        <ele>1435.6</ele>
        <time>2021-08-03T10:51:10Z</time>
      </trkpt>
      <trkpt lat="45.53217" lon="6.77216">
        <ele>1435.6</ele>
        <time>2021-08-03T10:51:11Z</time>
      </trkpt>
      <trkpt lat="45.53217" lon="6.77216">
        <ele>1435.6</ele>
        <time>2021-08-03T10:51:12Z</time>
      </trkpt>
      <trkpt lat="45.53217" lon="6.77216">
        <ele>1435.6</ele>
        <time>2021-08-03T10:51:13Z</time>
      </trkpt>
      <trkpt lat="45.53217" lon="6.77217">
        <ele>1435.6</ele>
        <time>2021-08-03T10:51:14Z</time>
      </trkpt>
      <trkpt lat="45.53217" lon="6.77217">
        <ele>1435.6</ele>
        <time>2021-08-03T10:51:15Z</time>
      </trkpt>
      <trkpt lat="45.53217" lon="6.77217">
        <ele>1435.6</ele>
        <time>2021-08-03T10:51:16Z</time>
      </trkpt>
      <trkpt lat="45.53217" lon="6.77217">
        <ele>1435.6</ele>
        <time>2021-08-03T10:51:17Z</time>
      </trkpt>
      <trkpt lat="45.53217" lon="6.77217">
        <ele>1435.6</ele>
        <time>2021-08-03T10:51:18Z</time>
      </trkpt>
      <trkpt lat="45.53217" lon="6.77217">
        <ele>1435.6</ele>
        <time>2021-08-03T10:51:19Z</time>
      </trkpt>
      <trkpt lat="45.53217" lon="6.77217">
        <ele>1435.6</ele>
        <time>2021-08-03T10:51:20Z</time>
      </trkpt>
      <trkpt lat="45.53217" lon="6.77217">
        <ele>1435.6</ele>
        <time>2021-08-03T10:51:21Z</time>
      </trkpt>
      <trkpt lat="45.53217" lon="6.77217">
        <ele>1435.6</ele>
        <time>2021-08-03T10:51:22Z</time>
      </trkpt>
      <trkpt lat="45.53217" lon="6.77217">
        <ele>1435.6</ele>
        <time>2021-08-03T10:51:23Z</time>
      </trkpt>
      <trkpt lat="45.53217" lon="6.77217">
        <ele>1435.6</ele>
        <time>2021-08-03T10:51:24Z</time>
      </trkpt>
      <trkpt lat="45.53218" lon="6.77218">
        <ele>1435.6</ele>
        <time>2021-08-03T10:51:25Z</time>
      </trkpt>
      <trkpt lat="45.53218" lon="6.77218">
        <ele>1435.6</ele>
        <time>2021-08-03T10:51:26Z</time>
      </trkpt>
      <trkpt lat="45.53218" lon="6.77218">
        <ele>1435.6</ele>
        <time>2021-08-03T10:51:27Z</time>
      </trkpt>
      <trkpt lat="45.53218" lon="6.77218">
        <ele>1435.6</ele>
        <time>2021-08-03T10:51:28Z</time>
      </trkpt>
      <trkpt lat="45.53218" lon="6.77218">
        <ele>1435.6</ele>
        <time>2021-08-03T10:51:29Z</time>
      </trkpt>
      <trkpt lat="45.53218" lon="6.77218">
        <ele>1435.6</ele>
        <time>2021-08-03T10:51:30Z</time>
      </trkpt>
      <trkpt lat="45.53217" lon="6.77218">
        <ele>1435.6</ele>
        <time>2021-08-03T10:51:31Z</time>
      </trkpt>
      <trkpt lat="45.53217" lon="6.77218">
        <ele>1435.6</ele>
        <time>2021-08-03T10:51:32Z</time>
      </trkpt>
      <trkpt lat="45.53216" lon="6.77217">
        <ele>1435.6</ele>
        <time>2021-08-03T10:51:33Z</time>
      </trkpt>
      <trkpt lat="45.53215" lon="6.77216">
        <ele>1435.6</ele>
        <time>2021-08-03T10:51:34Z</time>
      </trkpt>
      <trkpt lat="45.53214" lon="6.77216">
        <ele>1435.6</ele>
        <time>2021-08-03T10:51:35Z</time>
      </trkpt>
      <trkpt lat="45.53213" lon="6.77215">
        <ele>1435.6</ele>
        <time>2021-08-03T10:51:36Z</time>
      </trkpt>
      <trkpt lat="45.53212" lon="6.77213">
        <ele>1435.6</ele>
        <time>2021-08-03T10:51:37Z</time>
      </trkpt>
      <trkpt lat="45.53211" lon="6.77212">
        <ele>1435.7</ele>
        <time>2021-08-03T10:51:38Z</time>
      </trkpt>
      <trkpt lat="45.53211" lon="6.7721">
        <ele>1435.7</ele>
        <time>2021-08-03T10:51:39Z</time>
      </trkpt>
      <trkpt lat="45.5321" lon="6.77209">
        <ele>1435.7</ele>
        <time>2021-08-03T10:51:40Z</time>
      </trkpt>
      <trkpt lat="45.53209" lon="6.77207">
        <ele>1435.7</ele>
        <time>2021-08-03T10:51:41Z</time>
      </trkpt>
      <trkpt lat="45.53208" lon="6.77206">
        <ele>1435.7</ele>
        <time>2021-08-03T10:51:42Z</time>
      </trkpt>
      <trkpt lat="45.53207" lon="6.77205">
        <ele>1435.7</ele>
        <time>2021-08-03T10:51:43Z</time>
      </trkpt>
      <trkpt lat="45.53206" lon="6.77203">
        <ele>1435.7</ele>
        <time>2021-08-03T10:51:44Z</time>
      </trkpt>
      <trkpt lat="45.53206" lon="6.77203">
        <ele>1435.7</ele>
        <time>2021-08-03T10:51:45Z</time>
      </trkpt>
      <trkpt lat="45.53205" lon="6.77202">
        <ele>1435.7</ele>
        <time>2021-08-03T10:51:46Z</time>
      </trkpt>
      <trkpt lat="45.53205" lon="6.77201">
        <ele>1435.7</ele>
        <time>2021-08-03T10:51:47Z</time>
      </trkpt>
      <trkpt lat="45.53204" lon="6.77201">
        <ele>1435.7</ele>
        <time>2021-08-03T10:51:48Z</time>
      </trkpt>
      <trkpt lat="45.53204" lon="6.77201">
        <ele>1435.7</ele>
        <time>2021-08-03T10:51:49Z</time>
      </trkpt>
      <trkpt lat="45.53204" lon="6.77201">
        <ele>1435.7</ele>
        <time>2021-08-03T10:51:50Z</time>
      </trkpt>
      <trkpt lat="45.53203" lon="6.77201">
        <ele>1435.7</ele>
        <time>2021-08-03T10:51:51Z</time>
      </trkpt>
      <trkpt lat="45.53203" lon="6.77201">
        <ele>1435.7</ele>
        <time>2021-08-03T10:51:52Z</time>
      </trkpt>
      <trkpt lat="45.53203" lon="6.77201">
        <ele>1435.7</ele>
        <time>2021-08-03T10:51:53Z</time>
      </trkpt>
      <trkpt lat="45.53203" lon="6.77201">
        <ele>1435.7</ele>
        <time>2021-08-03T10:51:54Z</time>
      </trkpt>
      <trkpt lat="45.53203" lon="6.77201">
        <ele>1435.7</ele>
        <time>2021-08-03T10:51:55Z</time>
      </trkpt>
      <trkpt lat="45.53203" lon="6.77201">
        <ele>1435.7</ele>
        <time>2021-08-03T10:51:56Z</time>
      </trkpt>
      <trkpt lat="45.53203" lon="6.77201">
        <ele>1435.7</ele>
        <time>2021-08-03T10:51:57Z</time>
      </trkpt>
      <trkpt lat="45.53203" lon="6.77201">
        <ele>1435.7</ele>
        <time>2021-08-03T10:51:58Z</time>
      </trkpt>
      <trkpt lat="45.53203" lon="6.77201">
        <ele>1435.7</ele>
        <time>2021-08-03T10:51:59Z</time>
      </trkpt>
      <trkpt lat="45.53203" lon="6.77201">
        <ele>1435.7</ele>
        <time>2021-08-03T10:52:00Z</time>
      </trkpt>
      <trkpt lat="45.53203" lon="6.77201">
        <ele>1435.7</ele>
        <time>2021-08-03T10:52:01Z</time>
      </trkpt>
      <trkpt lat="45.53203" lon="6.77201">
        <ele>1435.7</ele>
        <time>2021-08-03T10:52:02Z</time>
      </trkpt>
      <trkpt lat="45.53203" lon="6.77201">
        <ele>1435.7</ele>
        <time>2021-08-03T10:52:03Z</time>
      </trkpt>
      <trkpt lat="45.53203" lon="6.77201">
        <ele>1435.7</ele>
        <time>2021-08-03T10:52:04Z</time>
      </trkpt>
      <trkpt lat="45.53203" lon="6.77201">
        <ele>1435.7</ele>
        <time>2021-08-03T10:52:05Z</time>
      </trkpt>
      <trkpt lat="45.53203" lon="6.77201">
        <ele>1435.7</ele>
        <time>2021-08-03T10:52:06Z</time>
      </trkpt>
      <trkpt lat="45.53203" lon="6.77201">
        <ele>1435.7</ele>
        <time>2021-08-03T10:52:07Z</time>
      </trkpt>
      <trkpt lat="45.53203" lon="6.77201">
        <ele>1435.7</ele>
        <time>2021-08-03T10:52:08Z</time>
      </trkpt>
      <trkpt lat="45.53203" lon="6.77201">
        <ele>1435.7</ele>
        <time>2021-08-03T10:52:09Z</time>
      </trkpt>
      <trkpt lat="45.53203" lon="6.77201">
        <ele>1435.7</ele>
        <time>2021-08-03T10:52:10Z</time>
      </trkpt>
      <trkpt lat="45.53202" lon="6.772">
        <ele>1435.7</ele>
        <time>2021-08-03T10:52:11Z</time>
      </trkpt>
      <trkpt lat="45.53202" lon="6.77199">
        <ele>1435.7</ele>
        <time>2021-08-03T10:52:12Z</time>
      </trkpt>
      <trkpt lat="45.53202" lon="6.77198">
        <ele>1435.7</ele>
        <time>2021-08-03T10:52:13Z</time>
      </trkpt>
      <trkpt lat="45.53201" lon="6.77197">
        <ele>1435.7</ele>
        <time>2021-08-03T10:52:14Z</time>
      </trkpt>
      <trkpt lat="45.53201" lon="6.77195">
        <ele>1435.7</ele>
        <time>2021-08-03T10:52:15Z</time>
      </trkpt>
      <trkpt lat="45.53202" lon="6.77193">
        <ele>1435.7</ele>
        <time>2021-08-03T10:52:16Z</time>
      </trkpt>
      <trkpt lat="45.53202" lon="6.77192">
        <ele>1435.7</ele>
        <time>2021-08-03T10:52:17Z</time>
      </trkpt>
      <trkpt lat="45.53203" lon="6.7719">
        <ele>1435.8</ele>
        <time>2021-08-03T10:52:18Z</time>
      </trkpt>
      <trkpt lat="45.53205" lon="6.77188">
        <ele>1436</ele>
        <time>2021-08-03T10:52:19Z</time>
      </trkpt>
      <trkpt lat="45.53206" lon="6.77187">
        <ele>1436.3</ele>
        <time>2021-08-03T10:52:20Z</time>
      </trkpt>
      <trkpt lat="45.53206" lon="6.77185">
        <ele>1436.5</ele>
        <time>2021-08-03T10:52:21Z</time>
      </trkpt>
      <trkpt lat="45.53206" lon="6.77183">
        <ele>1436.7</ele>
        <time>2021-08-03T10:52:22Z</time>
      </trkpt>
      <trkpt lat="45.53206" lon="6.7718">
        <ele>1437</ele>
        <time>2021-08-03T10:52:23Z</time>
      </trkpt>
      <trkpt lat="45.53206" lon="6.77178">
        <ele>1437.2</ele>
        <time>2021-08-03T10:52:24Z</time>
      </trkpt>
      <trkpt lat="45.53206" lon="6.77176">
        <ele>1437.5</ele>
        <time>2021-08-03T10:52:25Z</time>
      </trkpt>
      <trkpt lat="45.53206" lon="6.77174">
        <ele>1437.7</ele>
        <time>2021-08-03T10:52:26Z</time>
      </trkpt>
      <trkpt lat="45.53206" lon="6.77172">
        <ele>1437.9</ele>
        <time>2021-08-03T10:52:27Z</time>
      </trkpt>
      <trkpt lat="45.53206" lon="6.77171">
        <ele>1438.1</ele>
        <time>2021-08-03T10:52:28Z</time>
      </trkpt>
      <trkpt lat="45.53206" lon="6.77169">
        <ele>1438.3</ele>
        <time>2021-08-03T10:52:29Z</time>
      </trkpt>
      <trkpt lat="45.53206" lon="6.77167">
        <ele>1438.5</ele>
        <time>2021-08-03T10:52:30Z</time>
      </trkpt>
      <trkpt lat="45.53206" lon="6.77165">
        <ele>1438.8</ele>
        <time>2021-08-03T10:52:31Z</time>
      </trkpt>
      <trkpt lat="45.53206" lon="6.77164">
        <ele>1439</ele>
        <time>2021-08-03T10:52:32Z</time>
      </trkpt>
      <trkpt lat="45.53206" lon="6.77162">
        <ele>1439.2</ele>
        <time>2021-08-03T10:52:33Z</time>
      </trkpt>
      <trkpt lat="45.53205" lon="6.7716">
        <ele>1439.4</ele>
        <time>2021-08-03T10:52:34Z</time>
      </trkpt>
      <trkpt lat="45.53205" lon="6.77159">
        <ele>1439.6</ele>
        <time>2021-08-03T10:52:35Z</time>
      </trkpt>
      <trkpt lat="45.53205" lon="6.77157">
        <ele>1439.8</ele>
        <time>2021-08-03T10:52:36Z</time>
      </trkpt>
      <trkpt lat="45.53205" lon="6.77155">
        <ele>1440</ele>
        <time>2021-08-03T10:52:37Z</time>
      </trkpt>
      <trkpt lat="45.53205" lon="6.77154">
        <ele>1440.2</ele>
        <time>2021-08-03T10:52:38Z</time>
      </trkpt>
      <trkpt lat="45.53205" lon="6.77152">
        <ele>1440.4</ele>
        <time>2021-08-03T10:52:39Z</time>
      </trkpt>
      <trkpt lat="45.53205" lon="6.7715">
        <ele>1440.6</ele>
        <time>2021-08-03T10:52:40Z</time>
      </trkpt>
      <trkpt lat="45.53204" lon="6.77148">
        <ele>1440.8</ele>
        <time>2021-08-03T10:52:41Z</time>
      </trkpt>
      <trkpt lat="45.53204" lon="6.77147">
        <ele>1441</ele>
        <time>2021-08-03T10:52:42Z</time>
      </trkpt>
      <trkpt lat="45.53204" lon="6.77145">
        <ele>1441.2</ele>
        <time>2021-08-03T10:52:43Z</time>
      </trkpt>
      <trkpt lat="45.53204" lon="6.77143">
        <ele>1441.7</ele>
        <time>2021-08-03T10:52:44Z</time>
      </trkpt>
      <trkpt lat="45.53204" lon="6.77141">
        <ele>1441.7</ele>
        <time>2021-08-03T10:52:45Z</time>
      </trkpt>
      <trkpt lat="45.53204" lon="6.77139">
        <ele>1441.8</ele>
        <time>2021-08-03T10:52:46Z</time>
      </trkpt>
      <trkpt lat="45.53204" lon="6.77137">
        <ele>1441.8</ele>
        <time>2021-08-03T10:52:47Z</time>
      </trkpt>
      <trkpt lat="45.53204" lon="6.77135">
        <ele>1441.9</ele>
        <time>2021-08-03T10:52:48Z</time>
      </trkpt>
      <trkpt lat="45.53205" lon="6.77133">
        <ele>1441.9</ele>
        <time>2021-08-03T10:52:49Z</time>
      </trkpt>
      <trkpt lat="45.53205" lon="6.77131">
        <ele>1442</ele>
        <time>2021-08-03T10:52:50Z</time>
      </trkpt>
      <trkpt lat="45.53205" lon="6.77129">
        <ele>1442</ele>
        <time>2021-08-03T10:52:51Z</time>
      </trkpt>
      <trkpt lat="45.53205" lon="6.77128">
        <ele>1442.1</ele>
        <time>2021-08-03T10:52:52Z</time>
      </trkpt>
      <trkpt lat="45.53205" lon="6.77126">
        <ele>1442.1</ele>
        <time>2021-08-03T10:52:53Z</time>
      </trkpt>
      <trkpt lat="45.53205" lon="6.77124">
        <ele>1442.2</ele>
        <time>2021-08-03T10:52:54Z</time>
      </trkpt>
      <trkpt lat="45.53206" lon="6.77122">
        <ele>1442.3</ele>
        <time>2021-08-03T10:52:55Z</time>
      </trkpt>
      <trkpt lat="45.53206" lon="6.7712">
        <ele>1442.3</ele>
        <time>2021-08-03T10:52:56Z</time>
      </trkpt>
      <trkpt lat="45.53206" lon="6.77118">
        <ele>1442.4</ele>
        <time>2021-08-03T10:52:57Z</time>
      </trkpt>
      <trkpt lat="45.53207" lon="6.77116">
        <ele>1442.5</ele>
        <time>2021-08-03T10:52:58Z</time>
      </trkpt>
      <trkpt lat="45.53207" lon="6.77114">
        <ele>1442.5</ele>
        <time>2021-08-03T10:52:59Z</time>
      </trkpt>
      <trkpt lat="45.53208" lon="6.77113">
        <ele>1442.6</ele>
        <time>2021-08-03T10:53:00Z</time>
      </trkpt>
      <trkpt lat="45.53208" lon="6.77111">
        <ele>1442.7</ele>
        <time>2021-08-03T10:53:01Z</time>
      </trkpt>
      <trkpt lat="45.53209" lon="6.77109">
        <ele>1442.8</ele>
        <time>2021-08-03T10:53:02Z</time>
      </trkpt>
      <trkpt lat="45.53209" lon="6.77108">
        <ele>1442.8</ele>
        <time>2021-08-03T10:53:03Z</time>
      </trkpt>
      <trkpt lat="45.5321" lon="6.77106">
        <ele>1442.9</ele>
        <time>2021-08-03T10:53:04Z</time>
      </trkpt>
      <trkpt lat="45.53211" lon="6.77104">
        <ele>1443</ele>
        <time>2021-08-03T10:53:05Z</time>
      </trkpt>
      <trkpt lat="45.53211" lon="6.77103">
        <ele>1443</ele>
        <time>2021-08-03T10:53:06Z</time>
      </trkpt>
      <trkpt lat="45.53212" lon="6.77102">
        <ele>1443.1</ele>
        <time>2021-08-03T10:53:07Z</time>
      </trkpt>
      <trkpt lat="45.53213" lon="6.771">
        <ele>1443.2</ele>
        <time>2021-08-03T10:53:08Z</time>
      </trkpt>
      <trkpt lat="45.53213" lon="6.77099">
        <ele>1443.3</ele>
        <time>2021-08-03T10:53:09Z</time>
      </trkpt>
      <trkpt lat="45.53214" lon="6.77097">
        <ele>1443.3</ele>
        <time>2021-08-03T10:53:10Z</time>
      </trkpt>
      <trkpt lat="45.53215" lon="6.77094">
        <ele>1443.5</ele>
        <time>2021-08-03T10:53:11Z</time>
      </trkpt>
      <trkpt lat="45.53215" lon="6.77093">
        <ele>1443.5</ele>
        <time>2021-08-03T10:53:12Z</time>
      </trkpt>
      <trkpt lat="45.53215" lon="6.77091">
        <ele>1443.6</ele>
        <time>2021-08-03T10:53:13Z</time>
      </trkpt>
      <trkpt lat="45.53215" lon="6.7709">
        <ele>1443.6</ele>
        <time>2021-08-03T10:53:14Z</time>
      </trkpt>
      <trkpt lat="45.53215" lon="6.77089">
        <ele>1443.7</ele>
        <time>2021-08-03T10:53:15Z</time>
      </trkpt>
      <trkpt lat="45.53215" lon="6.77087">
        <ele>1443.7</ele>
        <time>2021-08-03T10:53:16Z</time>
      </trkpt>
      <trkpt lat="45.53215" lon="6.77086">
        <ele>1443.8</ele>
        <time>2021-08-03T10:53:17Z</time>
      </trkpt>
      <trkpt lat="45.53215" lon="6.77084">
        <ele>1443.8</ele>
        <time>2021-08-03T10:53:18Z</time>
      </trkpt>
      <trkpt lat="45.53215" lon="6.77083">
        <ele>1443.9</ele>
        <time>2021-08-03T10:53:19Z</time>
      </trkpt>
      <trkpt lat="45.53216" lon="6.77081">
        <ele>1443.9</ele>
        <time>2021-08-03T10:53:20Z</time>
      </trkpt>
      <trkpt lat="45.53216" lon="6.7708">
        <ele>1444</ele>
        <time>2021-08-03T10:53:21Z</time>
      </trkpt>
      <trkpt lat="45.53216" lon="6.77079">
        <ele>1444</ele>
        <time>2021-08-03T10:53:22Z</time>
      </trkpt>
      <trkpt lat="45.53216" lon="6.77077">
        <ele>1444</ele>
        <time>2021-08-03T10:53:23Z</time>
      </trkpt>
      <trkpt lat="45.53216" lon="6.77076">
        <ele>1444.1</ele>
        <time>2021-08-03T10:53:24Z</time>
      </trkpt>
      <trkpt lat="45.53216" lon="6.77074">
        <ele>1444.1</ele>
        <time>2021-08-03T10:53:25Z</time>
      </trkpt>
      <trkpt lat="45.53216" lon="6.77073">
        <ele>1444.2</ele>
        <time>2021-08-03T10:53:26Z</time>
      </trkpt>
      <trkpt lat="45.53216" lon="6.77072">
        <ele>1444.1</ele>
        <time>2021-08-03T10:53:27Z</time>
      </trkpt>
      <trkpt lat="45.53216" lon="6.7707">
        <ele>1444.1</ele>
        <time>2021-08-03T10:53:28Z</time>
      </trkpt>
      <trkpt lat="45.53216" lon="6.77069">
        <ele>1444.1</ele>
        <time>2021-08-03T10:53:29Z</time>
      </trkpt>
      <trkpt lat="45.53216" lon="6.77067">
        <ele>1444.1</ele>
        <time>2021-08-03T10:53:30Z</time>
      </trkpt>
      <trkpt lat="45.53216" lon="6.77066">
        <ele>1444</ele>
        <time>2021-08-03T10:53:31Z</time>
      </trkpt>
      <trkpt lat="45.53216" lon="6.77065">
        <ele>1444</ele>
        <time>2021-08-03T10:53:32Z</time>
      </trkpt>
      <trkpt lat="45.53217" lon="6.77063">
        <ele>1444</ele>
        <time>2021-08-03T10:53:33Z</time>
      </trkpt>
      <trkpt lat="45.53217" lon="6.77062">
        <ele>1444</ele>
        <time>2021-08-03T10:53:34Z</time>
      </trkpt>
      <trkpt lat="45.53217" lon="6.7706">
        <ele>1443.9</ele>
        <time>2021-08-03T10:53:35Z</time>
      </trkpt>
      <trkpt lat="45.53217" lon="6.77059">
        <ele>1443.9</ele>
        <time>2021-08-03T10:53:36Z</time>
      </trkpt>
      <trkpt lat="45.53217" lon="6.77057">
        <ele>1443.9</ele>
        <time>2021-08-03T10:53:37Z</time>
      </trkpt>
      <trkpt lat="45.53217" lon="6.77056">
        <ele>1443.9</ele>
        <time>2021-08-03T10:53:38Z</time>
      </trkpt>
      <trkpt lat="45.53217" lon="6.77055">
        <ele>1443.8</ele>
        <time>2021-08-03T10:53:39Z</time>
      </trkpt>
      <trkpt lat="45.53217" lon="6.77053">
        <ele>1443.8</ele>
        <time>2021-08-03T10:53:40Z</time>
      </trkpt>
      <trkpt lat="45.53217" lon="6.77052">
        <ele>1443.8</ele>
        <time>2021-08-03T10:53:41Z</time>
      </trkpt>
      <trkpt lat="45.53217" lon="6.7705">
        <ele>1443.7</ele>
        <time>2021-08-03T10:53:42Z</time>
      </trkpt>
      <trkpt lat="45.53216" lon="6.77049">
        <ele>1443.7</ele>
        <time>2021-08-03T10:53:43Z</time>
      </trkpt>
      <trkpt lat="45.53215" lon="6.77048">
        <ele>1443.7</ele>
        <time>2021-08-03T10:53:44Z</time>
      </trkpt>
      <trkpt lat="45.53214" lon="6.77046">
        <ele>1443.6</ele>
        <time>2021-08-03T10:53:45Z</time>
      </trkpt>
      <trkpt lat="45.53213" lon="6.77045">
        <ele>1443.6</ele>
        <time>2021-08-03T10:53:46Z</time>
      </trkpt>
      <trkpt lat="45.53212" lon="6.77043">
        <ele>1443.5</ele>
        <time>2021-08-03T10:53:47Z</time>
      </trkpt>
      <trkpt lat="45.53211" lon="6.77042">
        <ele>1443.5</ele>
        <time>2021-08-03T10:53:48Z</time>
      </trkpt>
      <trkpt lat="45.5321" lon="6.7704">
        <ele>1443.4</ele>
        <time>2021-08-03T10:53:49Z</time>
      </trkpt>
      <trkpt lat="45.53209" lon="6.77038">
        <ele>1443.4</ele>
        <time>2021-08-03T10:53:50Z</time>
      </trkpt>
      <trkpt lat="45.53209" lon="6.77036">
        <ele>1443.3</ele>
        <time>2021-08-03T10:53:51Z</time>
      </trkpt>
      <trkpt lat="45.53208" lon="6.77034">
        <ele>1443.3</ele>
        <time>2021-08-03T10:53:52Z</time>
      </trkpt>
      <trkpt lat="45.53208" lon="6.77031">
        <ele>1443.3</ele>
        <time>2021-08-03T10:53:53Z</time>
      </trkpt>
      <trkpt lat="45.53208" lon="6.77029">
        <ele>1443.2</ele>
        <time>2021-08-03T10:53:54Z</time>
      </trkpt>
      <trkpt lat="45.53208" lon="6.77027">
        <ele>1443.2</ele>
        <time>2021-08-03T10:53:55Z</time>
      </trkpt>
      <trkpt lat="45.53208" lon="6.77025">
        <ele>1443.2</ele>
        <time>2021-08-03T10:53:56Z</time>
      </trkpt>
      <trkpt lat="45.53208" lon="6.77023">
        <ele>1443.1</ele>
        <time>2021-08-03T10:53:57Z</time>
      </trkpt>
      <trkpt lat="45.53208" lon="6.77021">
        <ele>1443.1</ele>
        <time>2021-08-03T10:53:58Z</time>
      </trkpt>
      <trkpt lat="45.53208" lon="6.77019">
        <ele>1443.1</ele>
        <time>2021-08-03T10:53:59Z</time>
      </trkpt>
      <trkpt lat="45.53208" lon="6.77017">
        <ele>1443.1</ele>
        <time>2021-08-03T10:54:00Z</time>
      </trkpt>
      <trkpt lat="45.53208" lon="6.77015">
        <ele>1443.1</ele>
        <time>2021-08-03T10:54:01Z</time>
      </trkpt>
      <trkpt lat="45.53209" lon="6.77013">
        <ele>1443</ele>
        <time>2021-08-03T10:54:02Z</time>
      </trkpt>
      <trkpt lat="45.53209" lon="6.77011">
        <ele>1443</ele>
        <time>2021-08-03T10:54:03Z</time>
      </trkpt>
      <trkpt lat="45.5321" lon="6.77009">
        <ele>1443</ele>
        <time>2021-08-03T10:54:04Z</time>
      </trkpt>
      <trkpt lat="45.5321" lon="6.77008">
        <ele>1443</ele>
        <time>2021-08-03T10:54:05Z</time>
      </trkpt>
      <trkpt lat="45.5321" lon="6.77007">
        <ele>1443</ele>
        <time>2021-08-03T10:54:06Z</time>
      </trkpt>
      <trkpt lat="45.53211" lon="6.77005">
        <ele>1443</ele>
        <time>2021-08-03T10:54:07Z</time>
      </trkpt>
      <trkpt lat="45.53212" lon="6.77004">
        <ele>1443</ele>
        <time>2021-08-03T10:54:08Z</time>
      </trkpt>
      <trkpt lat="45.53213" lon="6.77002">
        <ele>1443</ele>
        <time>2021-08-03T10:54:09Z</time>
      </trkpt>
      <trkpt lat="45.53213" lon="6.77001">
        <ele>1443</ele>
        <time>2021-08-03T10:54:10Z</time>
      </trkpt>
      <trkpt lat="45.53214" lon="6.77">
        <ele>1443</ele>
        <time>2021-08-03T10:54:11Z</time>
      </trkpt>
      <trkpt lat="45.53215" lon="6.76998">
        <ele>1443.1</ele>
        <time>2021-08-03T10:54:12Z</time>
      </trkpt>
      <trkpt lat="45.53216" lon="6.76997">
        <ele>1443.1</ele>
        <time>2021-08-03T10:54:13Z</time>
      </trkpt>
      <trkpt lat="45.53217" lon="6.76996">
        <ele>1443.1</ele>
        <time>2021-08-03T10:54:14Z</time>
      </trkpt>
      <trkpt lat="45.53218" lon="6.76994">
        <ele>1443.1</ele>
        <time>2021-08-03T10:54:15Z</time>
      </trkpt>
      <trkpt lat="45.53218" lon="6.76993">
        <ele>1443.1</ele>
        <time>2021-08-03T10:54:16Z</time>
      </trkpt>
      <trkpt lat="45.53219" lon="6.76991">
        <ele>1443.1</ele>
        <time>2021-08-03T10:54:17Z</time>
      </trkpt>
      <trkpt lat="45.5322" lon="6.7699">
        <ele>1443.1</ele>
        <time>2021-08-03T10:54:18Z</time>
      </trkpt>
      <trkpt lat="45.53221" lon="6.76989">
        <ele>1443.1</ele>
        <time>2021-08-03T10:54:19Z</time>
      </trkpt>
      <trkpt lat="45.53222" lon="6.76987">
        <ele>1443.1</ele>
        <time>2021-08-03T10:54:20Z</time>
      </trkpt>
      <trkpt lat="45.53222" lon="6.76986">
        <ele>1443.1</ele>
        <time>2021-08-03T10:54:21Z</time>
      </trkpt>
      <trkpt lat="45.53223" lon="6.76985">
        <ele>1443.1</ele>
        <time>2021-08-03T10:54:22Z</time>
      </trkpt>
      <trkpt lat="45.53224" lon="6.76983">
        <ele>1443.1</ele>
        <time>2021-08-03T10:54:23Z</time>
      </trkpt>
      <trkpt lat="45.53224" lon="6.76982">
        <ele>1443.1</ele>
        <time>2021-08-03T10:54:24Z</time>
      </trkpt>
      <trkpt lat="45.53225" lon="6.7698">
        <ele>1443</ele>
        <time>2021-08-03T10:54:25Z</time>
      </trkpt>
      <trkpt lat="45.53226" lon="6.76979">
        <ele>1443</ele>
        <time>2021-08-03T10:54:26Z</time>
      </trkpt>
      <trkpt lat="45.53226" lon="6.76977">
        <ele>1443</ele>
        <time>2021-08-03T10:54:27Z</time>
      </trkpt>
      <trkpt lat="45.53227" lon="6.76976">
        <ele>1443</ele>
        <time>2021-08-03T10:54:28Z</time>
      </trkpt>
      <trkpt lat="45.53227" lon="6.76974">
        <ele>1443</ele>
        <time>2021-08-03T10:54:29Z</time>
      </trkpt>
      <trkpt lat="45.53228" lon="6.76973">
        <ele>1443</ele>
        <time>2021-08-03T10:54:30Z</time>
      </trkpt>
      <trkpt lat="45.53228" lon="6.76971">
        <ele>1443</ele>
        <time>2021-08-03T10:54:31Z</time>
      </trkpt>
      <trkpt lat="45.53229" lon="6.76969">
        <ele>1443</ele>
        <time>2021-08-03T10:54:32Z</time>
      </trkpt>
      <trkpt lat="45.53229" lon="6.76968">
        <ele>1443</ele>
        <time>2021-08-03T10:54:33Z</time>
      </trkpt>
      <trkpt lat="45.5323" lon="6.76966">
        <ele>1443</ele>
        <time>2021-08-03T10:54:34Z</time>
      </trkpt>
      <trkpt lat="45.5323" lon="6.76964">
        <ele>1443</ele>
        <time>2021-08-03T10:54:35Z</time>
      </trkpt>
      <trkpt lat="45.53231" lon="6.76963">
        <ele>1443</ele>
        <time>2021-08-03T10:54:36Z</time>
      </trkpt>
      <trkpt lat="45.53231" lon="6.76961">
        <ele>1443</ele>
        <time>2021-08-03T10:54:37Z</time>
      </trkpt>
      <trkpt lat="45.53231" lon="6.76959">
        <ele>1442.9</ele>
        <time>2021-08-03T10:54:38Z</time>
      </trkpt>
      <trkpt lat="45.53231" lon="6.76958">
        <ele>1442.9</ele>
        <time>2021-08-03T10:54:39Z</time>
      </trkpt>
      <trkpt lat="45.53232" lon="6.76956">
        <ele>1442.9</ele>
        <time>2021-08-03T10:54:40Z</time>
      </trkpt>
      <trkpt lat="45.53232" lon="6.76955">
        <ele>1442.9</ele>
        <time>2021-08-03T10:54:41Z</time>
      </trkpt>
      <trkpt lat="45.53232" lon="6.76953">
        <ele>1442.9</ele>
        <time>2021-08-03T10:54:42Z</time>
      </trkpt>
      <trkpt lat="45.53232" lon="6.76951">
        <ele>1442.9</ele>
        <time>2021-08-03T10:54:43Z</time>
      </trkpt>
      <trkpt lat="45.53233" lon="6.7695">
        <ele>1442.9</ele>
        <time>2021-08-03T10:54:44Z</time>
      </trkpt>
      <trkpt lat="45.53233" lon="6.76948">
        <ele>1442.9</ele>
        <time>2021-08-03T10:54:45Z</time>
      </trkpt>
      <trkpt lat="45.53233" lon="6.76946">
        <ele>1442.9</ele>
        <time>2021-08-03T10:54:46Z</time>
      </trkpt>
      <trkpt lat="45.53233" lon="6.76945">
        <ele>1442.9</ele>
        <time>2021-08-03T10:54:47Z</time>
      </trkpt>
      <trkpt lat="45.53233" lon="6.76943">
        <ele>1442.8</ele>
        <time>2021-08-03T10:54:48Z</time>
      </trkpt>
      <trkpt lat="45.53233" lon="6.76942">
        <ele>1442.8</ele>
        <time>2021-08-03T10:54:49Z</time>
      </trkpt>
      <trkpt lat="45.53233" lon="6.7694">
        <ele>1442.8</ele>
        <time>2021-08-03T10:54:50Z</time>
      </trkpt>
      <trkpt lat="45.53234" lon="6.76938">
        <ele>1442.8</ele>
        <time>2021-08-03T10:54:51Z</time>
      </trkpt>
      <trkpt lat="45.53234" lon="6.76937">
        <ele>1442.8</ele>
        <time>2021-08-03T10:54:52Z</time>
      </trkpt>
      <trkpt lat="45.53234" lon="6.76935">
        <ele>1442.8</ele>
        <time>2021-08-03T10:54:53Z</time>
      </trkpt>
      <trkpt lat="45.53234" lon="6.76934">
        <ele>1442.8</ele>
        <time>2021-08-03T10:54:54Z</time>
      </trkpt>
      <trkpt lat="45.53234" lon="6.76932">
        <ele>1442.8</ele>
        <time>2021-08-03T10:54:55Z</time>
      </trkpt>
      <trkpt lat="45.53234" lon="6.7693">
        <ele>1442.8</ele>
        <time>2021-08-03T10:54:56Z</time>
      </trkpt>
      <trkpt lat="45.53235" lon="6.76929">
        <ele>1442.8</ele>
        <time>2021-08-03T10:54:57Z</time>
      </trkpt>
      <trkpt lat="45.53235" lon="6.76927">
        <ele>1442.7</ele>
        <time>2021-08-03T10:54:58Z</time>
      </trkpt>
      <trkpt lat="45.53235" lon="6.76926">
        <ele>1442.7</ele>
        <time>2021-08-03T10:54:59Z</time>
      </trkpt>
      <trkpt lat="45.53235" lon="6.76924">
        <ele>1442.7</ele>
        <time>2021-08-03T10:55:00Z</time>
      </trkpt>
      <trkpt lat="45.53236" lon="6.76922">
        <ele>1442.7</ele>
        <time>2021-08-03T10:55:01Z</time>
      </trkpt>
      <trkpt lat="45.53236" lon="6.7692">
        <ele>1442.7</ele>
        <time>2021-08-03T10:55:02Z</time>
      </trkpt>
      <trkpt lat="45.53236" lon="6.76919">
        <ele>1442.7</ele>
        <time>2021-08-03T10:55:03Z</time>
      </trkpt>
      <trkpt lat="45.53237" lon="6.76917">
        <ele>1442.7</ele>
        <time>2021-08-03T10:55:04Z</time>
      </trkpt>
      <trkpt lat="45.53237" lon="6.76915">
        <ele>1442.7</ele>
        <time>2021-08-03T10:55:05Z</time>
      </trkpt>
      <trkpt lat="45.53238" lon="6.76914">
        <ele>1442.7</ele>
        <time>2021-08-03T10:55:06Z</time>
      </trkpt>
      <trkpt lat="45.53238" lon="6.76912">
        <ele>1442.6</ele>
        <time>2021-08-03T10:55:07Z</time>
      </trkpt>
      <trkpt lat="45.53238" lon="6.7691">
        <ele>1442.6</ele>
        <time>2021-08-03T10:55:08Z</time>
      </trkpt>
      <trkpt lat="45.53239" lon="6.76908">
        <ele>1442.6</ele>
        <time>2021-08-03T10:55:09Z</time>
      </trkpt>
      <trkpt lat="45.53239" lon="6.76907">
        <ele>1442.6</ele>
        <time>2021-08-03T10:55:10Z</time>
      </trkpt>
      <trkpt lat="45.53239" lon="6.76905">
        <ele>1442.6</ele>
        <time>2021-08-03T10:55:11Z</time>
      </trkpt>
      <trkpt lat="45.53239" lon="6.76904">
        <ele>1442.6</ele>
        <time>2021-08-03T10:55:12Z</time>
      </trkpt>
      <trkpt lat="45.53239" lon="6.76902">
        <ele>1442.6</ele>
        <time>2021-08-03T10:55:13Z</time>
      </trkpt>
      <trkpt lat="45.5324" lon="6.769">
        <ele>1442.6</ele>
        <time>2021-08-03T10:55:14Z</time>
      </trkpt>
      <trkpt lat="45.5324" lon="6.76899">
        <ele>1442.6</ele>
        <time>2021-08-03T10:55:15Z</time>
      </trkpt>
      <trkpt lat="45.5324" lon="6.76897">
        <ele>1442.6</ele>
        <time>2021-08-03T10:55:16Z</time>
      </trkpt>
      <trkpt lat="45.5324" lon="6.76896">
        <ele>1442.6</ele>
        <time>2021-08-03T10:55:17Z</time>
      </trkpt>
      <trkpt lat="45.53241" lon="6.76894">
        <ele>1442.6</ele>
        <time>2021-08-03T10:55:18Z</time>
      </trkpt>
      <trkpt lat="45.53241" lon="6.76893">
        <ele>1442.6</ele>
        <time>2021-08-03T10:55:19Z</time>
      </trkpt>
      <trkpt lat="45.53242" lon="6.76891">
        <ele>1442.5</ele>
        <time>2021-08-03T10:55:20Z</time>
      </trkpt>
      <trkpt lat="45.53242" lon="6.76889">
        <ele>1442.5</ele>
        <time>2021-08-03T10:55:21Z</time>
      </trkpt>
      <trkpt lat="45.53243" lon="6.76888">
        <ele>1442.5</ele>
        <time>2021-08-03T10:55:22Z</time>
      </trkpt>
      <trkpt lat="45.53243" lon="6.76886">
        <ele>1442.5</ele>
        <time>2021-08-03T10:55:23Z</time>
      </trkpt>
      <trkpt lat="45.53244" lon="6.76885">
        <ele>1442.5</ele>
        <time>2021-08-03T10:55:24Z</time>
      </trkpt>
      <trkpt lat="45.53245" lon="6.76883">
        <ele>1442.5</ele>
        <time>2021-08-03T10:55:25Z</time>
      </trkpt>
      <trkpt lat="45.53245" lon="6.76881">
        <ele>1442.5</ele>
        <time>2021-08-03T10:55:26Z</time>
      </trkpt>
      <trkpt lat="45.53246" lon="6.7688">
        <ele>1442.5</ele>
        <time>2021-08-03T10:55:27Z</time>
      </trkpt>
      <trkpt lat="45.53246" lon="6.76878">
        <ele>1442.5</ele>
        <time>2021-08-03T10:55:28Z</time>
      </trkpt>
      <trkpt lat="45.53247" lon="6.76876">
        <ele>1442.5</ele>
        <time>2021-08-03T10:55:29Z</time>
      </trkpt>
      <trkpt lat="45.53248" lon="6.76875">
        <ele>1442.5</ele>
        <time>2021-08-03T10:55:30Z</time>
      </trkpt>
      <trkpt lat="45.53248" lon="6.76873">
        <ele>1442.5</ele>
        <time>2021-08-03T10:55:31Z</time>
      </trkpt>
      <trkpt lat="45.53249" lon="6.76872">
        <ele>1442.4</ele>
        <time>2021-08-03T10:55:32Z</time>
      </trkpt>
      <trkpt lat="45.53249" lon="6.7687">
        <ele>1442.4</ele>
        <time>2021-08-03T10:55:33Z</time>
      </trkpt>
      <trkpt lat="45.5325" lon="6.76868">
        <ele>1442.4</ele>
        <time>2021-08-03T10:55:34Z</time>
      </trkpt>
      <trkpt lat="45.5325" lon="6.76867">
        <ele>1442.4</ele>
        <time>2021-08-03T10:55:35Z</time>
      </trkpt>
      <trkpt lat="45.5325" lon="6.76865">
        <ele>1442.8</ele>
        <time>2021-08-03T10:55:36Z</time>
      </trkpt>
      <trkpt lat="45.53251" lon="6.76864">
        <ele>1443.3</ele>
        <time>2021-08-03T10:55:37Z</time>
      </trkpt>
      <trkpt lat="45.53251" lon="6.76862">
        <ele>1443.8</ele>
        <time>2021-08-03T10:55:38Z</time>
      </trkpt>
      <trkpt lat="45.53251" lon="6.7686">
        <ele>1444.2</ele>
        <time>2021-08-03T10:55:39Z</time>
      </trkpt>
      <trkpt lat="45.53251" lon="6.76859">
        <ele>1444.7</ele>
        <time>2021-08-03T10:55:40Z</time>
      </trkpt>
      <trkpt lat="45.53251" lon="6.76857">
        <ele>1445.2</ele>
        <time>2021-08-03T10:55:41Z</time>
      </trkpt>
      <trkpt lat="45.53252" lon="6.76855">
        <ele>1445.7</ele>
        <time>2021-08-03T10:55:42Z</time>
      </trkpt>
      <trkpt lat="45.53252" lon="6.76854">
        <ele>1446.2</ele>
        <time>2021-08-03T10:55:43Z</time>
      </trkpt>
      <trkpt lat="45.53252" lon="6.76852">
        <ele>1446.6</ele>
        <time>2021-08-03T10:55:44Z</time>
      </trkpt>
      <trkpt lat="45.53252" lon="6.76851">
        <ele>1447</ele>
        <time>2021-08-03T10:55:45Z</time>
      </trkpt>
      <trkpt lat="45.53252" lon="6.76849">
        <ele>1447.5</ele>
        <time>2021-08-03T10:55:46Z</time>
      </trkpt>
      <trkpt lat="45.53252" lon="6.76848">
        <ele>1447.9</ele>
        <time>2021-08-03T10:55:47Z</time>
      </trkpt>
      <trkpt lat="45.53252" lon="6.76846">
        <ele>1448.3</ele>
        <time>2021-08-03T10:55:48Z</time>
      </trkpt>
      <trkpt lat="45.53252" lon="6.76845">
        <ele>1448.7</ele>
        <time>2021-08-03T10:55:49Z</time>
      </trkpt>
      <trkpt lat="45.53252" lon="6.76844">
        <ele>1449</ele>
        <time>2021-08-03T10:55:50Z</time>
      </trkpt>
      <trkpt lat="45.53252" lon="6.76842">
        <ele>1449.4</ele>
        <time>2021-08-03T10:55:51Z</time>
      </trkpt>
      <trkpt lat="45.53252" lon="6.76841">
        <ele>1449.7</ele>
        <time>2021-08-03T10:55:52Z</time>
      </trkpt>
      <trkpt lat="45.53253" lon="6.7684">
        <ele>1450</ele>
        <time>2021-08-03T10:55:53Z</time>
      </trkpt>
      <trkpt lat="45.53252" lon="6.76839">
        <ele>1450.3</ele>
        <time>2021-08-03T10:55:54Z</time>
      </trkpt>
      <trkpt lat="45.53252" lon="6.76838">
        <ele>1450.6</ele>
        <time>2021-08-03T10:55:55Z</time>
      </trkpt>
      <trkpt lat="45.53252" lon="6.76837">
        <ele>1450.9</ele>
        <time>2021-08-03T10:55:56Z</time>
      </trkpt>
      <trkpt lat="45.53252" lon="6.76836">
        <ele>1451.2</ele>
        <time>2021-08-03T10:55:57Z</time>
      </trkpt>
      <trkpt lat="45.53251" lon="6.76835">
        <ele>1451.6</ele>
        <time>2021-08-03T10:55:58Z</time>
      </trkpt>
      <trkpt lat="45.53251" lon="6.76834">
        <ele>1451.9</ele>
        <time>2021-08-03T10:55:59Z</time>
      </trkpt>
      <trkpt lat="45.5325" lon="6.76833">
        <ele>1452.3</ele>
        <time>2021-08-03T10:56:00Z</time>
      </trkpt>
      <trkpt lat="45.53249" lon="6.76832">
        <ele>1452.7</ele>
        <time>2021-08-03T10:56:01Z</time>
      </trkpt>
      <trkpt lat="45.53249" lon="6.76831">
        <ele>1453.1</ele>
        <time>2021-08-03T10:56:02Z</time>
      </trkpt>
      <trkpt lat="45.53248" lon="6.7683">
        <ele>1453.5</ele>
        <time>2021-08-03T10:56:03Z</time>
      </trkpt>
      <trkpt lat="45.53247" lon="6.76829">
        <ele>1454</ele>
        <time>2021-08-03T10:56:04Z</time>
      </trkpt>
      <trkpt lat="45.53246" lon="6.76828">
        <ele>1454.4</ele>
        <time>2021-08-03T10:56:05Z</time>
      </trkpt>
      <trkpt lat="45.53245" lon="6.76826">
        <ele>1454.8</ele>
        <time>2021-08-03T10:56:06Z</time>
      </trkpt>
      <trkpt lat="45.53244" lon="6.76825">
        <ele>1455.3</ele>
        <time>2021-08-03T10:56:07Z</time>
      </trkpt>
      <trkpt lat="45.53244" lon="6.76824">
        <ele>1455.7</ele>
        <time>2021-08-03T10:56:08Z</time>
      </trkpt>
      <trkpt lat="45.53243" lon="6.76823">
        <ele>1456.2</ele>
        <time>2021-08-03T10:56:09Z</time>
      </trkpt>
      <trkpt lat="45.53242" lon="6.76821">
        <ele>1456.7</ele>
        <time>2021-08-03T10:56:10Z</time>
      </trkpt>
      <trkpt lat="45.53241" lon="6.7682">
        <ele>1457.1</ele>
        <time>2021-08-03T10:56:11Z</time>
      </trkpt>
      <trkpt lat="45.5324" lon="6.76819">
        <ele>1457.6</ele>
        <time>2021-08-03T10:56:12Z</time>
      </trkpt>
      <trkpt lat="45.5324" lon="6.76817">
        <ele>1458.1</ele>
        <time>2021-08-03T10:56:13Z</time>
      </trkpt>
      <trkpt lat="45.53239" lon="6.76816">
        <ele>1458.5</ele>
        <time>2021-08-03T10:56:14Z</time>
      </trkpt>
      <trkpt lat="45.53238" lon="6.76814">
        <ele>1459</ele>
        <time>2021-08-03T10:56:15Z</time>
      </trkpt>
      <trkpt lat="45.53238" lon="6.76813">
        <ele>1459.5</ele>
        <time>2021-08-03T10:56:16Z</time>
      </trkpt>
      <trkpt lat="45.53237" lon="6.76811">
        <ele>1459.9</ele>
        <time>2021-08-03T10:56:17Z</time>
      </trkpt>
      <trkpt lat="45.53236" lon="6.7681">
        <ele>1460.4</ele>
        <time>2021-08-03T10:56:18Z</time>
      </trkpt>
      <trkpt lat="45.53236" lon="6.76808">
        <ele>1460.9</ele>
        <time>2021-08-03T10:56:19Z</time>
      </trkpt>
      <trkpt lat="45.53235" lon="6.76806">
        <ele>1461.3</ele>
        <time>2021-08-03T10:56:20Z</time>
      </trkpt>
      <trkpt lat="45.53235" lon="6.76805">
        <ele>1461.8</ele>
        <time>2021-08-03T10:56:21Z</time>
      </trkpt>
      <trkpt lat="45.53234" lon="6.76803">
        <ele>1462.3</ele>
        <time>2021-08-03T10:56:22Z</time>
      </trkpt>
      <trkpt lat="45.53234" lon="6.76801">
        <ele>1462.8</ele>
        <time>2021-08-03T10:56:23Z</time>
      </trkpt>
      <trkpt lat="45.53234" lon="6.768">
        <ele>1463.2</ele>
        <time>2021-08-03T10:56:24Z</time>
      </trkpt>
      <trkpt lat="45.53233" lon="6.76798">
        <ele>1463.7</ele>
        <time>2021-08-03T10:56:25Z</time>
      </trkpt>
      <trkpt lat="45.53233" lon="6.76797">
        <ele>1464.2</ele>
        <time>2021-08-03T10:56:26Z</time>
      </trkpt>
      <trkpt lat="45.53232" lon="6.76795">
        <ele>1464.7</ele>
        <time>2021-08-03T10:56:27Z</time>
      </trkpt>
      <trkpt lat="45.53232" lon="6.76793">
        <ele>1465.2</ele>
        <time>2021-08-03T10:56:28Z</time>
      </trkpt>
      <trkpt lat="45.53231" lon="6.76792">
        <ele>1465.6</ele>
        <time>2021-08-03T10:56:29Z</time>
      </trkpt>
      <trkpt lat="45.53231" lon="6.7679">
        <ele>1466.1</ele>
        <time>2021-08-03T10:56:30Z</time>
      </trkpt>
      <trkpt lat="45.5323" lon="6.76789">
        <ele>1466.6</ele>
        <time>2021-08-03T10:56:31Z</time>
      </trkpt>
      <trkpt lat="45.5323" lon="6.76787">
        <ele>1467.1</ele>
        <time>2021-08-03T10:56:32Z</time>
      </trkpt>
      <trkpt lat="45.53229" lon="6.76786">
        <ele>1467.5</ele>
        <time>2021-08-03T10:56:33Z</time>
      </trkpt>
      <trkpt lat="45.53228" lon="6.76784">
        <ele>1468</ele>
        <time>2021-08-03T10:56:34Z</time>
      </trkpt>
      <trkpt lat="45.53227" lon="6.76782">
        <ele>1468.9</ele>
        <time>2021-08-03T10:56:35Z</time>
      </trkpt>
      <trkpt lat="45.53226" lon="6.7678">
        <ele>1469.4</ele>
        <time>2021-08-03T10:56:36Z</time>
      </trkpt>
      <trkpt lat="45.53225" lon="6.76779">
        <ele>1469.9</ele>
        <time>2021-08-03T10:56:37Z</time>
      </trkpt>
      <trkpt lat="45.53224" lon="6.76778">
        <ele>1470.4</ele>
        <time>2021-08-03T10:56:38Z</time>
      </trkpt>
      <trkpt lat="45.53223" lon="6.76776">
        <ele>1470.9</ele>
        <time>2021-08-03T10:56:39Z</time>
      </trkpt>
      <trkpt lat="45.53223" lon="6.76775">
        <ele>1471.3</ele>
        <time>2021-08-03T10:56:40Z</time>
      </trkpt>
      <trkpt lat="45.53222" lon="6.76774">
        <ele>1471.8</ele>
        <time>2021-08-03T10:56:41Z</time>
      </trkpt>
      <trkpt lat="45.53221" lon="6.76772">
        <ele>1472.3</ele>
        <time>2021-08-03T10:56:42Z</time>
      </trkpt>
      <trkpt lat="45.5322" lon="6.76771">
        <ele>1472.8</ele>
        <time>2021-08-03T10:56:43Z</time>
      </trkpt>
      <trkpt lat="45.53219" lon="6.7677">
        <ele>1473.3</ele>
        <time>2021-08-03T10:56:44Z</time>
      </trkpt>
      <trkpt lat="45.53218" lon="6.76768">
        <ele>1473.7</ele>
        <time>2021-08-03T10:56:45Z</time>
      </trkpt>
      <trkpt lat="45.53218" lon="6.76767">
        <ele>1474.2</ele>
        <time>2021-08-03T10:56:46Z</time>
      </trkpt>
      <trkpt lat="45.53217" lon="6.76766">
        <ele>1474.7</ele>
        <time>2021-08-03T10:56:47Z</time>
      </trkpt>
      <trkpt lat="45.53216" lon="6.76764">
        <ele>1475.2</ele>
        <time>2021-08-03T10:56:48Z</time>
      </trkpt>
      <trkpt lat="45.53215" lon="6.76763">
        <ele>1475.6</ele>
        <time>2021-08-03T10:56:49Z</time>
      </trkpt>
      <trkpt lat="45.53214" lon="6.76762">
        <ele>1476.1</ele>
        <time>2021-08-03T10:56:50Z</time>
      </trkpt>
      <trkpt lat="45.53213" lon="6.7676">
        <ele>1476.6</ele>
        <time>2021-08-03T10:56:51Z</time>
      </trkpt>
      <trkpt lat="45.53213" lon="6.76759">
        <ele>1477.1</ele>
        <time>2021-08-03T10:56:52Z</time>
      </trkpt>
      <trkpt lat="45.53212" lon="6.76758">
        <ele>1477.6</ele>
        <time>2021-08-03T10:56:53Z</time>
      </trkpt>
      <trkpt lat="45.53211" lon="6.76756">
        <ele>1478</ele>
        <time>2021-08-03T10:56:54Z</time>
      </trkpt>
      <trkpt lat="45.5321" lon="6.76755">
        <ele>1478.5</ele>
        <time>2021-08-03T10:56:55Z</time>
      </trkpt>
      <trkpt lat="45.53209" lon="6.76754">
        <ele>1479</ele>
        <time>2021-08-03T10:56:56Z</time>
      </trkpt>
      <trkpt lat="45.53208" lon="6.76751">
        <ele>1479.6</ele>
        <time>2021-08-03T10:56:57Z</time>
      </trkpt>
      <trkpt lat="45.53208" lon="6.7675">
        <ele>1480</ele>
        <time>2021-08-03T10:56:58Z</time>
      </trkpt>
      <trkpt lat="45.53207" lon="6.76749">
        <ele>1480.3</ele>
        <time>2021-08-03T10:56:59Z</time>
      </trkpt>
      <trkpt lat="45.53207" lon="6.76748">
        <ele>1480.6</ele>
        <time>2021-08-03T10:57:00Z</time>
      </trkpt>
      <trkpt lat="45.53206" lon="6.76747">
        <ele>1480.9</ele>
        <time>2021-08-03T10:57:01Z</time>
      </trkpt>
      <trkpt lat="45.53206" lon="6.76746">
        <ele>1481.2</ele>
        <time>2021-08-03T10:57:02Z</time>
      </trkpt>
      <trkpt lat="45.53206" lon="6.76745">
        <ele>1481.5</ele>
        <time>2021-08-03T10:57:03Z</time>
      </trkpt>
      <trkpt lat="45.53204" lon="6.76742">
        <ele>1482.6</ele>
        <time>2021-08-03T10:57:04Z</time>
      </trkpt>
      <trkpt lat="45.53203" lon="6.7674">
        <ele>1483.1</ele>
        <time>2021-08-03T10:57:05Z</time>
      </trkpt>
      <trkpt lat="45.53203" lon="6.76738">
        <ele>1483.7</ele>
        <time>2021-08-03T10:57:06Z</time>
      </trkpt>
      <trkpt lat="45.53202" lon="6.76737">
        <ele>1484.2</ele>
        <time>2021-08-03T10:57:07Z</time>
      </trkpt>
      <trkpt lat="45.53201" lon="6.76735">
        <ele>1484.7</ele>
        <time>2021-08-03T10:57:08Z</time>
      </trkpt>
      <trkpt lat="45.53201" lon="6.76733">
        <ele>1485.2</ele>
        <time>2021-08-03T10:57:09Z</time>
      </trkpt>
      <trkpt lat="45.532" lon="6.76731">
        <ele>1485.8</ele>
        <time>2021-08-03T10:57:10Z</time>
      </trkpt>
      <trkpt lat="45.532" lon="6.76729">
        <ele>1486.4</ele>
        <time>2021-08-03T10:57:11Z</time>
      </trkpt>
      <trkpt lat="45.53199" lon="6.76727">
        <ele>1486.9</ele>
        <time>2021-08-03T10:57:12Z</time>
      </trkpt>
      <trkpt lat="45.53199" lon="6.76725">
        <ele>1487.4</ele>
        <time>2021-08-03T10:57:13Z</time>
      </trkpt>
      <trkpt lat="45.53199" lon="6.76723">
        <ele>1487.9</ele>
        <time>2021-08-03T10:57:14Z</time>
      </trkpt>
      <trkpt lat="45.53199" lon="6.76721">
        <ele>1489.9</ele>
        <time>2021-08-03T10:57:15Z</time>
      </trkpt>
      <trkpt lat="45.532" lon="6.76719">
        <ele>1490</ele>
        <time>2021-08-03T10:57:16Z</time>
      </trkpt>
      <trkpt lat="45.532" lon="6.76718">
        <ele>1490.1</ele>
        <time>2021-08-03T10:57:17Z</time>
      </trkpt>
      <trkpt lat="45.532" lon="6.76716">
        <ele>1490.2</ele>
        <time>2021-08-03T10:57:18Z</time>
      </trkpt>
      <trkpt lat="45.53201" lon="6.76714">
        <ele>1490.3</ele>
        <time>2021-08-03T10:57:19Z</time>
      </trkpt>
      <trkpt lat="45.53202" lon="6.76712">
        <ele>1490.4</ele>
        <time>2021-08-03T10:57:20Z</time>
      </trkpt>
      <trkpt lat="45.53203" lon="6.76711">
        <ele>1490.4</ele>
        <time>2021-08-03T10:57:21Z</time>
      </trkpt>
      <trkpt lat="45.53203" lon="6.7671">
        <ele>1490.5</ele>
        <time>2021-08-03T10:57:22Z</time>
      </trkpt>
      <trkpt lat="45.53204" lon="6.76709">
        <ele>1490.5</ele>
        <time>2021-08-03T10:57:23Z</time>
      </trkpt>
      <trkpt lat="45.53205" lon="6.76708">
        <ele>1490.6</ele>
        <time>2021-08-03T10:57:24Z</time>
      </trkpt>
      <trkpt lat="45.53206" lon="6.76707">
        <ele>1490.6</ele>
        <time>2021-08-03T10:57:25Z</time>
      </trkpt>
      <trkpt lat="45.53208" lon="6.76706">
        <ele>1490.7</ele>
        <time>2021-08-03T10:57:26Z</time>
      </trkpt>
      <trkpt lat="45.53208" lon="6.76706">
        <ele>1490.8</ele>
        <time>2021-08-03T10:57:27Z</time>
      </trkpt>
      <trkpt lat="45.53209" lon="6.76705">
        <ele>1490.8</ele>
        <time>2021-08-03T10:57:28Z</time>
      </trkpt>
      <trkpt lat="45.5321" lon="6.76705">
        <ele>1490.9</ele>
        <time>2021-08-03T10:57:29Z</time>
      </trkpt>
      <trkpt lat="45.53211" lon="6.76704">
        <ele>1490.9</ele>
        <time>2021-08-03T10:57:30Z</time>
      </trkpt>
      <trkpt lat="45.53211" lon="6.76704">
        <ele>1490.9</ele>
        <time>2021-08-03T10:57:31Z</time>
      </trkpt>
      <trkpt lat="45.53212" lon="6.76704">
        <ele>1491</ele>
        <time>2021-08-03T10:57:32Z</time>
      </trkpt>
      <trkpt lat="45.53213" lon="6.76703">
        <ele>1491</ele>
        <time>2021-08-03T10:57:33Z</time>
      </trkpt>
      <trkpt lat="45.53213" lon="6.76703">
        <ele>1491.1</ele>
        <time>2021-08-03T10:57:34Z</time>
      </trkpt>
      <trkpt lat="45.53214" lon="6.76703">
        <ele>1491.1</ele>
        <time>2021-08-03T10:57:35Z</time>
      </trkpt>
      <trkpt lat="45.53215" lon="6.76702">
        <ele>1491.1</ele>
        <time>2021-08-03T10:57:36Z</time>
      </trkpt>
      <trkpt lat="45.53216" lon="6.76702">
        <ele>1491.2</ele>
        <time>2021-08-03T10:57:37Z</time>
      </trkpt>
      <trkpt lat="45.53216" lon="6.76702">
        <ele>1491.2</ele>
        <time>2021-08-03T10:57:38Z</time>
      </trkpt>
      <trkpt lat="45.53217" lon="6.76701">
        <ele>1491.3</ele>
        <time>2021-08-03T10:57:39Z</time>
      </trkpt>
      <trkpt lat="45.53218" lon="6.76701">
        <ele>1491.3</ele>
        <time>2021-08-03T10:57:40Z</time>
      </trkpt>
      <trkpt lat="45.53219" lon="6.76701">
        <ele>1491.3</ele>
        <time>2021-08-03T10:57:41Z</time>
      </trkpt>
      <trkpt lat="45.53219" lon="6.767">
        <ele>1491.4</ele>
        <time>2021-08-03T10:57:42Z</time>
      </trkpt>
      <trkpt lat="45.5322" lon="6.767">
        <ele>1491.4</ele>
        <time>2021-08-03T10:57:43Z</time>
      </trkpt>
      <trkpt lat="45.53221" lon="6.767">
        <ele>1491.5</ele>
        <time>2021-08-03T10:57:44Z</time>
      </trkpt>
      <trkpt lat="45.53221" lon="6.76699">
        <ele>1491.5</ele>
        <time>2021-08-03T10:57:45Z</time>
      </trkpt>
      <trkpt lat="45.53222" lon="6.76699">
        <ele>1491.5</ele>
        <time>2021-08-03T10:57:46Z</time>
      </trkpt>
      <trkpt lat="45.53223" lon="6.76698">
        <ele>1491.6</ele>
        <time>2021-08-03T10:57:47Z</time>
      </trkpt>
      <trkpt lat="45.53224" lon="6.76698">
        <ele>1491.6</ele>
        <time>2021-08-03T10:57:48Z</time>
      </trkpt>
      <trkpt lat="45.53224" lon="6.76698">
        <ele>1491.7</ele>
        <time>2021-08-03T10:57:49Z</time>
      </trkpt>
      <trkpt lat="45.53225" lon="6.76697">
        <ele>1491.7</ele>
        <time>2021-08-03T10:57:50Z</time>
      </trkpt>
      <trkpt lat="45.53226" lon="6.76697">
        <ele>1491.7</ele>
        <time>2021-08-03T10:57:51Z</time>
      </trkpt>
      <trkpt lat="45.53227" lon="6.76697">
        <ele>1491.8</ele>
        <time>2021-08-03T10:57:52Z</time>
      </trkpt>
      <trkpt lat="45.53227" lon="6.76696">
        <ele>1491.8</ele>
        <time>2021-08-03T10:57:53Z</time>
      </trkpt>
      <trkpt lat="45.53228" lon="6.76696">
        <ele>1491.9</ele>
        <time>2021-08-03T10:57:54Z</time>
      </trkpt>
      <trkpt lat="45.53229" lon="6.76696">
        <ele>1491.9</ele>
        <time>2021-08-03T10:57:55Z</time>
      </trkpt>
      <trkpt lat="45.53229" lon="6.76695">
        <ele>1492</ele>
        <time>2021-08-03T10:57:56Z</time>
      </trkpt>
      <trkpt lat="45.5323" lon="6.76695">
        <ele>1492</ele>
        <time>2021-08-03T10:57:57Z</time>
      </trkpt>
      <trkpt lat="45.53231" lon="6.76695">
        <ele>1492</ele>
        <time>2021-08-03T10:57:58Z</time>
      </trkpt>
      <trkpt lat="45.53232" lon="6.76694">
        <ele>1492.1</ele>
        <time>2021-08-03T10:57:59Z</time>
      </trkpt>
      <trkpt lat="45.53232" lon="6.76694">
        <ele>1492.1</ele>
        <time>2021-08-03T10:58:00Z</time>
      </trkpt>
      <trkpt lat="45.53233" lon="6.76693">
        <ele>1492.2</ele>
        <time>2021-08-03T10:58:01Z</time>
      </trkpt>
      <trkpt lat="45.53234" lon="6.76693">
        <ele>1492.2</ele>
        <time>2021-08-03T10:58:02Z</time>
      </trkpt>
      <trkpt lat="45.53234" lon="6.76693">
        <ele>1492.2</ele>
        <time>2021-08-03T10:58:03Z</time>
      </trkpt>
      <trkpt lat="45.53235" lon="6.76692">
        <ele>1492.3</ele>
        <time>2021-08-03T10:58:04Z</time>
      </trkpt>
      <trkpt lat="45.53236" lon="6.76692">
        <ele>1492.3</ele>
        <time>2021-08-03T10:58:05Z</time>
      </trkpt>
      <trkpt lat="45.53237" lon="6.76692">
        <ele>1492.4</ele>
        <time>2021-08-03T10:58:06Z</time>
      </trkpt>
      <trkpt lat="45.53237" lon="6.76691">
        <ele>1492.4</ele>
        <time>2021-08-03T10:58:07Z</time>
      </trkpt>
      <trkpt lat="45.53238" lon="6.76691">
        <ele>1492.5</ele>
        <time>2021-08-03T10:58:08Z</time>
      </trkpt>
      <trkpt lat="45.53239" lon="6.76691">
        <ele>1492.5</ele>
        <time>2021-08-03T10:58:09Z</time>
      </trkpt>
      <trkpt lat="45.5324" lon="6.7669">
        <ele>1492.5</ele>
        <time>2021-08-03T10:58:10Z</time>
      </trkpt>
      <trkpt lat="45.5324" lon="6.7669">
        <ele>1492.6</ele>
        <time>2021-08-03T10:58:11Z</time>
      </trkpt>
      <trkpt lat="45.53241" lon="6.7669">
        <ele>1492.6</ele>
        <time>2021-08-03T10:58:12Z</time>
      </trkpt>
      <trkpt lat="45.53242" lon="6.76689">
        <ele>1492.7</ele>
        <time>2021-08-03T10:58:13Z</time>
      </trkpt>
      <trkpt lat="45.53242" lon="6.76689">
        <ele>1492.7</ele>
        <time>2021-08-03T10:58:14Z</time>
      </trkpt>
      <trkpt lat="45.53243" lon="6.76688">
        <ele>1492.8</ele>
        <time>2021-08-03T10:58:15Z</time>
      </trkpt>
      <trkpt lat="45.53243" lon="6.76687">
        <ele>1492.8</ele>
        <time>2021-08-03T10:58:16Z</time>
      </trkpt>
      <trkpt lat="45.53243" lon="6.76687">
        <ele>1492.8</ele>
        <time>2021-08-03T10:58:17Z</time>
      </trkpt>
      <trkpt lat="45.53244" lon="6.76686">
        <ele>1492.8</ele>
        <time>2021-08-03T10:58:18Z</time>
      </trkpt>
      <trkpt lat="45.53244" lon="6.76685">
        <ele>1492.9</ele>
        <time>2021-08-03T10:58:19Z</time>
      </trkpt>
      <trkpt lat="45.53244" lon="6.76685">
        <ele>1492.9</ele>
        <time>2021-08-03T10:58:20Z</time>
      </trkpt>
      <trkpt lat="45.53244" lon="6.76685">
        <ele>1492.9</ele>
        <time>2021-08-03T10:58:21Z</time>
      </trkpt>
      <trkpt lat="45.53245" lon="6.76684">
        <ele>1492.9</ele>
        <time>2021-08-03T10:58:22Z</time>
      </trkpt>
      <trkpt lat="45.53245" lon="6.76684">
        <ele>1493</ele>
        <time>2021-08-03T10:58:23Z</time>
      </trkpt>
      <trkpt lat="45.53246" lon="6.76684">
        <ele>1493</ele>
        <time>2021-08-03T10:58:24Z</time>
      </trkpt>
      <trkpt lat="45.53246" lon="6.76684">
        <ele>1493</ele>
        <time>2021-08-03T10:58:25Z</time>
      </trkpt>
      <trkpt lat="45.53247" lon="6.76684">
        <ele>1493</ele>
        <time>2021-08-03T10:58:26Z</time>
      </trkpt>
      <trkpt lat="45.53247" lon="6.76684">
        <ele>1493.1</ele>
        <time>2021-08-03T10:58:27Z</time>
      </trkpt>
      <trkpt lat="45.53248" lon="6.76684">
        <ele>1493.1</ele>
        <time>2021-08-03T10:58:28Z</time>
      </trkpt>
      <trkpt lat="45.53249" lon="6.76683">
        <ele>1493.2</ele>
        <time>2021-08-03T10:58:29Z</time>
      </trkpt>
      <trkpt lat="45.5325" lon="6.76683">
        <ele>1493.2</ele>
        <time>2021-08-03T10:58:30Z</time>
      </trkpt>
      <trkpt lat="45.53251" lon="6.76683">
        <ele>1493.3</ele>
        <time>2021-08-03T10:58:31Z</time>
      </trkpt>
      <trkpt lat="45.53252" lon="6.76682">
        <ele>1493.3</ele>
        <time>2021-08-03T10:58:32Z</time>
      </trkpt>
      <trkpt lat="45.53253" lon="6.76682">
        <ele>1493.4</ele>
        <time>2021-08-03T10:58:33Z</time>
      </trkpt>
      <trkpt lat="45.53254" lon="6.76681">
        <ele>1493.5</ele>
        <time>2021-08-03T10:58:34Z</time>
      </trkpt>
      <trkpt lat="45.53255" lon="6.7668">
        <ele>1493.5</ele>
        <time>2021-08-03T10:58:35Z</time>
      </trkpt>
      <trkpt lat="45.53256" lon="6.76679">
        <ele>1493.6</ele>
        <time>2021-08-03T10:58:36Z</time>
      </trkpt>
      <trkpt lat="45.53256" lon="6.76678">
        <ele>1493.6</ele>
        <time>2021-08-03T10:58:37Z</time>
      </trkpt>
      <trkpt lat="45.53257" lon="6.76677">
        <ele>1493.7</ele>
        <time>2021-08-03T10:58:38Z</time>
      </trkpt>
      <trkpt lat="45.53258" lon="6.76676">
        <ele>1493.7</ele>
        <time>2021-08-03T10:58:39Z</time>
      </trkpt>
      <trkpt lat="45.53258" lon="6.76675">
        <ele>1493.8</ele>
        <time>2021-08-03T10:58:40Z</time>
      </trkpt>
      <trkpt lat="45.53259" lon="6.76674">
        <ele>1493.8</ele>
        <time>2021-08-03T10:58:41Z</time>
      </trkpt>
      <trkpt lat="45.53259" lon="6.76674">
        <ele>1493.8</ele>
        <time>2021-08-03T10:58:42Z</time>
      </trkpt>
      <trkpt lat="45.5326" lon="6.76673">
        <ele>1493.9</ele>
        <time>2021-08-03T10:58:43Z</time>
      </trkpt>
      <trkpt lat="45.53261" lon="6.76672">
        <ele>1493.9</ele>
        <time>2021-08-03T10:58:44Z</time>
      </trkpt>
      <trkpt lat="45.53262" lon="6.76672">
        <ele>1494</ele>
        <time>2021-08-03T10:58:45Z</time>
      </trkpt>
      <trkpt lat="45.53263" lon="6.76671">
        <ele>1494</ele>
        <time>2021-08-03T10:58:46Z</time>
      </trkpt>
      <trkpt lat="45.53264" lon="6.7667">
        <ele>1494.1</ele>
        <time>2021-08-03T10:58:47Z</time>
      </trkpt>
      <trkpt lat="45.53265" lon="6.76669">
        <ele>1494.1</ele>
        <time>2021-08-03T10:58:48Z</time>
      </trkpt>
      <trkpt lat="45.53266" lon="6.76667">
        <ele>1494.3</ele>
        <time>2021-08-03T10:58:49Z</time>
      </trkpt>
      <trkpt lat="45.53267" lon="6.76666">
        <ele>1494.3</ele>
        <time>2021-08-03T10:58:50Z</time>
      </trkpt>
      <trkpt lat="45.53268" lon="6.76665">
        <ele>1494.4</ele>
        <time>2021-08-03T10:58:51Z</time>
      </trkpt>
      <trkpt lat="45.53269" lon="6.76664">
        <ele>1494.4</ele>
        <time>2021-08-03T10:58:52Z</time>
      </trkpt>
      <trkpt lat="45.53269" lon="6.76663">
        <ele>1494.5</ele>
        <time>2021-08-03T10:58:53Z</time>
      </trkpt>
      <trkpt lat="45.5327" lon="6.76662">
        <ele>1494.5</ele>
        <time>2021-08-03T10:58:54Z</time>
      </trkpt>
      <trkpt lat="45.53271" lon="6.76661">
        <ele>1494.6</ele>
        <time>2021-08-03T10:58:55Z</time>
      </trkpt>
      <trkpt lat="45.53272" lon="6.76657">
        <ele>1494.7</ele>
        <time>2021-08-03T10:58:56Z</time>
      </trkpt>
      <trkpt lat="45.53272" lon="6.76656">
        <ele>1494.7</ele>
        <time>2021-08-03T10:58:57Z</time>
      </trkpt>
      <trkpt lat="45.53272" lon="6.76654">
        <ele>1494.8</ele>
        <time>2021-08-03T10:58:58Z</time>
      </trkpt>
      <trkpt lat="45.53273" lon="6.76652">
        <ele>1494.9</ele>
        <time>2021-08-03T10:58:59Z</time>
      </trkpt>
      <trkpt lat="45.53273" lon="6.7665">
        <ele>1494.9</ele>
        <time>2021-08-03T10:59:00Z</time>
      </trkpt>
      <trkpt lat="45.53273" lon="6.76649">
        <ele>1495</ele>
        <time>2021-08-03T10:59:01Z</time>
      </trkpt>
      <trkpt lat="45.53274" lon="6.76647">
        <ele>1495</ele>
        <time>2021-08-03T10:59:02Z</time>
      </trkpt>
      <trkpt lat="45.53274" lon="6.76645">
        <ele>1495.1</ele>
        <time>2021-08-03T10:59:03Z</time>
      </trkpt>
      <trkpt lat="45.53274" lon="6.76643">
        <ele>1495.1</ele>
        <time>2021-08-03T10:59:04Z</time>
      </trkpt>
      <trkpt lat="45.53274" lon="6.76641">
        <ele>1495.2</ele>
        <time>2021-08-03T10:59:05Z</time>
      </trkpt>
      <trkpt lat="45.53275" lon="6.7664">
        <ele>1495.2</ele>
        <time>2021-08-03T10:59:06Z</time>
      </trkpt>
      <trkpt lat="45.53275" lon="6.76638">
        <ele>1495.3</ele>
        <time>2021-08-03T10:59:07Z</time>
      </trkpt>
      <trkpt lat="45.53275" lon="6.76636">
        <ele>1495.3</ele>
        <time>2021-08-03T10:59:08Z</time>
      </trkpt>
      <trkpt lat="45.53276" lon="6.76634">
        <ele>1495.4</ele>
        <time>2021-08-03T10:59:09Z</time>
      </trkpt>
      <trkpt lat="45.53276" lon="6.76632">
        <ele>1495.4</ele>
        <time>2021-08-03T10:59:10Z</time>
      </trkpt>
      <trkpt lat="45.53276" lon="6.76631">
        <ele>1495.5</ele>
        <time>2021-08-03T10:59:11Z</time>
      </trkpt>
      <trkpt lat="45.53276" lon="6.76629">
        <ele>1495.5</ele>
        <time>2021-08-03T10:59:12Z</time>
      </trkpt>
      <trkpt lat="45.53277" lon="6.76627">
        <ele>1495.6</ele>
        <time>2021-08-03T10:59:13Z</time>
      </trkpt>
      <trkpt lat="45.53277" lon="6.76625">
        <ele>1495.6</ele>
        <time>2021-08-03T10:59:14Z</time>
      </trkpt>
      <trkpt lat="45.53277" lon="6.76623">
        <ele>1495.7</ele>
        <time>2021-08-03T10:59:15Z</time>
      </trkpt>
      <trkpt lat="45.53278" lon="6.76622">
        <ele>1495.7</ele>
        <time>2021-08-03T10:59:16Z</time>
      </trkpt>
      <trkpt lat="45.53278" lon="6.7662">
        <ele>1495.8</ele>
        <time>2021-08-03T10:59:17Z</time>
      </trkpt>
      <trkpt lat="45.53278" lon="6.76618">
        <ele>1495.8</ele>
        <time>2021-08-03T10:59:18Z</time>
      </trkpt>
      <trkpt lat="45.53279" lon="6.76616">
        <ele>1495.8</ele>
        <time>2021-08-03T10:59:19Z</time>
      </trkpt>
      <trkpt lat="45.53279" lon="6.76615">
        <ele>1495.9</ele>
        <time>2021-08-03T10:59:20Z</time>
      </trkpt>
      <trkpt lat="45.53279" lon="6.76613">
        <ele>1495.9</ele>
        <time>2021-08-03T10:59:21Z</time>
      </trkpt>
      <trkpt lat="45.53279" lon="6.76611">
        <ele>1496</ele>
        <time>2021-08-03T10:59:22Z</time>
      </trkpt>
      <trkpt lat="45.5328" lon="6.76609">
        <ele>1496</ele>
        <time>2021-08-03T10:59:23Z</time>
      </trkpt>
      <trkpt lat="45.5328" lon="6.76607">
        <ele>1496.1</ele>
        <time>2021-08-03T10:59:24Z</time>
      </trkpt>
      <trkpt lat="45.5328" lon="6.76606">
        <ele>1496.1</ele>
        <time>2021-08-03T10:59:25Z</time>
      </trkpt>
      <trkpt lat="45.53281" lon="6.76604">
        <ele>1496.1</ele>
        <time>2021-08-03T10:59:26Z</time>
      </trkpt>
      <trkpt lat="45.53281" lon="6.76602">
        <ele>1496.2</ele>
        <time>2021-08-03T10:59:27Z</time>
      </trkpt>
      <trkpt lat="45.53281" lon="6.766">
        <ele>1496.2</ele>
        <time>2021-08-03T10:59:28Z</time>
      </trkpt>
      <trkpt lat="45.53281" lon="6.76598">
        <ele>1496.3</ele>
        <time>2021-08-03T10:59:29Z</time>
      </trkpt>
      <trkpt lat="45.53282" lon="6.76597">
        <ele>1496.3</ele>
        <time>2021-08-03T10:59:30Z</time>
      </trkpt>
      <trkpt lat="45.53282" lon="6.76595">
        <ele>1496.4</ele>
        <time>2021-08-03T10:59:31Z</time>
      </trkpt>
      <trkpt lat="45.53282" lon="6.76593">
        <ele>1496.4</ele>
        <time>2021-08-03T10:59:32Z</time>
      </trkpt>
      <trkpt lat="45.53283" lon="6.76591">
        <ele>1496.5</ele>
        <time>2021-08-03T10:59:33Z</time>
      </trkpt>
      <trkpt lat="45.53283" lon="6.76589">
        <ele>1496.5</ele>
        <time>2021-08-03T10:59:34Z</time>
      </trkpt>
      <trkpt lat="45.53283" lon="6.76588">
        <ele>1496.6</ele>
        <time>2021-08-03T10:59:35Z</time>
      </trkpt>
      <trkpt lat="45.53284" lon="6.76586">
        <ele>1496.6</ele>
        <time>2021-08-03T10:59:36Z</time>
      </trkpt>
      <trkpt lat="45.53284" lon="6.76584">
        <ele>1496.7</ele>
        <time>2021-08-03T10:59:37Z</time>
      </trkpt>
      <trkpt lat="45.53284" lon="6.76582">
        <ele>1496.7</ele>
        <time>2021-08-03T10:59:38Z</time>
      </trkpt>
      <trkpt lat="45.53284" lon="6.7658">
        <ele>1496.8</ele>
        <time>2021-08-03T10:59:39Z</time>
      </trkpt>
      <trkpt lat="45.53284" lon="6.76578">
        <ele>1496.8</ele>
        <time>2021-08-03T10:59:40Z</time>
      </trkpt>
      <trkpt lat="45.53284" lon="6.76576">
        <ele>1496.8</ele>
        <time>2021-08-03T10:59:41Z</time>
      </trkpt>
      <trkpt lat="45.53284" lon="6.76575">
        <ele>1496.9</ele>
        <time>2021-08-03T10:59:42Z</time>
      </trkpt>
      <trkpt lat="45.53284" lon="6.76573">
        <ele>1496.9</ele>
        <time>2021-08-03T10:59:43Z</time>
      </trkpt>
      <trkpt lat="45.53285" lon="6.76571">
        <ele>1497</ele>
        <time>2021-08-03T10:59:44Z</time>
      </trkpt>
      <trkpt lat="45.53285" lon="6.7657">
        <ele>1497</ele>
        <time>2021-08-03T10:59:45Z</time>
      </trkpt>
      <trkpt lat="45.53286" lon="6.76569">
        <ele>1497.1</ele>
        <time>2021-08-03T10:59:46Z</time>
      </trkpt>
      <trkpt lat="45.53286" lon="6.76568">
        <ele>1497.1</ele>
        <time>2021-08-03T10:59:47Z</time>
      </trkpt>
      <trkpt lat="45.53287" lon="6.76566">
        <ele>1497.2</ele>
        <time>2021-08-03T10:59:48Z</time>
      </trkpt>
      <trkpt lat="45.53288" lon="6.76565">
        <ele>1497.2</ele>
        <time>2021-08-03T10:59:49Z</time>
      </trkpt>
      <trkpt lat="45.53289" lon="6.76564">
        <ele>1497.3</ele>
        <time>2021-08-03T10:59:50Z</time>
      </trkpt>
      <trkpt lat="45.5329" lon="6.76563">
        <ele>1497.3</ele>
        <time>2021-08-03T10:59:51Z</time>
      </trkpt>
      <trkpt lat="45.53291" lon="6.76562">
        <ele>1497.4</ele>
        <time>2021-08-03T10:59:52Z</time>
      </trkpt>
      <trkpt lat="45.53292" lon="6.76561">
        <ele>1497.4</ele>
        <time>2021-08-03T10:59:53Z</time>
      </trkpt>
      <trkpt lat="45.53293" lon="6.76559">
        <ele>1497.5</ele>
        <time>2021-08-03T10:59:54Z</time>
      </trkpt>
      <trkpt lat="45.53293" lon="6.76558">
        <ele>1497.5</ele>
        <time>2021-08-03T10:59:55Z</time>
      </trkpt>
      <trkpt lat="45.53294" lon="6.76556">
        <ele>1497.6</ele>
        <time>2021-08-03T10:59:56Z</time>
      </trkpt>
      <trkpt lat="45.53294" lon="6.76554">
        <ele>1497.7</ele>
        <time>2021-08-03T10:59:57Z</time>
      </trkpt>
      <trkpt lat="45.53295" lon="6.76553">
        <ele>1497.7</ele>
        <time>2021-08-03T10:59:58Z</time>
      </trkpt>
      <trkpt lat="45.53295" lon="6.76551">
        <ele>1497.8</ele>
        <time>2021-08-03T10:59:59Z</time>
      </trkpt>
      <trkpt lat="45.53295" lon="6.76549">
        <ele>1497.9</ele>
        <time>2021-08-03T11:00:00Z</time>
      </trkpt>
      <trkpt lat="45.53295" lon="6.76547">
        <ele>1497.9</ele>
        <time>2021-08-03T11:00:01Z</time>
      </trkpt>
      <trkpt lat="45.53295" lon="6.76545">
        <ele>1498</ele>
        <time>2021-08-03T11:00:02Z</time>
      </trkpt>
      <trkpt lat="45.53295" lon="6.76543">
        <ele>1498.1</ele>
        <time>2021-08-03T11:00:03Z</time>
      </trkpt>
      <trkpt lat="45.53296" lon="6.76541">
        <ele>1498.1</ele>
        <time>2021-08-03T11:00:04Z</time>
      </trkpt>
      <trkpt lat="45.53296" lon="6.76539">
        <ele>1498.2</ele>
        <time>2021-08-03T11:00:05Z</time>
      </trkpt>
      <trkpt lat="45.53296" lon="6.76536">
        <ele>1498.3</ele>
        <time>2021-08-03T11:00:06Z</time>
      </trkpt>
      <trkpt lat="45.53296" lon="6.76534">
        <ele>1498.3</ele>
        <time>2021-08-03T11:00:07Z</time>
      </trkpt>
      <trkpt lat="45.53296" lon="6.76532">
        <ele>1498.4</ele>
        <time>2021-08-03T11:00:08Z</time>
      </trkpt>
      <trkpt lat="45.53296" lon="6.7653">
        <ele>1498.5</ele>
        <time>2021-08-03T11:00:09Z</time>
      </trkpt>
      <trkpt lat="45.53296" lon="6.76528">
        <ele>1498.5</ele>
        <time>2021-08-03T11:00:10Z</time>
      </trkpt>
      <trkpt lat="45.53296" lon="6.76526">
        <ele>1498.6</ele>
        <time>2021-08-03T11:00:11Z</time>
      </trkpt>
      <trkpt lat="45.53297" lon="6.76525">
        <ele>1498.7</ele>
        <time>2021-08-03T11:00:12Z</time>
      </trkpt>
      <trkpt lat="45.53297" lon="6.76523">
        <ele>1498.7</ele>
        <time>2021-08-03T11:00:13Z</time>
      </trkpt>
      <trkpt lat="45.53298" lon="6.76521">
        <ele>1498.8</ele>
        <time>2021-08-03T11:00:14Z</time>
      </trkpt>
      <trkpt lat="45.53298" lon="6.76519">
        <ele>1498.8</ele>
        <time>2021-08-03T11:00:15Z</time>
      </trkpt>
      <trkpt lat="45.53298" lon="6.76517">
        <ele>1498.9</ele>
        <time>2021-08-03T11:00:16Z</time>
      </trkpt>
      <trkpt lat="45.53299" lon="6.76515">
        <ele>1498.9</ele>
        <time>2021-08-03T11:00:17Z</time>
      </trkpt>
      <trkpt lat="45.53299" lon="6.76513">
        <ele>1499</ele>
        <time>2021-08-03T11:00:18Z</time>
      </trkpt>
      <trkpt lat="45.53299" lon="6.76511">
        <ele>1499</ele>
        <time>2021-08-03T11:00:19Z</time>
      </trkpt>
      <trkpt lat="45.53299" lon="6.76509">
        <ele>1499.1</ele>
        <time>2021-08-03T11:00:20Z</time>
      </trkpt>
      <trkpt lat="45.53299" lon="6.76507">
        <ele>1499.2</ele>
        <time>2021-08-03T11:00:21Z</time>
      </trkpt>
      <trkpt lat="45.53299" lon="6.76506">
        <ele>1499.2</ele>
        <time>2021-08-03T11:00:22Z</time>
      </trkpt>
      <trkpt lat="45.53299" lon="6.76504">
        <ele>1499.3</ele>
        <time>2021-08-03T11:00:23Z</time>
      </trkpt>
      <trkpt lat="45.53299" lon="6.76502">
        <ele>1499.3</ele>
        <time>2021-08-03T11:00:24Z</time>
      </trkpt>
      <trkpt lat="45.53299" lon="6.765">
        <ele>1499.3</ele>
        <time>2021-08-03T11:00:25Z</time>
      </trkpt>
      <trkpt lat="45.53299" lon="6.76498">
        <ele>1499.4</ele>
        <time>2021-08-03T11:00:26Z</time>
      </trkpt>
      <trkpt lat="45.53299" lon="6.76496">
        <ele>1499.4</ele>
        <time>2021-08-03T11:00:27Z</time>
      </trkpt>
      <trkpt lat="45.53299" lon="6.76494">
        <ele>1499.5</ele>
        <time>2021-08-03T11:00:28Z</time>
      </trkpt>
      <trkpt lat="45.53299" lon="6.76493">
        <ele>1499.5</ele>
        <time>2021-08-03T11:00:29Z</time>
      </trkpt>
      <trkpt lat="45.53299" lon="6.76491">
        <ele>1499.5</ele>
        <time>2021-08-03T11:00:30Z</time>
      </trkpt>
      <trkpt lat="45.533" lon="6.76489">
        <ele>1499.6</ele>
        <time>2021-08-03T11:00:31Z</time>
      </trkpt>
      <trkpt lat="45.533" lon="6.76488">
        <ele>1499.6</ele>
        <time>2021-08-03T11:00:32Z</time>
      </trkpt>
      <trkpt lat="45.53301" lon="6.76486">
        <ele>1499.7</ele>
        <time>2021-08-03T11:00:33Z</time>
      </trkpt>
      <trkpt lat="45.53301" lon="6.76484">
        <ele>1499.7</ele>
        <time>2021-08-03T11:00:34Z</time>
      </trkpt>
      <trkpt lat="45.53301" lon="6.76483">
        <ele>1499.7</ele>
        <time>2021-08-03T11:00:35Z</time>
      </trkpt>
      <trkpt lat="45.53302" lon="6.76481">
        <ele>1499.8</ele>
        <time>2021-08-03T11:00:36Z</time>
      </trkpt>
      <trkpt lat="45.53302" lon="6.76479">
        <ele>1499.8</ele>
        <time>2021-08-03T11:00:37Z</time>
      </trkpt>
      <trkpt lat="45.53302" lon="6.76477">
        <ele>1499.9</ele>
        <time>2021-08-03T11:00:38Z</time>
      </trkpt>
      <trkpt lat="45.53303" lon="6.76476">
        <ele>1499.9</ele>
        <time>2021-08-03T11:00:39Z</time>
      </trkpt>
      <trkpt lat="45.53303" lon="6.76474">
        <ele>1500</ele>
        <time>2021-08-03T11:00:40Z</time>
      </trkpt>
      <trkpt lat="45.53303" lon="6.76472">
        <ele>1500</ele>
        <time>2021-08-03T11:00:41Z</time>
      </trkpt>
      <trkpt lat="45.53304" lon="6.7647">
        <ele>1500</ele>
        <time>2021-08-03T11:00:42Z</time>
      </trkpt>
      <trkpt lat="45.53304" lon="6.76469">
        <ele>1500.1</ele>
        <time>2021-08-03T11:00:43Z</time>
      </trkpt>
      <trkpt lat="45.53304" lon="6.76467">
        <ele>1500.1</ele>
        <time>2021-08-03T11:00:44Z</time>
      </trkpt>
      <trkpt lat="45.53305" lon="6.76465">
        <ele>1500.2</ele>
        <time>2021-08-03T11:00:45Z</time>
      </trkpt>
      <trkpt lat="45.53305" lon="6.76463">
        <ele>1500.2</ele>
        <time>2021-08-03T11:00:46Z</time>
      </trkpt>
      <trkpt lat="45.53306" lon="6.76462">
        <ele>1500.3</ele>
        <time>2021-08-03T11:00:47Z</time>
      </trkpt>
      <trkpt lat="45.53306" lon="6.7646">
        <ele>1500.3</ele>
        <time>2021-08-03T11:00:48Z</time>
      </trkpt>
      <trkpt lat="45.53307" lon="6.76458">
        <ele>1500.4</ele>
        <time>2021-08-03T11:00:49Z</time>
      </trkpt>
      <trkpt lat="45.53307" lon="6.76456">
        <ele>1500.4</ele>
        <time>2021-08-03T11:00:50Z</time>
      </trkpt>
      <trkpt lat="45.53308" lon="6.76455">
        <ele>1500.5</ele>
        <time>2021-08-03T11:00:51Z</time>
      </trkpt>
      <trkpt lat="45.53309" lon="6.76453">
        <ele>1500.6</ele>
        <time>2021-08-03T11:00:52Z</time>
      </trkpt>
      <trkpt lat="45.53309" lon="6.76451">
        <ele>1500.6</ele>
        <time>2021-08-03T11:00:53Z</time>
      </trkpt>
      <trkpt lat="45.5331" lon="6.7645">
        <ele>1500.7</ele>
        <time>2021-08-03T11:00:54Z</time>
      </trkpt>
      <trkpt lat="45.5331" lon="6.76448">
        <ele>1500.7</ele>
        <time>2021-08-03T11:00:55Z</time>
      </trkpt>
      <trkpt lat="45.53311" lon="6.76447">
        <ele>1500.8</ele>
        <time>2021-08-03T11:00:56Z</time>
      </trkpt>
      <trkpt lat="45.53312" lon="6.76445">
        <ele>1500.8</ele>
        <time>2021-08-03T11:00:57Z</time>
      </trkpt>
      <trkpt lat="45.53312" lon="6.76443">
        <ele>1500.9</ele>
        <time>2021-08-03T11:00:58Z</time>
      </trkpt>
      <trkpt lat="45.53313" lon="6.76442">
        <ele>1501</ele>
        <time>2021-08-03T11:00:59Z</time>
      </trkpt>
      <trkpt lat="45.53313" lon="6.7644">
        <ele>1501</ele>
        <time>2021-08-03T11:01:00Z</time>
      </trkpt>
      <trkpt lat="45.53314" lon="6.76438">
        <ele>1501.1</ele>
        <time>2021-08-03T11:01:01Z</time>
      </trkpt>
      <trkpt lat="45.53314" lon="6.76437">
        <ele>1501.1</ele>
        <time>2021-08-03T11:01:02Z</time>
      </trkpt>
      <trkpt lat="45.53315" lon="6.76435">
        <ele>1501.2</ele>
        <time>2021-08-03T11:01:03Z</time>
      </trkpt>
      <trkpt lat="45.53315" lon="6.76433">
        <ele>1501.2</ele>
        <time>2021-08-03T11:01:04Z</time>
      </trkpt>
      <trkpt lat="45.53315" lon="6.76432">
        <ele>1501.3</ele>
        <time>2021-08-03T11:01:05Z</time>
      </trkpt>
      <trkpt lat="45.53316" lon="6.7643">
        <ele>1501.4</ele>
        <time>2021-08-03T11:01:06Z</time>
      </trkpt>
      <trkpt lat="45.53316" lon="6.76428">
        <ele>1501.4</ele>
        <time>2021-08-03T11:01:07Z</time>
      </trkpt>
      <trkpt lat="45.53316" lon="6.76426">
        <ele>1501.5</ele>
        <time>2021-08-03T11:01:08Z</time>
      </trkpt>
      <trkpt lat="45.53316" lon="6.76425">
        <ele>1501.5</ele>
        <time>2021-08-03T11:01:09Z</time>
      </trkpt>
      <trkpt lat="45.53316" lon="6.76423">
        <ele>1501.6</ele>
        <time>2021-08-03T11:01:10Z</time>
      </trkpt>
      <trkpt lat="45.53316" lon="6.76421">
        <ele>1501.6</ele>
        <time>2021-08-03T11:01:11Z</time>
      </trkpt>
      <trkpt lat="45.53316" lon="6.76419">
        <ele>1501.7</ele>
        <time>2021-08-03T11:01:12Z</time>
      </trkpt>
      <trkpt lat="45.53316" lon="6.76418">
        <ele>1501.7</ele>
        <time>2021-08-03T11:01:13Z</time>
      </trkpt>
      <trkpt lat="45.53316" lon="6.76416">
        <ele>1501.8</ele>
        <time>2021-08-03T11:01:14Z</time>
      </trkpt>
      <trkpt lat="45.53316" lon="6.76414">
        <ele>1501.9</ele>
        <time>2021-08-03T11:01:15Z</time>
      </trkpt>
      <trkpt lat="45.53316" lon="6.76412">
        <ele>1501.9</ele>
        <time>2021-08-03T11:01:16Z</time>
      </trkpt>
      <trkpt lat="45.53316" lon="6.7641">
        <ele>1502</ele>
        <time>2021-08-03T11:01:17Z</time>
      </trkpt>
      <trkpt lat="45.53316" lon="6.76408">
        <ele>1502</ele>
        <time>2021-08-03T11:01:18Z</time>
      </trkpt>
      <trkpt lat="45.53316" lon="6.76406">
        <ele>1502.1</ele>
        <time>2021-08-03T11:01:19Z</time>
      </trkpt>
      <trkpt lat="45.53316" lon="6.76404">
        <ele>1502.1</ele>
        <time>2021-08-03T11:01:20Z</time>
      </trkpt>
      <trkpt lat="45.53316" lon="6.76402">
        <ele>1502.2</ele>
        <time>2021-08-03T11:01:21Z</time>
      </trkpt>
      <trkpt lat="45.53316" lon="6.764">
        <ele>1502.2</ele>
        <time>2021-08-03T11:01:22Z</time>
      </trkpt>
      <trkpt lat="45.53315" lon="6.76398">
        <ele>1502.2</ele>
        <time>2021-08-03T11:01:23Z</time>
      </trkpt>
      <trkpt lat="45.53315" lon="6.76396">
        <ele>1502.3</ele>
        <time>2021-08-03T11:01:24Z</time>
      </trkpt>
      <trkpt lat="45.53315" lon="6.76395">
        <ele>1502.3</ele>
        <time>2021-08-03T11:01:25Z</time>
      </trkpt>
      <trkpt lat="45.53316" lon="6.76393">
        <ele>1502.4</ele>
        <time>2021-08-03T11:01:26Z</time>
      </trkpt>
      <trkpt lat="45.53316" lon="6.76391">
        <ele>1502.4</ele>
        <time>2021-08-03T11:01:27Z</time>
      </trkpt>
      <trkpt lat="45.53316" lon="6.76389">
        <ele>1502.5</ele>
        <time>2021-08-03T11:01:28Z</time>
      </trkpt>
      <trkpt lat="45.53317" lon="6.76388">
        <ele>1502.5</ele>
        <time>2021-08-03T11:01:29Z</time>
      </trkpt>
      <trkpt lat="45.53317" lon="6.76386">
        <ele>1502.5</ele>
        <time>2021-08-03T11:01:30Z</time>
      </trkpt>
      <trkpt lat="45.53318" lon="6.76384">
        <ele>1502.6</ele>
        <time>2021-08-03T11:01:31Z</time>
      </trkpt>
      <trkpt lat="45.53318" lon="6.76383">
        <ele>1502.6</ele>
        <time>2021-08-03T11:01:32Z</time>
      </trkpt>
      <trkpt lat="45.53319" lon="6.76382">
        <ele>1502.6</ele>
        <time>2021-08-03T11:01:33Z</time>
      </trkpt>
      <trkpt lat="45.5332" lon="6.7638">
        <ele>1502.7</ele>
        <time>2021-08-03T11:01:34Z</time>
      </trkpt>
      <trkpt lat="45.53321" lon="6.76379">
        <ele>1502.7</ele>
        <time>2021-08-03T11:01:35Z</time>
      </trkpt>
      <trkpt lat="45.53322" lon="6.76378">
        <ele>1502.7</ele>
        <time>2021-08-03T11:01:36Z</time>
      </trkpt>
      <trkpt lat="45.53323" lon="6.76376">
        <ele>1502.8</ele>
        <time>2021-08-03T11:01:37Z</time>
      </trkpt>
      <trkpt lat="45.53324" lon="6.76375">
        <ele>1502.8</ele>
        <time>2021-08-03T11:01:38Z</time>
      </trkpt>
      <trkpt lat="45.53325" lon="6.76374">
        <ele>1502.9</ele>
        <time>2021-08-03T11:01:39Z</time>
      </trkpt>
      <trkpt lat="45.53325" lon="6.76373">
        <ele>1502.9</ele>
        <time>2021-08-03T11:01:40Z</time>
      </trkpt>
      <trkpt lat="45.53326" lon="6.76371">
        <ele>1502.9</ele>
        <time>2021-08-03T11:01:41Z</time>
      </trkpt>
      <trkpt lat="45.53327" lon="6.7637">
        <ele>1503</ele>
        <time>2021-08-03T11:01:42Z</time>
      </trkpt>
      <trkpt lat="45.53328" lon="6.76369">
        <ele>1503</ele>
        <time>2021-08-03T11:01:43Z</time>
      </trkpt>
      <trkpt lat="45.53328" lon="6.76367">
        <ele>1503</ele>
        <time>2021-08-03T11:01:44Z</time>
      </trkpt>
      <trkpt lat="45.53329" lon="6.76366">
        <ele>1503.1</ele>
        <time>2021-08-03T11:01:45Z</time>
      </trkpt>
      <trkpt lat="45.53329" lon="6.76364">
        <ele>1503.1</ele>
        <time>2021-08-03T11:01:46Z</time>
      </trkpt>
      <trkpt lat="45.5333" lon="6.76363">
        <ele>1503.1</ele>
        <time>2021-08-03T11:01:47Z</time>
      </trkpt>
      <trkpt lat="45.5333" lon="6.76361">
        <ele>1503.2</ele>
        <time>2021-08-03T11:01:48Z</time>
      </trkpt>
      <trkpt lat="45.5333" lon="6.76359">
        <ele>1503.2</ele>
        <time>2021-08-03T11:01:49Z</time>
      </trkpt>
      <trkpt lat="45.53331" lon="6.76358">
        <ele>1503.3</ele>
        <time>2021-08-03T11:01:50Z</time>
      </trkpt>
      <trkpt lat="45.53331" lon="6.76356">
        <ele>1503.3</ele>
        <time>2021-08-03T11:01:51Z</time>
      </trkpt>
      <trkpt lat="45.53331" lon="6.76354">
        <ele>1503.3</ele>
        <time>2021-08-03T11:01:52Z</time>
      </trkpt>
      <trkpt lat="45.53332" lon="6.76353">
        <ele>1503.4</ele>
        <time>2021-08-03T11:01:53Z</time>
      </trkpt>
      <trkpt lat="45.53332" lon="6.76351">
        <ele>1503.4</ele>
        <time>2021-08-03T11:01:54Z</time>
      </trkpt>
      <trkpt lat="45.53333" lon="6.7635">
        <ele>1503.5</ele>
        <time>2021-08-03T11:01:55Z</time>
      </trkpt>
      <trkpt lat="45.53334" lon="6.76348">
        <ele>1503.5</ele>
        <time>2021-08-03T11:01:56Z</time>
      </trkpt>
      <trkpt lat="45.53334" lon="6.76347">
        <ele>1503.5</ele>
        <time>2021-08-03T11:01:57Z</time>
      </trkpt>
      <trkpt lat="45.53335" lon="6.76345">
        <ele>1503.6</ele>
        <time>2021-08-03T11:01:58Z</time>
      </trkpt>
      <trkpt lat="45.53336" lon="6.76344">
        <ele>1503.6</ele>
        <time>2021-08-03T11:01:59Z</time>
      </trkpt>
      <trkpt lat="45.53337" lon="6.76343">
        <ele>1503.6</ele>
        <time>2021-08-03T11:02:00Z</time>
      </trkpt>
      <trkpt lat="45.53337" lon="6.76341">
        <ele>1503.7</ele>
        <time>2021-08-03T11:02:01Z</time>
      </trkpt>
      <trkpt lat="45.53338" lon="6.7634">
        <ele>1503.7</ele>
        <time>2021-08-03T11:02:02Z</time>
      </trkpt>
      <trkpt lat="45.53339" lon="6.76339">
        <ele>1503.7</ele>
        <time>2021-08-03T11:02:03Z</time>
      </trkpt>
      <trkpt lat="45.5334" lon="6.76337">
        <ele>1503.8</ele>
        <time>2021-08-03T11:02:04Z</time>
      </trkpt>
      <trkpt lat="45.53341" lon="6.76336">
        <ele>1503.8</ele>
        <time>2021-08-03T11:02:05Z</time>
      </trkpt>
      <trkpt lat="45.53341" lon="6.76334">
        <ele>1503.8</ele>
        <time>2021-08-03T11:02:06Z</time>
      </trkpt>
      <trkpt lat="45.53342" lon="6.76333">
        <ele>1503.9</ele>
        <time>2021-08-03T11:02:07Z</time>
      </trkpt>
      <trkpt lat="45.53343" lon="6.76332">
        <ele>1503.9</ele>
        <time>2021-08-03T11:02:08Z</time>
      </trkpt>
      <trkpt lat="45.53344" lon="6.7633">
        <ele>1503.9</ele>
        <time>2021-08-03T11:02:09Z</time>
      </trkpt>
      <trkpt lat="45.53344" lon="6.76329">
        <ele>1504</ele>
        <time>2021-08-03T11:02:10Z</time>
      </trkpt>
      <trkpt lat="45.53345" lon="6.76327">
        <ele>1504</ele>
        <time>2021-08-03T11:02:11Z</time>
      </trkpt>
      <trkpt lat="45.53346" lon="6.76326">
        <ele>1504</ele>
        <time>2021-08-03T11:02:12Z</time>
      </trkpt>
      <trkpt lat="45.53347" lon="6.76325">
        <ele>1504.1</ele>
        <time>2021-08-03T11:02:13Z</time>
      </trkpt>
      <trkpt lat="45.53347" lon="6.76323">
        <ele>1504.1</ele>
        <time>2021-08-03T11:02:14Z</time>
      </trkpt>
      <trkpt lat="45.53348" lon="6.76322">
        <ele>1504.1</ele>
        <time>2021-08-03T11:02:15Z</time>
      </trkpt>
      <trkpt lat="45.53348" lon="6.7632">
        <ele>1504.2</ele>
        <time>2021-08-03T11:02:16Z</time>
      </trkpt>
      <trkpt lat="45.53349" lon="6.76318">
        <ele>1504.2</ele>
        <time>2021-08-03T11:02:17Z</time>
      </trkpt>
      <trkpt lat="45.53349" lon="6.76317">
        <ele>1504.2</ele>
        <time>2021-08-03T11:02:18Z</time>
      </trkpt>
      <trkpt lat="45.5335" lon="6.76315">
        <ele>1504.3</ele>
        <time>2021-08-03T11:02:19Z</time>
      </trkpt>
      <trkpt lat="45.5335" lon="6.76313">
        <ele>1504.3</ele>
        <time>2021-08-03T11:02:20Z</time>
      </trkpt>
      <trkpt lat="45.53351" lon="6.76312">
        <ele>1504.3</ele>
        <time>2021-08-03T11:02:21Z</time>
      </trkpt>
      <trkpt lat="45.53351" lon="6.7631">
        <ele>1504.4</ele>
        <time>2021-08-03T11:02:22Z</time>
      </trkpt>
      <trkpt lat="45.53351" lon="6.76308">
        <ele>1504.4</ele>
        <time>2021-08-03T11:02:23Z</time>
      </trkpt>
      <trkpt lat="45.53352" lon="6.76306">
        <ele>1504.4</ele>
        <time>2021-08-03T11:02:24Z</time>
      </trkpt>
      <trkpt lat="45.53352" lon="6.76304">
        <ele>1504.5</ele>
        <time>2021-08-03T11:02:25Z</time>
      </trkpt>
      <trkpt lat="45.53352" lon="6.76302">
        <ele>1504.5</ele>
        <time>2021-08-03T11:02:26Z</time>
      </trkpt>
      <trkpt lat="45.53352" lon="6.763">
        <ele>1504.6</ele>
        <time>2021-08-03T11:02:27Z</time>
      </trkpt>
      <trkpt lat="45.53352" lon="6.76298">
        <ele>1504.6</ele>
        <time>2021-08-03T11:02:28Z</time>
      </trkpt>
      <trkpt lat="45.53353" lon="6.76296">
        <ele>1504.6</ele>
        <time>2021-08-03T11:02:29Z</time>
      </trkpt>
      <trkpt lat="45.53353" lon="6.76295">
        <ele>1504.7</ele>
        <time>2021-08-03T11:02:30Z</time>
      </trkpt>
      <trkpt lat="45.53353" lon="6.76293">
        <ele>1504.7</ele>
        <time>2021-08-03T11:02:31Z</time>
      </trkpt>
      <trkpt lat="45.53354" lon="6.76291">
        <ele>1504.8</ele>
        <time>2021-08-03T11:02:32Z</time>
      </trkpt>
      <trkpt lat="45.53354" lon="6.7629">
        <ele>1504.8</ele>
        <time>2021-08-03T11:02:33Z</time>
      </trkpt>
      <trkpt lat="45.53355" lon="6.76288">
        <ele>1504.9</ele>
        <time>2021-08-03T11:02:34Z</time>
      </trkpt>
      <trkpt lat="45.53355" lon="6.76287">
        <ele>1504.9</ele>
        <time>2021-08-03T11:02:35Z</time>
      </trkpt>
      <trkpt lat="45.53356" lon="6.76285">
        <ele>1505</ele>
        <time>2021-08-03T11:02:36Z</time>
      </trkpt>
      <trkpt lat="45.53356" lon="6.76283">
        <ele>1505</ele>
        <time>2021-08-03T11:02:37Z</time>
      </trkpt>
      <trkpt lat="45.53357" lon="6.76282">
        <ele>1505.1</ele>
        <time>2021-08-03T11:02:38Z</time>
      </trkpt>
      <trkpt lat="45.53358" lon="6.7628">
        <ele>1505.2</ele>
        <time>2021-08-03T11:02:39Z</time>
      </trkpt>
      <trkpt lat="45.53358" lon="6.76278">
        <ele>1505.2</ele>
        <time>2021-08-03T11:02:40Z</time>
      </trkpt>
      <trkpt lat="45.53359" lon="6.76277">
        <ele>1505.3</ele>
        <time>2021-08-03T11:02:41Z</time>
      </trkpt>
      <trkpt lat="45.53359" lon="6.76275">
        <ele>1505.4</ele>
        <time>2021-08-03T11:02:42Z</time>
      </trkpt>
      <trkpt lat="45.5336" lon="6.76273">
        <ele>1505.5</ele>
        <time>2021-08-03T11:02:43Z</time>
      </trkpt>
      <trkpt lat="45.5336" lon="6.76271">
        <ele>1505.5</ele>
        <time>2021-08-03T11:02:44Z</time>
      </trkpt>
      <trkpt lat="45.53361" lon="6.76269">
        <ele>1505.6</ele>
        <time>2021-08-03T11:02:45Z</time>
      </trkpt>
      <trkpt lat="45.53361" lon="6.76266">
        <ele>1505.7</ele>
        <time>2021-08-03T11:02:46Z</time>
      </trkpt>
      <trkpt lat="45.53362" lon="6.76264">
        <ele>1505.8</ele>
        <time>2021-08-03T11:02:47Z</time>
      </trkpt>
      <trkpt lat="45.53362" lon="6.76262">
        <ele>1505.8</ele>
        <time>2021-08-03T11:02:48Z</time>
      </trkpt>
      <trkpt lat="45.53362" lon="6.7626">
        <ele>1505.9</ele>
        <time>2021-08-03T11:02:49Z</time>
      </trkpt>
      <trkpt lat="45.53363" lon="6.76259">
        <ele>1506</ele>
        <time>2021-08-03T11:02:50Z</time>
      </trkpt>
      <trkpt lat="45.53363" lon="6.76257">
        <ele>1506</ele>
        <time>2021-08-03T11:02:51Z</time>
      </trkpt>
      <trkpt lat="45.53363" lon="6.76255">
        <ele>1506.1</ele>
        <time>2021-08-03T11:02:52Z</time>
      </trkpt>
      <trkpt lat="45.53364" lon="6.76254">
        <ele>1506.1</ele>
        <time>2021-08-03T11:02:53Z</time>
      </trkpt>
      <trkpt lat="45.53364" lon="6.76253">
        <ele>1506.2</ele>
        <time>2021-08-03T11:02:54Z</time>
      </trkpt>
      <trkpt lat="45.53364" lon="6.76253">
        <ele>1506.2</ele>
        <time>2021-08-03T11:02:55Z</time>
      </trkpt>
      <trkpt lat="45.53364" lon="6.76252">
        <ele>1506.2</ele>
        <time>2021-08-03T11:02:56Z</time>
      </trkpt>
      <trkpt lat="45.53364" lon="6.76252">
        <ele>1506.2</ele>
        <time>2021-08-03T11:02:57Z</time>
      </trkpt>
      <trkpt lat="45.53363" lon="6.76252">
        <ele>1506.2</ele>
        <time>2021-08-03T11:02:58Z</time>
      </trkpt>
      <trkpt lat="45.53363" lon="6.76252">
        <ele>1506.2</ele>
        <time>2021-08-03T11:02:59Z</time>
      </trkpt>
      <trkpt lat="45.53363" lon="6.76252">
        <ele>1506.2</ele>
        <time>2021-08-03T11:03:00Z</time>
      </trkpt>
      <trkpt lat="45.53363" lon="6.76252">
        <ele>1506.2</ele>
        <time>2021-08-03T11:03:01Z</time>
      </trkpt>
      <trkpt lat="45.53363" lon="6.76252">
        <ele>1506.3</ele>
        <time>2021-08-03T11:03:02Z</time>
      </trkpt>
      <trkpt lat="45.53362" lon="6.76251">
        <ele>1506.3</ele>
        <time>2021-08-03T11:03:03Z</time>
      </trkpt>
      <trkpt lat="45.53362" lon="6.7625">
        <ele>1506.3</ele>
        <time>2021-08-03T11:03:04Z</time>
      </trkpt>
      <trkpt lat="45.53362" lon="6.76249">
        <ele>1506.4</ele>
        <time>2021-08-03T11:03:05Z</time>
      </trkpt>
      <trkpt lat="45.53362" lon="6.76248">
        <ele>1506.4</ele>
        <time>2021-08-03T11:03:06Z</time>
      </trkpt>
      <trkpt lat="45.53362" lon="6.76247">
        <ele>1506.5</ele>
        <time>2021-08-03T11:03:07Z</time>
      </trkpt>
      <trkpt lat="45.53362" lon="6.76245">
        <ele>1506.5</ele>
        <time>2021-08-03T11:03:08Z</time>
      </trkpt>
      <trkpt lat="45.53362" lon="6.76244">
        <ele>1506.6</ele>
        <time>2021-08-03T11:03:09Z</time>
      </trkpt>
      <trkpt lat="45.53362" lon="6.76242">
        <ele>1506.6</ele>
        <time>2021-08-03T11:03:10Z</time>
      </trkpt>
      <trkpt lat="45.53361" lon="6.76241">
        <ele>1506.7</ele>
        <time>2021-08-03T11:03:11Z</time>
      </trkpt>
      <trkpt lat="45.53361" lon="6.76239">
        <ele>1506.7</ele>
        <time>2021-08-03T11:03:12Z</time>
      </trkpt>
      <trkpt lat="45.53361" lon="6.76238">
        <ele>1506.8</ele>
        <time>2021-08-03T11:03:13Z</time>
      </trkpt>
      <trkpt lat="45.53361" lon="6.76237">
        <ele>1506.8</ele>
        <time>2021-08-03T11:03:14Z</time>
      </trkpt>
      <trkpt lat="45.53361" lon="6.76236">
        <ele>1506.8</ele>
        <time>2021-08-03T11:03:15Z</time>
      </trkpt>
      <trkpt lat="45.53361" lon="6.76234">
        <ele>1506.9</ele>
        <time>2021-08-03T11:03:16Z</time>
      </trkpt>
      <trkpt lat="45.53361" lon="6.76233">
        <ele>1506.9</ele>
        <time>2021-08-03T11:03:17Z</time>
      </trkpt>
      <trkpt lat="45.53361" lon="6.76232">
        <ele>1507</ele>
        <time>2021-08-03T11:03:18Z</time>
      </trkpt>
      <trkpt lat="45.53361" lon="6.76231">
        <ele>1507</ele>
        <time>2021-08-03T11:03:19Z</time>
      </trkpt>
      <trkpt lat="45.53361" lon="6.7623">
        <ele>1507.1</ele>
        <time>2021-08-03T11:03:20Z</time>
      </trkpt>
      <trkpt lat="45.53361" lon="6.76229">
        <ele>1507.1</ele>
        <time>2021-08-03T11:03:21Z</time>
      </trkpt>
      <trkpt lat="45.53361" lon="6.76228">
        <ele>1507.1</ele>
        <time>2021-08-03T11:03:22Z</time>
      </trkpt>
      <trkpt lat="45.53361" lon="6.76227">
        <ele>1507.2</ele>
        <time>2021-08-03T11:03:23Z</time>
      </trkpt>
      <trkpt lat="45.53362" lon="6.76225">
        <ele>1507.2</ele>
        <time>2021-08-03T11:03:24Z</time>
      </trkpt>
      <trkpt lat="45.53362" lon="6.76224">
        <ele>1507.3</ele>
        <time>2021-08-03T11:03:25Z</time>
      </trkpt>
      <trkpt lat="45.53362" lon="6.76223">
        <ele>1507.3</ele>
        <time>2021-08-03T11:03:26Z</time>
      </trkpt>
      <trkpt lat="45.53362" lon="6.76222">
        <ele>1507.4</ele>
        <time>2021-08-03T11:03:27Z</time>
      </trkpt>
      <trkpt lat="45.53362" lon="6.76221">
        <ele>1507.4</ele>
        <time>2021-08-03T11:03:28Z</time>
      </trkpt>
      <trkpt lat="45.53362" lon="6.76219">
        <ele>1507.5</ele>
        <time>2021-08-03T11:03:29Z</time>
      </trkpt>
      <trkpt lat="45.53362" lon="6.76218">
        <ele>1507.5</ele>
        <time>2021-08-03T11:03:30Z</time>
      </trkpt>
      <trkpt lat="45.53362" lon="6.76217">
        <ele>1507.6</ele>
        <time>2021-08-03T11:03:31Z</time>
      </trkpt>
      <trkpt lat="45.53363" lon="6.76215">
        <ele>1507.6</ele>
        <time>2021-08-03T11:03:32Z</time>
      </trkpt>
      <trkpt lat="45.53363" lon="6.76214">
        <ele>1507.7</ele>
        <time>2021-08-03T11:03:33Z</time>
      </trkpt>
      <trkpt lat="45.53363" lon="6.76212">
        <ele>1507.8</ele>
        <time>2021-08-03T11:03:34Z</time>
      </trkpt>
      <trkpt lat="45.53363" lon="6.76211">
        <ele>1507.8</ele>
        <time>2021-08-03T11:03:35Z</time>
      </trkpt>
      <trkpt lat="45.53363" lon="6.76209">
        <ele>1507.9</ele>
        <time>2021-08-03T11:03:36Z</time>
      </trkpt>
      <trkpt lat="45.53363" lon="6.76207">
        <ele>1508</ele>
        <time>2021-08-03T11:03:37Z</time>
      </trkpt>
      <trkpt lat="45.53363" lon="6.76206">
        <ele>1508</ele>
        <time>2021-08-03T11:03:38Z</time>
      </trkpt>
      <trkpt lat="45.53364" lon="6.76204">
        <ele>1508.1</ele>
        <time>2021-08-03T11:03:39Z</time>
      </trkpt>
      <trkpt lat="45.53364" lon="6.76202">
        <ele>1508.2</ele>
        <time>2021-08-03T11:03:40Z</time>
      </trkpt>
      <trkpt lat="45.53364" lon="6.76201">
        <ele>1508.2</ele>
        <time>2021-08-03T11:03:41Z</time>
      </trkpt>
      <trkpt lat="45.53364" lon="6.76199">
        <ele>1508.3</ele>
        <time>2021-08-03T11:03:42Z</time>
      </trkpt>
      <trkpt lat="45.53364" lon="6.76197">
        <ele>1508.4</ele>
        <time>2021-08-03T11:03:43Z</time>
      </trkpt>
      <trkpt lat="45.53364" lon="6.76195">
        <ele>1508.5</ele>
        <time>2021-08-03T11:03:44Z</time>
      </trkpt>
      <trkpt lat="45.53364" lon="6.76194">
        <ele>1508.5</ele>
        <time>2021-08-03T11:03:45Z</time>
      </trkpt>
      <trkpt lat="45.53364" lon="6.76192">
        <ele>1508.6</ele>
        <time>2021-08-03T11:03:46Z</time>
      </trkpt>
      <trkpt lat="45.53365" lon="6.7619">
        <ele>1508.7</ele>
        <time>2021-08-03T11:03:47Z</time>
      </trkpt>
      <trkpt lat="45.53365" lon="6.76188">
        <ele>1508.8</ele>
        <time>2021-08-03T11:03:48Z</time>
      </trkpt>
      <trkpt lat="45.53365" lon="6.76186">
        <ele>1508.9</ele>
        <time>2021-08-03T11:03:49Z</time>
      </trkpt>
      <trkpt lat="45.53365" lon="6.76184">
        <ele>1509</ele>
        <time>2021-08-03T11:03:50Z</time>
      </trkpt>
      <trkpt lat="45.53365" lon="6.76182">
        <ele>1509</ele>
        <time>2021-08-03T11:03:51Z</time>
      </trkpt>
      <trkpt lat="45.53365" lon="6.7618">
        <ele>1509.1</ele>
        <time>2021-08-03T11:03:52Z</time>
      </trkpt>
      <trkpt lat="45.53365" lon="6.76178">
        <ele>1509.2</ele>
        <time>2021-08-03T11:03:53Z</time>
      </trkpt>
      <trkpt lat="45.53364" lon="6.76176">
        <ele>1509.3</ele>
        <time>2021-08-03T11:03:54Z</time>
      </trkpt>
      <trkpt lat="45.53364" lon="6.76174">
        <ele>1509.4</ele>
        <time>2021-08-03T11:03:55Z</time>
      </trkpt>
      <trkpt lat="45.53364" lon="6.76172">
        <ele>1509.5</ele>
        <time>2021-08-03T11:03:56Z</time>
      </trkpt>
      <trkpt lat="45.53364" lon="6.7617">
        <ele>1509.6</ele>
        <time>2021-08-03T11:03:57Z</time>
      </trkpt>
      <trkpt lat="45.53364" lon="6.76168">
        <ele>1509.6</ele>
        <time>2021-08-03T11:03:58Z</time>
      </trkpt>
      <trkpt lat="45.53364" lon="6.76166">
        <ele>1509.7</ele>
        <time>2021-08-03T11:03:59Z</time>
      </trkpt>
      <trkpt lat="45.53364" lon="6.76164">
        <ele>1509.8</ele>
        <time>2021-08-03T11:04:00Z</time>
      </trkpt>
      <trkpt lat="45.53363" lon="6.76162">
        <ele>1509.9</ele>
        <time>2021-08-03T11:04:01Z</time>
      </trkpt>
      <trkpt lat="45.53363" lon="6.7616">
        <ele>1509.9</ele>
        <time>2021-08-03T11:04:02Z</time>
      </trkpt>
      <trkpt lat="45.53363" lon="6.76158">
        <ele>1510</ele>
        <time>2021-08-03T11:04:03Z</time>
      </trkpt>
      <trkpt lat="45.53363" lon="6.76156">
        <ele>1510.1</ele>
        <time>2021-08-03T11:04:04Z</time>
      </trkpt>
      <trkpt lat="45.53363" lon="6.76154">
        <ele>1510.2</ele>
        <time>2021-08-03T11:04:05Z</time>
      </trkpt>
      <trkpt lat="45.53364" lon="6.76152">
        <ele>1510.2</ele>
        <time>2021-08-03T11:04:06Z</time>
      </trkpt>
      <trkpt lat="45.53364" lon="6.76151">
        <ele>1510.3</ele>
        <time>2021-08-03T11:04:07Z</time>
      </trkpt>
      <trkpt lat="45.53365" lon="6.76149">
        <ele>1510.4</ele>
        <time>2021-08-03T11:04:08Z</time>
      </trkpt>
      <trkpt lat="45.53365" lon="6.76147">
        <ele>1510.4</ele>
        <time>2021-08-03T11:04:09Z</time>
      </trkpt>
      <trkpt lat="45.53366" lon="6.76145">
        <ele>1510.5</ele>
        <time>2021-08-03T11:04:10Z</time>
      </trkpt>
      <trkpt lat="45.53366" lon="6.76144">
        <ele>1510.6</ele>
        <time>2021-08-03T11:04:11Z</time>
      </trkpt>
      <trkpt lat="45.53367" lon="6.76142">
        <ele>1510.7</ele>
        <time>2021-08-03T11:04:12Z</time>
      </trkpt>
      <trkpt lat="45.53368" lon="6.7614">
        <ele>1510.7</ele>
        <time>2021-08-03T11:04:13Z</time>
      </trkpt>
      <trkpt lat="45.53368" lon="6.76139">
        <ele>1510.8</ele>
        <time>2021-08-03T11:04:14Z</time>
      </trkpt>
      <trkpt lat="45.53369" lon="6.76137">
        <ele>1510.9</ele>
        <time>2021-08-03T11:04:15Z</time>
      </trkpt>
      <trkpt lat="45.53369" lon="6.76136">
        <ele>1510.9</ele>
        <time>2021-08-03T11:04:16Z</time>
      </trkpt>
      <trkpt lat="45.5337" lon="6.76134">
        <ele>1511</ele>
        <time>2021-08-03T11:04:17Z</time>
      </trkpt>
      <trkpt lat="45.53371" lon="6.76133">
        <ele>1511.1</ele>
        <time>2021-08-03T11:04:18Z</time>
      </trkpt>
      <trkpt lat="45.53371" lon="6.76131">
        <ele>1511.1</ele>
        <time>2021-08-03T11:04:19Z</time>
      </trkpt>
      <trkpt lat="45.53372" lon="6.7613">
        <ele>1511.2</ele>
        <time>2021-08-03T11:04:20Z</time>
      </trkpt>
      <trkpt lat="45.53372" lon="6.76128">
        <ele>1511.3</ele>
        <time>2021-08-03T11:04:21Z</time>
      </trkpt>
      <trkpt lat="45.53372" lon="6.76127">
        <ele>1511.3</ele>
        <time>2021-08-03T11:04:22Z</time>
      </trkpt>
      <trkpt lat="45.53372" lon="6.76126">
        <ele>1511.4</ele>
        <time>2021-08-03T11:04:23Z</time>
      </trkpt>
      <trkpt lat="45.53372" lon="6.76126">
        <ele>1511.4</ele>
        <time>2021-08-03T11:04:24Z</time>
      </trkpt>
      <trkpt lat="45.53372" lon="6.76125">
        <ele>1511.4</ele>
        <time>2021-08-03T11:04:25Z</time>
      </trkpt>
      <trkpt lat="45.53372" lon="6.76125">
        <ele>1511.4</ele>
        <time>2021-08-03T11:04:26Z</time>
      </trkpt>
      <trkpt lat="45.53372" lon="6.76124">
        <ele>1511.5</ele>
        <time>2021-08-03T11:04:27Z</time>
      </trkpt>
      <trkpt lat="45.53372" lon="6.76123">
        <ele>1511.5</ele>
        <time>2021-08-03T11:04:28Z</time>
      </trkpt>
      <trkpt lat="45.53372" lon="6.76123">
        <ele>1511.5</ele>
        <time>2021-08-03T11:04:29Z</time>
      </trkpt>
      <trkpt lat="45.53372" lon="6.76122">
        <ele>1511.5</ele>
        <time>2021-08-03T11:04:30Z</time>
      </trkpt>
      <trkpt lat="45.53372" lon="6.76121">
        <ele>1511.6</ele>
        <time>2021-08-03T11:04:31Z</time>
      </trkpt>
      <trkpt lat="45.53371" lon="6.76121">
        <ele>1511.6</ele>
        <time>2021-08-03T11:04:32Z</time>
      </trkpt>
      <trkpt lat="45.53371" lon="6.7612">
        <ele>1511.6</ele>
        <time>2021-08-03T11:04:33Z</time>
      </trkpt>
      <trkpt lat="45.53371" lon="6.76119">
        <ele>1511.6</ele>
        <time>2021-08-03T11:04:34Z</time>
      </trkpt>
      <trkpt lat="45.53371" lon="6.76119">
        <ele>1511.7</ele>
        <time>2021-08-03T11:04:35Z</time>
      </trkpt>
      <trkpt lat="45.53371" lon="6.76118">
        <ele>1511.7</ele>
        <time>2021-08-03T11:04:36Z</time>
      </trkpt>
      <trkpt lat="45.53371" lon="6.76117">
        <ele>1511.7</ele>
        <time>2021-08-03T11:04:37Z</time>
      </trkpt>
      <trkpt lat="45.53371" lon="6.76117">
        <ele>1511.7</ele>
        <time>2021-08-03T11:04:38Z</time>
      </trkpt>
      <trkpt lat="45.53371" lon="6.76116">
        <ele>1511.8</ele>
        <time>2021-08-03T11:04:39Z</time>
      </trkpt>
      <trkpt lat="45.53371" lon="6.76116">
        <ele>1511.8</ele>
        <time>2021-08-03T11:04:40Z</time>
      </trkpt>
      <trkpt lat="45.53371" lon="6.76115">
        <ele>1511.8</ele>
        <time>2021-08-03T11:04:41Z</time>
      </trkpt>
      <trkpt lat="45.5337" lon="6.76114">
        <ele>1511.8</ele>
        <time>2021-08-03T11:04:42Z</time>
      </trkpt>
      <trkpt lat="45.5337" lon="6.76114">
        <ele>1511.9</ele>
        <time>2021-08-03T11:04:43Z</time>
      </trkpt>
      <trkpt lat="45.5337" lon="6.76113">
        <ele>1511.9</ele>
        <time>2021-08-03T11:04:44Z</time>
      </trkpt>
      <trkpt lat="45.5337" lon="6.76112">
        <ele>1511.9</ele>
        <time>2021-08-03T11:04:45Z</time>
      </trkpt>
      <trkpt lat="45.5337" lon="6.76112">
        <ele>1511.9</ele>
        <time>2021-08-03T11:04:46Z</time>
      </trkpt>
      <trkpt lat="45.5337" lon="6.76111">
        <ele>1512</ele>
        <time>2021-08-03T11:04:47Z</time>
      </trkpt>
      <trkpt lat="45.5337" lon="6.7611">
        <ele>1512</ele>
        <time>2021-08-03T11:04:48Z</time>
      </trkpt>
      <trkpt lat="45.5337" lon="6.7611">
        <ele>1512</ele>
        <time>2021-08-03T11:04:49Z</time>
      </trkpt>
      <trkpt lat="45.5337" lon="6.76109">
        <ele>1512</ele>
        <time>2021-08-03T11:04:50Z</time>
      </trkpt>
      <trkpt lat="45.5337" lon="6.76108">
        <ele>1512.1</ele>
        <time>2021-08-03T11:04:51Z</time>
      </trkpt>
      <trkpt lat="45.5337" lon="6.76108">
        <ele>1512.1</ele>
        <time>2021-08-03T11:04:52Z</time>
      </trkpt>
      <trkpt lat="45.53369" lon="6.76107">
        <ele>1512.1</ele>
        <time>2021-08-03T11:04:53Z</time>
      </trkpt>
      <trkpt lat="45.53369" lon="6.76107">
        <ele>1512.1</ele>
        <time>2021-08-03T11:04:54Z</time>
      </trkpt>
      <trkpt lat="45.53369" lon="6.76106">
        <ele>1512.2</ele>
        <time>2021-08-03T11:04:55Z</time>
      </trkpt>
      <trkpt lat="45.53369" lon="6.76105">
        <ele>1512.2</ele>
        <time>2021-08-03T11:04:56Z</time>
      </trkpt>
      <trkpt lat="45.53369" lon="6.76105">
        <ele>1512.2</ele>
        <time>2021-08-03T11:04:57Z</time>
      </trkpt>
      <trkpt lat="45.53369" lon="6.76104">
        <ele>1512.2</ele>
        <time>2021-08-03T11:04:58Z</time>
      </trkpt>
      <trkpt lat="45.53369" lon="6.76103">
        <ele>1512.3</ele>
        <time>2021-08-03T11:04:59Z</time>
      </trkpt>
      <trkpt lat="45.53369" lon="6.76103">
        <ele>1512.3</ele>
        <time>2021-08-03T11:05:00Z</time>
      </trkpt>
      <trkpt lat="45.53369" lon="6.76102">
        <ele>1512.3</ele>
        <time>2021-08-03T11:05:01Z</time>
      </trkpt>
      <trkpt lat="45.53369" lon="6.76101">
        <ele>1512.3</ele>
        <time>2021-08-03T11:05:02Z</time>
      </trkpt>
      <trkpt lat="45.53368" lon="6.76101">
        <ele>1512.4</ele>
        <time>2021-08-03T11:05:03Z</time>
      </trkpt>
      <trkpt lat="45.53368" lon="6.761">
        <ele>1512.4</ele>
        <time>2021-08-03T11:05:04Z</time>
      </trkpt>
      <trkpt lat="45.53368" lon="6.761">
        <ele>1512.4</ele>
        <time>2021-08-03T11:05:05Z</time>
      </trkpt>
      <trkpt lat="45.53368" lon="6.76099">
        <ele>1512.4</ele>
        <time>2021-08-03T11:05:06Z</time>
      </trkpt>
      <trkpt lat="45.53368" lon="6.76098">
        <ele>1512.5</ele>
        <time>2021-08-03T11:05:07Z</time>
      </trkpt>
      <trkpt lat="45.53368" lon="6.76098">
        <ele>1512.5</ele>
        <time>2021-08-03T11:05:08Z</time>
      </trkpt>
      <trkpt lat="45.53368" lon="6.76097">
        <ele>1512.5</ele>
        <time>2021-08-03T11:05:09Z</time>
      </trkpt>
      <trkpt lat="45.53368" lon="6.76096">
        <ele>1512.6</ele>
        <time>2021-08-03T11:05:10Z</time>
      </trkpt>
      <trkpt lat="45.53368" lon="6.76096">
        <ele>1512.6</ele>
        <time>2021-08-03T11:05:11Z</time>
      </trkpt>
      <trkpt lat="45.53368" lon="6.76095">
        <ele>1512.6</ele>
        <time>2021-08-03T11:05:12Z</time>
      </trkpt>
      <trkpt lat="45.53368" lon="6.76094">
        <ele>1512.7</ele>
        <time>2021-08-03T11:05:13Z</time>
      </trkpt>
      <trkpt lat="45.53367" lon="6.76094">
        <ele>1512.7</ele>
        <time>2021-08-03T11:05:14Z</time>
      </trkpt>
      <trkpt lat="45.53367" lon="6.76093">
        <ele>1512.7</ele>
        <time>2021-08-03T11:05:15Z</time>
      </trkpt>
      <trkpt lat="45.53367" lon="6.76092">
        <ele>1512.8</ele>
        <time>2021-08-03T11:05:16Z</time>
      </trkpt>
      <trkpt lat="45.53367" lon="6.76092">
        <ele>1512.8</ele>
        <time>2021-08-03T11:05:17Z</time>
      </trkpt>
      <trkpt lat="45.53367" lon="6.76091">
        <ele>1512.8</ele>
        <time>2021-08-03T11:05:18Z</time>
      </trkpt>
      <trkpt lat="45.53367" lon="6.76091">
        <ele>1512.9</ele>
        <time>2021-08-03T11:05:19Z</time>
      </trkpt>
      <trkpt lat="45.53366" lon="6.7609">
        <ele>1513</ele>
        <time>2021-08-03T11:05:20Z</time>
      </trkpt>
      <trkpt lat="45.53364" lon="6.76089">
        <ele>1513.1</ele>
        <time>2021-08-03T11:05:21Z</time>
      </trkpt>
      <trkpt lat="45.53363" lon="6.76088">
        <ele>1513.2</ele>
        <time>2021-08-03T11:05:22Z</time>
      </trkpt>
      <trkpt lat="45.53361" lon="6.76088">
        <ele>1513.3</ele>
        <time>2021-08-03T11:05:23Z</time>
      </trkpt>
      <trkpt lat="45.5336" lon="6.76087">
        <ele>1513.5</ele>
        <time>2021-08-03T11:05:24Z</time>
      </trkpt>
      <trkpt lat="45.53359" lon="6.76086">
        <ele>1513.6</ele>
        <time>2021-08-03T11:05:25Z</time>
      </trkpt>
      <trkpt lat="45.53358" lon="6.76086">
        <ele>1513.7</ele>
        <time>2021-08-03T11:05:26Z</time>
      </trkpt>
      <trkpt lat="45.53357" lon="6.76085">
        <ele>1513.8</ele>
        <time>2021-08-03T11:05:27Z</time>
      </trkpt>
      <trkpt lat="45.53356" lon="6.76084">
        <ele>1513.9</ele>
        <time>2021-08-03T11:05:28Z</time>
      </trkpt>
      <trkpt lat="45.53355" lon="6.76084">
        <ele>1514</ele>
        <time>2021-08-03T11:05:29Z</time>
      </trkpt>
      <trkpt lat="45.53354" lon="6.76083">
        <ele>1514.1</ele>
        <time>2021-08-03T11:05:30Z</time>
      </trkpt>
      <trkpt lat="45.53353" lon="6.76082">
        <ele>1514.2</ele>
        <time>2021-08-03T11:05:31Z</time>
      </trkpt>
      <trkpt lat="45.53352" lon="6.76081">
        <ele>1514.3</ele>
        <time>2021-08-03T11:05:32Z</time>
      </trkpt>
      <trkpt lat="45.53351" lon="6.76081">
        <ele>1514.4</ele>
        <time>2021-08-03T11:05:33Z</time>
      </trkpt>
      <trkpt lat="45.5335" lon="6.7608">
        <ele>1514.5</ele>
        <time>2021-08-03T11:05:34Z</time>
      </trkpt>
      <trkpt lat="45.53348" lon="6.76079">
        <ele>1514.6</ele>
        <time>2021-08-03T11:05:35Z</time>
      </trkpt>
      <trkpt lat="45.53347" lon="6.76078">
        <ele>1514.7</ele>
        <time>2021-08-03T11:05:36Z</time>
      </trkpt>
      <trkpt lat="45.53346" lon="6.76078">
        <ele>1514.9</ele>
        <time>2021-08-03T11:05:37Z</time>
      </trkpt>
      <trkpt lat="45.53345" lon="6.76077">
        <ele>1515</ele>
        <time>2021-08-03T11:05:38Z</time>
      </trkpt>
      <trkpt lat="45.53344" lon="6.76076">
        <ele>1515.1</ele>
        <time>2021-08-03T11:05:39Z</time>
      </trkpt>
      <trkpt lat="45.53344" lon="6.76076">
        <ele>1515.1</ele>
        <time>2021-08-03T11:05:40Z</time>
      </trkpt>
      <trkpt lat="45.53343" lon="6.76075">
        <ele>1515.2</ele>
        <time>2021-08-03T11:05:41Z</time>
      </trkpt>
      <trkpt lat="45.53343" lon="6.76075">
        <ele>1515.2</ele>
        <time>2021-08-03T11:05:42Z</time>
      </trkpt>
      <trkpt lat="45.53343" lon="6.76075">
        <ele>1515.2</ele>
        <time>2021-08-03T11:05:43Z</time>
      </trkpt>
      <trkpt lat="45.53343" lon="6.76075">
        <ele>1515.2</ele>
        <time>2021-08-03T11:05:44Z</time>
      </trkpt>
      <trkpt lat="45.53342" lon="6.76074">
        <ele>1515.3</ele>
        <time>2021-08-03T11:05:45Z</time>
      </trkpt>
      <trkpt lat="45.53341" lon="6.76073">
        <ele>1515.4</ele>
        <time>2021-08-03T11:05:46Z</time>
      </trkpt>
      <trkpt lat="45.5334" lon="6.76071">
        <ele>1515.6</ele>
        <time>2021-08-03T11:05:47Z</time>
      </trkpt>
      <trkpt lat="45.53338" lon="6.76069">
        <ele>1515.8</ele>
        <time>2021-08-03T11:05:48Z</time>
      </trkpt>
      <trkpt lat="45.53337" lon="6.76067">
        <ele>1515.9</ele>
        <time>2021-08-03T11:05:49Z</time>
      </trkpt>
      <trkpt lat="45.53335" lon="6.76065">
        <ele>1516.1</ele>
        <time>2021-08-03T11:05:50Z</time>
      </trkpt>
      <trkpt lat="45.53334" lon="6.76064">
        <ele>1516.2</ele>
        <time>2021-08-03T11:05:51Z</time>
      </trkpt>
      <trkpt lat="45.53333" lon="6.76062">
        <ele>1516.4</ele>
        <time>2021-08-03T11:05:52Z</time>
      </trkpt>
      <trkpt lat="45.53332" lon="6.76061">
        <ele>1516.5</ele>
        <time>2021-08-03T11:05:53Z</time>
      </trkpt>
      <trkpt lat="45.53331" lon="6.7606">
        <ele>1516.6</ele>
        <time>2021-08-03T11:05:54Z</time>
      </trkpt>
      <trkpt lat="45.5333" lon="6.76059">
        <ele>1516.7</ele>
        <time>2021-08-03T11:05:55Z</time>
      </trkpt>
      <trkpt lat="45.53329" lon="6.76057">
        <ele>1516.8</ele>
        <time>2021-08-03T11:05:56Z</time>
      </trkpt>
      <trkpt lat="45.53328" lon="6.76056">
        <ele>1516.9</ele>
        <time>2021-08-03T11:05:57Z</time>
      </trkpt>
      <trkpt lat="45.53327" lon="6.76055">
        <ele>1517</ele>
        <time>2021-08-03T11:05:58Z</time>
      </trkpt>
      <trkpt lat="45.53326" lon="6.76052">
        <ele>1517.1</ele>
        <time>2021-08-03T11:05:59Z</time>
      </trkpt>
      <trkpt lat="45.53325" lon="6.76051">
        <ele>1517.2</ele>
        <time>2021-08-03T11:06:00Z</time>
      </trkpt>
      <trkpt lat="45.53324" lon="6.7605">
        <ele>1517.3</ele>
        <time>2021-08-03T11:06:01Z</time>
      </trkpt>
      <trkpt lat="45.53324" lon="6.76049">
        <ele>1517.4</ele>
        <time>2021-08-03T11:06:02Z</time>
      </trkpt>
      <trkpt lat="45.53323" lon="6.76048">
        <ele>1517.5</ele>
        <time>2021-08-03T11:06:03Z</time>
      </trkpt>
      <trkpt lat="45.53322" lon="6.76047">
        <ele>1517.5</ele>
        <time>2021-08-03T11:06:04Z</time>
      </trkpt>
      <trkpt lat="45.53321" lon="6.76045">
        <ele>1517.6</ele>
        <time>2021-08-03T11:06:05Z</time>
      </trkpt>
      <trkpt lat="45.53321" lon="6.76044">
        <ele>1517.7</ele>
        <time>2021-08-03T11:06:06Z</time>
      </trkpt>
      <trkpt lat="45.5332" lon="6.76043">
        <ele>1517.8</ele>
        <time>2021-08-03T11:06:07Z</time>
      </trkpt>
      <trkpt lat="45.53319" lon="6.76041">
        <ele>1517.9</ele>
        <time>2021-08-03T11:06:08Z</time>
      </trkpt>
      <trkpt lat="45.53319" lon="6.7604">
        <ele>1517.9</ele>
        <time>2021-08-03T11:06:09Z</time>
      </trkpt>
      <trkpt lat="45.53318" lon="6.76039">
        <ele>1518</ele>
        <time>2021-08-03T11:06:10Z</time>
      </trkpt>
      <trkpt lat="45.53317" lon="6.76038">
        <ele>1518.1</ele>
        <time>2021-08-03T11:06:11Z</time>
      </trkpt>
      <trkpt lat="45.53316" lon="6.76036">
        <ele>1518.2</ele>
        <time>2021-08-03T11:06:12Z</time>
      </trkpt>
      <trkpt lat="45.53315" lon="6.76035">
        <ele>1518.2</ele>
        <time>2021-08-03T11:06:13Z</time>
      </trkpt>
      <trkpt lat="45.53315" lon="6.76034">
        <ele>1518.3</ele>
        <time>2021-08-03T11:06:14Z</time>
      </trkpt>
      <trkpt lat="45.53314" lon="6.76032">
        <ele>1518.4</ele>
        <time>2021-08-03T11:06:15Z</time>
      </trkpt>
      <trkpt lat="45.53313" lon="6.76031">
        <ele>1518.5</ele>
        <time>2021-08-03T11:06:16Z</time>
      </trkpt>
      <trkpt lat="45.53312" lon="6.76029">
        <ele>1518.5</ele>
        <time>2021-08-03T11:06:17Z</time>
      </trkpt>
      <trkpt lat="45.53311" lon="6.76028">
        <ele>1518.6</ele>
        <time>2021-08-03T11:06:18Z</time>
      </trkpt>
      <trkpt lat="45.53311" lon="6.76026">
        <ele>1518.7</ele>
        <time>2021-08-03T11:06:19Z</time>
      </trkpt>
      <trkpt lat="45.5331" lon="6.76025">
        <ele>1518.8</ele>
        <time>2021-08-03T11:06:20Z</time>
      </trkpt>
      <trkpt lat="45.53309" lon="6.76023">
        <ele>1518.8</ele>
        <time>2021-08-03T11:06:21Z</time>
      </trkpt>
      <trkpt lat="45.53309" lon="6.76022">
        <ele>1518.9</ele>
        <time>2021-08-03T11:06:22Z</time>
      </trkpt>
      <trkpt lat="45.53308" lon="6.76021">
        <ele>1519</ele>
        <time>2021-08-03T11:06:23Z</time>
      </trkpt>
      <trkpt lat="45.53308" lon="6.76019">
        <ele>1519</ele>
        <time>2021-08-03T11:06:24Z</time>
      </trkpt>
      <trkpt lat="45.53308" lon="6.76018">
        <ele>1519.1</ele>
        <time>2021-08-03T11:06:25Z</time>
      </trkpt>
      <trkpt lat="45.53308" lon="6.76016">
        <ele>1519.1</ele>
        <time>2021-08-03T11:06:26Z</time>
      </trkpt>
      <trkpt lat="45.53308" lon="6.76015">
        <ele>1519.2</ele>
        <time>2021-08-03T11:06:27Z</time>
      </trkpt>
      <trkpt lat="45.53308" lon="6.76013">
        <ele>1519.2</ele>
        <time>2021-08-03T11:06:28Z</time>
      </trkpt>
      <trkpt lat="45.53308" lon="6.76012">
        <ele>1519.3</ele>
        <time>2021-08-03T11:06:29Z</time>
      </trkpt>
      <trkpt lat="45.53308" lon="6.76011">
        <ele>1519.4</ele>
        <time>2021-08-03T11:06:30Z</time>
      </trkpt>
      <trkpt lat="45.53308" lon="6.76009">
        <ele>1519.4</ele>
        <time>2021-08-03T11:06:31Z</time>
      </trkpt>
      <trkpt lat="45.53309" lon="6.76008">
        <ele>1519.5</ele>
        <time>2021-08-03T11:06:32Z</time>
      </trkpt>
      <trkpt lat="45.53309" lon="6.76007">
        <ele>1519.5</ele>
        <time>2021-08-03T11:06:33Z</time>
      </trkpt>
      <trkpt lat="45.5331" lon="6.76005">
        <ele>1519.6</ele>
        <time>2021-08-03T11:06:34Z</time>
      </trkpt>
      <trkpt lat="45.5331" lon="6.76004">
        <ele>1519.7</ele>
        <time>2021-08-03T11:06:35Z</time>
      </trkpt>
      <trkpt lat="45.53311" lon="6.76003">
        <ele>1519.7</ele>
        <time>2021-08-03T11:06:36Z</time>
      </trkpt>
      <trkpt lat="45.53311" lon="6.76002">
        <ele>1519.8</ele>
        <time>2021-08-03T11:06:37Z</time>
      </trkpt>
      <trkpt lat="45.53312" lon="6.76001">
        <ele>1519.9</ele>
        <time>2021-08-03T11:06:38Z</time>
      </trkpt>
      <trkpt lat="45.53313" lon="6.76">
        <ele>1519.9</ele>
        <time>2021-08-03T11:06:39Z</time>
      </trkpt>
      <trkpt lat="45.53314" lon="6.75999">
        <ele>1520</ele>
        <time>2021-08-03T11:06:40Z</time>
      </trkpt>
      <trkpt lat="45.53314" lon="6.75998">
        <ele>1520.1</ele>
        <time>2021-08-03T11:06:41Z</time>
      </trkpt>
      <trkpt lat="45.53315" lon="6.75997">
        <ele>1520.2</ele>
        <time>2021-08-03T11:06:42Z</time>
      </trkpt>
      <trkpt lat="45.53316" lon="6.75996">
        <ele>1520.3</ele>
        <time>2021-08-03T11:06:43Z</time>
      </trkpt>
      <trkpt lat="45.53317" lon="6.75995">
        <ele>1520.4</ele>
        <time>2021-08-03T11:06:44Z</time>
      </trkpt>
      <trkpt lat="45.53318" lon="6.75994">
        <ele>1520.5</ele>
        <time>2021-08-03T11:06:45Z</time>
      </trkpt>
      <trkpt lat="45.53319" lon="6.75993">
        <ele>1520.6</ele>
        <time>2021-08-03T11:06:46Z</time>
      </trkpt>
      <trkpt lat="45.5332" lon="6.75992">
        <ele>1520.7</ele>
        <time>2021-08-03T11:06:47Z</time>
      </trkpt>
      <trkpt lat="45.53321" lon="6.75991">
        <ele>1520.8</ele>
        <time>2021-08-03T11:06:48Z</time>
      </trkpt>
      <trkpt lat="45.53322" lon="6.75991">
        <ele>1520.9</ele>
        <time>2021-08-03T11:06:49Z</time>
      </trkpt>
      <trkpt lat="45.53323" lon="6.7599">
        <ele>1521</ele>
        <time>2021-08-03T11:06:50Z</time>
      </trkpt>
      <trkpt lat="45.53324" lon="6.75989">
        <ele>1521.1</ele>
        <time>2021-08-03T11:06:51Z</time>
      </trkpt>
      <trkpt lat="45.53325" lon="6.75988">
        <ele>1521.2</ele>
        <time>2021-08-03T11:06:52Z</time>
      </trkpt>
      <trkpt lat="45.53326" lon="6.75987">
        <ele>1521.3</ele>
        <time>2021-08-03T11:06:53Z</time>
      </trkpt>
      <trkpt lat="45.53327" lon="6.75987">
        <ele>1521.4</ele>
        <time>2021-08-03T11:06:54Z</time>
      </trkpt>
      <trkpt lat="45.53329" lon="6.75986">
        <ele>1521.5</ele>
        <time>2021-08-03T11:06:55Z</time>
      </trkpt>
      <trkpt lat="45.5333" lon="6.75985">
        <ele>1521.6</ele>
        <time>2021-08-03T11:06:56Z</time>
      </trkpt>
      <trkpt lat="45.53331" lon="6.75985">
        <ele>1521.7</ele>
        <time>2021-08-03T11:06:57Z</time>
      </trkpt>
      <trkpt lat="45.53332" lon="6.75984">
        <ele>1521.8</ele>
        <time>2021-08-03T11:06:58Z</time>
      </trkpt>
      <trkpt lat="45.53333" lon="6.75984">
        <ele>1521.9</ele>
        <time>2021-08-03T11:06:59Z</time>
      </trkpt>
      <trkpt lat="45.53334" lon="6.75983">
        <ele>1522</ele>
        <time>2021-08-03T11:07:00Z</time>
      </trkpt>
      <trkpt lat="45.53335" lon="6.75982">
        <ele>1522.1</ele>
        <time>2021-08-03T11:07:01Z</time>
      </trkpt>
      <trkpt lat="45.53336" lon="6.75982">
        <ele>1522.2</ele>
        <time>2021-08-03T11:07:02Z</time>
      </trkpt>
      <trkpt lat="45.53337" lon="6.75981">
        <ele>1522.3</ele>
        <time>2021-08-03T11:07:03Z</time>
      </trkpt>
      <trkpt lat="45.53338" lon="6.7598">
        <ele>1522.5</ele>
        <time>2021-08-03T11:07:04Z</time>
      </trkpt>
      <trkpt lat="45.53339" lon="6.75979">
        <ele>1522.6</ele>
        <time>2021-08-03T11:07:05Z</time>
      </trkpt>
      <trkpt lat="45.5334" lon="6.75978">
        <ele>1522.7</ele>
        <time>2021-08-03T11:07:06Z</time>
      </trkpt>
      <trkpt lat="45.53341" lon="6.75976">
        <ele>1522.8</ele>
        <time>2021-08-03T11:07:07Z</time>
      </trkpt>
      <trkpt lat="45.53341" lon="6.75975">
        <ele>1522.9</ele>
        <time>2021-08-03T11:07:08Z</time>
      </trkpt>
      <trkpt lat="45.53342" lon="6.75973">
        <ele>1523</ele>
        <time>2021-08-03T11:07:09Z</time>
      </trkpt>
      <trkpt lat="45.53343" lon="6.75972">
        <ele>1523.1</ele>
        <time>2021-08-03T11:07:10Z</time>
      </trkpt>
      <trkpt lat="45.53343" lon="6.7597">
        <ele>1523.2</ele>
        <time>2021-08-03T11:07:11Z</time>
      </trkpt>
      <trkpt lat="45.53344" lon="6.75968">
        <ele>1523.4</ele>
        <time>2021-08-03T11:07:12Z</time>
      </trkpt>
      <trkpt lat="45.53344" lon="6.75966">
        <ele>1523.5</ele>
        <time>2021-08-03T11:07:13Z</time>
      </trkpt>
      <trkpt lat="45.53345" lon="6.75964">
        <ele>1523.6</ele>
        <time>2021-08-03T11:07:14Z</time>
      </trkpt>
      <trkpt lat="45.53345" lon="6.75962">
        <ele>1523.7</ele>
        <time>2021-08-03T11:07:15Z</time>
      </trkpt>
      <trkpt lat="45.53346" lon="6.75961">
        <ele>1523.9</ele>
        <time>2021-08-03T11:07:16Z</time>
      </trkpt>
      <trkpt lat="45.53346" lon="6.75959">
        <ele>1524</ele>
        <time>2021-08-03T11:07:17Z</time>
      </trkpt>
      <trkpt lat="45.53346" lon="6.75957">
        <ele>1524.1</ele>
        <time>2021-08-03T11:07:18Z</time>
      </trkpt>
      <trkpt lat="45.53347" lon="6.75955">
        <ele>1524.2</ele>
        <time>2021-08-03T11:07:19Z</time>
      </trkpt>
      <trkpt lat="45.53347" lon="6.75954">
        <ele>1524.4</ele>
        <time>2021-08-03T11:07:20Z</time>
      </trkpt>
      <trkpt lat="45.53348" lon="6.75952">
        <ele>1524.5</ele>
        <time>2021-08-03T11:07:21Z</time>
      </trkpt>
      <trkpt lat="45.53348" lon="6.7595">
        <ele>1524.6</ele>
        <time>2021-08-03T11:07:22Z</time>
      </trkpt>
      <trkpt lat="45.53348" lon="6.75948">
        <ele>1524.8</ele>
        <time>2021-08-03T11:07:23Z</time>
      </trkpt>
      <trkpt lat="45.53348" lon="6.75946">
        <ele>1524.9</ele>
        <time>2021-08-03T11:07:24Z</time>
      </trkpt>
      <trkpt lat="45.53349" lon="6.75945">
        <ele>1525</ele>
        <time>2021-08-03T11:07:25Z</time>
      </trkpt>
      <trkpt lat="45.53349" lon="6.75943">
        <ele>1525.2</ele>
        <time>2021-08-03T11:07:26Z</time>
      </trkpt>
      <trkpt lat="45.53349" lon="6.75941">
        <ele>1525.3</ele>
        <time>2021-08-03T11:07:27Z</time>
      </trkpt>
      <trkpt lat="45.53349" lon="6.75939">
        <ele>1525.4</ele>
        <time>2021-08-03T11:07:28Z</time>
      </trkpt>
      <trkpt lat="45.53349" lon="6.75937">
        <ele>1525.6</ele>
        <time>2021-08-03T11:07:29Z</time>
      </trkpt>
      <trkpt lat="45.5335" lon="6.75936">
        <ele>1525.7</ele>
        <time>2021-08-03T11:07:30Z</time>
      </trkpt>
      <trkpt lat="45.5335" lon="6.75934">
        <ele>1525.8</ele>
        <time>2021-08-03T11:07:31Z</time>
      </trkpt>
      <trkpt lat="45.53351" lon="6.75933">
        <ele>1525.9</ele>
        <time>2021-08-03T11:07:32Z</time>
      </trkpt>
      <trkpt lat="45.53352" lon="6.75931">
        <ele>1526</ele>
        <time>2021-08-03T11:07:33Z</time>
      </trkpt>
      <trkpt lat="45.53353" lon="6.7593">
        <ele>1526.2</ele>
        <time>2021-08-03T11:07:34Z</time>
      </trkpt>
      <trkpt lat="45.53353" lon="6.75929">
        <ele>1526.3</ele>
        <time>2021-08-03T11:07:35Z</time>
      </trkpt>
      <trkpt lat="45.53354" lon="6.75928">
        <ele>1526.4</ele>
        <time>2021-08-03T11:07:36Z</time>
      </trkpt>
      <trkpt lat="45.53355" lon="6.75927">
        <ele>1526.5</ele>
        <time>2021-08-03T11:07:37Z</time>
      </trkpt>
      <trkpt lat="45.53356" lon="6.75926">
        <ele>1526.7</ele>
        <time>2021-08-03T11:07:38Z</time>
      </trkpt>
      <trkpt lat="45.53357" lon="6.75925">
        <ele>1526.8</ele>
        <time>2021-08-03T11:07:39Z</time>
      </trkpt>
      <trkpt lat="45.53359" lon="6.75924">
        <ele>1526.9</ele>
        <time>2021-08-03T11:07:40Z</time>
      </trkpt>
      <trkpt lat="45.5336" lon="6.75923">
        <ele>1527.1</ele>
        <time>2021-08-03T11:07:41Z</time>
      </trkpt>
      <trkpt lat="45.53361" lon="6.75922">
        <ele>1527.2</ele>
        <time>2021-08-03T11:07:42Z</time>
      </trkpt>
      <trkpt lat="45.53361" lon="6.7592">
        <ele>1527.3</ele>
        <time>2021-08-03T11:07:43Z</time>
      </trkpt>
      <trkpt lat="45.53362" lon="6.75919">
        <ele>1527.5</ele>
        <time>2021-08-03T11:07:44Z</time>
      </trkpt>
      <trkpt lat="45.53363" lon="6.75918">
        <ele>1527.6</ele>
        <time>2021-08-03T11:07:45Z</time>
      </trkpt>
      <trkpt lat="45.53364" lon="6.75916">
        <ele>1527.7</ele>
        <time>2021-08-03T11:07:46Z</time>
      </trkpt>
      <trkpt lat="45.53365" lon="6.75915">
        <ele>1527.9</ele>
        <time>2021-08-03T11:07:47Z</time>
      </trkpt>
      <trkpt lat="45.53365" lon="6.75914">
        <ele>1528</ele>
        <time>2021-08-03T11:07:48Z</time>
      </trkpt>
      <trkpt lat="45.53366" lon="6.75912">
        <ele>1528.1</ele>
        <time>2021-08-03T11:07:49Z</time>
      </trkpt>
      <trkpt lat="45.53366" lon="6.75911">
        <ele>1528.2</ele>
        <time>2021-08-03T11:07:50Z</time>
      </trkpt>
      <trkpt lat="45.53367" lon="6.75909">
        <ele>1528.4</ele>
        <time>2021-08-03T11:07:51Z</time>
      </trkpt>
      <trkpt lat="45.53367" lon="6.75907">
        <ele>1528.5</ele>
        <time>2021-08-03T11:07:52Z</time>
      </trkpt>
      <trkpt lat="45.53367" lon="6.75906">
        <ele>1528.6</ele>
        <time>2021-08-03T11:07:53Z</time>
      </trkpt>
      <trkpt lat="45.53368" lon="6.75904">
        <ele>1528.7</ele>
        <time>2021-08-03T11:07:54Z</time>
      </trkpt>
      <trkpt lat="45.53368" lon="6.75903">
        <ele>1528.9</ele>
        <time>2021-08-03T11:07:55Z</time>
      </trkpt>
      <trkpt lat="45.53369" lon="6.75901">
        <ele>1529</ele>
        <time>2021-08-03T11:07:56Z</time>
      </trkpt>
      <trkpt lat="45.5337" lon="6.759">
        <ele>1529.1</ele>
        <time>2021-08-03T11:07:57Z</time>
      </trkpt>
      <trkpt lat="45.5337" lon="6.75898">
        <ele>1529.3</ele>
        <time>2021-08-03T11:07:58Z</time>
      </trkpt>
      <trkpt lat="45.53371" lon="6.75897">
        <ele>1529.4</ele>
        <time>2021-08-03T11:07:59Z</time>
      </trkpt>
      <trkpt lat="45.53372" lon="6.75896">
        <ele>1529.5</ele>
        <time>2021-08-03T11:08:00Z</time>
      </trkpt>
      <trkpt lat="45.53373" lon="6.75894">
        <ele>1529.7</ele>
        <time>2021-08-03T11:08:01Z</time>
      </trkpt>
      <trkpt lat="45.53374" lon="6.75893">
        <ele>1529.8</ele>
        <time>2021-08-03T11:08:02Z</time>
      </trkpt>
      <trkpt lat="45.53375" lon="6.75891">
        <ele>1530</ele>
        <time>2021-08-03T11:08:03Z</time>
      </trkpt>
      <trkpt lat="45.53375" lon="6.7589">
        <ele>1530.1</ele>
        <time>2021-08-03T11:08:04Z</time>
      </trkpt>
      <trkpt lat="45.53376" lon="6.75889">
        <ele>1530.2</ele>
        <time>2021-08-03T11:08:05Z</time>
      </trkpt>
      <trkpt lat="45.53377" lon="6.75887">
        <ele>1530.3</ele>
        <time>2021-08-03T11:08:06Z</time>
      </trkpt>
      <trkpt lat="45.53377" lon="6.75886">
        <ele>1530.5</ele>
        <time>2021-08-03T11:08:07Z</time>
      </trkpt>
      <trkpt lat="45.53378" lon="6.75884">
        <ele>1530.6</ele>
        <time>2021-08-03T11:08:08Z</time>
      </trkpt>
      <trkpt lat="45.53378" lon="6.75883">
        <ele>1530.7</ele>
        <time>2021-08-03T11:08:09Z</time>
      </trkpt>
      <trkpt lat="45.53379" lon="6.75881">
        <ele>1530.8</ele>
        <time>2021-08-03T11:08:10Z</time>
      </trkpt>
      <trkpt lat="45.53379" lon="6.7588">
        <ele>1530.9</ele>
        <time>2021-08-03T11:08:11Z</time>
      </trkpt>
      <trkpt lat="45.53379" lon="6.75878">
        <ele>1531.1</ele>
        <time>2021-08-03T11:08:12Z</time>
      </trkpt>
      <trkpt lat="45.53379" lon="6.75877">
        <ele>1531.2</ele>
        <time>2021-08-03T11:08:13Z</time>
      </trkpt>
      <trkpt lat="45.5338" lon="6.75875">
        <ele>1531.3</ele>
        <time>2021-08-03T11:08:14Z</time>
      </trkpt>
      <trkpt lat="45.5338" lon="6.75873">
        <ele>1531.4</ele>
        <time>2021-08-03T11:08:15Z</time>
      </trkpt>
      <trkpt lat="45.5338" lon="6.75872">
        <ele>1531.5</ele>
        <time>2021-08-03T11:08:16Z</time>
      </trkpt>
      <trkpt lat="45.5338" lon="6.7587">
        <ele>1531.7</ele>
        <time>2021-08-03T11:08:17Z</time>
      </trkpt>
      <trkpt lat="45.5338" lon="6.75868">
        <ele>1531.8</ele>
        <time>2021-08-03T11:08:18Z</time>
      </trkpt>
      <trkpt lat="45.5338" lon="6.75867">
        <ele>1532.3</ele>
        <time>2021-08-03T11:08:19Z</time>
      </trkpt>
      <trkpt lat="45.5338" lon="6.75865">
        <ele>1532.5</ele>
        <time>2021-08-03T11:08:20Z</time>
      </trkpt>
      <trkpt lat="45.5338" lon="6.75863">
        <ele>1532.6</ele>
        <time>2021-08-03T11:08:21Z</time>
      </trkpt>
      <trkpt lat="45.5338" lon="6.75861">
        <ele>1532.8</ele>
        <time>2021-08-03T11:08:22Z</time>
      </trkpt>
      <trkpt lat="45.5338" lon="6.75859">
        <ele>1533</ele>
        <time>2021-08-03T11:08:23Z</time>
      </trkpt>
      <trkpt lat="45.5338" lon="6.75857">
        <ele>1533.2</ele>
        <time>2021-08-03T11:08:24Z</time>
      </trkpt>
      <trkpt lat="45.53379" lon="6.75855">
        <ele>1533.3</ele>
        <time>2021-08-03T11:08:25Z</time>
      </trkpt>
      <trkpt lat="45.53379" lon="6.75853">
        <ele>1533.5</ele>
        <time>2021-08-03T11:08:26Z</time>
      </trkpt>
      <trkpt lat="45.53379" lon="6.75852">
        <ele>1533.6</ele>
        <time>2021-08-03T11:08:27Z</time>
      </trkpt>
      <trkpt lat="45.53379" lon="6.75851">
        <ele>1533.6</ele>
        <time>2021-08-03T11:08:28Z</time>
      </trkpt>
      <trkpt lat="45.53378" lon="6.75851">
        <ele>1533.7</ele>
        <time>2021-08-03T11:08:29Z</time>
      </trkpt>
      <trkpt lat="45.53378" lon="6.75851">
        <ele>1533.7</ele>
        <time>2021-08-03T11:08:30Z</time>
      </trkpt>
      <trkpt lat="45.53378" lon="6.7585">
        <ele>1533.7</ele>
        <time>2021-08-03T11:08:31Z</time>
      </trkpt>
      <trkpt lat="45.53378" lon="6.7585">
        <ele>1533.7</ele>
        <time>2021-08-03T11:08:32Z</time>
      </trkpt>
      <trkpt lat="45.53378" lon="6.7585">
        <ele>1533.7</ele>
        <time>2021-08-03T11:08:33Z</time>
      </trkpt>
      <trkpt lat="45.53378" lon="6.7585">
        <ele>1533.8</ele>
        <time>2021-08-03T11:08:34Z</time>
      </trkpt>
      <trkpt lat="45.53378" lon="6.75849">
        <ele>1533.8</ele>
        <time>2021-08-03T11:08:35Z</time>
      </trkpt>
      <trkpt lat="45.53378" lon="6.75848">
        <ele>1533.9</ele>
        <time>2021-08-03T11:08:36Z</time>
      </trkpt>
      <trkpt lat="45.53378" lon="6.75847">
        <ele>1534</ele>
        <time>2021-08-03T11:08:37Z</time>
      </trkpt>
      <trkpt lat="45.53379" lon="6.75846">
        <ele>1534.1</ele>
        <time>2021-08-03T11:08:38Z</time>
      </trkpt>
      <trkpt lat="45.53379" lon="6.75845">
        <ele>1534.2</ele>
        <time>2021-08-03T11:08:39Z</time>
      </trkpt>
      <trkpt lat="45.53379" lon="6.75843">
        <ele>1534.3</ele>
        <time>2021-08-03T11:08:40Z</time>
      </trkpt>
      <trkpt lat="45.53379" lon="6.75842">
        <ele>1534.4</ele>
        <time>2021-08-03T11:08:41Z</time>
      </trkpt>
      <trkpt lat="45.53379" lon="6.7584">
        <ele>1534.5</ele>
        <time>2021-08-03T11:08:42Z</time>
      </trkpt>
      <trkpt lat="45.53379" lon="6.75839">
        <ele>1534.6</ele>
        <time>2021-08-03T11:08:43Z</time>
      </trkpt>
      <trkpt lat="45.53379" lon="6.75838">
        <ele>1534.8</ele>
        <time>2021-08-03T11:08:44Z</time>
      </trkpt>
      <trkpt lat="45.53379" lon="6.75837">
        <ele>1534.8</ele>
        <time>2021-08-03T11:08:45Z</time>
      </trkpt>
      <trkpt lat="45.53379" lon="6.75835">
        <ele>1534.9</ele>
        <time>2021-08-03T11:08:46Z</time>
      </trkpt>
      <trkpt lat="45.53379" lon="6.75834">
        <ele>1535</ele>
        <time>2021-08-03T11:08:47Z</time>
      </trkpt>
      <trkpt lat="45.53379" lon="6.75833">
        <ele>1535.1</ele>
        <time>2021-08-03T11:08:48Z</time>
      </trkpt>
      <trkpt lat="45.53379" lon="6.75832">
        <ele>1535.2</ele>
        <time>2021-08-03T11:08:49Z</time>
      </trkpt>
      <trkpt lat="45.53379" lon="6.75831">
        <ele>1535.3</ele>
        <time>2021-08-03T11:08:50Z</time>
      </trkpt>
      <trkpt lat="45.53379" lon="6.7583">
        <ele>1535.4</ele>
        <time>2021-08-03T11:08:51Z</time>
      </trkpt>
      <trkpt lat="45.53379" lon="6.75829">
        <ele>1535.4</ele>
        <time>2021-08-03T11:08:52Z</time>
      </trkpt>
      <trkpt lat="45.53379" lon="6.75828">
        <ele>1535.5</ele>
        <time>2021-08-03T11:08:53Z</time>
      </trkpt>
      <trkpt lat="45.53379" lon="6.75827">
        <ele>1535.6</ele>
        <time>2021-08-03T11:08:54Z</time>
      </trkpt>
      <trkpt lat="45.53379" lon="6.75826">
        <ele>1535.7</ele>
        <time>2021-08-03T11:08:55Z</time>
      </trkpt>
      <trkpt lat="45.53379" lon="6.75825">
        <ele>1535.8</ele>
        <time>2021-08-03T11:08:56Z</time>
      </trkpt>
      <trkpt lat="45.53379" lon="6.75824">
        <ele>1535.8</ele>
        <time>2021-08-03T11:08:57Z</time>
      </trkpt>
      <trkpt lat="45.53379" lon="6.75823">
        <ele>1535.9</ele>
        <time>2021-08-03T11:08:58Z</time>
      </trkpt>
      <trkpt lat="45.53379" lon="6.75822">
        <ele>1536</ele>
        <time>2021-08-03T11:08:59Z</time>
      </trkpt>
      <trkpt lat="45.53379" lon="6.75821">
        <ele>1536.1</ele>
        <time>2021-08-03T11:09:00Z</time>
      </trkpt>
      <trkpt lat="45.53379" lon="6.75819">
        <ele>1536.2</ele>
        <time>2021-08-03T11:09:01Z</time>
      </trkpt>
      <trkpt lat="45.5338" lon="6.75818">
        <ele>1536.3</ele>
        <time>2021-08-03T11:09:02Z</time>
      </trkpt>
      <trkpt lat="45.5338" lon="6.75817">
        <ele>1536.4</ele>
        <time>2021-08-03T11:09:03Z</time>
      </trkpt>
      <trkpt lat="45.5338" lon="6.75816">
        <ele>1536.5</ele>
        <time>2021-08-03T11:09:04Z</time>
      </trkpt>
      <trkpt lat="45.5338" lon="6.75814">
        <ele>1536.6</ele>
        <time>2021-08-03T11:09:05Z</time>
      </trkpt>
      <trkpt lat="45.5338" lon="6.75813">
        <ele>1536.7</ele>
        <time>2021-08-03T11:09:06Z</time>
      </trkpt>
      <trkpt lat="45.53381" lon="6.75812">
        <ele>1536.8</ele>
        <time>2021-08-03T11:09:07Z</time>
      </trkpt>
      <trkpt lat="45.53381" lon="6.7581">
        <ele>1536.9</ele>
        <time>2021-08-03T11:09:08Z</time>
      </trkpt>
      <trkpt lat="45.53381" lon="6.75809">
        <ele>1537</ele>
        <time>2021-08-03T11:09:09Z</time>
      </trkpt>
      <trkpt lat="45.53381" lon="6.75808">
        <ele>1537.1</ele>
        <time>2021-08-03T11:09:10Z</time>
      </trkpt>
      <trkpt lat="45.53381" lon="6.75807">
        <ele>1537.2</ele>
        <time>2021-08-03T11:09:11Z</time>
      </trkpt>
      <trkpt lat="45.53381" lon="6.75805">
        <ele>1537.3</ele>
        <time>2021-08-03T11:09:12Z</time>
      </trkpt>
      <trkpt lat="45.53381" lon="6.75804">
        <ele>1537.4</ele>
        <time>2021-08-03T11:09:13Z</time>
      </trkpt>
      <trkpt lat="45.53381" lon="6.75803">
        <ele>1537.5</ele>
        <time>2021-08-03T11:09:14Z</time>
      </trkpt>
      <trkpt lat="45.53381" lon="6.75801">
        <ele>1537.6</ele>
        <time>2021-08-03T11:09:15Z</time>
      </trkpt>
      <trkpt lat="45.5338" lon="6.758">
        <ele>1537.7</ele>
        <time>2021-08-03T11:09:16Z</time>
      </trkpt>
      <trkpt lat="45.5338" lon="6.75799">
        <ele>1537.9</ele>
        <time>2021-08-03T11:09:17Z</time>
      </trkpt>
      <trkpt lat="45.53379" lon="6.75797">
        <ele>1538</ele>
        <time>2021-08-03T11:09:18Z</time>
      </trkpt>
      <trkpt lat="45.53379" lon="6.75796">
        <ele>1538.1</ele>
        <time>2021-08-03T11:09:19Z</time>
      </trkpt>
      <trkpt lat="45.53378" lon="6.75795">
        <ele>1538.2</ele>
        <time>2021-08-03T11:09:20Z</time>
      </trkpt>
      <trkpt lat="45.53377" lon="6.75794">
        <ele>1538.3</ele>
        <time>2021-08-03T11:09:21Z</time>
      </trkpt>
      <trkpt lat="45.53376" lon="6.75792">
        <ele>1538.5</ele>
        <time>2021-08-03T11:09:22Z</time>
      </trkpt>
      <trkpt lat="45.53376" lon="6.75791">
        <ele>1538.6</ele>
        <time>2021-08-03T11:09:23Z</time>
      </trkpt>
      <trkpt lat="45.53375" lon="6.7579">
        <ele>1538.8</ele>
        <time>2021-08-03T11:09:24Z</time>
      </trkpt>
      <trkpt lat="45.53374" lon="6.75788">
        <ele>1538.9</ele>
        <time>2021-08-03T11:09:25Z</time>
      </trkpt>
      <trkpt lat="45.53373" lon="6.75787">
        <ele>1539.1</ele>
        <time>2021-08-03T11:09:26Z</time>
      </trkpt>
      <trkpt lat="45.53372" lon="6.75786">
        <ele>1539.2</ele>
        <time>2021-08-03T11:09:27Z</time>
      </trkpt>
      <trkpt lat="45.53371" lon="6.75785">
        <ele>1539.3</ele>
        <time>2021-08-03T11:09:28Z</time>
      </trkpt>
      <trkpt lat="45.53371" lon="6.75785">
        <ele>1539.4</ele>
        <time>2021-08-03T11:09:29Z</time>
      </trkpt>
      <trkpt lat="45.5337" lon="6.75784">
        <ele>1539.4</ele>
        <time>2021-08-03T11:09:30Z</time>
      </trkpt>
      <trkpt lat="45.53369" lon="6.75782">
        <ele>1539.6</ele>
        <time>2021-08-03T11:09:31Z</time>
      </trkpt>
      <trkpt lat="45.53368" lon="6.75781">
        <ele>1539.7</ele>
        <time>2021-08-03T11:09:32Z</time>
      </trkpt>
      <trkpt lat="45.53368" lon="6.75779">
        <ele>1539.9</ele>
        <time>2021-08-03T11:09:33Z</time>
      </trkpt>
      <trkpt lat="45.53367" lon="6.75778">
        <ele>1540</ele>
        <time>2021-08-03T11:09:34Z</time>
      </trkpt>
      <trkpt lat="45.53366" lon="6.75776">
        <ele>1540.1</ele>
        <time>2021-08-03T11:09:35Z</time>
      </trkpt>
      <trkpt lat="45.53365" lon="6.75775">
        <ele>1540.3</ele>
        <time>2021-08-03T11:09:36Z</time>
      </trkpt>
      <trkpt lat="45.53364" lon="6.75774">
        <ele>1540.4</ele>
        <time>2021-08-03T11:09:37Z</time>
      </trkpt>
      <trkpt lat="45.53364" lon="6.75772">
        <ele>1540.5</ele>
        <time>2021-08-03T11:09:38Z</time>
      </trkpt>
      <trkpt lat="45.53363" lon="6.75771">
        <ele>1540.7</ele>
        <time>2021-08-03T11:09:39Z</time>
      </trkpt>
      <trkpt lat="45.53362" lon="6.75769">
        <ele>1540.8</ele>
        <time>2021-08-03T11:09:40Z</time>
      </trkpt>
      <trkpt lat="45.53361" lon="6.75768">
        <ele>1540.9</ele>
        <time>2021-08-03T11:09:41Z</time>
      </trkpt>
      <trkpt lat="45.53361" lon="6.75766">
        <ele>1541.1</ele>
        <time>2021-08-03T11:09:42Z</time>
      </trkpt>
      <trkpt lat="45.5336" lon="6.75765">
        <ele>1541.2</ele>
        <time>2021-08-03T11:09:43Z</time>
      </trkpt>
      <trkpt lat="45.53359" lon="6.75764">
        <ele>1541.4</ele>
        <time>2021-08-03T11:09:44Z</time>
      </trkpt>
      <trkpt lat="45.53358" lon="6.75762">
        <ele>1541.5</ele>
        <time>2021-08-03T11:09:45Z</time>
      </trkpt>
      <trkpt lat="45.53357" lon="6.75761">
        <ele>1541.6</ele>
        <time>2021-08-03T11:09:46Z</time>
      </trkpt>
      <trkpt lat="45.53357" lon="6.75759">
        <ele>1541.8</ele>
        <time>2021-08-03T11:09:47Z</time>
      </trkpt>
      <trkpt lat="45.53356" lon="6.75758">
        <ele>1541.9</ele>
        <time>2021-08-03T11:09:48Z</time>
      </trkpt>
      <trkpt lat="45.53355" lon="6.75756">
        <ele>1542</ele>
        <time>2021-08-03T11:09:49Z</time>
      </trkpt>
      <trkpt lat="45.53354" lon="6.75755">
        <ele>1542.2</ele>
        <time>2021-08-03T11:09:50Z</time>
      </trkpt>
      <trkpt lat="45.53354" lon="6.75753">
        <ele>1542.3</ele>
        <time>2021-08-03T11:09:51Z</time>
      </trkpt>
      <trkpt lat="45.53353" lon="6.75752">
        <ele>1542.4</ele>
        <time>2021-08-03T11:09:52Z</time>
      </trkpt>
      <trkpt lat="45.53353" lon="6.7575">
        <ele>1542.6</ele>
        <time>2021-08-03T11:09:53Z</time>
      </trkpt>
      <trkpt lat="45.53353" lon="6.75748">
        <ele>1542.7</ele>
        <time>2021-08-03T11:09:54Z</time>
      </trkpt>
      <trkpt lat="45.53353" lon="6.75746">
        <ele>1542.9</ele>
        <time>2021-08-03T11:09:55Z</time>
      </trkpt>
      <trkpt lat="45.53352" lon="6.75744">
        <ele>1543</ele>
        <time>2021-08-03T11:09:56Z</time>
      </trkpt>
      <trkpt lat="45.53352" lon="6.75742">
        <ele>1543.2</ele>
        <time>2021-08-03T11:09:57Z</time>
      </trkpt>
      <trkpt lat="45.53353" lon="6.7574">
        <ele>1543.3</ele>
        <time>2021-08-03T11:09:58Z</time>
      </trkpt>
      <trkpt lat="45.53353" lon="6.75738">
        <ele>1543.5</ele>
        <time>2021-08-03T11:09:59Z</time>
      </trkpt>
      <trkpt lat="45.53353" lon="6.75736">
        <ele>1543.7</ele>
        <time>2021-08-03T11:10:00Z</time>
      </trkpt>
      <trkpt lat="45.53352" lon="6.75734">
        <ele>1543.8</ele>
        <time>2021-08-03T11:10:01Z</time>
      </trkpt>
      <trkpt lat="45.53352" lon="6.75732">
        <ele>1543.9</ele>
        <time>2021-08-03T11:10:02Z</time>
      </trkpt>
      <trkpt lat="45.53352" lon="6.75731">
        <ele>1544.1</ele>
        <time>2021-08-03T11:10:03Z</time>
      </trkpt>
      <trkpt lat="45.53352" lon="6.75729">
        <ele>1544.2</ele>
        <time>2021-08-03T11:10:04Z</time>
      </trkpt>
      <trkpt lat="45.53352" lon="6.75727">
        <ele>1544.3</ele>
        <time>2021-08-03T11:10:05Z</time>
      </trkpt>
      <trkpt lat="45.53352" lon="6.75726">
        <ele>1544.4</ele>
        <time>2021-08-03T11:10:06Z</time>
      </trkpt>
      <trkpt lat="45.53352" lon="6.75724">
        <ele>1544.5</ele>
        <time>2021-08-03T11:10:07Z</time>
      </trkpt>
      <trkpt lat="45.53352" lon="6.75722">
        <ele>1544.7</ele>
        <time>2021-08-03T11:10:08Z</time>
      </trkpt>
      <trkpt lat="45.53351" lon="6.75721">
        <ele>1544.8</ele>
        <time>2021-08-03T11:10:09Z</time>
      </trkpt>
      <trkpt lat="45.53351" lon="6.75719">
        <ele>1544.9</ele>
        <time>2021-08-03T11:10:10Z</time>
      </trkpt>
      <trkpt lat="45.53351" lon="6.75718">
        <ele>1545</ele>
        <time>2021-08-03T11:10:11Z</time>
      </trkpt>
      <trkpt lat="45.53351" lon="6.75716">
        <ele>1545.1</ele>
        <time>2021-08-03T11:10:12Z</time>
      </trkpt>
      <trkpt lat="45.5335" lon="6.75715">
        <ele>1545.2</ele>
        <time>2021-08-03T11:10:13Z</time>
      </trkpt>
      <trkpt lat="45.5335" lon="6.75713">
        <ele>1545.3</ele>
        <time>2021-08-03T11:10:14Z</time>
      </trkpt>
      <trkpt lat="45.5335" lon="6.75712">
        <ele>1545.4</ele>
        <time>2021-08-03T11:10:15Z</time>
      </trkpt>
      <trkpt lat="45.5335" lon="6.7571">
        <ele>1545.5</ele>
        <time>2021-08-03T11:10:16Z</time>
      </trkpt>
      <trkpt lat="45.5335" lon="6.75709">
        <ele>1545.6</ele>
        <time>2021-08-03T11:10:17Z</time>
      </trkpt>
      <trkpt lat="45.5335" lon="6.75707">
        <ele>1545.8</ele>
        <time>2021-08-03T11:10:18Z</time>
      </trkpt>
      <trkpt lat="45.53349" lon="6.75705">
        <ele>1545.9</ele>
        <time>2021-08-03T11:10:19Z</time>
      </trkpt>
      <trkpt lat="45.53349" lon="6.75704">
        <ele>1546</ele>
        <time>2021-08-03T11:10:20Z</time>
      </trkpt>
      <trkpt lat="45.53349" lon="6.75702">
        <ele>1546.1</ele>
        <time>2021-08-03T11:10:21Z</time>
      </trkpt>
      <trkpt lat="45.53349" lon="6.757">
        <ele>1546.3</ele>
        <time>2021-08-03T11:10:22Z</time>
      </trkpt>
      <trkpt lat="45.53349" lon="6.75698">
        <ele>1546.4</ele>
        <time>2021-08-03T11:10:23Z</time>
      </trkpt>
      <trkpt lat="45.53349" lon="6.75697">
        <ele>1546.5</ele>
        <time>2021-08-03T11:10:24Z</time>
      </trkpt>
      <trkpt lat="45.53349" lon="6.75695">
        <ele>1546.6</ele>
        <time>2021-08-03T11:10:25Z</time>
      </trkpt>
      <trkpt lat="45.53349" lon="6.75693">
        <ele>1546.8</ele>
        <time>2021-08-03T11:10:26Z</time>
      </trkpt>
      <trkpt lat="45.53349" lon="6.75691">
        <ele>1546.9</ele>
        <time>2021-08-03T11:10:27Z</time>
      </trkpt>
      <trkpt lat="45.53349" lon="6.7569">
        <ele>1547</ele>
        <time>2021-08-03T11:10:28Z</time>
      </trkpt>
      <trkpt lat="45.53349" lon="6.75688">
        <ele>1547.2</ele>
        <time>2021-08-03T11:10:29Z</time>
      </trkpt>
      <trkpt lat="45.5335" lon="6.75686">
        <ele>1547.3</ele>
        <time>2021-08-03T11:10:30Z</time>
      </trkpt>
      <trkpt lat="45.5335" lon="6.75684">
        <ele>1547.4</ele>
        <time>2021-08-03T11:10:31Z</time>
      </trkpt>
      <trkpt lat="45.5335" lon="6.75683">
        <ele>1547.6</ele>
        <time>2021-08-03T11:10:32Z</time>
      </trkpt>
      <trkpt lat="45.5335" lon="6.75681">
        <ele>1547.7</ele>
        <time>2021-08-03T11:10:33Z</time>
      </trkpt>
      <trkpt lat="45.53351" lon="6.7568">
        <ele>1547.8</ele>
        <time>2021-08-03T11:10:34Z</time>
      </trkpt>
      <trkpt lat="45.53351" lon="6.75678">
        <ele>1548</ele>
        <time>2021-08-03T11:10:35Z</time>
      </trkpt>
      <trkpt lat="45.53351" lon="6.75677">
        <ele>1548.1</ele>
        <time>2021-08-03T11:10:36Z</time>
      </trkpt>
      <trkpt lat="45.53352" lon="6.75675">
        <ele>1548.2</ele>
        <time>2021-08-03T11:10:37Z</time>
      </trkpt>
      <trkpt lat="45.53352" lon="6.75674">
        <ele>1548.4</ele>
        <time>2021-08-03T11:10:38Z</time>
      </trkpt>
      <trkpt lat="45.53353" lon="6.75672">
        <ele>1548.5</ele>
        <time>2021-08-03T11:10:39Z</time>
      </trkpt>
      <trkpt lat="45.53353" lon="6.75671">
        <ele>1548.6</ele>
        <time>2021-08-03T11:10:40Z</time>
      </trkpt>
      <trkpt lat="45.53354" lon="6.75669">
        <ele>1548.8</ele>
        <time>2021-08-03T11:10:41Z</time>
      </trkpt>
      <trkpt lat="45.53354" lon="6.75668">
        <ele>1548.9</ele>
        <time>2021-08-03T11:10:42Z</time>
      </trkpt>
      <trkpt lat="45.53354" lon="6.75666">
        <ele>1549</ele>
        <time>2021-08-03T11:10:43Z</time>
      </trkpt>
      <trkpt lat="45.53355" lon="6.75665">
        <ele>1549.2</ele>
        <time>2021-08-03T11:10:44Z</time>
      </trkpt>
      <trkpt lat="45.53355" lon="6.75663">
        <ele>1549.3</ele>
        <time>2021-08-03T11:10:45Z</time>
      </trkpt>
      <trkpt lat="45.53356" lon="6.75662">
        <ele>1549.5</ele>
        <time>2021-08-03T11:10:46Z</time>
      </trkpt>
      <trkpt lat="45.53356" lon="6.7566">
        <ele>1549.6</ele>
        <time>2021-08-03T11:10:47Z</time>
      </trkpt>
      <trkpt lat="45.53357" lon="6.75659">
        <ele>1549.7</ele>
        <time>2021-08-03T11:10:48Z</time>
      </trkpt>
      <trkpt lat="45.53357" lon="6.75657">
        <ele>1549.9</ele>
        <time>2021-08-03T11:10:49Z</time>
      </trkpt>
      <trkpt lat="45.53357" lon="6.75655">
        <ele>1550</ele>
        <time>2021-08-03T11:10:50Z</time>
      </trkpt>
      <trkpt lat="45.53358" lon="6.75654">
        <ele>1550.2</ele>
        <time>2021-08-03T11:10:51Z</time>
      </trkpt>
      <trkpt lat="45.53358" lon="6.75652">
        <ele>1550.3</ele>
        <time>2021-08-03T11:10:52Z</time>
      </trkpt>
      <trkpt lat="45.53358" lon="6.7565">
        <ele>1550.5</ele>
        <time>2021-08-03T11:10:53Z</time>
      </trkpt>
      <trkpt lat="45.53359" lon="6.75649">
        <ele>1550.6</ele>
        <time>2021-08-03T11:10:54Z</time>
      </trkpt>
      <trkpt lat="45.53359" lon="6.75647">
        <ele>1550.7</ele>
        <time>2021-08-03T11:10:55Z</time>
      </trkpt>
      <trkpt lat="45.53359" lon="6.75646">
        <ele>1550.9</ele>
        <time>2021-08-03T11:10:56Z</time>
      </trkpt>
      <trkpt lat="45.5336" lon="6.75644">
        <ele>1551</ele>
        <time>2021-08-03T11:10:57Z</time>
      </trkpt>
      <trkpt lat="45.5336" lon="6.75643">
        <ele>1551.1</ele>
        <time>2021-08-03T11:10:58Z</time>
      </trkpt>
      <trkpt lat="45.5336" lon="6.75642">
        <ele>1551.2</ele>
        <time>2021-08-03T11:10:59Z</time>
      </trkpt>
      <trkpt lat="45.53361" lon="6.7564">
        <ele>1551.4</ele>
        <time>2021-08-03T11:11:00Z</time>
      </trkpt>
      <trkpt lat="45.53361" lon="6.75639">
        <ele>1551.5</ele>
        <time>2021-08-03T11:11:01Z</time>
      </trkpt>
      <trkpt lat="45.53362" lon="6.75638">
        <ele>1551.6</ele>
        <time>2021-08-03T11:11:02Z</time>
      </trkpt>
      <trkpt lat="45.53363" lon="6.75636">
        <ele>1551.7</ele>
        <time>2021-08-03T11:11:03Z</time>
      </trkpt>
      <trkpt lat="45.53363" lon="6.75635">
        <ele>1551.9</ele>
        <time>2021-08-03T11:11:04Z</time>
      </trkpt>
      <trkpt lat="45.53364" lon="6.75633">
        <ele>1552</ele>
        <time>2021-08-03T11:11:05Z</time>
      </trkpt>
      <trkpt lat="45.53364" lon="6.75632">
        <ele>1552.2</ele>
        <time>2021-08-03T11:11:06Z</time>
      </trkpt>
      <trkpt lat="45.53365" lon="6.7563">
        <ele>1552.3</ele>
        <time>2021-08-03T11:11:07Z</time>
      </trkpt>
      <trkpt lat="45.53366" lon="6.75628">
        <ele>1552.5</ele>
        <time>2021-08-03T11:11:08Z</time>
      </trkpt>
      <trkpt lat="45.53366" lon="6.75626">
        <ele>1552.6</ele>
        <time>2021-08-03T11:11:09Z</time>
      </trkpt>
      <trkpt lat="45.53367" lon="6.75625">
        <ele>1552.8</ele>
        <time>2021-08-03T11:11:10Z</time>
      </trkpt>
      <trkpt lat="45.53368" lon="6.75623">
        <ele>1552.9</ele>
        <time>2021-08-03T11:11:11Z</time>
      </trkpt>
      <trkpt lat="45.53368" lon="6.75621">
        <ele>1553.1</ele>
        <time>2021-08-03T11:11:12Z</time>
      </trkpt>
      <trkpt lat="45.53369" lon="6.75619">
        <ele>1553.2</ele>
        <time>2021-08-03T11:11:13Z</time>
      </trkpt>
      <trkpt lat="45.53369" lon="6.75617">
        <ele>1553.3</ele>
        <time>2021-08-03T11:11:14Z</time>
      </trkpt>
      <trkpt lat="45.5337" lon="6.75615">
        <ele>1553.4</ele>
        <time>2021-08-03T11:11:15Z</time>
      </trkpt>
      <trkpt lat="45.53371" lon="6.75614">
        <ele>1553.6</ele>
        <time>2021-08-03T11:11:16Z</time>
      </trkpt>
      <trkpt lat="45.53371" lon="6.75612">
        <ele>1553.7</ele>
        <time>2021-08-03T11:11:17Z</time>
      </trkpt>
      <trkpt lat="45.53372" lon="6.7561">
        <ele>1553.8</ele>
        <time>2021-08-03T11:11:18Z</time>
      </trkpt>
      <trkpt lat="45.53373" lon="6.75609">
        <ele>1553.9</ele>
        <time>2021-08-03T11:11:19Z</time>
      </trkpt>
      <trkpt lat="45.53374" lon="6.75607">
        <ele>1554</ele>
        <time>2021-08-03T11:11:20Z</time>
      </trkpt>
      <trkpt lat="45.53374" lon="6.75606">
        <ele>1554.1</ele>
        <time>2021-08-03T11:11:21Z</time>
      </trkpt>
      <trkpt lat="45.53375" lon="6.75605">
        <ele>1554.2</ele>
        <time>2021-08-03T11:11:22Z</time>
      </trkpt>
      <trkpt lat="45.53376" lon="6.75604">
        <ele>1554.3</ele>
        <time>2021-08-03T11:11:23Z</time>
      </trkpt>
      <trkpt lat="45.53377" lon="6.75603">
        <ele>1554.5</ele>
        <time>2021-08-03T11:11:24Z</time>
      </trkpt>
      <trkpt lat="45.53378" lon="6.75602">
        <ele>1554.6</ele>
        <time>2021-08-03T11:11:25Z</time>
      </trkpt>
      <trkpt lat="45.53379" lon="6.756">
        <ele>1554.7</ele>
        <time>2021-08-03T11:11:26Z</time>
      </trkpt>
      <trkpt lat="45.5338" lon="6.75599">
        <ele>1554.8</ele>
        <time>2021-08-03T11:11:27Z</time>
      </trkpt>
      <trkpt lat="45.5338" lon="6.75598">
        <ele>1554.9</ele>
        <time>2021-08-03T11:11:28Z</time>
      </trkpt>
      <trkpt lat="45.53381" lon="6.75597">
        <ele>1555</ele>
        <time>2021-08-03T11:11:29Z</time>
      </trkpt>
      <trkpt lat="45.53382" lon="6.75596">
        <ele>1555.1</ele>
        <time>2021-08-03T11:11:30Z</time>
      </trkpt>
      <trkpt lat="45.53383" lon="6.75595">
        <ele>1555.3</ele>
        <time>2021-08-03T11:11:31Z</time>
      </trkpt>
      <trkpt lat="45.53383" lon="6.75594">
        <ele>1555.4</ele>
        <time>2021-08-03T11:11:32Z</time>
      </trkpt>
      <trkpt lat="45.53384" lon="6.75593">
        <ele>1555.5</ele>
        <time>2021-08-03T11:11:33Z</time>
      </trkpt>
      <trkpt lat="45.53384" lon="6.75591">
        <ele>1555.6</ele>
        <time>2021-08-03T11:11:34Z</time>
      </trkpt>
      <trkpt lat="45.53385" lon="6.7559">
        <ele>1555.7</ele>
        <time>2021-08-03T11:11:35Z</time>
      </trkpt>
      <trkpt lat="45.53385" lon="6.75588">
        <ele>1555.9</ele>
        <time>2021-08-03T11:11:36Z</time>
      </trkpt>
      <trkpt lat="45.53386" lon="6.75587">
        <ele>1556</ele>
        <time>2021-08-03T11:11:37Z</time>
      </trkpt>
      <trkpt lat="45.53386" lon="6.75585">
        <ele>1556.2</ele>
        <time>2021-08-03T11:11:38Z</time>
      </trkpt>
      <trkpt lat="45.53386" lon="6.75583">
        <ele>1556.3</ele>
        <time>2021-08-03T11:11:39Z</time>
      </trkpt>
      <trkpt lat="45.53386" lon="6.75582">
        <ele>1556.5</ele>
        <time>2021-08-03T11:11:40Z</time>
      </trkpt>
      <trkpt lat="45.53386" lon="6.7558">
        <ele>1556.6</ele>
        <time>2021-08-03T11:11:41Z</time>
      </trkpt>
      <trkpt lat="45.53386" lon="6.75578">
        <ele>1556.8</ele>
        <time>2021-08-03T11:11:42Z</time>
      </trkpt>
      <trkpt lat="45.53386" lon="6.75576">
        <ele>1556.9</ele>
        <time>2021-08-03T11:11:43Z</time>
      </trkpt>
      <trkpt lat="45.53386" lon="6.75574">
        <ele>1557.1</ele>
        <time>2021-08-03T11:11:44Z</time>
      </trkpt>
      <trkpt lat="45.53386" lon="6.75572">
        <ele>1557.3</ele>
        <time>2021-08-03T11:11:45Z</time>
      </trkpt>
      <trkpt lat="45.53387" lon="6.75569">
        <ele>1557.5</ele>
        <time>2021-08-03T11:11:46Z</time>
      </trkpt>
      <trkpt lat="45.53387" lon="6.75568">
        <ele>1557.6</ele>
        <time>2021-08-03T11:11:47Z</time>
      </trkpt>
      <trkpt lat="45.53387" lon="6.75567">
        <ele>1557.8</ele>
        <time>2021-08-03T11:11:48Z</time>
      </trkpt>
      <trkpt lat="45.53387" lon="6.75565">
        <ele>1558</ele>
        <time>2021-08-03T11:11:49Z</time>
      </trkpt>
      <trkpt lat="45.53387" lon="6.75563">
        <ele>1558.1</ele>
        <time>2021-08-03T11:11:50Z</time>
      </trkpt>
      <trkpt lat="45.53388" lon="6.75562">
        <ele>1558.3</ele>
        <time>2021-08-03T11:11:51Z</time>
      </trkpt>
      <trkpt lat="45.53388" lon="6.7556">
        <ele>1558.4</ele>
        <time>2021-08-03T11:11:52Z</time>
      </trkpt>
      <trkpt lat="45.53388" lon="6.75559">
        <ele>1558.6</ele>
        <time>2021-08-03T11:11:53Z</time>
      </trkpt>
      <trkpt lat="45.53389" lon="6.75558">
        <ele>1558.7</ele>
        <time>2021-08-03T11:11:54Z</time>
      </trkpt>
      <trkpt lat="45.53389" lon="6.75556">
        <ele>1558.9</ele>
        <time>2021-08-03T11:11:55Z</time>
      </trkpt>
      <trkpt lat="45.5339" lon="6.75555">
        <ele>1559</ele>
        <time>2021-08-03T11:11:56Z</time>
      </trkpt>
      <trkpt lat="45.5339" lon="6.75554">
        <ele>1559.1</ele>
        <time>2021-08-03T11:11:57Z</time>
      </trkpt>
      <trkpt lat="45.53391" lon="6.75553">
        <ele>1559.3</ele>
        <time>2021-08-03T11:11:58Z</time>
      </trkpt>
      <trkpt lat="45.53392" lon="6.75552">
        <ele>1559.4</ele>
        <time>2021-08-03T11:11:59Z</time>
      </trkpt>
      <trkpt lat="45.53392" lon="6.75551">
        <ele>1559.6</ele>
        <time>2021-08-03T11:12:00Z</time>
      </trkpt>
      <trkpt lat="45.53393" lon="6.7555">
        <ele>1559.7</ele>
        <time>2021-08-03T11:12:01Z</time>
      </trkpt>
      <trkpt lat="45.53393" lon="6.75548">
        <ele>1559.9</ele>
        <time>2021-08-03T11:12:02Z</time>
      </trkpt>
      <trkpt lat="45.53394" lon="6.75547">
        <ele>1560</ele>
        <time>2021-08-03T11:12:03Z</time>
      </trkpt>
      <trkpt lat="45.53394" lon="6.75546">
        <ele>1560.2</ele>
        <time>2021-08-03T11:12:04Z</time>
      </trkpt>
      <trkpt lat="45.53395" lon="6.75544">
        <ele>1560.3</ele>
        <time>2021-08-03T11:12:05Z</time>
      </trkpt>
      <trkpt lat="45.53395" lon="6.75543">
        <ele>1560.5</ele>
        <time>2021-08-03T11:12:06Z</time>
      </trkpt>
      <trkpt lat="45.53396" lon="6.75541">
        <ele>1560.6</ele>
        <time>2021-08-03T11:12:07Z</time>
      </trkpt>
      <trkpt lat="45.53396" lon="6.75539">
        <ele>1560.8</ele>
        <time>2021-08-03T11:12:08Z</time>
      </trkpt>
      <trkpt lat="45.53397" lon="6.75538">
        <ele>1561</ele>
        <time>2021-08-03T11:12:09Z</time>
      </trkpt>
      <trkpt lat="45.53397" lon="6.75536">
        <ele>1561.2</ele>
        <time>2021-08-03T11:12:10Z</time>
      </trkpt>
      <trkpt lat="45.53397" lon="6.75534">
        <ele>1561.4</ele>
        <time>2021-08-03T11:12:11Z</time>
      </trkpt>
      <trkpt lat="45.53397" lon="6.75532">
        <ele>1561.5</ele>
        <time>2021-08-03T11:12:12Z</time>
      </trkpt>
      <trkpt lat="45.53397" lon="6.7553">
        <ele>1561.7</ele>
        <time>2021-08-03T11:12:13Z</time>
      </trkpt>
      <trkpt lat="45.53397" lon="6.75528">
        <ele>1561.9</ele>
        <time>2021-08-03T11:12:14Z</time>
      </trkpt>
      <trkpt lat="45.53397" lon="6.75526">
        <ele>1562</ele>
        <time>2021-08-03T11:12:15Z</time>
      </trkpt>
      <trkpt lat="45.53397" lon="6.75525">
        <ele>1562.2</ele>
        <time>2021-08-03T11:12:16Z</time>
      </trkpt>
      <trkpt lat="45.53397" lon="6.75523">
        <ele>1562.3</ele>
        <time>2021-08-03T11:12:17Z</time>
      </trkpt>
      <trkpt lat="45.53397" lon="6.75521">
        <ele>1562.5</ele>
        <time>2021-08-03T11:12:18Z</time>
      </trkpt>
      <trkpt lat="45.53397" lon="6.75519">
        <ele>1562.7</ele>
        <time>2021-08-03T11:12:19Z</time>
      </trkpt>
      <trkpt lat="45.53398" lon="6.75518">
        <ele>1562.8</ele>
        <time>2021-08-03T11:12:20Z</time>
      </trkpt>
      <trkpt lat="45.53398" lon="6.75516">
        <ele>1563</ele>
        <time>2021-08-03T11:12:21Z</time>
      </trkpt>
      <trkpt lat="45.53398" lon="6.75514">
        <ele>1563.1</ele>
        <time>2021-08-03T11:12:22Z</time>
      </trkpt>
      <trkpt lat="45.53399" lon="6.75512">
        <ele>1563.3</ele>
        <time>2021-08-03T11:12:23Z</time>
      </trkpt>
      <trkpt lat="45.53399" lon="6.75511">
        <ele>1563.4</ele>
        <time>2021-08-03T11:12:24Z</time>
      </trkpt>
      <trkpt lat="45.534" lon="6.75509">
        <ele>1563.6</ele>
        <time>2021-08-03T11:12:25Z</time>
      </trkpt>
      <trkpt lat="45.534" lon="6.75507">
        <ele>1563.7</ele>
        <time>2021-08-03T11:12:26Z</time>
      </trkpt>
      <trkpt lat="45.53401" lon="6.75506">
        <ele>1563.9</ele>
        <time>2021-08-03T11:12:27Z</time>
      </trkpt>
      <trkpt lat="45.53401" lon="6.75504">
        <ele>1564</ele>
        <time>2021-08-03T11:12:28Z</time>
      </trkpt>
      <trkpt lat="45.53402" lon="6.75502">
        <ele>1564.2</ele>
        <time>2021-08-03T11:12:29Z</time>
      </trkpt>
      <trkpt lat="45.53402" lon="6.75501">
        <ele>1564.3</ele>
        <time>2021-08-03T11:12:30Z</time>
      </trkpt>
      <trkpt lat="45.53403" lon="6.75499">
        <ele>1564.5</ele>
        <time>2021-08-03T11:12:31Z</time>
      </trkpt>
      <trkpt lat="45.53404" lon="6.75498">
        <ele>1564.6</ele>
        <time>2021-08-03T11:12:32Z</time>
      </trkpt>
      <trkpt lat="45.53404" lon="6.75496">
        <ele>1564.7</ele>
        <time>2021-08-03T11:12:33Z</time>
      </trkpt>
      <trkpt lat="45.53405" lon="6.75495">
        <ele>1564.8</ele>
        <time>2021-08-03T11:12:34Z</time>
      </trkpt>
      <trkpt lat="45.53406" lon="6.75493">
        <ele>1565</ele>
        <time>2021-08-03T11:12:35Z</time>
      </trkpt>
      <trkpt lat="45.53406" lon="6.75492">
        <ele>1565.1</ele>
        <time>2021-08-03T11:12:36Z</time>
      </trkpt>
      <trkpt lat="45.53407" lon="6.7549">
        <ele>1565.2</ele>
        <time>2021-08-03T11:12:37Z</time>
      </trkpt>
      <trkpt lat="45.53407" lon="6.75488">
        <ele>1565.3</ele>
        <time>2021-08-03T11:12:38Z</time>
      </trkpt>
      <trkpt lat="45.53408" lon="6.75487">
        <ele>1565.5</ele>
        <time>2021-08-03T11:12:39Z</time>
      </trkpt>
      <trkpt lat="45.53409" lon="6.75485">
        <ele>1565.6</ele>
        <time>2021-08-03T11:12:40Z</time>
      </trkpt>
      <trkpt lat="45.53409" lon="6.75484">
        <ele>1565.7</ele>
        <time>2021-08-03T11:12:41Z</time>
      </trkpt>
      <trkpt lat="45.5341" lon="6.75482">
        <ele>1565.8</ele>
        <time>2021-08-03T11:12:42Z</time>
      </trkpt>
      <trkpt lat="45.5341" lon="6.75481">
        <ele>1566</ele>
        <time>2021-08-03T11:12:43Z</time>
      </trkpt>
      <trkpt lat="45.53411" lon="6.75479">
        <ele>1566.1</ele>
        <time>2021-08-03T11:12:44Z</time>
      </trkpt>
      <trkpt lat="45.53411" lon="6.75478">
        <ele>1566.2</ele>
        <time>2021-08-03T11:12:45Z</time>
      </trkpt>
      <trkpt lat="45.53412" lon="6.75476">
        <ele>1566.4</ele>
        <time>2021-08-03T11:12:46Z</time>
      </trkpt>
      <trkpt lat="45.53412" lon="6.75474">
        <ele>1566.5</ele>
        <time>2021-08-03T11:12:47Z</time>
      </trkpt>
      <trkpt lat="45.53413" lon="6.75473">
        <ele>1566.6</ele>
        <time>2021-08-03T11:12:48Z</time>
      </trkpt>
      <trkpt lat="45.53413" lon="6.75471">
        <ele>1566.7</ele>
        <time>2021-08-03T11:12:49Z</time>
      </trkpt>
      <trkpt lat="45.53413" lon="6.75469">
        <ele>1566.9</ele>
        <time>2021-08-03T11:12:50Z</time>
      </trkpt>
      <trkpt lat="45.53414" lon="6.75468">
        <ele>1567</ele>
        <time>2021-08-03T11:12:51Z</time>
      </trkpt>
      <trkpt lat="45.53414" lon="6.75466">
        <ele>1567.2</ele>
        <time>2021-08-03T11:12:52Z</time>
      </trkpt>
      <trkpt lat="45.53414" lon="6.75464">
        <ele>1567.3</ele>
        <time>2021-08-03T11:12:53Z</time>
      </trkpt>
      <trkpt lat="45.53414" lon="6.75462">
        <ele>1567.5</ele>
        <time>2021-08-03T11:12:54Z</time>
      </trkpt>
      <trkpt lat="45.53415" lon="6.7546">
        <ele>1567.6</ele>
        <time>2021-08-03T11:12:55Z</time>
      </trkpt>
      <trkpt lat="45.53415" lon="6.75458">
        <ele>1567.8</ele>
        <time>2021-08-03T11:12:56Z</time>
      </trkpt>
      <trkpt lat="45.53415" lon="6.75457">
        <ele>1567.9</ele>
        <time>2021-08-03T11:12:57Z</time>
      </trkpt>
      <trkpt lat="45.53415" lon="6.75455">
        <ele>1568.1</ele>
        <time>2021-08-03T11:12:58Z</time>
      </trkpt>
      <trkpt lat="45.53415" lon="6.75453">
        <ele>1568.2</ele>
        <time>2021-08-03T11:12:59Z</time>
      </trkpt>
      <trkpt lat="45.53416" lon="6.75451">
        <ele>1568.4</ele>
        <time>2021-08-03T11:13:00Z</time>
      </trkpt>
      <trkpt lat="45.53416" lon="6.7545">
        <ele>1568.5</ele>
        <time>2021-08-03T11:13:01Z</time>
      </trkpt>
      <trkpt lat="45.53416" lon="6.75448">
        <ele>1568.7</ele>
        <time>2021-08-03T11:13:02Z</time>
      </trkpt>
      <trkpt lat="45.53416" lon="6.75447">
        <ele>1568.8</ele>
        <time>2021-08-03T11:13:03Z</time>
      </trkpt>
      <trkpt lat="45.53416" lon="6.75446">
        <ele>1568.9</ele>
        <time>2021-08-03T11:13:04Z</time>
      </trkpt>
      <trkpt lat="45.53417" lon="6.75445">
        <ele>1568.9</ele>
        <time>2021-08-03T11:13:05Z</time>
      </trkpt>
      <trkpt lat="45.53417" lon="6.75444">
        <ele>1569</ele>
        <time>2021-08-03T11:13:06Z</time>
      </trkpt>
      <trkpt lat="45.53417" lon="6.75444">
        <ele>1569.1</ele>
        <time>2021-08-03T11:13:07Z</time>
      </trkpt>
      <trkpt lat="45.53417" lon="6.75443">
        <ele>1569.1</ele>
        <time>2021-08-03T11:13:08Z</time>
      </trkpt>
      <trkpt lat="45.53417" lon="6.75443">
        <ele>1569.2</ele>
        <time>2021-08-03T11:13:09Z</time>
      </trkpt>
      <trkpt lat="45.53418" lon="6.75442">
        <ele>1569.2</ele>
        <time>2021-08-03T11:13:10Z</time>
      </trkpt>
      <trkpt lat="45.53418" lon="6.75442">
        <ele>1569.2</ele>
        <time>2021-08-03T11:13:11Z</time>
      </trkpt>
      <trkpt lat="45.53418" lon="6.75442">
        <ele>1569.3</ele>
        <time>2021-08-03T11:13:12Z</time>
      </trkpt>
      <trkpt lat="45.53418" lon="6.75442">
        <ele>1569.3</ele>
        <time>2021-08-03T11:13:13Z</time>
      </trkpt>
      <trkpt lat="45.53418" lon="6.75442">
        <ele>1569.3</ele>
        <time>2021-08-03T11:13:14Z</time>
      </trkpt>
      <trkpt lat="45.53418" lon="6.75442">
        <ele>1569.3</ele>
        <time>2021-08-03T11:13:15Z</time>
      </trkpt>
      <trkpt lat="45.53418" lon="6.75442">
        <ele>1569.3</ele>
        <time>2021-08-03T11:13:16Z</time>
      </trkpt>
      <trkpt lat="45.53418" lon="6.75442">
        <ele>1569.3</ele>
        <time>2021-08-03T11:13:17Z</time>
      </trkpt>
      <trkpt lat="45.53418" lon="6.75442">
        <ele>1569.3</ele>
        <time>2021-08-03T11:13:18Z</time>
      </trkpt>
      <trkpt lat="45.53418" lon="6.75442">
        <ele>1569.3</ele>
        <time>2021-08-03T11:13:19Z</time>
      </trkpt>
      <trkpt lat="45.53418" lon="6.75441">
        <ele>1569.3</ele>
        <time>2021-08-03T11:13:20Z</time>
      </trkpt>
      <trkpt lat="45.53418" lon="6.75441">
        <ele>1569.3</ele>
        <time>2021-08-03T11:13:21Z</time>
      </trkpt>
      <trkpt lat="45.53418" lon="6.75441">
        <ele>1569.3</ele>
        <time>2021-08-03T11:13:22Z</time>
      </trkpt>
      <trkpt lat="45.53418" lon="6.75441">
        <ele>1569.4</ele>
        <time>2021-08-03T11:13:23Z</time>
      </trkpt>
      <trkpt lat="45.53418" lon="6.7544">
        <ele>1569.4</ele>
        <time>2021-08-03T11:13:24Z</time>
      </trkpt>
      <trkpt lat="45.53418" lon="6.7544">
        <ele>1569.5</ele>
        <time>2021-08-03T11:13:25Z</time>
      </trkpt>
      <trkpt lat="45.53418" lon="6.75439">
        <ele>1569.5</ele>
        <time>2021-08-03T11:13:26Z</time>
      </trkpt>
      <trkpt lat="45.53418" lon="6.75438">
        <ele>1569.6</ele>
        <time>2021-08-03T11:13:27Z</time>
      </trkpt>
      <trkpt lat="45.53418" lon="6.75437">
        <ele>1569.7</ele>
        <time>2021-08-03T11:13:28Z</time>
      </trkpt>
      <trkpt lat="45.53418" lon="6.75436">
        <ele>1569.7</ele>
        <time>2021-08-03T11:13:29Z</time>
      </trkpt>
      <trkpt lat="45.53418" lon="6.75436">
        <ele>1569.8</ele>
        <time>2021-08-03T11:13:30Z</time>
      </trkpt>
      <trkpt lat="45.53419" lon="6.75435">
        <ele>1569.8</ele>
        <time>2021-08-03T11:13:31Z</time>
      </trkpt>
      <trkpt lat="45.53419" lon="6.75435">
        <ele>1569.9</ele>
        <time>2021-08-03T11:13:32Z</time>
      </trkpt>
      <trkpt lat="45.53419" lon="6.75434">
        <ele>1570</ele>
        <time>2021-08-03T11:13:33Z</time>
      </trkpt>
      <trkpt lat="45.53419" lon="6.75433">
        <ele>1570.1</ele>
        <time>2021-08-03T11:13:34Z</time>
      </trkpt>
      <trkpt lat="45.5342" lon="6.75432">
        <ele>1570.2</ele>
        <time>2021-08-03T11:13:35Z</time>
      </trkpt>
      <trkpt lat="45.5342" lon="6.7543">
        <ele>1570.3</ele>
        <time>2021-08-03T11:13:36Z</time>
      </trkpt>
      <trkpt lat="45.53421" lon="6.75429">
        <ele>1570.4</ele>
        <time>2021-08-03T11:13:37Z</time>
      </trkpt>
      <trkpt lat="45.53421" lon="6.75427">
        <ele>1570.6</ele>
        <time>2021-08-03T11:13:38Z</time>
      </trkpt>
      <trkpt lat="45.53422" lon="6.75426">
        <ele>1570.7</ele>
        <time>2021-08-03T11:13:39Z</time>
      </trkpt>
      <trkpt lat="45.53422" lon="6.75424">
        <ele>1570.9</ele>
        <time>2021-08-03T11:13:40Z</time>
      </trkpt>
      <trkpt lat="45.53423" lon="6.75422">
        <ele>1571</ele>
        <time>2021-08-03T11:13:41Z</time>
      </trkpt>
      <trkpt lat="45.53423" lon="6.75421">
        <ele>1571.2</ele>
        <time>2021-08-03T11:13:42Z</time>
      </trkpt>
      <trkpt lat="45.53424" lon="6.75419">
        <ele>1571.3</ele>
        <time>2021-08-03T11:13:43Z</time>
      </trkpt>
      <trkpt lat="45.53424" lon="6.75417">
        <ele>1571.5</ele>
        <time>2021-08-03T11:13:44Z</time>
      </trkpt>
      <trkpt lat="45.53424" lon="6.75416">
        <ele>1571.6</ele>
        <time>2021-08-03T11:13:45Z</time>
      </trkpt>
      <trkpt lat="45.53425" lon="6.75414">
        <ele>1571.8</ele>
        <time>2021-08-03T11:13:46Z</time>
      </trkpt>
      <trkpt lat="45.53425" lon="6.75412">
        <ele>1571.9</ele>
        <time>2021-08-03T11:13:47Z</time>
      </trkpt>
      <trkpt lat="45.53426" lon="6.75411">
        <ele>1572</ele>
        <time>2021-08-03T11:13:48Z</time>
      </trkpt>
      <trkpt lat="45.53426" lon="6.75409">
        <ele>1572.1</ele>
        <time>2021-08-03T11:13:49Z</time>
      </trkpt>
      <trkpt lat="45.53426" lon="6.75407">
        <ele>1572.3</ele>
        <time>2021-08-03T11:13:50Z</time>
      </trkpt>
      <trkpt lat="45.53427" lon="6.75406">
        <ele>1572.4</ele>
        <time>2021-08-03T11:13:51Z</time>
      </trkpt>
      <trkpt lat="45.53427" lon="6.75404">
        <ele>1572.5</ele>
        <time>2021-08-03T11:13:52Z</time>
      </trkpt>
      <trkpt lat="45.53427" lon="6.75402">
        <ele>1572.6</ele>
        <time>2021-08-03T11:13:53Z</time>
      </trkpt>
      <trkpt lat="45.53428" lon="6.75401">
        <ele>1572.7</ele>
        <time>2021-08-03T11:13:54Z</time>
      </trkpt>
      <trkpt lat="45.53428" lon="6.75399">
        <ele>1572.9</ele>
        <time>2021-08-03T11:13:55Z</time>
      </trkpt>
      <trkpt lat="45.53429" lon="6.75397">
        <ele>1573</ele>
        <time>2021-08-03T11:13:56Z</time>
      </trkpt>
      <trkpt lat="45.53429" lon="6.75396">
        <ele>1573.1</ele>
        <time>2021-08-03T11:13:57Z</time>
      </trkpt>
      <trkpt lat="45.5343" lon="6.75394">
        <ele>1573.2</ele>
        <time>2021-08-03T11:13:58Z</time>
      </trkpt>
      <trkpt lat="45.5343" lon="6.75392">
        <ele>1573.3</ele>
        <time>2021-08-03T11:13:59Z</time>
      </trkpt>
      <trkpt lat="45.53431" lon="6.75391">
        <ele>1573.5</ele>
        <time>2021-08-03T11:14:00Z</time>
      </trkpt>
      <trkpt lat="45.53432" lon="6.75389">
        <ele>1573.6</ele>
        <time>2021-08-03T11:14:01Z</time>
      </trkpt>
      <trkpt lat="45.53432" lon="6.75387">
        <ele>1573.7</ele>
        <time>2021-08-03T11:14:02Z</time>
      </trkpt>
      <trkpt lat="45.53433" lon="6.75386">
        <ele>1573.9</ele>
        <time>2021-08-03T11:14:03Z</time>
      </trkpt>
      <trkpt lat="45.53434" lon="6.75384">
        <ele>1574</ele>
        <time>2021-08-03T11:14:04Z</time>
      </trkpt>
      <trkpt lat="45.53434" lon="6.75382">
        <ele>1574.1</ele>
        <time>2021-08-03T11:14:05Z</time>
      </trkpt>
      <trkpt lat="45.53435" lon="6.75381">
        <ele>1574.3</ele>
        <time>2021-08-03T11:14:06Z</time>
      </trkpt>
      <trkpt lat="45.53436" lon="6.75379">
        <ele>1574.4</ele>
        <time>2021-08-03T11:14:07Z</time>
      </trkpt>
      <trkpt lat="45.53436" lon="6.75377">
        <ele>1574.5</ele>
        <time>2021-08-03T11:14:08Z</time>
      </trkpt>
      <trkpt lat="45.53437" lon="6.75376">
        <ele>1574.7</ele>
        <time>2021-08-03T11:14:09Z</time>
      </trkpt>
      <trkpt lat="45.53438" lon="6.75374">
        <ele>1574.8</ele>
        <time>2021-08-03T11:14:10Z</time>
      </trkpt>
      <trkpt lat="45.53438" lon="6.75373">
        <ele>1574.9</ele>
        <time>2021-08-03T11:14:11Z</time>
      </trkpt>
      <trkpt lat="45.53439" lon="6.75371">
        <ele>1575.1</ele>
        <time>2021-08-03T11:14:12Z</time>
      </trkpt>
      <trkpt lat="45.5344" lon="6.7537">
        <ele>1575.2</ele>
        <time>2021-08-03T11:14:13Z</time>
      </trkpt>
      <trkpt lat="45.5344" lon="6.75368">
        <ele>1575.3</ele>
        <time>2021-08-03T11:14:14Z</time>
      </trkpt>
      <trkpt lat="45.53441" lon="6.75367">
        <ele>1575.5</ele>
        <time>2021-08-03T11:14:15Z</time>
      </trkpt>
      <trkpt lat="45.53442" lon="6.75365">
        <ele>1575.6</ele>
        <time>2021-08-03T11:14:16Z</time>
      </trkpt>
      <trkpt lat="45.53442" lon="6.75364">
        <ele>1575.7</ele>
        <time>2021-08-03T11:14:17Z</time>
      </trkpt>
      <trkpt lat="45.53443" lon="6.75363">
        <ele>1575.8</ele>
        <time>2021-08-03T11:14:18Z</time>
      </trkpt>
      <trkpt lat="45.53443" lon="6.75361">
        <ele>1576</ele>
        <time>2021-08-03T11:14:19Z</time>
      </trkpt>
      <trkpt lat="45.53444" lon="6.7536">
        <ele>1576.1</ele>
        <time>2021-08-03T11:14:20Z</time>
      </trkpt>
      <trkpt lat="45.53445" lon="6.75359">
        <ele>1576.2</ele>
        <time>2021-08-03T11:14:21Z</time>
      </trkpt>
      <trkpt lat="45.53445" lon="6.75358">
        <ele>1576.3</ele>
        <time>2021-08-03T11:14:22Z</time>
      </trkpt>
      <trkpt lat="45.53446" lon="6.75356">
        <ele>1576.5</ele>
        <time>2021-08-03T11:14:23Z</time>
      </trkpt>
      <trkpt lat="45.53446" lon="6.75355">
        <ele>1576.6</ele>
        <time>2021-08-03T11:14:24Z</time>
      </trkpt>
      <trkpt lat="45.53447" lon="6.75354">
        <ele>1576.7</ele>
        <time>2021-08-03T11:14:25Z</time>
      </trkpt>
      <trkpt lat="45.53447" lon="6.75353">
        <ele>1576.8</ele>
        <time>2021-08-03T11:14:26Z</time>
      </trkpt>
      <trkpt lat="45.53448" lon="6.75351">
        <ele>1577</ele>
        <time>2021-08-03T11:14:27Z</time>
      </trkpt>
      <trkpt lat="45.53448" lon="6.7535">
        <ele>1577.1</ele>
        <time>2021-08-03T11:14:28Z</time>
      </trkpt>
      <trkpt lat="45.53449" lon="6.75349">
        <ele>1577.2</ele>
        <time>2021-08-03T11:14:29Z</time>
      </trkpt>
      <trkpt lat="45.53449" lon="6.75348">
        <ele>1577.3</ele>
        <time>2021-08-03T11:14:30Z</time>
      </trkpt>
      <trkpt lat="45.5345" lon="6.75346">
        <ele>1577.4</ele>
        <time>2021-08-03T11:14:31Z</time>
      </trkpt>
      <trkpt lat="45.5345" lon="6.75345">
        <ele>1577.6</ele>
        <time>2021-08-03T11:14:32Z</time>
      </trkpt>
      <trkpt lat="45.53451" lon="6.75344">
        <ele>1577.7</ele>
        <time>2021-08-03T11:14:33Z</time>
      </trkpt>
      <trkpt lat="45.53451" lon="6.75342">
        <ele>1577.8</ele>
        <time>2021-08-03T11:14:34Z</time>
      </trkpt>
      <trkpt lat="45.53452" lon="6.75341">
        <ele>1578</ele>
        <time>2021-08-03T11:14:35Z</time>
      </trkpt>
      <trkpt lat="45.53453" lon="6.7534">
        <ele>1578.1</ele>
        <time>2021-08-03T11:14:36Z</time>
      </trkpt>
      <trkpt lat="45.53453" lon="6.75339">
        <ele>1578.2</ele>
        <time>2021-08-03T11:14:37Z</time>
      </trkpt>
      <trkpt lat="45.53454" lon="6.75338">
        <ele>1578.4</ele>
        <time>2021-08-03T11:14:38Z</time>
      </trkpt>
      <trkpt lat="45.53455" lon="6.75337">
        <ele>1578.5</ele>
        <time>2021-08-03T11:14:39Z</time>
      </trkpt>
      <trkpt lat="45.53456" lon="6.75335">
        <ele>1578.7</ele>
        <time>2021-08-03T11:14:40Z</time>
      </trkpt>
      <trkpt lat="45.53457" lon="6.75334">
        <ele>1578.8</ele>
        <time>2021-08-03T11:14:41Z</time>
      </trkpt>
      <trkpt lat="45.53458" lon="6.75333">
        <ele>1579</ele>
        <time>2021-08-03T11:14:42Z</time>
      </trkpt>
      <trkpt lat="45.53458" lon="6.75332">
        <ele>1579.1</ele>
        <time>2021-08-03T11:14:43Z</time>
      </trkpt>
      <trkpt lat="45.53459" lon="6.75331">
        <ele>1579.3</ele>
        <time>2021-08-03T11:14:44Z</time>
      </trkpt>
      <trkpt lat="45.5346" lon="6.7533">
        <ele>1579.4</ele>
        <time>2021-08-03T11:14:45Z</time>
      </trkpt>
      <trkpt lat="45.53461" lon="6.75328">
        <ele>1579.6</ele>
        <time>2021-08-03T11:14:46Z</time>
      </trkpt>
      <trkpt lat="45.53462" lon="6.75327">
        <ele>1579.7</ele>
        <time>2021-08-03T11:14:47Z</time>
      </trkpt>
      <trkpt lat="45.53462" lon="6.75326">
        <ele>1579.9</ele>
        <time>2021-08-03T11:14:48Z</time>
      </trkpt>
      <trkpt lat="45.53463" lon="6.75324">
        <ele>1580</ele>
        <time>2021-08-03T11:14:49Z</time>
      </trkpt>
      <trkpt lat="45.53464" lon="6.75323">
        <ele>1580.2</ele>
        <time>2021-08-03T11:14:50Z</time>
      </trkpt>
      <trkpt lat="45.53464" lon="6.75321">
        <ele>1580.3</ele>
        <time>2021-08-03T11:14:51Z</time>
      </trkpt>
      <trkpt lat="45.53465" lon="6.75319">
        <ele>1580.5</ele>
        <time>2021-08-03T11:14:52Z</time>
      </trkpt>
      <trkpt lat="45.53465" lon="6.75318">
        <ele>1580.7</ele>
        <time>2021-08-03T11:14:53Z</time>
      </trkpt>
      <trkpt lat="45.53465" lon="6.75316">
        <ele>1580.8</ele>
        <time>2021-08-03T11:14:54Z</time>
      </trkpt>
      <trkpt lat="45.53466" lon="6.75314">
        <ele>1581</ele>
        <time>2021-08-03T11:14:55Z</time>
      </trkpt>
      <trkpt lat="45.53466" lon="6.75312">
        <ele>1581.2</ele>
        <time>2021-08-03T11:14:56Z</time>
      </trkpt>
      <trkpt lat="45.53466" lon="6.7531">
        <ele>1581.3</ele>
        <time>2021-08-03T11:14:57Z</time>
      </trkpt>
      <trkpt lat="45.53467" lon="6.75308">
        <ele>1581.5</ele>
        <time>2021-08-03T11:14:58Z</time>
      </trkpt>
      <trkpt lat="45.53467" lon="6.75306">
        <ele>1581.7</ele>
        <time>2021-08-03T11:14:59Z</time>
      </trkpt>
      <trkpt lat="45.53468" lon="6.75305">
        <ele>1581.8</ele>
        <time>2021-08-03T11:15:00Z</time>
      </trkpt>
      <trkpt lat="45.53468" lon="6.75303">
        <ele>1582</ele>
        <time>2021-08-03T11:15:01Z</time>
      </trkpt>
      <trkpt lat="45.53469" lon="6.75302">
        <ele>1582.1</ele>
        <time>2021-08-03T11:15:02Z</time>
      </trkpt>
      <trkpt lat="45.53469" lon="6.753">
        <ele>1582.2</ele>
        <time>2021-08-03T11:15:03Z</time>
      </trkpt>
      <trkpt lat="45.5347" lon="6.75299">
        <ele>1582.4</ele>
        <time>2021-08-03T11:15:04Z</time>
      </trkpt>
      <trkpt lat="45.53471" lon="6.75297">
        <ele>1582.5</ele>
        <time>2021-08-03T11:15:05Z</time>
      </trkpt>
      <trkpt lat="45.53471" lon="6.75296">
        <ele>1582.7</ele>
        <time>2021-08-03T11:15:06Z</time>
      </trkpt>
      <trkpt lat="45.53472" lon="6.75294">
        <ele>1582.9</ele>
        <time>2021-08-03T11:15:07Z</time>
      </trkpt>
      <trkpt lat="45.53473" lon="6.75292">
        <ele>1583</ele>
        <time>2021-08-03T11:15:08Z</time>
      </trkpt>
      <trkpt lat="45.53473" lon="6.7529">
        <ele>1583.2</ele>
        <time>2021-08-03T11:15:09Z</time>
      </trkpt>
      <trkpt lat="45.53474" lon="6.75288">
        <ele>1583.4</ele>
        <time>2021-08-03T11:15:10Z</time>
      </trkpt>
      <trkpt lat="45.53474" lon="6.75286">
        <ele>1583.6</ele>
        <time>2021-08-03T11:15:11Z</time>
      </trkpt>
      <trkpt lat="45.53475" lon="6.75284">
        <ele>1583.8</ele>
        <time>2021-08-03T11:15:12Z</time>
      </trkpt>
      <trkpt lat="45.53476" lon="6.75282">
        <ele>1584</ele>
        <time>2021-08-03T11:15:13Z</time>
      </trkpt>
      <trkpt lat="45.53477" lon="6.75281">
        <ele>1584.1</ele>
        <time>2021-08-03T11:15:14Z</time>
      </trkpt>
      <trkpt lat="45.53478" lon="6.7528">
        <ele>1584.2</ele>
        <time>2021-08-03T11:15:15Z</time>
      </trkpt>
      <trkpt lat="45.53478" lon="6.75279">
        <ele>1584.4</ele>
        <time>2021-08-03T11:15:16Z</time>
      </trkpt>
      <trkpt lat="45.53479" lon="6.75278">
        <ele>1584.5</ele>
        <time>2021-08-03T11:15:17Z</time>
      </trkpt>
      <trkpt lat="45.53481" lon="6.75276">
        <ele>1584.8</ele>
        <time>2021-08-03T11:15:18Z</time>
      </trkpt>
      <trkpt lat="45.53482" lon="6.75275">
        <ele>1584.9</ele>
        <time>2021-08-03T11:15:19Z</time>
      </trkpt>
      <trkpt lat="45.53482" lon="6.75274">
        <ele>1585.1</ele>
        <time>2021-08-03T11:15:20Z</time>
      </trkpt>
      <trkpt lat="45.53483" lon="6.75273">
        <ele>1585.2</ele>
        <time>2021-08-03T11:15:21Z</time>
      </trkpt>
      <trkpt lat="45.53484" lon="6.75271">
        <ele>1585.3</ele>
        <time>2021-08-03T11:15:22Z</time>
      </trkpt>
      <trkpt lat="45.53484" lon="6.7527">
        <ele>1585.5</ele>
        <time>2021-08-03T11:15:23Z</time>
      </trkpt>
      <trkpt lat="45.53485" lon="6.75269">
        <ele>1585.6</ele>
        <time>2021-08-03T11:15:24Z</time>
      </trkpt>
      <trkpt lat="45.53485" lon="6.75268">
        <ele>1585.7</ele>
        <time>2021-08-03T11:15:25Z</time>
      </trkpt>
      <trkpt lat="45.53486" lon="6.75266">
        <ele>1585.9</ele>
        <time>2021-08-03T11:15:26Z</time>
      </trkpt>
      <trkpt lat="45.53487" lon="6.75265">
        <ele>1586</ele>
        <time>2021-08-03T11:15:27Z</time>
      </trkpt>
      <trkpt lat="45.53487" lon="6.75264">
        <ele>1586.1</ele>
        <time>2021-08-03T11:15:28Z</time>
      </trkpt>
      <trkpt lat="45.53488" lon="6.75263">
        <ele>1586.3</ele>
        <time>2021-08-03T11:15:29Z</time>
      </trkpt>
      <trkpt lat="45.53489" lon="6.75261">
        <ele>1586.4</ele>
        <time>2021-08-03T11:15:30Z</time>
      </trkpt>
      <trkpt lat="45.53489" lon="6.7526">
        <ele>1586.5</ele>
        <time>2021-08-03T11:15:31Z</time>
      </trkpt>
      <trkpt lat="45.5349" lon="6.75259">
        <ele>1586.7</ele>
        <time>2021-08-03T11:15:32Z</time>
      </trkpt>
      <trkpt lat="45.53491" lon="6.75257">
        <ele>1586.8</ele>
        <time>2021-08-03T11:15:33Z</time>
      </trkpt>
      <trkpt lat="45.53491" lon="6.75256">
        <ele>1586.9</ele>
        <time>2021-08-03T11:15:34Z</time>
      </trkpt>
      <trkpt lat="45.53492" lon="6.75255">
        <ele>1587.1</ele>
        <time>2021-08-03T11:15:35Z</time>
      </trkpt>
      <trkpt lat="45.53492" lon="6.75253">
        <ele>1587.2</ele>
        <time>2021-08-03T11:15:36Z</time>
      </trkpt>
      <trkpt lat="45.53493" lon="6.75252">
        <ele>1587.3</ele>
        <time>2021-08-03T11:15:37Z</time>
      </trkpt>
      <trkpt lat="45.53493" lon="6.7525">
        <ele>1587.4</ele>
        <time>2021-08-03T11:15:38Z</time>
      </trkpt>
      <trkpt lat="45.53493" lon="6.75249">
        <ele>1587.5</ele>
        <time>2021-08-03T11:15:39Z</time>
      </trkpt>
      <trkpt lat="45.53494" lon="6.75247">
        <ele>1587.6</ele>
        <time>2021-08-03T11:15:40Z</time>
      </trkpt>
      <trkpt lat="45.53494" lon="6.75246">
        <ele>1587.8</ele>
        <time>2021-08-03T11:15:41Z</time>
      </trkpt>
      <trkpt lat="45.53495" lon="6.75245">
        <ele>1587.9</ele>
        <time>2021-08-03T11:15:42Z</time>
      </trkpt>
      <trkpt lat="45.53495" lon="6.75243">
        <ele>1588</ele>
        <time>2021-08-03T11:15:43Z</time>
      </trkpt>
      <trkpt lat="45.53495" lon="6.75242">
        <ele>1588.1</ele>
        <time>2021-08-03T11:15:44Z</time>
      </trkpt>
      <trkpt lat="45.53496" lon="6.7524">
        <ele>1588.2</ele>
        <time>2021-08-03T11:15:45Z</time>
      </trkpt>
      <trkpt lat="45.53496" lon="6.75239">
        <ele>1588.3</ele>
        <time>2021-08-03T11:15:46Z</time>
      </trkpt>
      <trkpt lat="45.53496" lon="6.75237">
        <ele>1588.4</ele>
        <time>2021-08-03T11:15:47Z</time>
      </trkpt>
      <trkpt lat="45.53497" lon="6.75236">
        <ele>1588.5</ele>
        <time>2021-08-03T11:15:48Z</time>
      </trkpt>
      <trkpt lat="45.53497" lon="6.75235">
        <ele>1588.6</ele>
        <time>2021-08-03T11:15:49Z</time>
      </trkpt>
      <trkpt lat="45.53497" lon="6.75233">
        <ele>1588.7</ele>
        <time>2021-08-03T11:15:50Z</time>
      </trkpt>
      <trkpt lat="45.53498" lon="6.75232">
        <ele>1588.8</ele>
        <time>2021-08-03T11:15:51Z</time>
      </trkpt>
      <trkpt lat="45.53498" lon="6.7523">
        <ele>1588.8</ele>
        <time>2021-08-03T11:15:52Z</time>
      </trkpt>
      <trkpt lat="45.53498" lon="6.75229">
        <ele>1588.9</ele>
        <time>2021-08-03T11:15:53Z</time>
      </trkpt>
      <trkpt lat="45.53498" lon="6.75227">
        <ele>1589</ele>
        <time>2021-08-03T11:15:54Z</time>
      </trkpt>
      <trkpt lat="45.53499" lon="6.75226">
        <ele>1589.1</ele>
        <time>2021-08-03T11:15:55Z</time>
      </trkpt>
      <trkpt lat="45.53499" lon="6.75225">
        <ele>1589.2</ele>
        <time>2021-08-03T11:15:56Z</time>
      </trkpt>
      <trkpt lat="45.53499" lon="6.75223">
        <ele>1589.3</ele>
        <time>2021-08-03T11:15:57Z</time>
      </trkpt>
      <trkpt lat="45.53499" lon="6.75222">
        <ele>1589.4</ele>
        <time>2021-08-03T11:15:58Z</time>
      </trkpt>
      <trkpt lat="45.535" lon="6.7522">
        <ele>1589.5</ele>
        <time>2021-08-03T11:15:59Z</time>
      </trkpt>
      <trkpt lat="45.535" lon="6.75219">
        <ele>1589.6</ele>
        <time>2021-08-03T11:16:00Z</time>
      </trkpt>
      <trkpt lat="45.535" lon="6.75218">
        <ele>1589.7</ele>
        <time>2021-08-03T11:16:01Z</time>
      </trkpt>
      <trkpt lat="45.535" lon="6.75216">
        <ele>1589.7</ele>
        <time>2021-08-03T11:16:02Z</time>
      </trkpt>
      <trkpt lat="45.535" lon="6.75215">
        <ele>1589.8</ele>
        <time>2021-08-03T11:16:03Z</time>
      </trkpt>
      <trkpt lat="45.535" lon="6.75213">
        <ele>1590.2</ele>
        <time>2021-08-03T11:16:04Z</time>
      </trkpt>
      <trkpt lat="45.535" lon="6.75212">
        <ele>1590.3</ele>
        <time>2021-08-03T11:16:05Z</time>
      </trkpt>
      <trkpt lat="45.53501" lon="6.7521">
        <ele>1590.4</ele>
        <time>2021-08-03T11:16:06Z</time>
      </trkpt>
      <trkpt lat="45.53501" lon="6.75209">
        <ele>1590.5</ele>
        <time>2021-08-03T11:16:07Z</time>
      </trkpt>
      <trkpt lat="45.53501" lon="6.75208">
        <ele>1590.6</ele>
        <time>2021-08-03T11:16:08Z</time>
      </trkpt>
      <trkpt lat="45.53501" lon="6.75206">
        <ele>1590.7</ele>
        <time>2021-08-03T11:16:09Z</time>
      </trkpt>
      <trkpt lat="45.53501" lon="6.75205">
        <ele>1590.8</ele>
        <time>2021-08-03T11:16:10Z</time>
      </trkpt>
      <trkpt lat="45.53501" lon="6.75203">
        <ele>1590.9</ele>
        <time>2021-08-03T11:16:11Z</time>
      </trkpt>
      <trkpt lat="45.53501" lon="6.75202">
        <ele>1591</ele>
        <time>2021-08-03T11:16:12Z</time>
      </trkpt>
      <trkpt lat="45.53501" lon="6.75201">
        <ele>1591.1</ele>
        <time>2021-08-03T11:16:13Z</time>
      </trkpt>
      <trkpt lat="45.53501" lon="6.752">
        <ele>1591.2</ele>
        <time>2021-08-03T11:16:14Z</time>
      </trkpt>
      <trkpt lat="45.53501" lon="6.75199">
        <ele>1591.3</ele>
        <time>2021-08-03T11:16:15Z</time>
      </trkpt>
      <trkpt lat="45.53501" lon="6.75198">
        <ele>1591.4</ele>
        <time>2021-08-03T11:16:16Z</time>
      </trkpt>
      <trkpt lat="45.53501" lon="6.75197">
        <ele>1591.4</ele>
        <time>2021-08-03T11:16:17Z</time>
      </trkpt>
      <trkpt lat="45.53501" lon="6.75196">
        <ele>1591.5</ele>
        <time>2021-08-03T11:16:18Z</time>
      </trkpt>
      <trkpt lat="45.53501" lon="6.75196">
        <ele>1591.5</ele>
        <time>2021-08-03T11:16:19Z</time>
      </trkpt>
      <trkpt lat="45.53501" lon="6.75195">
        <ele>1591.5</ele>
        <time>2021-08-03T11:16:20Z</time>
      </trkpt>
      <trkpt lat="45.53501" lon="6.75195">
        <ele>1591.6</ele>
        <time>2021-08-03T11:16:21Z</time>
      </trkpt>
      <trkpt lat="45.53501" lon="6.75195">
        <ele>1591.6</ele>
        <time>2021-08-03T11:16:22Z</time>
      </trkpt>
      <trkpt lat="45.53501" lon="6.75195">
        <ele>1591.6</ele>
        <time>2021-08-03T11:16:23Z</time>
      </trkpt>
      <trkpt lat="45.53501" lon="6.75195">
        <ele>1591.6</ele>
        <time>2021-08-03T11:16:24Z</time>
      </trkpt>
      <trkpt lat="45.53501" lon="6.75195">
        <ele>1591.6</ele>
        <time>2021-08-03T11:16:25Z</time>
      </trkpt>
      <trkpt lat="45.53501" lon="6.75195">
        <ele>1591.6</ele>
        <time>2021-08-03T11:16:26Z</time>
      </trkpt>
      <trkpt lat="45.53502" lon="6.75195">
        <ele>1591.6</ele>
        <time>2021-08-03T11:16:27Z</time>
      </trkpt>
      <trkpt lat="45.53502" lon="6.75194">
        <ele>1591.6</ele>
        <time>2021-08-03T11:16:28Z</time>
      </trkpt>
      <trkpt lat="45.53502" lon="6.75193">
        <ele>1591.7</ele>
        <time>2021-08-03T11:16:29Z</time>
      </trkpt>
      <trkpt lat="45.53502" lon="6.75193">
        <ele>1591.8</ele>
        <time>2021-08-03T11:16:30Z</time>
      </trkpt>
      <trkpt lat="45.53502" lon="6.75192">
        <ele>1591.9</ele>
        <time>2021-08-03T11:16:31Z</time>
      </trkpt>
      <trkpt lat="45.53502" lon="6.75191">
        <ele>1591.9</ele>
        <time>2021-08-03T11:16:32Z</time>
      </trkpt>
      <trkpt lat="45.53502" lon="6.75189">
        <ele>1592</ele>
        <time>2021-08-03T11:16:33Z</time>
      </trkpt>
      <trkpt lat="45.53502" lon="6.75188">
        <ele>1592.1</ele>
        <time>2021-08-03T11:16:34Z</time>
      </trkpt>
      <trkpt lat="45.53502" lon="6.75187">
        <ele>1592.2</ele>
        <time>2021-08-03T11:16:35Z</time>
      </trkpt>
      <trkpt lat="45.53502" lon="6.75186">
        <ele>1592.3</ele>
        <time>2021-08-03T11:16:36Z</time>
      </trkpt>
      <trkpt lat="45.53502" lon="6.75185">
        <ele>1592.4</ele>
        <time>2021-08-03T11:16:37Z</time>
      </trkpt>
      <trkpt lat="45.53502" lon="6.75183">
        <ele>1592.5</ele>
        <time>2021-08-03T11:16:38Z</time>
      </trkpt>
      <trkpt lat="45.53502" lon="6.75182">
        <ele>1592.6</ele>
        <time>2021-08-03T11:16:39Z</time>
      </trkpt>
      <trkpt lat="45.53502" lon="6.75181">
        <ele>1592.7</ele>
        <time>2021-08-03T11:16:40Z</time>
      </trkpt>
      <trkpt lat="45.53502" lon="6.7518">
        <ele>1592.8</ele>
        <time>2021-08-03T11:16:41Z</time>
      </trkpt>
      <trkpt lat="45.53502" lon="6.75178">
        <ele>1592.9</ele>
        <time>2021-08-03T11:16:42Z</time>
      </trkpt>
      <trkpt lat="45.53502" lon="6.75177">
        <ele>1593.1</ele>
        <time>2021-08-03T11:16:43Z</time>
      </trkpt>
      <trkpt lat="45.53501" lon="6.75176">
        <ele>1593.2</ele>
        <time>2021-08-03T11:16:44Z</time>
      </trkpt>
      <trkpt lat="45.53501" lon="6.75174">
        <ele>1593.3</ele>
        <time>2021-08-03T11:16:45Z</time>
      </trkpt>
      <trkpt lat="45.53501" lon="6.75173">
        <ele>1593.4</ele>
        <time>2021-08-03T11:16:46Z</time>
      </trkpt>
      <trkpt lat="45.53501" lon="6.75172">
        <ele>1593.5</ele>
        <time>2021-08-03T11:16:47Z</time>
      </trkpt>
      <trkpt lat="45.53501" lon="6.7517">
        <ele>1593.6</ele>
        <time>2021-08-03T11:16:48Z</time>
      </trkpt>
      <trkpt lat="45.53501" lon="6.75169">
        <ele>1593.7</ele>
        <time>2021-08-03T11:16:49Z</time>
      </trkpt>
      <trkpt lat="45.53501" lon="6.75167">
        <ele>1593.8</ele>
        <time>2021-08-03T11:16:50Z</time>
      </trkpt>
      <trkpt lat="45.535" lon="6.75166">
        <ele>1594</ele>
        <time>2021-08-03T11:16:51Z</time>
      </trkpt>
      <trkpt lat="45.535" lon="6.75165">
        <ele>1594.1</ele>
        <time>2021-08-03T11:16:52Z</time>
      </trkpt>
      <trkpt lat="45.535" lon="6.75163">
        <ele>1594.2</ele>
        <time>2021-08-03T11:16:53Z</time>
      </trkpt>
      <trkpt lat="45.535" lon="6.75162">
        <ele>1594.4</ele>
        <time>2021-08-03T11:16:54Z</time>
      </trkpt>
      <trkpt lat="45.535" lon="6.7516">
        <ele>1594.5</ele>
        <time>2021-08-03T11:16:55Z</time>
      </trkpt>
      <trkpt lat="45.53499" lon="6.75159">
        <ele>1594.6</ele>
        <time>2021-08-03T11:16:56Z</time>
      </trkpt>
      <trkpt lat="45.53499" lon="6.75157">
        <ele>1594.7</ele>
        <time>2021-08-03T11:16:57Z</time>
      </trkpt>
      <trkpt lat="45.53499" lon="6.75156">
        <ele>1594.9</ele>
        <time>2021-08-03T11:16:58Z</time>
      </trkpt>
      <trkpt lat="45.53499" lon="6.75154">
        <ele>1595</ele>
        <time>2021-08-03T11:16:59Z</time>
      </trkpt>
      <trkpt lat="45.53499" lon="6.75153">
        <ele>1595.1</ele>
        <time>2021-08-03T11:17:00Z</time>
      </trkpt>
      <trkpt lat="45.53499" lon="6.75152">
        <ele>1595.3</ele>
        <time>2021-08-03T11:17:01Z</time>
      </trkpt>
      <trkpt lat="45.53499" lon="6.7515">
        <ele>1595.4</ele>
        <time>2021-08-03T11:17:02Z</time>
      </trkpt>
      <trkpt lat="45.53499" lon="6.75149">
        <ele>1595.5</ele>
        <time>2021-08-03T11:17:03Z</time>
      </trkpt>
      <trkpt lat="45.53499" lon="6.75147">
        <ele>1595.7</ele>
        <time>2021-08-03T11:17:04Z</time>
      </trkpt>
      <trkpt lat="45.53499" lon="6.75146">
        <ele>1595.8</ele>
        <time>2021-08-03T11:17:05Z</time>
      </trkpt>
      <trkpt lat="45.53499" lon="6.75145">
        <ele>1595.9</ele>
        <time>2021-08-03T11:17:06Z</time>
      </trkpt>
      <trkpt lat="45.53499" lon="6.75144">
        <ele>1596</ele>
        <time>2021-08-03T11:17:07Z</time>
      </trkpt>
      <trkpt lat="45.53499" lon="6.75142">
        <ele>1596.2</ele>
        <time>2021-08-03T11:17:08Z</time>
      </trkpt>
      <trkpt lat="45.53499" lon="6.75141">
        <ele>1596.3</ele>
        <time>2021-08-03T11:17:09Z</time>
      </trkpt>
      <trkpt lat="45.53499" lon="6.7514">
        <ele>1596.4</ele>
        <time>2021-08-03T11:17:10Z</time>
      </trkpt>
      <trkpt lat="45.53499" lon="6.75139">
        <ele>1596.5</ele>
        <time>2021-08-03T11:17:11Z</time>
      </trkpt>
      <trkpt lat="45.53499" lon="6.75138">
        <ele>1596.6</ele>
        <time>2021-08-03T11:17:12Z</time>
      </trkpt>
      <trkpt lat="45.53499" lon="6.75137">
        <ele>1596.7</ele>
        <time>2021-08-03T11:17:13Z</time>
      </trkpt>
      <trkpt lat="45.53499" lon="6.75135">
        <ele>1596.8</ele>
        <time>2021-08-03T11:17:14Z</time>
      </trkpt>
      <trkpt lat="45.53499" lon="6.75134">
        <ele>1596.9</ele>
        <time>2021-08-03T11:17:15Z</time>
      </trkpt>
      <trkpt lat="45.53498" lon="6.75133">
        <ele>1597</ele>
        <time>2021-08-03T11:17:16Z</time>
      </trkpt>
      <trkpt lat="45.53498" lon="6.75132">
        <ele>1597.2</ele>
        <time>2021-08-03T11:17:17Z</time>
      </trkpt>
      <trkpt lat="45.53498" lon="6.75131">
        <ele>1597.3</ele>
        <time>2021-08-03T11:17:18Z</time>
      </trkpt>
      <trkpt lat="45.53497" lon="6.7513">
        <ele>1597.4</ele>
        <time>2021-08-03T11:17:19Z</time>
      </trkpt>
      <trkpt lat="45.53497" lon="6.75129">
        <ele>1597.5</ele>
        <time>2021-08-03T11:17:20Z</time>
      </trkpt>
      <trkpt lat="45.53496" lon="6.75128">
        <ele>1597.6</ele>
        <time>2021-08-03T11:17:21Z</time>
      </trkpt>
      <trkpt lat="45.53496" lon="6.75127">
        <ele>1597.7</ele>
        <time>2021-08-03T11:17:22Z</time>
      </trkpt>
      <trkpt lat="45.53496" lon="6.75127">
        <ele>1597.7</ele>
        <time>2021-08-03T11:17:23Z</time>
      </trkpt>
      <trkpt lat="45.53496" lon="6.75126">
        <ele>1597.8</ele>
        <time>2021-08-03T11:17:24Z</time>
      </trkpt>
      <trkpt lat="45.53495" lon="6.75126">
        <ele>1597.8</ele>
        <time>2021-08-03T11:17:25Z</time>
      </trkpt>
      <trkpt lat="45.53495" lon="6.75126">
        <ele>1597.9</ele>
        <time>2021-08-03T11:17:26Z</time>
      </trkpt>
      <trkpt lat="45.53494" lon="6.75126">
        <ele>1598</ele>
        <time>2021-08-03T11:17:27Z</time>
      </trkpt>
      <trkpt lat="45.53493" lon="6.75126">
        <ele>1598.1</ele>
        <time>2021-08-03T11:17:28Z</time>
      </trkpt>
      <trkpt lat="45.53493" lon="6.75127">
        <ele>1598.2</ele>
        <time>2021-08-03T11:17:29Z</time>
      </trkpt>
      <trkpt lat="45.53492" lon="6.75127">
        <ele>1598.3</ele>
        <time>2021-08-03T11:17:30Z</time>
      </trkpt>
      <trkpt lat="45.53491" lon="6.75128">
        <ele>1598.4</ele>
        <time>2021-08-03T11:17:31Z</time>
      </trkpt>
      <trkpt lat="45.53491" lon="6.75129">
        <ele>1598.5</ele>
        <time>2021-08-03T11:17:32Z</time>
      </trkpt>
      <trkpt lat="45.53491" lon="6.7513">
        <ele>1598.6</ele>
        <time>2021-08-03T11:17:33Z</time>
      </trkpt>
      <trkpt lat="45.53491" lon="6.75131">
        <ele>1598.7</ele>
        <time>2021-08-03T11:17:34Z</time>
      </trkpt>
      <trkpt lat="45.53491" lon="6.75133">
        <ele>1598.8</ele>
        <time>2021-08-03T11:17:35Z</time>
      </trkpt>
      <trkpt lat="45.53491" lon="6.75134">
        <ele>1598.9</ele>
        <time>2021-08-03T11:17:36Z</time>
      </trkpt>
      <trkpt lat="45.53491" lon="6.75135">
        <ele>1599.1</ele>
        <time>2021-08-03T11:17:37Z</time>
      </trkpt>
      <trkpt lat="45.53491" lon="6.75137">
        <ele>1599.2</ele>
        <time>2021-08-03T11:17:38Z</time>
      </trkpt>
      <trkpt lat="45.53492" lon="6.75137">
        <ele>1599.3</ele>
        <time>2021-08-03T11:17:39Z</time>
      </trkpt>
      <trkpt lat="45.53492" lon="6.75137">
        <ele>1599.3</ele>
        <time>2021-08-03T11:17:40Z</time>
      </trkpt>
      <trkpt lat="45.53492" lon="6.75137">
        <ele>1599.3</ele>
        <time>2021-08-03T11:17:41Z</time>
      </trkpt>
      <trkpt lat="45.53492" lon="6.75138">
        <ele>1599.3</ele>
        <time>2021-08-03T11:17:42Z</time>
      </trkpt>
      <trkpt lat="45.53492" lon="6.75138">
        <ele>1599.4</ele>
        <time>2021-08-03T11:17:43Z</time>
      </trkpt>
      <trkpt lat="45.53492" lon="6.75139">
        <ele>1599.5</ele>
        <time>2021-08-03T11:17:44Z</time>
      </trkpt>
      <trkpt lat="45.53492" lon="6.75141">
        <ele>1599.6</ele>
        <time>2021-08-03T11:17:45Z</time>
      </trkpt>
      <trkpt lat="45.53492" lon="6.75142">
        <ele>1599.7</ele>
        <time>2021-08-03T11:17:46Z</time>
      </trkpt>
      <trkpt lat="45.53492" lon="6.75144">
        <ele>1599.8</ele>
        <time>2021-08-03T11:17:47Z</time>
      </trkpt>
      <trkpt lat="45.53492" lon="6.75145">
        <ele>1599.9</ele>
        <time>2021-08-03T11:17:48Z</time>
      </trkpt>
      <trkpt lat="45.53492" lon="6.75146">
        <ele>1600</ele>
        <time>2021-08-03T11:17:49Z</time>
      </trkpt>
      <trkpt lat="45.53492" lon="6.75148">
        <ele>1600.1</ele>
        <time>2021-08-03T11:17:50Z</time>
      </trkpt>
      <trkpt lat="45.53492" lon="6.75149">
        <ele>1600.2</ele>
        <time>2021-08-03T11:17:51Z</time>
      </trkpt>
      <trkpt lat="45.53492" lon="6.7515">
        <ele>1600.3</ele>
        <time>2021-08-03T11:17:52Z</time>
      </trkpt>
      <trkpt lat="45.53492" lon="6.75152">
        <ele>1600.4</ele>
        <time>2021-08-03T11:17:53Z</time>
      </trkpt>
      <trkpt lat="45.53492" lon="6.75153">
        <ele>1600.5</ele>
        <time>2021-08-03T11:17:54Z</time>
      </trkpt>
      <trkpt lat="45.53492" lon="6.75154">
        <ele>1600.6</ele>
        <time>2021-08-03T11:17:55Z</time>
      </trkpt>
      <trkpt lat="45.53492" lon="6.75156">
        <ele>1600.7</ele>
        <time>2021-08-03T11:17:56Z</time>
      </trkpt>
      <trkpt lat="45.53492" lon="6.75157">
        <ele>1600.8</ele>
        <time>2021-08-03T11:17:57Z</time>
      </trkpt>
      <trkpt lat="45.53492" lon="6.75158">
        <ele>1600.9</ele>
        <time>2021-08-03T11:17:58Z</time>
      </trkpt>
      <trkpt lat="45.53492" lon="6.75159">
        <ele>1601</ele>
        <time>2021-08-03T11:17:59Z</time>
      </trkpt>
      <trkpt lat="45.53492" lon="6.75161">
        <ele>1601.1</ele>
        <time>2021-08-03T11:18:00Z</time>
      </trkpt>
      <trkpt lat="45.53492" lon="6.75162">
        <ele>1601.2</ele>
        <time>2021-08-03T11:18:01Z</time>
      </trkpt>
      <trkpt lat="45.53491" lon="6.75163">
        <ele>1601.3</ele>
        <time>2021-08-03T11:18:02Z</time>
      </trkpt>
      <trkpt lat="45.53491" lon="6.75164">
        <ele>1601.4</ele>
        <time>2021-08-03T11:18:03Z</time>
      </trkpt>
      <trkpt lat="45.53491" lon="6.75166">
        <ele>1601.5</ele>
        <time>2021-08-03T11:18:04Z</time>
      </trkpt>
      <trkpt lat="45.5349" lon="6.75167">
        <ele>1601.6</ele>
        <time>2021-08-03T11:18:05Z</time>
      </trkpt>
      <trkpt lat="45.5349" lon="6.75168">
        <ele>1601.7</ele>
        <time>2021-08-03T11:18:06Z</time>
      </trkpt>
      <trkpt lat="45.53489" lon="6.7517">
        <ele>1601.8</ele>
        <time>2021-08-03T11:18:07Z</time>
      </trkpt>
      <trkpt lat="45.53489" lon="6.75171">
        <ele>1602</ele>
        <time>2021-08-03T11:18:08Z</time>
      </trkpt>
      <trkpt lat="45.53488" lon="6.75173">
        <ele>1602.1</ele>
        <time>2021-08-03T11:18:09Z</time>
      </trkpt>
      <trkpt lat="45.53488" lon="6.75174">
        <ele>1602.2</ele>
        <time>2021-08-03T11:18:10Z</time>
      </trkpt>
      <trkpt lat="45.53487" lon="6.75176">
        <ele>1602.3</ele>
        <time>2021-08-03T11:18:11Z</time>
      </trkpt>
      <trkpt lat="45.53487" lon="6.75177">
        <ele>1602.5</ele>
        <time>2021-08-03T11:18:12Z</time>
      </trkpt>
      <trkpt lat="45.53486" lon="6.75179">
        <ele>1602.6</ele>
        <time>2021-08-03T11:18:13Z</time>
      </trkpt>
      <trkpt lat="45.53486" lon="6.7518">
        <ele>1602.7</ele>
        <time>2021-08-03T11:18:14Z</time>
      </trkpt>
      <trkpt lat="45.53486" lon="6.75182">
        <ele>1602.9</ele>
        <time>2021-08-03T11:18:15Z</time>
      </trkpt>
      <trkpt lat="45.53485" lon="6.75183">
        <ele>1603</ele>
        <time>2021-08-03T11:18:16Z</time>
      </trkpt>
      <trkpt lat="45.53485" lon="6.75185">
        <ele>1603.1</ele>
        <time>2021-08-03T11:18:17Z</time>
      </trkpt>
      <trkpt lat="45.53484" lon="6.75186">
        <ele>1603.3</ele>
        <time>2021-08-03T11:18:18Z</time>
      </trkpt>
      <trkpt lat="45.53484" lon="6.75188">
        <ele>1603.4</ele>
        <time>2021-08-03T11:18:19Z</time>
      </trkpt>
      <trkpt lat="45.53483" lon="6.75189">
        <ele>1603.6</ele>
        <time>2021-08-03T11:18:20Z</time>
      </trkpt>
      <trkpt lat="45.53483" lon="6.75191">
        <ele>1603.7</ele>
        <time>2021-08-03T11:18:21Z</time>
      </trkpt>
      <trkpt lat="45.53482" lon="6.75192">
        <ele>1603.8</ele>
        <time>2021-08-03T11:18:22Z</time>
      </trkpt>
      <trkpt lat="45.53482" lon="6.75194">
        <ele>1604</ele>
        <time>2021-08-03T11:18:23Z</time>
      </trkpt>
      <trkpt lat="45.53482" lon="6.75195">
        <ele>1604.1</ele>
        <time>2021-08-03T11:18:24Z</time>
      </trkpt>
      <trkpt lat="45.53481" lon="6.75196">
        <ele>1604.2</ele>
        <time>2021-08-03T11:18:25Z</time>
      </trkpt>
      <trkpt lat="45.53481" lon="6.75198">
        <ele>1604.4</ele>
        <time>2021-08-03T11:18:26Z</time>
      </trkpt>
      <trkpt lat="45.5348" lon="6.75199">
        <ele>1604.5</ele>
        <time>2021-08-03T11:18:27Z</time>
      </trkpt>
      <trkpt lat="45.5348" lon="6.75201">
        <ele>1604.6</ele>
        <time>2021-08-03T11:18:28Z</time>
      </trkpt>
      <trkpt lat="45.5348" lon="6.75202">
        <ele>1604.7</ele>
        <time>2021-08-03T11:18:29Z</time>
      </trkpt>
      <trkpt lat="45.53479" lon="6.75203">
        <ele>1604.9</ele>
        <time>2021-08-03T11:18:30Z</time>
      </trkpt>
      <trkpt lat="45.53479" lon="6.75205">
        <ele>1605</ele>
        <time>2021-08-03T11:18:31Z</time>
      </trkpt>
      <trkpt lat="45.53478" lon="6.75206">
        <ele>1605.1</ele>
        <time>2021-08-03T11:18:32Z</time>
      </trkpt>
      <trkpt lat="45.53478" lon="6.75207">
        <ele>1605.2</ele>
        <time>2021-08-03T11:18:33Z</time>
      </trkpt>
      <trkpt lat="45.53478" lon="6.75209">
        <ele>1605.3</ele>
        <time>2021-08-03T11:18:34Z</time>
      </trkpt>
      <trkpt lat="45.53477" lon="6.7521">
        <ele>1605.5</ele>
        <time>2021-08-03T11:18:35Z</time>
      </trkpt>
      <trkpt lat="45.53477" lon="6.75211">
        <ele>1605.6</ele>
        <time>2021-08-03T11:18:36Z</time>
      </trkpt>
      <trkpt lat="45.53477" lon="6.75213">
        <ele>1605.7</ele>
        <time>2021-08-03T11:18:37Z</time>
      </trkpt>
      <trkpt lat="45.53477" lon="6.75214">
        <ele>1605.8</ele>
        <time>2021-08-03T11:18:38Z</time>
      </trkpt>
      <trkpt lat="45.53476" lon="6.75216">
        <ele>1605.9</ele>
        <time>2021-08-03T11:18:39Z</time>
      </trkpt>
      <trkpt lat="45.53476" lon="6.75217">
        <ele>1606.1</ele>
        <time>2021-08-03T11:18:40Z</time>
      </trkpt>
      <trkpt lat="45.53476" lon="6.75218">
        <ele>1606.2</ele>
        <time>2021-08-03T11:18:41Z</time>
      </trkpt>
      <trkpt lat="45.53476" lon="6.7522">
        <ele>1606.3</ele>
        <time>2021-08-03T11:18:42Z</time>
      </trkpt>
      <trkpt lat="45.53476" lon="6.75221">
        <ele>1606.4</ele>
        <time>2021-08-03T11:18:43Z</time>
      </trkpt>
      <trkpt lat="45.53475" lon="6.75223">
        <ele>1606.5</ele>
        <time>2021-08-03T11:18:44Z</time>
      </trkpt>
      <trkpt lat="45.53475" lon="6.75224">
        <ele>1606.6</ele>
        <time>2021-08-03T11:18:45Z</time>
      </trkpt>
      <trkpt lat="45.53475" lon="6.75225">
        <ele>1606.8</ele>
        <time>2021-08-03T11:18:46Z</time>
      </trkpt>
      <trkpt lat="45.53475" lon="6.75227">
        <ele>1606.9</ele>
        <time>2021-08-03T11:18:47Z</time>
      </trkpt>
      <trkpt lat="45.53474" lon="6.75228">
        <ele>1607</ele>
        <time>2021-08-03T11:18:48Z</time>
      </trkpt>
      <trkpt lat="45.53473" lon="6.75229">
        <ele>1607.1</ele>
        <time>2021-08-03T11:18:49Z</time>
      </trkpt>
      <trkpt lat="45.53473" lon="6.75231">
        <ele>1607.3</ele>
        <time>2021-08-03T11:18:50Z</time>
      </trkpt>
      <trkpt lat="45.53472" lon="6.75232">
        <ele>1607.4</ele>
        <time>2021-08-03T11:18:51Z</time>
      </trkpt>
      <trkpt lat="45.53471" lon="6.75233">
        <ele>1607.6</ele>
        <time>2021-08-03T11:18:52Z</time>
      </trkpt>
      <trkpt lat="45.5347" lon="6.75234">
        <ele>1607.7</ele>
        <time>2021-08-03T11:18:53Z</time>
      </trkpt>
      <trkpt lat="45.53469" lon="6.75235">
        <ele>1607.9</ele>
        <time>2021-08-03T11:18:54Z</time>
      </trkpt>
      <trkpt lat="45.53468" lon="6.75236">
        <ele>1608</ele>
        <time>2021-08-03T11:18:55Z</time>
      </trkpt>
      <trkpt lat="45.53467" lon="6.75237">
        <ele>1608.1</ele>
        <time>2021-08-03T11:18:56Z</time>
      </trkpt>
      <trkpt lat="45.53466" lon="6.75238">
        <ele>1608.3</ele>
        <time>2021-08-03T11:18:57Z</time>
      </trkpt>
      <trkpt lat="45.53465" lon="6.75239">
        <ele>1608.4</ele>
        <time>2021-08-03T11:18:58Z</time>
      </trkpt>
      <trkpt lat="45.53464" lon="6.7524">
        <ele>1608.6</ele>
        <time>2021-08-03T11:18:59Z</time>
      </trkpt>
      <trkpt lat="45.53463" lon="6.75241">
        <ele>1608.7</ele>
        <time>2021-08-03T11:19:00Z</time>
      </trkpt>
      <trkpt lat="45.53462" lon="6.75242">
        <ele>1608.8</ele>
        <time>2021-08-03T11:19:01Z</time>
      </trkpt>
      <trkpt lat="45.53462" lon="6.75243">
        <ele>1608.9</ele>
        <time>2021-08-03T11:19:02Z</time>
      </trkpt>
      <trkpt lat="45.53461" lon="6.75243">
        <ele>1609</ele>
        <time>2021-08-03T11:19:03Z</time>
      </trkpt>
      <trkpt lat="45.53461" lon="6.75243">
        <ele>1609</ele>
        <time>2021-08-03T11:19:04Z</time>
      </trkpt>
      <trkpt lat="45.53461" lon="6.75244">
        <ele>1609</ele>
        <time>2021-08-03T11:19:05Z</time>
      </trkpt>
      <trkpt lat="45.53461" lon="6.75244">
        <ele>1609</ele>
        <time>2021-08-03T11:19:06Z</time>
      </trkpt>
      <trkpt lat="45.53461" lon="6.75244">
        <ele>1609.1</ele>
        <time>2021-08-03T11:19:07Z</time>
      </trkpt>
      <trkpt lat="45.53461" lon="6.75244">
        <ele>1609.1</ele>
        <time>2021-08-03T11:19:08Z</time>
      </trkpt>
      <trkpt lat="45.53461" lon="6.75244">
        <ele>1609.1</ele>
        <time>2021-08-03T11:19:09Z</time>
      </trkpt>
      <trkpt lat="45.5346" lon="6.75245">
        <ele>1609.1</ele>
        <time>2021-08-03T11:19:10Z</time>
      </trkpt>
      <trkpt lat="45.5346" lon="6.75245">
        <ele>1609.2</ele>
        <time>2021-08-03T11:19:11Z</time>
      </trkpt>
      <trkpt lat="45.5346" lon="6.75246">
        <ele>1609.2</ele>
        <time>2021-08-03T11:19:12Z</time>
      </trkpt>
      <trkpt lat="45.53459" lon="6.75246">
        <ele>1609.3</ele>
        <time>2021-08-03T11:19:13Z</time>
      </trkpt>
      <trkpt lat="45.53458" lon="6.75246">
        <ele>1609.4</ele>
        <time>2021-08-03T11:19:14Z</time>
      </trkpt>
      <trkpt lat="45.53458" lon="6.75247">
        <ele>1609.5</ele>
        <time>2021-08-03T11:19:15Z</time>
      </trkpt>
      <trkpt lat="45.53457" lon="6.75247">
        <ele>1609.5</ele>
        <time>2021-08-03T11:19:16Z</time>
      </trkpt>
      <trkpt lat="45.53457" lon="6.75247">
        <ele>1609.6</ele>
        <time>2021-08-03T11:19:17Z</time>
      </trkpt>
      <trkpt lat="45.53457" lon="6.75247">
        <ele>1609.6</ele>
        <time>2021-08-03T11:19:18Z</time>
      </trkpt>
      <trkpt lat="45.53457" lon="6.75248">
        <ele>1609.6</ele>
        <time>2021-08-03T11:19:19Z</time>
      </trkpt>
      <trkpt lat="45.53457" lon="6.75248">
        <ele>1609.6</ele>
        <time>2021-08-03T11:19:20Z</time>
      </trkpt>
      <trkpt lat="45.53457" lon="6.75248">
        <ele>1609.7</ele>
        <time>2021-08-03T11:19:21Z</time>
      </trkpt>
      <trkpt lat="45.53457" lon="6.75249">
        <ele>1609.7</ele>
        <time>2021-08-03T11:19:22Z</time>
      </trkpt>
      <trkpt lat="45.53456" lon="6.75249">
        <ele>1609.8</ele>
        <time>2021-08-03T11:19:23Z</time>
      </trkpt>
      <trkpt lat="45.53456" lon="6.7525">
        <ele>1609.9</ele>
        <time>2021-08-03T11:19:24Z</time>
      </trkpt>
      <trkpt lat="45.53455" lon="6.75251">
        <ele>1610</ele>
        <time>2021-08-03T11:19:25Z</time>
      </trkpt>
      <trkpt lat="45.53455" lon="6.75252">
        <ele>1610.1</ele>
        <time>2021-08-03T11:19:26Z</time>
      </trkpt>
      <trkpt lat="45.53454" lon="6.75252">
        <ele>1610.2</ele>
        <time>2021-08-03T11:19:27Z</time>
      </trkpt>
      <trkpt lat="45.53453" lon="6.75253">
        <ele>1610.3</ele>
        <time>2021-08-03T11:19:28Z</time>
      </trkpt>
      <trkpt lat="45.53453" lon="6.75254">
        <ele>1610.4</ele>
        <time>2021-08-03T11:19:29Z</time>
      </trkpt>
      <trkpt lat="45.53452" lon="6.75255">
        <ele>1610.5</ele>
        <time>2021-08-03T11:19:30Z</time>
      </trkpt>
      <trkpt lat="45.53451" lon="6.75256">
        <ele>1610.6</ele>
        <time>2021-08-03T11:19:31Z</time>
      </trkpt>
      <trkpt lat="45.53451" lon="6.75257">
        <ele>1610.7</ele>
        <time>2021-08-03T11:19:32Z</time>
      </trkpt>
      <trkpt lat="45.5345" lon="6.75258">
        <ele>1610.8</ele>
        <time>2021-08-03T11:19:33Z</time>
      </trkpt>
      <trkpt lat="45.5345" lon="6.75259">
        <ele>1611</ele>
        <time>2021-08-03T11:19:34Z</time>
      </trkpt>
      <trkpt lat="45.53449" lon="6.75259">
        <ele>1611.1</ele>
        <time>2021-08-03T11:19:35Z</time>
      </trkpt>
      <trkpt lat="45.53448" lon="6.7526">
        <ele>1611.2</ele>
        <time>2021-08-03T11:19:36Z</time>
      </trkpt>
      <trkpt lat="45.53448" lon="6.75261">
        <ele>1611.3</ele>
        <time>2021-08-03T11:19:37Z</time>
      </trkpt>
      <trkpt lat="45.53447" lon="6.75262">
        <ele>1611.4</ele>
        <time>2021-08-03T11:19:38Z</time>
      </trkpt>
      <trkpt lat="45.53447" lon="6.75263">
        <ele>1611.5</ele>
        <time>2021-08-03T11:19:39Z</time>
      </trkpt>
      <trkpt lat="45.53446" lon="6.75264">
        <ele>1611.6</ele>
        <time>2021-08-03T11:19:40Z</time>
      </trkpt>
      <trkpt lat="45.53445" lon="6.75265">
        <ele>1611.8</ele>
        <time>2021-08-03T11:19:41Z</time>
      </trkpt>
      <trkpt lat="45.53445" lon="6.75267">
        <ele>1611.9</ele>
        <time>2021-08-03T11:19:42Z</time>
      </trkpt>
      <trkpt lat="45.53444" lon="6.75268">
        <ele>1612</ele>
        <time>2021-08-03T11:19:43Z</time>
      </trkpt>
      <trkpt lat="45.53444" lon="6.75269">
        <ele>1612.1</ele>
        <time>2021-08-03T11:19:44Z</time>
      </trkpt>
      <trkpt lat="45.53443" lon="6.7527">
        <ele>1612.2</ele>
        <time>2021-08-03T11:19:45Z</time>
      </trkpt>
      <trkpt lat="45.53442" lon="6.75271">
        <ele>1612.4</ele>
        <time>2021-08-03T11:19:46Z</time>
      </trkpt>
      <trkpt lat="45.53442" lon="6.75272">
        <ele>1612.5</ele>
        <time>2021-08-03T11:19:47Z</time>
      </trkpt>
      <trkpt lat="45.53441" lon="6.75273">
        <ele>1612.6</ele>
        <time>2021-08-03T11:19:48Z</time>
      </trkpt>
      <trkpt lat="45.5344" lon="6.75274">
        <ele>1612.7</ele>
        <time>2021-08-03T11:19:49Z</time>
      </trkpt>
      <trkpt lat="45.53439" lon="6.75276">
        <ele>1612.9</ele>
        <time>2021-08-03T11:19:50Z</time>
      </trkpt>
      <trkpt lat="45.53439" lon="6.75277">
        <ele>1613</ele>
        <time>2021-08-03T11:19:51Z</time>
      </trkpt>
      <trkpt lat="45.53438" lon="6.75278">
        <ele>1613.1</ele>
        <time>2021-08-03T11:19:52Z</time>
      </trkpt>
      <trkpt lat="45.53437" lon="6.75279">
        <ele>1613.3</ele>
        <time>2021-08-03T11:19:53Z</time>
      </trkpt>
      <trkpt lat="45.53437" lon="6.7528">
        <ele>1613.4</ele>
        <time>2021-08-03T11:19:54Z</time>
      </trkpt>
      <trkpt lat="45.53436" lon="6.75282">
        <ele>1613.5</ele>
        <time>2021-08-03T11:19:55Z</time>
      </trkpt>
      <trkpt lat="45.53435" lon="6.75283">
        <ele>1613.7</ele>
        <time>2021-08-03T11:19:56Z</time>
      </trkpt>
      <trkpt lat="45.53434" lon="6.75284">
        <ele>1613.8</ele>
        <time>2021-08-03T11:19:57Z</time>
      </trkpt>
      <trkpt lat="45.53434" lon="6.75285">
        <ele>1613.9</ele>
        <time>2021-08-03T11:19:58Z</time>
      </trkpt>
      <trkpt lat="45.53433" lon="6.75286">
        <ele>1614.1</ele>
        <time>2021-08-03T11:19:59Z</time>
      </trkpt>
      <trkpt lat="45.53432" lon="6.75288">
        <ele>1614.2</ele>
        <time>2021-08-03T11:20:00Z</time>
      </trkpt>
      <trkpt lat="45.53431" lon="6.75289">
        <ele>1614.3</ele>
        <time>2021-08-03T11:20:01Z</time>
      </trkpt>
      <trkpt lat="45.53431" lon="6.7529">
        <ele>1614.5</ele>
        <time>2021-08-03T11:20:02Z</time>
      </trkpt>
      <trkpt lat="45.5343" lon="6.75291">
        <ele>1614.6</ele>
        <time>2021-08-03T11:20:03Z</time>
      </trkpt>
      <trkpt lat="45.53429" lon="6.75292">
        <ele>1614.7</ele>
        <time>2021-08-03T11:20:04Z</time>
      </trkpt>
      <trkpt lat="45.53429" lon="6.75293">
        <ele>1614.9</ele>
        <time>2021-08-03T11:20:05Z</time>
      </trkpt>
      <trkpt lat="45.53428" lon="6.75294">
        <ele>1615</ele>
        <time>2021-08-03T11:20:06Z</time>
      </trkpt>
      <trkpt lat="45.53428" lon="6.75295">
        <ele>1615.1</ele>
        <time>2021-08-03T11:20:07Z</time>
      </trkpt>
      <trkpt lat="45.53427" lon="6.75296">
        <ele>1615.2</ele>
        <time>2021-08-03T11:20:08Z</time>
      </trkpt>
      <trkpt lat="45.53426" lon="6.75297">
        <ele>1615.3</ele>
        <time>2021-08-03T11:20:09Z</time>
      </trkpt>
      <trkpt lat="45.53426" lon="6.75298">
        <ele>1615.4</ele>
        <time>2021-08-03T11:20:10Z</time>
      </trkpt>
      <trkpt lat="45.53425" lon="6.75299">
        <ele>1615.5</ele>
        <time>2021-08-03T11:20:11Z</time>
      </trkpt>
      <trkpt lat="45.53425" lon="6.753">
        <ele>1615.6</ele>
        <time>2021-08-03T11:20:12Z</time>
      </trkpt>
      <trkpt lat="45.53424" lon="6.753">
        <ele>1615.7</ele>
        <time>2021-08-03T11:20:13Z</time>
      </trkpt>
      <trkpt lat="45.53424" lon="6.75301">
        <ele>1615.7</ele>
        <time>2021-08-03T11:20:14Z</time>
      </trkpt>
      <trkpt lat="45.53423" lon="6.75301">
        <ele>1615.8</ele>
        <time>2021-08-03T11:20:15Z</time>
      </trkpt>
      <trkpt lat="45.53423" lon="6.75302">
        <ele>1615.9</ele>
        <time>2021-08-03T11:20:16Z</time>
      </trkpt>
      <trkpt lat="45.53423" lon="6.75302">
        <ele>1615.9</ele>
        <time>2021-08-03T11:20:17Z</time>
      </trkpt>
      <trkpt lat="45.53423" lon="6.75302">
        <ele>1616</ele>
        <time>2021-08-03T11:20:18Z</time>
      </trkpt>
      <trkpt lat="45.53422" lon="6.75303">
        <ele>1616</ele>
        <time>2021-08-03T11:20:19Z</time>
      </trkpt>
      <trkpt lat="45.53422" lon="6.75303">
        <ele>1616</ele>
        <time>2021-08-03T11:20:20Z</time>
      </trkpt>
      <trkpt lat="45.53422" lon="6.75303">
        <ele>1616</ele>
        <time>2021-08-03T11:20:21Z</time>
      </trkpt>
      <trkpt lat="45.53422" lon="6.75302">
        <ele>1616.1</ele>
        <time>2021-08-03T11:20:22Z</time>
      </trkpt>
      <trkpt lat="45.53422" lon="6.75302">
        <ele>1616.1</ele>
        <time>2021-08-03T11:20:23Z</time>
      </trkpt>
      <trkpt lat="45.53422" lon="6.75302">
        <ele>1616.1</ele>
        <time>2021-08-03T11:20:24Z</time>
      </trkpt>
      <trkpt lat="45.53422" lon="6.75301">
        <ele>1616.2</ele>
        <time>2021-08-03T11:20:25Z</time>
      </trkpt>
      <trkpt lat="45.53422" lon="6.75301">
        <ele>1616.2</ele>
        <time>2021-08-03T11:20:26Z</time>
      </trkpt>
      <trkpt lat="45.53422" lon="6.753">
        <ele>1616.3</ele>
        <time>2021-08-03T11:20:27Z</time>
      </trkpt>
      <trkpt lat="45.53422" lon="6.75299">
        <ele>1616.4</ele>
        <time>2021-08-03T11:20:28Z</time>
      </trkpt>
      <trkpt lat="45.53422" lon="6.75298">
        <ele>1616.5</ele>
        <time>2021-08-03T11:20:29Z</time>
      </trkpt>
      <trkpt lat="45.53422" lon="6.75297">
        <ele>1616.6</ele>
        <time>2021-08-03T11:20:30Z</time>
      </trkpt>
      <trkpt lat="45.53422" lon="6.75295">
        <ele>1616.7</ele>
        <time>2021-08-03T11:20:31Z</time>
      </trkpt>
      <trkpt lat="45.53422" lon="6.75294">
        <ele>1616.8</ele>
        <time>2021-08-03T11:20:32Z</time>
      </trkpt>
      <trkpt lat="45.53422" lon="6.75292">
        <ele>1616.9</ele>
        <time>2021-08-03T11:20:33Z</time>
      </trkpt>
      <trkpt lat="45.53422" lon="6.7529">
        <ele>1617.1</ele>
        <time>2021-08-03T11:20:34Z</time>
      </trkpt>
      <trkpt lat="45.53422" lon="6.75288">
        <ele>1617.2</ele>
        <time>2021-08-03T11:20:35Z</time>
      </trkpt>
      <trkpt lat="45.53422" lon="6.75286">
        <ele>1617.4</ele>
        <time>2021-08-03T11:20:36Z</time>
      </trkpt>
      <trkpt lat="45.53422" lon="6.75285">
        <ele>1617.5</ele>
        <time>2021-08-03T11:20:37Z</time>
      </trkpt>
      <trkpt lat="45.53422" lon="6.75283">
        <ele>1617.7</ele>
        <time>2021-08-03T11:20:38Z</time>
      </trkpt>
      <trkpt lat="45.53422" lon="6.75281">
        <ele>1617.8</ele>
        <time>2021-08-03T11:20:39Z</time>
      </trkpt>
      <trkpt lat="45.53422" lon="6.75279">
        <ele>1617.9</ele>
        <time>2021-08-03T11:20:40Z</time>
      </trkpt>
      <trkpt lat="45.53423" lon="6.75277">
        <ele>1618.1</ele>
        <time>2021-08-03T11:20:41Z</time>
      </trkpt>
      <trkpt lat="45.53423" lon="6.75275">
        <ele>1618.2</ele>
        <time>2021-08-03T11:20:42Z</time>
      </trkpt>
      <trkpt lat="45.53423" lon="6.75274">
        <ele>1618.3</ele>
        <time>2021-08-03T11:20:43Z</time>
      </trkpt>
      <trkpt lat="45.53423" lon="6.75272">
        <ele>1618.4</ele>
        <time>2021-08-03T11:20:44Z</time>
      </trkpt>
      <trkpt lat="45.53424" lon="6.75271">
        <ele>1618.5</ele>
        <time>2021-08-03T11:20:45Z</time>
      </trkpt>
      <trkpt lat="45.53425" lon="6.75269">
        <ele>1618.7</ele>
        <time>2021-08-03T11:20:46Z</time>
      </trkpt>
      <trkpt lat="45.53425" lon="6.75268">
        <ele>1618.8</ele>
        <time>2021-08-03T11:20:47Z</time>
      </trkpt>
      <trkpt lat="45.53426" lon="6.75267">
        <ele>1618.9</ele>
        <time>2021-08-03T11:20:48Z</time>
      </trkpt>
      <trkpt lat="45.53427" lon="6.75265">
        <ele>1619</ele>
        <time>2021-08-03T11:20:49Z</time>
      </trkpt>
      <trkpt lat="45.53427" lon="6.75264">
        <ele>1619.1</ele>
        <time>2021-08-03T11:20:50Z</time>
      </trkpt>
      <trkpt lat="45.53428" lon="6.75262">
        <ele>1619.3</ele>
        <time>2021-08-03T11:20:51Z</time>
      </trkpt>
      <trkpt lat="45.53428" lon="6.75261">
        <ele>1619.4</ele>
        <time>2021-08-03T11:20:52Z</time>
      </trkpt>
      <trkpt lat="45.53428" lon="6.75259">
        <ele>1619.5</ele>
        <time>2021-08-03T11:20:53Z</time>
      </trkpt>
      <trkpt lat="45.53428" lon="6.75258">
        <ele>1619.6</ele>
        <time>2021-08-03T11:20:54Z</time>
      </trkpt>
      <trkpt lat="45.53428" lon="6.75256">
        <ele>1619.7</ele>
        <time>2021-08-03T11:20:55Z</time>
      </trkpt>
      <trkpt lat="45.53428" lon="6.75255">
        <ele>1619.8</ele>
        <time>2021-08-03T11:20:56Z</time>
      </trkpt>
      <trkpt lat="45.53428" lon="6.75253">
        <ele>1619.9</ele>
        <time>2021-08-03T11:20:57Z</time>
      </trkpt>
      <trkpt lat="45.53428" lon="6.75252">
        <ele>1620</ele>
        <time>2021-08-03T11:20:58Z</time>
      </trkpt>
      <trkpt lat="45.53429" lon="6.75251">
        <ele>1620.1</ele>
        <time>2021-08-03T11:20:59Z</time>
      </trkpt>
      <trkpt lat="45.53429" lon="6.7525">
        <ele>1620.2</ele>
        <time>2021-08-03T11:21:00Z</time>
      </trkpt>
      <trkpt lat="45.53429" lon="6.75248">
        <ele>1620.3</ele>
        <time>2021-08-03T11:21:01Z</time>
      </trkpt>
      <trkpt lat="45.5343" lon="6.75247">
        <ele>1620.4</ele>
        <time>2021-08-03T11:21:02Z</time>
      </trkpt>
      <trkpt lat="45.5343" lon="6.75246">
        <ele>1620.5</ele>
        <time>2021-08-03T11:21:03Z</time>
      </trkpt>
      <trkpt lat="45.5343" lon="6.75245">
        <ele>1620.6</ele>
        <time>2021-08-03T11:21:04Z</time>
      </trkpt>
      <trkpt lat="45.53431" lon="6.75244">
        <ele>1620.7</ele>
        <time>2021-08-03T11:21:05Z</time>
      </trkpt>
      <trkpt lat="45.53431" lon="6.75243">
        <ele>1620.8</ele>
        <time>2021-08-03T11:21:06Z</time>
      </trkpt>
      <trkpt lat="45.53432" lon="6.75242">
        <ele>1620.8</ele>
        <time>2021-08-03T11:21:07Z</time>
      </trkpt>
      <trkpt lat="45.53432" lon="6.7524">
        <ele>1620.9</ele>
        <time>2021-08-03T11:21:08Z</time>
      </trkpt>
      <trkpt lat="45.53432" lon="6.75239">
        <ele>1621</ele>
        <time>2021-08-03T11:21:09Z</time>
      </trkpt>
      <trkpt lat="45.53433" lon="6.75238">
        <ele>1621.1</ele>
        <time>2021-08-03T11:21:10Z</time>
      </trkpt>
      <trkpt lat="45.53433" lon="6.75237">
        <ele>1621.2</ele>
        <time>2021-08-03T11:21:11Z</time>
      </trkpt>
      <trkpt lat="45.53433" lon="6.75236">
        <ele>1621.3</ele>
        <time>2021-08-03T11:21:12Z</time>
      </trkpt>
      <trkpt lat="45.53433" lon="6.75235">
        <ele>1621.4</ele>
        <time>2021-08-03T11:21:13Z</time>
      </trkpt>
      <trkpt lat="45.53434" lon="6.75234">
        <ele>1621.5</ele>
        <time>2021-08-03T11:21:14Z</time>
      </trkpt>
      <trkpt lat="45.53434" lon="6.75233">
        <ele>1621.6</ele>
        <time>2021-08-03T11:21:15Z</time>
      </trkpt>
      <trkpt lat="45.53434" lon="6.75232">
        <ele>1621.6</ele>
        <time>2021-08-03T11:21:16Z</time>
      </trkpt>
      <trkpt lat="45.53434" lon="6.75231">
        <ele>1621.7</ele>
        <time>2021-08-03T11:21:17Z</time>
      </trkpt>
      <trkpt lat="45.53435" lon="6.7523">
        <ele>1621.8</ele>
        <time>2021-08-03T11:21:18Z</time>
      </trkpt>
      <trkpt lat="45.53435" lon="6.75229">
        <ele>1621.9</ele>
        <time>2021-08-03T11:21:19Z</time>
      </trkpt>
      <trkpt lat="45.53435" lon="6.75228">
        <ele>1622</ele>
        <time>2021-08-03T11:21:20Z</time>
      </trkpt>
      <trkpt lat="45.53435" lon="6.75227">
        <ele>1622</ele>
        <time>2021-08-03T11:21:21Z</time>
      </trkpt>
      <trkpt lat="45.53435" lon="6.75227">
        <ele>1622.1</ele>
        <time>2021-08-03T11:21:22Z</time>
      </trkpt>
      <trkpt lat="45.53435" lon="6.75227">
        <ele>1622.1</ele>
        <time>2021-08-03T11:21:23Z</time>
      </trkpt>
      <trkpt lat="45.53435" lon="6.75227">
        <ele>1622.1</ele>
        <time>2021-08-03T11:21:24Z</time>
      </trkpt>
      <trkpt lat="45.53434" lon="6.75227">
        <ele>1622.1</ele>
        <time>2021-08-03T11:21:25Z</time>
      </trkpt>
      <trkpt lat="45.53435" lon="6.75227">
        <ele>1622.1</ele>
        <time>2021-08-03T11:21:26Z</time>
      </trkpt>
      <trkpt lat="45.53435" lon="6.75226">
        <ele>1622.2</ele>
        <time>2021-08-03T11:21:27Z</time>
      </trkpt>
      <trkpt lat="45.53435" lon="6.75226">
        <ele>1622.2</ele>
        <time>2021-08-03T11:21:28Z</time>
      </trkpt>
      <trkpt lat="45.53435" lon="6.75225">
        <ele>1622.3</ele>
        <time>2021-08-03T11:21:29Z</time>
      </trkpt>
      <trkpt lat="45.53436" lon="6.75224">
        <ele>1622.4</ele>
        <time>2021-08-03T11:21:30Z</time>
      </trkpt>
      <trkpt lat="45.53436" lon="6.75223">
        <ele>1622.5</ele>
        <time>2021-08-03T11:21:31Z</time>
      </trkpt>
      <trkpt lat="45.53437" lon="6.75222">
        <ele>1622.6</ele>
        <time>2021-08-03T11:21:32Z</time>
      </trkpt>
      <trkpt lat="45.53437" lon="6.7522">
        <ele>1622.7</ele>
        <time>2021-08-03T11:21:33Z</time>
      </trkpt>
      <trkpt lat="45.53438" lon="6.75219">
        <ele>1622.9</ele>
        <time>2021-08-03T11:21:34Z</time>
      </trkpt>
      <trkpt lat="45.53438" lon="6.75217">
        <ele>1623</ele>
        <time>2021-08-03T11:21:35Z</time>
      </trkpt>
      <trkpt lat="45.53438" lon="6.75216">
        <ele>1623.1</ele>
        <time>2021-08-03T11:21:36Z</time>
      </trkpt>
      <trkpt lat="45.53439" lon="6.75214">
        <ele>1623.2</ele>
        <time>2021-08-03T11:21:37Z</time>
      </trkpt>
      <trkpt lat="45.53439" lon="6.75213">
        <ele>1623.4</ele>
        <time>2021-08-03T11:21:38Z</time>
      </trkpt>
      <trkpt lat="45.5344" lon="6.75212">
        <ele>1623.5</ele>
        <time>2021-08-03T11:21:39Z</time>
      </trkpt>
      <trkpt lat="45.5344" lon="6.7521">
        <ele>1623.6</ele>
        <time>2021-08-03T11:21:40Z</time>
      </trkpt>
      <trkpt lat="45.5344" lon="6.75209">
        <ele>1623.7</ele>
        <time>2021-08-03T11:21:41Z</time>
      </trkpt>
      <trkpt lat="45.53441" lon="6.75207">
        <ele>1623.9</ele>
        <time>2021-08-03T11:21:42Z</time>
      </trkpt>
      <trkpt lat="45.53441" lon="6.75206">
        <ele>1624</ele>
        <time>2021-08-03T11:21:43Z</time>
      </trkpt>
      <trkpt lat="45.53442" lon="6.75204">
        <ele>1624.1</ele>
        <time>2021-08-03T11:21:44Z</time>
      </trkpt>
      <trkpt lat="45.53442" lon="6.75203">
        <ele>1624.2</ele>
        <time>2021-08-03T11:21:45Z</time>
      </trkpt>
      <trkpt lat="45.53442" lon="6.75201">
        <ele>1624.4</ele>
        <time>2021-08-03T11:21:46Z</time>
      </trkpt>
      <trkpt lat="45.53443" lon="6.752">
        <ele>1624.5</ele>
        <time>2021-08-03T11:21:47Z</time>
      </trkpt>
      <trkpt lat="45.53443" lon="6.75198">
        <ele>1624.6</ele>
        <time>2021-08-03T11:21:48Z</time>
      </trkpt>
      <trkpt lat="45.53443" lon="6.75197">
        <ele>1624.8</ele>
        <time>2021-08-03T11:21:49Z</time>
      </trkpt>
      <trkpt lat="45.53444" lon="6.75195">
        <ele>1624.9</ele>
        <time>2021-08-03T11:21:50Z</time>
      </trkpt>
      <trkpt lat="45.53444" lon="6.75194">
        <ele>1625</ele>
        <time>2021-08-03T11:21:51Z</time>
      </trkpt>
      <trkpt lat="45.53444" lon="6.75192">
        <ele>1625.2</ele>
        <time>2021-08-03T11:21:52Z</time>
      </trkpt>
      <trkpt lat="45.53445" lon="6.7519">
        <ele>1625.3</ele>
        <time>2021-08-03T11:21:53Z</time>
      </trkpt>
      <trkpt lat="45.53445" lon="6.75189">
        <ele>1625.5</ele>
        <time>2021-08-03T11:21:54Z</time>
      </trkpt>
      <trkpt lat="45.53445" lon="6.75187">
        <ele>1625.6</ele>
        <time>2021-08-03T11:21:55Z</time>
      </trkpt>
      <trkpt lat="45.53446" lon="6.75185">
        <ele>1625.7</ele>
        <time>2021-08-03T11:21:56Z</time>
      </trkpt>
      <trkpt lat="45.53446" lon="6.75183">
        <ele>1625.9</ele>
        <time>2021-08-03T11:21:57Z</time>
      </trkpt>
      <trkpt lat="45.53446" lon="6.75182">
        <ele>1626</ele>
        <time>2021-08-03T11:21:58Z</time>
      </trkpt>
      <trkpt lat="45.53447" lon="6.7518">
        <ele>1626.2</ele>
        <time>2021-08-03T11:21:59Z</time>
      </trkpt>
      <trkpt lat="45.53447" lon="6.75178">
        <ele>1626.3</ele>
        <time>2021-08-03T11:22:00Z</time>
      </trkpt>
      <trkpt lat="45.53447" lon="6.75177">
        <ele>1626.4</ele>
        <time>2021-08-03T11:22:01Z</time>
      </trkpt>
      <trkpt lat="45.53448" lon="6.75175">
        <ele>1626.6</ele>
        <time>2021-08-03T11:22:02Z</time>
      </trkpt>
      <trkpt lat="45.53448" lon="6.75173">
        <ele>1626.7</ele>
        <time>2021-08-03T11:22:03Z</time>
      </trkpt>
      <trkpt lat="45.53448" lon="6.75172">
        <ele>1626.8</ele>
        <time>2021-08-03T11:22:04Z</time>
      </trkpt>
      <trkpt lat="45.53448" lon="6.7517">
        <ele>1627</ele>
        <time>2021-08-03T11:22:05Z</time>
      </trkpt>
      <trkpt lat="45.53448" lon="6.75169">
        <ele>1627.1</ele>
        <time>2021-08-03T11:22:06Z</time>
      </trkpt>
      <trkpt lat="45.53449" lon="6.75167">
        <ele>1627.2</ele>
        <time>2021-08-03T11:22:07Z</time>
      </trkpt>
      <trkpt lat="45.53449" lon="6.75166">
        <ele>1627.3</ele>
        <time>2021-08-03T11:22:08Z</time>
      </trkpt>
      <trkpt lat="45.53449" lon="6.75164">
        <ele>1627.4</ele>
        <time>2021-08-03T11:22:09Z</time>
      </trkpt>
      <trkpt lat="45.53449" lon="6.75163">
        <ele>1627.5</ele>
        <time>2021-08-03T11:22:10Z</time>
      </trkpt>
      <trkpt lat="45.53449" lon="6.75162">
        <ele>1627.6</ele>
        <time>2021-08-03T11:22:11Z</time>
      </trkpt>
      <trkpt lat="45.53449" lon="6.7516">
        <ele>1627.7</ele>
        <time>2021-08-03T11:22:12Z</time>
      </trkpt>
      <trkpt lat="45.53449" lon="6.75159">
        <ele>1627.8</ele>
        <time>2021-08-03T11:22:13Z</time>
      </trkpt>
      <trkpt lat="45.53448" lon="6.75158">
        <ele>1627.9</ele>
        <time>2021-08-03T11:22:14Z</time>
      </trkpt>
      <trkpt lat="45.53448" lon="6.75157">
        <ele>1628</ele>
        <time>2021-08-03T11:22:15Z</time>
      </trkpt>
      <trkpt lat="45.53448" lon="6.75155">
        <ele>1628.1</ele>
        <time>2021-08-03T11:22:16Z</time>
      </trkpt>
      <trkpt lat="45.53448" lon="6.75154">
        <ele>1628.2</ele>
        <time>2021-08-03T11:22:17Z</time>
      </trkpt>
      <trkpt lat="45.53448" lon="6.75153">
        <ele>1628.3</ele>
        <time>2021-08-03T11:22:18Z</time>
      </trkpt>
      <trkpt lat="45.53447" lon="6.75151">
        <ele>1628.4</ele>
        <time>2021-08-03T11:22:19Z</time>
      </trkpt>
      <trkpt lat="45.53447" lon="6.7515">
        <ele>1628.5</ele>
        <time>2021-08-03T11:22:20Z</time>
      </trkpt>
      <trkpt lat="45.53447" lon="6.75148">
        <ele>1628.6</ele>
        <time>2021-08-03T11:22:21Z</time>
      </trkpt>
      <trkpt lat="45.53447" lon="6.75147">
        <ele>1628.8</ele>
        <time>2021-08-03T11:22:22Z</time>
      </trkpt>
      <trkpt lat="45.53446" lon="6.75145">
        <ele>1628.9</ele>
        <time>2021-08-03T11:22:23Z</time>
      </trkpt>
      <trkpt lat="45.53446" lon="6.75144">
        <ele>1629</ele>
        <time>2021-08-03T11:22:24Z</time>
      </trkpt>
      <trkpt lat="45.53445" lon="6.75142">
        <ele>1629.1</ele>
        <time>2021-08-03T11:22:25Z</time>
      </trkpt>
      <trkpt lat="45.53445" lon="6.75141">
        <ele>1629.2</ele>
        <time>2021-08-03T11:22:26Z</time>
      </trkpt>
      <trkpt lat="45.53445" lon="6.75139">
        <ele>1629.3</ele>
        <time>2021-08-03T11:22:27Z</time>
      </trkpt>
      <trkpt lat="45.53444" lon="6.75138">
        <ele>1629.4</ele>
        <time>2021-08-03T11:22:28Z</time>
      </trkpt>
      <trkpt lat="45.53444" lon="6.75137">
        <ele>1629.6</ele>
        <time>2021-08-03T11:22:29Z</time>
      </trkpt>
      <trkpt lat="45.53444" lon="6.75135">
        <ele>1629.6</ele>
        <time>2021-08-03T11:22:30Z</time>
      </trkpt>
      <trkpt lat="45.53443" lon="6.75134">
        <ele>1629.7</ele>
        <time>2021-08-03T11:22:31Z</time>
      </trkpt>
      <trkpt lat="45.53443" lon="6.75133">
        <ele>1629.8</ele>
        <time>2021-08-03T11:22:32Z</time>
      </trkpt>
      <trkpt lat="45.53443" lon="6.75132">
        <ele>1629.9</ele>
        <time>2021-08-03T11:22:33Z</time>
      </trkpt>
      <trkpt lat="45.53443" lon="6.75131">
        <ele>1629.9</ele>
        <time>2021-08-03T11:22:34Z</time>
      </trkpt>
      <trkpt lat="45.53442" lon="6.7513">
        <ele>1630</ele>
        <time>2021-08-03T11:22:35Z</time>
      </trkpt>
      <trkpt lat="45.53442" lon="6.75129">
        <ele>1630.1</ele>
        <time>2021-08-03T11:22:36Z</time>
      </trkpt>
      <trkpt lat="45.53442" lon="6.75129">
        <ele>1630.2</ele>
        <time>2021-08-03T11:22:37Z</time>
      </trkpt>
      <trkpt lat="45.53441" lon="6.75127">
        <ele>1630.2</ele>
        <time>2021-08-03T11:22:38Z</time>
      </trkpt>
      <trkpt lat="45.53441" lon="6.75126">
        <ele>1630.3</ele>
        <time>2021-08-03T11:22:39Z</time>
      </trkpt>
      <trkpt lat="45.5344" lon="6.75125">
        <ele>1630.4</ele>
        <time>2021-08-03T11:22:40Z</time>
      </trkpt>
      <trkpt lat="45.5344" lon="6.75124">
        <ele>1630.5</ele>
        <time>2021-08-03T11:22:41Z</time>
      </trkpt>
      <trkpt lat="45.53439" lon="6.75123">
        <ele>1630.6</ele>
        <time>2021-08-03T11:22:42Z</time>
      </trkpt>
      <trkpt lat="45.53439" lon="6.75121">
        <ele>1630.8</ele>
        <time>2021-08-03T11:22:43Z</time>
      </trkpt>
      <trkpt lat="45.53438" lon="6.7512">
        <ele>1630.9</ele>
        <time>2021-08-03T11:22:44Z</time>
      </trkpt>
      <trkpt lat="45.53437" lon="6.75118">
        <ele>1631</ele>
        <time>2021-08-03T11:22:45Z</time>
      </trkpt>
      <trkpt lat="45.53437" lon="6.75117">
        <ele>1631.1</ele>
        <time>2021-08-03T11:22:46Z</time>
      </trkpt>
      <trkpt lat="45.53436" lon="6.75115">
        <ele>1631.2</ele>
        <time>2021-08-03T11:22:47Z</time>
      </trkpt>
      <trkpt lat="45.53436" lon="6.75113">
        <ele>1631.4</ele>
        <time>2021-08-03T11:22:48Z</time>
      </trkpt>
      <trkpt lat="45.53435" lon="6.75112">
        <ele>1631.5</ele>
        <time>2021-08-03T11:22:49Z</time>
      </trkpt>
      <trkpt lat="45.53435" lon="6.7511">
        <ele>1631.6</ele>
        <time>2021-08-03T11:22:50Z</time>
      </trkpt>
      <trkpt lat="45.53434" lon="6.75108">
        <ele>1631.8</ele>
        <time>2021-08-03T11:22:51Z</time>
      </trkpt>
      <trkpt lat="45.53434" lon="6.75107">
        <ele>1631.9</ele>
        <time>2021-08-03T11:22:52Z</time>
      </trkpt>
      <trkpt lat="45.53434" lon="6.75105">
        <ele>1632</ele>
        <time>2021-08-03T11:22:53Z</time>
      </trkpt>
      <trkpt lat="45.53433" lon="6.75103">
        <ele>1632.2</ele>
        <time>2021-08-03T11:22:54Z</time>
      </trkpt>
      <trkpt lat="45.53433" lon="6.75101">
        <ele>1632.3</ele>
        <time>2021-08-03T11:22:55Z</time>
      </trkpt>
      <trkpt lat="45.53433" lon="6.751">
        <ele>1632.4</ele>
        <time>2021-08-03T11:22:56Z</time>
      </trkpt>
      <trkpt lat="45.53433" lon="6.75098">
        <ele>1632.5</ele>
        <time>2021-08-03T11:22:57Z</time>
      </trkpt>
      <trkpt lat="45.53433" lon="6.75097">
        <ele>1632.6</ele>
        <time>2021-08-03T11:22:58Z</time>
      </trkpt>
      <trkpt lat="45.53432" lon="6.75095">
        <ele>1632.7</ele>
        <time>2021-08-03T11:22:59Z</time>
      </trkpt>
      <trkpt lat="45.53432" lon="6.75094">
        <ele>1632.8</ele>
        <time>2021-08-03T11:23:00Z</time>
      </trkpt>
      <trkpt lat="45.53432" lon="6.75093">
        <ele>1632.9</ele>
        <time>2021-08-03T11:23:01Z</time>
      </trkpt>
      <trkpt lat="45.53432" lon="6.75092">
        <ele>1633</ele>
        <time>2021-08-03T11:23:02Z</time>
      </trkpt>
      <trkpt lat="45.53432" lon="6.75091">
        <ele>1633.1</ele>
        <time>2021-08-03T11:23:03Z</time>
      </trkpt>
      <trkpt lat="45.53432" lon="6.7509">
        <ele>1633.1</ele>
        <time>2021-08-03T11:23:04Z</time>
      </trkpt>
      <trkpt lat="45.53432" lon="6.75089">
        <ele>1633.2</ele>
        <time>2021-08-03T11:23:05Z</time>
      </trkpt>
      <trkpt lat="45.53432" lon="6.75088">
        <ele>1633.3</ele>
        <time>2021-08-03T11:23:06Z</time>
      </trkpt>
      <trkpt lat="45.53431" lon="6.75087">
        <ele>1633.3</ele>
        <time>2021-08-03T11:23:07Z</time>
      </trkpt>
      <trkpt lat="45.53431" lon="6.75086">
        <ele>1633.4</ele>
        <time>2021-08-03T11:23:08Z</time>
      </trkpt>
      <trkpt lat="45.53431" lon="6.75086">
        <ele>1633.4</ele>
        <time>2021-08-03T11:23:09Z</time>
      </trkpt>
      <trkpt lat="45.53431" lon="6.75086">
        <ele>1633.4</ele>
        <time>2021-08-03T11:23:10Z</time>
      </trkpt>
      <trkpt lat="45.53431" lon="6.75085">
        <ele>1633.4</ele>
        <time>2021-08-03T11:23:11Z</time>
      </trkpt>
      <trkpt lat="45.53431" lon="6.75085">
        <ele>1633.5</ele>
        <time>2021-08-03T11:23:12Z</time>
      </trkpt>
      <trkpt lat="45.53431" lon="6.75085">
        <ele>1633.5</ele>
        <time>2021-08-03T11:23:13Z</time>
      </trkpt>
      <trkpt lat="45.53431" lon="6.75085">
        <ele>1633.5</ele>
        <time>2021-08-03T11:23:14Z</time>
      </trkpt>
      <trkpt lat="45.53431" lon="6.75085">
        <ele>1633.5</ele>
        <time>2021-08-03T11:23:15Z</time>
      </trkpt>
      <trkpt lat="45.53431" lon="6.75085">
        <ele>1633.5</ele>
        <time>2021-08-03T11:23:16Z</time>
      </trkpt>
      <trkpt lat="45.53431" lon="6.75085">
        <ele>1633.5</ele>
        <time>2021-08-03T11:23:17Z</time>
      </trkpt>
      <trkpt lat="45.53431" lon="6.75085">
        <ele>1633.5</ele>
        <time>2021-08-03T11:23:18Z</time>
      </trkpt>
      <trkpt lat="45.53431" lon="6.75085">
        <ele>1633.5</ele>
        <time>2021-08-03T11:23:19Z</time>
      </trkpt>
      <trkpt lat="45.53431" lon="6.75084">
        <ele>1633.5</ele>
        <time>2021-08-03T11:23:20Z</time>
      </trkpt>
      <trkpt lat="45.53431" lon="6.75084">
        <ele>1633.6</ele>
        <time>2021-08-03T11:23:21Z</time>
      </trkpt>
      <trkpt lat="45.53431" lon="6.75083">
        <ele>1633.6</ele>
        <time>2021-08-03T11:23:22Z</time>
      </trkpt>
      <trkpt lat="45.53431" lon="6.75082">
        <ele>1633.7</ele>
        <time>2021-08-03T11:23:23Z</time>
      </trkpt>
      <trkpt lat="45.53431" lon="6.7508">
        <ele>1633.8</ele>
        <time>2021-08-03T11:23:24Z</time>
      </trkpt>
      <trkpt lat="45.53431" lon="6.75079">
        <ele>1633.9</ele>
        <time>2021-08-03T11:23:25Z</time>
      </trkpt>
      <trkpt lat="45.53431" lon="6.75078">
        <ele>1634</ele>
        <time>2021-08-03T11:23:26Z</time>
      </trkpt>
      <trkpt lat="45.53431" lon="6.75077">
        <ele>1634</ele>
        <time>2021-08-03T11:23:27Z</time>
      </trkpt>
      <trkpt lat="45.5343" lon="6.75076">
        <ele>1634.1</ele>
        <time>2021-08-03T11:23:28Z</time>
      </trkpt>
      <trkpt lat="45.5343" lon="6.75074">
        <ele>1634.2</ele>
        <time>2021-08-03T11:23:29Z</time>
      </trkpt>
      <trkpt lat="45.5343" lon="6.75073">
        <ele>1634.3</ele>
        <time>2021-08-03T11:23:30Z</time>
      </trkpt>
      <trkpt lat="45.53429" lon="6.75072">
        <ele>1634.4</ele>
        <time>2021-08-03T11:23:31Z</time>
      </trkpt>
      <trkpt lat="45.53429" lon="6.75071">
        <ele>1634.5</ele>
        <time>2021-08-03T11:23:32Z</time>
      </trkpt>
      <trkpt lat="45.53428" lon="6.75069">
        <ele>1634.6</ele>
        <time>2021-08-03T11:23:33Z</time>
      </trkpt>
      <trkpt lat="45.53428" lon="6.75067">
        <ele>1634.7</ele>
        <time>2021-08-03T11:23:34Z</time>
      </trkpt>
      <trkpt lat="45.53428" lon="6.75066">
        <ele>1634.9</ele>
        <time>2021-08-03T11:23:35Z</time>
      </trkpt>
      <trkpt lat="45.53427" lon="6.75064">
        <ele>1635</ele>
        <time>2021-08-03T11:23:36Z</time>
      </trkpt>
      <trkpt lat="45.53427" lon="6.75062">
        <ele>1635.2</ele>
        <time>2021-08-03T11:23:37Z</time>
      </trkpt>
      <trkpt lat="45.53426" lon="6.7506">
        <ele>1635.3</ele>
        <time>2021-08-03T11:23:38Z</time>
      </trkpt>
      <trkpt lat="45.53426" lon="6.75058">
        <ele>1635.4</ele>
        <time>2021-08-03T11:23:39Z</time>
      </trkpt>
      <trkpt lat="45.53425" lon="6.75056">
        <ele>1635.6</ele>
        <time>2021-08-03T11:23:40Z</time>
      </trkpt>
      <trkpt lat="45.53425" lon="6.75054">
        <ele>1635.7</ele>
        <time>2021-08-03T11:23:41Z</time>
      </trkpt>
      <trkpt lat="45.53424" lon="6.75052">
        <ele>1635.9</ele>
        <time>2021-08-03T11:23:42Z</time>
      </trkpt>
      <trkpt lat="45.53424" lon="6.7505">
        <ele>1636</ele>
        <time>2021-08-03T11:23:43Z</time>
      </trkpt>
      <trkpt lat="45.53423" lon="6.75048">
        <ele>1636.1</ele>
        <time>2021-08-03T11:23:44Z</time>
      </trkpt>
      <trkpt lat="45.53423" lon="6.75047">
        <ele>1636.3</ele>
        <time>2021-08-03T11:23:45Z</time>
      </trkpt>
      <trkpt lat="45.53422" lon="6.75045">
        <ele>1636.4</ele>
        <time>2021-08-03T11:23:46Z</time>
      </trkpt>
      <trkpt lat="45.53421" lon="6.75043">
        <ele>1636.5</ele>
        <time>2021-08-03T11:23:47Z</time>
      </trkpt>
      <trkpt lat="45.53421" lon="6.75041">
        <ele>1636.6</ele>
        <time>2021-08-03T11:23:48Z</time>
      </trkpt>
      <trkpt lat="45.5342" lon="6.7504">
        <ele>1636.8</ele>
        <time>2021-08-03T11:23:49Z</time>
      </trkpt>
      <trkpt lat="45.5342" lon="6.75038">
        <ele>1636.9</ele>
        <time>2021-08-03T11:23:50Z</time>
      </trkpt>
      <trkpt lat="45.53419" lon="6.75037">
        <ele>1637</ele>
        <time>2021-08-03T11:23:51Z</time>
      </trkpt>
      <trkpt lat="45.53418" lon="6.75035">
        <ele>1637.1</ele>
        <time>2021-08-03T11:23:52Z</time>
      </trkpt>
      <trkpt lat="45.53418" lon="6.75034">
        <ele>1637.3</ele>
        <time>2021-08-03T11:23:53Z</time>
      </trkpt>
      <trkpt lat="45.53417" lon="6.75032">
        <ele>1637.4</ele>
        <time>2021-08-03T11:23:54Z</time>
      </trkpt>
      <trkpt lat="45.53416" lon="6.75031">
        <ele>1637.5</ele>
        <time>2021-08-03T11:23:55Z</time>
      </trkpt>
      <trkpt lat="45.53416" lon="6.75029">
        <ele>1637.6</ele>
        <time>2021-08-03T11:23:56Z</time>
      </trkpt>
      <trkpt lat="45.53415" lon="6.75028">
        <ele>1637.7</ele>
        <time>2021-08-03T11:23:57Z</time>
      </trkpt>
      <trkpt lat="45.53414" lon="6.75026">
        <ele>1637.8</ele>
        <time>2021-08-03T11:23:58Z</time>
      </trkpt>
      <trkpt lat="45.53414" lon="6.75025">
        <ele>1638</ele>
        <time>2021-08-03T11:23:59Z</time>
      </trkpt>
      <trkpt lat="45.53413" lon="6.75023">
        <ele>1638.1</ele>
        <time>2021-08-03T11:24:00Z</time>
      </trkpt>
      <trkpt lat="45.53413" lon="6.75022">
        <ele>1638.2</ele>
        <time>2021-08-03T11:24:01Z</time>
      </trkpt>
      <trkpt lat="45.53412" lon="6.7502">
        <ele>1638.3</ele>
        <time>2021-08-03T11:24:02Z</time>
      </trkpt>
      <trkpt lat="45.53412" lon="6.75018">
        <ele>1638.4</ele>
        <time>2021-08-03T11:24:03Z</time>
      </trkpt>
      <trkpt lat="45.53411" lon="6.75017">
        <ele>1638.6</ele>
        <time>2021-08-03T11:24:04Z</time>
      </trkpt>
      <trkpt lat="45.53411" lon="6.75015">
        <ele>1638.7</ele>
        <time>2021-08-03T11:24:05Z</time>
      </trkpt>
      <trkpt lat="45.5341" lon="6.75013">
        <ele>1638.8</ele>
        <time>2021-08-03T11:24:06Z</time>
      </trkpt>
      <trkpt lat="45.5341" lon="6.75011">
        <ele>1639</ele>
        <time>2021-08-03T11:24:07Z</time>
      </trkpt>
      <trkpt lat="45.53409" lon="6.75009">
        <ele>1639.1</ele>
        <time>2021-08-03T11:24:08Z</time>
      </trkpt>
      <trkpt lat="45.53409" lon="6.75007">
        <ele>1639.3</ele>
        <time>2021-08-03T11:24:09Z</time>
      </trkpt>
      <trkpt lat="45.53408" lon="6.75005">
        <ele>1639.4</ele>
        <time>2021-08-03T11:24:10Z</time>
      </trkpt>
      <trkpt lat="45.53408" lon="6.75003">
        <ele>1639.6</ele>
        <time>2021-08-03T11:24:11Z</time>
      </trkpt>
      <trkpt lat="45.53407" lon="6.75001">
        <ele>1639.7</ele>
        <time>2021-08-03T11:24:12Z</time>
      </trkpt>
      <trkpt lat="45.53406" lon="6.75">
        <ele>1639.8</ele>
        <time>2021-08-03T11:24:13Z</time>
      </trkpt>
      <trkpt lat="45.53406" lon="6.74998">
        <ele>1640</ele>
        <time>2021-08-03T11:24:14Z</time>
      </trkpt>
      <trkpt lat="45.53405" lon="6.74996">
        <ele>1640.1</ele>
        <time>2021-08-03T11:24:15Z</time>
      </trkpt>
      <trkpt lat="45.53405" lon="6.74995">
        <ele>1640.2</ele>
        <time>2021-08-03T11:24:16Z</time>
      </trkpt>
      <trkpt lat="45.53404" lon="6.74993">
        <ele>1640.4</ele>
        <time>2021-08-03T11:24:17Z</time>
      </trkpt>
      <trkpt lat="45.53404" lon="6.74992">
        <ele>1640.5</ele>
        <time>2021-08-03T11:24:18Z</time>
      </trkpt>
      <trkpt lat="45.53403" lon="6.7499">
        <ele>1640.6</ele>
        <time>2021-08-03T11:24:19Z</time>
      </trkpt>
      <trkpt lat="45.53402" lon="6.74989">
        <ele>1640.8</ele>
        <time>2021-08-03T11:24:20Z</time>
      </trkpt>
      <trkpt lat="45.53402" lon="6.74987">
        <ele>1640.9</ele>
        <time>2021-08-03T11:24:21Z</time>
      </trkpt>
      <trkpt lat="45.53401" lon="6.74986">
        <ele>1641</ele>
        <time>2021-08-03T11:24:22Z</time>
      </trkpt>
      <trkpt lat="45.53401" lon="6.74984">
        <ele>1641.1</ele>
        <time>2021-08-03T11:24:23Z</time>
      </trkpt>
      <trkpt lat="45.534" lon="6.74983">
        <ele>1641.3</ele>
        <time>2021-08-03T11:24:24Z</time>
      </trkpt>
      <trkpt lat="45.534" lon="6.74981">
        <ele>1641.4</ele>
        <time>2021-08-03T11:24:25Z</time>
      </trkpt>
      <trkpt lat="45.53399" lon="6.7498">
        <ele>1641.5</ele>
        <time>2021-08-03T11:24:26Z</time>
      </trkpt>
      <trkpt lat="45.53399" lon="6.74978">
        <ele>1641.6</ele>
        <time>2021-08-03T11:24:27Z</time>
      </trkpt>
      <trkpt lat="45.53398" lon="6.74977">
        <ele>1641.7</ele>
        <time>2021-08-03T11:24:28Z</time>
      </trkpt>
      <trkpt lat="45.53398" lon="6.74975">
        <ele>1641.9</ele>
        <time>2021-08-03T11:24:29Z</time>
      </trkpt>
      <trkpt lat="45.53398" lon="6.74974">
        <ele>1642</ele>
        <time>2021-08-03T11:24:30Z</time>
      </trkpt>
      <trkpt lat="45.53397" lon="6.74972">
        <ele>1642.1</ele>
        <time>2021-08-03T11:24:31Z</time>
      </trkpt>
      <trkpt lat="45.53397" lon="6.74971">
        <ele>1642.2</ele>
        <time>2021-08-03T11:24:32Z</time>
      </trkpt>
      <trkpt lat="45.53396" lon="6.74969">
        <ele>1642.4</ele>
        <time>2021-08-03T11:24:33Z</time>
      </trkpt>
      <trkpt lat="45.53396" lon="6.74968">
        <ele>1642.5</ele>
        <time>2021-08-03T11:24:34Z</time>
      </trkpt>
      <trkpt lat="45.53396" lon="6.74966">
        <ele>1642.6</ele>
        <time>2021-08-03T11:24:35Z</time>
      </trkpt>
      <trkpt lat="45.53395" lon="6.74965">
        <ele>1642.7</ele>
        <time>2021-08-03T11:24:36Z</time>
      </trkpt>
      <trkpt lat="45.53395" lon="6.74963">
        <ele>1642.8</ele>
        <time>2021-08-03T11:24:37Z</time>
      </trkpt>
      <trkpt lat="45.53394" lon="6.74962">
        <ele>1643</ele>
        <time>2021-08-03T11:24:38Z</time>
      </trkpt>
      <trkpt lat="45.53394" lon="6.7496">
        <ele>1643.1</ele>
        <time>2021-08-03T11:24:39Z</time>
      </trkpt>
      <trkpt lat="45.53394" lon="6.74959">
        <ele>1643.2</ele>
        <time>2021-08-03T11:24:40Z</time>
      </trkpt>
      <trkpt lat="45.53393" lon="6.74957">
        <ele>1643.3</ele>
        <time>2021-08-03T11:24:41Z</time>
      </trkpt>
      <trkpt lat="45.53393" lon="6.74956">
        <ele>1643.4</ele>
        <time>2021-08-03T11:24:42Z</time>
      </trkpt>
      <trkpt lat="45.53392" lon="6.74954">
        <ele>1643.5</ele>
        <time>2021-08-03T11:24:43Z</time>
      </trkpt>
      <trkpt lat="45.53392" lon="6.74953">
        <ele>1643.7</ele>
        <time>2021-08-03T11:24:44Z</time>
      </trkpt>
      <trkpt lat="45.53391" lon="6.74951">
        <ele>1643.8</ele>
        <time>2021-08-03T11:24:45Z</time>
      </trkpt>
      <trkpt lat="45.53391" lon="6.7495">
        <ele>1643.9</ele>
        <time>2021-08-03T11:24:46Z</time>
      </trkpt>
      <trkpt lat="45.5339" lon="6.74948">
        <ele>1644</ele>
        <time>2021-08-03T11:24:47Z</time>
      </trkpt>
      <trkpt lat="45.5339" lon="6.74947">
        <ele>1644.1</ele>
        <time>2021-08-03T11:24:48Z</time>
      </trkpt>
      <trkpt lat="45.53389" lon="6.74945">
        <ele>1644.2</ele>
        <time>2021-08-03T11:24:49Z</time>
      </trkpt>
      <trkpt lat="45.53388" lon="6.74944">
        <ele>1644.4</ele>
        <time>2021-08-03T11:24:50Z</time>
      </trkpt>
      <trkpt lat="45.53388" lon="6.74942">
        <ele>1644.5</ele>
        <time>2021-08-03T11:24:51Z</time>
      </trkpt>
      <trkpt lat="45.53387" lon="6.74941">
        <ele>1644.6</ele>
        <time>2021-08-03T11:24:52Z</time>
      </trkpt>
      <trkpt lat="45.53387" lon="6.74939">
        <ele>1644.7</ele>
        <time>2021-08-03T11:24:53Z</time>
      </trkpt>
      <trkpt lat="45.53387" lon="6.74938">
        <ele>1644.8</ele>
        <time>2021-08-03T11:24:54Z</time>
      </trkpt>
      <trkpt lat="45.53386" lon="6.74936">
        <ele>1644.9</ele>
        <time>2021-08-03T11:24:55Z</time>
      </trkpt>
      <trkpt lat="45.53386" lon="6.74935">
        <ele>1645.1</ele>
        <time>2021-08-03T11:24:56Z</time>
      </trkpt>
      <trkpt lat="45.53385" lon="6.74933">
        <ele>1645.2</ele>
        <time>2021-08-03T11:24:57Z</time>
      </trkpt>
      <trkpt lat="45.53385" lon="6.74932">
        <ele>1645.3</ele>
        <time>2021-08-03T11:24:58Z</time>
      </trkpt>
      <trkpt lat="45.53384" lon="6.7493">
        <ele>1645.4</ele>
        <time>2021-08-03T11:24:59Z</time>
      </trkpt>
      <trkpt lat="45.53384" lon="6.74929">
        <ele>1645.5</ele>
        <time>2021-08-03T11:25:00Z</time>
      </trkpt>
      <trkpt lat="45.53383" lon="6.74927">
        <ele>1645.6</ele>
        <time>2021-08-03T11:25:01Z</time>
      </trkpt>
      <trkpt lat="45.53383" lon="6.74926">
        <ele>1645.7</ele>
        <time>2021-08-03T11:25:02Z</time>
      </trkpt>
      <trkpt lat="45.53382" lon="6.74925">
        <ele>1645.8</ele>
        <time>2021-08-03T11:25:03Z</time>
      </trkpt>
      <trkpt lat="45.53382" lon="6.74923">
        <ele>1645.9</ele>
        <time>2021-08-03T11:25:04Z</time>
      </trkpt>
      <trkpt lat="45.53381" lon="6.74922">
        <ele>1646</ele>
        <time>2021-08-03T11:25:05Z</time>
      </trkpt>
      <trkpt lat="45.5338" lon="6.74921">
        <ele>1646.1</ele>
        <time>2021-08-03T11:25:06Z</time>
      </trkpt>
      <trkpt lat="45.53379" lon="6.74919">
        <ele>1646.2</ele>
        <time>2021-08-03T11:25:07Z</time>
      </trkpt>
      <trkpt lat="45.53379" lon="6.74918">
        <ele>1646.3</ele>
        <time>2021-08-03T11:25:08Z</time>
      </trkpt>
      <trkpt lat="45.53378" lon="6.74917">
        <ele>1646.5</ele>
        <time>2021-08-03T11:25:09Z</time>
      </trkpt>
      <trkpt lat="45.53377" lon="6.74915">
        <ele>1646.6</ele>
        <time>2021-08-03T11:25:10Z</time>
      </trkpt>
      <trkpt lat="45.53376" lon="6.74914">
        <ele>1646.7</ele>
        <time>2021-08-03T11:25:11Z</time>
      </trkpt>
      <trkpt lat="45.53375" lon="6.74913">
        <ele>1646.8</ele>
        <time>2021-08-03T11:25:12Z</time>
      </trkpt>
      <trkpt lat="45.53374" lon="6.74911">
        <ele>1646.9</ele>
        <time>2021-08-03T11:25:13Z</time>
      </trkpt>
      <trkpt lat="45.53373" lon="6.7491">
        <ele>1647.1</ele>
        <time>2021-08-03T11:25:14Z</time>
      </trkpt>
      <trkpt lat="45.53373" lon="6.74909">
        <ele>1647.2</ele>
        <time>2021-08-03T11:25:15Z</time>
      </trkpt>
      <trkpt lat="45.53372" lon="6.74908">
        <ele>1647.3</ele>
        <time>2021-08-03T11:25:16Z</time>
      </trkpt>
      <trkpt lat="45.53371" lon="6.74906">
        <ele>1647.4</ele>
        <time>2021-08-03T11:25:17Z</time>
      </trkpt>
      <trkpt lat="45.5337" lon="6.74905">
        <ele>1647.5</ele>
        <time>2021-08-03T11:25:18Z</time>
      </trkpt>
      <trkpt lat="45.53369" lon="6.74904">
        <ele>1647.6</ele>
        <time>2021-08-03T11:25:19Z</time>
      </trkpt>
      <trkpt lat="45.53368" lon="6.74903">
        <ele>1647.8</ele>
        <time>2021-08-03T11:25:20Z</time>
      </trkpt>
      <trkpt lat="45.53368" lon="6.74901">
        <ele>1647.9</ele>
        <time>2021-08-03T11:25:21Z</time>
      </trkpt>
      <trkpt lat="45.53367" lon="6.749">
        <ele>1648</ele>
        <time>2021-08-03T11:25:22Z</time>
      </trkpt>
      <trkpt lat="45.53366" lon="6.74899">
        <ele>1648.1</ele>
        <time>2021-08-03T11:25:23Z</time>
      </trkpt>
      <trkpt lat="45.53366" lon="6.74898">
        <ele>1648.2</ele>
        <time>2021-08-03T11:25:24Z</time>
      </trkpt>
      <trkpt lat="45.53365" lon="6.74896">
        <ele>1648.4</ele>
        <time>2021-08-03T11:25:25Z</time>
      </trkpt>
      <trkpt lat="45.53364" lon="6.74895">
        <ele>1648.5</ele>
        <time>2021-08-03T11:25:26Z</time>
      </trkpt>
      <trkpt lat="45.53364" lon="6.74893">
        <ele>1648.6</ele>
        <time>2021-08-03T11:25:27Z</time>
      </trkpt>
      <trkpt lat="45.53363" lon="6.74892">
        <ele>1648.7</ele>
        <time>2021-08-03T11:25:28Z</time>
      </trkpt>
      <trkpt lat="45.53363" lon="6.7489">
        <ele>1648.8</ele>
        <time>2021-08-03T11:25:29Z</time>
      </trkpt>
      <trkpt lat="45.53362" lon="6.74889">
        <ele>1649</ele>
        <time>2021-08-03T11:25:30Z</time>
      </trkpt>
      <trkpt lat="45.53361" lon="6.74888">
        <ele>1649.1</ele>
        <time>2021-08-03T11:25:31Z</time>
      </trkpt>
      <trkpt lat="45.53361" lon="6.74886">
        <ele>1649.2</ele>
        <time>2021-08-03T11:25:32Z</time>
      </trkpt>
      <trkpt lat="45.5336" lon="6.74885">
        <ele>1649.3</ele>
        <time>2021-08-03T11:25:33Z</time>
      </trkpt>
      <trkpt lat="45.53359" lon="6.74884">
        <ele>1649.5</ele>
        <time>2021-08-03T11:25:34Z</time>
      </trkpt>
      <trkpt lat="45.53358" lon="6.74882">
        <ele>1649.6</ele>
        <time>2021-08-03T11:25:35Z</time>
      </trkpt>
      <trkpt lat="45.53357" lon="6.74881">
        <ele>1649.7</ele>
        <time>2021-08-03T11:25:36Z</time>
      </trkpt>
      <trkpt lat="45.53356" lon="6.7488">
        <ele>1649.9</ele>
        <time>2021-08-03T11:25:37Z</time>
      </trkpt>
      <trkpt lat="45.53355" lon="6.74879">
        <ele>1650</ele>
        <time>2021-08-03T11:25:38Z</time>
      </trkpt>
      <trkpt lat="45.53354" lon="6.74878">
        <ele>1650.1</ele>
        <time>2021-08-03T11:25:39Z</time>
      </trkpt>
      <trkpt lat="45.53353" lon="6.74877">
        <ele>1650.2</ele>
        <time>2021-08-03T11:25:40Z</time>
      </trkpt>
      <trkpt lat="45.53353" lon="6.74876">
        <ele>1650.3</ele>
        <time>2021-08-03T11:25:41Z</time>
      </trkpt>
      <trkpt lat="45.53352" lon="6.74875">
        <ele>1650.4</ele>
        <time>2021-08-03T11:25:42Z</time>
      </trkpt>
      <trkpt lat="45.53351" lon="6.74874">
        <ele>1650.5</ele>
        <time>2021-08-03T11:25:43Z</time>
      </trkpt>
      <trkpt lat="45.5335" lon="6.74873">
        <ele>1650.6</ele>
        <time>2021-08-03T11:25:44Z</time>
      </trkpt>
      <trkpt lat="45.5335" lon="6.74873">
        <ele>1650.7</ele>
        <time>2021-08-03T11:25:45Z</time>
      </trkpt>
      <trkpt lat="45.53349" lon="6.74872">
        <ele>1650.8</ele>
        <time>2021-08-03T11:25:46Z</time>
      </trkpt>
      <trkpt lat="45.53349" lon="6.74872">
        <ele>1650.8</ele>
        <time>2021-08-03T11:25:47Z</time>
      </trkpt>
      <trkpt lat="45.53348" lon="6.74871">
        <ele>1650.8</ele>
        <time>2021-08-03T11:25:48Z</time>
      </trkpt>
      <trkpt lat="45.53348" lon="6.74871">
        <ele>1650.9</ele>
        <time>2021-08-03T11:25:49Z</time>
      </trkpt>
      <trkpt lat="45.53348" lon="6.74871">
        <ele>1650.9</ele>
        <time>2021-08-03T11:25:50Z</time>
      </trkpt>
      <trkpt lat="45.53348" lon="6.74871">
        <ele>1650.9</ele>
        <time>2021-08-03T11:25:51Z</time>
      </trkpt>
      <trkpt lat="45.53348" lon="6.74871">
        <ele>1650.9</ele>
        <time>2021-08-03T11:25:52Z</time>
      </trkpt>
      <trkpt lat="45.53348" lon="6.74871">
        <ele>1650.9</ele>
        <time>2021-08-03T11:25:53Z</time>
      </trkpt>
      <trkpt lat="45.53348" lon="6.74871">
        <ele>1650.9</ele>
        <time>2021-08-03T11:25:54Z</time>
      </trkpt>
      <trkpt lat="45.53348" lon="6.7487">
        <ele>1650.9</ele>
        <time>2021-08-03T11:25:55Z</time>
      </trkpt>
      <trkpt lat="45.53348" lon="6.7487">
        <ele>1650.9</ele>
        <time>2021-08-03T11:25:56Z</time>
      </trkpt>
      <trkpt lat="45.53348" lon="6.7487">
        <ele>1651</ele>
        <time>2021-08-03T11:25:57Z</time>
      </trkpt>
      <trkpt lat="45.53347" lon="6.7487">
        <ele>1651</ele>
        <time>2021-08-03T11:25:58Z</time>
      </trkpt>
      <trkpt lat="45.53347" lon="6.7487">
        <ele>1651</ele>
        <time>2021-08-03T11:25:59Z</time>
      </trkpt>
      <trkpt lat="45.53347" lon="6.7487">
        <ele>1651</ele>
        <time>2021-08-03T11:26:00Z</time>
      </trkpt>
      <trkpt lat="45.53347" lon="6.7487">
        <ele>1651</ele>
        <time>2021-08-03T11:26:01Z</time>
      </trkpt>
      <trkpt lat="45.53347" lon="6.7487">
        <ele>1651</ele>
        <time>2021-08-03T11:26:02Z</time>
      </trkpt>
      <trkpt lat="45.53347" lon="6.7487">
        <ele>1651</ele>
        <time>2021-08-03T11:26:03Z</time>
      </trkpt>
      <trkpt lat="45.53347" lon="6.7487">
        <ele>1651</ele>
        <time>2021-08-03T11:26:04Z</time>
      </trkpt>
      <trkpt lat="45.53347" lon="6.7487">
        <ele>1651</ele>
        <time>2021-08-03T11:26:05Z</time>
      </trkpt>
      <trkpt lat="45.53347" lon="6.7487">
        <ele>1651</ele>
        <time>2021-08-03T11:26:06Z</time>
      </trkpt>
      <trkpt lat="45.53347" lon="6.7487">
        <ele>1651</ele>
        <time>2021-08-03T11:26:07Z</time>
      </trkpt>
      <trkpt lat="45.53347" lon="6.7487">
        <ele>1651</ele>
        <time>2021-08-03T11:26:08Z</time>
      </trkpt>
      <trkpt lat="45.53347" lon="6.7487">
        <ele>1651</ele>
        <time>2021-08-03T11:26:09Z</time>
      </trkpt>
      <trkpt lat="45.53347" lon="6.7487">
        <ele>1651</ele>
        <time>2021-08-03T11:26:10Z</time>
      </trkpt>
      <trkpt lat="45.53347" lon="6.7487">
        <ele>1651</ele>
        <time>2021-08-03T11:26:11Z</time>
      </trkpt>
      <trkpt lat="45.53347" lon="6.7487">
        <ele>1651</ele>
        <time>2021-08-03T11:26:12Z</time>
      </trkpt>
      <trkpt lat="45.53347" lon="6.7487">
        <ele>1651</ele>
        <time>2021-08-03T11:26:13Z</time>
      </trkpt>
      <trkpt lat="45.53347" lon="6.7487">
        <ele>1651</ele>
        <time>2021-08-03T11:26:14Z</time>
      </trkpt>
      <trkpt lat="45.53347" lon="6.7487">
        <ele>1651</ele>
        <time>2021-08-03T11:26:15Z</time>
      </trkpt>
      <trkpt lat="45.53347" lon="6.7487">
        <ele>1651</ele>
        <time>2021-08-03T11:26:16Z</time>
      </trkpt>
      <trkpt lat="45.53347" lon="6.7487">
        <ele>1651.1</ele>
        <time>2021-08-03T11:26:17Z</time>
      </trkpt>
      <trkpt lat="45.53347" lon="6.7487">
        <ele>1651.1</ele>
        <time>2021-08-03T11:26:18Z</time>
      </trkpt>
      <trkpt lat="45.53347" lon="6.7487">
        <ele>1651.1</ele>
        <time>2021-08-03T11:26:19Z</time>
      </trkpt>
      <trkpt lat="45.53347" lon="6.7487">
        <ele>1651.1</ele>
        <time>2021-08-03T11:26:20Z</time>
      </trkpt>
      <trkpt lat="45.53347" lon="6.7487">
        <ele>1651.1</ele>
        <time>2021-08-03T11:26:21Z</time>
      </trkpt>
      <trkpt lat="45.53347" lon="6.7487">
        <ele>1651.1</ele>
        <time>2021-08-03T11:26:22Z</time>
      </trkpt>
      <trkpt lat="45.53347" lon="6.7487">
        <ele>1651.1</ele>
        <time>2021-08-03T11:26:23Z</time>
      </trkpt>
      <trkpt lat="45.53347" lon="6.7487">
        <ele>1651.1</ele>
        <time>2021-08-03T11:26:24Z</time>
      </trkpt>
      <trkpt lat="45.53347" lon="6.7487">
        <ele>1651.1</ele>
        <time>2021-08-03T11:26:25Z</time>
      </trkpt>
      <trkpt lat="45.53347" lon="6.7487">
        <ele>1651.1</ele>
        <time>2021-08-03T11:26:26Z</time>
      </trkpt>
      <trkpt lat="45.53347" lon="6.7487">
        <ele>1651.1</ele>
        <time>2021-08-03T11:26:27Z</time>
      </trkpt>
      <trkpt lat="45.53347" lon="6.7487">
        <ele>1651.1</ele>
        <time>2021-08-03T11:26:28Z</time>
      </trkpt>
      <trkpt lat="45.53347" lon="6.7487">
        <ele>1651.1</ele>
        <time>2021-08-03T11:26:29Z</time>
      </trkpt>
      <trkpt lat="45.53347" lon="6.7487">
        <ele>1651.1</ele>
        <time>2021-08-03T11:26:30Z</time>
      </trkpt>
      <trkpt lat="45.53347" lon="6.7487">
        <ele>1651.1</ele>
        <time>2021-08-03T11:26:31Z</time>
      </trkpt>
      <trkpt lat="45.53347" lon="6.7487">
        <ele>1651.1</ele>
        <time>2021-08-03T11:26:32Z</time>
      </trkpt>
      <trkpt lat="45.53347" lon="6.7487">
        <ele>1651.1</ele>
        <time>2021-08-03T11:26:33Z</time>
      </trkpt>
      <trkpt lat="45.53347" lon="6.7487">
        <ele>1651.1</ele>
        <time>2021-08-03T11:26:34Z</time>
      </trkpt>
      <trkpt lat="45.53347" lon="6.7487">
        <ele>1651.1</ele>
        <time>2021-08-03T11:26:35Z</time>
      </trkpt>
      <trkpt lat="45.53347" lon="6.7487">
        <ele>1651.1</ele>
        <time>2021-08-03T11:26:36Z</time>
      </trkpt>
      <trkpt lat="45.53347" lon="6.7487">
        <ele>1651.1</ele>
        <time>2021-08-03T11:26:37Z</time>
      </trkpt>
      <trkpt lat="45.53347" lon="6.7487">
        <ele>1651.1</ele>
        <time>2021-08-03T11:26:38Z</time>
      </trkpt>
      <trkpt lat="45.53347" lon="6.7487">
        <ele>1651.1</ele>
        <time>2021-08-03T11:26:39Z</time>
      </trkpt>
      <trkpt lat="45.53347" lon="6.7487">
        <ele>1651.1</ele>
        <time>2021-08-03T11:26:40Z</time>
      </trkpt>
      <trkpt lat="45.53347" lon="6.7487">
        <ele>1651.1</ele>
        <time>2021-08-03T11:26:41Z</time>
      </trkpt>
      <trkpt lat="45.53347" lon="6.7487">
        <ele>1651.1</ele>
        <time>2021-08-03T11:26:42Z</time>
      </trkpt>
      <trkpt lat="45.53347" lon="6.7487">
        <ele>1651.1</ele>
        <time>2021-08-03T11:26:43Z</time>
      </trkpt>
      <trkpt lat="45.53347" lon="6.7487">
        <ele>1651.1</ele>
        <time>2021-08-03T11:26:44Z</time>
      </trkpt>
      <trkpt lat="45.53347" lon="6.7487">
        <ele>1651.1</ele>
        <time>2021-08-03T11:26:45Z</time>
      </trkpt>
      <trkpt lat="45.53347" lon="6.7487">
        <ele>1651.1</ele>
        <time>2021-08-03T11:26:46Z</time>
      </trkpt>
      <trkpt lat="45.53347" lon="6.7487">
        <ele>1651.1</ele>
        <time>2021-08-03T11:26:47Z</time>
      </trkpt>
      <trkpt lat="45.53347" lon="6.7487">
        <ele>1651.1</ele>
        <time>2021-08-03T11:26:48Z</time>
      </trkpt>
      <trkpt lat="45.53347" lon="6.7487">
        <ele>1651.1</ele>
        <time>2021-08-03T11:26:49Z</time>
      </trkpt>
      <trkpt lat="45.53347" lon="6.7487">
        <ele>1651.1</ele>
        <time>2021-08-03T11:26:50Z</time>
      </trkpt>
      <trkpt lat="45.53347" lon="6.7487">
        <ele>1651.1</ele>
        <time>2021-08-03T11:26:51Z</time>
      </trkpt>
      <trkpt lat="45.53347" lon="6.7487">
        <ele>1651.1</ele>
        <time>2021-08-03T11:26:52Z</time>
      </trkpt>
      <trkpt lat="45.53347" lon="6.7487">
        <ele>1651.1</ele>
        <time>2021-08-03T11:26:53Z</time>
      </trkpt>
      <trkpt lat="45.53347" lon="6.7487">
        <ele>1651.1</ele>
        <time>2021-08-03T11:26:54Z</time>
      </trkpt>
      <trkpt lat="45.53347" lon="6.7487">
        <ele>1651.1</ele>
        <time>2021-08-03T11:26:55Z</time>
      </trkpt>
      <trkpt lat="45.53347" lon="6.7487">
        <ele>1651.1</ele>
        <time>2021-08-03T11:26:56Z</time>
      </trkpt>
      <trkpt lat="45.53347" lon="6.7487">
        <ele>1651.1</ele>
        <time>2021-08-03T11:26:57Z</time>
      </trkpt>
      <trkpt lat="45.53346" lon="6.74869">
        <ele>1651.1</ele>
        <time>2021-08-03T11:26:58Z</time>
      </trkpt>
      <trkpt lat="45.53346" lon="6.74869">
        <ele>1651.2</ele>
        <time>2021-08-03T11:26:59Z</time>
      </trkpt>
      <trkpt lat="45.53346" lon="6.74869">
        <ele>1651.2</ele>
        <time>2021-08-03T11:27:00Z</time>
      </trkpt>
      <trkpt lat="45.53345" lon="6.74868">
        <ele>1651.3</ele>
        <time>2021-08-03T11:27:01Z</time>
      </trkpt>
      <trkpt lat="45.53345" lon="6.74868">
        <ele>1651.3</ele>
        <time>2021-08-03T11:27:02Z</time>
      </trkpt>
      <trkpt lat="45.53344" lon="6.74868">
        <ele>1651.4</ele>
        <time>2021-08-03T11:27:03Z</time>
      </trkpt>
      <trkpt lat="45.53344" lon="6.74867">
        <ele>1651.4</ele>
        <time>2021-08-03T11:27:04Z</time>
      </trkpt>
      <trkpt lat="45.53344" lon="6.74867">
        <ele>1651.4</ele>
        <time>2021-08-03T11:27:05Z</time>
      </trkpt>
      <trkpt lat="45.53344" lon="6.74867">
        <ele>1651.4</ele>
        <time>2021-08-03T11:27:06Z</time>
      </trkpt>
      <trkpt lat="45.53343" lon="6.74867">
        <ele>1651.5</ele>
        <time>2021-08-03T11:27:07Z</time>
      </trkpt>
      <trkpt lat="45.53343" lon="6.74867">
        <ele>1651.5</ele>
        <time>2021-08-03T11:27:08Z</time>
      </trkpt>
      <trkpt lat="45.53343" lon="6.74867">
        <ele>1651.5</ele>
        <time>2021-08-03T11:27:09Z</time>
      </trkpt>
      <trkpt lat="45.53344" lon="6.74867">
        <ele>1651.5</ele>
        <time>2021-08-03T11:27:10Z</time>
      </trkpt>
      <trkpt lat="45.53344" lon="6.74867">
        <ele>1651.5</ele>
        <time>2021-08-03T11:27:11Z</time>
      </trkpt>
      <trkpt lat="45.53344" lon="6.74867">
        <ele>1651.5</ele>
        <time>2021-08-03T11:27:12Z</time>
      </trkpt>
      <trkpt lat="45.53343" lon="6.74867">
        <ele>1651.5</ele>
        <time>2021-08-03T11:27:13Z</time>
      </trkpt>
      <trkpt lat="45.53343" lon="6.74867">
        <ele>1651.5</ele>
        <time>2021-08-03T11:27:14Z</time>
      </trkpt>
      <trkpt lat="45.53343" lon="6.74867">
        <ele>1651.5</ele>
        <time>2021-08-03T11:27:15Z</time>
      </trkpt>
      <trkpt lat="45.53343" lon="6.74867">
        <ele>1651.5</ele>
        <time>2021-08-03T11:27:16Z</time>
      </trkpt>
      <trkpt lat="45.53343" lon="6.74867">
        <ele>1651.6</ele>
        <time>2021-08-03T11:27:17Z</time>
      </trkpt>
      <trkpt lat="45.53342" lon="6.74867">
        <ele>1651.6</ele>
        <time>2021-08-03T11:27:18Z</time>
      </trkpt>
      <trkpt lat="45.53342" lon="6.74867">
        <ele>1651.6</ele>
        <time>2021-08-03T11:27:19Z</time>
      </trkpt>
      <trkpt lat="45.53342" lon="6.74867">
        <ele>1651.6</ele>
        <time>2021-08-03T11:27:20Z</time>
      </trkpt>
      <trkpt lat="45.53342" lon="6.74866">
        <ele>1651.6</ele>
        <time>2021-08-03T11:27:21Z</time>
      </trkpt>
      <trkpt lat="45.53342" lon="6.74866">
        <ele>1651.6</ele>
        <time>2021-08-03T11:27:22Z</time>
      </trkpt>
      <trkpt lat="45.53342" lon="6.74866">
        <ele>1651.6</ele>
        <time>2021-08-03T11:27:23Z</time>
      </trkpt>
      <trkpt lat="45.53342" lon="6.74866">
        <ele>1651.6</ele>
        <time>2021-08-03T11:27:24Z</time>
      </trkpt>
      <trkpt lat="45.53342" lon="6.74866">
        <ele>1651.6</ele>
        <time>2021-08-03T11:27:25Z</time>
      </trkpt>
      <trkpt lat="45.53342" lon="6.74866">
        <ele>1651.6</ele>
        <time>2021-08-03T11:27:26Z</time>
      </trkpt>
      <trkpt lat="45.53342" lon="6.74866">
        <ele>1651.6</ele>
        <time>2021-08-03T11:27:27Z</time>
      </trkpt>
      <trkpt lat="45.53342" lon="6.74866">
        <ele>1651.6</ele>
        <time>2021-08-03T11:27:28Z</time>
      </trkpt>
      <trkpt lat="45.53342" lon="6.74866">
        <ele>1651.6</ele>
        <time>2021-08-03T11:27:29Z</time>
      </trkpt>
      <trkpt lat="45.53342" lon="6.74866">
        <ele>1651.6</ele>
        <time>2021-08-03T11:27:30Z</time>
      </trkpt>
      <trkpt lat="45.53342" lon="6.74866">
        <ele>1651.6</ele>
        <time>2021-08-03T11:27:31Z</time>
      </trkpt>
      <trkpt lat="45.53342" lon="6.74866">
        <ele>1651.6</ele>
        <time>2021-08-03T11:27:32Z</time>
      </trkpt>
      <trkpt lat="45.53342" lon="6.74866">
        <ele>1651.6</ele>
        <time>2021-08-03T11:27:33Z</time>
      </trkpt>
      <trkpt lat="45.53342" lon="6.74866">
        <ele>1651.6</ele>
        <time>2021-08-03T11:27:34Z</time>
      </trkpt>
      <trkpt lat="45.53342" lon="6.74866">
        <ele>1651.6</ele>
        <time>2021-08-03T11:27:35Z</time>
      </trkpt>
      <trkpt lat="45.53342" lon="6.74866">
        <ele>1651.6</ele>
        <time>2021-08-03T11:27:36Z</time>
      </trkpt>
      <trkpt lat="45.53342" lon="6.74866">
        <ele>1651.6</ele>
        <time>2021-08-03T11:27:37Z</time>
      </trkpt>
      <trkpt lat="45.53342" lon="6.74866">
        <ele>1651.6</ele>
        <time>2021-08-03T11:27:38Z</time>
      </trkpt>
      <trkpt lat="45.53342" lon="6.74866">
        <ele>1651.6</ele>
        <time>2021-08-03T11:27:39Z</time>
      </trkpt>
      <trkpt lat="45.53342" lon="6.74866">
        <ele>1651.6</ele>
        <time>2021-08-03T11:27:40Z</time>
      </trkpt>
      <trkpt lat="45.53342" lon="6.74866">
        <ele>1651.6</ele>
        <time>2021-08-03T11:27:41Z</time>
      </trkpt>
      <trkpt lat="45.53342" lon="6.74866">
        <ele>1651.6</ele>
        <time>2021-08-03T11:27:42Z</time>
      </trkpt>
      <trkpt lat="45.53342" lon="6.74866">
        <ele>1651.6</ele>
        <time>2021-08-03T11:27:43Z</time>
      </trkpt>
      <trkpt lat="45.53342" lon="6.74866">
        <ele>1651.6</ele>
        <time>2021-08-03T11:27:44Z</time>
      </trkpt>
      <trkpt lat="45.53342" lon="6.74866">
        <ele>1651.6</ele>
        <time>2021-08-03T11:27:45Z</time>
      </trkpt>
      <trkpt lat="45.53342" lon="6.74866">
        <ele>1651.6</ele>
        <time>2021-08-03T11:27:46Z</time>
      </trkpt>
      <trkpt lat="45.53342" lon="6.74866">
        <ele>1651.6</ele>
        <time>2021-08-03T11:27:47Z</time>
      </trkpt>
      <trkpt lat="45.53342" lon="6.74866">
        <ele>1651.6</ele>
        <time>2021-08-03T11:27:48Z</time>
      </trkpt>
      <trkpt lat="45.53342" lon="6.74866">
        <ele>1651.6</ele>
        <time>2021-08-03T11:27:49Z</time>
      </trkpt>
      <trkpt lat="45.53342" lon="6.74866">
        <ele>1651.6</ele>
        <time>2021-08-03T11:27:50Z</time>
      </trkpt>
      <trkpt lat="45.53342" lon="6.74866">
        <ele>1651.6</ele>
        <time>2021-08-03T11:27:51Z</time>
      </trkpt>
      <trkpt lat="45.53342" lon="6.74866">
        <ele>1651.6</ele>
        <time>2021-08-03T11:27:52Z</time>
      </trkpt>
      <trkpt lat="45.53342" lon="6.74866">
        <ele>1651.6</ele>
        <time>2021-08-03T11:27:53Z</time>
      </trkpt>
      <trkpt lat="45.53342" lon="6.74866">
        <ele>1651.6</ele>
        <time>2021-08-03T11:27:54Z</time>
      </trkpt>
      <trkpt lat="45.53342" lon="6.74866">
        <ele>1651.6</ele>
        <time>2021-08-03T11:27:55Z</time>
      </trkpt>
      <trkpt lat="45.53342" lon="6.74866">
        <ele>1651.6</ele>
        <time>2021-08-03T11:27:56Z</time>
      </trkpt>
      <trkpt lat="45.53342" lon="6.74866">
        <ele>1651.6</ele>
        <time>2021-08-03T11:27:57Z</time>
      </trkpt>
      <trkpt lat="45.53342" lon="6.74866">
        <ele>1651.6</ele>
        <time>2021-08-03T11:27:58Z</time>
      </trkpt>
      <trkpt lat="45.53342" lon="6.74866">
        <ele>1651.6</ele>
        <time>2021-08-03T11:27:59Z</time>
      </trkpt>
      <trkpt lat="45.53342" lon="6.74866">
        <ele>1651.6</ele>
        <time>2021-08-03T11:28:00Z</time>
      </trkpt>
      <trkpt lat="45.53342" lon="6.74866">
        <ele>1651.6</ele>
        <time>2021-08-03T11:28:01Z</time>
      </trkpt>
      <trkpt lat="45.53342" lon="6.74866">
        <ele>1651.6</ele>
        <time>2021-08-03T11:28:02Z</time>
      </trkpt>
      <trkpt lat="45.53342" lon="6.74866">
        <ele>1651.6</ele>
        <time>2021-08-03T11:28:03Z</time>
      </trkpt>
      <trkpt lat="45.53342" lon="6.74866">
        <ele>1651.6</ele>
        <time>2021-08-03T11:28:04Z</time>
      </trkpt>
      <trkpt lat="45.53342" lon="6.74866">
        <ele>1651.6</ele>
        <time>2021-08-03T11:28:05Z</time>
      </trkpt>
      <trkpt lat="45.53342" lon="6.74866">
        <ele>1651.6</ele>
        <time>2021-08-03T11:28:06Z</time>
      </trkpt>
      <trkpt lat="45.53342" lon="6.74866">
        <ele>1651.6</ele>
        <time>2021-08-03T11:28:07Z</time>
      </trkpt>
      <trkpt lat="45.53342" lon="6.74866">
        <ele>1651.6</ele>
        <time>2021-08-03T11:28:08Z</time>
      </trkpt>
      <trkpt lat="45.53342" lon="6.74866">
        <ele>1651.6</ele>
        <time>2021-08-03T11:28:09Z</time>
      </trkpt>
      <trkpt lat="45.53342" lon="6.74866">
        <ele>1651.6</ele>
        <time>2021-08-03T11:28:10Z</time>
      </trkpt>
      <trkpt lat="45.53342" lon="6.74866">
        <ele>1651.6</ele>
        <time>2021-08-03T11:28:11Z</time>
      </trkpt>
      <trkpt lat="45.53342" lon="6.74866">
        <ele>1651.6</ele>
        <time>2021-08-03T11:28:12Z</time>
      </trkpt>
      <trkpt lat="45.53342" lon="6.74866">
        <ele>1651.6</ele>
        <time>2021-08-03T11:28:13Z</time>
      </trkpt>
      <trkpt lat="45.53342" lon="6.74866">
        <ele>1651.6</ele>
        <time>2021-08-03T11:28:14Z</time>
      </trkpt>
      <trkpt lat="45.53342" lon="6.74866">
        <ele>1651.6</ele>
        <time>2021-08-03T11:28:15Z</time>
      </trkpt>
      <trkpt lat="45.53342" lon="6.74866">
        <ele>1651.6</ele>
        <time>2021-08-03T11:28:16Z</time>
      </trkpt>
      <trkpt lat="45.53342" lon="6.74866">
        <ele>1651.6</ele>
        <time>2021-08-03T11:28:17Z</time>
      </trkpt>
      <trkpt lat="45.53342" lon="6.74866">
        <ele>1651.6</ele>
        <time>2021-08-03T11:28:18Z</time>
      </trkpt>
      <trkpt lat="45.53342" lon="6.74866">
        <ele>1651.6</ele>
        <time>2021-08-03T11:28:19Z</time>
      </trkpt>
      <trkpt lat="45.53342" lon="6.74866">
        <ele>1651.6</ele>
        <time>2021-08-03T11:28:20Z</time>
      </trkpt>
      <trkpt lat="45.53342" lon="6.74866">
        <ele>1651.6</ele>
        <time>2021-08-03T11:28:21Z</time>
      </trkpt>
      <trkpt lat="45.53342" lon="6.74866">
        <ele>1651.6</ele>
        <time>2021-08-03T11:28:22Z</time>
      </trkpt>
      <trkpt lat="45.53342" lon="6.74866">
        <ele>1651.6</ele>
        <time>2021-08-03T11:28:23Z</time>
      </trkpt>
      <trkpt lat="45.53342" lon="6.74866">
        <ele>1651.6</ele>
        <time>2021-08-03T11:28:24Z</time>
      </trkpt>
      <trkpt lat="45.53342" lon="6.74866">
        <ele>1651.6</ele>
        <time>2021-08-03T11:28:25Z</time>
      </trkpt>
      <trkpt lat="45.53342" lon="6.74866">
        <ele>1651.6</ele>
        <time>2021-08-03T11:28:26Z</time>
      </trkpt>
      <trkpt lat="45.53342" lon="6.74866">
        <ele>1651.6</ele>
        <time>2021-08-03T11:28:27Z</time>
      </trkpt>
      <trkpt lat="45.53342" lon="6.74866">
        <ele>1651.6</ele>
        <time>2021-08-03T11:28:28Z</time>
      </trkpt>
      <trkpt lat="45.53342" lon="6.74866">
        <ele>1651.6</ele>
        <time>2021-08-03T11:28:29Z</time>
      </trkpt>
      <trkpt lat="45.53342" lon="6.74866">
        <ele>1651.6</ele>
        <time>2021-08-03T11:28:30Z</time>
      </trkpt>
      <trkpt lat="45.53342" lon="6.74866">
        <ele>1651.6</ele>
        <time>2021-08-03T11:28:31Z</time>
      </trkpt>
      <trkpt lat="45.53342" lon="6.74866">
        <ele>1651.6</ele>
        <time>2021-08-03T11:28:32Z</time>
      </trkpt>
      <trkpt lat="45.53342" lon="6.74866">
        <ele>1651.6</ele>
        <time>2021-08-03T11:28:33Z</time>
      </trkpt>
      <trkpt lat="45.53342" lon="6.74866">
        <ele>1651.6</ele>
        <time>2021-08-03T11:28:34Z</time>
      </trkpt>
      <trkpt lat="45.53342" lon="6.74866">
        <ele>1651.6</ele>
        <time>2021-08-03T11:28:35Z</time>
      </trkpt>
      <trkpt lat="45.53342" lon="6.74866">
        <ele>1651.6</ele>
        <time>2021-08-03T11:28:36Z</time>
      </trkpt>
      <trkpt lat="45.53342" lon="6.74866">
        <ele>1651.6</ele>
        <time>2021-08-03T11:28:37Z</time>
      </trkpt>
      <trkpt lat="45.53342" lon="6.74866">
        <ele>1651.6</ele>
        <time>2021-08-03T11:28:38Z</time>
      </trkpt>
      <trkpt lat="45.53342" lon="6.74866">
        <ele>1651.6</ele>
        <time>2021-08-03T11:28:39Z</time>
      </trkpt>
      <trkpt lat="45.53342" lon="6.74866">
        <ele>1651.7</ele>
        <time>2021-08-03T11:28:40Z</time>
      </trkpt>
      <trkpt lat="45.53342" lon="6.74866">
        <ele>1651.7</ele>
        <time>2021-08-03T11:28:41Z</time>
      </trkpt>
      <trkpt lat="45.53342" lon="6.74866">
        <ele>1651.7</ele>
        <time>2021-08-03T11:28:42Z</time>
      </trkpt>
      <trkpt lat="45.53342" lon="6.74866">
        <ele>1651.7</ele>
        <time>2021-08-03T11:28:43Z</time>
      </trkpt>
      <trkpt lat="45.53342" lon="6.74866">
        <ele>1651.7</ele>
        <time>2021-08-03T11:28:44Z</time>
      </trkpt>
      <trkpt lat="45.53342" lon="6.74866">
        <ele>1651.7</ele>
        <time>2021-08-03T11:28:45Z</time>
      </trkpt>
      <trkpt lat="45.53342" lon="6.74866">
        <ele>1651.7</ele>
        <time>2021-08-03T11:28:46Z</time>
      </trkpt>
      <trkpt lat="45.53342" lon="6.74866">
        <ele>1651.7</ele>
        <time>2021-08-03T11:28:47Z</time>
      </trkpt>
      <trkpt lat="45.53342" lon="6.74866">
        <ele>1651.7</ele>
        <time>2021-08-03T11:28:48Z</time>
      </trkpt>
      <trkpt lat="45.53342" lon="6.74866">
        <ele>1651.7</ele>
        <time>2021-08-03T11:28:49Z</time>
      </trkpt>
      <trkpt lat="45.53342" lon="6.74866">
        <ele>1651.7</ele>
        <time>2021-08-03T11:28:50Z</time>
      </trkpt>
      <trkpt lat="45.53342" lon="6.74866">
        <ele>1651.7</ele>
        <time>2021-08-03T11:28:51Z</time>
      </trkpt>
      <trkpt lat="45.53342" lon="6.74866">
        <ele>1651.7</ele>
        <time>2021-08-03T11:28:52Z</time>
      </trkpt>
      <trkpt lat="45.53342" lon="6.74866">
        <ele>1651.7</ele>
        <time>2021-08-03T11:28:53Z</time>
      </trkpt>
      <trkpt lat="45.53342" lon="6.74866">
        <ele>1651.7</ele>
        <time>2021-08-03T11:28:54Z</time>
      </trkpt>
      <trkpt lat="45.53342" lon="6.74866">
        <ele>1651.7</ele>
        <time>2021-08-03T11:28:55Z</time>
      </trkpt>
      <trkpt lat="45.53342" lon="6.74867">
        <ele>1651.7</ele>
        <time>2021-08-03T11:28:56Z</time>
      </trkpt>
      <trkpt lat="45.53342" lon="6.74867">
        <ele>1651.7</ele>
        <time>2021-08-03T11:28:57Z</time>
      </trkpt>
      <trkpt lat="45.53342" lon="6.74867">
        <ele>1651.7</ele>
        <time>2021-08-03T11:28:58Z</time>
      </trkpt>
      <trkpt lat="45.53342" lon="6.74867">
        <ele>1651.7</ele>
        <time>2021-08-03T11:28:59Z</time>
      </trkpt>
      <trkpt lat="45.53342" lon="6.74867">
        <ele>1651.7</ele>
        <time>2021-08-03T11:29:00Z</time>
      </trkpt>
      <trkpt lat="45.53342" lon="6.74867">
        <ele>1651.7</ele>
        <time>2021-08-03T11:29:01Z</time>
      </trkpt>
      <trkpt lat="45.53342" lon="6.74867">
        <ele>1651.7</ele>
        <time>2021-08-03T11:29:02Z</time>
      </trkpt>
      <trkpt lat="45.53342" lon="6.74867">
        <ele>1651.7</ele>
        <time>2021-08-03T11:29:03Z</time>
      </trkpt>
      <trkpt lat="45.53342" lon="6.74867">
        <ele>1651.7</ele>
        <time>2021-08-03T11:29:04Z</time>
      </trkpt>
      <trkpt lat="45.53342" lon="6.74867">
        <ele>1651.7</ele>
        <time>2021-08-03T11:29:05Z</time>
      </trkpt>
      <trkpt lat="45.53342" lon="6.74866">
        <ele>1651.8</ele>
        <time>2021-08-03T11:29:06Z</time>
      </trkpt>
      <trkpt lat="45.53342" lon="6.74866">
        <ele>1651.8</ele>
        <time>2021-08-03T11:29:07Z</time>
      </trkpt>
      <trkpt lat="45.53342" lon="6.74866">
        <ele>1651.8</ele>
        <time>2021-08-03T11:29:08Z</time>
      </trkpt>
      <trkpt lat="45.53342" lon="6.74866">
        <ele>1651.8</ele>
        <time>2021-08-03T11:29:09Z</time>
      </trkpt>
      <trkpt lat="45.53341" lon="6.74865">
        <ele>1651.9</ele>
        <time>2021-08-03T11:29:10Z</time>
      </trkpt>
      <trkpt lat="45.53341" lon="6.74865">
        <ele>1651.9</ele>
        <time>2021-08-03T11:29:11Z</time>
      </trkpt>
      <trkpt lat="45.53341" lon="6.74864">
        <ele>1652</ele>
        <time>2021-08-03T11:29:12Z</time>
      </trkpt>
      <trkpt lat="45.5334" lon="6.74864">
        <ele>1652</ele>
        <time>2021-08-03T11:29:13Z</time>
      </trkpt>
      <trkpt lat="45.5334" lon="6.74863">
        <ele>1652.1</ele>
        <time>2021-08-03T11:29:14Z</time>
      </trkpt>
      <trkpt lat="45.53339" lon="6.74862">
        <ele>1652.2</ele>
        <time>2021-08-03T11:29:15Z</time>
      </trkpt>
      <trkpt lat="45.53338" lon="6.74862">
        <ele>1652.2</ele>
        <time>2021-08-03T11:29:16Z</time>
      </trkpt>
      <trkpt lat="45.53338" lon="6.74861">
        <ele>1652.3</ele>
        <time>2021-08-03T11:29:17Z</time>
      </trkpt>
      <trkpt lat="45.53337" lon="6.7486">
        <ele>1652.4</ele>
        <time>2021-08-03T11:29:18Z</time>
      </trkpt>
      <trkpt lat="45.53336" lon="6.74859">
        <ele>1652.6</ele>
        <time>2021-08-03T11:29:19Z</time>
      </trkpt>
      <trkpt lat="45.53335" lon="6.74858">
        <ele>1652.7</ele>
        <time>2021-08-03T11:29:20Z</time>
      </trkpt>
      <trkpt lat="45.53334" lon="6.74857">
        <ele>1652.8</ele>
        <time>2021-08-03T11:29:21Z</time>
      </trkpt>
      <trkpt lat="45.53333" lon="6.74855">
        <ele>1652.9</ele>
        <time>2021-08-03T11:29:22Z</time>
      </trkpt>
      <trkpt lat="45.53332" lon="6.74854">
        <ele>1653.1</ele>
        <time>2021-08-03T11:29:23Z</time>
      </trkpt>
      <trkpt lat="45.53331" lon="6.74853">
        <ele>1653.2</ele>
        <time>2021-08-03T11:29:24Z</time>
      </trkpt>
      <trkpt lat="45.5333" lon="6.74852">
        <ele>1653.3</ele>
        <time>2021-08-03T11:29:25Z</time>
      </trkpt>
      <trkpt lat="45.53329" lon="6.74851">
        <ele>1653.5</ele>
        <time>2021-08-03T11:29:26Z</time>
      </trkpt>
      <trkpt lat="45.53328" lon="6.74849">
        <ele>1653.6</ele>
        <time>2021-08-03T11:29:27Z</time>
      </trkpt>
      <trkpt lat="45.53327" lon="6.74848">
        <ele>1653.8</ele>
        <time>2021-08-03T11:29:28Z</time>
      </trkpt>
      <trkpt lat="45.53326" lon="6.74847">
        <ele>1653.9</ele>
        <time>2021-08-03T11:29:29Z</time>
      </trkpt>
      <trkpt lat="45.53325" lon="6.74846">
        <ele>1654</ele>
        <time>2021-08-03T11:29:30Z</time>
      </trkpt>
      <trkpt lat="45.53324" lon="6.74845">
        <ele>1654.2</ele>
        <time>2021-08-03T11:29:31Z</time>
      </trkpt>
      <trkpt lat="45.53323" lon="6.74844">
        <ele>1654.3</ele>
        <time>2021-08-03T11:29:32Z</time>
      </trkpt>
      <trkpt lat="45.53322" lon="6.74843">
        <ele>1654.4</ele>
        <time>2021-08-03T11:29:33Z</time>
      </trkpt>
      <trkpt lat="45.53321" lon="6.74842">
        <ele>1654.5</ele>
        <time>2021-08-03T11:29:34Z</time>
      </trkpt>
      <trkpt lat="45.5332" lon="6.74841">
        <ele>1654.6</ele>
        <time>2021-08-03T11:29:35Z</time>
      </trkpt>
      <trkpt lat="45.53319" lon="6.7484">
        <ele>1654.8</ele>
        <time>2021-08-03T11:29:36Z</time>
      </trkpt>
      <trkpt lat="45.53318" lon="6.74839">
        <ele>1654.9</ele>
        <time>2021-08-03T11:29:37Z</time>
      </trkpt>
      <trkpt lat="45.53317" lon="6.74838">
        <ele>1655</ele>
        <time>2021-08-03T11:29:38Z</time>
      </trkpt>
      <trkpt lat="45.53316" lon="6.74837">
        <ele>1655.1</ele>
        <time>2021-08-03T11:29:39Z</time>
      </trkpt>
      <trkpt lat="45.53315" lon="6.74836">
        <ele>1655.3</ele>
        <time>2021-08-03T11:29:40Z</time>
      </trkpt>
      <trkpt lat="45.53314" lon="6.74835">
        <ele>1655.4</ele>
        <time>2021-08-03T11:29:41Z</time>
      </trkpt>
      <trkpt lat="45.53312" lon="6.74834">
        <ele>1655.5</ele>
        <time>2021-08-03T11:29:42Z</time>
      </trkpt>
      <trkpt lat="45.53311" lon="6.74833">
        <ele>1655.6</ele>
        <time>2021-08-03T11:29:43Z</time>
      </trkpt>
      <trkpt lat="45.5331" lon="6.74832">
        <ele>1655.7</ele>
        <time>2021-08-03T11:29:44Z</time>
      </trkpt>
      <trkpt lat="45.53309" lon="6.74831">
        <ele>1655.9</ele>
        <time>2021-08-03T11:29:45Z</time>
      </trkpt>
      <trkpt lat="45.53308" lon="6.7483">
        <ele>1656</ele>
        <time>2021-08-03T11:29:46Z</time>
      </trkpt>
      <trkpt lat="45.53307" lon="6.74829">
        <ele>1656.1</ele>
        <time>2021-08-03T11:29:47Z</time>
      </trkpt>
      <trkpt lat="45.53306" lon="6.74828">
        <ele>1656.2</ele>
        <time>2021-08-03T11:29:48Z</time>
      </trkpt>
      <trkpt lat="45.53305" lon="6.74826">
        <ele>1656.3</ele>
        <time>2021-08-03T11:29:49Z</time>
      </trkpt>
      <trkpt lat="45.53304" lon="6.74825">
        <ele>1656.4</ele>
        <time>2021-08-03T11:29:50Z</time>
      </trkpt>
      <trkpt lat="45.53304" lon="6.74824">
        <ele>1656.5</ele>
        <time>2021-08-03T11:29:51Z</time>
      </trkpt>
      <trkpt lat="45.53303" lon="6.74823">
        <ele>1656.6</ele>
        <time>2021-08-03T11:29:52Z</time>
      </trkpt>
      <trkpt lat="45.53302" lon="6.74822">
        <ele>1656.7</ele>
        <time>2021-08-03T11:29:53Z</time>
      </trkpt>
      <trkpt lat="45.53301" lon="6.74822">
        <ele>1656.8</ele>
        <time>2021-08-03T11:29:54Z</time>
      </trkpt>
      <trkpt lat="45.533" lon="6.7482">
        <ele>1656.9</ele>
        <time>2021-08-03T11:29:55Z</time>
      </trkpt>
      <trkpt lat="45.53299" lon="6.74819">
        <ele>1657</ele>
        <time>2021-08-03T11:29:56Z</time>
      </trkpt>
      <trkpt lat="45.53297" lon="6.74818">
        <ele>1657.1</ele>
        <time>2021-08-03T11:29:57Z</time>
      </trkpt>
      <trkpt lat="45.53297" lon="6.74816">
        <ele>1657.2</ele>
        <time>2021-08-03T11:29:58Z</time>
      </trkpt>
      <trkpt lat="45.53296" lon="6.74815">
        <ele>1657.3</ele>
        <time>2021-08-03T11:29:59Z</time>
      </trkpt>
      <trkpt lat="45.53295" lon="6.74814">
        <ele>1657.4</ele>
        <time>2021-08-03T11:30:00Z</time>
      </trkpt>
      <trkpt lat="45.53295" lon="6.74814">
        <ele>1657.4</ele>
        <time>2021-08-03T11:30:01Z</time>
      </trkpt>
      <trkpt lat="45.53295" lon="6.74813">
        <ele>1657.4</ele>
        <time>2021-08-03T11:30:02Z</time>
      </trkpt>
      <trkpt lat="45.53295" lon="6.74813">
        <ele>1657.5</ele>
        <time>2021-08-03T11:30:03Z</time>
      </trkpt>
      <trkpt lat="45.53294" lon="6.74812">
        <ele>1657.5</ele>
        <time>2021-08-03T11:30:04Z</time>
      </trkpt>
      <trkpt lat="45.53294" lon="6.74812">
        <ele>1657.6</ele>
        <time>2021-08-03T11:30:05Z</time>
      </trkpt>
      <trkpt lat="45.53293" lon="6.74811">
        <ele>1657.7</ele>
        <time>2021-08-03T11:30:06Z</time>
      </trkpt>
      <trkpt lat="45.53292" lon="6.7481">
        <ele>1657.8</ele>
        <time>2021-08-03T11:30:07Z</time>
      </trkpt>
      <trkpt lat="45.53291" lon="6.74809">
        <ele>1657.8</ele>
        <time>2021-08-03T11:30:08Z</time>
      </trkpt>
      <trkpt lat="45.5329" lon="6.74808">
        <ele>1657.9</ele>
        <time>2021-08-03T11:30:09Z</time>
      </trkpt>
      <trkpt lat="45.53289" lon="6.74807">
        <ele>1658.1</ele>
        <time>2021-08-03T11:30:10Z</time>
      </trkpt>
      <trkpt lat="45.53288" lon="6.74806">
        <ele>1658.2</ele>
        <time>2021-08-03T11:30:11Z</time>
      </trkpt>
      <trkpt lat="45.53287" lon="6.74805">
        <ele>1658.3</ele>
        <time>2021-08-03T11:30:12Z</time>
      </trkpt>
      <trkpt lat="45.53285" lon="6.74804">
        <ele>1658.4</ele>
        <time>2021-08-03T11:30:13Z</time>
      </trkpt>
      <trkpt lat="45.53284" lon="6.74803">
        <ele>1658.5</ele>
        <time>2021-08-03T11:30:14Z</time>
      </trkpt>
      <trkpt lat="45.53283" lon="6.74802">
        <ele>1658.6</ele>
        <time>2021-08-03T11:30:15Z</time>
      </trkpt>
      <trkpt lat="45.53282" lon="6.74801">
        <ele>1658.7</ele>
        <time>2021-08-03T11:30:16Z</time>
      </trkpt>
      <trkpt lat="45.53281" lon="6.748">
        <ele>1658.8</ele>
        <time>2021-08-03T11:30:17Z</time>
      </trkpt>
      <trkpt lat="45.5328" lon="6.74799">
        <ele>1658.9</ele>
        <time>2021-08-03T11:30:18Z</time>
      </trkpt>
      <trkpt lat="45.53279" lon="6.74798">
        <ele>1659</ele>
        <time>2021-08-03T11:30:19Z</time>
      </trkpt>
      <trkpt lat="45.53278" lon="6.74797">
        <ele>1659.1</ele>
        <time>2021-08-03T11:30:20Z</time>
      </trkpt>
      <trkpt lat="45.53277" lon="6.74796">
        <ele>1659.2</ele>
        <time>2021-08-03T11:30:21Z</time>
      </trkpt>
      <trkpt lat="45.53276" lon="6.74795">
        <ele>1659.3</ele>
        <time>2021-08-03T11:30:22Z</time>
      </trkpt>
      <trkpt lat="45.53275" lon="6.74794">
        <ele>1659.4</ele>
        <time>2021-08-03T11:30:23Z</time>
      </trkpt>
      <trkpt lat="45.53275" lon="6.74793">
        <ele>1659.5</ele>
        <time>2021-08-03T11:30:24Z</time>
      </trkpt>
      <trkpt lat="45.53274" lon="6.74792">
        <ele>1659.6</ele>
        <time>2021-08-03T11:30:25Z</time>
      </trkpt>
      <trkpt lat="45.53273" lon="6.74791">
        <ele>1659.7</ele>
        <time>2021-08-03T11:30:26Z</time>
      </trkpt>
      <trkpt lat="45.53272" lon="6.7479">
        <ele>1659.8</ele>
        <time>2021-08-03T11:30:27Z</time>
      </trkpt>
      <trkpt lat="45.53271" lon="6.74789">
        <ele>1659.9</ele>
        <time>2021-08-03T11:30:28Z</time>
      </trkpt>
      <trkpt lat="45.5327" lon="6.74788">
        <ele>1660</ele>
        <time>2021-08-03T11:30:29Z</time>
      </trkpt>
      <trkpt lat="45.53269" lon="6.74787">
        <ele>1660.1</ele>
        <time>2021-08-03T11:30:30Z</time>
      </trkpt>
      <trkpt lat="45.53268" lon="6.74786">
        <ele>1660.2</ele>
        <time>2021-08-03T11:30:31Z</time>
      </trkpt>
      <trkpt lat="45.53267" lon="6.74785">
        <ele>1660.4</ele>
        <time>2021-08-03T11:30:32Z</time>
      </trkpt>
      <trkpt lat="45.53266" lon="6.74784">
        <ele>1660.5</ele>
        <time>2021-08-03T11:30:33Z</time>
      </trkpt>
      <trkpt lat="45.53265" lon="6.74783">
        <ele>1660.6</ele>
        <time>2021-08-03T11:30:34Z</time>
      </trkpt>
      <trkpt lat="45.53264" lon="6.74782">
        <ele>1660.7</ele>
        <time>2021-08-03T11:30:35Z</time>
      </trkpt>
      <trkpt lat="45.53263" lon="6.74781">
        <ele>1660.8</ele>
        <time>2021-08-03T11:30:36Z</time>
      </trkpt>
      <trkpt lat="45.53262" lon="6.7478">
        <ele>1660.9</ele>
        <time>2021-08-03T11:30:37Z</time>
      </trkpt>
      <trkpt lat="45.53261" lon="6.74779">
        <ele>1661</ele>
        <time>2021-08-03T11:30:38Z</time>
      </trkpt>
      <trkpt lat="45.5326" lon="6.74778">
        <ele>1661.1</ele>
        <time>2021-08-03T11:30:39Z</time>
      </trkpt>
      <trkpt lat="45.53259" lon="6.74777">
        <ele>1661.3</ele>
        <time>2021-08-03T11:30:40Z</time>
      </trkpt>
      <trkpt lat="45.53258" lon="6.74777">
        <ele>1661.4</ele>
        <time>2021-08-03T11:30:41Z</time>
      </trkpt>
      <trkpt lat="45.53257" lon="6.74776">
        <ele>1661.5</ele>
        <time>2021-08-03T11:30:42Z</time>
      </trkpt>
      <trkpt lat="45.53256" lon="6.74775">
        <ele>1661.6</ele>
        <time>2021-08-03T11:30:43Z</time>
      </trkpt>
      <trkpt lat="45.53254" lon="6.74774">
        <ele>1661.7</ele>
        <time>2021-08-03T11:30:44Z</time>
      </trkpt>
      <trkpt lat="45.53253" lon="6.74773">
        <ele>1661.8</ele>
        <time>2021-08-03T11:30:45Z</time>
      </trkpt>
      <trkpt lat="45.53252" lon="6.74772">
        <ele>1662</ele>
        <time>2021-08-03T11:30:46Z</time>
      </trkpt>
      <trkpt lat="45.53251" lon="6.74771">
        <ele>1662.1</ele>
        <time>2021-08-03T11:30:47Z</time>
      </trkpt>
      <trkpt lat="45.5325" lon="6.7477">
        <ele>1662.2</ele>
        <time>2021-08-03T11:30:48Z</time>
      </trkpt>
      <trkpt lat="45.53249" lon="6.7477">
        <ele>1662.3</ele>
        <time>2021-08-03T11:30:49Z</time>
      </trkpt>
      <trkpt lat="45.53247" lon="6.74769">
        <ele>1662.5</ele>
        <time>2021-08-03T11:30:50Z</time>
      </trkpt>
      <trkpt lat="45.53246" lon="6.74768">
        <ele>1662.6</ele>
        <time>2021-08-03T11:30:51Z</time>
      </trkpt>
      <trkpt lat="45.53245" lon="6.74767">
        <ele>1662.7</ele>
        <time>2021-08-03T11:30:52Z</time>
      </trkpt>
      <trkpt lat="45.53244" lon="6.74766">
        <ele>1662.8</ele>
        <time>2021-08-03T11:30:53Z</time>
      </trkpt>
      <trkpt lat="45.53243" lon="6.74765">
        <ele>1662.9</ele>
        <time>2021-08-03T11:30:54Z</time>
      </trkpt>
      <trkpt lat="45.53242" lon="6.74765">
        <ele>1663</ele>
        <time>2021-08-03T11:30:55Z</time>
      </trkpt>
      <trkpt lat="45.5324" lon="6.74764">
        <ele>1663.2</ele>
        <time>2021-08-03T11:30:56Z</time>
      </trkpt>
      <trkpt lat="45.53239" lon="6.74763">
        <ele>1663.3</ele>
        <time>2021-08-03T11:30:57Z</time>
      </trkpt>
      <trkpt lat="45.53238" lon="6.74762">
        <ele>1663.4</ele>
        <time>2021-08-03T11:30:58Z</time>
      </trkpt>
      <trkpt lat="45.53237" lon="6.74761">
        <ele>1663.5</ele>
        <time>2021-08-03T11:30:59Z</time>
      </trkpt>
      <trkpt lat="45.53236" lon="6.7476">
        <ele>1663.6</ele>
        <time>2021-08-03T11:31:00Z</time>
      </trkpt>
      <trkpt lat="45.53235" lon="6.7476">
        <ele>1663.7</ele>
        <time>2021-08-03T11:31:01Z</time>
      </trkpt>
      <trkpt lat="45.53233" lon="6.74759">
        <ele>1663.8</ele>
        <time>2021-08-03T11:31:02Z</time>
      </trkpt>
      <trkpt lat="45.53232" lon="6.74758">
        <ele>1663.9</ele>
        <time>2021-08-03T11:31:03Z</time>
      </trkpt>
      <trkpt lat="45.53231" lon="6.74757">
        <ele>1664.1</ele>
        <time>2021-08-03T11:31:04Z</time>
      </trkpt>
      <trkpt lat="45.5323" lon="6.74756">
        <ele>1664.2</ele>
        <time>2021-08-03T11:31:05Z</time>
      </trkpt>
      <trkpt lat="45.53229" lon="6.74755">
        <ele>1664.3</ele>
        <time>2021-08-03T11:31:06Z</time>
      </trkpt>
      <trkpt lat="45.53228" lon="6.74754">
        <ele>1664.4</ele>
        <time>2021-08-03T11:31:07Z</time>
      </trkpt>
      <trkpt lat="45.53227" lon="6.74753">
        <ele>1664.5</ele>
        <time>2021-08-03T11:31:08Z</time>
      </trkpt>
      <trkpt lat="45.53226" lon="6.74752">
        <ele>1664.6</ele>
        <time>2021-08-03T11:31:09Z</time>
      </trkpt>
      <trkpt lat="45.53225" lon="6.74752">
        <ele>1664.7</ele>
        <time>2021-08-03T11:31:10Z</time>
      </trkpt>
      <trkpt lat="45.53224" lon="6.74751">
        <ele>1664.8</ele>
        <time>2021-08-03T11:31:11Z</time>
      </trkpt>
      <trkpt lat="45.53223" lon="6.7475">
        <ele>1664.9</ele>
        <time>2021-08-03T11:31:12Z</time>
      </trkpt>
      <trkpt lat="45.53222" lon="6.74749">
        <ele>1665</ele>
        <time>2021-08-03T11:31:13Z</time>
      </trkpt>
      <trkpt lat="45.53221" lon="6.74748">
        <ele>1665.1</ele>
        <time>2021-08-03T11:31:14Z</time>
      </trkpt>
      <trkpt lat="45.5322" lon="6.74747">
        <ele>1665.2</ele>
        <time>2021-08-03T11:31:15Z</time>
      </trkpt>
      <trkpt lat="45.53219" lon="6.74746">
        <ele>1665.3</ele>
        <time>2021-08-03T11:31:16Z</time>
      </trkpt>
      <trkpt lat="45.53218" lon="6.74745">
        <ele>1665.3</ele>
        <time>2021-08-03T11:31:17Z</time>
      </trkpt>
      <trkpt lat="45.53217" lon="6.74744">
        <ele>1665.4</ele>
        <time>2021-08-03T11:31:18Z</time>
      </trkpt>
      <trkpt lat="45.53216" lon="6.74744">
        <ele>1665.5</ele>
        <time>2021-08-03T11:31:19Z</time>
      </trkpt>
      <trkpt lat="45.53215" lon="6.74743">
        <ele>1665.6</ele>
        <time>2021-08-03T11:31:20Z</time>
      </trkpt>
      <trkpt lat="45.53214" lon="6.74742">
        <ele>1665.7</ele>
        <time>2021-08-03T11:31:21Z</time>
      </trkpt>
      <trkpt lat="45.53213" lon="6.74741">
        <ele>1665.8</ele>
        <time>2021-08-03T11:31:22Z</time>
      </trkpt>
      <trkpt lat="45.53213" lon="6.7474">
        <ele>1665.8</ele>
        <time>2021-08-03T11:31:23Z</time>
      </trkpt>
      <trkpt lat="45.53212" lon="6.7474">
        <ele>1665.9</ele>
        <time>2021-08-03T11:31:24Z</time>
      </trkpt>
      <trkpt lat="45.53211" lon="6.74739">
        <ele>1666</ele>
        <time>2021-08-03T11:31:25Z</time>
      </trkpt>
      <trkpt lat="45.5321" lon="6.74738">
        <ele>1666.1</ele>
        <time>2021-08-03T11:31:26Z</time>
      </trkpt>
      <trkpt lat="45.53209" lon="6.74737">
        <ele>1666.1</ele>
        <time>2021-08-03T11:31:27Z</time>
      </trkpt>
      <trkpt lat="45.53209" lon="6.74736">
        <ele>1666.2</ele>
        <time>2021-08-03T11:31:28Z</time>
      </trkpt>
      <trkpt lat="45.53208" lon="6.74735">
        <ele>1666.3</ele>
        <time>2021-08-03T11:31:29Z</time>
      </trkpt>
      <trkpt lat="45.53207" lon="6.74734">
        <ele>1666.4</ele>
        <time>2021-08-03T11:31:30Z</time>
      </trkpt>
      <trkpt lat="45.53206" lon="6.74733">
        <ele>1666.4</ele>
        <time>2021-08-03T11:31:31Z</time>
      </trkpt>
      <trkpt lat="45.53206" lon="6.74732">
        <ele>1666.5</ele>
        <time>2021-08-03T11:31:32Z</time>
      </trkpt>
      <trkpt lat="45.53205" lon="6.74731">
        <ele>1666.6</ele>
        <time>2021-08-03T11:31:33Z</time>
      </trkpt>
      <trkpt lat="45.53204" lon="6.7473">
        <ele>1666.7</ele>
        <time>2021-08-03T11:31:34Z</time>
      </trkpt>
      <trkpt lat="45.53204" lon="6.74729">
        <ele>1666.8</ele>
        <time>2021-08-03T11:31:35Z</time>
      </trkpt>
      <trkpt lat="45.53203" lon="6.74728">
        <ele>1666.8</ele>
        <time>2021-08-03T11:31:36Z</time>
      </trkpt>
      <trkpt lat="45.53202" lon="6.74727">
        <ele>1666.9</ele>
        <time>2021-08-03T11:31:37Z</time>
      </trkpt>
      <trkpt lat="45.53202" lon="6.74725">
        <ele>1667</ele>
        <time>2021-08-03T11:31:38Z</time>
      </trkpt>
      <trkpt lat="45.53201" lon="6.74724">
        <ele>1667.1</ele>
        <time>2021-08-03T11:31:39Z</time>
      </trkpt>
      <trkpt lat="45.532" lon="6.74723">
        <ele>1667.2</ele>
        <time>2021-08-03T11:31:40Z</time>
      </trkpt>
      <trkpt lat="45.532" lon="6.74721">
        <ele>1667.2</ele>
        <time>2021-08-03T11:31:41Z</time>
      </trkpt>
      <trkpt lat="45.53199" lon="6.7472">
        <ele>1667.3</ele>
        <time>2021-08-03T11:31:42Z</time>
      </trkpt>
      <trkpt lat="45.53198" lon="6.74718">
        <ele>1667.4</ele>
        <time>2021-08-03T11:31:43Z</time>
      </trkpt>
      <trkpt lat="45.53197" lon="6.74717">
        <ele>1667.5</ele>
        <time>2021-08-03T11:31:44Z</time>
      </trkpt>
      <trkpt lat="45.53197" lon="6.74715">
        <ele>1667.6</ele>
        <time>2021-08-03T11:31:45Z</time>
      </trkpt>
      <trkpt lat="45.53196" lon="6.74714">
        <ele>1667.7</ele>
        <time>2021-08-03T11:31:46Z</time>
      </trkpt>
      <trkpt lat="45.53195" lon="6.74712">
        <ele>1667.8</ele>
        <time>2021-08-03T11:31:47Z</time>
      </trkpt>
      <trkpt lat="45.53194" lon="6.74711">
        <ele>1667.8</ele>
        <time>2021-08-03T11:31:48Z</time>
      </trkpt>
      <trkpt lat="45.53193" lon="6.7471">
        <ele>1667.9</ele>
        <time>2021-08-03T11:31:49Z</time>
      </trkpt>
      <trkpt lat="45.53192" lon="6.74708">
        <ele>1668</ele>
        <time>2021-08-03T11:31:50Z</time>
      </trkpt>
      <trkpt lat="45.53191" lon="6.74707">
        <ele>1668.1</ele>
        <time>2021-08-03T11:31:51Z</time>
      </trkpt>
      <trkpt lat="45.5319" lon="6.74706">
        <ele>1668.2</ele>
        <time>2021-08-03T11:31:52Z</time>
      </trkpt>
      <trkpt lat="45.53189" lon="6.74705">
        <ele>1668.3</ele>
        <time>2021-08-03T11:31:53Z</time>
      </trkpt>
      <trkpt lat="45.53189" lon="6.74703">
        <ele>1668.4</ele>
        <time>2021-08-03T11:31:54Z</time>
      </trkpt>
      <trkpt lat="45.53188" lon="6.74702">
        <ele>1668.5</ele>
        <time>2021-08-03T11:31:55Z</time>
      </trkpt>
      <trkpt lat="45.53187" lon="6.74701">
        <ele>1668.5</ele>
        <time>2021-08-03T11:31:56Z</time>
      </trkpt>
      <trkpt lat="45.53186" lon="6.747">
        <ele>1668.6</ele>
        <time>2021-08-03T11:31:57Z</time>
      </trkpt>
      <trkpt lat="45.53185" lon="6.74698">
        <ele>1668.7</ele>
        <time>2021-08-03T11:31:58Z</time>
      </trkpt>
      <trkpt lat="45.53184" lon="6.74697">
        <ele>1668.8</ele>
        <time>2021-08-03T11:31:59Z</time>
      </trkpt>
      <trkpt lat="45.53184" lon="6.74695">
        <ele>1668.9</ele>
        <time>2021-08-03T11:32:00Z</time>
      </trkpt>
      <trkpt lat="45.53183" lon="6.74694">
        <ele>1669</ele>
        <time>2021-08-03T11:32:01Z</time>
      </trkpt>
      <trkpt lat="45.53182" lon="6.74692">
        <ele>1669.1</ele>
        <time>2021-08-03T11:32:02Z</time>
      </trkpt>
      <trkpt lat="45.53182" lon="6.74691">
        <ele>1669.2</ele>
        <time>2021-08-03T11:32:03Z</time>
      </trkpt>
      <trkpt lat="45.53181" lon="6.7469">
        <ele>1669.3</ele>
        <time>2021-08-03T11:32:04Z</time>
      </trkpt>
      <trkpt lat="45.53181" lon="6.74688">
        <ele>1669.3</ele>
        <time>2021-08-03T11:32:05Z</time>
      </trkpt>
      <trkpt lat="45.5318" lon="6.74687">
        <ele>1669.4</ele>
        <time>2021-08-03T11:32:06Z</time>
      </trkpt>
      <trkpt lat="45.53179" lon="6.74686">
        <ele>1669.5</ele>
        <time>2021-08-03T11:32:07Z</time>
      </trkpt>
      <trkpt lat="45.53179" lon="6.74684">
        <ele>1669.6</ele>
        <time>2021-08-03T11:32:08Z</time>
      </trkpt>
      <trkpt lat="45.53178" lon="6.74683">
        <ele>1669.7</ele>
        <time>2021-08-03T11:32:09Z</time>
      </trkpt>
      <trkpt lat="45.53178" lon="6.74682">
        <ele>1669.8</ele>
        <time>2021-08-03T11:32:10Z</time>
      </trkpt>
      <trkpt lat="45.53177" lon="6.74681">
        <ele>1669.8</ele>
        <time>2021-08-03T11:32:11Z</time>
      </trkpt>
      <trkpt lat="45.53176" lon="6.7468">
        <ele>1669.9</ele>
        <time>2021-08-03T11:32:12Z</time>
      </trkpt>
      <trkpt lat="45.53175" lon="6.74679">
        <ele>1670</ele>
        <time>2021-08-03T11:32:13Z</time>
      </trkpt>
      <trkpt lat="45.53175" lon="6.74678">
        <ele>1670.1</ele>
        <time>2021-08-03T11:32:14Z</time>
      </trkpt>
      <trkpt lat="45.53174" lon="6.74677">
        <ele>1670.2</ele>
        <time>2021-08-03T11:32:15Z</time>
      </trkpt>
      <trkpt lat="45.53173" lon="6.74675">
        <ele>1670.3</ele>
        <time>2021-08-03T11:32:16Z</time>
      </trkpt>
      <trkpt lat="45.53172" lon="6.74674">
        <ele>1670.4</ele>
        <time>2021-08-03T11:32:17Z</time>
      </trkpt>
      <trkpt lat="45.53172" lon="6.74673">
        <ele>1670.5</ele>
        <time>2021-08-03T11:32:18Z</time>
      </trkpt>
      <trkpt lat="45.53171" lon="6.74672">
        <ele>1670.6</ele>
        <time>2021-08-03T11:32:19Z</time>
      </trkpt>
      <trkpt lat="45.5317" lon="6.7467">
        <ele>1670.7</ele>
        <time>2021-08-03T11:32:20Z</time>
      </trkpt>
      <trkpt lat="45.53168" lon="6.74669">
        <ele>1670.8</ele>
        <time>2021-08-03T11:32:21Z</time>
      </trkpt>
      <trkpt lat="45.53167" lon="6.74668">
        <ele>1670.9</ele>
        <time>2021-08-03T11:32:22Z</time>
      </trkpt>
      <trkpt lat="45.53166" lon="6.74667">
        <ele>1671</ele>
        <time>2021-08-03T11:32:23Z</time>
      </trkpt>
      <trkpt lat="45.53165" lon="6.74665">
        <ele>1671.1</ele>
        <time>2021-08-03T11:32:24Z</time>
      </trkpt>
      <trkpt lat="45.53165" lon="6.74664">
        <ele>1671.2</ele>
        <time>2021-08-03T11:32:25Z</time>
      </trkpt>
      <trkpt lat="45.53164" lon="6.74663">
        <ele>1671.3</ele>
        <time>2021-08-03T11:32:26Z</time>
      </trkpt>
      <trkpt lat="45.53163" lon="6.74662">
        <ele>1671.4</ele>
        <time>2021-08-03T11:32:27Z</time>
      </trkpt>
      <trkpt lat="45.53162" lon="6.74661">
        <ele>1671.5</ele>
        <time>2021-08-03T11:32:28Z</time>
      </trkpt>
      <trkpt lat="45.53161" lon="6.74659">
        <ele>1671.6</ele>
        <time>2021-08-03T11:32:29Z</time>
      </trkpt>
      <trkpt lat="45.5316" lon="6.74658">
        <ele>1671.7</ele>
        <time>2021-08-03T11:32:30Z</time>
      </trkpt>
      <trkpt lat="45.53159" lon="6.74657">
        <ele>1671.8</ele>
        <time>2021-08-03T11:32:31Z</time>
      </trkpt>
      <trkpt lat="45.53158" lon="6.74656">
        <ele>1671.9</ele>
        <time>2021-08-03T11:32:32Z</time>
      </trkpt>
      <trkpt lat="45.53157" lon="6.74655">
        <ele>1672</ele>
        <time>2021-08-03T11:32:33Z</time>
      </trkpt>
      <trkpt lat="45.53156" lon="6.74654">
        <ele>1672.1</ele>
        <time>2021-08-03T11:32:34Z</time>
      </trkpt>
      <trkpt lat="45.53155" lon="6.74653">
        <ele>1672.2</ele>
        <time>2021-08-03T11:32:35Z</time>
      </trkpt>
      <trkpt lat="45.53154" lon="6.74652">
        <ele>1672.3</ele>
        <time>2021-08-03T11:32:36Z</time>
      </trkpt>
      <trkpt lat="45.53153" lon="6.74651">
        <ele>1672.4</ele>
        <time>2021-08-03T11:32:37Z</time>
      </trkpt>
      <trkpt lat="45.53151" lon="6.7465">
        <ele>1672.5</ele>
        <time>2021-08-03T11:32:38Z</time>
      </trkpt>
      <trkpt lat="45.5315" lon="6.74649">
        <ele>1672.6</ele>
        <time>2021-08-03T11:32:39Z</time>
      </trkpt>
      <trkpt lat="45.53149" lon="6.74648">
        <ele>1672.7</ele>
        <time>2021-08-03T11:32:40Z</time>
      </trkpt>
      <trkpt lat="45.53148" lon="6.74647">
        <ele>1672.8</ele>
        <time>2021-08-03T11:32:41Z</time>
      </trkpt>
      <trkpt lat="45.53147" lon="6.74646">
        <ele>1672.9</ele>
        <time>2021-08-03T11:32:42Z</time>
      </trkpt>
      <trkpt lat="45.53145" lon="6.74645">
        <ele>1673.1</ele>
        <time>2021-08-03T11:32:43Z</time>
      </trkpt>
      <trkpt lat="45.53144" lon="6.74644">
        <ele>1673.2</ele>
        <time>2021-08-03T11:32:44Z</time>
      </trkpt>
      <trkpt lat="45.53143" lon="6.74643">
        <ele>1673.3</ele>
        <time>2021-08-03T11:32:45Z</time>
      </trkpt>
      <trkpt lat="45.53142" lon="6.74642">
        <ele>1673.4</ele>
        <time>2021-08-03T11:32:46Z</time>
      </trkpt>
      <trkpt lat="45.5314" lon="6.74641">
        <ele>1673.6</ele>
        <time>2021-08-03T11:32:47Z</time>
      </trkpt>
      <trkpt lat="45.53139" lon="6.7464">
        <ele>1673.7</ele>
        <time>2021-08-03T11:32:48Z</time>
      </trkpt>
      <trkpt lat="45.53137" lon="6.74639">
        <ele>1673.8</ele>
        <time>2021-08-03T11:32:49Z</time>
      </trkpt>
      <trkpt lat="45.53136" lon="6.74638">
        <ele>1674</ele>
        <time>2021-08-03T11:32:50Z</time>
      </trkpt>
      <trkpt lat="45.53135" lon="6.74637">
        <ele>1674.1</ele>
        <time>2021-08-03T11:32:51Z</time>
      </trkpt>
      <trkpt lat="45.53133" lon="6.74636">
        <ele>1674.2</ele>
        <time>2021-08-03T11:32:52Z</time>
      </trkpt>
      <trkpt lat="45.53132" lon="6.74634">
        <ele>1674.4</ele>
        <time>2021-08-03T11:32:53Z</time>
      </trkpt>
      <trkpt lat="45.53131" lon="6.74633">
        <ele>1674.5</ele>
        <time>2021-08-03T11:32:54Z</time>
      </trkpt>
      <trkpt lat="45.53129" lon="6.74632">
        <ele>1674.6</ele>
        <time>2021-08-03T11:32:55Z</time>
      </trkpt>
      <trkpt lat="45.53128" lon="6.74631">
        <ele>1674.8</ele>
        <time>2021-08-03T11:32:56Z</time>
      </trkpt>
      <trkpt lat="45.53127" lon="6.7463">
        <ele>1674.9</ele>
        <time>2021-08-03T11:32:57Z</time>
      </trkpt>
      <trkpt lat="45.53126" lon="6.74629">
        <ele>1675.1</ele>
        <time>2021-08-03T11:32:58Z</time>
      </trkpt>
      <trkpt lat="45.53124" lon="6.74628">
        <ele>1675.2</ele>
        <time>2021-08-03T11:32:59Z</time>
      </trkpt>
      <trkpt lat="45.53123" lon="6.74627">
        <ele>1675.3</ele>
        <time>2021-08-03T11:33:00Z</time>
      </trkpt>
      <trkpt lat="45.53122" lon="6.74626">
        <ele>1675.5</ele>
        <time>2021-08-03T11:33:01Z</time>
      </trkpt>
      <trkpt lat="45.53121" lon="6.74625">
        <ele>1675.6</ele>
        <time>2021-08-03T11:33:02Z</time>
      </trkpt>
      <trkpt lat="45.5312" lon="6.74624">
        <ele>1675.7</ele>
        <time>2021-08-03T11:33:03Z</time>
      </trkpt>
      <trkpt lat="45.53119" lon="6.74623">
        <ele>1675.8</ele>
        <time>2021-08-03T11:33:04Z</time>
      </trkpt>
      <trkpt lat="45.53118" lon="6.74623">
        <ele>1675.9</ele>
        <time>2021-08-03T11:33:05Z</time>
      </trkpt>
      <trkpt lat="45.53117" lon="6.74622">
        <ele>1676</ele>
        <time>2021-08-03T11:33:06Z</time>
      </trkpt>
      <trkpt lat="45.53116" lon="6.74621">
        <ele>1676.1</ele>
        <time>2021-08-03T11:33:07Z</time>
      </trkpt>
      <trkpt lat="45.53115" lon="6.7462">
        <ele>1676.2</ele>
        <time>2021-08-03T11:33:08Z</time>
      </trkpt>
      <trkpt lat="45.53114" lon="6.74619">
        <ele>1676.3</ele>
        <time>2021-08-03T11:33:09Z</time>
      </trkpt>
      <trkpt lat="45.53113" lon="6.74618">
        <ele>1676.4</ele>
        <time>2021-08-03T11:33:10Z</time>
      </trkpt>
      <trkpt lat="45.53112" lon="6.74617">
        <ele>1676.5</ele>
        <time>2021-08-03T11:33:11Z</time>
      </trkpt>
      <trkpt lat="45.53112" lon="6.74615">
        <ele>1676.7</ele>
        <time>2021-08-03T11:33:12Z</time>
      </trkpt>
      <trkpt lat="45.53111" lon="6.74614">
        <ele>1676.8</ele>
        <time>2021-08-03T11:33:13Z</time>
      </trkpt>
      <trkpt lat="45.5311" lon="6.74613">
        <ele>1676.9</ele>
        <time>2021-08-03T11:33:14Z</time>
      </trkpt>
      <trkpt lat="45.53109" lon="6.74611">
        <ele>1677</ele>
        <time>2021-08-03T11:33:15Z</time>
      </trkpt>
      <trkpt lat="45.53109" lon="6.7461">
        <ele>1677.1</ele>
        <time>2021-08-03T11:33:16Z</time>
      </trkpt>
      <trkpt lat="45.53108" lon="6.74609">
        <ele>1677.2</ele>
        <time>2021-08-03T11:33:17Z</time>
      </trkpt>
      <trkpt lat="45.53107" lon="6.74608">
        <ele>1677.3</ele>
        <time>2021-08-03T11:33:18Z</time>
      </trkpt>
      <trkpt lat="45.53107" lon="6.74607">
        <ele>1677.4</ele>
        <time>2021-08-03T11:33:19Z</time>
      </trkpt>
      <trkpt lat="45.53106" lon="6.74606">
        <ele>1677.5</ele>
        <time>2021-08-03T11:33:20Z</time>
      </trkpt>
      <trkpt lat="45.53106" lon="6.74605">
        <ele>1677.6</ele>
        <time>2021-08-03T11:33:21Z</time>
      </trkpt>
      <trkpt lat="45.53105" lon="6.74604">
        <ele>1677.7</ele>
        <time>2021-08-03T11:33:22Z</time>
      </trkpt>
      <trkpt lat="45.53105" lon="6.74603">
        <ele>1677.8</ele>
        <time>2021-08-03T11:33:23Z</time>
      </trkpt>
      <trkpt lat="45.53104" lon="6.74602">
        <ele>1677.8</ele>
        <time>2021-08-03T11:33:24Z</time>
      </trkpt>
      <trkpt lat="45.53104" lon="6.74602">
        <ele>1677.9</ele>
        <time>2021-08-03T11:33:25Z</time>
      </trkpt>
      <trkpt lat="45.53103" lon="6.74601">
        <ele>1678</ele>
        <time>2021-08-03T11:33:26Z</time>
      </trkpt>
      <trkpt lat="45.53102" lon="6.746">
        <ele>1678.1</ele>
        <time>2021-08-03T11:33:27Z</time>
      </trkpt>
      <trkpt lat="45.53102" lon="6.74599">
        <ele>1678.2</ele>
        <time>2021-08-03T11:33:28Z</time>
      </trkpt>
      <trkpt lat="45.53101" lon="6.74598">
        <ele>1678.3</ele>
        <time>2021-08-03T11:33:29Z</time>
      </trkpt>
      <trkpt lat="45.531" lon="6.74597">
        <ele>1678.4</ele>
        <time>2021-08-03T11:33:30Z</time>
      </trkpt>
      <trkpt lat="45.53099" lon="6.74596">
        <ele>1678.5</ele>
        <time>2021-08-03T11:33:31Z</time>
      </trkpt>
      <trkpt lat="45.53098" lon="6.74595">
        <ele>1678.6</ele>
        <time>2021-08-03T11:33:32Z</time>
      </trkpt>
      <trkpt lat="45.53097" lon="6.74593">
        <ele>1678.8</ele>
        <time>2021-08-03T11:33:33Z</time>
      </trkpt>
      <trkpt lat="45.53096" lon="6.74592">
        <ele>1678.9</ele>
        <time>2021-08-03T11:33:34Z</time>
      </trkpt>
      <trkpt lat="45.53095" lon="6.74591">
        <ele>1679.1</ele>
        <time>2021-08-03T11:33:35Z</time>
      </trkpt>
      <trkpt lat="45.53094" lon="6.74589">
        <ele>1679.2</ele>
        <time>2021-08-03T11:33:36Z</time>
      </trkpt>
      <trkpt lat="45.53093" lon="6.74588">
        <ele>1679.3</ele>
        <time>2021-08-03T11:33:37Z</time>
      </trkpt>
      <trkpt lat="45.53092" lon="6.74587">
        <ele>1679.4</ele>
        <time>2021-08-03T11:33:38Z</time>
      </trkpt>
      <trkpt lat="45.53092" lon="6.74585">
        <ele>1679.5</ele>
        <time>2021-08-03T11:33:39Z</time>
      </trkpt>
      <trkpt lat="45.53091" lon="6.74584">
        <ele>1679.7</ele>
        <time>2021-08-03T11:33:40Z</time>
      </trkpt>
      <trkpt lat="45.5309" lon="6.74583">
        <ele>1679.8</ele>
        <time>2021-08-03T11:33:41Z</time>
      </trkpt>
      <trkpt lat="45.5309" lon="6.74581">
        <ele>1679.9</ele>
        <time>2021-08-03T11:33:42Z</time>
      </trkpt>
      <trkpt lat="45.53089" lon="6.7458">
        <ele>1680</ele>
        <time>2021-08-03T11:33:43Z</time>
      </trkpt>
      <trkpt lat="45.53088" lon="6.74579">
        <ele>1680.1</ele>
        <time>2021-08-03T11:33:44Z</time>
      </trkpt>
      <trkpt lat="45.53087" lon="6.74578">
        <ele>1680.2</ele>
        <time>2021-08-03T11:33:45Z</time>
      </trkpt>
      <trkpt lat="45.53087" lon="6.74577">
        <ele>1680.3</ele>
        <time>2021-08-03T11:33:46Z</time>
      </trkpt>
      <trkpt lat="45.53086" lon="6.74576">
        <ele>1680.4</ele>
        <time>2021-08-03T11:33:47Z</time>
      </trkpt>
      <trkpt lat="45.53085" lon="6.74574">
        <ele>1680.6</ele>
        <time>2021-08-03T11:33:48Z</time>
      </trkpt>
      <trkpt lat="45.53084" lon="6.74573">
        <ele>1680.7</ele>
        <time>2021-08-03T11:33:49Z</time>
      </trkpt>
      <trkpt lat="45.53083" lon="6.74571">
        <ele>1680.8</ele>
        <time>2021-08-03T11:33:50Z</time>
      </trkpt>
      <trkpt lat="45.53082" lon="6.7457">
        <ele>1680.8</ele>
        <time>2021-08-03T11:33:51Z</time>
      </trkpt>
      <trkpt lat="45.5308" lon="6.74568">
        <ele>1680.9</ele>
        <time>2021-08-03T11:33:52Z</time>
      </trkpt>
      <trkpt lat="45.53079" lon="6.74567">
        <ele>1681</ele>
        <time>2021-08-03T11:33:53Z</time>
      </trkpt>
      <trkpt lat="45.53078" lon="6.74565">
        <ele>1681.1</ele>
        <time>2021-08-03T11:33:54Z</time>
      </trkpt>
      <trkpt lat="45.53077" lon="6.74564">
        <ele>1681.2</ele>
        <time>2021-08-03T11:33:55Z</time>
      </trkpt>
      <trkpt lat="45.53076" lon="6.74563">
        <ele>1681.3</ele>
        <time>2021-08-03T11:33:56Z</time>
      </trkpt>
      <trkpt lat="45.53075" lon="6.74561">
        <ele>1681.3</ele>
        <time>2021-08-03T11:33:57Z</time>
      </trkpt>
      <trkpt lat="45.53074" lon="6.7456">
        <ele>1681.4</ele>
        <time>2021-08-03T11:33:58Z</time>
      </trkpt>
      <trkpt lat="45.53073" lon="6.74559">
        <ele>1681.5</ele>
        <time>2021-08-03T11:33:59Z</time>
      </trkpt>
      <trkpt lat="45.53072" lon="6.74557">
        <ele>1681.5</ele>
        <time>2021-08-03T11:34:00Z</time>
      </trkpt>
      <trkpt lat="45.53072" lon="6.74556">
        <ele>1681.6</ele>
        <time>2021-08-03T11:34:01Z</time>
      </trkpt>
      <trkpt lat="45.53071" lon="6.74555">
        <ele>1681.7</ele>
        <time>2021-08-03T11:34:02Z</time>
      </trkpt>
      <trkpt lat="45.5307" lon="6.74553">
        <ele>1681.7</ele>
        <time>2021-08-03T11:34:03Z</time>
      </trkpt>
      <trkpt lat="45.53069" lon="6.74552">
        <ele>1681.8</ele>
        <time>2021-08-03T11:34:04Z</time>
      </trkpt>
      <trkpt lat="45.53068" lon="6.7455">
        <ele>1681.9</ele>
        <time>2021-08-03T11:34:05Z</time>
      </trkpt>
      <trkpt lat="45.53068" lon="6.74549">
        <ele>1681.9</ele>
        <time>2021-08-03T11:34:06Z</time>
      </trkpt>
      <trkpt lat="45.53067" lon="6.74547">
        <ele>1682</ele>
        <time>2021-08-03T11:34:07Z</time>
      </trkpt>
      <trkpt lat="45.53066" lon="6.74546">
        <ele>1682.1</ele>
        <time>2021-08-03T11:34:08Z</time>
      </trkpt>
      <trkpt lat="45.53066" lon="6.74544">
        <ele>1682.1</ele>
        <time>2021-08-03T11:34:09Z</time>
      </trkpt>
      <trkpt lat="45.53065" lon="6.74543">
        <ele>1682.2</ele>
        <time>2021-08-03T11:34:10Z</time>
      </trkpt>
      <trkpt lat="45.53064" lon="6.74541">
        <ele>1682.3</ele>
        <time>2021-08-03T11:34:11Z</time>
      </trkpt>
      <trkpt lat="45.53064" lon="6.7454">
        <ele>1682.3</ele>
        <time>2021-08-03T11:34:12Z</time>
      </trkpt>
      <trkpt lat="45.53063" lon="6.74538">
        <ele>1682.4</ele>
        <time>2021-08-03T11:34:13Z</time>
      </trkpt>
      <trkpt lat="45.53062" lon="6.74537">
        <ele>1682.5</ele>
        <time>2021-08-03T11:34:14Z</time>
      </trkpt>
      <trkpt lat="45.53062" lon="6.74536">
        <ele>1682.5</ele>
        <time>2021-08-03T11:34:15Z</time>
      </trkpt>
      <trkpt lat="45.53061" lon="6.74534">
        <ele>1682.6</ele>
        <time>2021-08-03T11:34:16Z</time>
      </trkpt>
      <trkpt lat="45.53061" lon="6.74533">
        <ele>1682.6</ele>
        <time>2021-08-03T11:34:17Z</time>
      </trkpt>
      <trkpt lat="45.5306" lon="6.74532">
        <ele>1682.7</ele>
        <time>2021-08-03T11:34:18Z</time>
      </trkpt>
      <trkpt lat="45.53059" lon="6.7453">
        <ele>1682.8</ele>
        <time>2021-08-03T11:34:19Z</time>
      </trkpt>
      <trkpt lat="45.53059" lon="6.74528">
        <ele>1682.8</ele>
        <time>2021-08-03T11:34:20Z</time>
      </trkpt>
      <trkpt lat="45.53058" lon="6.74527">
        <ele>1682.9</ele>
        <time>2021-08-03T11:34:21Z</time>
      </trkpt>
      <trkpt lat="45.53057" lon="6.74525">
        <ele>1683</ele>
        <time>2021-08-03T11:34:22Z</time>
      </trkpt>
      <trkpt lat="45.53056" lon="6.74523">
        <ele>1683.1</ele>
        <time>2021-08-03T11:34:23Z</time>
      </trkpt>
      <trkpt lat="45.53055" lon="6.74522">
        <ele>1683.2</ele>
        <time>2021-08-03T11:34:24Z</time>
      </trkpt>
      <trkpt lat="45.53055" lon="6.7452">
        <ele>1683.2</ele>
        <time>2021-08-03T11:34:25Z</time>
      </trkpt>
      <trkpt lat="45.53054" lon="6.74519">
        <ele>1683.3</ele>
        <time>2021-08-03T11:34:26Z</time>
      </trkpt>
      <trkpt lat="45.53054" lon="6.74518">
        <ele>1683.3</ele>
        <time>2021-08-03T11:34:27Z</time>
      </trkpt>
      <trkpt lat="45.53054" lon="6.74517">
        <ele>1683.4</ele>
        <time>2021-08-03T11:34:28Z</time>
      </trkpt>
      <trkpt lat="45.53053" lon="6.74517">
        <ele>1683.4</ele>
        <time>2021-08-03T11:34:29Z</time>
      </trkpt>
      <trkpt lat="45.53053" lon="6.74517">
        <ele>1683.4</ele>
        <time>2021-08-03T11:34:30Z</time>
      </trkpt>
      <trkpt lat="45.53053" lon="6.74517">
        <ele>1683.4</ele>
        <time>2021-08-03T11:34:31Z</time>
      </trkpt>
      <trkpt lat="45.53053" lon="6.74517">
        <ele>1683.4</ele>
        <time>2021-08-03T11:34:32Z</time>
      </trkpt>
      <trkpt lat="45.53053" lon="6.74517">
        <ele>1683.4</ele>
        <time>2021-08-03T11:34:33Z</time>
      </trkpt>
      <trkpt lat="45.53053" lon="6.74517">
        <ele>1683.4</ele>
        <time>2021-08-03T11:34:34Z</time>
      </trkpt>
      <trkpt lat="45.53053" lon="6.74517">
        <ele>1683.4</ele>
        <time>2021-08-03T11:34:35Z</time>
      </trkpt>
      <trkpt lat="45.53053" lon="6.74516">
        <ele>1683.4</ele>
        <time>2021-08-03T11:34:36Z</time>
      </trkpt>
      <trkpt lat="45.53053" lon="6.74516">
        <ele>1683.4</ele>
        <time>2021-08-03T11:34:37Z</time>
      </trkpt>
      <trkpt lat="45.53053" lon="6.74516">
        <ele>1683.4</ele>
        <time>2021-08-03T11:34:38Z</time>
      </trkpt>
      <trkpt lat="45.53053" lon="6.74515">
        <ele>1683.5</ele>
        <time>2021-08-03T11:34:39Z</time>
      </trkpt>
      <trkpt lat="45.53053" lon="6.74514">
        <ele>1683.5</ele>
        <time>2021-08-03T11:34:40Z</time>
      </trkpt>
      <trkpt lat="45.53053" lon="6.74512">
        <ele>1683.6</ele>
        <time>2021-08-03T11:34:41Z</time>
      </trkpt>
      <trkpt lat="45.53052" lon="6.74511">
        <ele>1683.6</ele>
        <time>2021-08-03T11:34:42Z</time>
      </trkpt>
      <trkpt lat="45.53052" lon="6.74509">
        <ele>1683.7</ele>
        <time>2021-08-03T11:34:43Z</time>
      </trkpt>
      <trkpt lat="45.53051" lon="6.74508">
        <ele>1683.7</ele>
        <time>2021-08-03T11:34:44Z</time>
      </trkpt>
      <trkpt lat="45.53051" lon="6.74507">
        <ele>1683.8</ele>
        <time>2021-08-03T11:34:45Z</time>
      </trkpt>
      <trkpt lat="45.5305" lon="6.74506">
        <ele>1683.9</ele>
        <time>2021-08-03T11:34:46Z</time>
      </trkpt>
      <trkpt lat="45.53049" lon="6.74505">
        <ele>1683.9</ele>
        <time>2021-08-03T11:34:47Z</time>
      </trkpt>
      <trkpt lat="45.53049" lon="6.74504">
        <ele>1684</ele>
        <time>2021-08-03T11:34:48Z</time>
      </trkpt>
      <trkpt lat="45.53048" lon="6.74503">
        <ele>1684</ele>
        <time>2021-08-03T11:34:49Z</time>
      </trkpt>
      <trkpt lat="45.53047" lon="6.74503">
        <ele>1684.1</ele>
        <time>2021-08-03T11:34:50Z</time>
      </trkpt>
      <trkpt lat="45.53047" lon="6.74502">
        <ele>1684.1</ele>
        <time>2021-08-03T11:34:51Z</time>
      </trkpt>
      <trkpt lat="45.53046" lon="6.74502">
        <ele>1684.2</ele>
        <time>2021-08-03T11:34:52Z</time>
      </trkpt>
      <trkpt lat="45.53046" lon="6.74502">
        <ele>1684.2</ele>
        <time>2021-08-03T11:34:53Z</time>
      </trkpt>
      <trkpt lat="45.53046" lon="6.74501">
        <ele>1684.2</ele>
        <time>2021-08-03T11:34:54Z</time>
      </trkpt>
      <trkpt lat="45.53046" lon="6.74501">
        <ele>1684.2</ele>
        <time>2021-08-03T11:34:55Z</time>
      </trkpt>
      <trkpt lat="45.53046" lon="6.74501">
        <ele>1684.2</ele>
        <time>2021-08-03T11:34:56Z</time>
      </trkpt>
      <trkpt lat="45.53046" lon="6.74501">
        <ele>1684.2</ele>
        <time>2021-08-03T11:34:57Z</time>
      </trkpt>
      <trkpt lat="45.53046" lon="6.74501">
        <ele>1684.2</ele>
        <time>2021-08-03T11:34:58Z</time>
      </trkpt>
      <trkpt lat="45.53046" lon="6.74501">
        <ele>1684.2</ele>
        <time>2021-08-03T11:34:59Z</time>
      </trkpt>
      <trkpt lat="45.53046" lon="6.74501">
        <ele>1684.2</ele>
        <time>2021-08-03T11:35:00Z</time>
      </trkpt>
      <trkpt lat="45.53046" lon="6.74501">
        <ele>1684.2</ele>
        <time>2021-08-03T11:35:01Z</time>
      </trkpt>
      <trkpt lat="45.53046" lon="6.74501">
        <ele>1684.3</ele>
        <time>2021-08-03T11:35:02Z</time>
      </trkpt>
      <trkpt lat="45.53046" lon="6.74501">
        <ele>1684.3</ele>
        <time>2021-08-03T11:35:03Z</time>
      </trkpt>
      <trkpt lat="45.53046" lon="6.74501">
        <ele>1684.3</ele>
        <time>2021-08-03T11:35:04Z</time>
      </trkpt>
      <trkpt lat="45.53046" lon="6.74501">
        <ele>1684.3</ele>
        <time>2021-08-03T11:35:05Z</time>
      </trkpt>
      <trkpt lat="45.53046" lon="6.74501">
        <ele>1684.3</ele>
        <time>2021-08-03T11:35:06Z</time>
      </trkpt>
      <trkpt lat="45.53045" lon="6.74501">
        <ele>1684.3</ele>
        <time>2021-08-03T11:35:07Z</time>
      </trkpt>
      <trkpt lat="45.53045" lon="6.74501">
        <ele>1684.3</ele>
        <time>2021-08-03T11:35:08Z</time>
      </trkpt>
      <trkpt lat="45.53045" lon="6.745">
        <ele>1684.4</ele>
        <time>2021-08-03T11:35:09Z</time>
      </trkpt>
      <trkpt lat="45.53044" lon="6.745">
        <ele>1684.4</ele>
        <time>2021-08-03T11:35:10Z</time>
      </trkpt>
      <trkpt lat="45.53044" lon="6.745">
        <ele>1684.4</ele>
        <time>2021-08-03T11:35:11Z</time>
      </trkpt>
      <trkpt lat="45.53043" lon="6.74499">
        <ele>1684.5</ele>
        <time>2021-08-03T11:35:12Z</time>
      </trkpt>
      <trkpt lat="45.53042" lon="6.74499">
        <ele>1684.5</ele>
        <time>2021-08-03T11:35:13Z</time>
      </trkpt>
      <trkpt lat="45.53041" lon="6.74499">
        <ele>1684.6</ele>
        <time>2021-08-03T11:35:14Z</time>
      </trkpt>
      <trkpt lat="45.53041" lon="6.74498">
        <ele>1684.7</ele>
        <time>2021-08-03T11:35:15Z</time>
      </trkpt>
      <trkpt lat="45.5304" lon="6.74498">
        <ele>1684.7</ele>
        <time>2021-08-03T11:35:16Z</time>
      </trkpt>
      <trkpt lat="45.53039" lon="6.74498">
        <ele>1684.8</ele>
        <time>2021-08-03T11:35:17Z</time>
      </trkpt>
      <trkpt lat="45.53038" lon="6.74497">
        <ele>1684.9</ele>
        <time>2021-08-03T11:35:18Z</time>
      </trkpt>
      <trkpt lat="45.53037" lon="6.74497">
        <ele>1684.9</ele>
        <time>2021-08-03T11:35:19Z</time>
      </trkpt>
      <trkpt lat="45.53036" lon="6.74497">
        <ele>1685</ele>
        <time>2021-08-03T11:35:20Z</time>
      </trkpt>
      <trkpt lat="45.53036" lon="6.74497">
        <ele>1685.1</ele>
        <time>2021-08-03T11:35:21Z</time>
      </trkpt>
      <trkpt lat="45.53035" lon="6.74497">
        <ele>1685.1</ele>
        <time>2021-08-03T11:35:22Z</time>
      </trkpt>
      <trkpt lat="45.53034" lon="6.74496">
        <ele>1685.2</ele>
        <time>2021-08-03T11:35:23Z</time>
      </trkpt>
      <trkpt lat="45.53033" lon="6.74496">
        <ele>1685.3</ele>
        <time>2021-08-03T11:35:24Z</time>
      </trkpt>
      <trkpt lat="45.53032" lon="6.74496">
        <ele>1685.4</ele>
        <time>2021-08-03T11:35:25Z</time>
      </trkpt>
      <trkpt lat="45.53031" lon="6.74496">
        <ele>1685.4</ele>
        <time>2021-08-03T11:35:26Z</time>
      </trkpt>
      <trkpt lat="45.5303" lon="6.74496">
        <ele>1685.5</ele>
        <time>2021-08-03T11:35:27Z</time>
      </trkpt>
      <trkpt lat="45.53029" lon="6.74496">
        <ele>1685.6</ele>
        <time>2021-08-03T11:35:28Z</time>
      </trkpt>
      <trkpt lat="45.53028" lon="6.74496">
        <ele>1685.7</ele>
        <time>2021-08-03T11:35:29Z</time>
      </trkpt>
      <trkpt lat="45.53026" lon="6.74496">
        <ele>1685.8</ele>
        <time>2021-08-03T11:35:30Z</time>
      </trkpt>
      <trkpt lat="45.53025" lon="6.74496">
        <ele>1685.9</ele>
        <time>2021-08-03T11:35:31Z</time>
      </trkpt>
      <trkpt lat="45.53024" lon="6.74496">
        <ele>1686</ele>
        <time>2021-08-03T11:35:32Z</time>
      </trkpt>
      <trkpt lat="45.53023" lon="6.74496">
        <ele>1686.1</ele>
        <time>2021-08-03T11:35:33Z</time>
      </trkpt>
      <trkpt lat="45.53021" lon="6.74496">
        <ele>1686.2</ele>
        <time>2021-08-03T11:35:34Z</time>
      </trkpt>
      <trkpt lat="45.5302" lon="6.74495">
        <ele>1686.3</ele>
        <time>2021-08-03T11:35:35Z</time>
      </trkpt>
      <trkpt lat="45.53019" lon="6.74495">
        <ele>1686.5</ele>
        <time>2021-08-03T11:35:36Z</time>
      </trkpt>
      <trkpt lat="45.53018" lon="6.74495">
        <ele>1686.6</ele>
        <time>2021-08-03T11:35:37Z</time>
      </trkpt>
      <trkpt lat="45.53016" lon="6.74495">
        <ele>1686.7</ele>
        <time>2021-08-03T11:35:38Z</time>
      </trkpt>
      <trkpt lat="45.53015" lon="6.74495">
        <ele>1686.8</ele>
        <time>2021-08-03T11:35:39Z</time>
      </trkpt>
      <trkpt lat="45.53013" lon="6.74494">
        <ele>1686.9</ele>
        <time>2021-08-03T11:35:40Z</time>
      </trkpt>
      <trkpt lat="45.53012" lon="6.74494">
        <ele>1687</ele>
        <time>2021-08-03T11:35:41Z</time>
      </trkpt>
      <trkpt lat="45.53011" lon="6.74494">
        <ele>1687.2</ele>
        <time>2021-08-03T11:35:42Z</time>
      </trkpt>
      <trkpt lat="45.5301" lon="6.74494">
        <ele>1687.3</ele>
        <time>2021-08-03T11:35:43Z</time>
      </trkpt>
      <trkpt lat="45.53008" lon="6.74493">
        <ele>1687.4</ele>
        <time>2021-08-03T11:35:44Z</time>
      </trkpt>
      <trkpt lat="45.53007" lon="6.74493">
        <ele>1687.5</ele>
        <time>2021-08-03T11:35:45Z</time>
      </trkpt>
      <trkpt lat="45.53006" lon="6.74492">
        <ele>1687.6</ele>
        <time>2021-08-03T11:35:46Z</time>
      </trkpt>
      <trkpt lat="45.53005" lon="6.74492">
        <ele>1687.7</ele>
        <time>2021-08-03T11:35:47Z</time>
      </trkpt>
      <trkpt lat="45.53003" lon="6.74491">
        <ele>1687.8</ele>
        <time>2021-08-03T11:35:48Z</time>
      </trkpt>
      <trkpt lat="45.53002" lon="6.74491">
        <ele>1687.9</ele>
        <time>2021-08-03T11:35:49Z</time>
      </trkpt>
      <trkpt lat="45.53001" lon="6.7449">
        <ele>1688.1</ele>
        <time>2021-08-03T11:35:50Z</time>
      </trkpt>
      <trkpt lat="45.53" lon="6.74489">
        <ele>1688.2</ele>
        <time>2021-08-03T11:35:51Z</time>
      </trkpt>
      <trkpt lat="45.52999" lon="6.74489">
        <ele>1688.3</ele>
        <time>2021-08-03T11:35:52Z</time>
      </trkpt>
      <trkpt lat="45.52998" lon="6.74488">
        <ele>1688.4</ele>
        <time>2021-08-03T11:35:53Z</time>
      </trkpt>
      <trkpt lat="45.52997" lon="6.74487">
        <ele>1688.5</ele>
        <time>2021-08-03T11:35:54Z</time>
      </trkpt>
      <trkpt lat="45.52996" lon="6.74486">
        <ele>1688.6</ele>
        <time>2021-08-03T11:35:55Z</time>
      </trkpt>
      <trkpt lat="45.52995" lon="6.74485">
        <ele>1688.7</ele>
        <time>2021-08-03T11:35:56Z</time>
      </trkpt>
      <trkpt lat="45.52994" lon="6.74484">
        <ele>1688.8</ele>
        <time>2021-08-03T11:35:57Z</time>
      </trkpt>
      <trkpt lat="45.52993" lon="6.74484">
        <ele>1688.9</ele>
        <time>2021-08-03T11:35:58Z</time>
      </trkpt>
      <trkpt lat="45.52992" lon="6.74483">
        <ele>1689</ele>
        <time>2021-08-03T11:35:59Z</time>
      </trkpt>
      <trkpt lat="45.52991" lon="6.74482">
        <ele>1689.1</ele>
        <time>2021-08-03T11:36:00Z</time>
      </trkpt>
      <trkpt lat="45.5299" lon="6.74481">
        <ele>1689.2</ele>
        <time>2021-08-03T11:36:01Z</time>
      </trkpt>
      <trkpt lat="45.52989" lon="6.74479">
        <ele>1689.3</ele>
        <time>2021-08-03T11:36:02Z</time>
      </trkpt>
      <trkpt lat="45.52989" lon="6.74478">
        <ele>1689.4</ele>
        <time>2021-08-03T11:36:03Z</time>
      </trkpt>
      <trkpt lat="45.52988" lon="6.74477">
        <ele>1689.6</ele>
        <time>2021-08-03T11:36:04Z</time>
      </trkpt>
      <trkpt lat="45.52987" lon="6.74476">
        <ele>1689.7</ele>
        <time>2021-08-03T11:36:05Z</time>
      </trkpt>
      <trkpt lat="45.52986" lon="6.74475">
        <ele>1689.8</ele>
        <time>2021-08-03T11:36:06Z</time>
      </trkpt>
      <trkpt lat="45.52985" lon="6.74474">
        <ele>1689.9</ele>
        <time>2021-08-03T11:36:07Z</time>
      </trkpt>
      <trkpt lat="45.52984" lon="6.74473">
        <ele>1690</ele>
        <time>2021-08-03T11:36:08Z</time>
      </trkpt>
      <trkpt lat="45.52983" lon="6.74472">
        <ele>1690.1</ele>
        <time>2021-08-03T11:36:09Z</time>
      </trkpt>
      <trkpt lat="45.52982" lon="6.74471">
        <ele>1690.2</ele>
        <time>2021-08-03T11:36:10Z</time>
      </trkpt>
      <trkpt lat="45.52981" lon="6.74469">
        <ele>1690.3</ele>
        <time>2021-08-03T11:36:11Z</time>
      </trkpt>
      <trkpt lat="45.5298" lon="6.74468">
        <ele>1690.4</ele>
        <time>2021-08-03T11:36:12Z</time>
      </trkpt>
      <trkpt lat="45.52979" lon="6.74467">
        <ele>1690.5</ele>
        <time>2021-08-03T11:36:13Z</time>
      </trkpt>
      <trkpt lat="45.52979" lon="6.74466">
        <ele>1690.6</ele>
        <time>2021-08-03T11:36:14Z</time>
      </trkpt>
      <trkpt lat="45.52978" lon="6.74465">
        <ele>1690.8</ele>
        <time>2021-08-03T11:36:15Z</time>
      </trkpt>
      <trkpt lat="45.52977" lon="6.74464">
        <ele>1690.9</ele>
        <time>2021-08-03T11:36:16Z</time>
      </trkpt>
      <trkpt lat="45.52976" lon="6.74463">
        <ele>1691</ele>
        <time>2021-08-03T11:36:17Z</time>
      </trkpt>
      <trkpt lat="45.52975" lon="6.74462">
        <ele>1691.1</ele>
        <time>2021-08-03T11:36:18Z</time>
      </trkpt>
      <trkpt lat="45.52974" lon="6.74461">
        <ele>1691.2</ele>
        <time>2021-08-03T11:36:19Z</time>
      </trkpt>
      <trkpt lat="45.52973" lon="6.7446">
        <ele>1691.3</ele>
        <time>2021-08-03T11:36:20Z</time>
      </trkpt>
      <trkpt lat="45.52972" lon="6.74459">
        <ele>1691.4</ele>
        <time>2021-08-03T11:36:21Z</time>
      </trkpt>
      <trkpt lat="45.52971" lon="6.74458">
        <ele>1691.5</ele>
        <time>2021-08-03T11:36:22Z</time>
      </trkpt>
      <trkpt lat="45.5297" lon="6.74457">
        <ele>1691.6</ele>
        <time>2021-08-03T11:36:23Z</time>
      </trkpt>
      <trkpt lat="45.52968" lon="6.74456">
        <ele>1691.7</ele>
        <time>2021-08-03T11:36:24Z</time>
      </trkpt>
      <trkpt lat="45.52967" lon="6.74455">
        <ele>1691.8</ele>
        <time>2021-08-03T11:36:25Z</time>
      </trkpt>
      <trkpt lat="45.52967" lon="6.74454">
        <ele>1691.9</ele>
        <time>2021-08-03T11:36:26Z</time>
      </trkpt>
      <trkpt lat="45.52966" lon="6.74453">
        <ele>1692</ele>
        <time>2021-08-03T11:36:27Z</time>
      </trkpt>
      <trkpt lat="45.52965" lon="6.74451">
        <ele>1692.1</ele>
        <time>2021-08-03T11:36:28Z</time>
      </trkpt>
      <trkpt lat="45.52965" lon="6.7445">
        <ele>1692.2</ele>
        <time>2021-08-03T11:36:29Z</time>
      </trkpt>
      <trkpt lat="45.52965" lon="6.74449">
        <ele>1692.3</ele>
        <time>2021-08-03T11:36:30Z</time>
      </trkpt>
      <trkpt lat="45.52964" lon="6.74448">
        <ele>1692.4</ele>
        <time>2021-08-03T11:36:31Z</time>
      </trkpt>
      <trkpt lat="45.52964" lon="6.74447">
        <ele>1692.4</ele>
        <time>2021-08-03T11:36:32Z</time>
      </trkpt>
      <trkpt lat="45.52963" lon="6.74446">
        <ele>1692.5</ele>
        <time>2021-08-03T11:36:33Z</time>
      </trkpt>
      <trkpt lat="45.52963" lon="6.74445">
        <ele>1692.6</ele>
        <time>2021-08-03T11:36:34Z</time>
      </trkpt>
      <trkpt lat="45.52962" lon="6.74443">
        <ele>1692.7</ele>
        <time>2021-08-03T11:36:35Z</time>
      </trkpt>
      <trkpt lat="45.52961" lon="6.74442">
        <ele>1692.8</ele>
        <time>2021-08-03T11:36:36Z</time>
      </trkpt>
      <trkpt lat="45.5296" lon="6.74441">
        <ele>1692.9</ele>
        <time>2021-08-03T11:36:37Z</time>
      </trkpt>
      <trkpt lat="45.52959" lon="6.7444">
        <ele>1693.1</ele>
        <time>2021-08-03T11:36:38Z</time>
      </trkpt>
      <trkpt lat="45.52958" lon="6.74439">
        <ele>1693.2</ele>
        <time>2021-08-03T11:36:39Z</time>
      </trkpt>
      <trkpt lat="45.52957" lon="6.74438">
        <ele>1693.3</ele>
        <time>2021-08-03T11:36:40Z</time>
      </trkpt>
      <trkpt lat="45.52956" lon="6.74436">
        <ele>1693.4</ele>
        <time>2021-08-03T11:36:41Z</time>
      </trkpt>
      <trkpt lat="45.52955" lon="6.74435">
        <ele>1693.5</ele>
        <time>2021-08-03T11:36:42Z</time>
      </trkpt>
      <trkpt lat="45.52954" lon="6.74434">
        <ele>1693.7</ele>
        <time>2021-08-03T11:36:43Z</time>
      </trkpt>
      <trkpt lat="45.52953" lon="6.74433">
        <ele>1693.8</ele>
        <time>2021-08-03T11:36:44Z</time>
      </trkpt>
      <trkpt lat="45.52952" lon="6.74432">
        <ele>1693.9</ele>
        <time>2021-08-03T11:36:45Z</time>
      </trkpt>
      <trkpt lat="45.52951" lon="6.7443">
        <ele>1694</ele>
        <time>2021-08-03T11:36:46Z</time>
      </trkpt>
      <trkpt lat="45.5295" lon="6.74429">
        <ele>1694.1</ele>
        <time>2021-08-03T11:36:47Z</time>
      </trkpt>
      <trkpt lat="45.52949" lon="6.74428">
        <ele>1694.2</ele>
        <time>2021-08-03T11:36:48Z</time>
      </trkpt>
      <trkpt lat="45.52948" lon="6.74427">
        <ele>1694.3</ele>
        <time>2021-08-03T11:36:49Z</time>
      </trkpt>
      <trkpt lat="45.52947" lon="6.74426">
        <ele>1694.4</ele>
        <time>2021-08-03T11:36:50Z</time>
      </trkpt>
      <trkpt lat="45.52946" lon="6.74425">
        <ele>1694.5</ele>
        <time>2021-08-03T11:36:51Z</time>
      </trkpt>
      <trkpt lat="45.52945" lon="6.74424">
        <ele>1694.6</ele>
        <time>2021-08-03T11:36:52Z</time>
      </trkpt>
      <trkpt lat="45.52944" lon="6.74422">
        <ele>1694.7</ele>
        <time>2021-08-03T11:36:53Z</time>
      </trkpt>
      <trkpt lat="45.52942" lon="6.74421">
        <ele>1694.9</ele>
        <time>2021-08-03T11:36:54Z</time>
      </trkpt>
      <trkpt lat="45.52941" lon="6.7442">
        <ele>1695</ele>
        <time>2021-08-03T11:36:55Z</time>
      </trkpt>
      <trkpt lat="45.5294" lon="6.74419">
        <ele>1695.1</ele>
        <time>2021-08-03T11:36:56Z</time>
      </trkpt>
      <trkpt lat="45.52939" lon="6.74418">
        <ele>1695.2</ele>
        <time>2021-08-03T11:36:57Z</time>
      </trkpt>
      <trkpt lat="45.52938" lon="6.74417">
        <ele>1695.3</ele>
        <time>2021-08-03T11:36:58Z</time>
      </trkpt>
      <trkpt lat="45.52937" lon="6.74416">
        <ele>1695.4</ele>
        <time>2021-08-03T11:36:59Z</time>
      </trkpt>
      <trkpt lat="45.52936" lon="6.74415">
        <ele>1695.5</ele>
        <time>2021-08-03T11:37:00Z</time>
      </trkpt>
      <trkpt lat="45.52934" lon="6.74414">
        <ele>1695.6</ele>
        <time>2021-08-03T11:37:01Z</time>
      </trkpt>
      <trkpt lat="45.52933" lon="6.74413">
        <ele>1695.7</ele>
        <time>2021-08-03T11:37:02Z</time>
      </trkpt>
      <trkpt lat="45.52932" lon="6.74412">
        <ele>1695.9</ele>
        <time>2021-08-03T11:37:03Z</time>
      </trkpt>
      <trkpt lat="45.52931" lon="6.74411">
        <ele>1696</ele>
        <time>2021-08-03T11:37:04Z</time>
      </trkpt>
      <trkpt lat="45.5293" lon="6.7441">
        <ele>1696.1</ele>
        <time>2021-08-03T11:37:05Z</time>
      </trkpt>
      <trkpt lat="45.52928" lon="6.74409">
        <ele>1696.2</ele>
        <time>2021-08-03T11:37:06Z</time>
      </trkpt>
      <trkpt lat="45.52927" lon="6.74408">
        <ele>1696.3</ele>
        <time>2021-08-03T11:37:07Z</time>
      </trkpt>
      <trkpt lat="45.52926" lon="6.74407">
        <ele>1696.4</ele>
        <time>2021-08-03T11:37:08Z</time>
      </trkpt>
      <trkpt lat="45.52925" lon="6.74406">
        <ele>1696.5</ele>
        <time>2021-08-03T11:37:09Z</time>
      </trkpt>
      <trkpt lat="45.52924" lon="6.74405">
        <ele>1696.6</ele>
        <time>2021-08-03T11:37:10Z</time>
      </trkpt>
      <trkpt lat="45.52922" lon="6.74404">
        <ele>1696.7</ele>
        <time>2021-08-03T11:37:11Z</time>
      </trkpt>
      <trkpt lat="45.52921" lon="6.74403">
        <ele>1696.8</ele>
        <time>2021-08-03T11:37:12Z</time>
      </trkpt>
      <trkpt lat="45.5292" lon="6.74402">
        <ele>1696.9</ele>
        <time>2021-08-03T11:37:13Z</time>
      </trkpt>
      <trkpt lat="45.52919" lon="6.74401">
        <ele>1697</ele>
        <time>2021-08-03T11:37:14Z</time>
      </trkpt>
      <trkpt lat="45.52918" lon="6.744">
        <ele>1697.1</ele>
        <time>2021-08-03T11:37:15Z</time>
      </trkpt>
      <trkpt lat="45.52917" lon="6.74399">
        <ele>1697.2</ele>
        <time>2021-08-03T11:37:16Z</time>
      </trkpt>
      <trkpt lat="45.52916" lon="6.74398">
        <ele>1697.3</ele>
        <time>2021-08-03T11:37:17Z</time>
      </trkpt>
      <trkpt lat="45.52915" lon="6.74397">
        <ele>1697.4</ele>
        <time>2021-08-03T11:37:18Z</time>
      </trkpt>
      <trkpt lat="45.52914" lon="6.74396">
        <ele>1697.5</ele>
        <time>2021-08-03T11:37:19Z</time>
      </trkpt>
      <trkpt lat="45.52913" lon="6.74395">
        <ele>1697.6</ele>
        <time>2021-08-03T11:37:20Z</time>
      </trkpt>
      <trkpt lat="45.52912" lon="6.74394">
        <ele>1697.7</ele>
        <time>2021-08-03T11:37:21Z</time>
      </trkpt>
      <trkpt lat="45.52911" lon="6.74393">
        <ele>1697.8</ele>
        <time>2021-08-03T11:37:22Z</time>
      </trkpt>
      <trkpt lat="45.5291" lon="6.74392">
        <ele>1697.9</ele>
        <time>2021-08-03T11:37:23Z</time>
      </trkpt>
      <trkpt lat="45.52909" lon="6.74391">
        <ele>1698</ele>
        <time>2021-08-03T11:37:24Z</time>
      </trkpt>
      <trkpt lat="45.52908" lon="6.7439">
        <ele>1698.1</ele>
        <time>2021-08-03T11:37:25Z</time>
      </trkpt>
      <trkpt lat="45.52908" lon="6.74389">
        <ele>1698.1</ele>
        <time>2021-08-03T11:37:26Z</time>
      </trkpt>
      <trkpt lat="45.52907" lon="6.74388">
        <ele>1698.2</ele>
        <time>2021-08-03T11:37:27Z</time>
      </trkpt>
      <trkpt lat="45.52906" lon="6.74387">
        <ele>1698.3</ele>
        <time>2021-08-03T11:37:28Z</time>
      </trkpt>
      <trkpt lat="45.52905" lon="6.74386">
        <ele>1698.4</ele>
        <time>2021-08-03T11:37:29Z</time>
      </trkpt>
      <trkpt lat="45.52905" lon="6.74386">
        <ele>1698.5</ele>
        <time>2021-08-03T11:37:30Z</time>
      </trkpt>
      <trkpt lat="45.52904" lon="6.74385">
        <ele>1698.6</ele>
        <time>2021-08-03T11:37:31Z</time>
      </trkpt>
      <trkpt lat="45.52903" lon="6.74384">
        <ele>1698.6</ele>
        <time>2021-08-03T11:37:32Z</time>
      </trkpt>
      <trkpt lat="45.52902" lon="6.74383">
        <ele>1698.7</ele>
        <time>2021-08-03T11:37:33Z</time>
      </trkpt>
      <trkpt lat="45.52901" lon="6.74382">
        <ele>1698.8</ele>
        <time>2021-08-03T11:37:34Z</time>
      </trkpt>
      <trkpt lat="45.52901" lon="6.74381">
        <ele>1698.9</ele>
        <time>2021-08-03T11:37:35Z</time>
      </trkpt>
      <trkpt lat="45.529" lon="6.7438">
        <ele>1699</ele>
        <time>2021-08-03T11:37:36Z</time>
      </trkpt>
      <trkpt lat="45.52899" lon="6.7438">
        <ele>1699.1</ele>
        <time>2021-08-03T11:37:37Z</time>
      </trkpt>
      <trkpt lat="45.52898" lon="6.74379">
        <ele>1699.1</ele>
        <time>2021-08-03T11:37:38Z</time>
      </trkpt>
      <trkpt lat="45.52897" lon="6.74378">
        <ele>1699.2</ele>
        <time>2021-08-03T11:37:39Z</time>
      </trkpt>
      <trkpt lat="45.52896" lon="6.74377">
        <ele>1699.3</ele>
        <time>2021-08-03T11:37:40Z</time>
      </trkpt>
      <trkpt lat="45.52896" lon="6.74377">
        <ele>1699.4</ele>
        <time>2021-08-03T11:37:41Z</time>
      </trkpt>
      <trkpt lat="45.52895" lon="6.74376">
        <ele>1699.5</ele>
        <time>2021-08-03T11:37:42Z</time>
      </trkpt>
      <trkpt lat="45.52894" lon="6.74376">
        <ele>1699.5</ele>
        <time>2021-08-03T11:37:43Z</time>
      </trkpt>
      <trkpt lat="45.52894" lon="6.74375">
        <ele>1699.6</ele>
        <time>2021-08-03T11:37:44Z</time>
      </trkpt>
      <trkpt lat="45.52893" lon="6.74375">
        <ele>1699.6</ele>
        <time>2021-08-03T11:37:45Z</time>
      </trkpt>
      <trkpt lat="45.52893" lon="6.74374">
        <ele>1699.6</ele>
        <time>2021-08-03T11:37:46Z</time>
      </trkpt>
      <trkpt lat="45.52893" lon="6.74374">
        <ele>1699.7</ele>
        <time>2021-08-03T11:37:47Z</time>
      </trkpt>
      <trkpt lat="45.52893" lon="6.74374">
        <ele>1699.7</ele>
        <time>2021-08-03T11:37:48Z</time>
      </trkpt>
      <trkpt lat="45.52893" lon="6.74374">
        <ele>1699.7</ele>
        <time>2021-08-03T11:37:49Z</time>
      </trkpt>
      <trkpt lat="45.52892" lon="6.74373">
        <ele>1699.7</ele>
        <time>2021-08-03T11:37:50Z</time>
      </trkpt>
      <trkpt lat="45.52892" lon="6.74373">
        <ele>1699.8</ele>
        <time>2021-08-03T11:37:51Z</time>
      </trkpt>
      <trkpt lat="45.52891" lon="6.74372">
        <ele>1699.8</ele>
        <time>2021-08-03T11:37:52Z</time>
      </trkpt>
      <trkpt lat="45.52891" lon="6.74371">
        <ele>1699.9</ele>
        <time>2021-08-03T11:37:53Z</time>
      </trkpt>
      <trkpt lat="45.5289" lon="6.7437">
        <ele>1700</ele>
        <time>2021-08-03T11:37:54Z</time>
      </trkpt>
      <trkpt lat="45.52889" lon="6.74369">
        <ele>1700.1</ele>
        <time>2021-08-03T11:37:55Z</time>
      </trkpt>
      <trkpt lat="45.52889" lon="6.74368">
        <ele>1700.1</ele>
        <time>2021-08-03T11:37:56Z</time>
      </trkpt>
      <trkpt lat="45.52888" lon="6.74368">
        <ele>1700.2</ele>
        <time>2021-08-03T11:37:57Z</time>
      </trkpt>
      <trkpt lat="45.52888" lon="6.74368">
        <ele>1700.2</ele>
        <time>2021-08-03T11:37:58Z</time>
      </trkpt>
      <trkpt lat="45.52888" lon="6.74368">
        <ele>1700.2</ele>
        <time>2021-08-03T11:37:59Z</time>
      </trkpt>
      <trkpt lat="45.52888" lon="6.74367">
        <ele>1700.2</ele>
        <time>2021-08-03T11:38:00Z</time>
      </trkpt>
      <trkpt lat="45.52887" lon="6.74367">
        <ele>1700.3</ele>
        <time>2021-08-03T11:38:01Z</time>
      </trkpt>
      <trkpt lat="45.52887" lon="6.74366">
        <ele>1700.3</ele>
        <time>2021-08-03T11:38:02Z</time>
      </trkpt>
      <trkpt lat="45.52886" lon="6.74366">
        <ele>1700.4</ele>
        <time>2021-08-03T11:38:03Z</time>
      </trkpt>
      <trkpt lat="45.52886" lon="6.74365">
        <ele>1700.5</ele>
        <time>2021-08-03T11:38:04Z</time>
      </trkpt>
      <trkpt lat="45.52885" lon="6.74364">
        <ele>1700.5</ele>
        <time>2021-08-03T11:38:05Z</time>
      </trkpt>
      <trkpt lat="45.52884" lon="6.74363">
        <ele>1700.6</ele>
        <time>2021-08-03T11:38:06Z</time>
      </trkpt>
      <trkpt lat="45.52883" lon="6.74362">
        <ele>1700.7</ele>
        <time>2021-08-03T11:38:07Z</time>
      </trkpt>
      <trkpt lat="45.52882" lon="6.74361">
        <ele>1700.8</ele>
        <time>2021-08-03T11:38:08Z</time>
      </trkpt>
      <trkpt lat="45.52881" lon="6.7436">
        <ele>1701</ele>
        <time>2021-08-03T11:38:09Z</time>
      </trkpt>
      <trkpt lat="45.5288" lon="6.74359">
        <ele>1701.1</ele>
        <time>2021-08-03T11:38:10Z</time>
      </trkpt>
      <trkpt lat="45.52879" lon="6.74358">
        <ele>1701.2</ele>
        <time>2021-08-03T11:38:11Z</time>
      </trkpt>
      <trkpt lat="45.52877" lon="6.74357">
        <ele>1701.3</ele>
        <time>2021-08-03T11:38:12Z</time>
      </trkpt>
      <trkpt lat="45.52876" lon="6.74356">
        <ele>1701.4</ele>
        <time>2021-08-03T11:38:13Z</time>
      </trkpt>
      <trkpt lat="45.52875" lon="6.74355">
        <ele>1701.5</ele>
        <time>2021-08-03T11:38:14Z</time>
      </trkpt>
      <trkpt lat="45.52874" lon="6.74353">
        <ele>1701.6</ele>
        <time>2021-08-03T11:38:15Z</time>
      </trkpt>
      <trkpt lat="45.52873" lon="6.74352">
        <ele>1701.7</ele>
        <time>2021-08-03T11:38:16Z</time>
      </trkpt>
      <trkpt lat="45.52871" lon="6.74351">
        <ele>1701.8</ele>
        <time>2021-08-03T11:38:17Z</time>
      </trkpt>
      <trkpt lat="45.5287" lon="6.7435">
        <ele>1701.9</ele>
        <time>2021-08-03T11:38:18Z</time>
      </trkpt>
      <trkpt lat="45.52869" lon="6.74349">
        <ele>1702</ele>
        <time>2021-08-03T11:38:19Z</time>
      </trkpt>
      <trkpt lat="45.52868" lon="6.74348">
        <ele>1702.1</ele>
        <time>2021-08-03T11:38:20Z</time>
      </trkpt>
      <trkpt lat="45.52866" lon="6.74347">
        <ele>1702.2</ele>
        <time>2021-08-03T11:38:21Z</time>
      </trkpt>
      <trkpt lat="45.52865" lon="6.74346">
        <ele>1702.4</ele>
        <time>2021-08-03T11:38:22Z</time>
      </trkpt>
      <trkpt lat="45.52864" lon="6.74344">
        <ele>1702.5</ele>
        <time>2021-08-03T11:38:23Z</time>
      </trkpt>
      <trkpt lat="45.52863" lon="6.74343">
        <ele>1702.6</ele>
        <time>2021-08-03T11:38:24Z</time>
      </trkpt>
      <trkpt lat="45.52862" lon="6.74342">
        <ele>1702.7</ele>
        <time>2021-08-03T11:38:25Z</time>
      </trkpt>
      <trkpt lat="45.5286" lon="6.74341">
        <ele>1702.8</ele>
        <time>2021-08-03T11:38:26Z</time>
      </trkpt>
      <trkpt lat="45.52859" lon="6.7434">
        <ele>1702.9</ele>
        <time>2021-08-03T11:38:27Z</time>
      </trkpt>
      <trkpt lat="45.52858" lon="6.74339">
        <ele>1703</ele>
        <time>2021-08-03T11:38:28Z</time>
      </trkpt>
      <trkpt lat="45.52857" lon="6.74338">
        <ele>1703.1</ele>
        <time>2021-08-03T11:38:29Z</time>
      </trkpt>
      <trkpt lat="45.52856" lon="6.74337">
        <ele>1703.2</ele>
        <time>2021-08-03T11:38:30Z</time>
      </trkpt>
      <trkpt lat="45.52855" lon="6.74336">
        <ele>1703.3</ele>
        <time>2021-08-03T11:38:31Z</time>
      </trkpt>
      <trkpt lat="45.52854" lon="6.74334">
        <ele>1703.4</ele>
        <time>2021-08-03T11:38:32Z</time>
      </trkpt>
      <trkpt lat="45.52853" lon="6.74333">
        <ele>1703.5</ele>
        <time>2021-08-03T11:38:33Z</time>
      </trkpt>
      <trkpt lat="45.52852" lon="6.74332">
        <ele>1703.6</ele>
        <time>2021-08-03T11:38:34Z</time>
      </trkpt>
      <trkpt lat="45.52851" lon="6.74331">
        <ele>1703.7</ele>
        <time>2021-08-03T11:38:35Z</time>
      </trkpt>
      <trkpt lat="45.5285" lon="6.7433">
        <ele>1703.8</ele>
        <time>2021-08-03T11:38:36Z</time>
      </trkpt>
      <trkpt lat="45.52849" lon="6.74329">
        <ele>1703.9</ele>
        <time>2021-08-03T11:38:37Z</time>
      </trkpt>
      <trkpt lat="45.52848" lon="6.74328">
        <ele>1704</ele>
        <time>2021-08-03T11:38:38Z</time>
      </trkpt>
      <trkpt lat="45.52847" lon="6.74327">
        <ele>1704.1</ele>
        <time>2021-08-03T11:38:39Z</time>
      </trkpt>
      <trkpt lat="45.52846" lon="6.74326">
        <ele>1704.2</ele>
        <time>2021-08-03T11:38:40Z</time>
      </trkpt>
      <trkpt lat="45.52845" lon="6.74325">
        <ele>1704.3</ele>
        <time>2021-08-03T11:38:41Z</time>
      </trkpt>
      <trkpt lat="45.52844" lon="6.74324">
        <ele>1704.4</ele>
        <time>2021-08-03T11:38:42Z</time>
      </trkpt>
      <trkpt lat="45.52843" lon="6.74323">
        <ele>1704.5</ele>
        <time>2021-08-03T11:38:43Z</time>
      </trkpt>
      <trkpt lat="45.52842" lon="6.74322">
        <ele>1704.6</ele>
        <time>2021-08-03T11:38:44Z</time>
      </trkpt>
      <trkpt lat="45.52841" lon="6.74321">
        <ele>1704.7</ele>
        <time>2021-08-03T11:38:45Z</time>
      </trkpt>
      <trkpt lat="45.5284" lon="6.7432">
        <ele>1704.8</ele>
        <time>2021-08-03T11:38:46Z</time>
      </trkpt>
      <trkpt lat="45.52839" lon="6.74319">
        <ele>1704.9</ele>
        <time>2021-08-03T11:38:47Z</time>
      </trkpt>
      <trkpt lat="45.52838" lon="6.74318">
        <ele>1705</ele>
        <time>2021-08-03T11:38:48Z</time>
      </trkpt>
      <trkpt lat="45.52837" lon="6.74317">
        <ele>1705.1</ele>
        <time>2021-08-03T11:38:49Z</time>
      </trkpt>
      <trkpt lat="45.52836" lon="6.74316">
        <ele>1705.1</ele>
        <time>2021-08-03T11:38:50Z</time>
      </trkpt>
      <trkpt lat="45.52835" lon="6.74315">
        <ele>1705.2</ele>
        <time>2021-08-03T11:38:51Z</time>
      </trkpt>
      <trkpt lat="45.52834" lon="6.74314">
        <ele>1705.3</ele>
        <time>2021-08-03T11:38:52Z</time>
      </trkpt>
      <trkpt lat="45.52833" lon="6.74313">
        <ele>1705.4</ele>
        <time>2021-08-03T11:38:53Z</time>
      </trkpt>
      <trkpt lat="45.52832" lon="6.74312">
        <ele>1705.5</ele>
        <time>2021-08-03T11:38:54Z</time>
      </trkpt>
      <trkpt lat="45.52831" lon="6.74311">
        <ele>1705.6</ele>
        <time>2021-08-03T11:38:55Z</time>
      </trkpt>
      <trkpt lat="45.5283" lon="6.7431">
        <ele>1705.7</ele>
        <time>2021-08-03T11:38:56Z</time>
      </trkpt>
      <trkpt lat="45.52829" lon="6.7431">
        <ele>1705.8</ele>
        <time>2021-08-03T11:38:57Z</time>
      </trkpt>
      <trkpt lat="45.52828" lon="6.74309">
        <ele>1705.9</ele>
        <time>2021-08-03T11:38:58Z</time>
      </trkpt>
      <trkpt lat="45.52827" lon="6.74308">
        <ele>1706</ele>
        <time>2021-08-03T11:38:59Z</time>
      </trkpt>
      <trkpt lat="45.52826" lon="6.74308">
        <ele>1706.1</ele>
        <time>2021-08-03T11:39:00Z</time>
      </trkpt>
      <trkpt lat="45.52825" lon="6.74307">
        <ele>1706.1</ele>
        <time>2021-08-03T11:39:01Z</time>
      </trkpt>
      <trkpt lat="45.52824" lon="6.74306">
        <ele>1706.2</ele>
        <time>2021-08-03T11:39:02Z</time>
      </trkpt>
      <trkpt lat="45.52823" lon="6.74305">
        <ele>1706.3</ele>
        <time>2021-08-03T11:39:03Z</time>
      </trkpt>
      <trkpt lat="45.52822" lon="6.74305">
        <ele>1706.4</ele>
        <time>2021-08-03T11:39:04Z</time>
      </trkpt>
      <trkpt lat="45.52821" lon="6.74304">
        <ele>1706.5</ele>
        <time>2021-08-03T11:39:05Z</time>
      </trkpt>
      <trkpt lat="45.5282" lon="6.74303">
        <ele>1706.6</ele>
        <time>2021-08-03T11:39:06Z</time>
      </trkpt>
      <trkpt lat="45.52819" lon="6.74303">
        <ele>1706.7</ele>
        <time>2021-08-03T11:39:07Z</time>
      </trkpt>
      <trkpt lat="45.52818" lon="6.74302">
        <ele>1706.8</ele>
        <time>2021-08-03T11:39:08Z</time>
      </trkpt>
      <trkpt lat="45.52817" lon="6.74301">
        <ele>1706.9</ele>
        <time>2021-08-03T11:39:09Z</time>
      </trkpt>
      <trkpt lat="45.52816" lon="6.74301">
        <ele>1707</ele>
        <time>2021-08-03T11:39:10Z</time>
      </trkpt>
      <trkpt lat="45.52815" lon="6.743">
        <ele>1707.1</ele>
        <time>2021-08-03T11:39:11Z</time>
      </trkpt>
      <trkpt lat="45.52814" lon="6.74299">
        <ele>1707.2</ele>
        <time>2021-08-03T11:39:12Z</time>
      </trkpt>
      <trkpt lat="45.52813" lon="6.74299">
        <ele>1707.3</ele>
        <time>2021-08-03T11:39:13Z</time>
      </trkpt>
      <trkpt lat="45.52812" lon="6.74298">
        <ele>1707.3</ele>
        <time>2021-08-03T11:39:14Z</time>
      </trkpt>
      <trkpt lat="45.52811" lon="6.74298">
        <ele>1707.4</ele>
        <time>2021-08-03T11:39:15Z</time>
      </trkpt>
      <trkpt lat="45.52809" lon="6.74297">
        <ele>1707.5</ele>
        <time>2021-08-03T11:39:16Z</time>
      </trkpt>
      <trkpt lat="45.52808" lon="6.74297">
        <ele>1707.6</ele>
        <time>2021-08-03T11:39:17Z</time>
      </trkpt>
      <trkpt lat="45.52807" lon="6.74296">
        <ele>1707.7</ele>
        <time>2021-08-03T11:39:18Z</time>
      </trkpt>
      <trkpt lat="45.52806" lon="6.74296">
        <ele>1707.8</ele>
        <time>2021-08-03T11:39:19Z</time>
      </trkpt>
      <trkpt lat="45.52805" lon="6.74295">
        <ele>1707.9</ele>
        <time>2021-08-03T11:39:20Z</time>
      </trkpt>
      <trkpt lat="45.52804" lon="6.74295">
        <ele>1708</ele>
        <time>2021-08-03T11:39:21Z</time>
      </trkpt>
      <trkpt lat="45.52803" lon="6.74294">
        <ele>1708.1</ele>
        <time>2021-08-03T11:39:22Z</time>
      </trkpt>
      <trkpt lat="45.52802" lon="6.74294">
        <ele>1708.2</ele>
        <time>2021-08-03T11:39:23Z</time>
      </trkpt>
      <trkpt lat="45.52801" lon="6.74293">
        <ele>1708.3</ele>
        <time>2021-08-03T11:39:24Z</time>
      </trkpt>
      <trkpt lat="45.528" lon="6.74292">
        <ele>1708.4</ele>
        <time>2021-08-03T11:39:25Z</time>
      </trkpt>
      <trkpt lat="45.52799" lon="6.74292">
        <ele>1708.5</ele>
        <time>2021-08-03T11:39:26Z</time>
      </trkpt>
      <trkpt lat="45.52797" lon="6.74291">
        <ele>1708.6</ele>
        <time>2021-08-03T11:39:27Z</time>
      </trkpt>
      <trkpt lat="45.52796" lon="6.74291">
        <ele>1708.7</ele>
        <time>2021-08-03T11:39:28Z</time>
      </trkpt>
      <trkpt lat="45.52795" lon="6.7429">
        <ele>1708.8</ele>
        <time>2021-08-03T11:39:29Z</time>
      </trkpt>
      <trkpt lat="45.52794" lon="6.7429">
        <ele>1708.9</ele>
        <time>2021-08-03T11:39:30Z</time>
      </trkpt>
      <trkpt lat="45.52793" lon="6.74289">
        <ele>1709</ele>
        <time>2021-08-03T11:39:31Z</time>
      </trkpt>
      <trkpt lat="45.52792" lon="6.74289">
        <ele>1709.1</ele>
        <time>2021-08-03T11:39:32Z</time>
      </trkpt>
      <trkpt lat="45.5279" lon="6.74288">
        <ele>1709.2</ele>
        <time>2021-08-03T11:39:33Z</time>
      </trkpt>
      <trkpt lat="45.52789" lon="6.74287">
        <ele>1709.3</ele>
        <time>2021-08-03T11:39:34Z</time>
      </trkpt>
      <trkpt lat="45.52788" lon="6.74287">
        <ele>1709.4</ele>
        <time>2021-08-03T11:39:35Z</time>
      </trkpt>
      <trkpt lat="45.52787" lon="6.74286">
        <ele>1709.5</ele>
        <time>2021-08-03T11:39:36Z</time>
      </trkpt>
      <trkpt lat="45.52785" lon="6.74285">
        <ele>1709.6</ele>
        <time>2021-08-03T11:39:37Z</time>
      </trkpt>
      <trkpt lat="45.52784" lon="6.74285">
        <ele>1709.7</ele>
        <time>2021-08-03T11:39:38Z</time>
      </trkpt>
      <trkpt lat="45.52783" lon="6.74284">
        <ele>1709.9</ele>
        <time>2021-08-03T11:39:39Z</time>
      </trkpt>
      <trkpt lat="45.52782" lon="6.74283">
        <ele>1710</ele>
        <time>2021-08-03T11:39:40Z</time>
      </trkpt>
      <trkpt lat="45.5278" lon="6.74283">
        <ele>1710.1</ele>
        <time>2021-08-03T11:39:41Z</time>
      </trkpt>
      <trkpt lat="45.52779" lon="6.74282">
        <ele>1710.2</ele>
        <time>2021-08-03T11:39:42Z</time>
      </trkpt>
      <trkpt lat="45.52778" lon="6.74281">
        <ele>1710.4</ele>
        <time>2021-08-03T11:39:43Z</time>
      </trkpt>
      <trkpt lat="45.52776" lon="6.74281">
        <ele>1710.5</ele>
        <time>2021-08-03T11:39:44Z</time>
      </trkpt>
      <trkpt lat="45.52775" lon="6.7428">
        <ele>1710.6</ele>
        <time>2021-08-03T11:39:45Z</time>
      </trkpt>
      <trkpt lat="45.52774" lon="6.7428">
        <ele>1710.8</ele>
        <time>2021-08-03T11:39:46Z</time>
      </trkpt>
      <trkpt lat="45.52773" lon="6.74279">
        <ele>1710.9</ele>
        <time>2021-08-03T11:39:47Z</time>
      </trkpt>
      <trkpt lat="45.52771" lon="6.74278">
        <ele>1711</ele>
        <time>2021-08-03T11:39:48Z</time>
      </trkpt>
      <trkpt lat="45.5277" lon="6.74278">
        <ele>1711.1</ele>
        <time>2021-08-03T11:39:49Z</time>
      </trkpt>
      <trkpt lat="45.52769" lon="6.74277">
        <ele>1711.3</ele>
        <time>2021-08-03T11:39:50Z</time>
      </trkpt>
      <trkpt lat="45.52767" lon="6.74276">
        <ele>1711.4</ele>
        <time>2021-08-03T11:39:51Z</time>
      </trkpt>
      <trkpt lat="45.52766" lon="6.74276">
        <ele>1711.5</ele>
        <time>2021-08-03T11:39:52Z</time>
      </trkpt>
      <trkpt lat="45.52765" lon="6.74275">
        <ele>1711.6</ele>
        <time>2021-08-03T11:39:53Z</time>
      </trkpt>
      <trkpt lat="45.52764" lon="6.74275">
        <ele>1711.7</ele>
        <time>2021-08-03T11:39:54Z</time>
      </trkpt>
      <trkpt lat="45.52763" lon="6.74274">
        <ele>1711.8</ele>
        <time>2021-08-03T11:39:55Z</time>
      </trkpt>
      <trkpt lat="45.52761" lon="6.74274">
        <ele>1711.9</ele>
        <time>2021-08-03T11:39:56Z</time>
      </trkpt>
      <trkpt lat="45.5276" lon="6.74273">
        <ele>1712</ele>
        <time>2021-08-03T11:39:57Z</time>
      </trkpt>
      <trkpt lat="45.52759" lon="6.74273">
        <ele>1712.1</ele>
        <time>2021-08-03T11:39:58Z</time>
      </trkpt>
      <trkpt lat="45.52758" lon="6.74273">
        <ele>1712.2</ele>
        <time>2021-08-03T11:39:59Z</time>
      </trkpt>
      <trkpt lat="45.52757" lon="6.74272">
        <ele>1712.3</ele>
        <time>2021-08-03T11:40:00Z</time>
      </trkpt>
      <trkpt lat="45.52756" lon="6.74272">
        <ele>1712.4</ele>
        <time>2021-08-03T11:40:01Z</time>
      </trkpt>
      <trkpt lat="45.52755" lon="6.74272">
        <ele>1712.5</ele>
        <time>2021-08-03T11:40:02Z</time>
      </trkpt>
      <trkpt lat="45.52754" lon="6.74271">
        <ele>1712.6</ele>
        <time>2021-08-03T11:40:03Z</time>
      </trkpt>
      <trkpt lat="45.52753" lon="6.74271">
        <ele>1712.6</ele>
        <time>2021-08-03T11:40:04Z</time>
      </trkpt>
      <trkpt lat="45.52752" lon="6.74271">
        <ele>1712.7</ele>
        <time>2021-08-03T11:40:05Z</time>
      </trkpt>
      <trkpt lat="45.52751" lon="6.7427">
        <ele>1712.8</ele>
        <time>2021-08-03T11:40:06Z</time>
      </trkpt>
      <trkpt lat="45.5275" lon="6.74269">
        <ele>1712.9</ele>
        <time>2021-08-03T11:40:07Z</time>
      </trkpt>
      <trkpt lat="45.52749" lon="6.74269">
        <ele>1713</ele>
        <time>2021-08-03T11:40:08Z</time>
      </trkpt>
      <trkpt lat="45.52748" lon="6.74268">
        <ele>1713.2</ele>
        <time>2021-08-03T11:40:09Z</time>
      </trkpt>
      <trkpt lat="45.52746" lon="6.74267">
        <ele>1713.3</ele>
        <time>2021-08-03T11:40:10Z</time>
      </trkpt>
      <trkpt lat="45.52745" lon="6.74266">
        <ele>1713.4</ele>
        <time>2021-08-03T11:40:11Z</time>
      </trkpt>
      <trkpt lat="45.52744" lon="6.74265">
        <ele>1713.5</ele>
        <time>2021-08-03T11:40:12Z</time>
      </trkpt>
      <trkpt lat="45.52742" lon="6.74265">
        <ele>1713.7</ele>
        <time>2021-08-03T11:40:13Z</time>
      </trkpt>
      <trkpt lat="45.52741" lon="6.74264">
        <ele>1713.8</ele>
        <time>2021-08-03T11:40:14Z</time>
      </trkpt>
      <trkpt lat="45.5274" lon="6.74263">
        <ele>1713.9</ele>
        <time>2021-08-03T11:40:15Z</time>
      </trkpt>
      <trkpt lat="45.52739" lon="6.74262">
        <ele>1714.1</ele>
        <time>2021-08-03T11:40:16Z</time>
      </trkpt>
      <trkpt lat="45.52737" lon="6.74261">
        <ele>1714.2</ele>
        <time>2021-08-03T11:40:17Z</time>
      </trkpt>
      <trkpt lat="45.52736" lon="6.74261">
        <ele>1714.3</ele>
        <time>2021-08-03T11:40:18Z</time>
      </trkpt>
      <trkpt lat="45.52735" lon="6.7426">
        <ele>1714.4</ele>
        <time>2021-08-03T11:40:19Z</time>
      </trkpt>
      <trkpt lat="45.52734" lon="6.74259">
        <ele>1714.5</ele>
        <time>2021-08-03T11:40:20Z</time>
      </trkpt>
      <trkpt lat="45.52733" lon="6.74259">
        <ele>1714.6</ele>
        <time>2021-08-03T11:40:21Z</time>
      </trkpt>
      <trkpt lat="45.52732" lon="6.74258">
        <ele>1714.7</ele>
        <time>2021-08-03T11:40:22Z</time>
      </trkpt>
      <trkpt lat="45.52731" lon="6.74257">
        <ele>1714.8</ele>
        <time>2021-08-03T11:40:23Z</time>
      </trkpt>
      <trkpt lat="45.5273" lon="6.74257">
        <ele>1714.9</ele>
        <time>2021-08-03T11:40:24Z</time>
      </trkpt>
      <trkpt lat="45.52729" lon="6.74256">
        <ele>1715.1</ele>
        <time>2021-08-03T11:40:25Z</time>
      </trkpt>
      <trkpt lat="45.52728" lon="6.74256">
        <ele>1715.2</ele>
        <time>2021-08-03T11:40:26Z</time>
      </trkpt>
      <trkpt lat="45.52727" lon="6.74255">
        <ele>1715.3</ele>
        <time>2021-08-03T11:40:27Z</time>
      </trkpt>
      <trkpt lat="45.52726" lon="6.74254">
        <ele>1715.4</ele>
        <time>2021-08-03T11:40:28Z</time>
      </trkpt>
      <trkpt lat="45.52725" lon="6.74254">
        <ele>1715.5</ele>
        <time>2021-08-03T11:40:29Z</time>
      </trkpt>
      <trkpt lat="45.52724" lon="6.74254">
        <ele>1715.6</ele>
        <time>2021-08-03T11:40:30Z</time>
      </trkpt>
      <trkpt lat="45.52723" lon="6.74254">
        <ele>1715.7</ele>
        <time>2021-08-03T11:40:31Z</time>
      </trkpt>
      <trkpt lat="45.52722" lon="6.74254">
        <ele>1715.8</ele>
        <time>2021-08-03T11:40:32Z</time>
      </trkpt>
      <trkpt lat="45.52721" lon="6.74255">
        <ele>1715.9</ele>
        <time>2021-08-03T11:40:33Z</time>
      </trkpt>
      <trkpt lat="45.5272" lon="6.74255">
        <ele>1716</ele>
        <time>2021-08-03T11:40:34Z</time>
      </trkpt>
      <trkpt lat="45.52719" lon="6.74256">
        <ele>1716</ele>
        <time>2021-08-03T11:40:35Z</time>
      </trkpt>
      <trkpt lat="45.52718" lon="6.74257">
        <ele>1716.1</ele>
        <time>2021-08-03T11:40:36Z</time>
      </trkpt>
      <trkpt lat="45.52718" lon="6.74258">
        <ele>1716.2</ele>
        <time>2021-08-03T11:40:37Z</time>
      </trkpt>
      <trkpt lat="45.52717" lon="6.7426">
        <ele>1716.3</ele>
        <time>2021-08-03T11:40:38Z</time>
      </trkpt>
      <trkpt lat="45.52717" lon="6.74261">
        <ele>1716.4</ele>
        <time>2021-08-03T11:40:39Z</time>
      </trkpt>
      <trkpt lat="45.52717" lon="6.74262">
        <ele>1716.4</ele>
        <time>2021-08-03T11:40:40Z</time>
      </trkpt>
      <trkpt lat="45.52718" lon="6.74264">
        <ele>1716.5</ele>
        <time>2021-08-03T11:40:41Z</time>
      </trkpt>
      <trkpt lat="45.52718" lon="6.74265">
        <ele>1716.6</ele>
        <time>2021-08-03T11:40:42Z</time>
      </trkpt>
      <trkpt lat="45.52719" lon="6.74267">
        <ele>1716.7</ele>
        <time>2021-08-03T11:40:43Z</time>
      </trkpt>
      <trkpt lat="45.52719" lon="6.74268">
        <ele>1716.8</ele>
        <time>2021-08-03T11:40:44Z</time>
      </trkpt>
      <trkpt lat="45.5272" lon="6.74269">
        <ele>1716.9</ele>
        <time>2021-08-03T11:40:45Z</time>
      </trkpt>
      <trkpt lat="45.52721" lon="6.74271">
        <ele>1717</ele>
        <time>2021-08-03T11:40:46Z</time>
      </trkpt>
      <trkpt lat="45.52722" lon="6.74272">
        <ele>1717.1</ele>
        <time>2021-08-03T11:40:47Z</time>
      </trkpt>
      <trkpt lat="45.52723" lon="6.74273">
        <ele>1717.1</ele>
        <time>2021-08-03T11:40:48Z</time>
      </trkpt>
      <trkpt lat="45.52724" lon="6.74274">
        <ele>1717.2</ele>
        <time>2021-08-03T11:40:49Z</time>
      </trkpt>
      <trkpt lat="45.52725" lon="6.74275">
        <ele>1717.3</ele>
        <time>2021-08-03T11:40:50Z</time>
      </trkpt>
      <trkpt lat="45.52726" lon="6.74277">
        <ele>1717.4</ele>
        <time>2021-08-03T11:40:51Z</time>
      </trkpt>
      <trkpt lat="45.52727" lon="6.74278">
        <ele>1717.5</ele>
        <time>2021-08-03T11:40:52Z</time>
      </trkpt>
      <trkpt lat="45.52728" lon="6.74279">
        <ele>1717.5</ele>
        <time>2021-08-03T11:40:53Z</time>
      </trkpt>
      <trkpt lat="45.52729" lon="6.7428">
        <ele>1717.6</ele>
        <time>2021-08-03T11:40:54Z</time>
      </trkpt>
      <trkpt lat="45.5273" lon="6.74281">
        <ele>1717.7</ele>
        <time>2021-08-03T11:40:55Z</time>
      </trkpt>
      <trkpt lat="45.5273" lon="6.74282">
        <ele>1717.7</ele>
        <time>2021-08-03T11:40:56Z</time>
      </trkpt>
      <trkpt lat="45.52731" lon="6.74283">
        <ele>1717.8</ele>
        <time>2021-08-03T11:40:57Z</time>
      </trkpt>
      <trkpt lat="45.52732" lon="6.74285">
        <ele>1717.9</ele>
        <time>2021-08-03T11:40:58Z</time>
      </trkpt>
      <trkpt lat="45.52733" lon="6.74286">
        <ele>1717.9</ele>
        <time>2021-08-03T11:40:59Z</time>
      </trkpt>
      <trkpt lat="45.52734" lon="6.74287">
        <ele>1718</ele>
        <time>2021-08-03T11:41:00Z</time>
      </trkpt>
      <trkpt lat="45.52735" lon="6.74288">
        <ele>1718</ele>
        <time>2021-08-03T11:41:01Z</time>
      </trkpt>
      <trkpt lat="45.52735" lon="6.7429">
        <ele>1718.1</ele>
        <time>2021-08-03T11:41:02Z</time>
      </trkpt>
      <trkpt lat="45.52736" lon="6.74291">
        <ele>1718.2</ele>
        <time>2021-08-03T11:41:03Z</time>
      </trkpt>
      <trkpt lat="45.52737" lon="6.74292">
        <ele>1718.2</ele>
        <time>2021-08-03T11:41:04Z</time>
      </trkpt>
      <trkpt lat="45.52738" lon="6.74294">
        <ele>1718.3</ele>
        <time>2021-08-03T11:41:05Z</time>
      </trkpt>
      <trkpt lat="45.52738" lon="6.74295">
        <ele>1718.4</ele>
        <time>2021-08-03T11:41:06Z</time>
      </trkpt>
      <trkpt lat="45.52739" lon="6.74297">
        <ele>1718.4</ele>
        <time>2021-08-03T11:41:07Z</time>
      </trkpt>
      <trkpt lat="45.5274" lon="6.74298">
        <ele>1718.5</ele>
        <time>2021-08-03T11:41:08Z</time>
      </trkpt>
      <trkpt lat="45.52741" lon="6.74299">
        <ele>1718.5</ele>
        <time>2021-08-03T11:41:09Z</time>
      </trkpt>
      <trkpt lat="45.52741" lon="6.74301">
        <ele>1718.6</ele>
        <time>2021-08-03T11:41:10Z</time>
      </trkpt>
      <trkpt lat="45.52742" lon="6.74302">
        <ele>1718.7</ele>
        <time>2021-08-03T11:41:11Z</time>
      </trkpt>
      <trkpt lat="45.52743" lon="6.74303">
        <ele>1718.7</ele>
        <time>2021-08-03T11:41:12Z</time>
      </trkpt>
      <trkpt lat="45.52744" lon="6.74304">
        <ele>1718.8</ele>
        <time>2021-08-03T11:41:13Z</time>
      </trkpt>
      <trkpt lat="45.52744" lon="6.74306">
        <ele>1718.8</ele>
        <time>2021-08-03T11:41:14Z</time>
      </trkpt>
      <trkpt lat="45.52745" lon="6.74307">
        <ele>1718.9</ele>
        <time>2021-08-03T11:41:15Z</time>
      </trkpt>
      <trkpt lat="45.52746" lon="6.74308">
        <ele>1719</ele>
        <time>2021-08-03T11:41:16Z</time>
      </trkpt>
      <trkpt lat="45.52746" lon="6.74309">
        <ele>1719</ele>
        <time>2021-08-03T11:41:17Z</time>
      </trkpt>
      <trkpt lat="45.52747" lon="6.74311">
        <ele>1719.1</ele>
        <time>2021-08-03T11:41:18Z</time>
      </trkpt>
      <trkpt lat="45.52747" lon="6.74312">
        <ele>1719.1</ele>
        <time>2021-08-03T11:41:19Z</time>
      </trkpt>
      <trkpt lat="45.52748" lon="6.74314">
        <ele>1719.2</ele>
        <time>2021-08-03T11:41:20Z</time>
      </trkpt>
      <trkpt lat="45.52748" lon="6.74315">
        <ele>1719.3</ele>
        <time>2021-08-03T11:41:21Z</time>
      </trkpt>
      <trkpt lat="45.52749" lon="6.74317">
        <ele>1719.3</ele>
        <time>2021-08-03T11:41:22Z</time>
      </trkpt>
      <trkpt lat="45.52749" lon="6.74318">
        <ele>1719.4</ele>
        <time>2021-08-03T11:41:23Z</time>
      </trkpt>
      <trkpt lat="45.5275" lon="6.7432">
        <ele>1719.5</ele>
        <time>2021-08-03T11:41:24Z</time>
      </trkpt>
      <trkpt lat="45.52751" lon="6.74321">
        <ele>1719.6</ele>
        <time>2021-08-03T11:41:25Z</time>
      </trkpt>
      <trkpt lat="45.52751" lon="6.74322">
        <ele>1719.6</ele>
        <time>2021-08-03T11:41:26Z</time>
      </trkpt>
      <trkpt lat="45.52752" lon="6.74324">
        <ele>1719.7</ele>
        <time>2021-08-03T11:41:27Z</time>
      </trkpt>
      <trkpt lat="45.52753" lon="6.74325">
        <ele>1719.8</ele>
        <time>2021-08-03T11:41:28Z</time>
      </trkpt>
      <trkpt lat="45.52753" lon="6.74326">
        <ele>1719.9</ele>
        <time>2021-08-03T11:41:29Z</time>
      </trkpt>
      <trkpt lat="45.52754" lon="6.74327">
        <ele>1719.9</ele>
        <time>2021-08-03T11:41:30Z</time>
      </trkpt>
      <trkpt lat="45.52754" lon="6.74328">
        <ele>1720</ele>
        <time>2021-08-03T11:41:31Z</time>
      </trkpt>
      <trkpt lat="45.52754" lon="6.74329">
        <ele>1720</ele>
        <time>2021-08-03T11:41:32Z</time>
      </trkpt>
      <trkpt lat="45.52754" lon="6.7433">
        <ele>1720.1</ele>
        <time>2021-08-03T11:41:33Z</time>
      </trkpt>
      <trkpt lat="45.52754" lon="6.7433">
        <ele>1720.1</ele>
        <time>2021-08-03T11:41:34Z</time>
      </trkpt>
      <trkpt lat="45.52754" lon="6.7433">
        <ele>1720.1</ele>
        <time>2021-08-03T11:41:35Z</time>
      </trkpt>
      <trkpt lat="45.52754" lon="6.74329">
        <ele>1720.1</ele>
        <time>2021-08-03T11:41:36Z</time>
      </trkpt>
      <trkpt lat="45.52754" lon="6.74328">
        <ele>1720.2</ele>
        <time>2021-08-03T11:41:37Z</time>
      </trkpt>
      <trkpt lat="45.52754" lon="6.74327">
        <ele>1720.2</ele>
        <time>2021-08-03T11:41:38Z</time>
      </trkpt>
      <trkpt lat="45.52754" lon="6.74327">
        <ele>1720.2</ele>
        <time>2021-08-03T11:41:39Z</time>
      </trkpt>
      <trkpt lat="45.52754" lon="6.74327">
        <ele>1720.3</ele>
        <time>2021-08-03T11:41:40Z</time>
      </trkpt>
      <trkpt lat="45.52754" lon="6.74327">
        <ele>1720.3</ele>
        <time>2021-08-03T11:41:41Z</time>
      </trkpt>
      <trkpt lat="45.52755" lon="6.74327">
        <ele>1720.3</ele>
        <time>2021-08-03T11:41:42Z</time>
      </trkpt>
      <trkpt lat="45.52755" lon="6.74327">
        <ele>1720.3</ele>
        <time>2021-08-03T11:41:43Z</time>
      </trkpt>
      <trkpt lat="45.52755" lon="6.74326">
        <ele>1720.3</ele>
        <time>2021-08-03T11:41:44Z</time>
      </trkpt>
      <trkpt lat="45.52755" lon="6.74326">
        <ele>1720.3</ele>
        <time>2021-08-03T11:41:45Z</time>
      </trkpt>
      <trkpt lat="45.52755" lon="6.74326">
        <ele>1720.3</ele>
        <time>2021-08-03T11:41:46Z</time>
      </trkpt>
      <trkpt lat="45.52754" lon="6.74326">
        <ele>1720.3</ele>
        <time>2021-08-03T11:41:47Z</time>
      </trkpt>
      <trkpt lat="45.52754" lon="6.74326">
        <ele>1720.3</ele>
        <time>2021-08-03T11:41:48Z</time>
      </trkpt>
      <trkpt lat="45.52755" lon="6.74326">
        <ele>1720.3</ele>
        <time>2021-08-03T11:41:49Z</time>
      </trkpt>
      <trkpt lat="45.52755" lon="6.74326">
        <ele>1720.3</ele>
        <time>2021-08-03T11:41:50Z</time>
      </trkpt>
      <trkpt lat="45.52755" lon="6.74327">
        <ele>1720.4</ele>
        <time>2021-08-03T11:41:51Z</time>
      </trkpt>
      <trkpt lat="45.52755" lon="6.74327">
        <ele>1720.4</ele>
        <time>2021-08-03T11:41:52Z</time>
      </trkpt>
      <trkpt lat="45.52755" lon="6.74327">
        <ele>1720.4</ele>
        <time>2021-08-03T11:41:53Z</time>
      </trkpt>
      <trkpt lat="45.52756" lon="6.74327">
        <ele>1720.4</ele>
        <time>2021-08-03T11:41:54Z</time>
      </trkpt>
      <trkpt lat="45.52756" lon="6.74328">
        <ele>1720.5</ele>
        <time>2021-08-03T11:41:55Z</time>
      </trkpt>
      <trkpt lat="45.52757" lon="6.74328">
        <ele>1720.5</ele>
        <time>2021-08-03T11:41:56Z</time>
      </trkpt>
      <trkpt lat="45.52757" lon="6.74329">
        <ele>1720.6</ele>
        <time>2021-08-03T11:41:57Z</time>
      </trkpt>
      <trkpt lat="45.52757" lon="6.7433">
        <ele>1720.6</ele>
        <time>2021-08-03T11:41:58Z</time>
      </trkpt>
      <trkpt lat="45.52758" lon="6.7433">
        <ele>1720.7</ele>
        <time>2021-08-03T11:41:59Z</time>
      </trkpt>
      <trkpt lat="45.52758" lon="6.74331">
        <ele>1720.7</ele>
        <time>2021-08-03T11:42:00Z</time>
      </trkpt>
      <trkpt lat="45.52758" lon="6.74332">
        <ele>1720.8</ele>
        <time>2021-08-03T11:42:01Z</time>
      </trkpt>
      <trkpt lat="45.52759" lon="6.74333">
        <ele>1720.8</ele>
        <time>2021-08-03T11:42:02Z</time>
      </trkpt>
      <trkpt lat="45.52759" lon="6.74334">
        <ele>1720.9</ele>
        <time>2021-08-03T11:42:03Z</time>
      </trkpt>
      <trkpt lat="45.52759" lon="6.74335">
        <ele>1720.9</ele>
        <time>2021-08-03T11:42:04Z</time>
      </trkpt>
      <trkpt lat="45.5276" lon="6.74336">
        <ele>1721</ele>
        <time>2021-08-03T11:42:05Z</time>
      </trkpt>
      <trkpt lat="45.5276" lon="6.74337">
        <ele>1721.1</ele>
        <time>2021-08-03T11:42:06Z</time>
      </trkpt>
      <trkpt lat="45.5276" lon="6.74338">
        <ele>1721.1</ele>
        <time>2021-08-03T11:42:07Z</time>
      </trkpt>
      <trkpt lat="45.52761" lon="6.74339">
        <ele>1721.2</ele>
        <time>2021-08-03T11:42:08Z</time>
      </trkpt>
      <trkpt lat="45.52761" lon="6.7434">
        <ele>1721.2</ele>
        <time>2021-08-03T11:42:09Z</time>
      </trkpt>
      <trkpt lat="45.52762" lon="6.74341">
        <ele>1721.3</ele>
        <time>2021-08-03T11:42:10Z</time>
      </trkpt>
      <trkpt lat="45.52762" lon="6.74342">
        <ele>1721.4</ele>
        <time>2021-08-03T11:42:11Z</time>
      </trkpt>
      <trkpt lat="45.52763" lon="6.74343">
        <ele>1721.4</ele>
        <time>2021-08-03T11:42:12Z</time>
      </trkpt>
      <trkpt lat="45.52763" lon="6.74344">
        <ele>1721.5</ele>
        <time>2021-08-03T11:42:13Z</time>
      </trkpt>
      <trkpt lat="45.52764" lon="6.74345">
        <ele>1721.6</ele>
        <time>2021-08-03T11:42:14Z</time>
      </trkpt>
      <trkpt lat="45.52764" lon="6.74346">
        <ele>1721.6</ele>
        <time>2021-08-03T11:42:15Z</time>
      </trkpt>
      <trkpt lat="45.52765" lon="6.74347">
        <ele>1721.7</ele>
        <time>2021-08-03T11:42:16Z</time>
      </trkpt>
      <trkpt lat="45.52766" lon="6.74348">
        <ele>1721.8</ele>
        <time>2021-08-03T11:42:17Z</time>
      </trkpt>
      <trkpt lat="45.52767" lon="6.74349">
        <ele>1721.9</ele>
        <time>2021-08-03T11:42:18Z</time>
      </trkpt>
      <trkpt lat="45.52767" lon="6.7435">
        <ele>1722</ele>
        <time>2021-08-03T11:42:19Z</time>
      </trkpt>
      <trkpt lat="45.52768" lon="6.74351">
        <ele>1722</ele>
        <time>2021-08-03T11:42:20Z</time>
      </trkpt>
      <trkpt lat="45.52769" lon="6.74352">
        <ele>1722.1</ele>
        <time>2021-08-03T11:42:21Z</time>
      </trkpt>
      <trkpt lat="45.5277" lon="6.74354">
        <ele>1722.2</ele>
        <time>2021-08-03T11:42:22Z</time>
      </trkpt>
      <trkpt lat="45.5277" lon="6.74355">
        <ele>1722.3</ele>
        <time>2021-08-03T11:42:23Z</time>
      </trkpt>
      <trkpt lat="45.52771" lon="6.74356">
        <ele>1722.4</ele>
        <time>2021-08-03T11:42:24Z</time>
      </trkpt>
      <trkpt lat="45.52772" lon="6.74357">
        <ele>1722.5</ele>
        <time>2021-08-03T11:42:25Z</time>
      </trkpt>
      <trkpt lat="45.52773" lon="6.74358">
        <ele>1722.6</ele>
        <time>2021-08-03T11:42:26Z</time>
      </trkpt>
      <trkpt lat="45.52773" lon="6.74359">
        <ele>1722.6</ele>
        <time>2021-08-03T11:42:27Z</time>
      </trkpt>
      <trkpt lat="45.52774" lon="6.7436">
        <ele>1722.7</ele>
        <time>2021-08-03T11:42:28Z</time>
      </trkpt>
      <trkpt lat="45.52775" lon="6.74362">
        <ele>1722.8</ele>
        <time>2021-08-03T11:42:29Z</time>
      </trkpt>
      <trkpt lat="45.52775" lon="6.74363">
        <ele>1722.9</ele>
        <time>2021-08-03T11:42:30Z</time>
      </trkpt>
      <trkpt lat="45.52776" lon="6.74364">
        <ele>1723</ele>
        <time>2021-08-03T11:42:31Z</time>
      </trkpt>
      <trkpt lat="45.52776" lon="6.74365">
        <ele>1723.1</ele>
        <time>2021-08-03T11:42:32Z</time>
      </trkpt>
      <trkpt lat="45.52777" lon="6.74367">
        <ele>1723.1</ele>
        <time>2021-08-03T11:42:33Z</time>
      </trkpt>
      <trkpt lat="45.52778" lon="6.74368">
        <ele>1723.2</ele>
        <time>2021-08-03T11:42:34Z</time>
      </trkpt>
      <trkpt lat="45.52778" lon="6.74369">
        <ele>1723.3</ele>
        <time>2021-08-03T11:42:35Z</time>
      </trkpt>
      <trkpt lat="45.52779" lon="6.74371">
        <ele>1723.4</ele>
        <time>2021-08-03T11:42:36Z</time>
      </trkpt>
      <trkpt lat="45.5278" lon="6.74372">
        <ele>1723.5</ele>
        <time>2021-08-03T11:42:37Z</time>
      </trkpt>
      <trkpt lat="45.5278" lon="6.74374">
        <ele>1723.6</ele>
        <time>2021-08-03T11:42:38Z</time>
      </trkpt>
      <trkpt lat="45.52781" lon="6.74375">
        <ele>1723.7</ele>
        <time>2021-08-03T11:42:39Z</time>
      </trkpt>
      <trkpt lat="45.52782" lon="6.74376">
        <ele>1723.8</ele>
        <time>2021-08-03T11:42:40Z</time>
      </trkpt>
      <trkpt lat="45.52782" lon="6.74378">
        <ele>1723.9</ele>
        <time>2021-08-03T11:42:41Z</time>
      </trkpt>
      <trkpt lat="45.52783" lon="6.7438">
        <ele>1723.9</ele>
        <time>2021-08-03T11:42:42Z</time>
      </trkpt>
      <trkpt lat="45.52784" lon="6.74381">
        <ele>1724</ele>
        <time>2021-08-03T11:42:43Z</time>
      </trkpt>
      <trkpt lat="45.52784" lon="6.74383">
        <ele>1724.1</ele>
        <time>2021-08-03T11:42:44Z</time>
      </trkpt>
      <trkpt lat="45.52785" lon="6.74384">
        <ele>1724.2</ele>
        <time>2021-08-03T11:42:45Z</time>
      </trkpt>
      <trkpt lat="45.52786" lon="6.74386">
        <ele>1724.3</ele>
        <time>2021-08-03T11:42:46Z</time>
      </trkpt>
      <trkpt lat="45.52786" lon="6.74387">
        <ele>1724.4</ele>
        <time>2021-08-03T11:42:47Z</time>
      </trkpt>
      <trkpt lat="45.52787" lon="6.74389">
        <ele>1724.5</ele>
        <time>2021-08-03T11:42:48Z</time>
      </trkpt>
      <trkpt lat="45.52788" lon="6.7439">
        <ele>1724.6</ele>
        <time>2021-08-03T11:42:49Z</time>
      </trkpt>
      <trkpt lat="45.52788" lon="6.74392">
        <ele>1724.6</ele>
        <time>2021-08-03T11:42:50Z</time>
      </trkpt>
      <trkpt lat="45.52789" lon="6.74393">
        <ele>1724.7</ele>
        <time>2021-08-03T11:42:51Z</time>
      </trkpt>
      <trkpt lat="45.52789" lon="6.74395">
        <ele>1724.8</ele>
        <time>2021-08-03T11:42:52Z</time>
      </trkpt>
      <trkpt lat="45.5279" lon="6.74396">
        <ele>1724.9</ele>
        <time>2021-08-03T11:42:53Z</time>
      </trkpt>
      <trkpt lat="45.5279" lon="6.74398">
        <ele>1725</ele>
        <time>2021-08-03T11:42:54Z</time>
      </trkpt>
      <trkpt lat="45.52791" lon="6.74399">
        <ele>1725</ele>
        <time>2021-08-03T11:42:55Z</time>
      </trkpt>
      <trkpt lat="45.52791" lon="6.74401">
        <ele>1725.1</ele>
        <time>2021-08-03T11:42:56Z</time>
      </trkpt>
      <trkpt lat="45.52792" lon="6.74402">
        <ele>1725.2</ele>
        <time>2021-08-03T11:42:57Z</time>
      </trkpt>
      <trkpt lat="45.52792" lon="6.74404">
        <ele>1725.2</ele>
        <time>2021-08-03T11:42:58Z</time>
      </trkpt>
      <trkpt lat="45.52792" lon="6.74405">
        <ele>1725.3</ele>
        <time>2021-08-03T11:42:59Z</time>
      </trkpt>
      <trkpt lat="45.52793" lon="6.74406">
        <ele>1725.4</ele>
        <time>2021-08-03T11:43:00Z</time>
      </trkpt>
      <trkpt lat="45.52793" lon="6.74408">
        <ele>1725.5</ele>
        <time>2021-08-03T11:43:01Z</time>
      </trkpt>
      <trkpt lat="45.52794" lon="6.74409">
        <ele>1725.5</ele>
        <time>2021-08-03T11:43:02Z</time>
      </trkpt>
      <trkpt lat="45.52794" lon="6.74411">
        <ele>1725.6</ele>
        <time>2021-08-03T11:43:03Z</time>
      </trkpt>
      <trkpt lat="45.52795" lon="6.74412">
        <ele>1725.7</ele>
        <time>2021-08-03T11:43:04Z</time>
      </trkpt>
      <trkpt lat="45.52795" lon="6.74414">
        <ele>1725.8</ele>
        <time>2021-08-03T11:43:05Z</time>
      </trkpt>
      <trkpt lat="45.52796" lon="6.74415">
        <ele>1725.9</ele>
        <time>2021-08-03T11:43:06Z</time>
      </trkpt>
      <trkpt lat="45.52796" lon="6.74417">
        <ele>1726</ele>
        <time>2021-08-03T11:43:07Z</time>
      </trkpt>
      <trkpt lat="45.52797" lon="6.74418">
        <ele>1726.1</ele>
        <time>2021-08-03T11:43:08Z</time>
      </trkpt>
      <trkpt lat="45.52798" lon="6.7442">
        <ele>1726.2</ele>
        <time>2021-08-03T11:43:09Z</time>
      </trkpt>
      <trkpt lat="45.52798" lon="6.74422">
        <ele>1726.3</ele>
        <time>2021-08-03T11:43:10Z</time>
      </trkpt>
      <trkpt lat="45.52799" lon="6.74424">
        <ele>1726.4</ele>
        <time>2021-08-03T11:43:11Z</time>
      </trkpt>
      <trkpt lat="45.528" lon="6.74425">
        <ele>1726.5</ele>
        <time>2021-08-03T11:43:12Z</time>
      </trkpt>
      <trkpt lat="45.528" lon="6.74427">
        <ele>1726.6</ele>
        <time>2021-08-03T11:43:13Z</time>
      </trkpt>
      <trkpt lat="45.52801" lon="6.74429">
        <ele>1726.7</ele>
        <time>2021-08-03T11:43:14Z</time>
      </trkpt>
      <trkpt lat="45.52802" lon="6.74431">
        <ele>1726.8</ele>
        <time>2021-08-03T11:43:15Z</time>
      </trkpt>
      <trkpt lat="45.52802" lon="6.74432">
        <ele>1726.9</ele>
        <time>2021-08-03T11:43:16Z</time>
      </trkpt>
      <trkpt lat="45.52803" lon="6.74434">
        <ele>1727</ele>
        <time>2021-08-03T11:43:17Z</time>
      </trkpt>
      <trkpt lat="45.52803" lon="6.74436">
        <ele>1727.1</ele>
        <time>2021-08-03T11:43:18Z</time>
      </trkpt>
      <trkpt lat="45.52804" lon="6.74437">
        <ele>1727.2</ele>
        <time>2021-08-03T11:43:19Z</time>
      </trkpt>
      <trkpt lat="45.52804" lon="6.74439">
        <ele>1727.3</ele>
        <time>2021-08-03T11:43:20Z</time>
      </trkpt>
      <trkpt lat="45.52805" lon="6.7444">
        <ele>1727.4</ele>
        <time>2021-08-03T11:43:21Z</time>
      </trkpt>
      <trkpt lat="45.52805" lon="6.74442">
        <ele>1727.5</ele>
        <time>2021-08-03T11:43:22Z</time>
      </trkpt>
      <trkpt lat="45.52806" lon="6.74443">
        <ele>1727.6</ele>
        <time>2021-08-03T11:43:23Z</time>
      </trkpt>
      <trkpt lat="45.52806" lon="6.74445">
        <ele>1728.6</ele>
        <time>2021-08-03T11:43:24Z</time>
      </trkpt>
      <trkpt lat="45.52807" lon="6.74447">
        <ele>1728.7</ele>
        <time>2021-08-03T11:43:25Z</time>
      </trkpt>
      <trkpt lat="45.52807" lon="6.74448">
        <ele>1728.8</ele>
        <time>2021-08-03T11:43:26Z</time>
      </trkpt>
      <trkpt lat="45.52808" lon="6.7445">
        <ele>1728.9</ele>
        <time>2021-08-03T11:43:27Z</time>
      </trkpt>
      <trkpt lat="45.52808" lon="6.74451">
        <ele>1729</ele>
        <time>2021-08-03T11:43:28Z</time>
      </trkpt>
      <trkpt lat="45.52808" lon="6.74453">
        <ele>1729.1</ele>
        <time>2021-08-03T11:43:29Z</time>
      </trkpt>
      <trkpt lat="45.52807" lon="6.74454">
        <ele>1729.1</ele>
        <time>2021-08-03T11:43:30Z</time>
      </trkpt>
      <trkpt lat="45.52807" lon="6.74455">
        <ele>1729.2</ele>
        <time>2021-08-03T11:43:31Z</time>
      </trkpt>
      <trkpt lat="45.52806" lon="6.74456">
        <ele>1729.3</ele>
        <time>2021-08-03T11:43:32Z</time>
      </trkpt>
      <trkpt lat="45.52806" lon="6.74457">
        <ele>1729.3</ele>
        <time>2021-08-03T11:43:33Z</time>
      </trkpt>
      <trkpt lat="45.52805" lon="6.74457">
        <ele>1729.4</ele>
        <time>2021-08-03T11:43:34Z</time>
      </trkpt>
      <trkpt lat="45.52805" lon="6.74457">
        <ele>1729.4</ele>
        <time>2021-08-03T11:43:35Z</time>
      </trkpt>
      <trkpt lat="45.52805" lon="6.74457">
        <ele>1729.4</ele>
        <time>2021-08-03T11:43:36Z</time>
      </trkpt>
      <trkpt lat="45.52805" lon="6.74457">
        <ele>1729.4</ele>
        <time>2021-08-03T11:43:37Z</time>
      </trkpt>
      <trkpt lat="45.52806" lon="6.74457">
        <ele>1729.4</ele>
        <time>2021-08-03T11:43:38Z</time>
      </trkpt>
      <trkpt lat="45.52806" lon="6.74457">
        <ele>1729.4</ele>
        <time>2021-08-03T11:43:39Z</time>
      </trkpt>
      <trkpt lat="45.52805" lon="6.74457">
        <ele>1729.4</ele>
        <time>2021-08-03T11:43:40Z</time>
      </trkpt>
      <trkpt lat="45.52805" lon="6.74457">
        <ele>1729.4</ele>
        <time>2021-08-03T11:43:41Z</time>
      </trkpt>
      <trkpt lat="45.52805" lon="6.74457">
        <ele>1729.5</ele>
        <time>2021-08-03T11:43:42Z</time>
      </trkpt>
      <trkpt lat="45.52804" lon="6.74456">
        <ele>1729.5</ele>
        <time>2021-08-03T11:43:43Z</time>
      </trkpt>
      <trkpt lat="45.52803" lon="6.74456">
        <ele>1729.6</ele>
        <time>2021-08-03T11:43:44Z</time>
      </trkpt>
      <trkpt lat="45.52802" lon="6.74455">
        <ele>1729.7</ele>
        <time>2021-08-03T11:43:45Z</time>
      </trkpt>
      <trkpt lat="45.52801" lon="6.74455">
        <ele>1729.8</ele>
        <time>2021-08-03T11:43:46Z</time>
      </trkpt>
      <trkpt lat="45.528" lon="6.74454">
        <ele>1729.9</ele>
        <time>2021-08-03T11:43:47Z</time>
      </trkpt>
      <trkpt lat="45.52799" lon="6.74453">
        <ele>1730</ele>
        <time>2021-08-03T11:43:48Z</time>
      </trkpt>
      <trkpt lat="45.52798" lon="6.74453">
        <ele>1730.1</ele>
        <time>2021-08-03T11:43:49Z</time>
      </trkpt>
      <trkpt lat="45.52798" lon="6.74452">
        <ele>1730.2</ele>
        <time>2021-08-03T11:43:50Z</time>
      </trkpt>
      <trkpt lat="45.52797" lon="6.74451">
        <ele>1730.2</ele>
        <time>2021-08-03T11:43:51Z</time>
      </trkpt>
      <trkpt lat="45.52796" lon="6.7445">
        <ele>1730.3</ele>
        <time>2021-08-03T11:43:52Z</time>
      </trkpt>
      <trkpt lat="45.52796" lon="6.74449">
        <ele>1730.4</ele>
        <time>2021-08-03T11:43:53Z</time>
      </trkpt>
      <trkpt lat="45.52795" lon="6.74448">
        <ele>1730.5</ele>
        <time>2021-08-03T11:43:54Z</time>
      </trkpt>
      <trkpt lat="45.52794" lon="6.74447">
        <ele>1730.6</ele>
        <time>2021-08-03T11:43:55Z</time>
      </trkpt>
      <trkpt lat="45.52793" lon="6.74446">
        <ele>1730.7</ele>
        <time>2021-08-03T11:43:56Z</time>
      </trkpt>
      <trkpt lat="45.52793" lon="6.74445">
        <ele>1730.8</ele>
        <time>2021-08-03T11:43:57Z</time>
      </trkpt>
      <trkpt lat="45.52792" lon="6.74444">
        <ele>1730.9</ele>
        <time>2021-08-03T11:43:58Z</time>
      </trkpt>
      <trkpt lat="45.52791" lon="6.74443">
        <ele>1731</ele>
        <time>2021-08-03T11:43:59Z</time>
      </trkpt>
      <trkpt lat="45.5279" lon="6.74442">
        <ele>1731.1</ele>
        <time>2021-08-03T11:44:00Z</time>
      </trkpt>
      <trkpt lat="45.52789" lon="6.74441">
        <ele>1731.2</ele>
        <time>2021-08-03T11:44:01Z</time>
      </trkpt>
      <trkpt lat="45.52788" lon="6.7444">
        <ele>1731.3</ele>
        <time>2021-08-03T11:44:02Z</time>
      </trkpt>
      <trkpt lat="45.52788" lon="6.74439">
        <ele>1731.4</ele>
        <time>2021-08-03T11:44:03Z</time>
      </trkpt>
      <trkpt lat="45.52787" lon="6.74438">
        <ele>1731.5</ele>
        <time>2021-08-03T11:44:04Z</time>
      </trkpt>
      <trkpt lat="45.52786" lon="6.74437">
        <ele>1731.6</ele>
        <time>2021-08-03T11:44:05Z</time>
      </trkpt>
      <trkpt lat="45.52785" lon="6.74436">
        <ele>1731.7</ele>
        <time>2021-08-03T11:44:06Z</time>
      </trkpt>
      <trkpt lat="45.52784" lon="6.74435">
        <ele>1731.8</ele>
        <time>2021-08-03T11:44:07Z</time>
      </trkpt>
      <trkpt lat="45.52783" lon="6.74433">
        <ele>1731.9</ele>
        <time>2021-08-03T11:44:08Z</time>
      </trkpt>
      <trkpt lat="45.52782" lon="6.74432">
        <ele>1732</ele>
        <time>2021-08-03T11:44:09Z</time>
      </trkpt>
      <trkpt lat="45.52781" lon="6.74431">
        <ele>1732.1</ele>
        <time>2021-08-03T11:44:10Z</time>
      </trkpt>
      <trkpt lat="45.5278" lon="6.7443">
        <ele>1732.2</ele>
        <time>2021-08-03T11:44:11Z</time>
      </trkpt>
      <trkpt lat="45.52779" lon="6.74428">
        <ele>1732.3</ele>
        <time>2021-08-03T11:44:12Z</time>
      </trkpt>
      <trkpt lat="45.52778" lon="6.74427">
        <ele>1732.4</ele>
        <time>2021-08-03T11:44:13Z</time>
      </trkpt>
      <trkpt lat="45.52777" lon="6.74426">
        <ele>1732.5</ele>
        <time>2021-08-03T11:44:14Z</time>
      </trkpt>
      <trkpt lat="45.52776" lon="6.74424">
        <ele>1732.6</ele>
        <time>2021-08-03T11:44:15Z</time>
      </trkpt>
      <trkpt lat="45.52775" lon="6.74423">
        <ele>1732.7</ele>
        <time>2021-08-03T11:44:16Z</time>
      </trkpt>
      <trkpt lat="45.52774" lon="6.74422">
        <ele>1732.8</ele>
        <time>2021-08-03T11:44:17Z</time>
      </trkpt>
      <trkpt lat="45.52773" lon="6.74421">
        <ele>1732.9</ele>
        <time>2021-08-03T11:44:18Z</time>
      </trkpt>
      <trkpt lat="45.52773" lon="6.7442">
        <ele>1733</ele>
        <time>2021-08-03T11:44:19Z</time>
      </trkpt>
      <trkpt lat="45.52772" lon="6.74419">
        <ele>1733.1</ele>
        <time>2021-08-03T11:44:20Z</time>
      </trkpt>
      <trkpt lat="45.52771" lon="6.74418">
        <ele>1733.1</ele>
        <time>2021-08-03T11:44:21Z</time>
      </trkpt>
      <trkpt lat="45.5277" lon="6.74418">
        <ele>1733.2</ele>
        <time>2021-08-03T11:44:22Z</time>
      </trkpt>
      <trkpt lat="45.5277" lon="6.74417">
        <ele>1733.3</ele>
        <time>2021-08-03T11:44:23Z</time>
      </trkpt>
      <trkpt lat="45.52769" lon="6.74416">
        <ele>1733.3</ele>
        <time>2021-08-03T11:44:24Z</time>
      </trkpt>
      <trkpt lat="45.52768" lon="6.74416">
        <ele>1733.4</ele>
        <time>2021-08-03T11:44:25Z</time>
      </trkpt>
      <trkpt lat="45.52767" lon="6.74415">
        <ele>1733.5</ele>
        <time>2021-08-03T11:44:26Z</time>
      </trkpt>
      <trkpt lat="45.52766" lon="6.74414">
        <ele>1733.5</ele>
        <time>2021-08-03T11:44:27Z</time>
      </trkpt>
      <trkpt lat="45.52765" lon="6.74414">
        <ele>1733.6</ele>
        <time>2021-08-03T11:44:28Z</time>
      </trkpt>
      <trkpt lat="45.52764" lon="6.74413">
        <ele>1733.7</ele>
        <time>2021-08-03T11:44:29Z</time>
      </trkpt>
      <trkpt lat="45.52762" lon="6.74412">
        <ele>1733.8</ele>
        <time>2021-08-03T11:44:30Z</time>
      </trkpt>
      <trkpt lat="45.52761" lon="6.74412">
        <ele>1733.9</ele>
        <time>2021-08-03T11:44:31Z</time>
      </trkpt>
      <trkpt lat="45.5276" lon="6.74411">
        <ele>1734.1</ele>
        <time>2021-08-03T11:44:32Z</time>
      </trkpt>
      <trkpt lat="45.52758" lon="6.7441">
        <ele>1734.2</ele>
        <time>2021-08-03T11:44:33Z</time>
      </trkpt>
      <trkpt lat="45.52757" lon="6.74409">
        <ele>1734.3</ele>
        <time>2021-08-03T11:44:34Z</time>
      </trkpt>
      <trkpt lat="45.52755" lon="6.74409">
        <ele>1734.4</ele>
        <time>2021-08-03T11:44:35Z</time>
      </trkpt>
      <trkpt lat="45.52754" lon="6.74408">
        <ele>1734.5</ele>
        <time>2021-08-03T11:44:36Z</time>
      </trkpt>
      <trkpt lat="45.52752" lon="6.74407">
        <ele>1734.6</ele>
        <time>2021-08-03T11:44:37Z</time>
      </trkpt>
      <trkpt lat="45.52751" lon="6.74406">
        <ele>1734.7</ele>
        <time>2021-08-03T11:44:38Z</time>
      </trkpt>
      <trkpt lat="45.5275" lon="6.74406">
        <ele>1734.8</ele>
        <time>2021-08-03T11:44:39Z</time>
      </trkpt>
      <trkpt lat="45.52749" lon="6.74405">
        <ele>1734.9</ele>
        <time>2021-08-03T11:44:40Z</time>
      </trkpt>
      <trkpt lat="45.52747" lon="6.74404">
        <ele>1735</ele>
        <time>2021-08-03T11:44:41Z</time>
      </trkpt>
      <trkpt lat="45.52746" lon="6.74403">
        <ele>1735.1</ele>
        <time>2021-08-03T11:44:42Z</time>
      </trkpt>
      <trkpt lat="45.52745" lon="6.74402">
        <ele>1735.2</ele>
        <time>2021-08-03T11:44:43Z</time>
      </trkpt>
      <trkpt lat="45.52744" lon="6.74401">
        <ele>1735.3</ele>
        <time>2021-08-03T11:44:44Z</time>
      </trkpt>
      <trkpt lat="45.52743" lon="6.744">
        <ele>1735.4</ele>
        <time>2021-08-03T11:44:45Z</time>
      </trkpt>
      <trkpt lat="45.52742" lon="6.74399">
        <ele>1735.5</ele>
        <time>2021-08-03T11:44:46Z</time>
      </trkpt>
      <trkpt lat="45.52741" lon="6.74398">
        <ele>1735.6</ele>
        <time>2021-08-03T11:44:47Z</time>
      </trkpt>
      <trkpt lat="45.52741" lon="6.74397">
        <ele>1735.7</ele>
        <time>2021-08-03T11:44:48Z</time>
      </trkpt>
      <trkpt lat="45.5274" lon="6.74395">
        <ele>1735.8</ele>
        <time>2021-08-03T11:44:49Z</time>
      </trkpt>
      <trkpt lat="45.52739" lon="6.74394">
        <ele>1735.9</ele>
        <time>2021-08-03T11:44:50Z</time>
      </trkpt>
      <trkpt lat="45.52738" lon="6.74393">
        <ele>1736</ele>
        <time>2021-08-03T11:44:51Z</time>
      </trkpt>
      <trkpt lat="45.52737" lon="6.74392">
        <ele>1736.1</ele>
        <time>2021-08-03T11:44:52Z</time>
      </trkpt>
      <trkpt lat="45.52735" lon="6.74392">
        <ele>1736.2</ele>
        <time>2021-08-03T11:44:53Z</time>
      </trkpt>
      <trkpt lat="45.52734" lon="6.74391">
        <ele>1736.3</ele>
        <time>2021-08-03T11:44:54Z</time>
      </trkpt>
      <trkpt lat="45.52733" lon="6.7439">
        <ele>1736.4</ele>
        <time>2021-08-03T11:44:55Z</time>
      </trkpt>
      <trkpt lat="45.52732" lon="6.7439">
        <ele>1736.5</ele>
        <time>2021-08-03T11:44:56Z</time>
      </trkpt>
      <trkpt lat="45.52731" lon="6.74389">
        <ele>1736.6</ele>
        <time>2021-08-03T11:44:57Z</time>
      </trkpt>
      <trkpt lat="45.5273" lon="6.74389">
        <ele>1736.7</ele>
        <time>2021-08-03T11:44:58Z</time>
      </trkpt>
      <trkpt lat="45.52728" lon="6.74388">
        <ele>1736.9</ele>
        <time>2021-08-03T11:44:59Z</time>
      </trkpt>
      <trkpt lat="45.52727" lon="6.74388">
        <ele>1737</ele>
        <time>2021-08-03T11:45:00Z</time>
      </trkpt>
      <trkpt lat="45.52726" lon="6.74388">
        <ele>1737.1</ele>
        <time>2021-08-03T11:45:01Z</time>
      </trkpt>
      <trkpt lat="45.52725" lon="6.74387">
        <ele>1737.2</ele>
        <time>2021-08-03T11:45:02Z</time>
      </trkpt>
      <trkpt lat="45.52724" lon="6.74387">
        <ele>1737.3</ele>
        <time>2021-08-03T11:45:03Z</time>
      </trkpt>
      <trkpt lat="45.52723" lon="6.74387">
        <ele>1737.4</ele>
        <time>2021-08-03T11:45:04Z</time>
      </trkpt>
      <trkpt lat="45.52722" lon="6.74387">
        <ele>1737.5</ele>
        <time>2021-08-03T11:45:05Z</time>
      </trkpt>
      <trkpt lat="45.52721" lon="6.74387">
        <ele>1737.6</ele>
        <time>2021-08-03T11:45:06Z</time>
      </trkpt>
      <trkpt lat="45.52719" lon="6.74386">
        <ele>1737.7</ele>
        <time>2021-08-03T11:45:07Z</time>
      </trkpt>
      <trkpt lat="45.52718" lon="6.74386">
        <ele>1737.8</ele>
        <time>2021-08-03T11:45:08Z</time>
      </trkpt>
      <trkpt lat="45.52717" lon="6.74386">
        <ele>1737.9</ele>
        <time>2021-08-03T11:45:09Z</time>
      </trkpt>
      <trkpt lat="45.52715" lon="6.74385">
        <ele>1738</ele>
        <time>2021-08-03T11:45:10Z</time>
      </trkpt>
      <trkpt lat="45.52714" lon="6.74385">
        <ele>1738.1</ele>
        <time>2021-08-03T11:45:11Z</time>
      </trkpt>
      <trkpt lat="45.52713" lon="6.74385">
        <ele>1738.3</ele>
        <time>2021-08-03T11:45:12Z</time>
      </trkpt>
      <trkpt lat="45.52711" lon="6.74385">
        <ele>1738.4</ele>
        <time>2021-08-03T11:45:13Z</time>
      </trkpt>
      <trkpt lat="45.5271" lon="6.74384">
        <ele>1738.5</ele>
        <time>2021-08-03T11:45:14Z</time>
      </trkpt>
      <trkpt lat="45.52709" lon="6.74384">
        <ele>1738.6</ele>
        <time>2021-08-03T11:45:15Z</time>
      </trkpt>
      <trkpt lat="45.52707" lon="6.74384">
        <ele>1738.7</ele>
        <time>2021-08-03T11:45:16Z</time>
      </trkpt>
      <trkpt lat="45.52706" lon="6.74383">
        <ele>1738.8</ele>
        <time>2021-08-03T11:45:17Z</time>
      </trkpt>
      <trkpt lat="45.52705" lon="6.74383">
        <ele>1738.9</ele>
        <time>2021-08-03T11:45:18Z</time>
      </trkpt>
      <trkpt lat="45.52704" lon="6.74382">
        <ele>1739</ele>
        <time>2021-08-03T11:45:19Z</time>
      </trkpt>
      <trkpt lat="45.52703" lon="6.74382">
        <ele>1739.1</ele>
        <time>2021-08-03T11:45:20Z</time>
      </trkpt>
      <trkpt lat="45.52702" lon="6.74382">
        <ele>1739.2</ele>
        <time>2021-08-03T11:45:21Z</time>
      </trkpt>
      <trkpt lat="45.527" lon="6.74381">
        <ele>1739.3</ele>
        <time>2021-08-03T11:45:22Z</time>
      </trkpt>
      <trkpt lat="45.52699" lon="6.74381">
        <ele>1739.4</ele>
        <time>2021-08-03T11:45:23Z</time>
      </trkpt>
      <trkpt lat="45.52698" lon="6.7438">
        <ele>1739.5</ele>
        <time>2021-08-03T11:45:24Z</time>
      </trkpt>
      <trkpt lat="45.52697" lon="6.7438">
        <ele>1739.6</ele>
        <time>2021-08-03T11:45:25Z</time>
      </trkpt>
      <trkpt lat="45.52696" lon="6.7438">
        <ele>1739.7</ele>
        <time>2021-08-03T11:45:26Z</time>
      </trkpt>
      <trkpt lat="45.52695" lon="6.74379">
        <ele>1739.8</ele>
        <time>2021-08-03T11:45:27Z</time>
      </trkpt>
      <trkpt lat="45.52694" lon="6.74379">
        <ele>1739.9</ele>
        <time>2021-08-03T11:45:28Z</time>
      </trkpt>
      <trkpt lat="45.52693" lon="6.74379">
        <ele>1740</ele>
        <time>2021-08-03T11:45:29Z</time>
      </trkpt>
      <trkpt lat="45.52692" lon="6.74378">
        <ele>1740.1</ele>
        <time>2021-08-03T11:45:30Z</time>
      </trkpt>
      <trkpt lat="45.52691" lon="6.74378">
        <ele>1740.2</ele>
        <time>2021-08-03T11:45:31Z</time>
      </trkpt>
      <trkpt lat="45.5269" lon="6.74378">
        <ele>1740.2</ele>
        <time>2021-08-03T11:45:32Z</time>
      </trkpt>
      <trkpt lat="45.52689" lon="6.74378">
        <ele>1740.3</ele>
        <time>2021-08-03T11:45:33Z</time>
      </trkpt>
      <trkpt lat="45.52688" lon="6.74377">
        <ele>1740.4</ele>
        <time>2021-08-03T11:45:34Z</time>
      </trkpt>
      <trkpt lat="45.52687" lon="6.74377">
        <ele>1740.5</ele>
        <time>2021-08-03T11:45:35Z</time>
      </trkpt>
      <trkpt lat="45.52685" lon="6.74377">
        <ele>1740.6</ele>
        <time>2021-08-03T11:45:36Z</time>
      </trkpt>
      <trkpt lat="45.52684" lon="6.74377">
        <ele>1740.7</ele>
        <time>2021-08-03T11:45:37Z</time>
      </trkpt>
      <trkpt lat="45.52683" lon="6.74376">
        <ele>1740.8</ele>
        <time>2021-08-03T11:45:38Z</time>
      </trkpt>
      <trkpt lat="45.52682" lon="6.74376">
        <ele>1740.8</ele>
        <time>2021-08-03T11:45:39Z</time>
      </trkpt>
      <trkpt lat="45.52681" lon="6.74376">
        <ele>1740.9</ele>
        <time>2021-08-03T11:45:40Z</time>
      </trkpt>
      <trkpt lat="45.5268" lon="6.74376">
        <ele>1741</ele>
        <time>2021-08-03T11:45:41Z</time>
      </trkpt>
      <trkpt lat="45.52679" lon="6.74375">
        <ele>1741.1</ele>
        <time>2021-08-03T11:45:42Z</time>
      </trkpt>
      <trkpt lat="45.52678" lon="6.74375">
        <ele>1741.2</ele>
        <time>2021-08-03T11:45:43Z</time>
      </trkpt>
      <trkpt lat="45.52677" lon="6.74375">
        <ele>1741.3</ele>
        <time>2021-08-03T11:45:44Z</time>
      </trkpt>
      <trkpt lat="45.52676" lon="6.74375">
        <ele>1741.3</ele>
        <time>2021-08-03T11:45:45Z</time>
      </trkpt>
      <trkpt lat="45.52675" lon="6.74374">
        <ele>1741.4</ele>
        <time>2021-08-03T11:45:46Z</time>
      </trkpt>
      <trkpt lat="45.52674" lon="6.74374">
        <ele>1741.5</ele>
        <time>2021-08-03T11:45:47Z</time>
      </trkpt>
      <trkpt lat="45.52673" lon="6.74374">
        <ele>1741.6</ele>
        <time>2021-08-03T11:45:48Z</time>
      </trkpt>
      <trkpt lat="45.52672" lon="6.74374">
        <ele>1741.7</ele>
        <time>2021-08-03T11:45:49Z</time>
      </trkpt>
      <trkpt lat="45.52671" lon="6.74373">
        <ele>1741.8</ele>
        <time>2021-08-03T11:45:50Z</time>
      </trkpt>
      <trkpt lat="45.5267" lon="6.74373">
        <ele>1741.9</ele>
        <time>2021-08-03T11:45:51Z</time>
      </trkpt>
      <trkpt lat="45.52669" lon="6.74373">
        <ele>1741.9</ele>
        <time>2021-08-03T11:45:52Z</time>
      </trkpt>
      <trkpt lat="45.52668" lon="6.74372">
        <ele>1742</ele>
        <time>2021-08-03T11:45:53Z</time>
      </trkpt>
      <trkpt lat="45.52667" lon="6.74372">
        <ele>1742.1</ele>
        <time>2021-08-03T11:45:54Z</time>
      </trkpt>
      <trkpt lat="45.52666" lon="6.74371">
        <ele>1742.2</ele>
        <time>2021-08-03T11:45:55Z</time>
      </trkpt>
      <trkpt lat="45.52665" lon="6.74371">
        <ele>1742.3</ele>
        <time>2021-08-03T11:45:56Z</time>
      </trkpt>
      <trkpt lat="45.52664" lon="6.74371">
        <ele>1742.4</ele>
        <time>2021-08-03T11:45:57Z</time>
      </trkpt>
      <trkpt lat="45.52663" lon="6.7437">
        <ele>1742.5</ele>
        <time>2021-08-03T11:45:58Z</time>
      </trkpt>
      <trkpt lat="45.52662" lon="6.74369">
        <ele>1742.6</ele>
        <time>2021-08-03T11:45:59Z</time>
      </trkpt>
      <trkpt lat="45.52661" lon="6.74369">
        <ele>1742.7</ele>
        <time>2021-08-03T11:46:00Z</time>
      </trkpt>
      <trkpt lat="45.5266" lon="6.74368">
        <ele>1742.8</ele>
        <time>2021-08-03T11:46:01Z</time>
      </trkpt>
      <trkpt lat="45.52659" lon="6.74368">
        <ele>1742.9</ele>
        <time>2021-08-03T11:46:02Z</time>
      </trkpt>
      <trkpt lat="45.52658" lon="6.74367">
        <ele>1743</ele>
        <time>2021-08-03T11:46:03Z</time>
      </trkpt>
      <trkpt lat="45.52657" lon="6.74366">
        <ele>1743.1</ele>
        <time>2021-08-03T11:46:04Z</time>
      </trkpt>
      <trkpt lat="45.52656" lon="6.74366">
        <ele>1743.2</ele>
        <time>2021-08-03T11:46:05Z</time>
      </trkpt>
      <trkpt lat="45.52654" lon="6.74365">
        <ele>1743.3</ele>
        <time>2021-08-03T11:46:06Z</time>
      </trkpt>
      <trkpt lat="45.52653" lon="6.74364">
        <ele>1743.4</ele>
        <time>2021-08-03T11:46:07Z</time>
      </trkpt>
      <trkpt lat="45.52652" lon="6.74363">
        <ele>1743.5</ele>
        <time>2021-08-03T11:46:08Z</time>
      </trkpt>
      <trkpt lat="45.52651" lon="6.74362">
        <ele>1743.6</ele>
        <time>2021-08-03T11:46:09Z</time>
      </trkpt>
      <trkpt lat="45.5265" lon="6.74362">
        <ele>1743.7</ele>
        <time>2021-08-03T11:46:10Z</time>
      </trkpt>
      <trkpt lat="45.52649" lon="6.74361">
        <ele>1743.8</ele>
        <time>2021-08-03T11:46:11Z</time>
      </trkpt>
      <trkpt lat="45.52648" lon="6.7436">
        <ele>1743.9</ele>
        <time>2021-08-03T11:46:12Z</time>
      </trkpt>
      <trkpt lat="45.52647" lon="6.74359">
        <ele>1744</ele>
        <time>2021-08-03T11:46:13Z</time>
      </trkpt>
      <trkpt lat="45.52646" lon="6.74359">
        <ele>1744.2</ele>
        <time>2021-08-03T11:46:14Z</time>
      </trkpt>
      <trkpt lat="45.52645" lon="6.74358">
        <ele>1744.3</ele>
        <time>2021-08-03T11:46:15Z</time>
      </trkpt>
      <trkpt lat="45.52644" lon="6.74357">
        <ele>1744.4</ele>
        <time>2021-08-03T11:46:16Z</time>
      </trkpt>
      <trkpt lat="45.52643" lon="6.74357">
        <ele>1744.5</ele>
        <time>2021-08-03T11:46:17Z</time>
      </trkpt>
      <trkpt lat="45.52642" lon="6.74356">
        <ele>1744.6</ele>
        <time>2021-08-03T11:46:18Z</time>
      </trkpt>
      <trkpt lat="45.52641" lon="6.74356">
        <ele>1744.7</ele>
        <time>2021-08-03T11:46:19Z</time>
      </trkpt>
      <trkpt lat="45.5264" lon="6.74356">
        <ele>1744.8</ele>
        <time>2021-08-03T11:46:20Z</time>
      </trkpt>
      <trkpt lat="45.52639" lon="6.74355">
        <ele>1744.9</ele>
        <time>2021-08-03T11:46:21Z</time>
      </trkpt>
      <trkpt lat="45.52638" lon="6.74355">
        <ele>1745</ele>
        <time>2021-08-03T11:46:22Z</time>
      </trkpt>
      <trkpt lat="45.52638" lon="6.74355">
        <ele>1745</ele>
        <time>2021-08-03T11:46:23Z</time>
      </trkpt>
      <trkpt lat="45.52637" lon="6.74356">
        <ele>1745.1</ele>
        <time>2021-08-03T11:46:24Z</time>
      </trkpt>
      <trkpt lat="45.52636" lon="6.74356">
        <ele>1745.2</ele>
        <time>2021-08-03T11:46:25Z</time>
      </trkpt>
      <trkpt lat="45.52635" lon="6.74357">
        <ele>1745.3</ele>
        <time>2021-08-03T11:46:26Z</time>
      </trkpt>
      <trkpt lat="45.52635" lon="6.74358">
        <ele>1745.4</ele>
        <time>2021-08-03T11:46:27Z</time>
      </trkpt>
      <trkpt lat="45.52634" lon="6.74359">
        <ele>1745.5</ele>
        <time>2021-08-03T11:46:28Z</time>
      </trkpt>
      <trkpt lat="45.52634" lon="6.74361">
        <ele>1745.6</ele>
        <time>2021-08-03T11:46:29Z</time>
      </trkpt>
      <trkpt lat="45.52634" lon="6.74362">
        <ele>1745.7</ele>
        <time>2021-08-03T11:46:30Z</time>
      </trkpt>
      <trkpt lat="45.52633" lon="6.74364">
        <ele>1745.8</ele>
        <time>2021-08-03T11:46:31Z</time>
      </trkpt>
      <trkpt lat="45.52633" lon="6.74365">
        <ele>1745.9</ele>
        <time>2021-08-03T11:46:32Z</time>
      </trkpt>
      <trkpt lat="45.52633" lon="6.74367">
        <ele>1746</ele>
        <time>2021-08-03T11:46:33Z</time>
      </trkpt>
      <trkpt lat="45.52633" lon="6.74368">
        <ele>1746.1</ele>
        <time>2021-08-03T11:46:34Z</time>
      </trkpt>
      <trkpt lat="45.52634" lon="6.74369">
        <ele>1746.1</ele>
        <time>2021-08-03T11:46:35Z</time>
      </trkpt>
      <trkpt lat="45.52634" lon="6.74371">
        <ele>1746.2</ele>
        <time>2021-08-03T11:46:36Z</time>
      </trkpt>
      <trkpt lat="45.52635" lon="6.74372">
        <ele>1746.3</ele>
        <time>2021-08-03T11:46:37Z</time>
      </trkpt>
      <trkpt lat="45.52635" lon="6.74373">
        <ele>1746.4</ele>
        <time>2021-08-03T11:46:38Z</time>
      </trkpt>
      <trkpt lat="45.52636" lon="6.74374">
        <ele>1746.5</ele>
        <time>2021-08-03T11:46:39Z</time>
      </trkpt>
      <trkpt lat="45.52636" lon="6.74375">
        <ele>1746.6</ele>
        <time>2021-08-03T11:46:40Z</time>
      </trkpt>
      <trkpt lat="45.52637" lon="6.74375">
        <ele>1746.6</ele>
        <time>2021-08-03T11:46:41Z</time>
      </trkpt>
      <trkpt lat="45.52638" lon="6.74376">
        <ele>1746.7</ele>
        <time>2021-08-03T11:46:42Z</time>
      </trkpt>
      <trkpt lat="45.52639" lon="6.74377">
        <ele>1746.8</ele>
        <time>2021-08-03T11:46:43Z</time>
      </trkpt>
      <trkpt lat="45.5264" lon="6.74378">
        <ele>1746.9</ele>
        <time>2021-08-03T11:46:44Z</time>
      </trkpt>
      <trkpt lat="45.52641" lon="6.74379">
        <ele>1747</ele>
        <time>2021-08-03T11:46:45Z</time>
      </trkpt>
      <trkpt lat="45.52642" lon="6.74379">
        <ele>1747.1</ele>
        <time>2021-08-03T11:46:46Z</time>
      </trkpt>
      <trkpt lat="45.52643" lon="6.7438">
        <ele>1747.2</ele>
        <time>2021-08-03T11:46:47Z</time>
      </trkpt>
      <trkpt lat="45.52644" lon="6.74381">
        <ele>1747.3</ele>
        <time>2021-08-03T11:46:48Z</time>
      </trkpt>
      <trkpt lat="45.52645" lon="6.74382">
        <ele>1747.4</ele>
        <time>2021-08-03T11:46:49Z</time>
      </trkpt>
      <trkpt lat="45.52646" lon="6.74383">
        <ele>1747.5</ele>
        <time>2021-08-03T11:46:50Z</time>
      </trkpt>
      <trkpt lat="45.52647" lon="6.74383">
        <ele>1747.5</ele>
        <time>2021-08-03T11:46:51Z</time>
      </trkpt>
      <trkpt lat="45.52648" lon="6.74384">
        <ele>1747.6</ele>
        <time>2021-08-03T11:46:52Z</time>
      </trkpt>
      <trkpt lat="45.52648" lon="6.74385">
        <ele>1747.7</ele>
        <time>2021-08-03T11:46:53Z</time>
      </trkpt>
      <trkpt lat="45.52649" lon="6.74386">
        <ele>1747.8</ele>
        <time>2021-08-03T11:46:54Z</time>
      </trkpt>
      <trkpt lat="45.5265" lon="6.74387">
        <ele>1747.9</ele>
        <time>2021-08-03T11:46:55Z</time>
      </trkpt>
      <trkpt lat="45.52651" lon="6.74388">
        <ele>1748</ele>
        <time>2021-08-03T11:46:56Z</time>
      </trkpt>
      <trkpt lat="45.52652" lon="6.74389">
        <ele>1748.1</ele>
        <time>2021-08-03T11:46:57Z</time>
      </trkpt>
      <trkpt lat="45.52653" lon="6.7439">
        <ele>1748.2</ele>
        <time>2021-08-03T11:46:58Z</time>
      </trkpt>
      <trkpt lat="45.52654" lon="6.7439">
        <ele>1748.3</ele>
        <time>2021-08-03T11:46:59Z</time>
      </trkpt>
      <trkpt lat="45.52655" lon="6.74391">
        <ele>1748.4</ele>
        <time>2021-08-03T11:47:00Z</time>
      </trkpt>
      <trkpt lat="45.52656" lon="6.74392">
        <ele>1748.4</ele>
        <time>2021-08-03T11:47:01Z</time>
      </trkpt>
      <trkpt lat="45.52657" lon="6.74393">
        <ele>1748.5</ele>
        <time>2021-08-03T11:47:02Z</time>
      </trkpt>
      <trkpt lat="45.52658" lon="6.74393">
        <ele>1748.6</ele>
        <time>2021-08-03T11:47:03Z</time>
      </trkpt>
      <trkpt lat="45.52659" lon="6.74394">
        <ele>1748.7</ele>
        <time>2021-08-03T11:47:04Z</time>
      </trkpt>
      <trkpt lat="45.5266" lon="6.74395">
        <ele>1748.8</ele>
        <time>2021-08-03T11:47:05Z</time>
      </trkpt>
      <trkpt lat="45.52661" lon="6.74395">
        <ele>1748.9</ele>
        <time>2021-08-03T11:47:06Z</time>
      </trkpt>
      <trkpt lat="45.52662" lon="6.74396">
        <ele>1749</ele>
        <time>2021-08-03T11:47:07Z</time>
      </trkpt>
      <trkpt lat="45.52663" lon="6.74396">
        <ele>1749.1</ele>
        <time>2021-08-03T11:47:08Z</time>
      </trkpt>
      <trkpt lat="45.52664" lon="6.74397">
        <ele>1749.2</ele>
        <time>2021-08-03T11:47:09Z</time>
      </trkpt>
      <trkpt lat="45.52665" lon="6.74398">
        <ele>1749.3</ele>
        <time>2021-08-03T11:47:10Z</time>
      </trkpt>
      <trkpt lat="45.52666" lon="6.74398">
        <ele>1749.4</ele>
        <time>2021-08-03T11:47:11Z</time>
      </trkpt>
      <trkpt lat="45.52667" lon="6.74399">
        <ele>1749.5</ele>
        <time>2021-08-03T11:47:12Z</time>
      </trkpt>
      <trkpt lat="45.52668" lon="6.744">
        <ele>1749.6</ele>
        <time>2021-08-03T11:47:13Z</time>
      </trkpt>
      <trkpt lat="45.52669" lon="6.74401">
        <ele>1749.7</ele>
        <time>2021-08-03T11:47:14Z</time>
      </trkpt>
      <trkpt lat="45.5267" lon="6.74402">
        <ele>1749.8</ele>
        <time>2021-08-03T11:47:15Z</time>
      </trkpt>
      <trkpt lat="45.52671" lon="6.74404">
        <ele>1749.9</ele>
        <time>2021-08-03T11:47:16Z</time>
      </trkpt>
      <trkpt lat="45.52672" lon="6.74405">
        <ele>1750.1</ele>
        <time>2021-08-03T11:47:17Z</time>
      </trkpt>
      <trkpt lat="45.52673" lon="6.74406">
        <ele>1750.2</ele>
        <time>2021-08-03T11:47:18Z</time>
      </trkpt>
      <trkpt lat="45.52674" lon="6.74407">
        <ele>1750.3</ele>
        <time>2021-08-03T11:47:19Z</time>
      </trkpt>
      <trkpt lat="45.52675" lon="6.74408">
        <ele>1750.4</ele>
        <time>2021-08-03T11:47:20Z</time>
      </trkpt>
      <trkpt lat="45.52676" lon="6.74408">
        <ele>1750.5</ele>
        <time>2021-08-03T11:47:21Z</time>
      </trkpt>
      <trkpt lat="45.52677" lon="6.74409">
        <ele>1750.6</ele>
        <time>2021-08-03T11:47:22Z</time>
      </trkpt>
      <trkpt lat="45.52678" lon="6.74409">
        <ele>1750.7</ele>
        <time>2021-08-03T11:47:23Z</time>
      </trkpt>
      <trkpt lat="45.52678" lon="6.7441">
        <ele>1750.8</ele>
        <time>2021-08-03T11:47:24Z</time>
      </trkpt>
      <trkpt lat="45.52679" lon="6.7441">
        <ele>1750.9</ele>
        <time>2021-08-03T11:47:25Z</time>
      </trkpt>
      <trkpt lat="45.5268" lon="6.74411">
        <ele>1751</ele>
        <time>2021-08-03T11:47:26Z</time>
      </trkpt>
      <trkpt lat="45.52681" lon="6.74411">
        <ele>1751.1</ele>
        <time>2021-08-03T11:47:27Z</time>
      </trkpt>
      <trkpt lat="45.52682" lon="6.74412">
        <ele>1751.2</ele>
        <time>2021-08-03T11:47:28Z</time>
      </trkpt>
      <trkpt lat="45.52683" lon="6.74413">
        <ele>1751.3</ele>
        <time>2021-08-03T11:47:29Z</time>
      </trkpt>
      <trkpt lat="45.52684" lon="6.74414">
        <ele>1751.5</ele>
        <time>2021-08-03T11:47:30Z</time>
      </trkpt>
      <trkpt lat="45.52685" lon="6.74416">
        <ele>1751.6</ele>
        <time>2021-08-03T11:47:31Z</time>
      </trkpt>
      <trkpt lat="45.52685" lon="6.74417">
        <ele>1751.7</ele>
        <time>2021-08-03T11:47:32Z</time>
      </trkpt>
      <trkpt lat="45.52686" lon="6.74419">
        <ele>1751.9</ele>
        <time>2021-08-03T11:47:33Z</time>
      </trkpt>
      <trkpt lat="45.52686" lon="6.7442">
        <ele>1752</ele>
        <time>2021-08-03T11:47:34Z</time>
      </trkpt>
      <trkpt lat="45.52686" lon="6.74422">
        <ele>1752.1</ele>
        <time>2021-08-03T11:47:35Z</time>
      </trkpt>
      <trkpt lat="45.52686" lon="6.74423">
        <ele>1752.2</ele>
        <time>2021-08-03T11:47:36Z</time>
      </trkpt>
      <trkpt lat="45.52686" lon="6.74425">
        <ele>1752.3</ele>
        <time>2021-08-03T11:47:37Z</time>
      </trkpt>
      <trkpt lat="45.52685" lon="6.74426">
        <ele>1752.4</ele>
        <time>2021-08-03T11:47:38Z</time>
      </trkpt>
      <trkpt lat="45.52684" lon="6.74427">
        <ele>1752.6</ele>
        <time>2021-08-03T11:47:39Z</time>
      </trkpt>
      <trkpt lat="45.52683" lon="6.74427">
        <ele>1752.7</ele>
        <time>2021-08-03T11:47:40Z</time>
      </trkpt>
      <trkpt lat="45.52682" lon="6.74427">
        <ele>1752.8</ele>
        <time>2021-08-03T11:47:41Z</time>
      </trkpt>
      <trkpt lat="45.52681" lon="6.74427">
        <ele>1752.8</ele>
        <time>2021-08-03T11:47:42Z</time>
      </trkpt>
      <trkpt lat="45.52681" lon="6.74427">
        <ele>1752.9</ele>
        <time>2021-08-03T11:47:43Z</time>
      </trkpt>
      <trkpt lat="45.5268" lon="6.74427">
        <ele>1752.9</ele>
        <time>2021-08-03T11:47:44Z</time>
      </trkpt>
      <trkpt lat="45.52679" lon="6.74427">
        <ele>1753</ele>
        <time>2021-08-03T11:47:45Z</time>
      </trkpt>
      <trkpt lat="45.52679" lon="6.74427">
        <ele>1753</ele>
        <time>2021-08-03T11:47:46Z</time>
      </trkpt>
      <trkpt lat="45.52678" lon="6.74427">
        <ele>1753</ele>
        <time>2021-08-03T11:47:47Z</time>
      </trkpt>
      <trkpt lat="45.52677" lon="6.74427">
        <ele>1753.1</ele>
        <time>2021-08-03T11:47:48Z</time>
      </trkpt>
      <trkpt lat="45.52676" lon="6.74427">
        <ele>1753.1</ele>
        <time>2021-08-03T11:47:49Z</time>
      </trkpt>
      <trkpt lat="45.52676" lon="6.74427">
        <ele>1753.2</ele>
        <time>2021-08-03T11:47:50Z</time>
      </trkpt>
      <trkpt lat="45.52675" lon="6.74427">
        <ele>1753.2</ele>
        <time>2021-08-03T11:47:51Z</time>
      </trkpt>
      <trkpt lat="45.52674" lon="6.74427">
        <ele>1753.2</ele>
        <time>2021-08-03T11:47:52Z</time>
      </trkpt>
      <trkpt lat="45.52674" lon="6.74427">
        <ele>1753.3</ele>
        <time>2021-08-03T11:47:53Z</time>
      </trkpt>
      <trkpt lat="45.52673" lon="6.74427">
        <ele>1753.3</ele>
        <time>2021-08-03T11:47:54Z</time>
      </trkpt>
      <trkpt lat="45.52672" lon="6.74427">
        <ele>1753.3</ele>
        <time>2021-08-03T11:47:55Z</time>
      </trkpt>
      <trkpt lat="45.52671" lon="6.74427">
        <ele>1753.4</ele>
        <time>2021-08-03T11:47:56Z</time>
      </trkpt>
      <trkpt lat="45.52671" lon="6.74427">
        <ele>1753.4</ele>
        <time>2021-08-03T11:47:57Z</time>
      </trkpt>
      <trkpt lat="45.5267" lon="6.74427">
        <ele>1753.5</ele>
        <time>2021-08-03T11:47:58Z</time>
      </trkpt>
      <trkpt lat="45.52669" lon="6.74427">
        <ele>1753.5</ele>
        <time>2021-08-03T11:47:59Z</time>
      </trkpt>
      <trkpt lat="45.52669" lon="6.74427">
        <ele>1753.5</ele>
        <time>2021-08-03T11:48:00Z</time>
      </trkpt>
      <trkpt lat="45.52668" lon="6.74427">
        <ele>1753.6</ele>
        <time>2021-08-03T11:48:01Z</time>
      </trkpt>
      <trkpt lat="45.52667" lon="6.74427">
        <ele>1753.6</ele>
        <time>2021-08-03T11:48:02Z</time>
      </trkpt>
      <trkpt lat="45.52666" lon="6.74427">
        <ele>1753.6</ele>
        <time>2021-08-03T11:48:03Z</time>
      </trkpt>
      <trkpt lat="45.52666" lon="6.74427">
        <ele>1753.7</ele>
        <time>2021-08-03T11:48:04Z</time>
      </trkpt>
      <trkpt lat="45.52665" lon="6.74427">
        <ele>1753.7</ele>
        <time>2021-08-03T11:48:05Z</time>
      </trkpt>
      <trkpt lat="45.52664" lon="6.74427">
        <ele>1753.7</ele>
        <time>2021-08-03T11:48:06Z</time>
      </trkpt>
      <trkpt lat="45.52664" lon="6.74427">
        <ele>1753.7</ele>
        <time>2021-08-03T11:48:07Z</time>
      </trkpt>
      <trkpt lat="45.52663" lon="6.74427">
        <ele>1753.8</ele>
        <time>2021-08-03T11:48:08Z</time>
      </trkpt>
      <trkpt lat="45.52662" lon="6.74427">
        <ele>1753.8</ele>
        <time>2021-08-03T11:48:09Z</time>
      </trkpt>
      <trkpt lat="45.52661" lon="6.74427">
        <ele>1753.8</ele>
        <time>2021-08-03T11:48:10Z</time>
      </trkpt>
      <trkpt lat="45.52661" lon="6.74427">
        <ele>1753.9</ele>
        <time>2021-08-03T11:48:11Z</time>
      </trkpt>
      <trkpt lat="45.5266" lon="6.74426">
        <ele>1753.9</ele>
        <time>2021-08-03T11:48:12Z</time>
      </trkpt>
      <trkpt lat="45.52659" lon="6.74426">
        <ele>1753.9</ele>
        <time>2021-08-03T11:48:13Z</time>
      </trkpt>
      <trkpt lat="45.52659" lon="6.74426">
        <ele>1753.9</ele>
        <time>2021-08-03T11:48:14Z</time>
      </trkpt>
      <trkpt lat="45.52658" lon="6.74426">
        <ele>1754</ele>
        <time>2021-08-03T11:48:15Z</time>
      </trkpt>
      <trkpt lat="45.52657" lon="6.74426">
        <ele>1754</ele>
        <time>2021-08-03T11:48:16Z</time>
      </trkpt>
      <trkpt lat="45.52656" lon="6.74426">
        <ele>1754</ele>
        <time>2021-08-03T11:48:17Z</time>
      </trkpt>
      <trkpt lat="45.52656" lon="6.74426">
        <ele>1754</ele>
        <time>2021-08-03T11:48:18Z</time>
      </trkpt>
      <trkpt lat="45.52655" lon="6.74426">
        <ele>1754.1</ele>
        <time>2021-08-03T11:48:19Z</time>
      </trkpt>
      <trkpt lat="45.52654" lon="6.74426">
        <ele>1754.1</ele>
        <time>2021-08-03T11:48:20Z</time>
      </trkpt>
      <trkpt lat="45.52654" lon="6.74426">
        <ele>1754.1</ele>
        <time>2021-08-03T11:48:21Z</time>
      </trkpt>
      <trkpt lat="45.52653" lon="6.74426">
        <ele>1754.1</ele>
        <time>2021-08-03T11:48:22Z</time>
      </trkpt>
      <trkpt lat="45.52652" lon="6.74426">
        <ele>1754.2</ele>
        <time>2021-08-03T11:48:23Z</time>
      </trkpt>
      <trkpt lat="45.52651" lon="6.74426">
        <ele>1754.2</ele>
        <time>2021-08-03T11:48:24Z</time>
      </trkpt>
      <trkpt lat="45.52651" lon="6.74426">
        <ele>1754.2</ele>
        <time>2021-08-03T11:48:25Z</time>
      </trkpt>
      <trkpt lat="45.5265" lon="6.74426">
        <ele>1754.2</ele>
        <time>2021-08-03T11:48:26Z</time>
      </trkpt>
      <trkpt lat="45.52649" lon="6.74426">
        <ele>1754.3</ele>
        <time>2021-08-03T11:48:27Z</time>
      </trkpt>
      <trkpt lat="45.52648" lon="6.74426">
        <ele>1754.3</ele>
        <time>2021-08-03T11:48:28Z</time>
      </trkpt>
      <trkpt lat="45.52648" lon="6.74426">
        <ele>1754.3</ele>
        <time>2021-08-03T11:48:29Z</time>
      </trkpt>
      <trkpt lat="45.52647" lon="6.74426">
        <ele>1754.3</ele>
        <time>2021-08-03T11:48:30Z</time>
      </trkpt>
      <trkpt lat="45.52646" lon="6.74426">
        <ele>1754.4</ele>
        <time>2021-08-03T11:48:31Z</time>
      </trkpt>
      <trkpt lat="45.52646" lon="6.74426">
        <ele>1754.4</ele>
        <time>2021-08-03T11:48:32Z</time>
      </trkpt>
      <trkpt lat="45.52645" lon="6.74426">
        <ele>1754.4</ele>
        <time>2021-08-03T11:48:33Z</time>
      </trkpt>
      <trkpt lat="45.52644" lon="6.74426">
        <ele>1754.4</ele>
        <time>2021-08-03T11:48:34Z</time>
      </trkpt>
      <trkpt lat="45.52643" lon="6.74426">
        <ele>1754.4</ele>
        <time>2021-08-03T11:48:35Z</time>
      </trkpt>
      <trkpt lat="45.52643" lon="6.74426">
        <ele>1754.5</ele>
        <time>2021-08-03T11:48:36Z</time>
      </trkpt>
      <trkpt lat="45.52642" lon="6.74426">
        <ele>1754.5</ele>
        <time>2021-08-03T11:48:37Z</time>
      </trkpt>
      <trkpt lat="45.52641" lon="6.74426">
        <ele>1754.5</ele>
        <time>2021-08-03T11:48:38Z</time>
      </trkpt>
      <trkpt lat="45.52641" lon="6.74426">
        <ele>1754.5</ele>
        <time>2021-08-03T11:48:39Z</time>
      </trkpt>
      <trkpt lat="45.5264" lon="6.74426">
        <ele>1754.6</ele>
        <time>2021-08-03T11:48:40Z</time>
      </trkpt>
      <trkpt lat="45.52639" lon="6.74426">
        <ele>1754.6</ele>
        <time>2021-08-03T11:48:41Z</time>
      </trkpt>
      <trkpt lat="45.52637" lon="6.74424">
        <ele>1754.7</ele>
        <time>2021-08-03T11:48:42Z</time>
      </trkpt>
      <trkpt lat="45.52637" lon="6.74424">
        <ele>1754.7</ele>
        <time>2021-08-03T11:48:43Z</time>
      </trkpt>
      <trkpt lat="45.52636" lon="6.74423">
        <ele>1754.7</ele>
        <time>2021-08-03T11:48:44Z</time>
      </trkpt>
      <trkpt lat="45.52635" lon="6.74422">
        <ele>1754.8</ele>
        <time>2021-08-03T11:48:45Z</time>
      </trkpt>
      <trkpt lat="45.52634" lon="6.74422">
        <ele>1754.8</ele>
        <time>2021-08-03T11:48:46Z</time>
      </trkpt>
      <trkpt lat="45.52633" lon="6.74421">
        <ele>1754.8</ele>
        <time>2021-08-03T11:48:47Z</time>
      </trkpt>
      <trkpt lat="45.52632" lon="6.7442">
        <ele>1754.9</ele>
        <time>2021-08-03T11:48:48Z</time>
      </trkpt>
      <trkpt lat="45.52631" lon="6.74419">
        <ele>1754.9</ele>
        <time>2021-08-03T11:48:49Z</time>
      </trkpt>
      <trkpt lat="45.5263" lon="6.74418">
        <ele>1755</ele>
        <time>2021-08-03T11:48:50Z</time>
      </trkpt>
      <trkpt lat="45.5263" lon="6.74417">
        <ele>1755</ele>
        <time>2021-08-03T11:48:51Z</time>
      </trkpt>
      <trkpt lat="45.52629" lon="6.74417">
        <ele>1755</ele>
        <time>2021-08-03T11:48:52Z</time>
      </trkpt>
      <trkpt lat="45.52628" lon="6.74416">
        <ele>1755.1</ele>
        <time>2021-08-03T11:48:53Z</time>
      </trkpt>
      <trkpt lat="45.52627" lon="6.74415">
        <ele>1755.1</ele>
        <time>2021-08-03T11:48:54Z</time>
      </trkpt>
      <trkpt lat="45.52626" lon="6.74414">
        <ele>1755.1</ele>
        <time>2021-08-03T11:48:55Z</time>
      </trkpt>
      <trkpt lat="45.52625" lon="6.74413">
        <ele>1755.2</ele>
        <time>2021-08-03T11:48:56Z</time>
      </trkpt>
      <trkpt lat="45.52625" lon="6.74413">
        <ele>1755.2</ele>
        <time>2021-08-03T11:48:57Z</time>
      </trkpt>
      <trkpt lat="45.52624" lon="6.74412">
        <ele>1755.2</ele>
        <time>2021-08-03T11:48:58Z</time>
      </trkpt>
      <trkpt lat="45.52624" lon="6.74411">
        <ele>1755.2</ele>
        <time>2021-08-03T11:48:59Z</time>
      </trkpt>
      <trkpt lat="45.52623" lon="6.74411">
        <ele>1755.3</ele>
        <time>2021-08-03T11:49:00Z</time>
      </trkpt>
      <trkpt lat="45.52622" lon="6.7441">
        <ele>1755.3</ele>
        <time>2021-08-03T11:49:01Z</time>
      </trkpt>
      <trkpt lat="45.52622" lon="6.74409">
        <ele>1755.3</ele>
        <time>2021-08-03T11:49:02Z</time>
      </trkpt>
      <trkpt lat="45.52621" lon="6.74408">
        <ele>1755.4</ele>
        <time>2021-08-03T11:49:03Z</time>
      </trkpt>
      <trkpt lat="45.5262" lon="6.74407">
        <ele>1755.4</ele>
        <time>2021-08-03T11:49:04Z</time>
      </trkpt>
      <trkpt lat="45.5262" lon="6.74406">
        <ele>1755.4</ele>
        <time>2021-08-03T11:49:05Z</time>
      </trkpt>
      <trkpt lat="45.52619" lon="6.74405">
        <ele>1755.5</ele>
        <time>2021-08-03T11:49:06Z</time>
      </trkpt>
      <trkpt lat="45.52618" lon="6.74404">
        <ele>1755.5</ele>
        <time>2021-08-03T11:49:07Z</time>
      </trkpt>
      <trkpt lat="45.52618" lon="6.74403">
        <ele>1755.5</ele>
        <time>2021-08-03T11:49:08Z</time>
      </trkpt>
      <trkpt lat="45.52617" lon="6.74402">
        <ele>1755.5</ele>
        <time>2021-08-03T11:49:09Z</time>
      </trkpt>
      <trkpt lat="45.52617" lon="6.74401">
        <ele>1755.6</ele>
        <time>2021-08-03T11:49:10Z</time>
      </trkpt>
      <trkpt lat="45.52616" lon="6.74401">
        <ele>1755.6</ele>
        <time>2021-08-03T11:49:11Z</time>
      </trkpt>
      <trkpt lat="45.52616" lon="6.744">
        <ele>1755.6</ele>
        <time>2021-08-03T11:49:12Z</time>
      </trkpt>
      <trkpt lat="45.52615" lon="6.74399">
        <ele>1755.6</ele>
        <time>2021-08-03T11:49:13Z</time>
      </trkpt>
      <trkpt lat="45.52615" lon="6.74398">
        <ele>1755.6</ele>
        <time>2021-08-03T11:49:14Z</time>
      </trkpt>
      <trkpt lat="45.52614" lon="6.74397">
        <ele>1755.7</ele>
        <time>2021-08-03T11:49:15Z</time>
      </trkpt>
      <trkpt lat="45.52614" lon="6.74396">
        <ele>1755.7</ele>
        <time>2021-08-03T11:49:16Z</time>
      </trkpt>
      <trkpt lat="45.52614" lon="6.74395">
        <ele>1755.7</ele>
        <time>2021-08-03T11:49:17Z</time>
      </trkpt>
      <trkpt lat="45.52613" lon="6.74394">
        <ele>1755.7</ele>
        <time>2021-08-03T11:49:18Z</time>
      </trkpt>
      <trkpt lat="45.52613" lon="6.74393">
        <ele>1755.7</ele>
        <time>2021-08-03T11:49:19Z</time>
      </trkpt>
      <trkpt lat="45.52613" lon="6.74392">
        <ele>1755.7</ele>
        <time>2021-08-03T11:49:20Z</time>
      </trkpt>
      <trkpt lat="45.52612" lon="6.74391">
        <ele>1755.8</ele>
        <time>2021-08-03T11:49:21Z</time>
      </trkpt>
      <trkpt lat="45.52612" lon="6.7439">
        <ele>1755.8</ele>
        <time>2021-08-03T11:49:22Z</time>
      </trkpt>
      <trkpt lat="45.52611" lon="6.74389">
        <ele>1755.8</ele>
        <time>2021-08-03T11:49:23Z</time>
      </trkpt>
      <trkpt lat="45.52611" lon="6.74388">
        <ele>1755.8</ele>
        <time>2021-08-03T11:49:24Z</time>
      </trkpt>
      <trkpt lat="45.52611" lon="6.74387">
        <ele>1755.8</ele>
        <time>2021-08-03T11:49:25Z</time>
      </trkpt>
      <trkpt lat="45.5261" lon="6.74386">
        <ele>1755.8</ele>
        <time>2021-08-03T11:49:26Z</time>
      </trkpt>
      <trkpt lat="45.5261" lon="6.74385">
        <ele>1755.8</ele>
        <time>2021-08-03T11:49:27Z</time>
      </trkpt>
      <trkpt lat="45.52609" lon="6.74384">
        <ele>1755.8</ele>
        <time>2021-08-03T11:49:28Z</time>
      </trkpt>
      <trkpt lat="45.52609" lon="6.74383">
        <ele>1755.9</ele>
        <time>2021-08-03T11:49:29Z</time>
      </trkpt>
      <trkpt lat="45.52609" lon="6.74382">
        <ele>1755.9</ele>
        <time>2021-08-03T11:49:30Z</time>
      </trkpt>
      <trkpt lat="45.52608" lon="6.74381">
        <ele>1755.9</ele>
        <time>2021-08-03T11:49:31Z</time>
      </trkpt>
      <trkpt lat="45.52608" lon="6.7438">
        <ele>1755.9</ele>
        <time>2021-08-03T11:49:32Z</time>
      </trkpt>
      <trkpt lat="45.52607" lon="6.74379">
        <ele>1755.9</ele>
        <time>2021-08-03T11:49:33Z</time>
      </trkpt>
      <trkpt lat="45.52607" lon="6.74378">
        <ele>1755.9</ele>
        <time>2021-08-03T11:49:34Z</time>
      </trkpt>
      <trkpt lat="45.52607" lon="6.74377">
        <ele>1755.9</ele>
        <time>2021-08-03T11:49:35Z</time>
      </trkpt>
      <trkpt lat="45.52606" lon="6.74376">
        <ele>1755.9</ele>
        <time>2021-08-03T11:49:36Z</time>
      </trkpt>
      <trkpt lat="45.52605" lon="6.74375">
        <ele>1755.9</ele>
        <time>2021-08-03T11:49:37Z</time>
      </trkpt>
      <trkpt lat="45.52605" lon="6.74373">
        <ele>1756</ele>
        <time>2021-08-03T11:49:38Z</time>
      </trkpt>
      <trkpt lat="45.52604" lon="6.74372">
        <ele>1756</ele>
        <time>2021-08-03T11:49:39Z</time>
      </trkpt>
      <trkpt lat="45.52603" lon="6.74371">
        <ele>1756</ele>
        <time>2021-08-03T11:49:40Z</time>
      </trkpt>
      <trkpt lat="45.52602" lon="6.7437">
        <ele>1756</ele>
        <time>2021-08-03T11:49:41Z</time>
      </trkpt>
      <trkpt lat="45.52601" lon="6.74369">
        <ele>1756</ele>
        <time>2021-08-03T11:49:42Z</time>
      </trkpt>
      <trkpt lat="45.52601" lon="6.74367">
        <ele>1756</ele>
        <time>2021-08-03T11:49:43Z</time>
      </trkpt>
      <trkpt lat="45.526" lon="6.74366">
        <ele>1756.1</ele>
        <time>2021-08-03T11:49:44Z</time>
      </trkpt>
      <trkpt lat="45.52599" lon="6.74365">
        <ele>1756.1</ele>
        <time>2021-08-03T11:49:45Z</time>
      </trkpt>
      <trkpt lat="45.52598" lon="6.74364">
        <ele>1756.1</ele>
        <time>2021-08-03T11:49:46Z</time>
      </trkpt>
      <trkpt lat="45.52597" lon="6.74363">
        <ele>1756.1</ele>
        <time>2021-08-03T11:49:47Z</time>
      </trkpt>
      <trkpt lat="45.52596" lon="6.74362">
        <ele>1756.1</ele>
        <time>2021-08-03T11:49:48Z</time>
      </trkpt>
      <trkpt lat="45.52596" lon="6.74361">
        <ele>1756.1</ele>
        <time>2021-08-03T11:49:49Z</time>
      </trkpt>
      <trkpt lat="45.52595" lon="6.7436">
        <ele>1756.2</ele>
        <time>2021-08-03T11:49:50Z</time>
      </trkpt>
      <trkpt lat="45.52594" lon="6.74359">
        <ele>1756.2</ele>
        <time>2021-08-03T11:49:51Z</time>
      </trkpt>
      <trkpt lat="45.52593" lon="6.74358">
        <ele>1756.2</ele>
        <time>2021-08-03T11:49:52Z</time>
      </trkpt>
      <trkpt lat="45.52592" lon="6.74357">
        <ele>1756.2</ele>
        <time>2021-08-03T11:49:53Z</time>
      </trkpt>
      <trkpt lat="45.52591" lon="6.74355">
        <ele>1756.2</ele>
        <time>2021-08-03T11:49:54Z</time>
      </trkpt>
      <trkpt lat="45.52591" lon="6.74354">
        <ele>1756.3</ele>
        <time>2021-08-03T11:49:55Z</time>
      </trkpt>
      <trkpt lat="45.5259" lon="6.74353">
        <ele>1756.3</ele>
        <time>2021-08-03T11:49:56Z</time>
      </trkpt>
      <trkpt lat="45.5259" lon="6.74351">
        <ele>1756.3</ele>
        <time>2021-08-03T11:49:57Z</time>
      </trkpt>
      <trkpt lat="45.52589" lon="6.7435">
        <ele>1756.3</ele>
        <time>2021-08-03T11:49:58Z</time>
      </trkpt>
      <trkpt lat="45.52589" lon="6.74348">
        <ele>1756.3</ele>
        <time>2021-08-03T11:49:59Z</time>
      </trkpt>
      <trkpt lat="45.52589" lon="6.74347">
        <ele>1756.4</ele>
        <time>2021-08-03T11:50:00Z</time>
      </trkpt>
      <trkpt lat="45.52589" lon="6.74345">
        <ele>1756.4</ele>
        <time>2021-08-03T11:50:01Z</time>
      </trkpt>
      <trkpt lat="45.52589" lon="6.74343">
        <ele>1756.4</ele>
        <time>2021-08-03T11:50:02Z</time>
      </trkpt>
      <trkpt lat="45.52589" lon="6.74342">
        <ele>1756.4</ele>
        <time>2021-08-03T11:50:03Z</time>
      </trkpt>
      <trkpt lat="45.52589" lon="6.7434">
        <ele>1756.4</ele>
        <time>2021-08-03T11:50:04Z</time>
      </trkpt>
      <trkpt lat="45.52589" lon="6.74338">
        <ele>1756.5</ele>
        <time>2021-08-03T11:50:05Z</time>
      </trkpt>
      <trkpt lat="45.52589" lon="6.74336">
        <ele>1756.5</ele>
        <time>2021-08-03T11:50:06Z</time>
      </trkpt>
      <trkpt lat="45.52589" lon="6.74335">
        <ele>1756.5</ele>
        <time>2021-08-03T11:50:07Z</time>
      </trkpt>
      <trkpt lat="45.52589" lon="6.74333">
        <ele>1756.5</ele>
        <time>2021-08-03T11:50:08Z</time>
      </trkpt>
      <trkpt lat="45.52589" lon="6.74331">
        <ele>1756.5</ele>
        <time>2021-08-03T11:50:09Z</time>
      </trkpt>
      <trkpt lat="45.52589" lon="6.7433">
        <ele>1756.6</ele>
        <time>2021-08-03T11:50:10Z</time>
      </trkpt>
      <trkpt lat="45.52588" lon="6.74328">
        <ele>1756.6</ele>
        <time>2021-08-03T11:50:11Z</time>
      </trkpt>
      <trkpt lat="45.52588" lon="6.74326">
        <ele>1756.6</ele>
        <time>2021-08-03T11:50:12Z</time>
      </trkpt>
      <trkpt lat="45.52588" lon="6.74324">
        <ele>1756.6</ele>
        <time>2021-08-03T11:50:13Z</time>
      </trkpt>
      <trkpt lat="45.52587" lon="6.74322">
        <ele>1756.7</ele>
        <time>2021-08-03T11:50:14Z</time>
      </trkpt>
      <trkpt lat="45.52587" lon="6.7432">
        <ele>1756.7</ele>
        <time>2021-08-03T11:50:15Z</time>
      </trkpt>
      <trkpt lat="45.52587" lon="6.74319">
        <ele>1756.7</ele>
        <time>2021-08-03T11:50:16Z</time>
      </trkpt>
      <trkpt lat="45.52586" lon="6.74317">
        <ele>1756.7</ele>
        <time>2021-08-03T11:50:17Z</time>
      </trkpt>
      <trkpt lat="45.52586" lon="6.74315">
        <ele>1756.8</ele>
        <time>2021-08-03T11:50:18Z</time>
      </trkpt>
      <trkpt lat="45.52585" lon="6.74313">
        <ele>1756.8</ele>
        <time>2021-08-03T11:50:19Z</time>
      </trkpt>
      <trkpt lat="45.52584" lon="6.74311">
        <ele>1757</ele>
        <time>2021-08-03T11:50:20Z</time>
      </trkpt>
      <trkpt lat="45.52584" lon="6.7431">
        <ele>1757.1</ele>
        <time>2021-08-03T11:50:21Z</time>
      </trkpt>
      <trkpt lat="45.52583" lon="6.74308">
        <ele>1757.3</ele>
        <time>2021-08-03T11:50:22Z</time>
      </trkpt>
      <trkpt lat="45.52582" lon="6.74307">
        <ele>1757.4</ele>
        <time>2021-08-03T11:50:23Z</time>
      </trkpt>
      <trkpt lat="45.52581" lon="6.74306">
        <ele>1757.5</ele>
        <time>2021-08-03T11:50:24Z</time>
      </trkpt>
      <trkpt lat="45.5258" lon="6.74304">
        <ele>1757.7</ele>
        <time>2021-08-03T11:50:25Z</time>
      </trkpt>
      <trkpt lat="45.5258" lon="6.74303">
        <ele>1757.8</ele>
        <time>2021-08-03T11:50:26Z</time>
      </trkpt>
      <trkpt lat="45.52579" lon="6.74302">
        <ele>1758</ele>
        <time>2021-08-03T11:50:27Z</time>
      </trkpt>
      <trkpt lat="45.52578" lon="6.743">
        <ele>1758.1</ele>
        <time>2021-08-03T11:50:28Z</time>
      </trkpt>
      <trkpt lat="45.52577" lon="6.74299">
        <ele>1758.2</ele>
        <time>2021-08-03T11:50:29Z</time>
      </trkpt>
      <trkpt lat="45.52576" lon="6.74298">
        <ele>1758.4</ele>
        <time>2021-08-03T11:50:30Z</time>
      </trkpt>
      <trkpt lat="45.52575" lon="6.74296">
        <ele>1758.5</ele>
        <time>2021-08-03T11:50:31Z</time>
      </trkpt>
      <trkpt lat="45.52575" lon="6.74295">
        <ele>1758.7</ele>
        <time>2021-08-03T11:50:32Z</time>
      </trkpt>
      <trkpt lat="45.52574" lon="6.74293">
        <ele>1758.8</ele>
        <time>2021-08-03T11:50:33Z</time>
      </trkpt>
      <trkpt lat="45.52573" lon="6.74291">
        <ele>1759</ele>
        <time>2021-08-03T11:50:34Z</time>
      </trkpt>
      <trkpt lat="45.52572" lon="6.7429">
        <ele>1759.1</ele>
        <time>2021-08-03T11:50:35Z</time>
      </trkpt>
      <trkpt lat="45.52572" lon="6.74288">
        <ele>1759.3</ele>
        <time>2021-08-03T11:50:36Z</time>
      </trkpt>
      <trkpt lat="45.52571" lon="6.74287">
        <ele>1759.4</ele>
        <time>2021-08-03T11:50:37Z</time>
      </trkpt>
      <trkpt lat="45.5257" lon="6.74285">
        <ele>1759.6</ele>
        <time>2021-08-03T11:50:38Z</time>
      </trkpt>
      <trkpt lat="45.5257" lon="6.74283">
        <ele>1759.7</ele>
        <time>2021-08-03T11:50:39Z</time>
      </trkpt>
      <trkpt lat="45.52569" lon="6.74282">
        <ele>1759.9</ele>
        <time>2021-08-03T11:50:40Z</time>
      </trkpt>
      <trkpt lat="45.52568" lon="6.7428">
        <ele>1760</ele>
        <time>2021-08-03T11:50:41Z</time>
      </trkpt>
      <trkpt lat="45.52568" lon="6.74278">
        <ele>1760.2</ele>
        <time>2021-08-03T11:50:42Z</time>
      </trkpt>
      <trkpt lat="45.52567" lon="6.74277">
        <ele>1760.3</ele>
        <time>2021-08-03T11:50:43Z</time>
      </trkpt>
      <trkpt lat="45.52567" lon="6.74275">
        <ele>1760.5</ele>
        <time>2021-08-03T11:50:44Z</time>
      </trkpt>
      <trkpt lat="45.52566" lon="6.74273">
        <ele>1760.6</ele>
        <time>2021-08-03T11:50:45Z</time>
      </trkpt>
      <trkpt lat="45.52566" lon="6.74272">
        <ele>1760.8</ele>
        <time>2021-08-03T11:50:46Z</time>
      </trkpt>
      <trkpt lat="45.52565" lon="6.7427">
        <ele>1760.9</ele>
        <time>2021-08-03T11:50:47Z</time>
      </trkpt>
      <trkpt lat="45.52564" lon="6.74268">
        <ele>1761.1</ele>
        <time>2021-08-03T11:50:48Z</time>
      </trkpt>
      <trkpt lat="45.52564" lon="6.74267">
        <ele>1761.2</ele>
        <time>2021-08-03T11:50:49Z</time>
      </trkpt>
      <trkpt lat="45.52563" lon="6.74265">
        <ele>1761.4</ele>
        <time>2021-08-03T11:50:50Z</time>
      </trkpt>
      <trkpt lat="45.52563" lon="6.74263">
        <ele>1761.6</ele>
        <time>2021-08-03T11:50:51Z</time>
      </trkpt>
      <trkpt lat="45.52562" lon="6.74261">
        <ele>1761.7</ele>
        <time>2021-08-03T11:50:52Z</time>
      </trkpt>
      <trkpt lat="45.52561" lon="6.74259">
        <ele>1761.9</ele>
        <time>2021-08-03T11:50:53Z</time>
      </trkpt>
      <trkpt lat="45.52561" lon="6.74258">
        <ele>1762</ele>
        <time>2021-08-03T11:50:54Z</time>
      </trkpt>
      <trkpt lat="45.5256" lon="6.74256">
        <ele>1762.2</ele>
        <time>2021-08-03T11:50:55Z</time>
      </trkpt>
      <trkpt lat="45.5256" lon="6.74254">
        <ele>1762.3</ele>
        <time>2021-08-03T11:50:56Z</time>
      </trkpt>
      <trkpt lat="45.52559" lon="6.74252">
        <ele>1762.5</ele>
        <time>2021-08-03T11:50:57Z</time>
      </trkpt>
      <trkpt lat="45.52558" lon="6.7425">
        <ele>1762.7</ele>
        <time>2021-08-03T11:50:58Z</time>
      </trkpt>
      <trkpt lat="45.52558" lon="6.74249">
        <ele>1762.8</ele>
        <time>2021-08-03T11:50:59Z</time>
      </trkpt>
      <trkpt lat="45.52557" lon="6.74247">
        <ele>1763</ele>
        <time>2021-08-03T11:51:00Z</time>
      </trkpt>
      <trkpt lat="45.52556" lon="6.74245">
        <ele>1763.1</ele>
        <time>2021-08-03T11:51:01Z</time>
      </trkpt>
      <trkpt lat="45.52556" lon="6.74243">
        <ele>1763.3</ele>
        <time>2021-08-03T11:51:02Z</time>
      </trkpt>
      <trkpt lat="45.52555" lon="6.74242">
        <ele>1763.4</ele>
        <time>2021-08-03T11:51:03Z</time>
      </trkpt>
      <trkpt lat="45.52554" lon="6.7424">
        <ele>1763.6</ele>
        <time>2021-08-03T11:51:04Z</time>
      </trkpt>
      <trkpt lat="45.52553" lon="6.74238">
        <ele>1763.7</ele>
        <time>2021-08-03T11:51:05Z</time>
      </trkpt>
      <trkpt lat="45.52553" lon="6.74236">
        <ele>1763.9</ele>
        <time>2021-08-03T11:51:06Z</time>
      </trkpt>
      <trkpt lat="45.52552" lon="6.74235">
        <ele>1764</ele>
        <time>2021-08-03T11:51:07Z</time>
      </trkpt>
      <trkpt lat="45.52551" lon="6.74233">
        <ele>1764.2</ele>
        <time>2021-08-03T11:51:08Z</time>
      </trkpt>
      <trkpt lat="45.52551" lon="6.74231">
        <ele>1764.3</ele>
        <time>2021-08-03T11:51:09Z</time>
      </trkpt>
      <trkpt lat="45.5255" lon="6.74229">
        <ele>1764.4</ele>
        <time>2021-08-03T11:51:10Z</time>
      </trkpt>
      <trkpt lat="45.52549" lon="6.74228">
        <ele>1764.6</ele>
        <time>2021-08-03T11:51:11Z</time>
      </trkpt>
      <trkpt lat="45.52548" lon="6.74226">
        <ele>1764.7</ele>
        <time>2021-08-03T11:51:12Z</time>
      </trkpt>
      <trkpt lat="45.52548" lon="6.74224">
        <ele>1764.8</ele>
        <time>2021-08-03T11:51:13Z</time>
      </trkpt>
      <trkpt lat="45.52547" lon="6.74222">
        <ele>1765</ele>
        <time>2021-08-03T11:51:14Z</time>
      </trkpt>
      <trkpt lat="45.52546" lon="6.74221">
        <ele>1765.1</ele>
        <time>2021-08-03T11:51:15Z</time>
      </trkpt>
      <trkpt lat="45.52545" lon="6.74219">
        <ele>1765.2</ele>
        <time>2021-08-03T11:51:16Z</time>
      </trkpt>
      <trkpt lat="45.52545" lon="6.74217">
        <ele>1765.3</ele>
        <time>2021-08-03T11:51:17Z</time>
      </trkpt>
      <trkpt lat="45.52544" lon="6.74216">
        <ele>1765.5</ele>
        <time>2021-08-03T11:51:18Z</time>
      </trkpt>
      <trkpt lat="45.52543" lon="6.74214">
        <ele>1765.6</ele>
        <time>2021-08-03T11:51:19Z</time>
      </trkpt>
      <trkpt lat="45.52542" lon="6.74212">
        <ele>1765.7</ele>
        <time>2021-08-03T11:51:20Z</time>
      </trkpt>
      <trkpt lat="45.52542" lon="6.7421">
        <ele>1765.8</ele>
        <time>2021-08-03T11:51:21Z</time>
      </trkpt>
      <trkpt lat="45.52541" lon="6.74209">
        <ele>1766</ele>
        <time>2021-08-03T11:51:22Z</time>
      </trkpt>
      <trkpt lat="45.5254" lon="6.74207">
        <ele>1766.1</ele>
        <time>2021-08-03T11:51:23Z</time>
      </trkpt>
      <trkpt lat="45.5254" lon="6.74205">
        <ele>1766.2</ele>
        <time>2021-08-03T11:51:24Z</time>
      </trkpt>
      <trkpt lat="45.52539" lon="6.74204">
        <ele>1766.3</ele>
        <time>2021-08-03T11:51:25Z</time>
      </trkpt>
      <trkpt lat="45.52538" lon="6.74202">
        <ele>1766.5</ele>
        <time>2021-08-03T11:51:26Z</time>
      </trkpt>
      <trkpt lat="45.52537" lon="6.742">
        <ele>1766.6</ele>
        <time>2021-08-03T11:51:27Z</time>
      </trkpt>
      <trkpt lat="45.52537" lon="6.74198">
        <ele>1766.7</ele>
        <time>2021-08-03T11:51:28Z</time>
      </trkpt>
      <trkpt lat="45.52536" lon="6.74197">
        <ele>1766.8</ele>
        <time>2021-08-03T11:51:29Z</time>
      </trkpt>
      <trkpt lat="45.52535" lon="6.74195">
        <ele>1766.9</ele>
        <time>2021-08-03T11:51:30Z</time>
      </trkpt>
      <trkpt lat="45.52535" lon="6.74193">
        <ele>1767</ele>
        <time>2021-08-03T11:51:31Z</time>
      </trkpt>
      <trkpt lat="45.52534" lon="6.74192">
        <ele>1767.1</ele>
        <time>2021-08-03T11:51:32Z</time>
      </trkpt>
      <trkpt lat="45.52533" lon="6.7419">
        <ele>1767.2</ele>
        <time>2021-08-03T11:51:33Z</time>
      </trkpt>
      <trkpt lat="45.52533" lon="6.74188">
        <ele>1767.3</ele>
        <time>2021-08-03T11:51:34Z</time>
      </trkpt>
      <trkpt lat="45.52532" lon="6.74187">
        <ele>1767.4</ele>
        <time>2021-08-03T11:51:35Z</time>
      </trkpt>
      <trkpt lat="45.52531" lon="6.74185">
        <ele>1767.5</ele>
        <time>2021-08-03T11:51:36Z</time>
      </trkpt>
      <trkpt lat="45.5253" lon="6.74183">
        <ele>1767.7</ele>
        <time>2021-08-03T11:51:37Z</time>
      </trkpt>
      <trkpt lat="45.5253" lon="6.74181">
        <ele>1767.8</ele>
        <time>2021-08-03T11:51:38Z</time>
      </trkpt>
      <trkpt lat="45.52529" lon="6.7418">
        <ele>1767.9</ele>
        <time>2021-08-03T11:51:39Z</time>
      </trkpt>
      <trkpt lat="45.52528" lon="6.74178">
        <ele>1768</ele>
        <time>2021-08-03T11:51:40Z</time>
      </trkpt>
      <trkpt lat="45.52528" lon="6.74176">
        <ele>1768.1</ele>
        <time>2021-08-03T11:51:41Z</time>
      </trkpt>
      <trkpt lat="45.52527" lon="6.74174">
        <ele>1768.2</ele>
        <time>2021-08-03T11:51:42Z</time>
      </trkpt>
      <trkpt lat="45.52526" lon="6.74173">
        <ele>1768.3</ele>
        <time>2021-08-03T11:51:43Z</time>
      </trkpt>
      <trkpt lat="45.52526" lon="6.74171">
        <ele>1768.4</ele>
        <time>2021-08-03T11:51:44Z</time>
      </trkpt>
      <trkpt lat="45.52525" lon="6.74169">
        <ele>1768.5</ele>
        <time>2021-08-03T11:51:45Z</time>
      </trkpt>
      <trkpt lat="45.52524" lon="6.74168">
        <ele>1768.6</ele>
        <time>2021-08-03T11:51:46Z</time>
      </trkpt>
      <trkpt lat="45.52524" lon="6.74166">
        <ele>1768.7</ele>
        <time>2021-08-03T11:51:47Z</time>
      </trkpt>
      <trkpt lat="45.52523" lon="6.74164">
        <ele>1768.8</ele>
        <time>2021-08-03T11:51:48Z</time>
      </trkpt>
      <trkpt lat="45.52522" lon="6.74162">
        <ele>1768.9</ele>
        <time>2021-08-03T11:51:49Z</time>
      </trkpt>
      <trkpt lat="45.52522" lon="6.7416">
        <ele>1769</ele>
        <time>2021-08-03T11:51:50Z</time>
      </trkpt>
      <trkpt lat="45.52521" lon="6.74159">
        <ele>1769.1</ele>
        <time>2021-08-03T11:51:51Z</time>
      </trkpt>
      <trkpt lat="45.5252" lon="6.74157">
        <ele>1769.2</ele>
        <time>2021-08-03T11:51:52Z</time>
      </trkpt>
      <trkpt lat="45.5252" lon="6.74155">
        <ele>1769.3</ele>
        <time>2021-08-03T11:51:53Z</time>
      </trkpt>
      <trkpt lat="45.52519" lon="6.74153">
        <ele>1769.5</ele>
        <time>2021-08-03T11:51:54Z</time>
      </trkpt>
      <trkpt lat="45.52518" lon="6.74152">
        <ele>1769.6</ele>
        <time>2021-08-03T11:51:55Z</time>
      </trkpt>
      <trkpt lat="45.52518" lon="6.7415">
        <ele>1769.7</ele>
        <time>2021-08-03T11:51:56Z</time>
      </trkpt>
      <trkpt lat="45.52517" lon="6.74148">
        <ele>1769.8</ele>
        <time>2021-08-03T11:51:57Z</time>
      </trkpt>
      <trkpt lat="45.52516" lon="6.74146">
        <ele>1769.9</ele>
        <time>2021-08-03T11:51:58Z</time>
      </trkpt>
      <trkpt lat="45.52516" lon="6.74144">
        <ele>1770</ele>
        <time>2021-08-03T11:51:59Z</time>
      </trkpt>
      <trkpt lat="45.52515" lon="6.74143">
        <ele>1770.1</ele>
        <time>2021-08-03T11:52:00Z</time>
      </trkpt>
      <trkpt lat="45.52514" lon="6.74141">
        <ele>1770.2</ele>
        <time>2021-08-03T11:52:01Z</time>
      </trkpt>
      <trkpt lat="45.52513" lon="6.74139">
        <ele>1770.3</ele>
        <time>2021-08-03T11:52:02Z</time>
      </trkpt>
      <trkpt lat="45.52513" lon="6.74137">
        <ele>1770.4</ele>
        <time>2021-08-03T11:52:03Z</time>
      </trkpt>
      <trkpt lat="45.52512" lon="6.74135">
        <ele>1770.5</ele>
        <time>2021-08-03T11:52:04Z</time>
      </trkpt>
      <trkpt lat="45.52511" lon="6.74134">
        <ele>1770.6</ele>
        <time>2021-08-03T11:52:05Z</time>
      </trkpt>
      <trkpt lat="45.52511" lon="6.74132">
        <ele>1770.7</ele>
        <time>2021-08-03T11:52:06Z</time>
      </trkpt>
      <trkpt lat="45.5251" lon="6.7413">
        <ele>1770.8</ele>
        <time>2021-08-03T11:52:07Z</time>
      </trkpt>
      <trkpt lat="45.52509" lon="6.74128">
        <ele>1770.9</ele>
        <time>2021-08-03T11:52:08Z</time>
      </trkpt>
      <trkpt lat="45.52509" lon="6.74126">
        <ele>1771</ele>
        <time>2021-08-03T11:52:09Z</time>
      </trkpt>
      <trkpt lat="45.52508" lon="6.74125">
        <ele>1771.1</ele>
        <time>2021-08-03T11:52:10Z</time>
      </trkpt>
      <trkpt lat="45.52507" lon="6.74123">
        <ele>1771.2</ele>
        <time>2021-08-03T11:52:11Z</time>
      </trkpt>
      <trkpt lat="45.52507" lon="6.74121">
        <ele>1771.3</ele>
        <time>2021-08-03T11:52:12Z</time>
      </trkpt>
      <trkpt lat="45.52506" lon="6.74119">
        <ele>1771.4</ele>
        <time>2021-08-03T11:52:13Z</time>
      </trkpt>
      <trkpt lat="45.52505" lon="6.74118">
        <ele>1771.4</ele>
        <time>2021-08-03T11:52:14Z</time>
      </trkpt>
      <trkpt lat="45.52504" lon="6.74116">
        <ele>1771.5</ele>
        <time>2021-08-03T11:52:15Z</time>
      </trkpt>
      <trkpt lat="45.52504" lon="6.74114">
        <ele>1771.6</ele>
        <time>2021-08-03T11:52:16Z</time>
      </trkpt>
      <trkpt lat="45.52503" lon="6.74112">
        <ele>1771.7</ele>
        <time>2021-08-03T11:52:17Z</time>
      </trkpt>
      <trkpt lat="45.52502" lon="6.74111">
        <ele>1771.8</ele>
        <time>2021-08-03T11:52:18Z</time>
      </trkpt>
      <trkpt lat="45.52502" lon="6.74109">
        <ele>1771.9</ele>
        <time>2021-08-03T11:52:19Z</time>
      </trkpt>
      <trkpt lat="45.52501" lon="6.74107">
        <ele>1772</ele>
        <time>2021-08-03T11:52:20Z</time>
      </trkpt>
      <trkpt lat="45.525" lon="6.74105">
        <ele>1772.1</ele>
        <time>2021-08-03T11:52:21Z</time>
      </trkpt>
      <trkpt lat="45.52499" lon="6.74104">
        <ele>1772.1</ele>
        <time>2021-08-03T11:52:22Z</time>
      </trkpt>
      <trkpt lat="45.52499" lon="6.74102">
        <ele>1772.2</ele>
        <time>2021-08-03T11:52:23Z</time>
      </trkpt>
      <trkpt lat="45.52498" lon="6.741">
        <ele>1772.3</ele>
        <time>2021-08-03T11:52:24Z</time>
      </trkpt>
      <trkpt lat="45.52497" lon="6.74099">
        <ele>1772.4</ele>
        <time>2021-08-03T11:52:25Z</time>
      </trkpt>
      <trkpt lat="45.52496" lon="6.74097">
        <ele>1772.5</ele>
        <time>2021-08-03T11:52:26Z</time>
      </trkpt>
      <trkpt lat="45.52496" lon="6.74095">
        <ele>1772.6</ele>
        <time>2021-08-03T11:52:27Z</time>
      </trkpt>
      <trkpt lat="45.52495" lon="6.74094">
        <ele>1772.7</ele>
        <time>2021-08-03T11:52:28Z</time>
      </trkpt>
      <trkpt lat="45.52494" lon="6.74092">
        <ele>1772.8</ele>
        <time>2021-08-03T11:52:29Z</time>
      </trkpt>
      <trkpt lat="45.52493" lon="6.7409">
        <ele>1772.8</ele>
        <time>2021-08-03T11:52:30Z</time>
      </trkpt>
      <trkpt lat="45.52493" lon="6.74089">
        <ele>1772.9</ele>
        <time>2021-08-03T11:52:31Z</time>
      </trkpt>
      <trkpt lat="45.52492" lon="6.74087">
        <ele>1773</ele>
        <time>2021-08-03T11:52:32Z</time>
      </trkpt>
      <trkpt lat="45.52491" lon="6.74085">
        <ele>1773.1</ele>
        <time>2021-08-03T11:52:33Z</time>
      </trkpt>
      <trkpt lat="45.5249" lon="6.74084">
        <ele>1773.2</ele>
        <time>2021-08-03T11:52:34Z</time>
      </trkpt>
      <trkpt lat="45.5249" lon="6.74082">
        <ele>1773.3</ele>
        <time>2021-08-03T11:52:35Z</time>
      </trkpt>
      <trkpt lat="45.52489" lon="6.7408">
        <ele>1773.4</ele>
        <time>2021-08-03T11:52:36Z</time>
      </trkpt>
      <trkpt lat="45.52488" lon="6.74079">
        <ele>1773.5</ele>
        <time>2021-08-03T11:52:37Z</time>
      </trkpt>
      <trkpt lat="45.52487" lon="6.74077">
        <ele>1773.6</ele>
        <time>2021-08-03T11:52:38Z</time>
      </trkpt>
      <trkpt lat="45.52487" lon="6.74076">
        <ele>1773.6</ele>
        <time>2021-08-03T11:52:39Z</time>
      </trkpt>
      <trkpt lat="45.52486" lon="6.74074">
        <ele>1773.7</ele>
        <time>2021-08-03T11:52:40Z</time>
      </trkpt>
      <trkpt lat="45.52485" lon="6.74072">
        <ele>1773.8</ele>
        <time>2021-08-03T11:52:41Z</time>
      </trkpt>
      <trkpt lat="45.52485" lon="6.74071">
        <ele>1773.9</ele>
        <time>2021-08-03T11:52:42Z</time>
      </trkpt>
      <trkpt lat="45.52484" lon="6.74069">
        <ele>1774</ele>
        <time>2021-08-03T11:52:43Z</time>
      </trkpt>
      <trkpt lat="45.52483" lon="6.74068">
        <ele>1774.1</ele>
        <time>2021-08-03T11:52:44Z</time>
      </trkpt>
      <trkpt lat="45.52482" lon="6.74066">
        <ele>1774.1</ele>
        <time>2021-08-03T11:52:45Z</time>
      </trkpt>
      <trkpt lat="45.52481" lon="6.74065">
        <ele>1774.2</ele>
        <time>2021-08-03T11:52:46Z</time>
      </trkpt>
      <trkpt lat="45.52481" lon="6.74063">
        <ele>1774.3</ele>
        <time>2021-08-03T11:52:47Z</time>
      </trkpt>
      <trkpt lat="45.5248" lon="6.74062">
        <ele>1774.4</ele>
        <time>2021-08-03T11:52:48Z</time>
      </trkpt>
      <trkpt lat="45.52479" lon="6.7406">
        <ele>1774.5</ele>
        <time>2021-08-03T11:52:49Z</time>
      </trkpt>
      <trkpt lat="45.52478" lon="6.74059">
        <ele>1774.5</ele>
        <time>2021-08-03T11:52:50Z</time>
      </trkpt>
      <trkpt lat="45.52477" lon="6.74058">
        <ele>1774.6</ele>
        <time>2021-08-03T11:52:51Z</time>
      </trkpt>
      <trkpt lat="45.52476" lon="6.74056">
        <ele>1774.7</ele>
        <time>2021-08-03T11:52:52Z</time>
      </trkpt>
      <trkpt lat="45.52475" lon="6.74055">
        <ele>1774.8</ele>
        <time>2021-08-03T11:52:53Z</time>
      </trkpt>
      <trkpt lat="45.52474" lon="6.74054">
        <ele>1774.8</ele>
        <time>2021-08-03T11:52:54Z</time>
      </trkpt>
      <trkpt lat="45.52473" lon="6.74053">
        <ele>1774.9</ele>
        <time>2021-08-03T11:52:55Z</time>
      </trkpt>
      <trkpt lat="45.52472" lon="6.74051">
        <ele>1775</ele>
        <time>2021-08-03T11:52:56Z</time>
      </trkpt>
      <trkpt lat="45.52471" lon="6.7405">
        <ele>1775.1</ele>
        <time>2021-08-03T11:52:57Z</time>
      </trkpt>
      <trkpt lat="45.5247" lon="6.74049">
        <ele>1775.2</ele>
        <time>2021-08-03T11:52:58Z</time>
      </trkpt>
      <trkpt lat="45.52469" lon="6.74048">
        <ele>1775.3</ele>
        <time>2021-08-03T11:52:59Z</time>
      </trkpt>
      <trkpt lat="45.52467" lon="6.74047">
        <ele>1775.4</ele>
        <time>2021-08-03T11:53:00Z</time>
      </trkpt>
      <trkpt lat="45.52466" lon="6.74046">
        <ele>1775.4</ele>
        <time>2021-08-03T11:53:01Z</time>
      </trkpt>
      <trkpt lat="45.52465" lon="6.74046">
        <ele>1775.5</ele>
        <time>2021-08-03T11:53:02Z</time>
      </trkpt>
      <trkpt lat="45.52464" lon="6.74045">
        <ele>1775.6</ele>
        <time>2021-08-03T11:53:03Z</time>
      </trkpt>
      <trkpt lat="45.52463" lon="6.74044">
        <ele>1775.7</ele>
        <time>2021-08-03T11:53:04Z</time>
      </trkpt>
      <trkpt lat="45.52461" lon="6.74043">
        <ele>1775.8</ele>
        <time>2021-08-03T11:53:05Z</time>
      </trkpt>
      <trkpt lat="45.5246" lon="6.74043">
        <ele>1775.9</ele>
        <time>2021-08-03T11:53:06Z</time>
      </trkpt>
      <trkpt lat="45.52459" lon="6.74042">
        <ele>1776</ele>
        <time>2021-08-03T11:53:07Z</time>
      </trkpt>
      <trkpt lat="45.52457" lon="6.74042">
        <ele>1776.1</ele>
        <time>2021-08-03T11:53:08Z</time>
      </trkpt>
      <trkpt lat="45.52456" lon="6.74041">
        <ele>1776.2</ele>
        <time>2021-08-03T11:53:09Z</time>
      </trkpt>
      <trkpt lat="45.52455" lon="6.74041">
        <ele>1776.3</ele>
        <time>2021-08-03T11:53:10Z</time>
      </trkpt>
      <trkpt lat="45.52454" lon="6.74041">
        <ele>1776.4</ele>
        <time>2021-08-03T11:53:11Z</time>
      </trkpt>
      <trkpt lat="45.52453" lon="6.7404">
        <ele>1776.5</ele>
        <time>2021-08-03T11:53:12Z</time>
      </trkpt>
      <trkpt lat="45.52452" lon="6.7404">
        <ele>1776.6</ele>
        <time>2021-08-03T11:53:13Z</time>
      </trkpt>
      <trkpt lat="45.52451" lon="6.7404">
        <ele>1776.7</ele>
        <time>2021-08-03T11:53:14Z</time>
      </trkpt>
      <trkpt lat="45.5245" lon="6.7404">
        <ele>1776.8</ele>
        <time>2021-08-03T11:53:15Z</time>
      </trkpt>
      <trkpt lat="45.52449" lon="6.7404">
        <ele>1776.8</ele>
        <time>2021-08-03T11:53:16Z</time>
      </trkpt>
      <trkpt lat="45.52449" lon="6.7404">
        <ele>1776.9</ele>
        <time>2021-08-03T11:53:17Z</time>
      </trkpt>
      <trkpt lat="45.52449" lon="6.7404">
        <ele>1776.9</ele>
        <time>2021-08-03T11:53:18Z</time>
      </trkpt>
      <trkpt lat="45.52449" lon="6.7404">
        <ele>1776.9</ele>
        <time>2021-08-03T11:53:19Z</time>
      </trkpt>
      <trkpt lat="45.52449" lon="6.7404">
        <ele>1776.9</ele>
        <time>2021-08-03T11:53:20Z</time>
      </trkpt>
      <trkpt lat="45.52449" lon="6.7404">
        <ele>1776.9</ele>
        <time>2021-08-03T11:53:21Z</time>
      </trkpt>
      <trkpt lat="45.52449" lon="6.7404">
        <ele>1776.9</ele>
        <time>2021-08-03T11:53:22Z</time>
      </trkpt>
      <trkpt lat="45.52449" lon="6.7404">
        <ele>1776.9</ele>
        <time>2021-08-03T11:53:23Z</time>
      </trkpt>
      <trkpt lat="45.52449" lon="6.7404">
        <ele>1776.9</ele>
        <time>2021-08-03T11:53:24Z</time>
      </trkpt>
      <trkpt lat="45.52449" lon="6.7404">
        <ele>1776.9</ele>
        <time>2021-08-03T11:53:25Z</time>
      </trkpt>
      <trkpt lat="45.52449" lon="6.7404">
        <ele>1776.9</ele>
        <time>2021-08-03T11:53:26Z</time>
      </trkpt>
      <trkpt lat="45.52449" lon="6.7404">
        <ele>1776.9</ele>
        <time>2021-08-03T11:53:27Z</time>
      </trkpt>
      <trkpt lat="45.52449" lon="6.7404">
        <ele>1776.9</ele>
        <time>2021-08-03T11:53:28Z</time>
      </trkpt>
      <trkpt lat="45.52449" lon="6.7404">
        <ele>1776.9</ele>
        <time>2021-08-03T11:53:29Z</time>
      </trkpt>
      <trkpt lat="45.52449" lon="6.7404">
        <ele>1776.9</ele>
        <time>2021-08-03T11:53:30Z</time>
      </trkpt>
      <trkpt lat="45.52449" lon="6.7404">
        <ele>1776.9</ele>
        <time>2021-08-03T11:53:31Z</time>
      </trkpt>
      <trkpt lat="45.52449" lon="6.7404">
        <ele>1776.9</ele>
        <time>2021-08-03T11:53:32Z</time>
      </trkpt>
      <trkpt lat="45.52449" lon="6.74039">
        <ele>1776.9</ele>
        <time>2021-08-03T11:53:33Z</time>
      </trkpt>
      <trkpt lat="45.52448" lon="6.74039">
        <ele>1776.9</ele>
        <time>2021-08-03T11:53:34Z</time>
      </trkpt>
      <trkpt lat="45.52448" lon="6.74039">
        <ele>1776.9</ele>
        <time>2021-08-03T11:53:35Z</time>
      </trkpt>
      <trkpt lat="45.52448" lon="6.74039">
        <ele>1776.9</ele>
        <time>2021-08-03T11:53:36Z</time>
      </trkpt>
      <trkpt lat="45.52448" lon="6.74039">
        <ele>1776.9</ele>
        <time>2021-08-03T11:53:37Z</time>
      </trkpt>
      <trkpt lat="45.52448" lon="6.74039">
        <ele>1776.9</ele>
        <time>2021-08-03T11:53:38Z</time>
      </trkpt>
      <trkpt lat="45.52448" lon="6.74039">
        <ele>1776.9</ele>
        <time>2021-08-03T11:53:39Z</time>
      </trkpt>
      <trkpt lat="45.52448" lon="6.74039">
        <ele>1776.9</ele>
        <time>2021-08-03T11:53:40Z</time>
      </trkpt>
      <trkpt lat="45.52448" lon="6.74039">
        <ele>1776.9</ele>
        <time>2021-08-03T11:53:41Z</time>
      </trkpt>
      <trkpt lat="45.52448" lon="6.74039">
        <ele>1776.9</ele>
        <time>2021-08-03T11:53:42Z</time>
      </trkpt>
      <trkpt lat="45.52448" lon="6.74039">
        <ele>1776.9</ele>
        <time>2021-08-03T11:53:43Z</time>
      </trkpt>
      <trkpt lat="45.52448" lon="6.74039">
        <ele>1776.9</ele>
        <time>2021-08-03T11:53:44Z</time>
      </trkpt>
      <trkpt lat="45.52449" lon="6.74039">
        <ele>1776.9</ele>
        <time>2021-08-03T11:53:45Z</time>
      </trkpt>
      <trkpt lat="45.52449" lon="6.74039">
        <ele>1776.9</ele>
        <time>2021-08-03T11:53:46Z</time>
      </trkpt>
      <trkpt lat="45.52449" lon="6.74039">
        <ele>1777</ele>
        <time>2021-08-03T11:53:47Z</time>
      </trkpt>
      <trkpt lat="45.52449" lon="6.74039">
        <ele>1777</ele>
        <time>2021-08-03T11:53:48Z</time>
      </trkpt>
      <trkpt lat="45.52448" lon="6.74039">
        <ele>1777</ele>
        <time>2021-08-03T11:53:49Z</time>
      </trkpt>
      <trkpt lat="45.52448" lon="6.74039">
        <ele>1777</ele>
        <time>2021-08-03T11:53:50Z</time>
      </trkpt>
      <trkpt lat="45.52448" lon="6.74039">
        <ele>1777.1</ele>
        <time>2021-08-03T11:53:51Z</time>
      </trkpt>
      <trkpt lat="45.52447" lon="6.74039">
        <ele>1777.1</ele>
        <time>2021-08-03T11:53:52Z</time>
      </trkpt>
      <trkpt lat="45.52446" lon="6.74039">
        <ele>1777.2</ele>
        <time>2021-08-03T11:53:53Z</time>
      </trkpt>
      <trkpt lat="45.52445" lon="6.74039">
        <ele>1777.3</ele>
        <time>2021-08-03T11:53:54Z</time>
      </trkpt>
      <trkpt lat="45.52444" lon="6.74038">
        <ele>1777.4</ele>
        <time>2021-08-03T11:53:55Z</time>
      </trkpt>
      <trkpt lat="45.52443" lon="6.74037">
        <ele>1777.5</ele>
        <time>2021-08-03T11:53:56Z</time>
      </trkpt>
      <trkpt lat="45.52442" lon="6.74036">
        <ele>1777.6</ele>
        <time>2021-08-03T11:53:57Z</time>
      </trkpt>
      <trkpt lat="45.52441" lon="6.74035">
        <ele>1777.7</ele>
        <time>2021-08-03T11:53:58Z</time>
      </trkpt>
      <trkpt lat="45.52441" lon="6.74034">
        <ele>1777.8</ele>
        <time>2021-08-03T11:53:59Z</time>
      </trkpt>
      <trkpt lat="45.5244" lon="6.74032">
        <ele>1777.9</ele>
        <time>2021-08-03T11:54:00Z</time>
      </trkpt>
      <trkpt lat="45.52439" lon="6.74031">
        <ele>1778.1</ele>
        <time>2021-08-03T11:54:01Z</time>
      </trkpt>
      <trkpt lat="45.52438" lon="6.74029">
        <ele>1778.2</ele>
        <time>2021-08-03T11:54:02Z</time>
      </trkpt>
      <trkpt lat="45.52437" lon="6.74028">
        <ele>1778.3</ele>
        <time>2021-08-03T11:54:03Z</time>
      </trkpt>
      <trkpt lat="45.52436" lon="6.74026">
        <ele>1778.4</ele>
        <time>2021-08-03T11:54:04Z</time>
      </trkpt>
      <trkpt lat="45.52435" lon="6.74025">
        <ele>1778.5</ele>
        <time>2021-08-03T11:54:05Z</time>
      </trkpt>
      <trkpt lat="45.52434" lon="6.74023">
        <ele>1778.6</ele>
        <time>2021-08-03T11:54:06Z</time>
      </trkpt>
      <trkpt lat="45.52433" lon="6.74022">
        <ele>1778.7</ele>
        <time>2021-08-03T11:54:07Z</time>
      </trkpt>
      <trkpt lat="45.52432" lon="6.74021">
        <ele>1778.8</ele>
        <time>2021-08-03T11:54:08Z</time>
      </trkpt>
      <trkpt lat="45.52431" lon="6.74019">
        <ele>1778.9</ele>
        <time>2021-08-03T11:54:09Z</time>
      </trkpt>
      <trkpt lat="45.5243" lon="6.74018">
        <ele>1779</ele>
        <time>2021-08-03T11:54:10Z</time>
      </trkpt>
      <trkpt lat="45.52429" lon="6.74017">
        <ele>1779.1</ele>
        <time>2021-08-03T11:54:11Z</time>
      </trkpt>
      <trkpt lat="45.52428" lon="6.74016">
        <ele>1779.2</ele>
        <time>2021-08-03T11:54:12Z</time>
      </trkpt>
      <trkpt lat="45.52427" lon="6.74014">
        <ele>1779.3</ele>
        <time>2021-08-03T11:54:13Z</time>
      </trkpt>
      <trkpt lat="45.52426" lon="6.74013">
        <ele>1779.4</ele>
        <time>2021-08-03T11:54:14Z</time>
      </trkpt>
      <trkpt lat="45.52425" lon="6.74012">
        <ele>1779.5</ele>
        <time>2021-08-03T11:54:15Z</time>
      </trkpt>
      <trkpt lat="45.52424" lon="6.74011">
        <ele>1779.5</ele>
        <time>2021-08-03T11:54:16Z</time>
      </trkpt>
      <trkpt lat="45.52423" lon="6.7401">
        <ele>1779.6</ele>
        <time>2021-08-03T11:54:17Z</time>
      </trkpt>
      <trkpt lat="45.52422" lon="6.7401">
        <ele>1779.7</ele>
        <time>2021-08-03T11:54:18Z</time>
      </trkpt>
      <trkpt lat="45.5242" lon="6.74009">
        <ele>1779.7</ele>
        <time>2021-08-03T11:54:19Z</time>
      </trkpt>
      <trkpt lat="45.52419" lon="6.74008">
        <ele>1779.8</ele>
        <time>2021-08-03T11:54:20Z</time>
      </trkpt>
      <trkpt lat="45.52418" lon="6.74008">
        <ele>1779.8</ele>
        <time>2021-08-03T11:54:21Z</time>
      </trkpt>
      <trkpt lat="45.52417" lon="6.74007">
        <ele>1779.9</ele>
        <time>2021-08-03T11:54:22Z</time>
      </trkpt>
      <trkpt lat="45.52416" lon="6.74007">
        <ele>1779.9</ele>
        <time>2021-08-03T11:54:23Z</time>
      </trkpt>
      <trkpt lat="45.52415" lon="6.74006">
        <ele>1780</ele>
        <time>2021-08-03T11:54:24Z</time>
      </trkpt>
      <trkpt lat="45.52413" lon="6.74006">
        <ele>1780</ele>
        <time>2021-08-03T11:54:25Z</time>
      </trkpt>
    </trkseg>
  </trk>
</gpx>